<?xml version='1.0' encoding='UTF-8'?><gpx version="1.1" creator="JPX - https://github.com/jenetics/jpx" xmlns="http://www.topografix.com/GPX/1/1"><trk><trkseg><trkpt lat="44.8476679" lon="7.5075935"><ele>255.0</ele><time>2026-04-25T08:43:00.285Z</time></trkpt><trkpt lat="44.8477692" lon="7.5075832"><ele>255.0</ele><time>2026-04-25T08:43:06.292Z</time></trkpt><trkpt lat="44.8478509" lon="7.5075407"><ele>255.0</ele><time>2026-04-25T08:43:08.282Z</time></trkpt><trkpt lat="44.8479708" lon="7.5075585"><ele>255.0</ele><time>2026-04-25T08:43:10.302Z</time></trkpt><trkpt lat="44.8480782" lon="7.5075958"><ele>255.0</ele><time>2026-04-25T08:43:12.301Z</time></trkpt><trkpt lat="44.8481687" lon="7.5075972"><ele>255.0</ele><time>2026-04-25T08:43:14.287Z</time></trkpt><trkpt lat="44.8482482" lon="7.5074989"><ele>255.0</ele><time>2026-04-25T08:43:17.3Z</time></trkpt><trkpt lat="44.8483074" lon="7.5074462"><ele>255.0</ele><time>2026-04-25T08:43:18.299Z</time></trkpt><trkpt lat="44.8484057" lon="7.5074298"><ele>255.0</ele><time>2026-04-25T08:43:20.291Z</time></trkpt><trkpt lat="44.8484804" lon="7.5074279"><ele>255.0</ele><time>2026-04-25T08:43:24.314Z</time></trkpt><trkpt lat="44.8485753" lon="7.5074643"><ele>255.0</ele><time>2026-04-25T08:43:26.31Z</time></trkpt><trkpt lat="44.8486718" lon="7.5075079"><ele>254.33333333333331</ele><time>2026-04-25T08:43:27.318Z</time></trkpt><trkpt lat="44.8487957" lon="7.507563"><ele>253.66666666666666</ele><time>2026-04-25T08:43:28.305Z</time></trkpt><trkpt lat="44.848949" lon="7.5076375"><ele>253.0</ele><time>2026-04-25T08:43:29.321Z</time></trkpt><trkpt lat="44.8491512" lon="7.5077498"><ele>252.66666666666666</ele><time>2026-04-25T08:43:30.306Z</time></trkpt><trkpt lat="44.8493599" lon="7.5078535"><ele>252.33333333333331</ele><time>2026-04-25T08:43:31.304Z</time></trkpt><trkpt lat="44.8495614" lon="7.5079615"><ele>252.0</ele><time>2026-04-25T08:43:32.3Z</time></trkpt><trkpt lat="44.8497284" lon="7.5080546"><ele>252.66666666666669</ele><time>2026-04-25T08:43:33.3Z</time></trkpt><trkpt lat="44.8499187" lon="7.5081513"><ele>253.33333333333334</ele><time>2026-04-25T08:43:34.306Z</time></trkpt><trkpt lat="44.8500989" lon="7.508245"><ele>254.0</ele><time>2026-04-25T08:43:35.296Z</time></trkpt><trkpt lat="44.850277" lon="7.5083376"><ele>254.0</ele><time>2026-04-25T08:43:36.297Z</time></trkpt><trkpt lat="44.8504593" lon="7.5084272"><ele>254.0</ele><time>2026-04-25T08:43:37.301Z</time></trkpt><trkpt lat="44.8506307" lon="7.5085136"><ele>254.0</ele><time>2026-04-25T08:43:38.296Z</time></trkpt><trkpt lat="44.8507897" lon="7.5085916"><ele>254.0</ele><time>2026-04-25T08:43:39.296Z</time></trkpt><trkpt lat="44.8509357" lon="7.5086673"><ele>254.0</ele><time>2026-04-25T08:43:40.291Z</time></trkpt><trkpt lat="44.8510946" lon="7.508745"><ele>254.0</ele><time>2026-04-25T08:43:41.302Z</time></trkpt><trkpt lat="44.8512333" lon="7.5088111"><ele>255.0</ele><time>2026-04-25T08:43:42.296Z</time></trkpt><trkpt lat="44.8513806" lon="7.5088852"><ele>256.0</ele><time>2026-04-25T08:43:43.303Z</time></trkpt><trkpt lat="44.8515452" lon="7.5089728"><ele>257.0</ele><time>2026-04-25T08:43:44.298Z</time></trkpt><trkpt lat="44.8516934" lon="7.5090437"><ele>257.0</ele><time>2026-04-25T08:43:45.3Z</time></trkpt><trkpt lat="44.8518407" lon="7.5091127"><ele>257.0</ele><time>2026-04-25T08:43:46.303Z</time></trkpt><trkpt lat="44.8519876" lon="7.5091751"><ele>257.0</ele><time>2026-04-25T08:43:47.3Z</time></trkpt><trkpt lat="44.8521307" lon="7.5092484"><ele>257.0</ele><time>2026-04-25T08:43:48.305Z</time></trkpt><trkpt lat="44.8522823" lon="7.5093233"><ele>257.0</ele><time>2026-04-25T08:43:49.301Z</time></trkpt><trkpt lat="44.8524462" lon="7.5093971"><ele>257.0</ele><time>2026-04-25T08:43:50.3Z</time></trkpt><trkpt lat="44.8526136" lon="7.5094656"><ele>256.6666666666667</ele><time>2026-04-25T08:43:51.301Z</time></trkpt><trkpt lat="44.8527932" lon="7.5095467"><ele>256.3333333333333</ele><time>2026-04-25T08:43:52.311Z</time></trkpt><trkpt lat="44.8529697" lon="7.5096392"><ele>256.0</ele><time>2026-04-25T08:43:53.299Z</time></trkpt><trkpt lat="44.8531342" lon="7.5097205"><ele>256.0</ele><time>2026-04-25T08:43:54.299Z</time></trkpt><trkpt lat="44.853304" lon="7.5098041"><ele>256.0</ele><time>2026-04-25T08:43:55.3Z</time></trkpt><trkpt lat="44.8534877" lon="7.5098879"><ele>256.0</ele><time>2026-04-25T08:43:56.308Z</time></trkpt><trkpt lat="44.8536544" lon="7.5099534"><ele>255.66666666666666</ele><time>2026-04-25T08:43:57.303Z</time></trkpt><trkpt lat="44.8538243" lon="7.5100504"><ele>255.33333333333331</ele><time>2026-04-25T08:43:58.315Z</time></trkpt><trkpt lat="44.8539782" lon="7.5101212"><ele>255.0</ele><time>2026-04-25T08:43:59.311Z</time></trkpt><trkpt lat="44.8541373" lon="7.510202"><ele>255.0</ele><time>2026-04-25T08:44:00.298Z</time></trkpt><trkpt lat="44.8542859" lon="7.5102913"><ele>255.0</ele><time>2026-04-25T08:44:01.301Z</time></trkpt><trkpt lat="44.854456" lon="7.5103629"><ele>255.0</ele><time>2026-04-25T08:44:02.303Z</time></trkpt><trkpt lat="44.8546203" lon="7.5104438"><ele>255.33333333333331</ele><time>2026-04-25T08:44:03.305Z</time></trkpt><trkpt lat="44.8547841" lon="7.5105208"><ele>255.66666666666666</ele><time>2026-04-25T08:44:04.305Z</time></trkpt><trkpt lat="44.8549548" lon="7.5106027"><ele>256.0</ele><time>2026-04-25T08:44:05.3Z</time></trkpt><trkpt lat="44.8551319" lon="7.5106881"><ele>256.3333333333333</ele><time>2026-04-25T08:44:06.303Z</time></trkpt><trkpt lat="44.855312" lon="7.5107865"><ele>256.6666666666667</ele><time>2026-04-25T08:44:07.307Z</time></trkpt><trkpt lat="44.8554786" lon="7.5108752"><ele>257.0</ele><time>2026-04-25T08:44:08.301Z</time></trkpt><trkpt lat="44.8556517" lon="7.5109513"><ele>257.0</ele><time>2026-04-25T08:44:09.31Z</time></trkpt><trkpt lat="44.8558137" lon="7.511043"><ele>257.0</ele><time>2026-04-25T08:44:10.306Z</time></trkpt><trkpt lat="44.8559891" lon="7.5111335"><ele>257.0</ele><time>2026-04-25T08:44:11.307Z</time></trkpt><trkpt lat="44.8561665" lon="7.511229"><ele>257.6666666666667</ele><time>2026-04-25T08:44:12.308Z</time></trkpt><trkpt lat="44.8563305" lon="7.5113115"><ele>258.3333333333333</ele><time>2026-04-25T08:44:13.308Z</time></trkpt><trkpt lat="44.8565005" lon="7.5113888"><ele>259.0</ele><time>2026-04-25T08:44:14.304Z</time></trkpt><trkpt lat="44.8566576" lon="7.5114526"><ele>257.66666666666663</ele><time>2026-04-25T08:44:15.304Z</time></trkpt><trkpt lat="44.8568052" lon="7.511534"><ele>256.3333333333333</ele><time>2026-04-25T08:44:16.306Z</time></trkpt><trkpt lat="44.8569478" lon="7.5116134"><ele>255.0</ele><time>2026-04-25T08:44:17.301Z</time></trkpt><trkpt lat="44.8570835" lon="7.5116822"><ele>255.0</ele><time>2026-04-25T08:44:18.29Z</time></trkpt><trkpt lat="44.8572166" lon="7.5117208"><ele>255.0</ele><time>2026-04-25T08:44:19.302Z</time></trkpt><trkpt lat="44.8573477" lon="7.5117627"><ele>255.0</ele><time>2026-04-25T08:44:20.301Z</time></trkpt><trkpt lat="44.8574623" lon="7.5118098"><ele>255.0</ele><time>2026-04-25T08:44:21.302Z</time></trkpt><trkpt lat="44.8575736" lon="7.511824"><ele>255.16666666666666</ele><time>2026-04-25T08:44:22.305Z</time></trkpt><trkpt lat="44.8576713" lon="7.5118377"><ele>255.33333333333331</ele><time>2026-04-25T08:44:23.301Z</time></trkpt><trkpt lat="44.8577634" lon="7.5118441"><ele>255.5</ele><time>2026-04-25T08:44:24.308Z</time></trkpt><trkpt lat="44.8578423" lon="7.5118554"><ele>255.66666666666666</ele><time>2026-04-25T08:44:25.295Z</time></trkpt><trkpt lat="44.8579137" lon="7.5118884"><ele>255.83333333333331</ele><time>2026-04-25T08:44:26.297Z</time></trkpt><trkpt lat="44.8579796" lon="7.5119377"><ele>256.0</ele><time>2026-04-25T08:44:27.287Z</time></trkpt><trkpt lat="44.8580605" lon="7.5119773"><ele>256.0</ele><time>2026-04-25T08:44:28.28Z</time></trkpt><trkpt lat="44.8581419" lon="7.5119729"><ele>256.0</ele><time>2026-04-25T08:44:29.315Z</time></trkpt><trkpt lat="44.858245" lon="7.5119356"><ele>256.0</ele><time>2026-04-25T08:44:30.29Z</time></trkpt><trkpt lat="44.8583604" lon="7.5118976"><ele>256.0</ele><time>2026-04-25T08:44:31.283Z</time></trkpt><trkpt lat="44.8584886" lon="7.5118695"><ele>256.0</ele><time>2026-04-25T08:44:32.277Z</time></trkpt><trkpt lat="44.858632" lon="7.5118566"><ele>255.33333333333331</ele><time>2026-04-25T08:44:33.287Z</time></trkpt><trkpt lat="44.8587963" lon="7.5118339"><ele>254.66666666666669</ele><time>2026-04-25T08:44:34.298Z</time></trkpt><trkpt lat="44.8589926" lon="7.5118017"><ele>254.0</ele><time>2026-04-25T08:44:35.307Z</time></trkpt><trkpt lat="44.8591758" lon="7.511756"><ele>254.0</ele><time>2026-04-25T08:44:36.304Z</time></trkpt><trkpt lat="44.8593767" lon="7.5117148"><ele>254.0</ele><time>2026-04-25T08:44:37.282Z</time></trkpt><trkpt lat="44.8595469" lon="7.5116476"><ele>254.0</ele><time>2026-04-25T08:44:38.292Z</time></trkpt><trkpt lat="44.8597097" lon="7.5115606"><ele>254.0</ele><time>2026-04-25T08:44:39.295Z</time></trkpt><trkpt lat="44.8598803" lon="7.5114584"><ele>254.0</ele><time>2026-04-25T08:44:40.296Z</time></trkpt><trkpt lat="44.860047" lon="7.5113764"><ele>254.0</ele><time>2026-04-25T08:44:41.298Z</time></trkpt><trkpt lat="44.8602017" lon="7.5113032"><ele>254.25</ele><time>2026-04-25T08:44:42.297Z</time></trkpt><trkpt lat="44.8603381" lon="7.511227"><ele>254.5</ele><time>2026-04-25T08:44:43.292Z</time></trkpt><trkpt lat="44.8604686" lon="7.511159"><ele>254.75</ele><time>2026-04-25T08:44:44.303Z</time></trkpt><trkpt lat="44.8605877" lon="7.5110588"><ele>255.0</ele><time>2026-04-25T08:44:45.303Z</time></trkpt><trkpt lat="44.8607058" lon="7.5109505"><ele>255.0</ele><time>2026-04-25T08:44:46.307Z</time></trkpt><trkpt lat="44.8608194" lon="7.5108237"><ele>255.0</ele><time>2026-04-25T08:44:47.304Z</time></trkpt><trkpt lat="44.860934" lon="7.5107057"><ele>255.0</ele><time>2026-04-25T08:44:48.304Z</time></trkpt><trkpt lat="44.8610484" lon="7.5105964"><ele>255.0</ele><time>2026-04-25T08:44:49.303Z</time></trkpt><trkpt lat="44.8611509" lon="7.5104935"><ele>255.16666666666666</ele><time>2026-04-25T08:44:50.301Z</time></trkpt><trkpt lat="44.8612457" lon="7.5104182"><ele>255.33333333333331</ele><time>2026-04-25T08:44:51.305Z</time></trkpt><trkpt lat="44.8613221" lon="7.5103456"><ele>255.5</ele><time>2026-04-25T08:44:52.293Z</time></trkpt><trkpt lat="44.8613943" lon="7.5102593"><ele>255.66666666666666</ele><time>2026-04-25T08:44:53.295Z</time></trkpt><trkpt lat="44.8614598" lon="7.5101956"><ele>255.83333333333331</ele><time>2026-04-25T08:44:54.297Z</time></trkpt><trkpt lat="44.8615245" lon="7.5101445"><ele>256.0</ele><time>2026-04-25T08:44:55.305Z</time></trkpt><trkpt lat="44.8615909" lon="7.5101027"><ele>256.0</ele><time>2026-04-25T08:44:56.305Z</time></trkpt><trkpt lat="44.8616756" lon="7.5100531"><ele>256.0</ele><time>2026-04-25T08:44:57.299Z</time></trkpt><trkpt lat="44.8617581" lon="7.509962"><ele>256.0</ele><time>2026-04-25T08:44:58.3Z</time></trkpt><trkpt lat="44.8618335" lon="7.5098318"><ele>256.0</ele><time>2026-04-25T08:44:59.299Z</time></trkpt><trkpt lat="44.8619105" lon="7.5096898"><ele>256.0</ele><time>2026-04-25T08:45:00.295Z</time></trkpt><trkpt lat="44.8619998" lon="7.5095714"><ele>255.5</ele><time>2026-04-25T08:45:01.274Z</time></trkpt><trkpt lat="44.8620944" lon="7.5094527"><ele>255.0</ele><time>2026-04-25T08:45:02.279Z</time></trkpt><trkpt lat="44.8621998" lon="7.5093313"><ele>254.5</ele><time>2026-04-25T08:45:03.278Z</time></trkpt><trkpt lat="44.862314" lon="7.5091978"><ele>254.0</ele><time>2026-04-25T08:45:04.281Z</time></trkpt><trkpt lat="44.8624481" lon="7.5090336"><ele>254.0</ele><time>2026-04-25T08:45:05.281Z</time></trkpt><trkpt lat="44.8625872" lon="7.5088624"><ele>254.0</ele><time>2026-04-25T08:45:06.285Z</time></trkpt><trkpt lat="44.862719" lon="7.5086655"><ele>254.0</ele><time>2026-04-25T08:45:07.285Z</time></trkpt><trkpt lat="44.8628522" lon="7.5084712"><ele>254.0</ele><time>2026-04-25T08:45:08.282Z</time></trkpt><trkpt lat="44.8629664" lon="7.50827"><ele>254.0</ele><time>2026-04-25T08:45:09.288Z</time></trkpt><trkpt lat="44.8630693" lon="7.5080675"><ele>254.0</ele><time>2026-04-25T08:45:10.288Z</time></trkpt><trkpt lat="44.8631756" lon="7.5078535"><ele>254.66666666666669</ele><time>2026-04-25T08:45:11.291Z</time></trkpt><trkpt lat="44.8632859" lon="7.5076226"><ele>255.33333333333331</ele><time>2026-04-25T08:45:12.294Z</time></trkpt><trkpt lat="44.8633958" lon="7.507375"><ele>256.0</ele><time>2026-04-25T08:45:13.288Z</time></trkpt><trkpt lat="44.8634891" lon="7.5071377"><ele>255.66666666666666</ele><time>2026-04-25T08:45:14.288Z</time></trkpt><trkpt lat="44.8635709" lon="7.5068881"><ele>255.33333333333331</ele><time>2026-04-25T08:45:15.289Z</time></trkpt><trkpt lat="44.8636441" lon="7.5066239"><ele>255.0</ele><time>2026-04-25T08:45:16.289Z</time></trkpt><trkpt lat="44.8637131" lon="7.5063493"><ele>255.0</ele><time>2026-04-25T08:45:17.29Z</time></trkpt><trkpt lat="44.863767" lon="7.5060951"><ele>255.0</ele><time>2026-04-25T08:45:18.288Z</time></trkpt><trkpt lat="44.8638253" lon="7.5058243"><ele>255.0</ele><time>2026-04-25T08:45:19.296Z</time></trkpt><trkpt lat="44.8638693" lon="7.5055648"><ele>255.33333333333331</ele><time>2026-04-25T08:45:20.292Z</time></trkpt><trkpt lat="44.8638996" lon="7.5053014"><ele>255.66666666666666</ele><time>2026-04-25T08:45:21.287Z</time></trkpt><trkpt lat="44.8639227" lon="7.5050373"><ele>256.0</ele><time>2026-04-25T08:45:22.286Z</time></trkpt><trkpt lat="44.8639406" lon="7.5047704"><ele>256.0</ele><time>2026-04-25T08:45:23.288Z</time></trkpt><trkpt lat="44.8639632" lon="7.5045135"><ele>256.0</ele><time>2026-04-25T08:45:24.287Z</time></trkpt><trkpt lat="44.8639852" lon="7.5042392"><ele>256.0</ele><time>2026-04-25T08:45:25.289Z</time></trkpt><trkpt lat="44.8640043" lon="7.5039626"><ele>255.66666666666666</ele><time>2026-04-25T08:45:26.291Z</time></trkpt><trkpt lat="44.8640151" lon="7.5036932"><ele>255.33333333333331</ele><time>2026-04-25T08:45:27.294Z</time></trkpt><trkpt lat="44.8640319" lon="7.5034185"><ele>255.0</ele><time>2026-04-25T08:45:28.288Z</time></trkpt><trkpt lat="44.8640583" lon="7.5031466"><ele>255.66666666666669</ele><time>2026-04-25T08:45:29.294Z</time></trkpt><trkpt lat="44.864091" lon="7.5028481"><ele>256.33333333333337</ele><time>2026-04-25T08:45:30.287Z</time></trkpt><trkpt lat="44.864146" lon="7.502551"><ele>257.0</ele><time>2026-04-25T08:45:31.303Z</time></trkpt><trkpt lat="44.864214" lon="7.5022631"><ele>257.0</ele><time>2026-04-25T08:45:32.284Z</time></trkpt><trkpt lat="44.8642726" lon="7.502004"><ele>257.0</ele><time>2026-04-25T08:45:33.281Z</time></trkpt><trkpt lat="44.864344" lon="7.5017383"><ele>257.0</ele><time>2026-04-25T08:45:34.284Z</time></trkpt><trkpt lat="44.8644101" lon="7.5014968"><ele>256.6666666666667</ele><time>2026-04-25T08:45:35.29Z</time></trkpt><trkpt lat="44.8644898" lon="7.5012436"><ele>256.3333333333333</ele><time>2026-04-25T08:45:36.287Z</time></trkpt><trkpt lat="44.8645662" lon="7.501006"><ele>256.0</ele><time>2026-04-25T08:45:37.296Z</time></trkpt><trkpt lat="44.8646568" lon="7.5007646"><ele>256.0</ele><time>2026-04-25T08:45:38.294Z</time></trkpt><trkpt lat="44.8647565" lon="7.5005305"><ele>256.0</ele><time>2026-04-25T08:45:39.296Z</time></trkpt><trkpt lat="44.8648598" lon="7.500289"><ele>256.0</ele><time>2026-04-25T08:45:40.293Z</time></trkpt><trkpt lat="44.8649741" lon="7.5000492"><ele>256.0</ele><time>2026-04-25T08:45:41.291Z</time></trkpt><trkpt lat="44.8650828" lon="7.4998229"><ele>256.0</ele><time>2026-04-25T08:45:42.294Z</time></trkpt><trkpt lat="44.865207" lon="7.4996026"><ele>256.0</ele><time>2026-04-25T08:45:43.288Z</time></trkpt><trkpt lat="44.865331" lon="7.4994215"><ele>256.0</ele><time>2026-04-25T08:45:44.294Z</time></trkpt><trkpt lat="44.865456" lon="7.4992311"><ele>256.0</ele><time>2026-04-25T08:45:45.288Z</time></trkpt><trkpt lat="44.865587" lon="7.4990712"><ele>256.0</ele><time>2026-04-25T08:45:46.29Z</time></trkpt><trkpt lat="44.8656989" lon="7.4989188"><ele>256.0</ele><time>2026-04-25T08:45:47.291Z</time></trkpt><trkpt lat="44.8658175" lon="7.498786"><ele>256.0</ele><time>2026-04-25T08:45:48.284Z</time></trkpt><trkpt lat="44.8659306" lon="7.4986614"><ele>256.0</ele><time>2026-04-25T08:45:49.295Z</time></trkpt><trkpt lat="44.8660405" lon="7.498556"><ele>256.0</ele><time>2026-04-25T08:45:50.286Z</time></trkpt><trkpt lat="44.8661315" lon="7.4984518"><ele>256.3333333333333</ele><time>2026-04-25T08:45:51.287Z</time></trkpt><trkpt lat="44.8662171" lon="7.4983808"><ele>256.66666666666663</ele><time>2026-04-25T08:45:52.288Z</time></trkpt><trkpt lat="44.8663003" lon="7.498313"><ele>257.0</ele><time>2026-04-25T08:45:53.289Z</time></trkpt><trkpt lat="44.866368" lon="7.4982804"><ele>257.3333333333333</ele><time>2026-04-25T08:45:54.287Z</time></trkpt><trkpt lat="44.866448" lon="7.4982452"><ele>257.6666666666667</ele><time>2026-04-25T08:45:55.288Z</time></trkpt><trkpt lat="44.8665358" lon="7.4982108"><ele>258.0</ele><time>2026-04-25T08:45:56.295Z</time></trkpt><trkpt lat="44.8666382" lon="7.4981768"><ele>258.0</ele><time>2026-04-25T08:45:57.292Z</time></trkpt><trkpt lat="44.8667407" lon="7.4981267"><ele>258.0</ele><time>2026-04-25T08:45:58.28Z</time></trkpt><trkpt lat="44.8668344" lon="7.4980471"><ele>258.0</ele><time>2026-04-25T08:45:59.284Z</time></trkpt><trkpt lat="44.8669274" lon="7.497936"><ele>258.0</ele><time>2026-04-25T08:46:00.291Z</time></trkpt><trkpt lat="44.8670136" lon="7.4977965"><ele>257.5</ele><time>2026-04-25T08:46:01.279Z</time></trkpt><trkpt lat="44.8671151" lon="7.4976679"><ele>257.0</ele><time>2026-04-25T08:46:02.303Z</time></trkpt><trkpt lat="44.8672395" lon="7.4975655"><ele>256.5</ele><time>2026-04-25T08:46:03.281Z</time></trkpt><trkpt lat="44.8673935" lon="7.4974922"><ele>256.0</ele><time>2026-04-25T08:46:04.279Z</time></trkpt><trkpt lat="44.8675555" lon="7.4974179"><ele>256.0</ele><time>2026-04-25T08:46:05.285Z</time></trkpt><trkpt lat="44.8677203" lon="7.4973325"><ele>256.0</ele><time>2026-04-25T08:46:06.292Z</time></trkpt><trkpt lat="44.8678981" lon="7.4972448"><ele>256.0</ele><time>2026-04-25T08:46:07.292Z</time></trkpt><trkpt lat="44.8680617" lon="7.4971564"><ele>255.66666666666666</ele><time>2026-04-25T08:46:08.292Z</time></trkpt><trkpt lat="44.8682322" lon="7.4970651"><ele>255.33333333333331</ele><time>2026-04-25T08:46:09.294Z</time></trkpt><trkpt lat="44.868402" lon="7.4969735"><ele>255.0</ele><time>2026-04-25T08:46:10.293Z</time></trkpt><trkpt lat="44.8685814" lon="7.4968895"><ele>255.0</ele><time>2026-04-25T08:46:11.297Z</time></trkpt><trkpt lat="44.8687537" lon="7.4967909"><ele>255.0</ele><time>2026-04-25T08:46:12.293Z</time></trkpt><trkpt lat="44.8689426" lon="7.4966969"><ele>255.0</ele><time>2026-04-25T08:46:13.294Z</time></trkpt><trkpt lat="44.8691224" lon="7.4965979"><ele>255.66666666666669</ele><time>2026-04-25T08:46:14.299Z</time></trkpt><trkpt lat="44.8693004" lon="7.4964992"><ele>256.33333333333337</ele><time>2026-04-25T08:46:15.298Z</time></trkpt><trkpt lat="44.8694908" lon="7.4964025"><ele>257.0</ele><time>2026-04-25T08:46:16.291Z</time></trkpt><trkpt lat="44.8696933" lon="7.4963033"><ele>257.0</ele><time>2026-04-25T08:46:17.293Z</time></trkpt><trkpt lat="44.8698867" lon="7.4961999"><ele>257.0</ele><time>2026-04-25T08:46:18.293Z</time></trkpt><trkpt lat="44.8700678" lon="7.4960937"><ele>257.0</ele><time>2026-04-25T08:46:19.296Z</time></trkpt><trkpt lat="44.870249" lon="7.4959849"><ele>256.6666666666667</ele><time>2026-04-25T08:46:20.292Z</time></trkpt><trkpt lat="44.8704335" lon="7.4958824"><ele>256.3333333333333</ele><time>2026-04-25T08:46:21.295Z</time></trkpt><trkpt lat="44.8706186" lon="7.4957772"><ele>256.0</ele><time>2026-04-25T08:46:22.298Z</time></trkpt><trkpt lat="44.8708077" lon="7.4956792"><ele>256.0</ele><time>2026-04-25T08:46:23.295Z</time></trkpt><trkpt lat="44.8710031" lon="7.4955767"><ele>256.0</ele><time>2026-04-25T08:46:24.297Z</time></trkpt><trkpt lat="44.8712019" lon="7.4954689"><ele>256.0</ele><time>2026-04-25T08:46:25.3Z</time></trkpt><trkpt lat="44.8713731" lon="7.4953733"><ele>256.3333333333333</ele><time>2026-04-25T08:46:26.296Z</time></trkpt><trkpt lat="44.8715553" lon="7.4952844"><ele>256.6666666666667</ele><time>2026-04-25T08:46:27.293Z</time></trkpt><trkpt lat="44.8717474" lon="7.4951889"><ele>257.0</ele><time>2026-04-25T08:46:28.299Z</time></trkpt><trkpt lat="44.871936" lon="7.4950854"><ele>257.33333333333337</ele><time>2026-04-25T08:46:29.3Z</time></trkpt><trkpt lat="44.8721393" lon="7.4949901"><ele>257.6666666666667</ele><time>2026-04-25T08:46:30.292Z</time></trkpt><trkpt lat="44.8723506" lon="7.4948916"><ele>258.0</ele><time>2026-04-25T08:46:31.288Z</time></trkpt><trkpt lat="44.8725637" lon="7.4948128"><ele>257.6666666666667</ele><time>2026-04-25T08:46:32.287Z</time></trkpt><trkpt lat="44.8727719" lon="7.4947263"><ele>257.33333333333337</ele><time>2026-04-25T08:46:33.302Z</time></trkpt><trkpt lat="44.8729763" lon="7.4946723"><ele>257.0</ele><time>2026-04-25T08:46:34.289Z</time></trkpt><trkpt lat="44.8731741" lon="7.494627"><ele>257.6666666666667</ele><time>2026-04-25T08:46:35.287Z</time></trkpt><trkpt lat="44.8733784" lon="7.4945622"><ele>258.3333333333333</ele><time>2026-04-25T08:46:36.287Z</time></trkpt><trkpt lat="44.8735807" lon="7.4945031"><ele>259.0</ele><time>2026-04-25T08:46:37.298Z</time></trkpt><trkpt lat="44.8737819" lon="7.4944594"><ele>259.3333333333333</ele><time>2026-04-25T08:46:38.294Z</time></trkpt><trkpt lat="44.8739933" lon="7.4944258"><ele>259.6666666666667</ele><time>2026-04-25T08:46:39.295Z</time></trkpt><trkpt lat="44.8742218" lon="7.494399"><ele>260.0</ele><time>2026-04-25T08:46:40.296Z</time></trkpt><trkpt lat="44.8744499" lon="7.4943841"><ele>259.0</ele><time>2026-04-25T08:46:41.295Z</time></trkpt><trkpt lat="44.8746855" lon="7.4943757"><ele>258.0</ele><time>2026-04-25T08:46:42.296Z</time></trkpt><trkpt lat="44.8749057" lon="7.4943601"><ele>257.6666666666667</ele><time>2026-04-25T08:46:43.297Z</time></trkpt><trkpt lat="44.8751199" lon="7.4943514"><ele>257.33333333333337</ele><time>2026-04-25T08:46:44.301Z</time></trkpt><trkpt lat="44.8753443" lon="7.4943254"><ele>257.0</ele><time>2026-04-25T08:46:45.299Z</time></trkpt><trkpt lat="44.8755681" lon="7.4943106"><ele>257.0</ele><time>2026-04-25T08:46:46.3Z</time></trkpt><trkpt lat="44.8757863" lon="7.4942877"><ele>257.0</ele><time>2026-04-25T08:46:47.299Z</time></trkpt><trkpt lat="44.8760143" lon="7.4942745"><ele>257.0</ele><time>2026-04-25T08:46:48.301Z</time></trkpt><trkpt lat="44.8762386" lon="7.4942631"><ele>257.33333333333337</ele><time>2026-04-25T08:46:49.303Z</time></trkpt><trkpt lat="44.8764633" lon="7.4942415"><ele>257.6666666666667</ele><time>2026-04-25T08:46:50.302Z</time></trkpt><trkpt lat="44.8766866" lon="7.494243"><ele>258.0</ele><time>2026-04-25T08:46:51.298Z</time></trkpt><trkpt lat="44.8768974" lon="7.4942567"><ele>258.0</ele><time>2026-04-25T08:46:52.298Z</time></trkpt><trkpt lat="44.8771031" lon="7.4942779"><ele>258.0</ele><time>2026-04-25T08:46:53.297Z</time></trkpt><trkpt lat="44.8773117" lon="7.4942977"><ele>258.0</ele><time>2026-04-25T08:46:54.294Z</time></trkpt><trkpt lat="44.8775168" lon="7.4943215"><ele>257.6666666666667</ele><time>2026-04-25T08:46:55.302Z</time></trkpt><trkpt lat="44.8777368" lon="7.4943462"><ele>257.33333333333337</ele><time>2026-04-25T08:46:56.296Z</time></trkpt><trkpt lat="44.877947" lon="7.4943777"><ele>257.0</ele><time>2026-04-25T08:46:57.294Z</time></trkpt><trkpt lat="44.8781565" lon="7.494408"><ele>257.0</ele><time>2026-04-25T08:46:58.293Z</time></trkpt><trkpt lat="44.8783722" lon="7.4944299"><ele>257.0</ele><time>2026-04-25T08:46:59.298Z</time></trkpt><trkpt lat="44.8785798" lon="7.4944378"><ele>257.0</ele><time>2026-04-25T08:47:00.292Z</time></trkpt><trkpt lat="44.8787996" lon="7.4944706"><ele>257.33333333333337</ele><time>2026-04-25T08:47:01.291Z</time></trkpt><trkpt lat="44.8790191" lon="7.4944931"><ele>257.6666666666667</ele><time>2026-04-25T08:47:02.295Z</time></trkpt><trkpt lat="44.8792275" lon="7.4945156"><ele>258.0</ele><time>2026-04-25T08:47:03.294Z</time></trkpt><trkpt lat="44.8794391" lon="7.4945363"><ele>259.0</ele><time>2026-04-25T08:47:04.325Z</time></trkpt><trkpt lat="44.8796474" lon="7.4945655"><ele>260.0</ele><time>2026-04-25T08:47:05.296Z</time></trkpt><trkpt lat="44.8798496" lon="7.4945922"><ele>261.0</ele><time>2026-04-25T08:47:06.295Z</time></trkpt><trkpt lat="44.8800512" lon="7.4946168"><ele>260.3333333333333</ele><time>2026-04-25T08:47:07.297Z</time></trkpt><trkpt lat="44.8802617" lon="7.4946519"><ele>259.66666666666663</ele><time>2026-04-25T08:47:08.295Z</time></trkpt><trkpt lat="44.8804631" lon="7.4946847"><ele>259.0</ele><time>2026-04-25T08:47:09.296Z</time></trkpt><trkpt lat="44.8806582" lon="7.4946987"><ele>259.0</ele><time>2026-04-25T08:47:10.292Z</time></trkpt><trkpt lat="44.8808479" lon="7.4947372"><ele>259.0</ele><time>2026-04-25T08:47:11.293Z</time></trkpt><trkpt lat="44.8810315" lon="7.4947751"><ele>259.0</ele><time>2026-04-25T08:47:12.294Z</time></trkpt><trkpt lat="44.8812149" lon="7.494804"><ele>258.66666666666663</ele><time>2026-04-25T08:47:13.292Z</time></trkpt><trkpt lat="44.8813941" lon="7.4948303"><ele>258.3333333333333</ele><time>2026-04-25T08:47:14.292Z</time></trkpt><trkpt lat="44.8815772" lon="7.4948636"><ele>258.0</ele><time>2026-04-25T08:47:15.292Z</time></trkpt><trkpt lat="44.8817693" lon="7.4948842"><ele>257.6666666666667</ele><time>2026-04-25T08:47:16.295Z</time></trkpt><trkpt lat="44.8819424" lon="7.4949275"><ele>257.33333333333337</ele><time>2026-04-25T08:47:17.294Z</time></trkpt><trkpt lat="44.8821294" lon="7.4949616"><ele>257.0</ele><time>2026-04-25T08:47:18.293Z</time></trkpt><trkpt lat="44.8823159" lon="7.4949763"><ele>257.0</ele><time>2026-04-25T08:47:19.294Z</time></trkpt><trkpt lat="44.8824843" lon="7.4950157"><ele>257.0</ele><time>2026-04-25T08:47:20.295Z</time></trkpt><trkpt lat="44.8826653" lon="7.4950438"><ele>257.0</ele><time>2026-04-25T08:47:21.296Z</time></trkpt><trkpt lat="44.8828342" lon="7.495092"><ele>257.0</ele><time>2026-04-25T08:47:22.296Z</time></trkpt><trkpt lat="44.8830173" lon="7.4951423"><ele>257.0</ele><time>2026-04-25T08:47:23.297Z</time></trkpt><trkpt lat="44.8831912" lon="7.4951706"><ele>257.0</ele><time>2026-04-25T08:47:24.297Z</time></trkpt><trkpt lat="44.8833698" lon="7.4951931"><ele>256.6666666666667</ele><time>2026-04-25T08:47:25.294Z</time></trkpt><trkpt lat="44.8835466" lon="7.4952238"><ele>256.3333333333333</ele><time>2026-04-25T08:47:26.296Z</time></trkpt><trkpt lat="44.8837213" lon="7.4952513"><ele>256.0</ele><time>2026-04-25T08:47:27.297Z</time></trkpt><trkpt lat="44.8839052" lon="7.4952811"><ele>256.0</ele><time>2026-04-25T08:47:28.295Z</time></trkpt><trkpt lat="44.8840677" lon="7.4953231"><ele>256.0</ele><time>2026-04-25T08:47:29.299Z</time></trkpt><trkpt lat="44.8842362" lon="7.4953597"><ele>256.0</ele><time>2026-04-25T08:47:30.294Z</time></trkpt><trkpt lat="44.8844072" lon="7.4953976"><ele>257.0</ele><time>2026-04-25T08:47:31.294Z</time></trkpt><trkpt lat="44.8845707" lon="7.4954415"><ele>258.0</ele><time>2026-04-25T08:47:32.294Z</time></trkpt><trkpt lat="44.8847422" lon="7.4954891"><ele>259.0</ele><time>2026-04-25T08:47:33.292Z</time></trkpt><trkpt lat="44.884899" lon="7.4955299"><ele>259.0</ele><time>2026-04-25T08:47:34.304Z</time></trkpt><trkpt lat="44.8850607" lon="7.4955615"><ele>259.0</ele><time>2026-04-25T08:47:35.291Z</time></trkpt><trkpt lat="44.8852123" lon="7.4956198"><ele>259.0</ele><time>2026-04-25T08:47:36.296Z</time></trkpt><trkpt lat="44.885374" lon="7.4956729"><ele>258.3333333333333</ele><time>2026-04-25T08:47:37.293Z</time></trkpt><trkpt lat="44.88554" lon="7.4957354"><ele>257.6666666666667</ele><time>2026-04-25T08:47:38.294Z</time></trkpt><trkpt lat="44.8856816" lon="7.4957945"><ele>257.0</ele><time>2026-04-25T08:47:39.293Z</time></trkpt><trkpt lat="44.8858084" lon="7.4958518"><ele>257.25</ele><time>2026-04-25T08:47:40.285Z</time></trkpt><trkpt lat="44.8859431" lon="7.4958889"><ele>257.5</ele><time>2026-04-25T08:47:41.285Z</time></trkpt><trkpt lat="44.8860856" lon="7.4959223"><ele>257.75</ele><time>2026-04-25T08:47:42.284Z</time></trkpt><trkpt lat="44.88623" lon="7.4959398"><ele>258.0</ele><time>2026-04-25T08:47:43.282Z</time></trkpt><trkpt lat="44.886367" lon="7.4959373"><ele>258.0</ele><time>2026-04-25T08:47:44.28Z</time></trkpt><trkpt lat="44.8865123" lon="7.4959409"><ele>258.0</ele><time>2026-04-25T08:47:45.283Z</time></trkpt><trkpt lat="44.8866556" lon="7.4959218"><ele>258.0</ele><time>2026-04-25T08:47:46.278Z</time></trkpt><trkpt lat="44.8867725" lon="7.4959093"><ele>258.0</ele><time>2026-04-25T08:47:47.278Z</time></trkpt><trkpt lat="44.8868828" lon="7.4959012"><ele>258.25</ele><time>2026-04-25T08:47:48.278Z</time></trkpt><trkpt lat="44.8869949" lon="7.4958909"><ele>258.5</ele><time>2026-04-25T08:47:49.281Z</time></trkpt><trkpt lat="44.8871057" lon="7.4958857"><ele>258.75</ele><time>2026-04-25T08:47:50.279Z</time></trkpt><trkpt lat="44.8872227" lon="7.4958697"><ele>259.0</ele><time>2026-04-25T08:47:51.279Z</time></trkpt><trkpt lat="44.8873365" lon="7.4958768"><ele>259.0</ele><time>2026-04-25T08:47:52.282Z</time></trkpt><trkpt lat="44.8874387" lon="7.4958773"><ele>259.0</ele><time>2026-04-25T08:47:53.285Z</time></trkpt><trkpt lat="44.8875353" lon="7.4958709"><ele>259.0</ele><time>2026-04-25T08:47:54.287Z</time></trkpt><trkpt lat="44.887623" lon="7.4958604"><ele>259.0</ele><time>2026-04-25T08:47:55.291Z</time></trkpt><trkpt lat="44.8876921" lon="7.4958555"><ele>259.0</ele><time>2026-04-25T08:47:56.29Z</time></trkpt><trkpt lat="44.8877843" lon="7.4958387"><ele>259.0</ele><time>2026-04-25T08:47:58.278Z</time></trkpt><trkpt lat="44.8878528" lon="7.4958296"><ele>258.75</ele><time>2026-04-25T08:48:02.282Z</time></trkpt><trkpt lat="44.8879658" lon="7.4958086"><ele>258.5</ele><time>2026-04-25T08:48:18.257Z</time></trkpt><trkpt lat="44.8880644" lon="7.4957892"><ele>258.25</ele><time>2026-04-25T08:48:19.253Z</time></trkpt><trkpt lat="44.8881924" lon="7.4957507"><ele>258.0</ele><time>2026-04-25T08:48:20.249Z</time></trkpt><trkpt lat="44.8883413" lon="7.4957068"><ele>258.3333333333333</ele><time>2026-04-25T08:48:21.256Z</time></trkpt><trkpt lat="44.8885149" lon="7.4956417"><ele>258.66666666666663</ele><time>2026-04-25T08:48:22.261Z</time></trkpt><trkpt lat="44.888705" lon="7.4955787"><ele>259.0</ele><time>2026-04-25T08:48:23.267Z</time></trkpt><trkpt lat="44.8889071" lon="7.4955212"><ele>259.0</ele><time>2026-04-25T08:48:24.275Z</time></trkpt><trkpt lat="44.8890675" lon="7.4954426"><ele>259.0</ele><time>2026-04-25T08:48:25.274Z</time></trkpt><trkpt lat="44.8892188" lon="7.4953438"><ele>259.0</ele><time>2026-04-25T08:48:26.272Z</time></trkpt><trkpt lat="44.8893611" lon="7.4952251"><ele>259.66666666666663</ele><time>2026-04-25T08:48:27.271Z</time></trkpt><trkpt lat="44.8894875" lon="7.4950888"><ele>260.3333333333333</ele><time>2026-04-25T08:48:28.276Z</time></trkpt><trkpt lat="44.889624" lon="7.4949609"><ele>261.0</ele><time>2026-04-25T08:48:29.275Z</time></trkpt><trkpt lat="44.8897631" lon="7.4948262"><ele>261.0</ele><time>2026-04-25T08:48:30.271Z</time></trkpt><trkpt lat="44.8898958" lon="7.4946725"><ele>261.0</ele><time>2026-04-25T08:48:31.272Z</time></trkpt><trkpt lat="44.8900491" lon="7.4945424"><ele>261.0</ele><time>2026-04-25T08:48:32.265Z</time></trkpt><trkpt lat="44.8901702" lon="7.4943943"><ele>260.0</ele><time>2026-04-25T08:48:33.271Z</time></trkpt><trkpt lat="44.8903262" lon="7.4942734"><ele>259.0</ele><time>2026-04-25T08:48:34.277Z</time></trkpt><trkpt lat="44.8904834" lon="7.4941441"><ele>258.0</ele><time>2026-04-25T08:48:35.275Z</time></trkpt><trkpt lat="44.8906218" lon="7.49401"><ele>258.0</ele><time>2026-04-25T08:48:36.293Z</time></trkpt><trkpt lat="44.8907684" lon="7.4938927"><ele>258.0</ele><time>2026-04-25T08:48:37.279Z</time></trkpt><trkpt lat="44.8909129" lon="7.4937686"><ele>258.0</ele><time>2026-04-25T08:48:38.28Z</time></trkpt><trkpt lat="44.891052" lon="7.493637"><ele>258.3333333333333</ele><time>2026-04-25T08:48:39.286Z</time></trkpt><trkpt lat="44.8911886" lon="7.4934919"><ele>258.66666666666663</ele><time>2026-04-25T08:48:40.285Z</time></trkpt><trkpt lat="44.8913266" lon="7.4933545"><ele>259.0</ele><time>2026-04-25T08:48:41.287Z</time></trkpt><trkpt lat="44.8914722" lon="7.493214"><ele>259.0</ele><time>2026-04-25T08:48:42.281Z</time></trkpt><trkpt lat="44.8916326" lon="7.4930813"><ele>259.0</ele><time>2026-04-25T08:48:43.281Z</time></trkpt><trkpt lat="44.8917772" lon="7.49294"><ele>259.0</ele><time>2026-04-25T08:48:44.283Z</time></trkpt><trkpt lat="44.8919288" lon="7.4928088"><ele>259.66666666666663</ele><time>2026-04-25T08:48:45.279Z</time></trkpt><trkpt lat="44.8920819" lon="7.492662"><ele>260.3333333333333</ele><time>2026-04-25T08:48:46.275Z</time></trkpt><trkpt lat="44.8922347" lon="7.492524"><ele>261.0</ele><time>2026-04-25T08:48:47.282Z</time></trkpt><trkpt lat="44.8923953" lon="7.4923685"><ele>261.0</ele><time>2026-04-25T08:48:48.279Z</time></trkpt><trkpt lat="44.8925467" lon="7.4921941"><ele>261.0</ele><time>2026-04-25T08:48:49.285Z</time></trkpt><trkpt lat="44.8927158" lon="7.4920499"><ele>261.0</ele><time>2026-04-25T08:48:50.288Z</time></trkpt><trkpt lat="44.8928984" lon="7.4919096"><ele>260.6666666666667</ele><time>2026-04-25T08:48:51.291Z</time></trkpt><trkpt lat="44.8930679" lon="7.4917466"><ele>260.33333333333337</ele><time>2026-04-25T08:48:52.288Z</time></trkpt><trkpt lat="44.8932285" lon="7.4915786"><ele>260.0</ele><time>2026-04-25T08:48:53.289Z</time></trkpt><trkpt lat="44.8934056" lon="7.4914289"><ele>260.0</ele><time>2026-04-25T08:48:54.291Z</time></trkpt><trkpt lat="44.8935767" lon="7.4912752"><ele>260.0</ele><time>2026-04-25T08:48:55.291Z</time></trkpt><trkpt lat="44.8937361" lon="7.4911363"><ele>260.0</ele><time>2026-04-25T08:48:56.291Z</time></trkpt><trkpt lat="44.8938812" lon="7.4910006"><ele>260.0</ele><time>2026-04-25T08:48:57.281Z</time></trkpt><trkpt lat="44.8940216" lon="7.4908826"><ele>260.0</ele><time>2026-04-25T08:48:58.279Z</time></trkpt><trkpt lat="44.8941634" lon="7.4907664"><ele>260.0</ele><time>2026-04-25T08:48:59.294Z</time></trkpt><trkpt lat="44.8942908" lon="7.4906715"><ele>260.0</ele><time>2026-04-25T08:49:00.278Z</time></trkpt><trkpt lat="44.8944291" lon="7.4906238"><ele>260.0</ele><time>2026-04-25T08:49:01.27Z</time></trkpt><trkpt lat="44.8945457" lon="7.4906005"><ele>260.0</ele><time>2026-04-25T08:49:02.283Z</time></trkpt><trkpt lat="44.8946579" lon="7.4905854"><ele>260.0</ele><time>2026-04-25T08:49:03.282Z</time></trkpt><trkpt lat="44.8947766" lon="7.4905775"><ele>260.0</ele><time>2026-04-25T08:49:04.272Z</time></trkpt><trkpt lat="44.8948944" lon="7.4905547"><ele>260.0</ele><time>2026-04-25T08:49:05.279Z</time></trkpt><trkpt lat="44.8950047" lon="7.4905187"><ele>260.0</ele><time>2026-04-25T08:49:06.271Z</time></trkpt><trkpt lat="44.8951069" lon="7.4905047"><ele>260.0</ele><time>2026-04-25T08:49:07.287Z</time></trkpt><trkpt lat="44.8952041" lon="7.4904951"><ele>260.0</ele><time>2026-04-25T08:49:08.289Z</time></trkpt><trkpt lat="44.8952833" lon="7.4904741"><ele>260.1666666666667</ele><time>2026-04-25T08:49:09.279Z</time></trkpt><trkpt lat="44.8953553" lon="7.4904649"><ele>260.33333333333337</ele><time>2026-04-25T08:49:10.279Z</time></trkpt><trkpt lat="44.8954693" lon="7.4904492"><ele>260.5</ele><time>2026-04-25T08:49:12.277Z</time></trkpt><trkpt lat="44.8955545" lon="7.490441"><ele>260.6666666666667</ele><time>2026-04-25T08:49:14.28Z</time></trkpt><trkpt lat="44.8956224" lon="7.4904476"><ele>260.8333333333333</ele><time>2026-04-25T08:49:31.279Z</time></trkpt><trkpt lat="44.8957007" lon="7.490447"><ele>261.0</ele><time>2026-04-25T08:49:34.286Z</time></trkpt><trkpt lat="44.8957815" lon="7.4904404"><ele>261.0</ele><time>2026-04-25T08:49:35.263Z</time></trkpt><trkpt lat="44.8959084" lon="7.4904365"><ele>261.0</ele><time>2026-04-25T08:49:36.271Z</time></trkpt><trkpt lat="44.8960576" lon="7.4904239"><ele>261.0</ele><time>2026-04-25T08:49:37.281Z</time></trkpt><trkpt lat="44.89621" lon="7.4904139"><ele>261.0</ele><time>2026-04-25T08:49:38.295Z</time></trkpt><trkpt lat="44.8963682" lon="7.4904115"><ele>260.6666666666667</ele><time>2026-04-25T08:49:39.276Z</time></trkpt><trkpt lat="44.8965538" lon="7.4904289"><ele>260.33333333333337</ele><time>2026-04-25T08:49:40.283Z</time></trkpt><trkpt lat="44.8967482" lon="7.4904325"><ele>260.0</ele><time>2026-04-25T08:49:41.286Z</time></trkpt><trkpt lat="44.8969329" lon="7.4904338"><ele>259.33333333333337</ele><time>2026-04-25T08:49:42.284Z</time></trkpt><trkpt lat="44.8971246" lon="7.4904401"><ele>258.6666666666667</ele><time>2026-04-25T08:49:43.281Z</time></trkpt><trkpt lat="44.8973241" lon="7.4904453"><ele>258.0</ele><time>2026-04-25T08:49:44.287Z</time></trkpt><trkpt lat="44.8975167" lon="7.4904646"><ele>258.0</ele><time>2026-04-25T08:49:45.291Z</time></trkpt><trkpt lat="44.8977097" lon="7.4904893"><ele>258.0</ele><time>2026-04-25T08:49:46.288Z</time></trkpt><trkpt lat="44.8979047" lon="7.4905213"><ele>258.0</ele><time>2026-04-25T08:49:47.289Z</time></trkpt><trkpt lat="44.8981235" lon="7.4905592"><ele>258.0</ele><time>2026-04-25T08:49:48.294Z</time></trkpt><trkpt lat="44.8983406" lon="7.4906053"><ele>258.0</ele><time>2026-04-25T08:49:49.298Z</time></trkpt><trkpt lat="44.8985701" lon="7.4906456"><ele>257.5</ele><time>2026-04-25T08:49:50.296Z</time></trkpt><trkpt lat="44.8988036" lon="7.4906991"><ele>257.0</ele><time>2026-04-25T08:49:51.3Z</time></trkpt><trkpt lat="44.8990392" lon="7.4907654"><ele>257.0</ele><time>2026-04-25T08:49:52.298Z</time></trkpt><trkpt lat="44.8992736" lon="7.4908434"><ele>257.0</ele><time>2026-04-25T08:49:53.305Z</time></trkpt><trkpt lat="44.8995022" lon="7.4909133"><ele>257.0</ele><time>2026-04-25T08:49:54.299Z</time></trkpt><trkpt lat="44.8997339" lon="7.4909964"><ele>257.0</ele><time>2026-04-25T08:49:55.302Z</time></trkpt><trkpt lat="44.8999695" lon="7.4910761"><ele>257.0</ele><time>2026-04-25T08:49:56.306Z</time></trkpt><trkpt lat="44.9001971" lon="7.4911356"><ele>257.0</ele><time>2026-04-25T08:49:57.298Z</time></trkpt><trkpt lat="44.900431" lon="7.4912093"><ele>257.0</ele><time>2026-04-25T08:49:58.299Z</time></trkpt><trkpt lat="44.9006577" lon="7.4912789"><ele>257.0</ele><time>2026-04-25T08:49:59.303Z</time></trkpt><trkpt lat="44.9009035" lon="7.4913347"><ele>257.0</ele><time>2026-04-25T08:50:00.3Z</time></trkpt><trkpt lat="44.9011501" lon="7.49141"><ele>257.0</ele><time>2026-04-25T08:50:01.296Z</time></trkpt><trkpt lat="44.9014022" lon="7.4914838"><ele>257.0</ele><time>2026-04-25T08:50:02.297Z</time></trkpt><trkpt lat="44.9016552" lon="7.4915325"><ele>257.0</ele><time>2026-04-25T08:50:03.295Z</time></trkpt><trkpt lat="44.9019068" lon="7.491552"><ele>257.0</ele><time>2026-04-25T08:50:04.297Z</time></trkpt><trkpt lat="44.9021624" lon="7.4915734"><ele>257.0</ele><time>2026-04-25T08:50:05.296Z</time></trkpt><trkpt lat="44.9024298" lon="7.4915626"><ele>257.0</ele><time>2026-04-25T08:50:06.294Z</time></trkpt><trkpt lat="44.9026846" lon="7.4915382"><ele>257.0</ele><time>2026-04-25T08:50:07.294Z</time></trkpt><trkpt lat="44.9029433" lon="7.4914915"><ele>257.0</ele><time>2026-04-25T08:50:08.297Z</time></trkpt><trkpt lat="44.9031972" lon="7.4914562"><ele>257.0</ele><time>2026-04-25T08:50:09.319Z</time></trkpt><trkpt lat="44.9034669" lon="7.4914167"><ele>257.0</ele><time>2026-04-25T08:50:10.3Z</time></trkpt><trkpt lat="44.90372" lon="7.4913808"><ele>257.0</ele><time>2026-04-25T08:50:11.298Z</time></trkpt><trkpt lat="44.9039801" lon="7.4913398"><ele>257.0</ele><time>2026-04-25T08:50:12.301Z</time></trkpt><trkpt lat="44.9042448" lon="7.4913026"><ele>257.0</ele><time>2026-04-25T08:50:13.298Z</time></trkpt><trkpt lat="44.9045048" lon="7.4912751"><ele>257.0</ele><time>2026-04-25T08:50:14.297Z</time></trkpt><trkpt lat="44.9047625" lon="7.4912156"><ele>257.0</ele><time>2026-04-25T08:50:15.301Z</time></trkpt><trkpt lat="44.9050335" lon="7.4911528"><ele>257.5</ele><time>2026-04-25T08:50:16.291Z</time></trkpt><trkpt lat="44.9053027" lon="7.4910583"><ele>258.0</ele><time>2026-04-25T08:50:17.298Z</time></trkpt><trkpt lat="44.9055643" lon="7.4909745"><ele>258.0</ele><time>2026-04-25T08:50:18.299Z</time></trkpt><trkpt lat="44.905822" lon="7.4908839"><ele>258.0</ele><time>2026-04-25T08:50:19.301Z</time></trkpt><trkpt lat="44.9060812" lon="7.4908158"><ele>258.5</ele><time>2026-04-25T08:50:20.297Z</time></trkpt><trkpt lat="44.9063345" lon="7.4907403"><ele>259.0</ele><time>2026-04-25T08:50:21.293Z</time></trkpt><trkpt lat="44.906591" lon="7.4906509"><ele>258.0</ele><time>2026-04-25T08:50:22.286Z</time></trkpt><trkpt lat="44.9068445" lon="7.4905668"><ele>257.0</ele><time>2026-04-25T08:50:23.293Z</time></trkpt><trkpt lat="44.9071087" lon="7.4904817"><ele>257.0</ele><time>2026-04-25T08:50:24.293Z</time></trkpt><trkpt lat="44.9073737" lon="7.4904204"><ele>257.0</ele><time>2026-04-25T08:50:25.294Z</time></trkpt><trkpt lat="44.9076497" lon="7.4903663"><ele>256.0</ele><time>2026-04-25T08:50:26.289Z</time></trkpt><trkpt lat="44.9079209" lon="7.490324"><ele>255.0</ele><time>2026-04-25T08:50:27.275Z</time></trkpt><trkpt lat="44.9081922" lon="7.4903371"><ele>255.0</ele><time>2026-04-25T08:50:28.276Z</time></trkpt><trkpt lat="44.908477" lon="7.4903865"><ele>255.0</ele><time>2026-04-25T08:50:29.29Z</time></trkpt><trkpt lat="44.9087388" lon="7.4904522"><ele>255.0</ele><time>2026-04-25T08:50:30.289Z</time></trkpt><trkpt lat="44.9089931" lon="7.4904801"><ele>255.0</ele><time>2026-04-25T08:50:31.296Z</time></trkpt><trkpt lat="44.909262" lon="7.4904933"><ele>255.5</ele><time>2026-04-25T08:50:32.293Z</time></trkpt><trkpt lat="44.909534" lon="7.4904957"><ele>256.0</ele><time>2026-04-25T08:50:33.296Z</time></trkpt><trkpt lat="44.9098057" lon="7.4904959"><ele>257.5</ele><time>2026-04-25T08:50:34.29Z</time></trkpt><trkpt lat="44.9100775" lon="7.490508"><ele>259.0</ele><time>2026-04-25T08:50:35.298Z</time></trkpt><trkpt lat="44.9103591" lon="7.490518"><ele>259.0</ele><time>2026-04-25T08:50:36.302Z</time></trkpt><trkpt lat="44.9106295" lon="7.490515"><ele>259.0</ele><time>2026-04-25T08:50:37.298Z</time></trkpt><trkpt lat="44.9108994" lon="7.4905216"><ele>257.5</ele><time>2026-04-25T08:50:38.3Z</time></trkpt><trkpt lat="44.9111624" lon="7.4905331"><ele>256.0</ele><time>2026-04-25T08:50:39.284Z</time></trkpt><trkpt lat="44.9114397" lon="7.4905396"><ele>256.0</ele><time>2026-04-25T08:50:40.303Z</time></trkpt><trkpt lat="44.9117096" lon="7.4905405"><ele>256.0</ele><time>2026-04-25T08:50:41.281Z</time></trkpt><trkpt lat="44.9119717" lon="7.4905313"><ele>256.0</ele><time>2026-04-25T08:50:42.287Z</time></trkpt><trkpt lat="44.9122233" lon="7.4905362"><ele>256.0</ele><time>2026-04-25T08:50:43.288Z</time></trkpt><trkpt lat="44.9124674" lon="7.4905464"><ele>257.5</ele><time>2026-04-25T08:50:44.286Z</time></trkpt><trkpt lat="44.912715" lon="7.4905462"><ele>259.0</ele><time>2026-04-25T08:50:45.281Z</time></trkpt><trkpt lat="44.9129458" lon="7.4905691"><ele>259.0</ele><time>2026-04-25T08:50:46.28Z</time></trkpt><trkpt lat="44.913162" lon="7.4905978"><ele>259.0</ele><time>2026-04-25T08:50:47.279Z</time></trkpt><trkpt lat="44.9133818" lon="7.4906087"><ele>259.0</ele><time>2026-04-25T08:50:48.273Z</time></trkpt><trkpt lat="44.9136001" lon="7.4906124"><ele>258.66666666666663</ele><time>2026-04-25T08:50:49.277Z</time></trkpt><trkpt lat="44.9138145" lon="7.490631"><ele>258.3333333333333</ele><time>2026-04-25T08:50:50.275Z</time></trkpt><trkpt lat="44.9140052" lon="7.4906564"><ele>258.0</ele><time>2026-04-25T08:50:51.282Z</time></trkpt><trkpt lat="44.9142029" lon="7.4906603"><ele>258.0</ele><time>2026-04-25T08:50:52.271Z</time></trkpt><trkpt lat="44.9143967" lon="7.4906719"><ele>258.0</ele><time>2026-04-25T08:50:53.272Z</time></trkpt><trkpt lat="44.9145522" lon="7.490697"><ele>258.0</ele><time>2026-04-25T08:50:54.275Z</time></trkpt><trkpt lat="44.9147087" lon="7.4907109"><ele>258.0</ele><time>2026-04-25T08:50:55.276Z</time></trkpt><trkpt lat="44.9148623" lon="7.4907216"><ele>258.0</ele><time>2026-04-25T08:50:56.276Z</time></trkpt><trkpt lat="44.9150112" lon="7.4906941"><ele>258.0</ele><time>2026-04-25T08:50:57.278Z</time></trkpt><trkpt lat="44.9151586" lon="7.4906881"><ele>257.8</ele><time>2026-04-25T08:50:58.272Z</time></trkpt><trkpt lat="44.9152633" lon="7.4906596"><ele>257.6</ele><time>2026-04-25T08:50:59.276Z</time></trkpt><trkpt lat="44.9153526" lon="7.4905839"><ele>257.4</ele><time>2026-04-25T08:51:00.276Z</time></trkpt><trkpt lat="44.9154398" lon="7.4905142"><ele>257.2</ele><time>2026-04-25T08:51:01.272Z</time></trkpt><trkpt lat="44.9155426" lon="7.4904694"><ele>257.0</ele><time>2026-04-25T08:51:02.264Z</time></trkpt><trkpt lat="44.9156608" lon="7.4904653"><ele>257.0</ele><time>2026-04-25T08:51:03.257Z</time></trkpt><trkpt lat="44.9157819" lon="7.4904844"><ele>257.0</ele><time>2026-04-25T08:51:04.268Z</time></trkpt><trkpt lat="44.9159086" lon="7.4905649"><ele>257.0</ele><time>2026-04-25T08:51:05.261Z</time></trkpt><trkpt lat="44.9160364" lon="7.4906875"><ele>257.0</ele><time>2026-04-25T08:51:06.257Z</time></trkpt><trkpt lat="44.9161852" lon="7.4908433"><ele>256.6666666666667</ele><time>2026-04-25T08:51:07.257Z</time></trkpt><trkpt lat="44.9163416" lon="7.490984"><ele>256.3333333333333</ele><time>2026-04-25T08:51:08.261Z</time></trkpt><trkpt lat="44.9164715" lon="7.4910762"><ele>256.0</ele><time>2026-04-25T08:51:09.261Z</time></trkpt><trkpt lat="44.9166204" lon="7.4911629"><ele>256.3333333333333</ele><time>2026-04-25T08:51:10.264Z</time></trkpt><trkpt lat="44.9167702" lon="7.4912455"><ele>256.6666666666667</ele><time>2026-04-25T08:51:11.272Z</time></trkpt><trkpt lat="44.9169318" lon="7.4913277"><ele>257.0</ele><time>2026-04-25T08:51:12.271Z</time></trkpt><trkpt lat="44.9171047" lon="7.4914328"><ele>257.33333333333337</ele><time>2026-04-25T08:51:13.266Z</time></trkpt><trkpt lat="44.9172809" lon="7.4915164"><ele>257.6666666666667</ele><time>2026-04-25T08:51:14.263Z</time></trkpt><trkpt lat="44.9174216" lon="7.4916341"><ele>258.0</ele><time>2026-04-25T08:51:15.256Z</time></trkpt><trkpt lat="44.9175754" lon="7.4917377"><ele>258.0</ele><time>2026-04-25T08:51:16.251Z</time></trkpt><trkpt lat="44.9177029" lon="7.4918559"><ele>258.0</ele><time>2026-04-25T08:51:17.26Z</time></trkpt><trkpt lat="44.9178084" lon="7.4920304"><ele>258.0</ele><time>2026-04-25T08:51:18.268Z</time></trkpt><trkpt lat="44.9179281" lon="7.4922166"><ele>257.3333333333333</ele><time>2026-04-25T08:51:19.272Z</time></trkpt><trkpt lat="44.9180407" lon="7.4924102"><ele>256.66666666666663</ele><time>2026-04-25T08:51:20.278Z</time></trkpt><trkpt lat="44.9181314" lon="7.4926337"><ele>256.0</ele><time>2026-04-25T08:51:21.27Z</time></trkpt><trkpt lat="44.9182286" lon="7.4928494"><ele>256.0</ele><time>2026-04-25T08:51:22.267Z</time></trkpt><trkpt lat="44.918319" lon="7.493076"><ele>256.0</ele><time>2026-04-25T08:51:23.273Z</time></trkpt><trkpt lat="44.9183993" lon="7.4933251"><ele>256.0</ele><time>2026-04-25T08:51:24.275Z</time></trkpt><trkpt lat="44.9184415" lon="7.4936256"><ele>256.0</ele><time>2026-04-25T08:51:25.276Z</time></trkpt><trkpt lat="44.9185157" lon="7.4938743"><ele>256.0</ele><time>2026-04-25T08:51:26.277Z</time></trkpt><trkpt lat="44.9185985" lon="7.4941196"><ele>256.0</ele><time>2026-04-25T08:51:27.27Z</time></trkpt><trkpt lat="44.9186808" lon="7.4943611"><ele>256.0</ele><time>2026-04-25T08:51:28.278Z</time></trkpt><trkpt lat="44.9187682" lon="7.4945806"><ele>256.0</ele><time>2026-04-25T08:51:29.272Z</time></trkpt><trkpt lat="44.9188162" lon="7.4947798"><ele>256.0</ele><time>2026-04-25T08:51:30.269Z</time></trkpt><trkpt lat="44.91885" lon="7.4949538"><ele>256.0</ele><time>2026-04-25T08:51:31.263Z</time></trkpt><trkpt lat="44.9188588" lon="7.4951395"><ele>256.0</ele><time>2026-04-25T08:51:32.267Z</time></trkpt><trkpt lat="44.9188485" lon="7.4953167"><ele>256.0</ele><time>2026-04-25T08:51:33.265Z</time></trkpt><trkpt lat="44.9188008" lon="7.495457"><ele>256.0</ele><time>2026-04-25T08:51:34.271Z</time></trkpt><trkpt lat="44.9187849" lon="7.4956002"><ele>255.5</ele><time>2026-04-25T08:51:35.256Z</time></trkpt><trkpt lat="44.9188125" lon="7.4957528"><ele>255.0</ele><time>2026-04-25T08:51:36.258Z</time></trkpt><trkpt lat="44.9188823" lon="7.4958791"><ele>254.5</ele><time>2026-04-25T08:51:37.257Z</time></trkpt><trkpt lat="44.9189766" lon="7.4959768"><ele>254.0</ele><time>2026-04-25T08:51:38.271Z</time></trkpt><trkpt lat="44.9190751" lon="7.4960411"><ele>254.0</ele><time>2026-04-25T08:51:39.254Z</time></trkpt><trkpt lat="44.9191813" lon="7.4960499"><ele>253.99999999999997</ele><time>2026-04-25T08:51:40.266Z</time></trkpt><trkpt lat="44.9192814" lon="7.4959999"><ele>253.99999999999997</ele><time>2026-04-25T08:51:41.251Z</time></trkpt><trkpt lat="44.9193788" lon="7.4959267"><ele>254.0</ele><time>2026-04-25T08:51:42.286Z</time></trkpt><trkpt lat="44.9194728" lon="7.4958156"><ele>254.0</ele><time>2026-04-25T08:51:43.267Z</time></trkpt><trkpt lat="44.9195334" lon="7.495624"><ele>254.66666666666669</ele><time>2026-04-25T08:51:44.268Z</time></trkpt><trkpt lat="44.9195816" lon="7.4953812"><ele>255.33333333333331</ele><time>2026-04-25T08:51:45.26Z</time></trkpt><trkpt lat="44.9196297" lon="7.4950834"><ele>256.0</ele><time>2026-04-25T08:51:46.26Z</time></trkpt><trkpt lat="44.9197363" lon="7.4948445"><ele>256.0</ele><time>2026-04-25T08:51:47.255Z</time></trkpt><trkpt lat="44.9199093" lon="7.4946217"><ele>256.0</ele><time>2026-04-25T08:51:48.26Z</time></trkpt><trkpt lat="44.9200975" lon="7.494437"><ele>255.0</ele><time>2026-04-25T08:51:49.265Z</time></trkpt><trkpt lat="44.9202584" lon="7.4942581"><ele>254.0</ele><time>2026-04-25T08:51:50.262Z</time></trkpt><trkpt lat="44.9204354" lon="7.4941064"><ele>253.0</ele><time>2026-04-25T08:51:51.264Z</time></trkpt><trkpt lat="44.9206283" lon="7.4939478"><ele>253.0</ele><time>2026-04-25T08:51:52.262Z</time></trkpt><trkpt lat="44.9208371" lon="7.493818"><ele>253.0</ele><time>2026-04-25T08:51:53.26Z</time></trkpt><trkpt lat="44.9210813" lon="7.4937383"><ele>255.0</ele><time>2026-04-25T08:51:54.268Z</time></trkpt><trkpt lat="44.9213149" lon="7.4936939"><ele>257.0</ele><time>2026-04-25T08:51:55.267Z</time></trkpt><trkpt lat="44.9215376" lon="7.4936568"><ele>257.33333333333337</ele><time>2026-04-25T08:51:56.262Z</time></trkpt><trkpt lat="44.921747" lon="7.4936503"><ele>257.6666666666667</ele><time>2026-04-25T08:51:57.26Z</time></trkpt><trkpt lat="44.9219731" lon="7.4936909"><ele>258.0</ele><time>2026-04-25T08:51:58.254Z</time></trkpt><trkpt lat="44.9221924" lon="7.4937729"><ele>258.5</ele><time>2026-04-25T08:51:59.257Z</time></trkpt><trkpt lat="44.9224082" lon="7.4938837"><ele>259.0</ele><time>2026-04-25T08:52:00.269Z</time></trkpt><trkpt lat="44.9226083" lon="7.4940127"><ele>258.0</ele><time>2026-04-25T08:52:01.274Z</time></trkpt><trkpt lat="44.9228083" lon="7.4941517"><ele>257.0</ele><time>2026-04-25T08:52:02.273Z</time></trkpt><trkpt lat="44.9230127" lon="7.4942879"><ele>256.0</ele><time>2026-04-25T08:52:03.268Z</time></trkpt><trkpt lat="44.9232142" lon="7.4944249"><ele>256.66666666666663</ele><time>2026-04-25T08:52:04.272Z</time></trkpt><trkpt lat="44.9234141" lon="7.4945768"><ele>257.3333333333333</ele><time>2026-04-25T08:52:05.269Z</time></trkpt><trkpt lat="44.923591" lon="7.4947333"><ele>258.0</ele><time>2026-04-25T08:52:06.265Z</time></trkpt><trkpt lat="44.9237843" lon="7.4948713"><ele>258.0</ele><time>2026-04-25T08:52:07.264Z</time></trkpt><trkpt lat="44.92398" lon="7.4950282"><ele>258.0</ele><time>2026-04-25T08:52:08.27Z</time></trkpt><trkpt lat="44.9242059" lon="7.4951577"><ele>258.5</ele><time>2026-04-25T08:52:09.268Z</time></trkpt><trkpt lat="44.9244035" lon="7.4952961"><ele>259.0</ele><time>2026-04-25T08:52:10.268Z</time></trkpt><trkpt lat="44.9246102" lon="7.4954598"><ele>257.5</ele><time>2026-04-25T08:52:11.269Z</time></trkpt><trkpt lat="44.9248222" lon="7.4956495"><ele>256.0</ele><time>2026-04-25T08:52:12.283Z</time></trkpt><trkpt lat="44.9250111" lon="7.495838"><ele>255.5</ele><time>2026-04-25T08:52:13.268Z</time></trkpt><trkpt lat="44.925224" lon="7.4960026"><ele>255.0</ele><time>2026-04-25T08:52:14.273Z</time></trkpt><trkpt lat="44.9254374" lon="7.4961686"><ele>254.0</ele><time>2026-04-25T08:52:15.274Z</time></trkpt><trkpt lat="44.9256526" lon="7.4963326"><ele>253.0</ele><time>2026-04-25T08:52:16.28Z</time></trkpt><trkpt lat="44.925865" lon="7.4964939"><ele>253.0</ele><time>2026-04-25T08:52:17.281Z</time></trkpt><trkpt lat="44.9260914" lon="7.496674"><ele>253.0</ele><time>2026-04-25T08:52:18.275Z</time></trkpt><trkpt lat="44.9263153" lon="7.4968411"><ele>253.0</ele><time>2026-04-25T08:52:19.282Z</time></trkpt><trkpt lat="44.9265365" lon="7.4970081"><ele>253.0</ele><time>2026-04-25T08:52:20.276Z</time></trkpt><trkpt lat="44.9267587" lon="7.4971757"><ele>254.0</ele><time>2026-04-25T08:52:21.275Z</time></trkpt><trkpt lat="44.926973" lon="7.4973368"><ele>255.0</ele><time>2026-04-25T08:52:22.28Z</time></trkpt><trkpt lat="44.9271745" lon="7.4974886"><ele>255.0</ele><time>2026-04-25T08:52:23.275Z</time></trkpt><trkpt lat="44.9273956" lon="7.4976434"><ele>255.0</ele><time>2026-04-25T08:52:24.281Z</time></trkpt><trkpt lat="44.9276033" lon="7.4977801"><ele>256.0</ele><time>2026-04-25T08:52:25.29Z</time></trkpt><trkpt lat="44.9277941" lon="7.4979375"><ele>257.0</ele><time>2026-04-25T08:52:26.279Z</time></trkpt><trkpt lat="44.9279971" lon="7.4980953"><ele>257.0</ele><time>2026-04-25T08:52:27.282Z</time></trkpt><trkpt lat="44.9281856" lon="7.4982324"><ele>257.0</ele><time>2026-04-25T08:52:28.279Z</time></trkpt><trkpt lat="44.9283556" lon="7.4983665"><ele>257.0</ele><time>2026-04-25T08:52:29.284Z</time></trkpt><trkpt lat="44.9285382" lon="7.4984941"><ele>257.0</ele><time>2026-04-25T08:52:30.278Z</time></trkpt><trkpt lat="44.9287275" lon="7.4986263"><ele>257.0</ele><time>2026-04-25T08:52:31.284Z</time></trkpt><trkpt lat="44.9289111" lon="7.4987676"><ele>257.0</ele><time>2026-04-25T08:52:32.285Z</time></trkpt><trkpt lat="44.9290906" lon="7.4988918"><ele>256.0</ele><time>2026-04-25T08:52:33.282Z</time></trkpt><trkpt lat="44.9292711" lon="7.499038"><ele>255.0</ele><time>2026-04-25T08:52:34.283Z</time></trkpt><trkpt lat="44.9294325" lon="7.499166"><ele>254.0</ele><time>2026-04-25T08:52:35.279Z</time></trkpt><trkpt lat="44.9296092" lon="7.4992924"><ele>254.0</ele><time>2026-04-25T08:52:36.286Z</time></trkpt><trkpt lat="44.9297796" lon="7.4994205"><ele>254.0</ele><time>2026-04-25T08:52:37.279Z</time></trkpt><trkpt lat="44.9299702" lon="7.4995607"><ele>254.0</ele><time>2026-04-25T08:52:38.281Z</time></trkpt><trkpt lat="44.9301581" lon="7.4996892"><ele>254.0</ele><time>2026-04-25T08:52:39.293Z</time></trkpt><trkpt lat="44.9303292" lon="7.4998215"><ele>254.0</ele><time>2026-04-25T08:52:40.291Z</time></trkpt><trkpt lat="44.9304957" lon="7.4999485"><ele>254.0</ele><time>2026-04-25T08:52:41.284Z</time></trkpt><trkpt lat="44.9306713" lon="7.5000743"><ele>254.0</ele><time>2026-04-25T08:52:42.281Z</time></trkpt><trkpt lat="44.9308489" lon="7.5001955"><ele>254.0</ele><time>2026-04-25T08:52:43.299Z</time></trkpt><trkpt lat="44.9310085" lon="7.5003283"><ele>254.0</ele><time>2026-04-25T08:52:44.288Z</time></trkpt><trkpt lat="44.9311646" lon="7.5004418"><ele>254.0</ele><time>2026-04-25T08:52:45.291Z</time></trkpt><trkpt lat="44.9313006" lon="7.5005687"><ele>254.0</ele><time>2026-04-25T08:52:46.289Z</time></trkpt><trkpt lat="44.9314362" lon="7.5006675"><ele>254.0</ele><time>2026-04-25T08:52:47.288Z</time></trkpt><trkpt lat="44.9315821" lon="7.5007788"><ele>254.0</ele><time>2026-04-25T08:52:48.289Z</time></trkpt><trkpt lat="44.9317224" lon="7.5008782"><ele>254.0</ele><time>2026-04-25T08:52:49.292Z</time></trkpt><trkpt lat="44.931872" lon="7.5009924"><ele>254.0</ele><time>2026-04-25T08:52:50.288Z</time></trkpt><trkpt lat="44.9320105" lon="7.5011022"><ele>254.25</ele><time>2026-04-25T08:52:51.293Z</time></trkpt><trkpt lat="44.9321434" lon="7.50121"><ele>254.5</ele><time>2026-04-25T08:52:52.292Z</time></trkpt><trkpt lat="44.9322754" lon="7.5012991"><ele>254.75</ele><time>2026-04-25T08:52:53.291Z</time></trkpt><trkpt lat="44.9323957" lon="7.5013918"><ele>255.0</ele><time>2026-04-25T08:52:54.289Z</time></trkpt><trkpt lat="44.9325206" lon="7.5014749"><ele>254.0</ele><time>2026-04-25T08:52:55.293Z</time></trkpt><trkpt lat="44.9326366" lon="7.5015594"><ele>253.0</ele><time>2026-04-25T08:52:56.287Z</time></trkpt><trkpt lat="44.9327717" lon="7.5016624"><ele>252.0</ele><time>2026-04-25T08:52:57.283Z</time></trkpt><trkpt lat="44.9329229" lon="7.5017694"><ele>252.0</ele><time>2026-04-25T08:52:58.285Z</time></trkpt><trkpt lat="44.9330905" lon="7.5019019"><ele>252.0</ele><time>2026-04-25T08:52:59.297Z</time></trkpt><trkpt lat="44.9332629" lon="7.5020398"><ele>252.0</ele><time>2026-04-25T08:53:00.29Z</time></trkpt><trkpt lat="44.9334326" lon="7.5021634"><ele>251.66666666666669</ele><time>2026-04-25T08:53:01.295Z</time></trkpt><trkpt lat="44.9335889" lon="7.5022989"><ele>251.33333333333334</ele><time>2026-04-25T08:53:02.295Z</time></trkpt><trkpt lat="44.9337498" lon="7.5024308"><ele>251.0</ele><time>2026-04-25T08:53:03.287Z</time></trkpt><trkpt lat="44.9339109" lon="7.5025621"><ele>251.0</ele><time>2026-04-25T08:53:04.288Z</time></trkpt><trkpt lat="44.9340678" lon="7.5026836"><ele>251.0</ele><time>2026-04-25T08:53:05.295Z</time></trkpt><trkpt lat="44.9342201" lon="7.5027945"><ele>251.0</ele><time>2026-04-25T08:53:06.291Z</time></trkpt><trkpt lat="44.9343753" lon="7.5029127"><ele>250.66666666666669</ele><time>2026-04-25T08:53:07.29Z</time></trkpt><trkpt lat="44.9345322" lon="7.5030295"><ele>250.33333333333331</ele><time>2026-04-25T08:53:08.293Z</time></trkpt><trkpt lat="44.9347067" lon="7.503154"><ele>250.0</ele><time>2026-04-25T08:53:09.294Z</time></trkpt><trkpt lat="44.9348597" lon="7.5032765"><ele>250.0</ele><time>2026-04-25T08:53:10.293Z</time></trkpt><trkpt lat="44.9350301" lon="7.5034007"><ele>250.0</ele><time>2026-04-25T08:53:11.293Z</time></trkpt><trkpt lat="44.9351978" lon="7.5035156"><ele>250.0</ele><time>2026-04-25T08:53:12.29Z</time></trkpt><trkpt lat="44.9353643" lon="7.5036407"><ele>250.66666666666666</ele><time>2026-04-25T08:53:13.295Z</time></trkpt><trkpt lat="44.9355133" lon="7.5037646"><ele>251.33333333333331</ele><time>2026-04-25T08:53:14.316Z</time></trkpt><trkpt lat="44.9356837" lon="7.50389"><ele>252.0</ele><time>2026-04-25T08:53:15.293Z</time></trkpt><trkpt lat="44.9358575" lon="7.5040115"><ele>251.33333333333331</ele><time>2026-04-25T08:53:16.295Z</time></trkpt><trkpt lat="44.9360395" lon="7.5041423"><ele>250.66666666666666</ele><time>2026-04-25T08:53:17.297Z</time></trkpt><trkpt lat="44.9362035" lon="7.5042771"><ele>250.0</ele><time>2026-04-25T08:53:18.29Z</time></trkpt><trkpt lat="44.9363685" lon="7.5044202"><ele>250.0</ele><time>2026-04-25T08:53:19.295Z</time></trkpt><trkpt lat="44.9365488" lon="7.5045596"><ele>250.0</ele><time>2026-04-25T08:53:20.296Z</time></trkpt><trkpt lat="44.9367163" lon="7.504709"><ele>250.0</ele><time>2026-04-25T08:53:21.293Z</time></trkpt><trkpt lat="44.9368923" lon="7.5048524"><ele>250.66666666666666</ele><time>2026-04-25T08:53:22.294Z</time></trkpt><trkpt lat="44.9370552" lon="7.5049838"><ele>251.33333333333331</ele><time>2026-04-25T08:53:23.292Z</time></trkpt><trkpt lat="44.9372144" lon="7.505113"><ele>252.0</ele><time>2026-04-25T08:53:24.293Z</time></trkpt><trkpt lat="44.9373687" lon="7.5052407"><ele>252.0</ele><time>2026-04-25T08:53:25.291Z</time></trkpt><trkpt lat="44.9375252" lon="7.5053749"><ele>252.0</ele><time>2026-04-25T08:53:26.292Z</time></trkpt><trkpt lat="44.9376817" lon="7.5055053"><ele>252.0</ele><time>2026-04-25T08:53:27.281Z</time></trkpt><trkpt lat="44.9378404" lon="7.505629"><ele>251.33333333333331</ele><time>2026-04-25T08:53:28.284Z</time></trkpt><trkpt lat="44.9380039" lon="7.5057428"><ele>250.66666666666666</ele><time>2026-04-25T08:53:29.292Z</time></trkpt><trkpt lat="44.9381635" lon="7.5058591"><ele>250.0</ele><time>2026-04-25T08:53:30.286Z</time></trkpt><trkpt lat="44.9383243" lon="7.5060056"><ele>250.0</ele><time>2026-04-25T08:53:31.287Z</time></trkpt><trkpt lat="44.9384912" lon="7.5061354"><ele>250.0</ele><time>2026-04-25T08:53:32.283Z</time></trkpt><trkpt lat="44.9386777" lon="7.5062644"><ele>250.0</ele><time>2026-04-25T08:53:33.289Z</time></trkpt><trkpt lat="44.9388728" lon="7.506397"><ele>250.0</ele><time>2026-04-25T08:53:34.29Z</time></trkpt><trkpt lat="44.9390564" lon="7.5065265"><ele>250.0</ele><time>2026-04-25T08:53:35.285Z</time></trkpt><trkpt lat="44.9392061" lon="7.5066381"><ele>250.0</ele><time>2026-04-25T08:53:36.282Z</time></trkpt><trkpt lat="44.9393552" lon="7.506735"><ele>250.0</ele><time>2026-04-25T08:53:37.283Z</time></trkpt><trkpt lat="44.9394965" lon="7.5068371"><ele>250.0</ele><time>2026-04-25T08:53:38.284Z</time></trkpt><trkpt lat="44.9396205" lon="7.5069006"><ele>250.0</ele><time>2026-04-25T08:53:39.276Z</time></trkpt><trkpt lat="44.9397248" lon="7.5069673"><ele>250.0</ele><time>2026-04-25T08:53:40.283Z</time></trkpt><trkpt lat="44.9398125" lon="7.5070191"><ele>250.16666666666666</ele><time>2026-04-25T08:53:41.283Z</time></trkpt><trkpt lat="44.9398869" lon="7.5070824"><ele>250.33333333333331</ele><time>2026-04-25T08:53:42.285Z</time></trkpt><trkpt lat="44.9399552" lon="7.5071271"><ele>250.5</ele><time>2026-04-25T08:53:43.292Z</time></trkpt><trkpt lat="44.9400262" lon="7.5071717"><ele>250.66666666666669</ele><time>2026-04-25T08:53:44.29Z</time></trkpt><trkpt lat="44.9401173" lon="7.5072431"><ele>250.83333333333334</ele><time>2026-04-25T08:53:46.283Z</time></trkpt><trkpt lat="44.9401775" lon="7.5072818"><ele>251.0</ele><time>2026-04-25T08:53:52.285Z</time></trkpt><trkpt lat="44.9402669" lon="7.507332"><ele>251.00000000000003</ele><time>2026-04-25T08:53:55.279Z</time></trkpt><trkpt lat="44.9403352" lon="7.5073793"><ele>251.0</ele><time>2026-04-25T08:53:56.283Z</time></trkpt><trkpt lat="44.9404195" lon="7.5074285"><ele>251.0</ele><time>2026-04-25T08:53:57.282Z</time></trkpt><trkpt lat="44.9404986" lon="7.5074698"><ele>251.0</ele><time>2026-04-25T08:53:58.295Z</time></trkpt><trkpt lat="44.940576" lon="7.5075135"><ele>251.00000000000003</ele><time>2026-04-25T08:53:59.279Z</time></trkpt><trkpt lat="44.940657" lon="7.5075375"><ele>251.0</ele><time>2026-04-25T08:54:00.275Z</time></trkpt><trkpt lat="44.9407352" lon="7.507518"><ele>251.0</ele><time>2026-04-25T08:54:01.275Z</time></trkpt><trkpt lat="44.9408071" lon="7.5074479"><ele>251.0</ele><time>2026-04-25T08:54:02.274Z</time></trkpt><trkpt lat="44.9408619" lon="7.5072943"><ele>251.0</ele><time>2026-04-25T08:54:03.266Z</time></trkpt><trkpt lat="44.9409244" lon="7.5071064"><ele>251.0</ele><time>2026-04-25T08:54:04.257Z</time></trkpt><trkpt lat="44.9410134" lon="7.5069259"><ele>251.33333333333334</ele><time>2026-04-25T08:54:05.265Z</time></trkpt><trkpt lat="44.9411082" lon="7.5067517"><ele>251.66666666666669</ele><time>2026-04-25T08:54:06.261Z</time></trkpt><trkpt lat="44.9412157" lon="7.5065578"><ele>252.0</ele><time>2026-04-25T08:54:07.268Z</time></trkpt><trkpt lat="44.941316" lon="7.506385"><ele>251.66666666666669</ele><time>2026-04-25T08:54:08.269Z</time></trkpt><trkpt lat="44.9414008" lon="7.5061965"><ele>251.33333333333334</ele><time>2026-04-25T08:54:09.275Z</time></trkpt><trkpt lat="44.9414712" lon="7.5059914"><ele>251.0</ele><time>2026-04-25T08:54:10.272Z</time></trkpt><trkpt lat="44.9415234" lon="7.50577"><ele>251.0</ele><time>2026-04-25T08:54:11.274Z</time></trkpt><trkpt lat="44.9415552" lon="7.5055818"><ele>251.0</ele><time>2026-04-25T08:54:12.274Z</time></trkpt><trkpt lat="44.941605" lon="7.5053989"><ele>251.0</ele><time>2026-04-25T08:54:13.276Z</time></trkpt><trkpt lat="44.9416313" lon="7.5052428"><ele>251.0</ele><time>2026-04-25T08:54:14.285Z</time></trkpt><trkpt lat="44.9416783" lon="7.5050957"><ele>250.8</ele><time>2026-04-25T08:54:15.269Z</time></trkpt><trkpt lat="44.9417449" lon="7.504978"><ele>250.60000000000002</ele><time>2026-04-25T08:54:16.283Z</time></trkpt><trkpt lat="44.9418326" lon="7.504893"><ele>250.4</ele><time>2026-04-25T08:54:17.273Z</time></trkpt><trkpt lat="44.9419358" lon="7.5048364"><ele>250.2</ele><time>2026-04-25T08:54:18.28Z</time></trkpt><trkpt lat="44.9420455" lon="7.5048021"><ele>250.0</ele><time>2026-04-25T08:54:19.271Z</time></trkpt><trkpt lat="44.9421746" lon="7.5047678"><ele>250.0</ele><time>2026-04-25T08:54:20.265Z</time></trkpt><trkpt lat="44.9423217" lon="7.5047389"><ele>250.0</ele><time>2026-04-25T08:54:21.282Z</time></trkpt><trkpt lat="44.942481" lon="7.5046801"><ele>250.0</ele><time>2026-04-25T08:54:22.264Z</time></trkpt><trkpt lat="44.9426433" lon="7.5046343"><ele>250.33333333333331</ele><time>2026-04-25T08:54:23.269Z</time></trkpt><trkpt lat="44.9428357" lon="7.5045566"><ele>250.66666666666669</ele><time>2026-04-25T08:54:24.277Z</time></trkpt><trkpt lat="44.9430346" lon="7.5044656"><ele>251.0</ele><time>2026-04-25T08:54:25.284Z</time></trkpt><trkpt lat="44.9432204" lon="7.5043821"><ele>252.0</ele><time>2026-04-25T08:54:26.279Z</time></trkpt><trkpt lat="44.9434232" lon="7.5042612"><ele>253.0</ele><time>2026-04-25T08:54:27.271Z</time></trkpt><trkpt lat="44.9436545" lon="7.5041356"><ele>253.0</ele><time>2026-04-25T08:54:28.274Z</time></trkpt><trkpt lat="44.9439046" lon="7.5040024"><ele>253.0</ele><time>2026-04-25T08:54:29.282Z</time></trkpt><trkpt lat="44.9441806" lon="7.5038522"><ele>252.0</ele><time>2026-04-25T08:54:30.284Z</time></trkpt><trkpt lat="44.9444423" lon="7.5037157"><ele>251.0</ele><time>2026-04-25T08:54:31.288Z</time></trkpt><trkpt lat="44.9447143" lon="7.503578"><ele>251.0</ele><time>2026-04-25T08:54:32.288Z</time></trkpt><trkpt lat="44.9449939" lon="7.5034539"><ele>251.0</ele><time>2026-04-25T08:54:33.285Z</time></trkpt><trkpt lat="44.9452656" lon="7.503321"><ele>251.5</ele><time>2026-04-25T08:54:34.289Z</time></trkpt><trkpt lat="44.9455359" lon="7.5031844"><ele>252.0</ele><time>2026-04-25T08:54:35.29Z</time></trkpt><trkpt lat="44.9458128" lon="7.5030441"><ele>253.0</ele><time>2026-04-25T08:54:36.292Z</time></trkpt><trkpt lat="44.9460855" lon="7.502925"><ele>254.0</ele><time>2026-04-25T08:54:37.289Z</time></trkpt><trkpt lat="44.9463575" lon="7.5027986"><ele>254.0</ele><time>2026-04-25T08:54:38.283Z</time></trkpt><trkpt lat="44.9466271" lon="7.5026484"><ele>254.0</ele><time>2026-04-25T08:54:39.288Z</time></trkpt><trkpt lat="44.946909" lon="7.5024983"><ele>254.0</ele><time>2026-04-25T08:54:40.292Z</time></trkpt><trkpt lat="44.9471827" lon="7.5023627"><ele>254.0</ele><time>2026-04-25T08:54:41.293Z</time></trkpt><trkpt lat="44.9474609" lon="7.5022137"><ele>254.0</ele><time>2026-04-25T08:54:42.296Z</time></trkpt><trkpt lat="44.9477366" lon="7.5020717"><ele>254.0</ele><time>2026-04-25T08:54:43.291Z</time></trkpt><trkpt lat="44.9480007" lon="7.5019627"><ele>254.0</ele><time>2026-04-25T08:54:44.288Z</time></trkpt><trkpt lat="44.9482725" lon="7.5018276"><ele>254.0</ele><time>2026-04-25T08:54:45.286Z</time></trkpt><trkpt lat="44.9485447" lon="7.5017005"><ele>255.0</ele><time>2026-04-25T08:54:46.287Z</time></trkpt><trkpt lat="44.9488187" lon="7.5015693"><ele>256.0</ele><time>2026-04-25T08:54:47.302Z</time></trkpt><trkpt lat="44.9490871" lon="7.5014434"><ele>255.5</ele><time>2026-04-25T08:54:48.286Z</time></trkpt><trkpt lat="44.9493604" lon="7.501303"><ele>255.0</ele><time>2026-04-25T08:54:49.284Z</time></trkpt><trkpt lat="44.9496353" lon="7.5011705"><ele>255.0</ele><time>2026-04-25T08:54:50.289Z</time></trkpt><trkpt lat="44.9499082" lon="7.5010386"><ele>255.0</ele><time>2026-04-25T08:54:51.28Z</time></trkpt><trkpt lat="44.95018" lon="7.500906"><ele>254.5</ele><time>2026-04-25T08:54:52.284Z</time></trkpt><trkpt lat="44.9504561" lon="7.500771"><ele>254.0</ele><time>2026-04-25T08:54:53.279Z</time></trkpt><trkpt lat="44.9507505" lon="7.5006608"><ele>254.0</ele><time>2026-04-25T08:54:54.283Z</time></trkpt><trkpt lat="44.9510169" lon="7.5005225"><ele>254.0</ele><time>2026-04-25T08:54:55.284Z</time></trkpt><trkpt lat="44.9512991" lon="7.5004117"><ele>254.0</ele><time>2026-04-25T08:54:56.288Z</time></trkpt><trkpt lat="44.9515871" lon="7.5003137"><ele>254.0</ele><time>2026-04-25T08:54:57.286Z</time></trkpt><trkpt lat="44.9518879" lon="7.500256"><ele>254.0</ele><time>2026-04-25T08:54:58.286Z</time></trkpt><trkpt lat="44.952195" lon="7.5001899"><ele>254.0</ele><time>2026-04-25T08:54:59.289Z</time></trkpt><trkpt lat="44.9524793" lon="7.500135"><ele>253.5</ele><time>2026-04-25T08:55:00.283Z</time></trkpt><trkpt lat="44.952784" lon="7.5000868"><ele>253.0</ele><time>2026-04-25T08:55:01.287Z</time></trkpt><trkpt lat="44.9530741" lon="7.5000549"><ele>253.0</ele><time>2026-04-25T08:55:02.285Z</time></trkpt><trkpt lat="44.9533666" lon="7.5000289"><ele>253.0</ele><time>2026-04-25T08:55:03.285Z</time></trkpt><trkpt lat="44.9536581" lon="7.5000191"><ele>252.5</ele><time>2026-04-25T08:55:04.284Z</time></trkpt><trkpt lat="44.9539442" lon="7.5000201"><ele>252.0</ele><time>2026-04-25T08:55:05.282Z</time></trkpt><trkpt lat="44.9542432" lon="7.5000256"><ele>252.0</ele><time>2026-04-25T08:55:06.283Z</time></trkpt><trkpt lat="44.9545356" lon="7.5000439"><ele>252.0</ele><time>2026-04-25T08:55:07.284Z</time></trkpt><trkpt lat="44.9548243" lon="7.5000681"><ele>252.0</ele><time>2026-04-25T08:55:08.28Z</time></trkpt><trkpt lat="44.9551033" lon="7.500095"><ele>252.0</ele><time>2026-04-25T08:55:09.282Z</time></trkpt><trkpt lat="44.9553872" lon="7.5001358"><ele>252.0</ele><time>2026-04-25T08:55:10.278Z</time></trkpt><trkpt lat="44.9556569" lon="7.5001908"><ele>252.0</ele><time>2026-04-25T08:55:11.282Z</time></trkpt><trkpt lat="44.9559389" lon="7.5002514"><ele>253.5</ele><time>2026-04-25T08:55:12.281Z</time></trkpt><trkpt lat="44.9562251" lon="7.5003256"><ele>255.0</ele><time>2026-04-25T08:55:13.278Z</time></trkpt><trkpt lat="44.9565057" lon="7.5004173"><ele>255.5</ele><time>2026-04-25T08:55:14.282Z</time></trkpt><trkpt lat="44.9567915" lon="7.500522"><ele>256.0</ele><time>2026-04-25T08:55:15.284Z</time></trkpt><trkpt lat="44.9570685" lon="7.5006332"><ele>256.0</ele><time>2026-04-25T08:55:16.291Z</time></trkpt><trkpt lat="44.9573386" lon="7.5007613"><ele>256.0</ele><time>2026-04-25T08:55:17.287Z</time></trkpt><trkpt lat="44.957605" lon="7.5008785"><ele>256.0</ele><time>2026-04-25T08:55:18.302Z</time></trkpt><trkpt lat="44.9578721" lon="7.5010155"><ele>256.0</ele><time>2026-04-25T08:55:19.288Z</time></trkpt><trkpt lat="44.9581386" lon="7.5011572"><ele>255.5</ele><time>2026-04-25T08:55:20.288Z</time></trkpt><trkpt lat="44.9584053" lon="7.5013206"><ele>255.0</ele><time>2026-04-25T08:55:21.29Z</time></trkpt><trkpt lat="44.9586627" lon="7.5014871"><ele>255.0</ele><time>2026-04-25T08:55:22.288Z</time></trkpt><trkpt lat="44.9589274" lon="7.5016411"><ele>255.0</ele><time>2026-04-25T08:55:23.285Z</time></trkpt><trkpt lat="44.9591885" lon="7.5018215"><ele>256.0</ele><time>2026-04-25T08:55:24.283Z</time></trkpt><trkpt lat="44.9594597" lon="7.5020104"><ele>257.0</ele><time>2026-04-25T08:55:25.284Z</time></trkpt><trkpt lat="44.9597137" lon="7.5022054"><ele>257.0</ele><time>2026-04-25T08:55:26.278Z</time></trkpt><trkpt lat="44.959968" lon="7.5024283"><ele>257.0</ele><time>2026-04-25T08:55:27.277Z</time></trkpt><trkpt lat="44.9602313" lon="7.5026585"><ele>257.0</ele><time>2026-04-25T08:55:28.281Z</time></trkpt><trkpt lat="44.9604677" lon="7.5028605"><ele>257.0</ele><time>2026-04-25T08:55:29.279Z</time></trkpt><trkpt lat="44.9606995" lon="7.5031075"><ele>257.0</ele><time>2026-04-25T08:55:30.275Z</time></trkpt><trkpt lat="44.9609385" lon="7.5033558"><ele>257.0</ele><time>2026-04-25T08:55:31.275Z</time></trkpt><trkpt lat="44.9611537" lon="7.5036171"><ele>257.0</ele><time>2026-04-25T08:55:32.27Z</time></trkpt><trkpt lat="44.9613824" lon="7.5038797"><ele>257.0</ele><time>2026-04-25T08:55:33.276Z</time></trkpt><trkpt lat="44.9616017" lon="7.5041312"><ele>256.5</ele><time>2026-04-25T08:55:34.278Z</time></trkpt><trkpt lat="44.9618336" lon="7.5043886"><ele>256.0</ele><time>2026-04-25T08:55:35.28Z</time></trkpt><trkpt lat="44.9620719" lon="7.5046431"><ele>256.0</ele><time>2026-04-25T08:55:36.276Z</time></trkpt><trkpt lat="44.9623101" lon="7.5048881"><ele>256.0</ele><time>2026-04-25T08:55:37.278Z</time></trkpt><trkpt lat="44.9625318" lon="7.5051445"><ele>255.5</ele><time>2026-04-25T08:55:38.289Z</time></trkpt><trkpt lat="44.9627552" lon="7.5054022"><ele>255.0</ele><time>2026-04-25T08:55:39.278Z</time></trkpt><trkpt lat="44.9629856" lon="7.5056594"><ele>255.0</ele><time>2026-04-25T08:55:40.276Z</time></trkpt><trkpt lat="44.9632069" lon="7.5059001"><ele>255.0</ele><time>2026-04-25T08:55:41.281Z</time></trkpt><trkpt lat="44.963433" lon="7.5061481"><ele>255.5</ele><time>2026-04-25T08:55:42.271Z</time></trkpt><trkpt lat="44.9636711" lon="7.5063963"><ele>256.0</ele><time>2026-04-25T08:55:43.274Z</time></trkpt><trkpt lat="44.9638973" lon="7.5066506"><ele>256.0</ele><time>2026-04-25T08:55:44.274Z</time></trkpt><trkpt lat="44.9641399" lon="7.506901"><ele>256.0</ele><time>2026-04-25T08:55:45.274Z</time></trkpt><trkpt lat="44.9643623" lon="7.5071533"><ele>256.0</ele><time>2026-04-25T08:55:46.275Z</time></trkpt><trkpt lat="44.9645879" lon="7.5073929"><ele>256.0</ele><time>2026-04-25T08:55:47.271Z</time></trkpt><trkpt lat="44.9648308" lon="7.5076132"><ele>257.0</ele><time>2026-04-25T08:55:48.276Z</time></trkpt><trkpt lat="44.965073" lon="7.5078691"><ele>258.0</ele><time>2026-04-25T08:55:49.294Z</time></trkpt><trkpt lat="44.9653089" lon="7.5081241"><ele>258.0</ele><time>2026-04-25T08:55:50.278Z</time></trkpt><trkpt lat="44.9655525" lon="7.5083768"><ele>258.0</ele><time>2026-04-25T08:55:51.277Z</time></trkpt><trkpt lat="44.9657723" lon="7.5086246"><ele>258.5</ele><time>2026-04-25T08:55:52.273Z</time></trkpt><trkpt lat="44.9659817" lon="7.5088909"><ele>259.0</ele><time>2026-04-25T08:55:53.271Z</time></trkpt><trkpt lat="44.9662199" lon="7.5091569"><ele>259.0</ele><time>2026-04-25T08:55:54.274Z</time></trkpt><trkpt lat="44.9664575" lon="7.5094227"><ele>259.0</ele><time>2026-04-25T08:55:55.273Z</time></trkpt><trkpt lat="44.9666963" lon="7.5096753"><ele>259.0</ele><time>2026-04-25T08:55:56.267Z</time></trkpt><trkpt lat="44.9669273" lon="7.5099326"><ele>259.0</ele><time>2026-04-25T08:55:57.268Z</time></trkpt><trkpt lat="44.9671694" lon="7.5101882"><ele>258.5</ele><time>2026-04-25T08:55:58.272Z</time></trkpt><trkpt lat="44.9673981" lon="7.5104395"><ele>258.0</ele><time>2026-04-25T08:55:59.271Z</time></trkpt><trkpt lat="44.9676306" lon="7.5106754"><ele>257.5</ele><time>2026-04-25T08:56:00.272Z</time></trkpt><trkpt lat="44.967851" lon="7.5109016"><ele>257.0</ele><time>2026-04-25T08:56:01.271Z</time></trkpt><trkpt lat="44.9680628" lon="7.5111348"><ele>257.0</ele><time>2026-04-25T08:56:02.273Z</time></trkpt><trkpt lat="44.9682786" lon="7.5113732"><ele>257.0</ele><time>2026-04-25T08:56:03.269Z</time></trkpt><trkpt lat="44.9684843" lon="7.5115869"><ele>257.5</ele><time>2026-04-25T08:56:04.275Z</time></trkpt><trkpt lat="44.9686915" lon="7.5118038"><ele>258.0</ele><time>2026-04-25T08:56:05.27Z</time></trkpt><trkpt lat="44.9688984" lon="7.5120409"><ele>258.0</ele><time>2026-04-25T08:56:06.27Z</time></trkpt><trkpt lat="44.9691024" lon="7.5122533"><ele>258.0</ele><time>2026-04-25T08:56:07.267Z</time></trkpt><trkpt lat="44.9693295" lon="7.5124792"><ele>257.5</ele><time>2026-04-25T08:56:08.269Z</time></trkpt><trkpt lat="44.9695504" lon="7.5127161"><ele>257.0</ele><time>2026-04-25T08:56:09.271Z</time></trkpt><trkpt lat="44.9697674" lon="7.5129584"><ele>257.0</ele><time>2026-04-25T08:56:10.266Z</time></trkpt><trkpt lat="44.96999" lon="7.5131652"><ele>257.0</ele><time>2026-04-25T08:56:11.269Z</time></trkpt><trkpt lat="44.9701995" lon="7.5134167"><ele>257.5</ele><time>2026-04-25T08:56:12.265Z</time></trkpt><trkpt lat="44.9704123" lon="7.5136625"><ele>258.0</ele><time>2026-04-25T08:56:13.264Z</time></trkpt><trkpt lat="44.9706173" lon="7.5139103"><ele>258.0</ele><time>2026-04-25T08:56:14.269Z</time></trkpt><trkpt lat="44.9708235" lon="7.5141697"><ele>258.0</ele><time>2026-04-25T08:56:15.266Z</time></trkpt><trkpt lat="44.9710105" lon="7.5144563"><ele>258.0</ele><time>2026-04-25T08:56:16.263Z</time></trkpt><trkpt lat="44.9711851" lon="7.5147343"><ele>258.0</ele><time>2026-04-25T08:56:17.267Z</time></trkpt><trkpt lat="44.9713696" lon="7.5150185"><ele>258.0</ele><time>2026-04-25T08:56:18.264Z</time></trkpt><trkpt lat="44.9715591" lon="7.5152939"><ele>258.0</ele><time>2026-04-25T08:56:19.271Z</time></trkpt><trkpt lat="44.9717359" lon="7.5155722"><ele>258.5</ele><time>2026-04-25T08:56:20.302Z</time></trkpt><trkpt lat="44.9719081" lon="7.5158713"><ele>259.0</ele><time>2026-04-25T08:56:21.266Z</time></trkpt><trkpt lat="44.972076" lon="7.5161523"><ele>258.5</ele><time>2026-04-25T08:56:22.268Z</time></trkpt><trkpt lat="44.9722448" lon="7.5164616"><ele>258.0</ele><time>2026-04-25T08:56:23.27Z</time></trkpt><trkpt lat="44.9724128" lon="7.5167945"><ele>258.5</ele><time>2026-04-25T08:56:24.26Z</time></trkpt><trkpt lat="44.9725743" lon="7.5170972"><ele>259.0</ele><time>2026-04-25T08:56:25.266Z</time></trkpt><trkpt lat="44.9727171" lon="7.5174201"><ele>259.0</ele><time>2026-04-25T08:56:26.256Z</time></trkpt><trkpt lat="44.97286" lon="7.5177226"><ele>259.0</ele><time>2026-04-25T08:56:27.263Z</time></trkpt><trkpt lat="44.9729971" lon="7.5180333"><ele>258.0</ele><time>2026-04-25T08:56:28.264Z</time></trkpt><trkpt lat="44.9731334" lon="7.518334"><ele>257.0</ele><time>2026-04-25T08:56:29.264Z</time></trkpt><trkpt lat="44.9732424" lon="7.518645"><ele>258.0</ele><time>2026-04-25T08:56:30.259Z</time></trkpt><trkpt lat="44.9733474" lon="7.5189707"><ele>259.0</ele><time>2026-04-25T08:56:31.262Z</time></trkpt><trkpt lat="44.973448" lon="7.5192316"><ele>259.3333333333333</ele><time>2026-04-25T08:56:32.254Z</time></trkpt><trkpt lat="44.9735466" lon="7.5194931"><ele>259.6666666666667</ele><time>2026-04-25T08:56:33.262Z</time></trkpt><trkpt lat="44.973629" lon="7.5197487"><ele>260.0</ele><time>2026-04-25T08:56:34.253Z</time></trkpt><trkpt lat="44.9736955" lon="7.5199547"><ele>259.5</ele><time>2026-04-25T08:56:35.257Z</time></trkpt><trkpt lat="44.9737384" lon="7.5201489"><ele>259.0</ele><time>2026-04-25T08:56:36.251Z</time></trkpt><trkpt lat="44.9737752" lon="7.5203392"><ele>258.5</ele><time>2026-04-25T08:56:37.253Z</time></trkpt><trkpt lat="44.9737893" lon="7.520535"><ele>258.0</ele><time>2026-04-25T08:56:38.257Z</time></trkpt><trkpt lat="44.9737823" lon="7.5207193"><ele>257.3333333333333</ele><time>2026-04-25T08:56:39.258Z</time></trkpt><trkpt lat="44.9737198" lon="7.520908"><ele>256.66666666666663</ele><time>2026-04-25T08:56:40.261Z</time></trkpt><trkpt lat="44.973594" lon="7.5210829"><ele>256.0</ele><time>2026-04-25T08:56:41.264Z</time></trkpt><trkpt lat="44.9734703" lon="7.5212219"><ele>256.3333333333333</ele><time>2026-04-25T08:56:42.26Z</time></trkpt><trkpt lat="44.9733202" lon="7.5213122"><ele>256.6666666666667</ele><time>2026-04-25T08:56:43.27Z</time></trkpt><trkpt lat="44.9731869" lon="7.5213581"><ele>257.0</ele><time>2026-04-25T08:56:44.26Z</time></trkpt><trkpt lat="44.9730357" lon="7.52131"><ele>257.0</ele><time>2026-04-25T08:56:45.259Z</time></trkpt><trkpt lat="44.9728807" lon="7.5212619"><ele>257.0</ele><time>2026-04-25T08:56:46.26Z</time></trkpt><trkpt lat="44.9727336" lon="7.5211656"><ele>257.0</ele><time>2026-04-25T08:56:47.265Z</time></trkpt><trkpt lat="44.972615" lon="7.5210834"><ele>257.25</ele><time>2026-04-25T08:56:48.262Z</time></trkpt><trkpt lat="44.9725034" lon="7.5209954"><ele>257.5</ele><time>2026-04-25T08:56:49.264Z</time></trkpt><trkpt lat="44.9723888" lon="7.5208936"><ele>257.75</ele><time>2026-04-25T08:56:50.278Z</time></trkpt><trkpt lat="44.9722917" lon="7.5208204"><ele>258.0</ele><time>2026-04-25T08:56:51.27Z</time></trkpt><trkpt lat="44.9722063" lon="7.52072"><ele>258.0</ele><time>2026-04-25T08:56:52.263Z</time></trkpt><trkpt lat="44.9721425" lon="7.5205839"><ele>258.0</ele><time>2026-04-25T08:56:53.264Z</time></trkpt><trkpt lat="44.9721052" lon="7.5204471"><ele>258.0</ele><time>2026-04-25T08:56:54.266Z</time></trkpt><trkpt lat="44.9720349" lon="7.5203448"><ele>258.0</ele><time>2026-04-25T08:56:55.264Z</time></trkpt><trkpt lat="44.9719433" lon="7.5202787"><ele>258.0</ele><time>2026-04-25T08:56:56.254Z</time></trkpt><trkpt lat="44.971864" lon="7.520223"><ele>258.0</ele><time>2026-04-25T08:56:57.251Z</time></trkpt><trkpt lat="44.9717964" lon="7.5201729"><ele>258.0</ele><time>2026-04-25T08:56:58.247Z</time></trkpt><trkpt lat="44.9717182" lon="7.5201655"><ele>258.0</ele><time>2026-04-25T08:56:59.252Z</time></trkpt><trkpt lat="44.9716512" lon="7.5201855"><ele>258.0</ele><time>2026-04-25T08:57:00.243Z</time></trkpt><trkpt lat="44.971617" lon="7.5202656"><ele>258.0</ele><time>2026-04-25T08:57:01.247Z</time></trkpt><trkpt lat="44.9716154" lon="7.5204043"><ele>258.0</ele><time>2026-04-25T08:57:02.246Z</time></trkpt><trkpt lat="44.9716697" lon="7.5205545"><ele>258.0</ele><time>2026-04-25T08:57:03.247Z</time></trkpt><trkpt lat="44.9717774" lon="7.5206793"><ele>258.0</ele><time>2026-04-25T08:57:04.254Z</time></trkpt><trkpt lat="44.9719182" lon="7.5208103"><ele>258.0</ele><time>2026-04-25T08:57:05.244Z</time></trkpt><trkpt lat="44.9721049" lon="7.5209045"><ele>258.0</ele><time>2026-04-25T08:57:06.26Z</time></trkpt><trkpt lat="44.9723381" lon="7.5209787"><ele>258.0</ele><time>2026-04-25T08:57:07.256Z</time></trkpt><trkpt lat="44.972635" lon="7.5211102"><ele>257.5</ele><time>2026-04-25T08:57:08.253Z</time></trkpt><trkpt lat="44.9729358" lon="7.5212876"><ele>257.0</ele><time>2026-04-25T08:57:09.262Z</time></trkpt><trkpt lat="44.9731883" lon="7.5214759"><ele>258.0</ele><time>2026-04-25T08:57:10.26Z</time></trkpt><trkpt lat="44.9734031" lon="7.5216474"><ele>259.0</ele><time>2026-04-25T08:57:11.265Z</time></trkpt><trkpt lat="44.9735972" lon="7.5217786"><ele>259.0</ele><time>2026-04-25T08:57:12.255Z</time></trkpt><trkpt lat="44.9737802" lon="7.5219034"><ele>259.0</ele><time>2026-04-25T08:57:13.259Z</time></trkpt><trkpt lat="44.9739427" lon="7.5220257"><ele>259.0</ele><time>2026-04-25T08:57:14.265Z</time></trkpt><trkpt lat="44.974092" lon="7.5221206"><ele>258.66666666666663</ele><time>2026-04-25T08:57:15.265Z</time></trkpt><trkpt lat="44.9742622" lon="7.5222227"><ele>258.3333333333333</ele><time>2026-04-25T08:57:16.275Z</time></trkpt><trkpt lat="44.974431" lon="7.5223232"><ele>258.0</ele><time>2026-04-25T08:57:17.274Z</time></trkpt><trkpt lat="44.974594" lon="7.5224253"><ele>258.0</ele><time>2026-04-25T08:57:18.273Z</time></trkpt><trkpt lat="44.9747745" lon="7.5225508"><ele>258.0</ele><time>2026-04-25T08:57:19.274Z</time></trkpt><trkpt lat="44.9749464" lon="7.5226832"><ele>258.0</ele><time>2026-04-25T08:57:20.271Z</time></trkpt><trkpt lat="44.975135" lon="7.5228058"><ele>258.6666666666667</ele><time>2026-04-25T08:57:21.295Z</time></trkpt><trkpt lat="44.9753076" lon="7.5229235"><ele>259.33333333333337</ele><time>2026-04-25T08:57:22.279Z</time></trkpt><trkpt lat="44.9754834" lon="7.5230242"><ele>260.0</ele><time>2026-04-25T08:57:23.278Z</time></trkpt><trkpt lat="44.9756349" lon="7.52312"><ele>260.0</ele><time>2026-04-25T08:57:24.275Z</time></trkpt><trkpt lat="44.9757856" lon="7.5232135"><ele>260.0</ele><time>2026-04-25T08:57:25.277Z</time></trkpt><trkpt lat="44.9759382" lon="7.5233199"><ele>260.0</ele><time>2026-04-25T08:57:26.268Z</time></trkpt><trkpt lat="44.9760789" lon="7.5234138"><ele>260.0</ele><time>2026-04-25T08:57:27.282Z</time></trkpt><trkpt lat="44.9762134" lon="7.523513"><ele>260.0</ele><time>2026-04-25T08:57:28.283Z</time></trkpt><trkpt lat="44.9763348" lon="7.5235951"><ele>260.0</ele><time>2026-04-25T08:57:29.282Z</time></trkpt><trkpt lat="44.9764423" lon="7.5237159"><ele>260.0</ele><time>2026-04-25T08:57:30.279Z</time></trkpt><trkpt lat="44.9765448" lon="7.5238367"><ele>260.0</ele><time>2026-04-25T08:57:31.274Z</time></trkpt><trkpt lat="44.9766192" lon="7.5239494"><ele>260.0</ele><time>2026-04-25T08:57:32.271Z</time></trkpt><trkpt lat="44.9766895" lon="7.5241039"><ele>260.0</ele><time>2026-04-25T08:57:33.279Z</time></trkpt><trkpt lat="44.976753" lon="7.52425"><ele>260.0</ele><time>2026-04-25T08:57:34.275Z</time></trkpt><trkpt lat="44.976865" lon="7.5243121"><ele>260.25</ele><time>2026-04-25T08:57:35.281Z</time></trkpt><trkpt lat="44.9770027" lon="7.5243041"><ele>260.5</ele><time>2026-04-25T08:57:36.269Z</time></trkpt><trkpt lat="44.9771554" lon="7.5242726"><ele>260.75</ele><time>2026-04-25T08:57:37.275Z</time></trkpt><trkpt lat="44.9773024" lon="7.5242626"><ele>261.0</ele><time>2026-04-25T08:57:38.272Z</time></trkpt><trkpt lat="44.9774418" lon="7.5242776"><ele>261.25</ele><time>2026-04-25T08:57:39.272Z</time></trkpt><trkpt lat="44.9775726" lon="7.524321"><ele>261.5</ele><time>2026-04-25T08:57:40.264Z</time></trkpt><trkpt lat="44.9776902" lon="7.5243881"><ele>261.75</ele><time>2026-04-25T08:57:41.266Z</time></trkpt><trkpt lat="44.9777972" lon="7.5244616"><ele>262.0</ele><time>2026-04-25T08:57:42.281Z</time></trkpt><trkpt lat="44.9778973" lon="7.5245347"><ele>262.0</ele><time>2026-04-25T08:57:43.276Z</time></trkpt><trkpt lat="44.9779864" lon="7.5245996"><ele>262.0</ele><time>2026-04-25T08:57:44.273Z</time></trkpt><trkpt lat="44.9780589" lon="7.5246405"><ele>262.0</ele><time>2026-04-25T08:57:45.273Z</time></trkpt><trkpt lat="44.978126" lon="7.5246798"><ele>262.0</ele><time>2026-04-25T08:57:46.283Z</time></trkpt><trkpt lat="44.9782112" lon="7.524731"><ele>262.0</ele><time>2026-04-25T08:57:48.279Z</time></trkpt><trkpt lat="44.9782851" lon="7.5247708"><ele>262.0</ele><time>2026-04-25T08:58:14.283Z</time></trkpt><trkpt lat="44.9783508" lon="7.5247981"><ele>262.0</ele><time>2026-04-25T08:58:15.285Z</time></trkpt><trkpt lat="44.9784461" lon="7.5248465"><ele>262.0</ele><time>2026-04-25T08:58:16.286Z</time></trkpt><trkpt lat="44.9785842" lon="7.5249385"><ele>262.0</ele><time>2026-04-25T08:58:17.273Z</time></trkpt><trkpt lat="44.9787355" lon="7.5250372"><ele>262.0</ele><time>2026-04-25T08:58:18.272Z</time></trkpt><trkpt lat="44.9788792" lon="7.5251301"><ele>262.0</ele><time>2026-04-25T08:58:19.277Z</time></trkpt><trkpt lat="44.9790158" lon="7.525225"><ele>262.0</ele><time>2026-04-25T08:58:20.281Z</time></trkpt><trkpt lat="44.9791708" lon="7.5253335"><ele>262.0</ele><time>2026-04-25T08:58:21.283Z</time></trkpt><trkpt lat="44.9793103" lon="7.5254242"><ele>262.5</ele><time>2026-04-25T08:58:22.286Z</time></trkpt><trkpt lat="44.9794359" lon="7.5255049"><ele>263.0</ele><time>2026-04-25T08:58:23.295Z</time></trkpt><trkpt lat="44.9795594" lon="7.5255855"><ele>263.5</ele><time>2026-04-25T08:58:24.278Z</time></trkpt><trkpt lat="44.9796834" lon="7.5256634"><ele>264.0</ele><time>2026-04-25T08:58:25.284Z</time></trkpt><trkpt lat="44.9798064" lon="7.5257433"><ele>264.0</ele><time>2026-04-25T08:58:26.282Z</time></trkpt><trkpt lat="44.9799398" lon="7.5258359"><ele>264.0</ele><time>2026-04-25T08:58:27.28Z</time></trkpt><trkpt lat="44.9800686" lon="7.5259371"><ele>264.0</ele><time>2026-04-25T08:58:28.277Z</time></trkpt><trkpt lat="44.9801895" lon="7.5260156"><ele>264.0</ele><time>2026-04-25T08:58:29.281Z</time></trkpt><trkpt lat="44.9803181" lon="7.5260942"><ele>264.0</ele><time>2026-04-25T08:58:30.275Z</time></trkpt><trkpt lat="44.9804476" lon="7.5261758"><ele>264.0</ele><time>2026-04-25T08:58:31.283Z</time></trkpt><trkpt lat="44.9805856" lon="7.5262632"><ele>264.0</ele><time>2026-04-25T08:58:32.28Z</time></trkpt><trkpt lat="44.9807233" lon="7.5263435"><ele>264.0</ele><time>2026-04-25T08:58:33.278Z</time></trkpt><trkpt lat="44.9808452" lon="7.5264202"><ele>264.0</ele><time>2026-04-25T08:58:34.281Z</time></trkpt><trkpt lat="44.9809481" lon="7.5265115"><ele>264.0</ele><time>2026-04-25T08:58:35.282Z</time></trkpt><trkpt lat="44.9810307" lon="7.526597"><ele>264.0</ele><time>2026-04-25T08:58:36.282Z</time></trkpt><trkpt lat="44.9811025" lon="7.5267157"><ele>264.0</ele><time>2026-04-25T08:58:37.28Z</time></trkpt><trkpt lat="44.9811932" lon="7.5268017"><ele>264.0</ele><time>2026-04-25T08:58:38.28Z</time></trkpt><trkpt lat="44.9813139" lon="7.5268496"><ele>264.0</ele><time>2026-04-25T08:58:39.277Z</time></trkpt><trkpt lat="44.9814433" lon="7.5268861"><ele>264.0</ele><time>2026-04-25T08:58:40.281Z</time></trkpt><trkpt lat="44.9815708" lon="7.5269206"><ele>264.0</ele><time>2026-04-25T08:58:41.275Z</time></trkpt><trkpt lat="44.9817021" lon="7.5269848"><ele>264.0</ele><time>2026-04-25T08:58:42.269Z</time></trkpt><trkpt lat="44.9818331" lon="7.5270674"><ele>264.0</ele><time>2026-04-25T08:58:43.282Z</time></trkpt><trkpt lat="44.9819837" lon="7.5271656"><ele>264.0</ele><time>2026-04-25T08:58:44.284Z</time></trkpt><trkpt lat="44.9821485" lon="7.5272489"><ele>264.0</ele><time>2026-04-25T08:58:45.282Z</time></trkpt><trkpt lat="44.9822931" lon="7.5273544"><ele>264.0</ele><time>2026-04-25T08:58:46.281Z</time></trkpt><trkpt lat="44.9824438" lon="7.5274607"><ele>264.0</ele><time>2026-04-25T08:58:47.284Z</time></trkpt><trkpt lat="44.9826077" lon="7.5275722"><ele>264.0</ele><time>2026-04-25T08:58:48.279Z</time></trkpt><trkpt lat="44.9827562" lon="7.5276661"><ele>264.6666666666667</ele><time>2026-04-25T08:58:49.285Z</time></trkpt><trkpt lat="44.982898" lon="7.5277619"><ele>265.33333333333337</ele><time>2026-04-25T08:58:50.275Z</time></trkpt><trkpt lat="44.9830347" lon="7.5278432"><ele>266.0</ele><time>2026-04-25T08:58:51.279Z</time></trkpt><trkpt lat="44.9831837" lon="7.5279356"><ele>266.0</ele><time>2026-04-25T08:58:52.279Z</time></trkpt><trkpt lat="44.983342" lon="7.5280359"><ele>266.0</ele><time>2026-04-25T08:58:53.282Z</time></trkpt><trkpt lat="44.9834892" lon="7.5281391"><ele>266.0</ele><time>2026-04-25T08:58:54.296Z</time></trkpt><trkpt lat="44.9836394" lon="7.5282438"><ele>265.6666666666667</ele><time>2026-04-25T08:58:55.282Z</time></trkpt><trkpt lat="44.9838009" lon="7.528341"><ele>265.3333333333333</ele><time>2026-04-25T08:58:56.283Z</time></trkpt><trkpt lat="44.9839477" lon="7.5284431"><ele>265.0</ele><time>2026-04-25T08:58:57.28Z</time></trkpt><trkpt lat="44.9840899" lon="7.5285391"><ele>265.0</ele><time>2026-04-25T08:58:58.277Z</time></trkpt><trkpt lat="44.9842645" lon="7.528643"><ele>265.0</ele><time>2026-04-25T08:58:59.28Z</time></trkpt><trkpt lat="44.9844122" lon="7.5287427"><ele>265.0</ele><time>2026-04-25T08:59:00.278Z</time></trkpt><trkpt lat="44.9845674" lon="7.5288259"><ele>265.3333333333333</ele><time>2026-04-25T08:59:01.277Z</time></trkpt><trkpt lat="44.9847115" lon="7.5289336"><ele>265.6666666666667</ele><time>2026-04-25T08:59:02.282Z</time></trkpt><trkpt lat="44.984865" lon="7.5290293"><ele>266.0</ele><time>2026-04-25T08:59:03.282Z</time></trkpt><trkpt lat="44.9850272" lon="7.5291147"><ele>266.33333333333337</ele><time>2026-04-25T08:59:04.282Z</time></trkpt><trkpt lat="44.9851836" lon="7.529214"><ele>266.6666666666667</ele><time>2026-04-25T08:59:05.282Z</time></trkpt><trkpt lat="44.985342" lon="7.5293241"><ele>267.0</ele><time>2026-04-25T08:59:06.285Z</time></trkpt><trkpt lat="44.9854904" lon="7.529421"><ele>267.0</ele><time>2026-04-25T08:59:07.287Z</time></trkpt><trkpt lat="44.9856463" lon="7.5295161"><ele>267.0</ele><time>2026-04-25T08:59:08.279Z</time></trkpt><trkpt lat="44.9858039" lon="7.5296235"><ele>267.0</ele><time>2026-04-25T08:59:09.287Z</time></trkpt><trkpt lat="44.9859635" lon="7.5297269"><ele>266.6666666666667</ele><time>2026-04-25T08:59:10.277Z</time></trkpt><trkpt lat="44.9861217" lon="7.5298313"><ele>266.33333333333337</ele><time>2026-04-25T08:59:11.287Z</time></trkpt><trkpt lat="44.98627" lon="7.5299266"><ele>266.0</ele><time>2026-04-25T08:59:12.279Z</time></trkpt><trkpt lat="44.986417" lon="7.5300243"><ele>266.0</ele><time>2026-04-25T08:59:13.272Z</time></trkpt><trkpt lat="44.9865436" lon="7.5301158"><ele>266.0</ele><time>2026-04-25T08:59:14.273Z</time></trkpt><trkpt lat="44.9866507" lon="7.5301869"><ele>266.0</ele><time>2026-04-25T08:59:15.287Z</time></trkpt><trkpt lat="44.9867231" lon="7.5302523"><ele>266.0</ele><time>2026-04-25T08:59:16.271Z</time></trkpt><trkpt lat="44.9867868" lon="7.5303354"><ele>266.0</ele><time>2026-04-25T08:59:17.274Z</time></trkpt><trkpt lat="44.9868683" lon="7.5304111"><ele>266.25</ele><time>2026-04-25T08:59:18.267Z</time></trkpt><trkpt lat="44.9869812" lon="7.5304545"><ele>266.5</ele><time>2026-04-25T08:59:19.273Z</time></trkpt><trkpt lat="44.9871211" lon="7.5304736"><ele>266.75</ele><time>2026-04-25T08:59:20.27Z</time></trkpt><trkpt lat="44.9872709" lon="7.5305003"><ele>267.0</ele><time>2026-04-25T08:59:21.289Z</time></trkpt><trkpt lat="44.9874605" lon="7.5305504"><ele>268.0</ele><time>2026-04-25T08:59:22.278Z</time></trkpt><trkpt lat="44.9876914" lon="7.530588"><ele>269.0</ele><time>2026-04-25T08:59:23.28Z</time></trkpt><trkpt lat="44.9879202" lon="7.530624"><ele>269.0</ele><time>2026-04-25T08:59:24.284Z</time></trkpt><trkpt lat="44.9881304" lon="7.5306536"><ele>269.0</ele><time>2026-04-25T08:59:25.298Z</time></trkpt><trkpt lat="44.9883261" lon="7.5306756"><ele>269.0</ele><time>2026-04-25T08:59:26.28Z</time></trkpt><trkpt lat="44.9885257" lon="7.5306866"><ele>269.0</ele><time>2026-04-25T08:59:27.281Z</time></trkpt><trkpt lat="44.988727" lon="7.5307219"><ele>269.0</ele><time>2026-04-25T08:59:28.28Z</time></trkpt><trkpt lat="44.9889284" lon="7.5307325"><ele>269.0</ele><time>2026-04-25T08:59:29.278Z</time></trkpt><trkpt lat="44.9891332" lon="7.5307609"><ele>269.33333333333337</ele><time>2026-04-25T08:59:30.268Z</time></trkpt><trkpt lat="44.9893405" lon="7.530803"><ele>269.6666666666667</ele><time>2026-04-25T08:59:31.274Z</time></trkpt><trkpt lat="44.9895457" lon="7.5308316"><ele>270.0</ele><time>2026-04-25T08:59:32.286Z</time></trkpt><trkpt lat="44.9897533" lon="7.5308544"><ele>270.0</ele><time>2026-04-25T08:59:33.287Z</time></trkpt><trkpt lat="44.9899572" lon="7.5308631"><ele>270.0</ele><time>2026-04-25T08:59:34.286Z</time></trkpt><trkpt lat="44.9901753" lon="7.5308763"><ele>270.0</ele><time>2026-04-25T08:59:35.282Z</time></trkpt><trkpt lat="44.9903878" lon="7.5308921"><ele>269.6666666666667</ele><time>2026-04-25T08:59:36.282Z</time></trkpt><trkpt lat="44.9906077" lon="7.5308921"><ele>269.33333333333337</ele><time>2026-04-25T08:59:37.289Z</time></trkpt><trkpt lat="44.9908212" lon="7.5309056"><ele>269.0</ele><time>2026-04-25T08:59:38.286Z</time></trkpt><trkpt lat="44.9910358" lon="7.530924"><ele>269.0</ele><time>2026-04-25T08:59:39.29Z</time></trkpt><trkpt lat="44.9912436" lon="7.5309278"><ele>269.0</ele><time>2026-04-25T08:59:40.286Z</time></trkpt><trkpt lat="44.9914374" lon="7.5309401"><ele>269.0</ele><time>2026-04-25T08:59:41.295Z</time></trkpt><trkpt lat="44.9916272" lon="7.5309358"><ele>268.6666666666667</ele><time>2026-04-25T08:59:42.289Z</time></trkpt><trkpt lat="44.9918313" lon="7.5309272"><ele>268.3333333333333</ele><time>2026-04-25T08:59:43.292Z</time></trkpt><trkpt lat="44.9920345" lon="7.5309204"><ele>268.0</ele><time>2026-04-25T08:59:44.292Z</time></trkpt><trkpt lat="44.9922299" lon="7.5309126"><ele>268.0</ele><time>2026-04-25T08:59:45.286Z</time></trkpt><trkpt lat="44.9924438" lon="7.5309141"><ele>268.0</ele><time>2026-04-25T08:59:46.291Z</time></trkpt><trkpt lat="44.9926475" lon="7.5309282"><ele>268.0</ele><time>2026-04-25T08:59:47.292Z</time></trkpt><trkpt lat="44.992843" lon="7.5309343"><ele>268.0</ele><time>2026-04-25T08:59:48.296Z</time></trkpt><trkpt lat="44.9930407" lon="7.5309551"><ele>268.0</ele><time>2026-04-25T08:59:49.299Z</time></trkpt><trkpt lat="44.9932312" lon="7.5309566"><ele>268.0</ele><time>2026-04-25T08:59:50.296Z</time></trkpt><trkpt lat="44.9934169" lon="7.5309573"><ele>268.66666666666663</ele><time>2026-04-25T08:59:51.291Z</time></trkpt><trkpt lat="44.9936043" lon="7.5309678"><ele>269.3333333333333</ele><time>2026-04-25T08:59:52.292Z</time></trkpt><trkpt lat="44.9937841" lon="7.5309902"><ele>270.0</ele><time>2026-04-25T08:59:53.291Z</time></trkpt><trkpt lat="44.9939775" lon="7.5310438"><ele>269.6666666666667</ele><time>2026-04-25T08:59:54.285Z</time></trkpt><trkpt lat="44.9941736" lon="7.5311199"><ele>269.33333333333337</ele><time>2026-04-25T08:59:55.289Z</time></trkpt><trkpt lat="44.9943602" lon="7.5312112"><ele>269.0</ele><time>2026-04-25T08:59:56.296Z</time></trkpt><trkpt lat="44.9945308" lon="7.5312787"><ele>268.6666666666667</ele><time>2026-04-25T08:59:57.288Z</time></trkpt><trkpt lat="44.9946887" lon="7.5313439"><ele>268.3333333333333</ele><time>2026-04-25T08:59:58.286Z</time></trkpt><trkpt lat="44.9948456" lon="7.5314192"><ele>268.0</ele><time>2026-04-25T08:59:59.289Z</time></trkpt><trkpt lat="44.9950094" lon="7.5315119"><ele>268.5</ele><time>2026-04-25T09:00:00.285Z</time></trkpt><trkpt lat="44.995153" lon="7.5315732"><ele>269.0</ele><time>2026-04-25T09:00:01.28Z</time></trkpt><trkpt lat="44.9952991" lon="7.5316539"><ele>269.5</ele><time>2026-04-25T09:00:02.291Z</time></trkpt><trkpt lat="44.9954324" lon="7.5317177"><ele>270.0</ele><time>2026-04-25T09:00:03.292Z</time></trkpt><trkpt lat="44.9955762" lon="7.5317923"><ele>270.0</ele><time>2026-04-25T09:00:04.284Z</time></trkpt><trkpt lat="44.9956891" lon="7.5318546"><ele>270.0</ele><time>2026-04-25T09:00:05.288Z</time></trkpt><trkpt lat="44.9957852" lon="7.5319281"><ele>270.0</ele><time>2026-04-25T09:00:06.276Z</time></trkpt><trkpt lat="44.9958591" lon="7.5319973"><ele>270.0</ele><time>2026-04-25T09:00:07.284Z</time></trkpt><trkpt lat="44.9959165" lon="7.5320628"><ele>270.0</ele><time>2026-04-25T09:00:08.277Z</time></trkpt><trkpt lat="44.9959709" lon="7.5321669"><ele>270.0</ele><time>2026-04-25T09:00:09.28Z</time></trkpt><trkpt lat="44.9960108" lon="7.5323129"><ele>270.0</ele><time>2026-04-25T09:00:10.273Z</time></trkpt><trkpt lat="44.9960605" lon="7.5324847"><ele>270.0</ele><time>2026-04-25T09:00:11.278Z</time></trkpt><trkpt lat="44.9960892" lon="7.5326892"><ele>270.0</ele><time>2026-04-25T09:00:12.272Z</time></trkpt><trkpt lat="44.9960829" lon="7.5329386"><ele>270.0</ele><time>2026-04-25T09:00:13.274Z</time></trkpt><trkpt lat="44.9960513" lon="7.533218"><ele>270.0</ele><time>2026-04-25T09:00:14.276Z</time></trkpt><trkpt lat="44.9960358" lon="7.5335084"><ele>270.0</ele><time>2026-04-25T09:00:15.276Z</time></trkpt><trkpt lat="44.9960234" lon="7.5338063"><ele>269.5</ele><time>2026-04-25T09:00:16.278Z</time></trkpt><trkpt lat="44.9960009" lon="7.5341339"><ele>269.0</ele><time>2026-04-25T09:00:17.269Z</time></trkpt><trkpt lat="44.9959763" lon="7.5344528"><ele>268.5</ele><time>2026-04-25T09:00:18.288Z</time></trkpt><trkpt lat="44.9959427" lon="7.5347782"><ele>268.0</ele><time>2026-04-25T09:00:19.287Z</time></trkpt><trkpt lat="44.9959169" lon="7.5351"><ele>268.0</ele><time>2026-04-25T09:00:20.292Z</time></trkpt><trkpt lat="44.9958917" lon="7.5354231"><ele>268.0</ele><time>2026-04-25T09:00:21.281Z</time></trkpt><trkpt lat="44.9958715" lon="7.5357409"><ele>268.0</ele><time>2026-04-25T09:00:22.287Z</time></trkpt><trkpt lat="44.9958649" lon="7.5360615"><ele>268.0</ele><time>2026-04-25T09:00:23.29Z</time></trkpt><trkpt lat="44.9958385" lon="7.5363713"><ele>268.0</ele><time>2026-04-25T09:00:24.292Z</time></trkpt><trkpt lat="44.9958103" lon="7.536676"><ele>268.3333333333333</ele><time>2026-04-25T09:00:25.294Z</time></trkpt><trkpt lat="44.9957814" lon="7.5369655"><ele>268.6666666666667</ele><time>2026-04-25T09:00:26.293Z</time></trkpt><trkpt lat="44.9957577" lon="7.5372613"><ele>269.0</ele><time>2026-04-25T09:00:27.313Z</time></trkpt><trkpt lat="44.9957395" lon="7.5375595"><ele>269.0</ele><time>2026-04-25T09:00:28.3Z</time></trkpt><trkpt lat="44.9957148" lon="7.5378639"><ele>269.0</ele><time>2026-04-25T09:00:29.291Z</time></trkpt><trkpt lat="44.9956859" lon="7.5381747"><ele>269.0</ele><time>2026-04-25T09:00:30.295Z</time></trkpt><trkpt lat="44.9956634" lon="7.5384603"><ele>268.0</ele><time>2026-04-25T09:00:31.291Z</time></trkpt><trkpt lat="44.9956335" lon="7.5387452"><ele>267.0</ele><time>2026-04-25T09:00:32.292Z</time></trkpt><trkpt lat="44.9956106" lon="7.5390421"><ele>266.0</ele><time>2026-04-25T09:00:33.295Z</time></trkpt><trkpt lat="44.9955902" lon="7.5393488"><ele>265.0</ele><time>2026-04-25T09:00:34.292Z</time></trkpt><trkpt lat="44.9955802" lon="7.5396665"><ele>264.0</ele><time>2026-04-25T09:00:35.293Z</time></trkpt><trkpt lat="44.9955527" lon="7.5400037"><ele>264.0</ele><time>2026-04-25T09:00:36.291Z</time></trkpt><trkpt lat="44.9955285" lon="7.54034"><ele>264.0</ele><time>2026-04-25T09:00:37.292Z</time></trkpt><trkpt lat="44.9955015" lon="7.5406919"><ele>264.0</ele><time>2026-04-25T09:00:38.294Z</time></trkpt><trkpt lat="44.9954757" lon="7.5410385"><ele>264.0</ele><time>2026-04-25T09:00:39.299Z</time></trkpt><trkpt lat="44.9954654" lon="7.5413814"><ele>265.5</ele><time>2026-04-25T09:00:40.299Z</time></trkpt><trkpt lat="44.9954543" lon="7.5417183"><ele>267.0</ele><time>2026-04-25T09:00:41.296Z</time></trkpt><trkpt lat="44.995441" lon="7.5420428"><ele>266.0</ele><time>2026-04-25T09:00:42.299Z</time></trkpt><trkpt lat="44.9954404" lon="7.5423751"><ele>265.0</ele><time>2026-04-25T09:00:43.296Z</time></trkpt><trkpt lat="44.9954367" lon="7.5427162"><ele>265.0</ele><time>2026-04-25T09:00:44.299Z</time></trkpt><trkpt lat="44.9954504" lon="7.5430462"><ele>265.0</ele><time>2026-04-25T09:00:45.288Z</time></trkpt><trkpt lat="44.9954735" lon="7.5433816"><ele>264.0</ele><time>2026-04-25T09:00:46.296Z</time></trkpt><trkpt lat="44.9955019" lon="7.5437165"><ele>263.0</ele><time>2026-04-25T09:00:47.297Z</time></trkpt><trkpt lat="44.9955351" lon="7.5440444"><ele>263.0</ele><time>2026-04-25T09:00:48.298Z</time></trkpt><trkpt lat="44.9955834" lon="7.5443389"><ele>263.0</ele><time>2026-04-25T09:00:49.287Z</time></trkpt><trkpt lat="44.9956303" lon="7.5446271"><ele>263.0</ele><time>2026-04-25T09:00:50.295Z</time></trkpt><trkpt lat="44.9956863" lon="7.5449059"><ele>263.0</ele><time>2026-04-25T09:00:51.293Z</time></trkpt><trkpt lat="44.9957474" lon="7.5451777"><ele>263.0</ele><time>2026-04-25T09:00:52.289Z</time></trkpt><trkpt lat="44.9957992" lon="7.5454562"><ele>263.0</ele><time>2026-04-25T09:00:53.29Z</time></trkpt><trkpt lat="44.9958645" lon="7.5457212"><ele>263.33333333333337</ele><time>2026-04-25T09:00:54.291Z</time></trkpt><trkpt lat="44.9959337" lon="7.5459883"><ele>263.6666666666667</ele><time>2026-04-25T09:00:55.29Z</time></trkpt><trkpt lat="44.9960175" lon="7.5462494"><ele>264.0</ele><time>2026-04-25T09:00:56.287Z</time></trkpt><trkpt lat="44.996098" lon="7.5465002"><ele>264.0</ele><time>2026-04-25T09:00:57.28Z</time></trkpt><trkpt lat="44.9961787" lon="7.5467617"><ele>264.0</ele><time>2026-04-25T09:00:58.295Z</time></trkpt><trkpt lat="44.9962739" lon="7.5470057"><ele>264.0</ele><time>2026-04-25T09:00:59.288Z</time></trkpt><trkpt lat="44.9963687" lon="7.5472372"><ele>264.3333333333333</ele><time>2026-04-25T09:01:00.277Z</time></trkpt><trkpt lat="44.9964872" lon="7.5474653"><ele>264.66666666666663</ele><time>2026-04-25T09:01:01.278Z</time></trkpt><trkpt lat="44.9966125" lon="7.5477022"><ele>265.0</ele><time>2026-04-25T09:01:02.276Z</time></trkpt><trkpt lat="44.9967386" lon="7.5479312"><ele>265.66666666666663</ele><time>2026-04-25T09:01:03.272Z</time></trkpt><trkpt lat="44.9968517" lon="7.5481757"><ele>266.3333333333333</ele><time>2026-04-25T09:01:04.272Z</time></trkpt><trkpt lat="44.9969516" lon="7.5484186"><ele>267.0</ele><time>2026-04-25T09:01:05.28Z</time></trkpt><trkpt lat="44.9970576" lon="7.54866"><ele>266.0</ele><time>2026-04-25T09:01:06.274Z</time></trkpt><trkpt lat="44.9971718" lon="7.5488791"><ele>265.0</ele><time>2026-04-25T09:01:07.289Z</time></trkpt><trkpt lat="44.9972846" lon="7.5490801"><ele>264.0</ele><time>2026-04-25T09:01:08.28Z</time></trkpt><trkpt lat="44.9974047" lon="7.5492637"><ele>264.0</ele><time>2026-04-25T09:01:09.296Z</time></trkpt><trkpt lat="44.9975238" lon="7.5494616"><ele>264.0</ele><time>2026-04-25T09:01:10.285Z</time></trkpt><trkpt lat="44.9976523" lon="7.5496403"><ele>264.0</ele><time>2026-04-25T09:01:11.281Z</time></trkpt><trkpt lat="44.9977792" lon="7.5498101"><ele>262.6666666666667</ele><time>2026-04-25T09:01:12.286Z</time></trkpt><trkpt lat="44.9979131" lon="7.5499651"><ele>261.33333333333337</ele><time>2026-04-25T09:01:13.29Z</time></trkpt><trkpt lat="44.9980426" lon="7.5501356"><ele>260.0</ele><time>2026-04-25T09:01:14.291Z</time></trkpt><trkpt lat="44.9981781" lon="7.5502702"><ele>260.25</ele><time>2026-04-25T09:01:15.281Z</time></trkpt><trkpt lat="44.9982981" lon="7.5504084"><ele>260.5</ele><time>2026-04-25T09:01:16.281Z</time></trkpt><trkpt lat="44.998414" lon="7.5505233"><ele>260.75</ele><time>2026-04-25T09:01:17.285Z</time></trkpt><trkpt lat="44.9985258" lon="7.5506198"><ele>261.0</ele><time>2026-04-25T09:01:18.284Z</time></trkpt><trkpt lat="44.9986273" lon="7.5507016"><ele>261.40000000000003</ele><time>2026-04-25T09:01:19.28Z</time></trkpt><trkpt lat="44.9987118" lon="7.550784"><ele>261.8</ele><time>2026-04-25T09:01:20.281Z</time></trkpt><trkpt lat="44.9987715" lon="7.5508409"><ele>262.20000000000005</ele><time>2026-04-25T09:01:21.275Z</time></trkpt><trkpt lat="44.9988618" lon="7.5509206"><ele>262.6</ele><time>2026-04-25T09:01:23.28Z</time></trkpt><trkpt lat="44.9989305" lon="7.5509877"><ele>263.0</ele><time>2026-04-25T09:01:25.283Z</time></trkpt><trkpt lat="44.9990094" lon="7.5511184"><ele>263.0</ele><time>2026-04-25T09:01:27.289Z</time></trkpt><trkpt lat="44.9990477" lon="7.5511956"><ele>263.0</ele><time>2026-04-25T09:01:28.286Z</time></trkpt><trkpt lat="44.9990919" lon="7.551268"><ele>263.0</ele><time>2026-04-25T09:01:29.3Z</time></trkpt><trkpt lat="44.9991529" lon="7.5513311"><ele>263.0</ele><time>2026-04-25T09:01:30.274Z</time></trkpt><trkpt lat="44.9992314" lon="7.5513667"><ele>263.0</ele><time>2026-04-25T09:01:31.299Z</time></trkpt><trkpt lat="44.9993331" lon="7.5513872"><ele>263.0</ele><time>2026-04-25T09:01:32.278Z</time></trkpt><trkpt lat="44.9994486" lon="7.551406"><ele>263.25</ele><time>2026-04-25T09:01:33.28Z</time></trkpt><trkpt lat="44.9995617" lon="7.5514322"><ele>263.5</ele><time>2026-04-25T09:01:34.28Z</time></trkpt><trkpt lat="44.999676" lon="7.5514706"><ele>263.75</ele><time>2026-04-25T09:01:35.28Z</time></trkpt><trkpt lat="44.9998046" lon="7.5515269"><ele>264.0</ele><time>2026-04-25T09:01:36.277Z</time></trkpt><trkpt lat="44.9999448" lon="7.551589"><ele>264.0</ele><time>2026-04-25T09:01:37.286Z</time></trkpt><trkpt lat="45.0000951" lon="7.5516693"><ele>264.0</ele><time>2026-04-25T09:01:38.282Z</time></trkpt><trkpt lat="45.0002549" lon="7.5517587"><ele>264.0</ele><time>2026-04-25T09:01:39.289Z</time></trkpt><trkpt lat="45.0003991" lon="7.5518213"><ele>264.0</ele><time>2026-04-25T09:01:40.283Z</time></trkpt><trkpt lat="45.0005803" lon="7.5518993"><ele>264.0</ele><time>2026-04-25T09:01:41.284Z</time></trkpt><trkpt lat="45.000775" lon="7.5519704"><ele>264.0</ele><time>2026-04-25T09:01:42.289Z</time></trkpt><trkpt lat="45.0009781" lon="7.5520592"><ele>264.3333333333333</ele><time>2026-04-25T09:01:43.296Z</time></trkpt><trkpt lat="45.0011689" lon="7.5521215"><ele>264.66666666666663</ele><time>2026-04-25T09:01:44.297Z</time></trkpt><trkpt lat="45.0013496" lon="7.5521942"><ele>265.0</ele><time>2026-04-25T09:01:45.298Z</time></trkpt><trkpt lat="45.0015419" lon="7.5522554"><ele>265.3333333333333</ele><time>2026-04-25T09:01:46.298Z</time></trkpt><trkpt lat="45.0017194" lon="7.5523471"><ele>265.6666666666667</ele><time>2026-04-25T09:01:47.302Z</time></trkpt><trkpt lat="45.0019088" lon="7.5524245"><ele>266.0</ele><time>2026-04-25T09:01:48.307Z</time></trkpt><trkpt lat="45.0020856" lon="7.5525014"><ele>266.0</ele><time>2026-04-25T09:01:49.306Z</time></trkpt><trkpt lat="45.0022674" lon="7.5525544"><ele>266.0</ele><time>2026-04-25T09:01:50.308Z</time></trkpt><trkpt lat="45.0024473" lon="7.5526429"><ele>266.0</ele><time>2026-04-25T09:01:51.3Z</time></trkpt><trkpt lat="45.0026272" lon="7.5527152"><ele>265.6666666666667</ele><time>2026-04-25T09:01:52.301Z</time></trkpt><trkpt lat="45.0027964" lon="7.5527995"><ele>265.3333333333333</ele><time>2026-04-25T09:01:53.306Z</time></trkpt><trkpt lat="45.002957" lon="7.5528792"><ele>265.0</ele><time>2026-04-25T09:01:54.301Z</time></trkpt><trkpt lat="45.0031379" lon="7.5529636"><ele>265.0</ele><time>2026-04-25T09:01:55.301Z</time></trkpt><trkpt lat="45.0033116" lon="7.5530475"><ele>265.0</ele><time>2026-04-25T09:01:56.301Z</time></trkpt><trkpt lat="45.0034902" lon="7.5531061"><ele>265.0</ele><time>2026-04-25T09:01:57.3Z</time></trkpt><trkpt lat="45.0036636" lon="7.553172"><ele>264.66666666666663</ele><time>2026-04-25T09:01:58.3Z</time></trkpt><trkpt lat="45.0038439" lon="7.5532396"><ele>264.3333333333333</ele><time>2026-04-25T09:01:59.298Z</time></trkpt><trkpt lat="45.0040251" lon="7.5533001"><ele>264.0</ele><time>2026-04-25T09:02:00.31Z</time></trkpt><trkpt lat="45.004198" lon="7.5533593"><ele>264.6666666666667</ele><time>2026-04-25T09:02:01.297Z</time></trkpt><trkpt lat="45.0043724" lon="7.5534353"><ele>265.33333333333337</ele><time>2026-04-25T09:02:02.295Z</time></trkpt><trkpt lat="45.0045407" lon="7.5535286"><ele>266.0</ele><time>2026-04-25T09:02:03.295Z</time></trkpt><trkpt lat="45.004702" lon="7.5536006"><ele>266.0</ele><time>2026-04-25T09:02:04.292Z</time></trkpt><trkpt lat="45.0048785" lon="7.5536547"><ele>266.0</ele><time>2026-04-25T09:02:05.296Z</time></trkpt><trkpt lat="45.0050524" lon="7.5537493"><ele>266.0</ele><time>2026-04-25T09:02:06.291Z</time></trkpt><trkpt lat="45.0052168" lon="7.5538367"><ele>266.0</ele><time>2026-04-25T09:02:07.289Z</time></trkpt><trkpt lat="45.0053922" lon="7.5539032"><ele>266.0</ele><time>2026-04-25T09:02:08.293Z</time></trkpt><trkpt lat="45.0055725" lon="7.5539727"><ele>266.0</ele><time>2026-04-25T09:02:09.291Z</time></trkpt><trkpt lat="45.0057264" lon="7.55404"><ele>265.75</ele><time>2026-04-25T09:02:10.295Z</time></trkpt><trkpt lat="45.0058662" lon="7.554108"><ele>265.5</ele><time>2026-04-25T09:02:11.294Z</time></trkpt><trkpt lat="45.0060029" lon="7.5541629"><ele>265.25</ele><time>2026-04-25T09:02:12.292Z</time></trkpt><trkpt lat="45.0061255" lon="7.5542112"><ele>265.0</ele><time>2026-04-25T09:02:13.282Z</time></trkpt><trkpt lat="45.0062628" lon="7.5542789"><ele>265.0</ele><time>2026-04-25T09:02:14.285Z</time></trkpt><trkpt lat="45.0063577" lon="7.5543464"><ele>265.0</ele><time>2026-04-25T09:02:15.281Z</time></trkpt><trkpt lat="45.0064451" lon="7.5544016"><ele>265.0</ele><time>2026-04-25T09:02:16.283Z</time></trkpt><trkpt lat="45.0065108" lon="7.5544932"><ele>265.0</ele><time>2026-04-25T09:02:17.287Z</time></trkpt><trkpt lat="45.0065733" lon="7.5545815"><ele>265.0</ele><time>2026-04-25T09:02:18.28Z</time></trkpt><trkpt lat="45.0066449" lon="7.5546517"><ele>265.25</ele><time>2026-04-25T09:02:19.279Z</time></trkpt><trkpt lat="45.0067259" lon="7.5546833"><ele>265.5</ele><time>2026-04-25T09:02:20.29Z</time></trkpt><trkpt lat="45.0068326" lon="7.5546555"><ele>265.75</ele><time>2026-04-25T09:02:21.273Z</time></trkpt><trkpt lat="45.0069601" lon="7.5546081"><ele>266.0</ele><time>2026-04-25T09:02:22.268Z</time></trkpt><trkpt lat="45.0070925" lon="7.5545963"><ele>266.0</ele><time>2026-04-25T09:02:23.269Z</time></trkpt><trkpt lat="45.0072223" lon="7.5546301"><ele>266.0</ele><time>2026-04-25T09:02:24.272Z</time></trkpt><trkpt lat="45.0073596" lon="7.554697"><ele>266.0</ele><time>2026-04-25T09:02:25.281Z</time></trkpt><trkpt lat="45.0074907" lon="7.5547495"><ele>266.0</ele><time>2026-04-25T09:02:26.287Z</time></trkpt><trkpt lat="45.0076304" lon="7.5547962"><ele>266.33333333333337</ele><time>2026-04-25T09:02:27.288Z</time></trkpt><trkpt lat="45.0077912" lon="7.5548658"><ele>266.6666666666667</ele><time>2026-04-25T09:02:28.295Z</time></trkpt><trkpt lat="45.0079383" lon="7.5549443"><ele>267.0</ele><time>2026-04-25T09:02:29.293Z</time></trkpt><trkpt lat="45.0081117" lon="7.5550253"><ele>267.0</ele><time>2026-04-25T09:02:30.29Z</time></trkpt><trkpt lat="45.0082573" lon="7.5550875"><ele>267.0</ele><time>2026-04-25T09:02:31.31Z</time></trkpt><trkpt lat="45.0083966" lon="7.5551506"><ele>267.0</ele><time>2026-04-25T09:02:32.292Z</time></trkpt><trkpt lat="45.0085444" lon="7.5552033"><ele>267.5</ele><time>2026-04-25T09:02:33.285Z</time></trkpt><trkpt lat="45.0086824" lon="7.5552624"><ele>268.0</ele><time>2026-04-25T09:02:34.291Z</time></trkpt><trkpt lat="45.0088204" lon="7.5553045"><ele>268.5</ele><time>2026-04-25T09:02:35.288Z</time></trkpt><trkpt lat="45.0089593" lon="7.5553766"><ele>269.0</ele><time>2026-04-25T09:02:36.295Z</time></trkpt><trkpt lat="45.0090985" lon="7.5554395"><ele>268.75</ele><time>2026-04-25T09:02:37.295Z</time></trkpt><trkpt lat="45.0092422" lon="7.5555013"><ele>268.5</ele><time>2026-04-25T09:02:38.294Z</time></trkpt><trkpt lat="45.0093857" lon="7.5555486"><ele>268.25</ele><time>2026-04-25T09:02:39.297Z</time></trkpt><trkpt lat="45.0095229" lon="7.5556123"><ele>268.0</ele><time>2026-04-25T09:02:40.293Z</time></trkpt><trkpt lat="45.0096529" lon="7.5556741"><ele>268.0</ele><time>2026-04-25T09:02:41.293Z</time></trkpt><trkpt lat="45.0097714" lon="7.555749"><ele>268.0</ele><time>2026-04-25T09:02:42.297Z</time></trkpt><trkpt lat="45.0098846" lon="7.5557974"><ele>268.0</ele><time>2026-04-25T09:02:43.292Z</time></trkpt><trkpt lat="45.0100021" lon="7.5558446"><ele>268.0</ele><time>2026-04-25T09:02:44.292Z</time></trkpt><trkpt lat="45.0101084" lon="7.5558668"><ele>268.0</ele><time>2026-04-25T09:02:45.28Z</time></trkpt><trkpt lat="45.0101937" lon="7.5558778"><ele>268.0</ele><time>2026-04-25T09:02:46.288Z</time></trkpt><trkpt lat="45.0102665" lon="7.5558975"><ele>268.0</ele><time>2026-04-25T09:02:47.292Z</time></trkpt><trkpt lat="45.0103696" lon="7.5559323"><ele>268.0</ele><time>2026-04-25T09:02:49.291Z</time></trkpt><trkpt lat="45.0104358" lon="7.5560006"><ele>268.0</ele><time>2026-04-25T09:02:51.291Z</time></trkpt><trkpt lat="45.0104714" lon="7.5560881"><ele>268.0</ele><time>2026-04-25T09:02:52.278Z</time></trkpt><trkpt lat="45.0105164" lon="7.5562061"><ele>267.3333333333333</ele><time>2026-04-25T09:02:53.288Z</time></trkpt><trkpt lat="45.0105729" lon="7.5563164"><ele>266.66666666666663</ele><time>2026-04-25T09:02:54.286Z</time></trkpt><trkpt lat="45.0106378" lon="7.5563901"><ele>266.0</ele><time>2026-04-25T09:02:55.281Z</time></trkpt><trkpt lat="45.0107092" lon="7.5564379"><ele>265.3333333333333</ele><time>2026-04-25T09:02:56.279Z</time></trkpt><trkpt lat="45.0107795" lon="7.5564569"><ele>264.6666666666667</ele><time>2026-04-25T09:02:57.279Z</time></trkpt><trkpt lat="45.0108552" lon="7.5564411"><ele>264.0</ele><time>2026-04-25T09:02:58.286Z</time></trkpt><trkpt lat="45.0109416" lon="7.5563806"><ele>264.0</ele><time>2026-04-25T09:02:59.281Z</time></trkpt><trkpt lat="45.0110171" lon="7.5562873"><ele>264.0</ele><time>2026-04-25T09:03:00.279Z</time></trkpt><trkpt lat="45.0110814" lon="7.5561601"><ele>264.0</ele><time>2026-04-25T09:03:01.27Z</time></trkpt><trkpt lat="45.0111357" lon="7.556024"><ele>264.0</ele><time>2026-04-25T09:03:02.3Z</time></trkpt><trkpt lat="45.0111896" lon="7.5558964"><ele>264.0</ele><time>2026-04-25T09:03:03.283Z</time></trkpt><trkpt lat="45.0112483" lon="7.5557911"><ele>264.2</ele><time>2026-04-25T09:03:04.278Z</time></trkpt><trkpt lat="45.0113229" lon="7.5557112"><ele>264.4</ele><time>2026-04-25T09:03:05.288Z</time></trkpt><trkpt lat="45.0114222" lon="7.5556529"><ele>264.6</ele><time>2026-04-25T09:03:06.274Z</time></trkpt><trkpt lat="45.0115264" lon="7.5556035"><ele>264.8</ele><time>2026-04-25T09:03:07.283Z</time></trkpt><trkpt lat="45.0116296" lon="7.5555597"><ele>265.0</ele><time>2026-04-25T09:03:08.284Z</time></trkpt><trkpt lat="45.011738" lon="7.5555175"><ele>264.5</ele><time>2026-04-25T09:03:09.289Z</time></trkpt><trkpt lat="45.0118505" lon="7.555482"><ele>264.0</ele><time>2026-04-25T09:03:10.281Z</time></trkpt><trkpt lat="45.0119773" lon="7.5554657"><ele>263.5</ele><time>2026-04-25T09:03:11.279Z</time></trkpt><trkpt lat="45.012111" lon="7.5554761"><ele>263.0</ele><time>2026-04-25T09:03:12.277Z</time></trkpt><trkpt lat="45.0122409" lon="7.5555229"><ele>263.0</ele><time>2026-04-25T09:03:13.276Z</time></trkpt><trkpt lat="45.0123707" lon="7.5555793"><ele>263.0</ele><time>2026-04-25T09:03:14.273Z</time></trkpt><trkpt lat="45.0124963" lon="7.5556339"><ele>263.0</ele><time>2026-04-25T09:03:15.283Z</time></trkpt><trkpt lat="45.0126129" lon="7.5556804"><ele>263.0</ele><time>2026-04-25T09:03:16.281Z</time></trkpt><trkpt lat="45.0127321" lon="7.5557252"><ele>263.2</ele><time>2026-04-25T09:03:17.283Z</time></trkpt><trkpt lat="45.0128429" lon="7.55577"><ele>263.4</ele><time>2026-04-25T09:03:18.282Z</time></trkpt><trkpt lat="45.0129389" lon="7.5557987"><ele>263.59999999999997</ele><time>2026-04-25T09:03:19.272Z</time></trkpt><trkpt lat="45.0130194" lon="7.5558198"><ele>263.8</ele><time>2026-04-25T09:03:20.275Z</time></trkpt><trkpt lat="45.0131126" lon="7.5558347"><ele>264.0</ele><time>2026-04-25T09:03:22.279Z</time></trkpt><trkpt lat="45.0131771" lon="7.5558636"><ele>264.0</ele><time>2026-04-25T09:03:24.277Z</time></trkpt><trkpt lat="45.0132953" lon="7.5559551"><ele>264.0</ele><time>2026-04-25T09:03:26.285Z</time></trkpt><trkpt lat="45.0133678" lon="7.5560073"><ele>264.0</ele><time>2026-04-25T09:03:27.275Z</time></trkpt><trkpt lat="45.0134509" lon="7.556035"><ele>264.0</ele><time>2026-04-25T09:03:28.283Z</time></trkpt><trkpt lat="45.0135223" lon="7.5560071"><ele>264.0</ele><time>2026-04-25T09:03:29.278Z</time></trkpt><trkpt lat="45.0135757" lon="7.5559464"><ele>264.0</ele><time>2026-04-25T09:03:30.278Z</time></trkpt><trkpt lat="45.0136247" lon="7.5558444"><ele>263.59999999999997</ele><time>2026-04-25T09:03:31.275Z</time></trkpt><trkpt lat="45.013668" lon="7.5557193"><ele>263.2</ele><time>2026-04-25T09:03:32.284Z</time></trkpt><trkpt lat="45.0137287" lon="7.5555971"><ele>262.79999999999995</ele><time>2026-04-25T09:03:33.295Z</time></trkpt><trkpt lat="45.0138054" lon="7.5554904"><ele>262.4</ele><time>2026-04-25T09:03:34.274Z</time></trkpt><trkpt lat="45.0139054" lon="7.5553975"><ele>262.0</ele><time>2026-04-25T09:03:35.276Z</time></trkpt><trkpt lat="45.014028" lon="7.5553305"><ele>262.0</ele><time>2026-04-25T09:03:36.279Z</time></trkpt><trkpt lat="45.0141477" lon="7.5552592"><ele>262.0</ele><time>2026-04-25T09:03:37.286Z</time></trkpt><trkpt lat="45.014278" lon="7.5551985"><ele>262.0</ele><time>2026-04-25T09:03:38.282Z</time></trkpt><trkpt lat="45.0144119" lon="7.5551346"><ele>262.0</ele><time>2026-04-25T09:03:39.279Z</time></trkpt><trkpt lat="45.0145396" lon="7.5550583"><ele>262.0</ele><time>2026-04-25T09:03:40.287Z</time></trkpt><trkpt lat="45.0146651" lon="7.5549902"><ele>262.0</ele><time>2026-04-25T09:03:41.293Z</time></trkpt><trkpt lat="45.0147852" lon="7.5549215"><ele>262.0</ele><time>2026-04-25T09:03:42.295Z</time></trkpt><trkpt lat="45.014912" lon="7.5548516"><ele>262.0</ele><time>2026-04-25T09:03:43.298Z</time></trkpt><trkpt lat="45.015036" lon="7.5547822"><ele>262.0</ele><time>2026-04-25T09:03:44.296Z</time></trkpt><trkpt lat="45.015168" lon="7.554709"><ele>262.0</ele><time>2026-04-25T09:03:45.292Z</time></trkpt><trkpt lat="45.0152976" lon="7.5546471"><ele>262.0</ele><time>2026-04-25T09:03:46.29Z</time></trkpt><trkpt lat="45.0154221" lon="7.5545647"><ele>262.0</ele><time>2026-04-25T09:03:47.293Z</time></trkpt><trkpt lat="45.0155524" lon="7.5544875"><ele>262.0</ele><time>2026-04-25T09:03:48.293Z</time></trkpt><trkpt lat="45.0156782" lon="7.5543963"><ele>262.0</ele><time>2026-04-25T09:03:49.298Z</time></trkpt><trkpt lat="45.015811" lon="7.554325"><ele>262.0</ele><time>2026-04-25T09:03:50.285Z</time></trkpt><trkpt lat="45.0159492" lon="7.5542373"><ele>262.0</ele><time>2026-04-25T09:03:51.295Z</time></trkpt><trkpt lat="45.0160798" lon="7.5541623"><ele>262.0</ele><time>2026-04-25T09:03:52.299Z</time></trkpt><trkpt lat="45.0162242" lon="7.5540828"><ele>262.0</ele><time>2026-04-25T09:03:53.297Z</time></trkpt><trkpt lat="45.0163693" lon="7.5539965"><ele>262.0</ele><time>2026-04-25T09:03:54.306Z</time></trkpt><trkpt lat="45.0164978" lon="7.5539103"><ele>262.0</ele><time>2026-04-25T09:03:55.304Z</time></trkpt><trkpt lat="45.0166399" lon="7.5538406"><ele>262.0</ele><time>2026-04-25T09:03:56.3Z</time></trkpt><trkpt lat="45.0167913" lon="7.5537667"><ele>262.0</ele><time>2026-04-25T09:03:57.304Z</time></trkpt><trkpt lat="45.0169372" lon="7.5536756"><ele>260.3333333333333</ele><time>2026-04-25T09:03:58.293Z</time></trkpt><trkpt lat="45.0170871" lon="7.5535916"><ele>258.6666666666667</ele><time>2026-04-25T09:03:59.306Z</time></trkpt><trkpt lat="45.0172223" lon="7.5535065"><ele>257.0</ele><time>2026-04-25T09:04:00.3Z</time></trkpt><trkpt lat="45.0173658" lon="7.5534306"><ele>258.33333333333337</ele><time>2026-04-25T09:04:01.304Z</time></trkpt><trkpt lat="45.0175057" lon="7.5533481"><ele>259.6666666666667</ele><time>2026-04-25T09:04:02.295Z</time></trkpt><trkpt lat="45.0176534" lon="7.5532631"><ele>261.0</ele><time>2026-04-25T09:04:03.298Z</time></trkpt><trkpt lat="45.0177984" lon="7.5531826"><ele>261.0</ele><time>2026-04-25T09:04:04.319Z</time></trkpt><trkpt lat="45.0179445" lon="7.5531159"><ele>261.0</ele><time>2026-04-25T09:04:05.299Z</time></trkpt><trkpt lat="45.0181025" lon="7.5530639"><ele>261.0</ele><time>2026-04-25T09:04:06.299Z</time></trkpt><trkpt lat="45.0182643" lon="7.5530161"><ele>260.5</ele><time>2026-04-25T09:04:07.3Z</time></trkpt><trkpt lat="45.0184142" lon="7.5529664"><ele>260.0</ele><time>2026-04-25T09:04:08.304Z</time></trkpt><trkpt lat="45.0185566" lon="7.5529414"><ele>259.5</ele><time>2026-04-25T09:04:09.299Z</time></trkpt><trkpt lat="45.0186916" lon="7.5528981"><ele>259.0</ele><time>2026-04-25T09:04:10.295Z</time></trkpt><trkpt lat="45.0188282" lon="7.5528492"><ele>258.66666666666663</ele><time>2026-04-25T09:04:11.304Z</time></trkpt><trkpt lat="45.0189779" lon="7.5528218"><ele>258.3333333333333</ele><time>2026-04-25T09:04:12.303Z</time></trkpt><trkpt lat="45.0191224" lon="7.552787"><ele>258.0</ele><time>2026-04-25T09:04:13.299Z</time></trkpt><trkpt lat="45.0192728" lon="7.552747"><ele>258.0</ele><time>2026-04-25T09:04:14.299Z</time></trkpt><trkpt lat="45.0194337" lon="7.5527226"><ele>258.0</ele><time>2026-04-25T09:04:15.301Z</time></trkpt><trkpt lat="45.0196002" lon="7.552685"><ele>258.0</ele><time>2026-04-25T09:04:16.303Z</time></trkpt><trkpt lat="45.0197547" lon="7.5526447"><ele>258.0</ele><time>2026-04-25T09:04:17.298Z</time></trkpt><trkpt lat="45.0198985" lon="7.5526065"><ele>258.0</ele><time>2026-04-25T09:04:18.298Z</time></trkpt><trkpt lat="45.0200265" lon="7.5525867"><ele>258.0</ele><time>2026-04-25T09:04:19.309Z</time></trkpt><trkpt lat="45.0201481" lon="7.5525493"><ele>258.0</ele><time>2026-04-25T09:04:20.302Z</time></trkpt><trkpt lat="45.0202662" lon="7.5525237"><ele>258.0</ele><time>2026-04-25T09:04:21.305Z</time></trkpt><trkpt lat="45.020383" lon="7.5524853"><ele>258.0</ele><time>2026-04-25T09:04:22.302Z</time></trkpt><trkpt lat="45.0204912" lon="7.5524591"><ele>258.0</ele><time>2026-04-25T09:04:23.307Z</time></trkpt><trkpt lat="45.0206087" lon="7.5524309"><ele>258.0</ele><time>2026-04-25T09:04:24.298Z</time></trkpt><trkpt lat="45.0207258" lon="7.5524057"><ele>257.5</ele><time>2026-04-25T09:04:25.3Z</time></trkpt><trkpt lat="45.0208418" lon="7.5523719"><ele>257.0</ele><time>2026-04-25T09:04:26.3Z</time></trkpt><trkpt lat="45.0209692" lon="7.5523489"><ele>256.5</ele><time>2026-04-25T09:04:27.296Z</time></trkpt><trkpt lat="45.0211061" lon="7.552326"><ele>256.0</ele><time>2026-04-25T09:04:28.304Z</time></trkpt><trkpt lat="45.0212401" lon="7.5522916"><ele>256.0</ele><time>2026-04-25T09:04:29.298Z</time></trkpt><trkpt lat="45.0213835" lon="7.5522597"><ele>256.0</ele><time>2026-04-25T09:04:30.294Z</time></trkpt><trkpt lat="45.0215245" lon="7.5522283"><ele>256.0</ele><time>2026-04-25T09:04:31.305Z</time></trkpt><trkpt lat="45.0216729" lon="7.5521948"><ele>256.0</ele><time>2026-04-25T09:04:32.301Z</time></trkpt><trkpt lat="45.0218225" lon="7.5521523"><ele>257.0</ele><time>2026-04-25T09:04:33.303Z</time></trkpt><trkpt lat="45.0219573" lon="7.5521242"><ele>258.0</ele><time>2026-04-25T09:04:34.305Z</time></trkpt><trkpt lat="45.022096" lon="7.5520948"><ele>259.0</ele><time>2026-04-25T09:04:35.316Z</time></trkpt><trkpt lat="45.0222339" lon="7.5520719"><ele>260.0</ele><time>2026-04-25T09:04:36.299Z</time></trkpt><trkpt lat="45.0223699" lon="7.5520416"><ele>260.0</ele><time>2026-04-25T09:04:37.295Z</time></trkpt><trkpt lat="45.0225053" lon="7.5519968"><ele>260.0</ele><time>2026-04-25T09:04:38.3Z</time></trkpt><trkpt lat="45.0226415" lon="7.5519651"><ele>260.0</ele><time>2026-04-25T09:04:39.292Z</time></trkpt><trkpt lat="45.0227802" lon="7.5519337"><ele>260.0</ele><time>2026-04-25T09:04:40.298Z</time></trkpt><trkpt lat="45.022907" lon="7.5519028"><ele>260.0</ele><time>2026-04-25T09:04:41.294Z</time></trkpt><trkpt lat="45.0230302" lon="7.5518782"><ele>260.0</ele><time>2026-04-25T09:04:42.294Z</time></trkpt><trkpt lat="45.0231671" lon="7.5518566"><ele>260.0</ele><time>2026-04-25T09:04:43.29Z</time></trkpt><trkpt lat="45.0233138" lon="7.5518345"><ele>260.0</ele><time>2026-04-25T09:04:44.291Z</time></trkpt><trkpt lat="45.0234598" lon="7.5517914"><ele>260.0</ele><time>2026-04-25T09:04:45.286Z</time></trkpt><trkpt lat="45.0235921" lon="7.5517585"><ele>260.0</ele><time>2026-04-25T09:04:46.29Z</time></trkpt><trkpt lat="45.023724" lon="7.5517304"><ele>260.0</ele><time>2026-04-25T09:04:47.295Z</time></trkpt><trkpt lat="45.0238513" lon="7.5517105"><ele>260.0</ele><time>2026-04-25T09:04:48.293Z</time></trkpt><trkpt lat="45.0239728" lon="7.5516784"><ele>260.0</ele><time>2026-04-25T09:04:49.295Z</time></trkpt><trkpt lat="45.0240924" lon="7.5516665"><ele>260.0</ele><time>2026-04-25T09:04:50.291Z</time></trkpt><trkpt lat="45.0242143" lon="7.5516519"><ele>260.0</ele><time>2026-04-25T09:04:51.297Z</time></trkpt><trkpt lat="45.0243361" lon="7.5516445"><ele>260.0</ele><time>2026-04-25T09:04:52.297Z</time></trkpt><trkpt lat="45.0244675" lon="7.5516434"><ele>261.5</ele><time>2026-04-25T09:04:53.3Z</time></trkpt><trkpt lat="45.0245992" lon="7.5516439"><ele>263.0</ele><time>2026-04-25T09:04:54.291Z</time></trkpt><trkpt lat="45.0247318" lon="7.5516485"><ele>264.5</ele><time>2026-04-25T09:04:55.294Z</time></trkpt><trkpt lat="45.0248577" lon="7.5516528"><ele>266.0</ele><time>2026-04-25T09:04:56.284Z</time></trkpt><trkpt lat="45.0249741" lon="7.5516589"><ele>266.2</ele><time>2026-04-25T09:04:57.293Z</time></trkpt><trkpt lat="45.0250738" lon="7.5516759"><ele>266.40000000000003</ele><time>2026-04-25T09:04:58.288Z</time></trkpt><trkpt lat="45.0251704" lon="7.5516971"><ele>266.6</ele><time>2026-04-25T09:04:59.288Z</time></trkpt><trkpt lat="45.0252555" lon="7.5517083"><ele>266.8</ele><time>2026-04-25T09:05:00.294Z</time></trkpt><trkpt lat="45.0253442" lon="7.5517268"><ele>267.0</ele><time>2026-04-25T09:05:01.292Z</time></trkpt><trkpt lat="45.025438" lon="7.5517475"><ele>267.0</ele><time>2026-04-25T09:05:02.286Z</time></trkpt><trkpt lat="45.0255242" lon="7.5517708"><ele>267.0</ele><time>2026-04-25T09:05:03.287Z</time></trkpt><trkpt lat="45.0255995" lon="7.551793"><ele>267.0</ele><time>2026-04-25T09:05:04.289Z</time></trkpt><trkpt lat="45.0256622" lon="7.5518072"><ele>267.0</ele><time>2026-04-25T09:05:05.288Z</time></trkpt><trkpt lat="45.0257397" lon="7.5518742"><ele>267.0</ele><time>2026-04-25T09:05:07.296Z</time></trkpt><trkpt lat="45.0257818" lon="7.5519736"><ele>267.0</ele><time>2026-04-25T09:05:09.283Z</time></trkpt><trkpt lat="45.0258688" lon="7.5521185"><ele>267.1666666666667</ele><time>2026-04-25T09:05:11.281Z</time></trkpt><trkpt lat="45.0259244" lon="7.5522027"><ele>267.3333333333333</ele><time>2026-04-25T09:05:12.286Z</time></trkpt><trkpt lat="45.0260002" lon="7.552271"><ele>267.5</ele><time>2026-04-25T09:05:13.275Z</time></trkpt><trkpt lat="45.0260845" lon="7.5523145"><ele>267.66666666666663</ele><time>2026-04-25T09:05:14.271Z</time></trkpt><trkpt lat="45.0261635" lon="7.5523106"><ele>267.8333333333333</ele><time>2026-04-25T09:05:15.275Z</time></trkpt><trkpt lat="45.0262607" lon="7.5522493"><ele>268.0</ele><time>2026-04-25T09:05:16.263Z</time></trkpt><trkpt lat="45.0263698" lon="7.5521769"><ele>268.0</ele><time>2026-04-25T09:05:17.273Z</time></trkpt><trkpt lat="45.0264727" lon="7.5521037"><ele>268.0</ele><time>2026-04-25T09:05:18.271Z</time></trkpt><trkpt lat="45.0265701" lon="7.5520647"><ele>268.0</ele><time>2026-04-25T09:05:19.261Z</time></trkpt><trkpt lat="45.0266739" lon="7.5520555"><ele>268.0</ele><time>2026-04-25T09:05:20.26Z</time></trkpt><trkpt lat="45.0267886" lon="7.5520846"><ele>268.0</ele><time>2026-04-25T09:05:21.266Z</time></trkpt><trkpt lat="45.0269202" lon="7.5521472"><ele>269.0</ele><time>2026-04-25T09:05:22.263Z</time></trkpt><trkpt lat="45.0270443" lon="7.5522035"><ele>270.0</ele><time>2026-04-25T09:05:23.267Z</time></trkpt><trkpt lat="45.0271704" lon="7.5522634"><ele>271.0</ele><time>2026-04-25T09:05:24.268Z</time></trkpt><trkpt lat="45.0273061" lon="7.552327"><ele>272.0</ele><time>2026-04-25T09:05:25.264Z</time></trkpt><trkpt lat="45.0274425" lon="7.552385"><ele>275.33333333333337</ele><time>2026-04-25T09:05:26.266Z</time></trkpt><trkpt lat="45.0275911" lon="7.5524556"><ele>278.6666666666667</ele><time>2026-04-25T09:05:27.264Z</time></trkpt><trkpt lat="45.0277451" lon="7.5525303"><ele>282.0</ele><time>2026-04-25T09:05:28.263Z</time></trkpt><trkpt lat="45.027897" lon="7.5525993"><ele>282.0</ele><time>2026-04-25T09:05:29.267Z</time></trkpt><trkpt lat="45.028023" lon="7.5526556"><ele>282.0</ele><time>2026-04-25T09:05:30.266Z</time></trkpt><trkpt lat="45.0281668" lon="7.5527622"><ele>282.0</ele><time>2026-04-25T09:05:31.264Z</time></trkpt><trkpt lat="45.0283035" lon="7.5528164"><ele>282.0</ele><time>2026-04-25T09:05:32.268Z</time></trkpt><trkpt lat="45.0284584" lon="7.5528789"><ele>282.5</ele><time>2026-04-25T09:05:33.267Z</time></trkpt><trkpt lat="45.0285945" lon="7.5529249"><ele>283.0</ele><time>2026-04-25T09:05:34.268Z</time></trkpt><trkpt lat="45.0287254" lon="7.5529635"><ele>283.5</ele><time>2026-04-25T09:05:35.267Z</time></trkpt><trkpt lat="45.0288806" lon="7.5530441"><ele>284.0</ele><time>2026-04-25T09:05:36.262Z</time></trkpt><trkpt lat="45.0290084" lon="7.5531077"><ele>284.0</ele><time>2026-04-25T09:05:37.295Z</time></trkpt><trkpt lat="45.0291378" lon="7.5531644"><ele>284.0</ele><time>2026-04-25T09:05:38.267Z</time></trkpt><trkpt lat="45.0292825" lon="7.5532169"><ele>284.0</ele><time>2026-04-25T09:05:39.263Z</time></trkpt><trkpt lat="45.0294101" lon="7.5532647"><ele>284.0</ele><time>2026-04-25T09:05:40.263Z</time></trkpt><trkpt lat="45.0295677" lon="7.5533057"><ele>283.75</ele><time>2026-04-25T09:05:41.265Z</time></trkpt><trkpt lat="45.0297033" lon="7.5533517"><ele>283.5</ele><time>2026-04-25T09:05:42.263Z</time></trkpt><trkpt lat="45.0298445" lon="7.5534187"><ele>283.25</ele><time>2026-04-25T09:05:43.269Z</time></trkpt><trkpt lat="45.0299744" lon="7.5534653"><ele>283.0</ele><time>2026-04-25T09:05:44.266Z</time></trkpt><trkpt lat="45.030115" lon="7.5535334"><ele>282.25</ele><time>2026-04-25T09:05:45.263Z</time></trkpt><trkpt lat="45.0302339" lon="7.5535681"><ele>281.5</ele><time>2026-04-25T09:05:46.268Z</time></trkpt><trkpt lat="45.0303459" lon="7.5535975"><ele>280.75</ele><time>2026-04-25T09:05:47.265Z</time></trkpt><trkpt lat="45.0304644" lon="7.5536574"><ele>280.0</ele><time>2026-04-25T09:05:48.267Z</time></trkpt><trkpt lat="45.0305918" lon="7.5537241"><ele>280.2</ele><time>2026-04-25T09:05:49.269Z</time></trkpt><trkpt lat="45.0306922" lon="7.5537459"><ele>280.4</ele><time>2026-04-25T09:05:50.265Z</time></trkpt><trkpt lat="45.0307944" lon="7.5537855"><ele>280.6</ele><time>2026-04-25T09:05:51.262Z</time></trkpt><trkpt lat="45.0308987" lon="7.5538345"><ele>280.8</ele><time>2026-04-25T09:05:52.261Z</time></trkpt><trkpt lat="45.0310063" lon="7.5538737"><ele>281.0</ele><time>2026-04-25T09:05:53.272Z</time></trkpt><trkpt lat="45.0311047" lon="7.5539152"><ele>281.0</ele><time>2026-04-25T09:05:54.271Z</time></trkpt><trkpt lat="45.0311967" lon="7.5539565"><ele>281.0</ele><time>2026-04-25T09:05:55.272Z</time></trkpt><trkpt lat="45.0312859" lon="7.553985"><ele>281.0</ele><time>2026-04-25T09:05:56.271Z</time></trkpt><trkpt lat="45.0313849" lon="7.5540179"><ele>281.0</ele><time>2026-04-25T09:05:57.275Z</time></trkpt><trkpt lat="45.0314638" lon="7.5540434"><ele>281.0</ele><time>2026-04-25T09:05:58.276Z</time></trkpt><trkpt lat="45.0315523" lon="7.554074"><ele>281.0</ele><time>2026-04-25T09:05:59.28Z</time></trkpt><trkpt lat="45.0316382" lon="7.5541041"><ele>281.0</ele><time>2026-04-25T09:06:00.283Z</time></trkpt><trkpt lat="45.0317046" lon="7.5541423"><ele>281.0</ele><time>2026-04-25T09:06:01.278Z</time></trkpt><trkpt lat="45.031788" lon="7.5542058"><ele>281.0</ele><time>2026-04-25T09:06:03.284Z</time></trkpt><trkpt lat="45.0318502" lon="7.5543532"><ele>281.0</ele><time>2026-04-25T09:06:05.276Z</time></trkpt><trkpt lat="45.0318935" lon="7.5544585"><ele>281.40000000000003</ele><time>2026-04-25T09:06:06.277Z</time></trkpt><trkpt lat="45.0319472" lon="7.5545685"><ele>281.8</ele><time>2026-04-25T09:06:07.29Z</time></trkpt><trkpt lat="45.0320203" lon="7.5546552"><ele>282.20000000000005</ele><time>2026-04-25T09:06:08.272Z</time></trkpt><trkpt lat="45.0321035" lon="7.5547049"><ele>282.6</ele><time>2026-04-25T09:06:09.269Z</time></trkpt><trkpt lat="45.0321926" lon="7.5547016"><ele>283.0</ele><time>2026-04-25T09:06:10.271Z</time></trkpt><trkpt lat="45.0322847" lon="7.5546587"><ele>283.0</ele><time>2026-04-25T09:06:11.268Z</time></trkpt><trkpt lat="45.0323876" lon="7.5545774"><ele>283.0</ele><time>2026-04-25T09:06:12.286Z</time></trkpt><trkpt lat="45.0324947" lon="7.5545145"><ele>283.0</ele><time>2026-04-25T09:06:13.263Z</time></trkpt><trkpt lat="45.032607" lon="7.5544676"><ele>283.0</ele><time>2026-04-25T09:06:14.271Z</time></trkpt><trkpt lat="45.0327296" lon="7.554459"><ele>283.0</ele><time>2026-04-25T09:06:15.28Z</time></trkpt><trkpt lat="45.0328543" lon="7.5544817"><ele>283.0</ele><time>2026-04-25T09:06:16.268Z</time></trkpt><trkpt lat="45.0329771" lon="7.5545309"><ele>283.0</ele><time>2026-04-25T09:06:17.28Z</time></trkpt><trkpt lat="45.0331091" lon="7.5545834"><ele>283.0</ele><time>2026-04-25T09:06:18.282Z</time></trkpt><trkpt lat="45.0332297" lon="7.5546432"><ele>283.0</ele><time>2026-04-25T09:06:19.281Z</time></trkpt><trkpt lat="45.0333529" lon="7.5546892"><ele>283.0</ele><time>2026-04-25T09:06:20.284Z</time></trkpt><trkpt lat="45.0334899" lon="7.5547361"><ele>283.0</ele><time>2026-04-25T09:06:21.284Z</time></trkpt><trkpt lat="45.0336259" lon="7.5547835"><ele>283.0</ele><time>2026-04-25T09:06:22.282Z</time></trkpt><trkpt lat="45.0337695" lon="7.5548324"><ele>283.0</ele><time>2026-04-25T09:06:23.285Z</time></trkpt><trkpt lat="45.0339123" lon="7.5548744"><ele>283.0</ele><time>2026-04-25T09:06:24.288Z</time></trkpt><trkpt lat="45.0340497" lon="7.5549255"><ele>283.0</ele><time>2026-04-25T09:06:25.291Z</time></trkpt><trkpt lat="45.034202" lon="7.5549745"><ele>283.0</ele><time>2026-04-25T09:06:26.287Z</time></trkpt><trkpt lat="45.0343408" lon="7.5550021"><ele>283.25</ele><time>2026-04-25T09:06:27.293Z</time></trkpt><trkpt lat="45.0344876" lon="7.5550547"><ele>283.5</ele><time>2026-04-25T09:06:28.288Z</time></trkpt><trkpt lat="45.0346148" lon="7.5551"><ele>283.75</ele><time>2026-04-25T09:06:29.299Z</time></trkpt><trkpt lat="45.0347362" lon="7.5551166"><ele>284.0</ele><time>2026-04-25T09:06:30.292Z</time></trkpt><trkpt lat="45.0348714" lon="7.555137"><ele>283.25</ele><time>2026-04-25T09:06:31.295Z</time></trkpt><trkpt lat="45.0350089" lon="7.5551628"><ele>282.5</ele><time>2026-04-25T09:06:32.299Z</time></trkpt><trkpt lat="45.0351516" lon="7.5551624"><ele>281.75</ele><time>2026-04-25T09:06:33.298Z</time></trkpt><trkpt lat="45.035295" lon="7.5551595"><ele>281.0</ele><time>2026-04-25T09:06:34.288Z</time></trkpt><trkpt lat="45.0354479" lon="7.5551181"><ele>281.0</ele><time>2026-04-25T09:06:35.294Z</time></trkpt><trkpt lat="45.035597" lon="7.5550858"><ele>281.0</ele><time>2026-04-25T09:06:36.291Z</time></trkpt><trkpt lat="45.0357431" lon="7.555042"><ele>281.0</ele><time>2026-04-25T09:06:37.286Z</time></trkpt><trkpt lat="45.0358758" lon="7.5549796"><ele>281.0</ele><time>2026-04-25T09:06:38.301Z</time></trkpt><trkpt lat="45.0360162" lon="7.5549218"><ele>281.5</ele><time>2026-04-25T09:06:39.284Z</time></trkpt><trkpt lat="45.0361322" lon="7.554842"><ele>282.0</ele><time>2026-04-25T09:06:40.287Z</time></trkpt><trkpt lat="45.0362464" lon="7.5547511"><ele>282.5</ele><time>2026-04-25T09:06:41.281Z</time></trkpt><trkpt lat="45.0363709" lon="7.5546725"><ele>283.0</ele><time>2026-04-25T09:06:42.279Z</time></trkpt><trkpt lat="45.0365042" lon="7.5546004"><ele>283.75</ele><time>2026-04-25T09:06:43.278Z</time></trkpt><trkpt lat="45.0366125" lon="7.554525"><ele>284.5</ele><time>2026-04-25T09:06:44.277Z</time></trkpt><trkpt lat="45.0367278" lon="7.5544459"><ele>285.25</ele><time>2026-04-25T09:06:45.269Z</time></trkpt><trkpt lat="45.0368427" lon="7.5544039"><ele>286.0</ele><time>2026-04-25T09:06:46.269Z</time></trkpt><trkpt lat="45.0369635" lon="7.5543732"><ele>286.0</ele><time>2026-04-25T09:06:47.27Z</time></trkpt><trkpt lat="45.0370979" lon="7.5543753"><ele>286.0</ele><time>2026-04-25T09:06:48.261Z</time></trkpt><trkpt lat="45.0372498" lon="7.554425"><ele>286.0</ele><time>2026-04-25T09:06:49.268Z</time></trkpt><trkpt lat="45.0374163" lon="7.554507"><ele>286.0</ele><time>2026-04-25T09:06:50.267Z</time></trkpt><trkpt lat="45.0375826" lon="7.5546483"><ele>286.0</ele><time>2026-04-25T09:06:51.271Z</time></trkpt><trkpt lat="45.0377076" lon="7.5547915"><ele>286.0</ele><time>2026-04-25T09:06:52.272Z</time></trkpt><trkpt lat="45.037795" lon="7.5549624"><ele>286.0</ele><time>2026-04-25T09:06:53.271Z</time></trkpt><trkpt lat="45.0378627" lon="7.5551405"><ele>286.0</ele><time>2026-04-25T09:06:54.271Z</time></trkpt><trkpt lat="45.0379234" lon="7.5553173"><ele>286.0</ele><time>2026-04-25T09:06:55.27Z</time></trkpt><trkpt lat="45.037964" lon="7.5554963"><ele>286.0</ele><time>2026-04-25T09:06:56.28Z</time></trkpt><trkpt lat="45.038005" lon="7.5556844"><ele>286.25</ele><time>2026-04-25T09:06:57.284Z</time></trkpt><trkpt lat="45.0380408" lon="7.5558811"><ele>286.5</ele><time>2026-04-25T09:06:58.283Z</time></trkpt><trkpt lat="45.0381213" lon="7.5560669"><ele>286.75</ele><time>2026-04-25T09:06:59.289Z</time></trkpt><trkpt lat="45.0381891" lon="7.5562436"><ele>287.0</ele><time>2026-04-25T09:07:00.285Z</time></trkpt><trkpt lat="45.0382704" lon="7.5564009"><ele>287.0</ele><time>2026-04-25T09:07:01.286Z</time></trkpt><trkpt lat="45.0383592" lon="7.5565415"><ele>287.0</ele><time>2026-04-25T09:07:02.281Z</time></trkpt><trkpt lat="45.0384468" lon="7.5566901"><ele>287.0</ele><time>2026-04-25T09:07:03.275Z</time></trkpt><trkpt lat="45.0385329" lon="7.5568564"><ele>287.0</ele><time>2026-04-25T09:07:04.271Z</time></trkpt><trkpt lat="45.0386386" lon="7.5570197"><ele>287.0</ele><time>2026-04-25T09:07:05.283Z</time></trkpt><trkpt lat="45.0387578" lon="7.5571709"><ele>287.0</ele><time>2026-04-25T09:07:06.285Z</time></trkpt><trkpt lat="45.0388864" lon="7.5573228"><ele>287.0</ele><time>2026-04-25T09:07:07.283Z</time></trkpt><trkpt lat="45.0390052" lon="7.5574612"><ele>286.75</ele><time>2026-04-25T09:07:08.283Z</time></trkpt><trkpt lat="45.0391389" lon="7.5575586"><ele>286.5</ele><time>2026-04-25T09:07:09.29Z</time></trkpt><trkpt lat="45.0392879" lon="7.557619"><ele>286.25</ele><time>2026-04-25T09:07:10.275Z</time></trkpt><trkpt lat="45.0394202" lon="7.5576761"><ele>286.0</ele><time>2026-04-25T09:07:11.284Z</time></trkpt><trkpt lat="45.0395545" lon="7.5577305"><ele>286.0</ele><time>2026-04-25T09:07:12.282Z</time></trkpt><trkpt lat="45.039706" lon="7.5577932"><ele>286.0</ele><time>2026-04-25T09:07:13.285Z</time></trkpt><trkpt lat="45.0398462" lon="7.5578757"><ele>286.0</ele><time>2026-04-25T09:07:14.284Z</time></trkpt><trkpt lat="45.0399901" lon="7.5579557"><ele>286.5</ele><time>2026-04-25T09:07:15.286Z</time></trkpt><trkpt lat="45.0401112" lon="7.5580398"><ele>287.0</ele><time>2026-04-25T09:07:16.288Z</time></trkpt><trkpt lat="45.0402395" lon="7.5581254"><ele>287.5</ele><time>2026-04-25T09:07:17.289Z</time></trkpt><trkpt lat="45.0403636" lon="7.5581927"><ele>288.0</ele><time>2026-04-25T09:07:18.284Z</time></trkpt><trkpt lat="45.0404968" lon="7.5582424"><ele>288.0</ele><time>2026-04-25T09:07:19.286Z</time></trkpt><trkpt lat="45.0406319" lon="7.5582986"><ele>288.0</ele><time>2026-04-25T09:07:20.286Z</time></trkpt><trkpt lat="45.0407711" lon="7.5583727"><ele>288.0</ele><time>2026-04-25T09:07:21.28Z</time></trkpt><trkpt lat="45.0408986" lon="7.558456"><ele>288.0</ele><time>2026-04-25T09:07:22.281Z</time></trkpt><trkpt lat="45.0410133" lon="7.558515"><ele>288.75</ele><time>2026-04-25T09:07:23.28Z</time></trkpt><trkpt lat="45.041119" lon="7.5585996"><ele>289.5</ele><time>2026-04-25T09:07:24.279Z</time></trkpt><trkpt lat="45.0412077" lon="7.5586676"><ele>290.25</ele><time>2026-04-25T09:07:25.277Z</time></trkpt><trkpt lat="45.0413156" lon="7.5587348"><ele>291.0</ele><time>2026-04-25T09:07:26.261Z</time></trkpt><trkpt lat="45.0414031" lon="7.5588564"><ele>291.0</ele><time>2026-04-25T09:07:27.285Z</time></trkpt><trkpt lat="45.0414912" lon="7.55898"><ele>291.0</ele><time>2026-04-25T09:07:28.285Z</time></trkpt><trkpt lat="45.0415673" lon="7.5591006"><ele>291.0</ele><time>2026-04-25T09:07:29.287Z</time></trkpt><trkpt lat="45.0416457" lon="7.5592312"><ele>291.0</ele><time>2026-04-25T09:07:30.284Z</time></trkpt><trkpt lat="45.0417058" lon="7.5593931"><ele>290.5</ele><time>2026-04-25T09:07:31.286Z</time></trkpt><trkpt lat="45.0417562" lon="7.5595605"><ele>290.0</ele><time>2026-04-25T09:07:32.279Z</time></trkpt><trkpt lat="45.0417927" lon="7.5597427"><ele>289.5</ele><time>2026-04-25T09:07:33.277Z</time></trkpt><trkpt lat="45.0418191" lon="7.5599349"><ele>289.0</ele><time>2026-04-25T09:07:34.287Z</time></trkpt><trkpt lat="45.0418433" lon="7.5601161"><ele>289.0</ele><time>2026-04-25T09:07:35.281Z</time></trkpt><trkpt lat="45.0418678" lon="7.5602946"><ele>289.0</ele><time>2026-04-25T09:07:36.278Z</time></trkpt><trkpt lat="45.0418861" lon="7.560456"><ele>289.0</ele><time>2026-04-25T09:07:37.277Z</time></trkpt><trkpt lat="45.041893" lon="7.5605868"><ele>289.0</ele><time>2026-04-25T09:07:38.291Z</time></trkpt><trkpt lat="45.0418968" lon="7.5606913"><ele>289.0</ele><time>2026-04-25T09:07:39.28Z</time></trkpt><trkpt lat="45.0418957" lon="7.5607963"><ele>289.2</ele><time>2026-04-25T09:07:40.287Z</time></trkpt><trkpt lat="45.0418473" lon="7.5609444"><ele>289.4</ele><time>2026-04-25T09:07:42.281Z</time></trkpt><trkpt lat="45.0417985" lon="7.5610302"><ele>289.6</ele><time>2026-04-25T09:07:43.284Z</time></trkpt><trkpt lat="45.0417447" lon="7.561119"><ele>289.8</ele><time>2026-04-25T09:07:44.283Z</time></trkpt><trkpt lat="45.0417062" lon="7.5612275"><ele>290.0</ele><time>2026-04-25T09:07:45.278Z</time></trkpt><trkpt lat="45.0416947" lon="7.5613683"><ele>289.2</ele><time>2026-04-25T09:07:46.276Z</time></trkpt><trkpt lat="45.0416928" lon="7.561528"><ele>288.4</ele><time>2026-04-25T09:07:47.275Z</time></trkpt><trkpt lat="45.0417223" lon="7.5616796"><ele>287.6</ele><time>2026-04-25T09:07:48.287Z</time></trkpt><trkpt lat="45.0417271" lon="7.561815"><ele>286.8</ele><time>2026-04-25T09:07:49.275Z</time></trkpt><trkpt lat="45.0417181" lon="7.5619434"><ele>286.0</ele><time>2026-04-25T09:07:50.273Z</time></trkpt><trkpt lat="45.0416847" lon="7.5620591"><ele>285.40000000000003</ele><time>2026-04-25T09:07:51.278Z</time></trkpt><trkpt lat="45.0416293" lon="7.5621815"><ele>284.8</ele><time>2026-04-25T09:07:52.288Z</time></trkpt><trkpt lat="45.0415472" lon="7.5622724"><ele>284.20000000000005</ele><time>2026-04-25T09:07:53.291Z</time></trkpt><trkpt lat="45.0414553" lon="7.5623281"><ele>283.6</ele><time>2026-04-25T09:07:54.279Z</time></trkpt><trkpt lat="45.0413545" lon="7.5623435"><ele>283.0</ele><time>2026-04-25T09:07:55.284Z</time></trkpt><trkpt lat="45.0412527" lon="7.5623019"><ele>283.0</ele><time>2026-04-25T09:07:56.281Z</time></trkpt><trkpt lat="45.0411603" lon="7.5622295"><ele>283.0</ele><time>2026-04-25T09:07:57.281Z</time></trkpt><trkpt lat="45.0410688" lon="7.5621579"><ele>283.0</ele><time>2026-04-25T09:07:58.284Z</time></trkpt><trkpt lat="45.0409899" lon="7.5620904"><ele>283.0</ele><time>2026-04-25T09:07:59.282Z</time></trkpt><trkpt lat="45.040926" lon="7.5620318"><ele>283.0</ele><time>2026-04-25T09:08:00.275Z</time></trkpt><trkpt lat="45.0408394" lon="7.5619271"><ele>283.5</ele><time>2026-04-25T09:08:02.278Z</time></trkpt><trkpt lat="45.040786" lon="7.5618559"><ele>284.0</ele><time>2026-04-25T09:08:03.273Z</time></trkpt><trkpt lat="45.0407139" lon="7.5617808"><ele>284.5</ele><time>2026-04-25T09:08:04.271Z</time></trkpt><trkpt lat="45.0406319" lon="7.5617477"><ele>285.0</ele><time>2026-04-25T09:08:05.267Z</time></trkpt><trkpt lat="45.0405369" lon="7.5617337"><ele>285.5</ele><time>2026-04-25T09:08:06.281Z</time></trkpt><trkpt lat="45.0404331" lon="7.561738"><ele>286.0</ele><time>2026-04-25T09:08:07.279Z</time></trkpt><trkpt lat="45.0403367" lon="7.5617386"><ele>286.0</ele><time>2026-04-25T09:08:08.269Z</time></trkpt><trkpt lat="45.0402477" lon="7.5617104"><ele>286.0</ele><time>2026-04-25T09:08:09.285Z</time></trkpt><trkpt lat="45.0401796" lon="7.5616364"><ele>286.0</ele><time>2026-04-25T09:08:10.268Z</time></trkpt><trkpt lat="45.0401225" lon="7.5615678"><ele>286.0</ele><time>2026-04-25T09:08:11.292Z</time></trkpt><trkpt lat="45.0400641" lon="7.5614315"><ele>286.0</ele><time>2026-04-25T09:08:13.294Z</time></trkpt><trkpt lat="45.0400606" lon="7.5613181"><ele>286.0</ele><time>2026-04-25T09:08:15.283Z</time></trkpt><trkpt lat="45.0400598" lon="7.5611258"><ele>286.40000000000003</ele><time>2026-04-25T09:08:17.287Z</time></trkpt><trkpt lat="45.0400814" lon="7.560985"><ele>286.8</ele><time>2026-04-25T09:08:18.286Z</time></trkpt><trkpt lat="45.0400932" lon="7.5608391"><ele>287.20000000000005</ele><time>2026-04-25T09:08:19.29Z</time></trkpt><trkpt lat="45.0401108" lon="7.5607051"><ele>287.6</ele><time>2026-04-25T09:08:20.281Z</time></trkpt><trkpt lat="45.0401309" lon="7.560579"><ele>288.0</ele><time>2026-04-25T09:08:21.283Z</time></trkpt><trkpt lat="45.0401484" lon="7.5604456"><ele>288.0</ele><time>2026-04-25T09:08:22.281Z</time></trkpt><trkpt lat="45.0401721" lon="7.5602968"><ele>288.0</ele><time>2026-04-25T09:08:23.286Z</time></trkpt><trkpt lat="45.0402057" lon="7.5601335"><ele>288.0</ele><time>2026-04-25T09:08:24.286Z</time></trkpt><trkpt lat="45.0402518" lon="7.5599733"><ele>288.0</ele><time>2026-04-25T09:08:25.286Z</time></trkpt><trkpt lat="45.0402973" lon="7.5598031"><ele>288.0</ele><time>2026-04-25T09:08:26.289Z</time></trkpt><trkpt lat="45.0403402" lon="7.5596166"><ele>288.0</ele><time>2026-04-25T09:08:27.288Z</time></trkpt><trkpt lat="45.0403943" lon="7.559404"><ele>288.0</ele><time>2026-04-25T09:08:28.288Z</time></trkpt><trkpt lat="45.0404534" lon="7.5591889"><ele>288.0</ele><time>2026-04-25T09:08:29.287Z</time></trkpt><trkpt lat="45.0405095" lon="7.5589882"><ele>288.0</ele><time>2026-04-25T09:08:30.284Z</time></trkpt><trkpt lat="45.0405687" lon="7.5587785"><ele>288.0</ele><time>2026-04-25T09:08:31.289Z</time></trkpt><trkpt lat="45.0406391" lon="7.5585585"><ele>288.0</ele><time>2026-04-25T09:08:32.288Z</time></trkpt><trkpt lat="45.0406993" lon="7.5583078"><ele>288.0</ele><time>2026-04-25T09:08:33.281Z</time></trkpt><trkpt lat="45.0407392" lon="7.5580542"><ele>288.0</ele><time>2026-04-25T09:08:34.284Z</time></trkpt><trkpt lat="45.0407838" lon="7.557777"><ele>289.0</ele><time>2026-04-25T09:08:35.279Z</time></trkpt><trkpt lat="45.0408577" lon="7.5574785"><ele>290.0</ele><time>2026-04-25T09:08:36.28Z</time></trkpt><trkpt lat="45.0409505" lon="7.557172"><ele>290.0</ele><time>2026-04-25T09:08:37.28Z</time></trkpt><trkpt lat="45.0410529" lon="7.5568264"><ele>290.0</ele><time>2026-04-25T09:08:38.279Z</time></trkpt><trkpt lat="45.0411501" lon="7.5564867"><ele>290.0</ele><time>2026-04-25T09:08:39.285Z</time></trkpt><trkpt lat="45.0412685" lon="7.556089"><ele>290.0</ele><time>2026-04-25T09:08:40.285Z</time></trkpt><trkpt lat="45.0413658" lon="7.5557177"><ele>289.5</ele><time>2026-04-25T09:08:41.292Z</time></trkpt><trkpt lat="45.0414679" lon="7.5553433"><ele>289.0</ele><time>2026-04-25T09:08:42.303Z</time></trkpt><trkpt lat="45.0415702" lon="7.5549712"><ele>289.5</ele><time>2026-04-25T09:08:43.288Z</time></trkpt><trkpt lat="45.041676" lon="7.5546094"><ele>290.0</ele><time>2026-04-25T09:08:44.284Z</time></trkpt><trkpt lat="45.0417966" lon="7.5542549"><ele>290.0</ele><time>2026-04-25T09:08:45.284Z</time></trkpt><trkpt lat="45.0419376" lon="7.5539029"><ele>290.0</ele><time>2026-04-25T09:08:46.278Z</time></trkpt><trkpt lat="45.0420948" lon="7.5535646"><ele>290.5</ele><time>2026-04-25T09:08:47.283Z</time></trkpt><trkpt lat="45.0422541" lon="7.5532373"><ele>291.0</ele><time>2026-04-25T09:08:48.29Z</time></trkpt><trkpt lat="45.0424224" lon="7.5529186"><ele>293.5</ele><time>2026-04-25T09:08:49.29Z</time></trkpt><trkpt lat="45.0425925" lon="7.5525991"><ele>296.0</ele><time>2026-04-25T09:08:50.283Z</time></trkpt><trkpt lat="45.0427622" lon="7.5522845"><ele>295.0</ele><time>2026-04-25T09:08:51.284Z</time></trkpt><trkpt lat="45.0429395" lon="7.5519817"><ele>294.0</ele><time>2026-04-25T09:08:52.282Z</time></trkpt><trkpt lat="45.0431286" lon="7.5516716"><ele>294.0</ele><time>2026-04-25T09:08:53.292Z</time></trkpt><trkpt lat="45.0433226" lon="7.5513728"><ele>294.0</ele><time>2026-04-25T09:08:54.286Z</time></trkpt><trkpt lat="45.0435012" lon="7.5511176"><ele>294.5</ele><time>2026-04-25T09:08:55.282Z</time></trkpt><trkpt lat="45.0437091" lon="7.5508382"><ele>295.0</ele><time>2026-04-25T09:08:56.288Z</time></trkpt><trkpt lat="45.043924" lon="7.5505687"><ele>293.0</ele><time>2026-04-25T09:08:57.286Z</time></trkpt><trkpt lat="45.0441426" lon="7.5503118"><ele>291.0</ele><time>2026-04-25T09:08:58.282Z</time></trkpt><trkpt lat="45.044368" lon="7.5500717"><ele>291.0</ele><time>2026-04-25T09:08:59.295Z</time></trkpt><trkpt lat="45.0445869" lon="7.5498554"><ele>291.0</ele><time>2026-04-25T09:09:00.282Z</time></trkpt><trkpt lat="45.0448274" lon="7.5496205"><ele>294.0</ele><time>2026-04-25T09:09:01.288Z</time></trkpt><trkpt lat="45.0450802" lon="7.5494131"><ele>297.0</ele><time>2026-04-25T09:09:02.287Z</time></trkpt><trkpt lat="45.0453345" lon="7.549211"><ele>297.0</ele><time>2026-04-25T09:09:03.289Z</time></trkpt><trkpt lat="45.0455754" lon="7.5490124"><ele>297.0</ele><time>2026-04-25T09:09:04.281Z</time></trkpt><trkpt lat="45.0458156" lon="7.5488088"><ele>297.5</ele><time>2026-04-25T09:09:05.281Z</time></trkpt><trkpt lat="45.0460691" lon="7.5486369"><ele>298.0</ele><time>2026-04-25T09:09:06.279Z</time></trkpt><trkpt lat="45.046331" lon="7.5484762"><ele>298.0</ele><time>2026-04-25T09:09:07.278Z</time></trkpt><trkpt lat="45.0465951" lon="7.5483381"><ele>298.0</ele><time>2026-04-25T09:09:08.276Z</time></trkpt><trkpt lat="45.0468655" lon="7.5482093"><ele>297.0</ele><time>2026-04-25T09:09:09.283Z</time></trkpt><trkpt lat="45.0471337" lon="7.5480917"><ele>296.0</ele><time>2026-04-25T09:09:10.269Z</time></trkpt><trkpt lat="45.047394" lon="7.5479911"><ele>297.5</ele><time>2026-04-25T09:09:11.287Z</time></trkpt><trkpt lat="45.047652" lon="7.5479035"><ele>299.0</ele><time>2026-04-25T09:09:12.279Z</time></trkpt><trkpt lat="45.0479258" lon="7.547805"><ele>299.5</ele><time>2026-04-25T09:09:13.299Z</time></trkpt><trkpt lat="45.048185" lon="7.5477116"><ele>300.0</ele><time>2026-04-25T09:09:14.29Z</time></trkpt><trkpt lat="45.0484482" lon="7.5476166"><ele>300.5</ele><time>2026-04-25T09:09:15.283Z</time></trkpt><trkpt lat="45.0487178" lon="7.5475216"><ele>301.0</ele><time>2026-04-25T09:09:16.281Z</time></trkpt><trkpt lat="45.0489808" lon="7.5474012"><ele>301.0</ele><time>2026-04-25T09:09:17.286Z</time></trkpt><trkpt lat="45.0492415" lon="7.5472946"><ele>301.0</ele><time>2026-04-25T09:09:18.288Z</time></trkpt><trkpt lat="45.0495289" lon="7.5471873"><ele>301.0</ele><time>2026-04-25T09:09:19.291Z</time></trkpt><trkpt lat="45.0498016" lon="7.5470942"><ele>301.0</ele><time>2026-04-25T09:09:20.28Z</time></trkpt><trkpt lat="45.0500854" lon="7.5470255"><ele>302.5</ele><time>2026-04-25T09:09:21.288Z</time></trkpt><trkpt lat="45.0503578" lon="7.546938"><ele>304.0</ele><time>2026-04-25T09:09:22.289Z</time></trkpt><trkpt lat="45.0506317" lon="7.5468454"><ele>304.5</ele><time>2026-04-25T09:09:23.29Z</time></trkpt><trkpt lat="45.0509022" lon="7.5467333"><ele>305.0</ele><time>2026-04-25T09:09:24.285Z</time></trkpt><trkpt lat="45.0511809" lon="7.546638"><ele>305.0</ele><time>2026-04-25T09:09:25.289Z</time></trkpt><trkpt lat="45.0514621" lon="7.5465364"><ele>305.0</ele><time>2026-04-25T09:09:26.288Z</time></trkpt><trkpt lat="45.0517418" lon="7.5464379"><ele>306.5</ele><time>2026-04-25T09:09:27.288Z</time></trkpt><trkpt lat="45.0520343" lon="7.5463215"><ele>308.0</ele><time>2026-04-25T09:09:28.285Z</time></trkpt><trkpt lat="45.0523181" lon="7.5462321"><ele>307.5</ele><time>2026-04-25T09:09:29.293Z</time></trkpt><trkpt lat="45.0526147" lon="7.5461429"><ele>307.0</ele><time>2026-04-25T09:09:30.289Z</time></trkpt><trkpt lat="45.0528976" lon="7.5460658"><ele>307.0</ele><time>2026-04-25T09:09:31.289Z</time></trkpt><trkpt lat="45.0531725" lon="7.5459598"><ele>307.0</ele><time>2026-04-25T09:09:32.292Z</time></trkpt><trkpt lat="45.053456" lon="7.5458494"><ele>307.5</ele><time>2026-04-25T09:09:33.29Z</time></trkpt><trkpt lat="45.0537499" lon="7.5457568"><ele>308.0</ele><time>2026-04-25T09:09:34.287Z</time></trkpt><trkpt lat="45.0540254" lon="7.5456576"><ele>308.0</ele><time>2026-04-25T09:09:35.285Z</time></trkpt><trkpt lat="45.0543029" lon="7.5455439"><ele>308.0</ele><time>2026-04-25T09:09:36.285Z</time></trkpt><trkpt lat="45.0545822" lon="7.5454612"><ele>308.0</ele><time>2026-04-25T09:09:37.285Z</time></trkpt><trkpt lat="45.0548564" lon="7.5453899"><ele>308.0</ele><time>2026-04-25T09:09:38.283Z</time></trkpt><trkpt lat="45.0551292" lon="7.5452943"><ele>308.0</ele><time>2026-04-25T09:09:39.283Z</time></trkpt><trkpt lat="45.0554007" lon="7.5452061"><ele>308.0</ele><time>2026-04-25T09:09:40.286Z</time></trkpt><trkpt lat="45.0556644" lon="7.5451167"><ele>307.5</ele><time>2026-04-25T09:09:41.285Z</time></trkpt><trkpt lat="45.0559247" lon="7.5450223"><ele>307.0</ele><time>2026-04-25T09:09:42.281Z</time></trkpt><trkpt lat="45.0561995" lon="7.5449238"><ele>307.0</ele><time>2026-04-25T09:09:43.278Z</time></trkpt><trkpt lat="45.0564891" lon="7.5448252"><ele>307.0</ele><time>2026-04-25T09:09:44.299Z</time></trkpt><trkpt lat="45.0567833" lon="7.5447061"><ele>308.0</ele><time>2026-04-25T09:09:45.285Z</time></trkpt><trkpt lat="45.0570708" lon="7.5445846"><ele>309.0</ele><time>2026-04-25T09:09:46.283Z</time></trkpt><trkpt lat="45.0573485" lon="7.5444974"><ele>310.0</ele><time>2026-04-25T09:09:47.289Z</time></trkpt><trkpt lat="45.0576268" lon="7.5444133"><ele>311.0</ele><time>2026-04-25T09:09:48.285Z</time></trkpt><trkpt lat="45.0579084" lon="7.5443068"><ele>311.0</ele><time>2026-04-25T09:09:49.29Z</time></trkpt><trkpt lat="45.0581899" lon="7.5442043"><ele>311.0</ele><time>2026-04-25T09:09:50.276Z</time></trkpt><trkpt lat="45.0584892" lon="7.5441202"><ele>311.0</ele><time>2026-04-25T09:09:51.281Z</time></trkpt><trkpt lat="45.058784" lon="7.5440261"><ele>311.0</ele><time>2026-04-25T09:09:52.28Z</time></trkpt><trkpt lat="45.0590629" lon="7.5439315"><ele>311.0</ele><time>2026-04-25T09:09:53.294Z</time></trkpt><trkpt lat="45.0593501" lon="7.5438221"><ele>311.0</ele><time>2026-04-25T09:09:54.291Z</time></trkpt><trkpt lat="45.0596284" lon="7.5437266"><ele>312.5</ele><time>2026-04-25T09:09:55.285Z</time></trkpt><trkpt lat="45.0599262" lon="7.5436256"><ele>314.0</ele><time>2026-04-25T09:09:56.288Z</time></trkpt><trkpt lat="45.0602158" lon="7.5435551"><ele>314.0</ele><time>2026-04-25T09:09:57.283Z</time></trkpt><trkpt lat="45.0605066" lon="7.5434856"><ele>314.0</ele><time>2026-04-25T09:09:58.282Z</time></trkpt><trkpt lat="45.0607946" lon="7.5434447"><ele>313.5</ele><time>2026-04-25T09:09:59.285Z</time></trkpt><trkpt lat="45.0610854" lon="7.5433911"><ele>313.0</ele><time>2026-04-25T09:10:00.276Z</time></trkpt><trkpt lat="45.0613907" lon="7.5433574"><ele>313.5</ele><time>2026-04-25T09:10:01.276Z</time></trkpt><trkpt lat="45.061693" lon="7.5433634"><ele>314.0</ele><time>2026-04-25T09:10:02.282Z</time></trkpt><trkpt lat="45.061987" lon="7.5433943"><ele>314.0</ele><time>2026-04-25T09:10:03.277Z</time></trkpt><trkpt lat="45.0622834" lon="7.5434325"><ele>314.0</ele><time>2026-04-25T09:10:04.265Z</time></trkpt><trkpt lat="45.0625656" lon="7.5435001"><ele>313.0</ele><time>2026-04-25T09:10:05.273Z</time></trkpt><trkpt lat="45.0628547" lon="7.5435608"><ele>312.0</ele><time>2026-04-25T09:10:06.279Z</time></trkpt><trkpt lat="45.0631409" lon="7.5436328"><ele>313.5</ele><time>2026-04-25T09:10:07.273Z</time></trkpt><trkpt lat="45.0634262" lon="7.5437194"><ele>315.0</ele><time>2026-04-25T09:10:08.281Z</time></trkpt><trkpt lat="45.063714" lon="7.5438259"><ele>315.0</ele><time>2026-04-25T09:10:09.282Z</time></trkpt><trkpt lat="45.0640162" lon="7.5439195"><ele>315.0</ele><time>2026-04-25T09:10:10.276Z</time></trkpt><trkpt lat="45.064318" lon="7.5440066"><ele>316.0</ele><time>2026-04-25T09:10:11.267Z</time></trkpt><trkpt lat="45.0645962" lon="7.5440971"><ele>317.0</ele><time>2026-04-25T09:10:12.265Z</time></trkpt><trkpt lat="45.0648891" lon="7.5441737"><ele>317.5</ele><time>2026-04-25T09:10:13.265Z</time></trkpt><trkpt lat="45.0651789" lon="7.5442572"><ele>318.0</ele><time>2026-04-25T09:10:14.276Z</time></trkpt><trkpt lat="45.0654589" lon="7.5443598"><ele>318.0</ele><time>2026-04-25T09:10:15.301Z</time></trkpt><trkpt lat="45.0657376" lon="7.5444487"><ele>318.0</ele><time>2026-04-25T09:10:16.281Z</time></trkpt><trkpt lat="45.066016" lon="7.5445432"><ele>317.5</ele><time>2026-04-25T09:10:17.279Z</time></trkpt><trkpt lat="45.0662876" lon="7.5446246"><ele>317.0</ele><time>2026-04-25T09:10:18.279Z</time></trkpt><trkpt lat="45.0665521" lon="7.5447127"><ele>318.0</ele><time>2026-04-25T09:10:19.283Z</time></trkpt><trkpt lat="45.066811" lon="7.5448073"><ele>319.0</ele><time>2026-04-25T09:10:20.277Z</time></trkpt><trkpt lat="45.0670816" lon="7.5448885"><ele>319.0</ele><time>2026-04-25T09:10:21.275Z</time></trkpt><trkpt lat="45.0673455" lon="7.5449703"><ele>319.0</ele><time>2026-04-25T09:10:22.276Z</time></trkpt><trkpt lat="45.0676145" lon="7.5450512"><ele>319.0</ele><time>2026-04-25T09:10:23.275Z</time></trkpt><trkpt lat="45.0678844" lon="7.5451393"><ele>319.0</ele><time>2026-04-25T09:10:24.273Z</time></trkpt><trkpt lat="45.0681572" lon="7.5452171"><ele>320.5</ele><time>2026-04-25T09:10:25.277Z</time></trkpt><trkpt lat="45.0684383" lon="7.545285"><ele>322.0</ele><time>2026-04-25T09:10:26.276Z</time></trkpt><trkpt lat="45.0686991" lon="7.5453537"><ele>321.5</ele><time>2026-04-25T09:10:27.281Z</time></trkpt><trkpt lat="45.0689833" lon="7.5454517"><ele>321.0</ele><time>2026-04-25T09:10:28.278Z</time></trkpt><trkpt lat="45.0692553" lon="7.5455415"><ele>322.0</ele><time>2026-04-25T09:10:29.279Z</time></trkpt><trkpt lat="45.0695287" lon="7.5456238"><ele>323.0</ele><time>2026-04-25T09:10:30.283Z</time></trkpt><trkpt lat="45.0698325" lon="7.5457004"><ele>324.0</ele><time>2026-04-25T09:10:31.279Z</time></trkpt><trkpt lat="45.0701211" lon="7.5457761"><ele>325.0</ele><time>2026-04-25T09:10:32.278Z</time></trkpt><trkpt lat="45.0703956" lon="7.5458599"><ele>325.0</ele><time>2026-04-25T09:10:33.28Z</time></trkpt><trkpt lat="45.0706653" lon="7.5459723"><ele>325.0</ele><time>2026-04-25T09:10:34.282Z</time></trkpt><trkpt lat="45.0709347" lon="7.5460615"><ele>325.0</ele><time>2026-04-25T09:10:35.276Z</time></trkpt><trkpt lat="45.0712114" lon="7.5461327"><ele>325.0</ele><time>2026-04-25T09:10:36.282Z</time></trkpt><trkpt lat="45.0714874" lon="7.5462116"><ele>324.5</ele><time>2026-04-25T09:10:37.285Z</time></trkpt><trkpt lat="45.0717522" lon="7.5462911"><ele>324.0</ele><time>2026-04-25T09:10:38.28Z</time></trkpt><trkpt lat="45.0720092" lon="7.5463856"><ele>324.0</ele><time>2026-04-25T09:10:39.276Z</time></trkpt><trkpt lat="45.0722739" lon="7.5464735"><ele>324.0</ele><time>2026-04-25T09:10:40.279Z</time></trkpt><trkpt lat="45.0725479" lon="7.5465678"><ele>323.5</ele><time>2026-04-25T09:10:41.277Z</time></trkpt><trkpt lat="45.0728233" lon="7.5466497"><ele>323.0</ele><time>2026-04-25T09:10:42.277Z</time></trkpt><trkpt lat="45.0731005" lon="7.5467271"><ele>324.5</ele><time>2026-04-25T09:10:43.276Z</time></trkpt><trkpt lat="45.0733742" lon="7.5467886"><ele>326.0</ele><time>2026-04-25T09:10:44.28Z</time></trkpt><trkpt lat="45.0736381" lon="7.5468952"><ele>326.0</ele><time>2026-04-25T09:10:45.29Z</time></trkpt><trkpt lat="45.0739084" lon="7.5469871"><ele>326.0</ele><time>2026-04-25T09:10:46.276Z</time></trkpt><trkpt lat="45.0741846" lon="7.5470578"><ele>324.0</ele><time>2026-04-25T09:10:47.285Z</time></trkpt><trkpt lat="45.0744442" lon="7.5471442"><ele>322.0</ele><time>2026-04-25T09:10:48.275Z</time></trkpt><trkpt lat="45.0747023" lon="7.5472293"><ele>323.0</ele><time>2026-04-25T09:10:49.285Z</time></trkpt><trkpt lat="45.0749565" lon="7.5473121"><ele>324.0</ele><time>2026-04-25T09:10:50.276Z</time></trkpt><trkpt lat="45.0752302" lon="7.5473654"><ele>324.0</ele><time>2026-04-25T09:10:51.275Z</time></trkpt><trkpt lat="45.0754928" lon="7.5474503"><ele>324.0</ele><time>2026-04-25T09:10:52.271Z</time></trkpt><trkpt lat="45.0757625" lon="7.5475351"><ele>326.0</ele><time>2026-04-25T09:10:53.266Z</time></trkpt><trkpt lat="45.0760505" lon="7.5476163"><ele>328.0</ele><time>2026-04-25T09:10:54.269Z</time></trkpt><trkpt lat="45.076308" lon="7.5477103"><ele>328.0</ele><time>2026-04-25T09:10:55.263Z</time></trkpt><trkpt lat="45.0765787" lon="7.5478067"><ele>328.0</ele><time>2026-04-25T09:10:56.264Z</time></trkpt><trkpt lat="45.0768365" lon="7.5479009"><ele>326.0</ele><time>2026-04-25T09:10:57.272Z</time></trkpt><trkpt lat="45.0770944" lon="7.5479799"><ele>324.0</ele><time>2026-04-25T09:10:58.271Z</time></trkpt><trkpt lat="45.0773367" lon="7.548042"><ele>323.5</ele><time>2026-04-25T09:10:59.272Z</time></trkpt><trkpt lat="45.0776038" lon="7.5481339"><ele>323.0</ele><time>2026-04-25T09:11:00.269Z</time></trkpt><trkpt lat="45.0778739" lon="7.5482191"><ele>323.0</ele><time>2026-04-25T09:11:01.271Z</time></trkpt><trkpt lat="45.0781311" lon="7.5482881"><ele>323.0</ele><time>2026-04-25T09:11:02.274Z</time></trkpt><trkpt lat="45.0783874" lon="7.5483684"><ele>323.5</ele><time>2026-04-25T09:11:03.273Z</time></trkpt><trkpt lat="45.0786472" lon="7.5484627"><ele>324.0</ele><time>2026-04-25T09:11:04.263Z</time></trkpt><trkpt lat="45.0788982" lon="7.5485463"><ele>323.5</ele><time>2026-04-25T09:11:05.275Z</time></trkpt><trkpt lat="45.0791684" lon="7.5486242"><ele>323.0</ele><time>2026-04-25T09:11:06.271Z</time></trkpt><trkpt lat="45.0794222" lon="7.5487086"><ele>322.0</ele><time>2026-04-25T09:11:07.273Z</time></trkpt><trkpt lat="45.0796625" lon="7.5488183"><ele>321.0</ele><time>2026-04-25T09:11:08.273Z</time></trkpt><trkpt lat="45.079889" lon="7.5489959"><ele>320.0</ele><time>2026-04-25T09:11:09.263Z</time></trkpt><trkpt lat="45.0801206" lon="7.5491676"><ele>319.0</ele><time>2026-04-25T09:11:10.26Z</time></trkpt><trkpt lat="45.0803468" lon="7.5493521"><ele>317.5</ele><time>2026-04-25T09:11:11.267Z</time></trkpt><trkpt lat="45.0805537" lon="7.5496092"><ele>316.0</ele><time>2026-04-25T09:11:12.271Z</time></trkpt><trkpt lat="45.0807338" lon="7.5498968"><ele>315.5</ele><time>2026-04-25T09:11:13.268Z</time></trkpt><trkpt lat="45.0809202" lon="7.5501907"><ele>315.0</ele><time>2026-04-25T09:11:14.267Z</time></trkpt><trkpt lat="45.0810544" lon="7.5505338"><ele>315.0</ele><time>2026-04-25T09:11:15.261Z</time></trkpt><trkpt lat="45.0811679" lon="7.5508907"><ele>315.0</ele><time>2026-04-25T09:11:16.28Z</time></trkpt><trkpt lat="45.0812558" lon="7.5512689"><ele>313.5</ele><time>2026-04-25T09:11:17.266Z</time></trkpt><trkpt lat="45.0813329" lon="7.5516643"><ele>312.0</ele><time>2026-04-25T09:11:18.27Z</time></trkpt><trkpt lat="45.0814352" lon="7.5520551"><ele>310.5</ele><time>2026-04-25T09:11:19.269Z</time></trkpt><trkpt lat="45.0815391" lon="7.5524453"><ele>309.0</ele><time>2026-04-25T09:11:20.262Z</time></trkpt><trkpt lat="45.0816605" lon="7.5528233"><ele>312.5</ele><time>2026-04-25T09:11:21.267Z</time></trkpt><trkpt lat="45.0817755" lon="7.553193"><ele>316.0</ele><time>2026-04-25T09:11:22.261Z</time></trkpt><trkpt lat="45.0818884" lon="7.5535553"><ele>315.5</ele><time>2026-04-25T09:11:23.275Z</time></trkpt><trkpt lat="45.0820087" lon="7.5539166"><ele>315.0</ele><time>2026-04-25T09:11:24.278Z</time></trkpt><trkpt lat="45.0821344" lon="7.554273"><ele>315.0</ele><time>2026-04-25T09:11:25.277Z</time></trkpt><trkpt lat="45.0822786" lon="7.5546111"><ele>315.0</ele><time>2026-04-25T09:11:26.273Z</time></trkpt><trkpt lat="45.0824228" lon="7.5549512"><ele>316.0</ele><time>2026-04-25T09:11:27.278Z</time></trkpt><trkpt lat="45.0825905" lon="7.5552792"><ele>317.0</ele><time>2026-04-25T09:11:28.28Z</time></trkpt><trkpt lat="45.0827564" lon="7.5556024"><ele>317.0</ele><time>2026-04-25T09:11:29.28Z</time></trkpt><trkpt lat="45.0829291" lon="7.5559059"><ele>317.0</ele><time>2026-04-25T09:11:30.279Z</time></trkpt><trkpt lat="45.0831061" lon="7.5562142"><ele>316.0</ele><time>2026-04-25T09:11:31.275Z</time></trkpt><trkpt lat="45.0832995" lon="7.5565211"><ele>315.0</ele><time>2026-04-25T09:11:32.274Z</time></trkpt><trkpt lat="45.0834938" lon="7.5568272"><ele>314.0</ele><time>2026-04-25T09:11:33.277Z</time></trkpt><trkpt lat="45.0836962" lon="7.5571222"><ele>313.0</ele><time>2026-04-25T09:11:34.278Z</time></trkpt><trkpt lat="45.0839066" lon="7.5574038"><ele>313.0</ele><time>2026-04-25T09:11:35.265Z</time></trkpt><trkpt lat="45.0841177" lon="7.5576811"><ele>313.0</ele><time>2026-04-25T09:11:36.28Z</time></trkpt><trkpt lat="45.0843233" lon="7.5579333"><ele>313.0</ele><time>2026-04-25T09:11:37.276Z</time></trkpt><trkpt lat="45.0845497" lon="7.558187"><ele>313.0</ele><time>2026-04-25T09:11:38.276Z</time></trkpt><trkpt lat="45.0847807" lon="7.5584703"><ele>314.0</ele><time>2026-04-25T09:11:39.28Z</time></trkpt><trkpt lat="45.085014" lon="7.5587614"><ele>315.0</ele><time>2026-04-25T09:11:40.278Z</time></trkpt><trkpt lat="45.0852569" lon="7.5590639"><ele>315.0</ele><time>2026-04-25T09:11:41.278Z</time></trkpt><trkpt lat="45.0855001" lon="7.5593711"><ele>315.0</ele><time>2026-04-25T09:11:42.281Z</time></trkpt><trkpt lat="45.0857396" lon="7.559686"><ele>313.0</ele><time>2026-04-25T09:11:43.274Z</time></trkpt><trkpt lat="45.085973" lon="7.5599867"><ele>311.0</ele><time>2026-04-25T09:11:44.275Z</time></trkpt><trkpt lat="45.0862047" lon="7.5602764"><ele>312.0</ele><time>2026-04-25T09:11:45.276Z</time></trkpt><trkpt lat="45.0864496" lon="7.5605554"><ele>313.0</ele><time>2026-04-25T09:11:46.276Z</time></trkpt><trkpt lat="45.0866744" lon="7.5608524"><ele>309.5</ele><time>2026-04-25T09:11:47.289Z</time></trkpt><trkpt lat="45.0868938" lon="7.5611329"><ele>306.0</ele><time>2026-04-25T09:11:48.274Z</time></trkpt><trkpt lat="45.0871138" lon="7.5614169"><ele>304.0</ele><time>2026-04-25T09:11:49.272Z</time></trkpt><trkpt lat="45.0873399" lon="7.5616981"><ele>302.0</ele><time>2026-04-25T09:11:50.275Z</time></trkpt><trkpt lat="45.0875612" lon="7.5619946"><ele>299.5</ele><time>2026-04-25T09:11:51.273Z</time></trkpt><trkpt lat="45.0877816" lon="7.5622959"><ele>297.0</ele><time>2026-04-25T09:11:52.274Z</time></trkpt><trkpt lat="45.0880078" lon="7.5625907"><ele>296.0</ele><time>2026-04-25T09:11:53.272Z</time></trkpt><trkpt lat="45.088243" lon="7.5628828"><ele>295.0</ele><time>2026-04-25T09:11:54.277Z</time></trkpt><trkpt lat="45.0884894" lon="7.5631819"><ele>294.0</ele><time>2026-04-25T09:11:55.279Z</time></trkpt><trkpt lat="45.0887283" lon="7.5634726"><ele>293.0</ele><time>2026-04-25T09:11:56.276Z</time></trkpt><trkpt lat="45.0889641" lon="7.5637684"><ele>293.5</ele><time>2026-04-25T09:11:57.279Z</time></trkpt><trkpt lat="45.0891848" lon="7.5640724"><ele>294.0</ele><time>2026-04-25T09:11:58.279Z</time></trkpt><trkpt lat="45.0894175" lon="7.5643653"><ele>293.0</ele><time>2026-04-25T09:11:59.285Z</time></trkpt><trkpt lat="45.0896422" lon="7.5646427"><ele>292.0</ele><time>2026-04-25T09:12:00.275Z</time></trkpt><trkpt lat="45.0898702" lon="7.5649246"><ele>292.0</ele><time>2026-04-25T09:12:01.284Z</time></trkpt><trkpt lat="45.0900904" lon="7.5652049"><ele>292.0</ele><time>2026-04-25T09:12:02.274Z</time></trkpt><trkpt lat="45.0903145" lon="7.5654931"><ele>292.0</ele><time>2026-04-25T09:12:03.274Z</time></trkpt><trkpt lat="45.0905386" lon="7.5657781"><ele>292.0</ele><time>2026-04-25T09:12:04.275Z</time></trkpt><trkpt lat="45.0907739" lon="7.5660764"><ele>293.5</ele><time>2026-04-25T09:12:05.276Z</time></trkpt><trkpt lat="45.0910122" lon="7.5663617"><ele>295.0</ele><time>2026-04-25T09:12:06.26Z</time></trkpt><trkpt lat="45.091255" lon="7.5666759"><ele>295.0</ele><time>2026-04-25T09:12:07.277Z</time></trkpt><trkpt lat="45.0914967" lon="7.5669834"><ele>295.0</ele><time>2026-04-25T09:12:08.271Z</time></trkpt><trkpt lat="45.0917326" lon="7.5672959"><ele>296.0</ele><time>2026-04-25T09:12:09.272Z</time></trkpt><trkpt lat="45.0919454" lon="7.5676172"><ele>297.0</ele><time>2026-04-25T09:12:10.27Z</time></trkpt><trkpt lat="45.09218" lon="7.5679193"><ele>298.0</ele><time>2026-04-25T09:12:11.265Z</time></trkpt><trkpt lat="45.0923929" lon="7.5682118"><ele>299.0</ele><time>2026-04-25T09:12:12.265Z</time></trkpt><trkpt lat="45.0926042" lon="7.568484"><ele>298.5</ele><time>2026-04-25T09:12:13.272Z</time></trkpt><trkpt lat="45.0928415" lon="7.5687525"><ele>298.0</ele><time>2026-04-25T09:12:14.272Z</time></trkpt><trkpt lat="45.0930644" lon="7.5690189"><ele>299.5</ele><time>2026-04-25T09:12:15.27Z</time></trkpt><trkpt lat="45.0932754" lon="7.5692869"><ele>301.0</ele><time>2026-04-25T09:12:16.275Z</time></trkpt><trkpt lat="45.0935016" lon="7.5695579"><ele>301.0</ele><time>2026-04-25T09:12:17.272Z</time></trkpt><trkpt lat="45.0937186" lon="7.5698388"><ele>301.0</ele><time>2026-04-25T09:12:18.283Z</time></trkpt><trkpt lat="45.0939387" lon="7.5701291"><ele>300.0</ele><time>2026-04-25T09:12:19.277Z</time></trkpt><trkpt lat="45.0941634" lon="7.5704135"><ele>299.0</ele><time>2026-04-25T09:12:20.276Z</time></trkpt><trkpt lat="45.0943912" lon="7.5706918"><ele>299.0</ele><time>2026-04-25T09:12:21.277Z</time></trkpt><trkpt lat="45.0946182" lon="7.5709763"><ele>299.0</ele><time>2026-04-25T09:12:22.272Z</time></trkpt><trkpt lat="45.0948424" lon="7.5712603"><ele>298.0</ele><time>2026-04-25T09:12:23.276Z</time></trkpt><trkpt lat="45.0950702" lon="7.5715394"><ele>297.0</ele><time>2026-04-25T09:12:24.274Z</time></trkpt><trkpt lat="45.0952947" lon="7.5717983"><ele>296.5</ele><time>2026-04-25T09:12:25.272Z</time></trkpt><trkpt lat="45.0955178" lon="7.5720858"><ele>296.0</ele><time>2026-04-25T09:12:26.272Z</time></trkpt><trkpt lat="45.0957408" lon="7.5723514"><ele>296.5</ele><time>2026-04-25T09:12:27.271Z</time></trkpt><trkpt lat="45.0959604" lon="7.5726351"><ele>297.0</ele><time>2026-04-25T09:12:28.274Z</time></trkpt><trkpt lat="45.0961721" lon="7.572916"><ele>297.0</ele><time>2026-04-25T09:12:29.273Z</time></trkpt><trkpt lat="45.0963616" lon="7.5732132"><ele>297.0</ele><time>2026-04-25T09:12:30.264Z</time></trkpt><trkpt lat="45.0965486" lon="7.5735074"><ele>296.5</ele><time>2026-04-25T09:12:31.27Z</time></trkpt><trkpt lat="45.0967326" lon="7.5738134"><ele>296.0</ele><time>2026-04-25T09:12:32.262Z</time></trkpt><trkpt lat="45.096913" lon="7.5741363"><ele>296.0</ele><time>2026-04-25T09:12:33.265Z</time></trkpt><trkpt lat="45.0970898" lon="7.5744437"><ele>296.0</ele><time>2026-04-25T09:12:34.262Z</time></trkpt><trkpt lat="45.0972712" lon="7.5747459"><ele>296.0</ele><time>2026-04-25T09:12:35.274Z</time></trkpt><trkpt lat="45.0974511" lon="7.5750575"><ele>296.0</ele><time>2026-04-25T09:12:36.274Z</time></trkpt><trkpt lat="45.0976028" lon="7.5753915"><ele>296.0</ele><time>2026-04-25T09:12:37.268Z</time></trkpt><trkpt lat="45.0977706" lon="7.5757395"><ele>296.0</ele><time>2026-04-25T09:12:38.275Z</time></trkpt><trkpt lat="45.0979076" lon="7.5761006"><ele>295.0</ele><time>2026-04-25T09:12:39.273Z</time></trkpt><trkpt lat="45.0980494" lon="7.5764569"><ele>294.0</ele><time>2026-04-25T09:12:40.28Z</time></trkpt><trkpt lat="45.0981777" lon="7.5768557"><ele>294.5</ele><time>2026-04-25T09:12:41.28Z</time></trkpt><trkpt lat="45.0982902" lon="7.5772431"><ele>295.0</ele><time>2026-04-25T09:12:42.278Z</time></trkpt><trkpt lat="45.0984067" lon="7.5776233"><ele>294.5</ele><time>2026-04-25T09:12:43.276Z</time></trkpt><trkpt lat="45.0985258" lon="7.5779913"><ele>294.0</ele><time>2026-04-25T09:12:44.283Z</time></trkpt><trkpt lat="45.09864" lon="7.5783474"><ele>293.0</ele><time>2026-04-25T09:12:45.287Z</time></trkpt><trkpt lat="45.0987422" lon="7.5787144"><ele>292.0</ele><time>2026-04-25T09:12:46.283Z</time></trkpt><trkpt lat="45.0988524" lon="7.5790744"><ele>292.0</ele><time>2026-04-25T09:12:47.287Z</time></trkpt><trkpt lat="45.0989563" lon="7.5794386"><ele>292.0</ele><time>2026-04-25T09:12:48.279Z</time></trkpt><trkpt lat="45.0990573" lon="7.5798043"><ele>292.0</ele><time>2026-04-25T09:12:49.289Z</time></trkpt><trkpt lat="45.0991605" lon="7.5801443"><ele>292.0</ele><time>2026-04-25T09:12:50.273Z</time></trkpt><trkpt lat="45.0992678" lon="7.5804775"><ele>291.0</ele><time>2026-04-25T09:12:51.274Z</time></trkpt><trkpt lat="45.0993702" lon="7.5808064"><ele>290.0</ele><time>2026-04-25T09:12:52.271Z</time></trkpt><trkpt lat="45.0994556" lon="7.5811498"><ele>289.0</ele><time>2026-04-25T09:12:53.278Z</time></trkpt><trkpt lat="45.0995448" lon="7.5814802"><ele>288.0</ele><time>2026-04-25T09:12:54.275Z</time></trkpt><trkpt lat="45.0996244" lon="7.581805"><ele>288.5</ele><time>2026-04-25T09:12:55.276Z</time></trkpt><trkpt lat="45.0997134" lon="7.5821214"><ele>289.0</ele><time>2026-04-25T09:12:56.275Z</time></trkpt><trkpt lat="45.0997989" lon="7.5824497"><ele>289.0</ele><time>2026-04-25T09:12:57.283Z</time></trkpt><trkpt lat="45.0998906" lon="7.5827781"><ele>289.0</ele><time>2026-04-25T09:12:58.271Z</time></trkpt><trkpt lat="45.0999868" lon="7.5831133"><ele>288.5</ele><time>2026-04-25T09:12:59.282Z</time></trkpt><trkpt lat="45.10007" lon="7.5834507"><ele>288.0</ele><time>2026-04-25T09:13:00.276Z</time></trkpt><trkpt lat="45.100155" lon="7.5837687"><ele>287.0</ele><time>2026-04-25T09:13:01.274Z</time></trkpt><trkpt lat="45.1002424" lon="7.584078"><ele>286.0</ele><time>2026-04-25T09:13:02.276Z</time></trkpt><trkpt lat="45.1003359" lon="7.5843984"><ele>286.5</ele><time>2026-04-25T09:13:03.278Z</time></trkpt><trkpt lat="45.1004334" lon="7.5847148"><ele>287.0</ele><time>2026-04-25T09:13:04.274Z</time></trkpt><trkpt lat="45.1005278" lon="7.5850396"><ele>287.5</ele><time>2026-04-25T09:13:05.269Z</time></trkpt><trkpt lat="45.1006326" lon="7.5853814"><ele>288.0</ele><time>2026-04-25T09:13:06.279Z</time></trkpt><trkpt lat="45.10073" lon="7.5857395"><ele>287.5</ele><time>2026-04-25T09:13:07.273Z</time></trkpt><trkpt lat="45.1008313" lon="7.5860944"><ele>287.0</ele><time>2026-04-25T09:13:08.263Z</time></trkpt><trkpt lat="45.1009237" lon="7.5864589"><ele>287.0</ele><time>2026-04-25T09:13:09.281Z</time></trkpt><trkpt lat="45.1010164" lon="7.5868176"><ele>287.0</ele><time>2026-04-25T09:13:10.272Z</time></trkpt><trkpt lat="45.1011066" lon="7.5871954"><ele>286.5</ele><time>2026-04-25T09:13:11.278Z</time></trkpt><trkpt lat="45.1012052" lon="7.5875487"><ele>286.0</ele><time>2026-04-25T09:13:12.278Z</time></trkpt><trkpt lat="45.1012984" lon="7.5878965"><ele>286.0</ele><time>2026-04-25T09:13:13.281Z</time></trkpt><trkpt lat="45.1013917" lon="7.5882518"><ele>286.0</ele><time>2026-04-25T09:13:14.275Z</time></trkpt><trkpt lat="45.1014975" lon="7.588599"><ele>285.0</ele><time>2026-04-25T09:13:15.277Z</time></trkpt><trkpt lat="45.101585" lon="7.588964"><ele>284.0</ele><time>2026-04-25T09:13:16.285Z</time></trkpt><trkpt lat="45.1016909" lon="7.5893114"><ele>283.0</ele><time>2026-04-25T09:13:17.281Z</time></trkpt><trkpt lat="45.1017874" lon="7.5896816"><ele>282.0</ele><time>2026-04-25T09:13:18.285Z</time></trkpt><trkpt lat="45.1018832" lon="7.5900602"><ele>283.5</ele><time>2026-04-25T09:13:19.273Z</time></trkpt><trkpt lat="45.1019875" lon="7.5904391"><ele>285.0</ele><time>2026-04-25T09:13:20.289Z</time></trkpt><trkpt lat="45.1020868" lon="7.5908107"><ele>286.0</ele><time>2026-04-25T09:13:21.269Z</time></trkpt><trkpt lat="45.1021884" lon="7.5911876"><ele>287.0</ele><time>2026-04-25T09:13:22.275Z</time></trkpt><trkpt lat="45.1022966" lon="7.5915624"><ele>287.0</ele><time>2026-04-25T09:13:23.275Z</time></trkpt><trkpt lat="45.1024037" lon="7.5919274"><ele>287.0</ele><time>2026-04-25T09:13:24.273Z</time></trkpt><trkpt lat="45.102522" lon="7.5922948"><ele>285.0</ele><time>2026-04-25T09:13:25.269Z</time></trkpt><trkpt lat="45.1026303" lon="7.592685"><ele>283.0</ele><time>2026-04-25T09:13:26.275Z</time></trkpt><trkpt lat="45.1027325" lon="7.5930697"><ele>283.0</ele><time>2026-04-25T09:13:27.28Z</time></trkpt><trkpt lat="45.1028362" lon="7.5934338"><ele>283.0</ele><time>2026-04-25T09:13:28.273Z</time></trkpt><trkpt lat="45.1029259" lon="7.5937721"><ele>283.0</ele><time>2026-04-25T09:13:29.271Z</time></trkpt><trkpt lat="45.1030129" lon="7.5941121"><ele>283.0</ele><time>2026-04-25T09:13:30.274Z</time></trkpt><trkpt lat="45.1031054" lon="7.5944528"><ele>282.5</ele><time>2026-04-25T09:13:31.274Z</time></trkpt><trkpt lat="45.103202" lon="7.5948071"><ele>282.0</ele><time>2026-04-25T09:13:32.282Z</time></trkpt><trkpt lat="45.1032996" lon="7.5951598"><ele>282.5</ele><time>2026-04-25T09:13:33.273Z</time></trkpt><trkpt lat="45.1034023" lon="7.5955062"><ele>283.0</ele><time>2026-04-25T09:13:34.275Z</time></trkpt><trkpt lat="45.1035069" lon="7.5958537"><ele>282.5</ele><time>2026-04-25T09:13:35.276Z</time></trkpt><trkpt lat="45.103613" lon="7.5962173"><ele>282.0</ele><time>2026-04-25T09:13:36.274Z</time></trkpt><trkpt lat="45.1037069" lon="7.5965891"><ele>282.0</ele><time>2026-04-25T09:13:37.281Z</time></trkpt><trkpt lat="45.1038118" lon="7.5969448"><ele>282.0</ele><time>2026-04-25T09:13:38.281Z</time></trkpt><trkpt lat="45.1038991" lon="7.5973202"><ele>282.0</ele><time>2026-04-25T09:13:39.274Z</time></trkpt><trkpt lat="45.1039964" lon="7.597685"><ele>282.0</ele><time>2026-04-25T09:13:40.275Z</time></trkpt><trkpt lat="45.104093" lon="7.5980584"><ele>282.0</ele><time>2026-04-25T09:13:41.276Z</time></trkpt><trkpt lat="45.104183" lon="7.5984335"><ele>282.0</ele><time>2026-04-25T09:13:42.277Z</time></trkpt><trkpt lat="45.1042822" lon="7.5987967"><ele>281.0</ele><time>2026-04-25T09:13:43.276Z</time></trkpt><trkpt lat="45.1043829" lon="7.5991556"><ele>280.0</ele><time>2026-04-25T09:13:44.278Z</time></trkpt><trkpt lat="45.1044906" lon="7.5995234"><ele>279.0</ele><time>2026-04-25T09:13:45.279Z</time></trkpt><trkpt lat="45.1045763" lon="7.5998945"><ele>278.0</ele><time>2026-04-25T09:13:46.271Z</time></trkpt><trkpt lat="45.104669" lon="7.6002542"><ele>277.5</ele><time>2026-04-25T09:13:47.271Z</time></trkpt><trkpt lat="45.1047778" lon="7.600592"><ele>277.0</ele><time>2026-04-25T09:13:48.273Z</time></trkpt><trkpt lat="45.1048638" lon="7.6009447"><ele>277.0</ele><time>2026-04-25T09:13:49.274Z</time></trkpt><trkpt lat="45.1049593" lon="7.6012987"><ele>277.0</ele><time>2026-04-25T09:13:50.271Z</time></trkpt><trkpt lat="45.1050697" lon="7.6016162"><ele>277.0</ele><time>2026-04-25T09:13:51.281Z</time></trkpt><trkpt lat="45.1051775" lon="7.6019346"><ele>277.0</ele><time>2026-04-25T09:13:52.269Z</time></trkpt><trkpt lat="45.1052725" lon="7.602267"><ele>277.0</ele><time>2026-04-25T09:13:53.273Z</time></trkpt><trkpt lat="45.1053719" lon="7.6025831"><ele>277.0</ele><time>2026-04-25T09:13:54.268Z</time></trkpt><trkpt lat="45.105476" lon="7.6029058"><ele>276.0</ele><time>2026-04-25T09:13:55.278Z</time></trkpt><trkpt lat="45.1055803" lon="7.6032257"><ele>275.0</ele><time>2026-04-25T09:13:56.277Z</time></trkpt><trkpt lat="45.1056972" lon="7.6035444"><ele>276.0</ele><time>2026-04-25T09:13:57.278Z</time></trkpt><trkpt lat="45.1058093" lon="7.6038789"><ele>277.0</ele><time>2026-04-25T09:13:58.28Z</time></trkpt><trkpt lat="45.1059273" lon="7.6041997"><ele>277.0</ele><time>2026-04-25T09:13:59.28Z</time></trkpt><trkpt lat="45.1060369" lon="7.6045435"><ele>277.0</ele><time>2026-04-25T09:14:00.275Z</time></trkpt><trkpt lat="45.1061495" lon="7.6048738"><ele>277.0</ele><time>2026-04-25T09:14:01.281Z</time></trkpt><trkpt lat="45.1062698" lon="7.6051984"><ele>277.0</ele><time>2026-04-25T09:14:02.276Z</time></trkpt><trkpt lat="45.1064002" lon="7.6055284"><ele>277.5</ele><time>2026-04-25T09:14:03.277Z</time></trkpt><trkpt lat="45.1065177" lon="7.6058756"><ele>278.0</ele><time>2026-04-25T09:14:04.28Z</time></trkpt><trkpt lat="45.1066366" lon="7.6062116"><ele>275.5</ele><time>2026-04-25T09:14:05.279Z</time></trkpt><trkpt lat="45.1067776" lon="7.60654"><ele>273.0</ele><time>2026-04-25T09:14:06.271Z</time></trkpt><trkpt lat="45.106912" lon="7.6068675"><ele>270.5</ele><time>2026-04-25T09:14:07.276Z</time></trkpt><trkpt lat="45.1070532" lon="7.6071845"><ele>268.0</ele><time>2026-04-25T09:14:08.273Z</time></trkpt><trkpt lat="45.1071889" lon="7.607501"><ele>268.0</ele><time>2026-04-25T09:14:09.269Z</time></trkpt><trkpt lat="45.1073318" lon="7.6078049"><ele>268.0</ele><time>2026-04-25T09:14:10.274Z</time></trkpt><trkpt lat="45.1074684" lon="7.6081172"><ele>270.5</ele><time>2026-04-25T09:14:11.274Z</time></trkpt><trkpt lat="45.1076023" lon="7.6084349"><ele>273.0</ele><time>2026-04-25T09:14:12.274Z</time></trkpt><trkpt lat="45.1077412" lon="7.6087423"><ele>274.0</ele><time>2026-04-25T09:14:13.268Z</time></trkpt><trkpt lat="45.1078858" lon="7.6090516"><ele>275.0</ele><time>2026-04-25T09:14:14.277Z</time></trkpt><trkpt lat="45.1080349" lon="7.6093362"><ele>274.5</ele><time>2026-04-25T09:14:15.275Z</time></trkpt><trkpt lat="45.1081895" lon="7.6096244"><ele>274.0</ele><time>2026-04-25T09:14:16.276Z</time></trkpt><trkpt lat="45.1083372" lon="7.6099317"><ele>273.5</ele><time>2026-04-25T09:14:17.274Z</time></trkpt><trkpt lat="45.1084867" lon="7.6102401"><ele>273.0</ele><time>2026-04-25T09:14:18.275Z</time></trkpt><trkpt lat="45.1086381" lon="7.6105689"><ele>273.0</ele><time>2026-04-25T09:14:19.276Z</time></trkpt><trkpt lat="45.10879" lon="7.610894"><ele>273.0</ele><time>2026-04-25T09:14:20.274Z</time></trkpt><trkpt lat="45.1089433" lon="7.6112281"><ele>273.0</ele><time>2026-04-25T09:14:21.276Z</time></trkpt><trkpt lat="45.1090878" lon="7.6115538"><ele>273.0</ele><time>2026-04-25T09:14:22.292Z</time></trkpt><trkpt lat="45.1092366" lon="7.6118747"><ele>274.0</ele><time>2026-04-25T09:14:23.272Z</time></trkpt><trkpt lat="45.1093938" lon="7.6121927"><ele>275.0</ele><time>2026-04-25T09:14:24.269Z</time></trkpt><trkpt lat="45.109558" lon="7.6125112"><ele>275.0</ele><time>2026-04-25T09:14:25.268Z</time></trkpt><trkpt lat="45.10971" lon="7.6128299"><ele>275.0</ele><time>2026-04-25T09:14:26.272Z</time></trkpt><trkpt lat="45.1098617" lon="7.6131347"><ele>274.5</ele><time>2026-04-25T09:14:27.273Z</time></trkpt><trkpt lat="45.1100163" lon="7.6134591"><ele>274.0</ele><time>2026-04-25T09:14:28.268Z</time></trkpt><trkpt lat="45.1101474" lon="7.6137927"><ele>273.5</ele><time>2026-04-25T09:14:29.273Z</time></trkpt><trkpt lat="45.1102937" lon="7.614119"><ele>273.0</ele><time>2026-04-25T09:14:30.272Z</time></trkpt><trkpt lat="45.1104295" lon="7.6144609"><ele>272.5</ele><time>2026-04-25T09:14:31.27Z</time></trkpt><trkpt lat="45.1105729" lon="7.6147857"><ele>272.0</ele><time>2026-04-25T09:14:32.27Z</time></trkpt><trkpt lat="45.1107256" lon="7.6151183"><ele>272.5</ele><time>2026-04-25T09:14:33.269Z</time></trkpt><trkpt lat="45.1108869" lon="7.6154351"><ele>273.0</ele><time>2026-04-25T09:14:34.277Z</time></trkpt><trkpt lat="45.1110464" lon="7.6157609"><ele>273.0</ele><time>2026-04-25T09:14:35.272Z</time></trkpt><trkpt lat="45.111212" lon="7.6160877"><ele>273.0</ele><time>2026-04-25T09:14:36.273Z</time></trkpt><trkpt lat="45.1113753" lon="7.6164175"><ele>273.0</ele><time>2026-04-25T09:14:37.265Z</time></trkpt><trkpt lat="45.1115356" lon="7.6167553"><ele>273.0</ele><time>2026-04-25T09:14:38.286Z</time></trkpt><trkpt lat="45.1116991" lon="7.6170935"><ele>273.0</ele><time>2026-04-25T09:14:39.277Z</time></trkpt><trkpt lat="45.1118695" lon="7.6174285"><ele>273.0</ele><time>2026-04-25T09:14:40.281Z</time></trkpt><trkpt lat="45.1120362" lon="7.6177573"><ele>272.5</ele><time>2026-04-25T09:14:41.275Z</time></trkpt><trkpt lat="45.1121943" lon="7.6180794"><ele>272.0</ele><time>2026-04-25T09:14:42.27Z</time></trkpt><trkpt lat="45.1123605" lon="7.6183932"><ele>272.0</ele><time>2026-04-25T09:14:43.277Z</time></trkpt><trkpt lat="45.1125127" lon="7.6187238"><ele>272.0</ele><time>2026-04-25T09:14:44.273Z</time></trkpt><trkpt lat="45.1126699" lon="7.6190447"><ele>272.0</ele><time>2026-04-25T09:14:45.274Z</time></trkpt><trkpt lat="45.1128225" lon="7.6193741"><ele>272.0</ele><time>2026-04-25T09:14:46.274Z</time></trkpt><trkpt lat="45.1129719" lon="7.6197042"><ele>271.0</ele><time>2026-04-25T09:14:47.274Z</time></trkpt><trkpt lat="45.1131164" lon="7.6200264"><ele>270.0</ele><time>2026-04-25T09:14:48.273Z</time></trkpt><trkpt lat="45.1132574" lon="7.620357"><ele>270.0</ele><time>2026-04-25T09:14:49.279Z</time></trkpt><trkpt lat="45.1134066" lon="7.6206935"><ele>270.0</ele><time>2026-04-25T09:14:50.277Z</time></trkpt><trkpt lat="45.1135654" lon="7.6210114"><ele>270.0</ele><time>2026-04-25T09:14:51.276Z</time></trkpt><trkpt lat="45.1137152" lon="7.6213416"><ele>270.0</ele><time>2026-04-25T09:14:52.269Z</time></trkpt><trkpt lat="45.1138759" lon="7.6216756"><ele>269.5</ele><time>2026-04-25T09:14:53.286Z</time></trkpt><trkpt lat="45.1140248" lon="7.6220206"><ele>269.0</ele><time>2026-04-25T09:14:54.268Z</time></trkpt><trkpt lat="45.1141764" lon="7.6223704"><ele>268.5</ele><time>2026-04-25T09:14:55.261Z</time></trkpt><trkpt lat="45.1143372" lon="7.6226959"><ele>268.0</ele><time>2026-04-25T09:14:56.269Z</time></trkpt><trkpt lat="45.1145094" lon="7.6230275"><ele>267.5</ele><time>2026-04-25T09:14:57.272Z</time></trkpt><trkpt lat="45.1146955" lon="7.6233595"><ele>267.0</ele><time>2026-04-25T09:14:58.274Z</time></trkpt><trkpt lat="45.1148536" lon="7.6237063"><ele>267.0</ele><time>2026-04-25T09:14:59.28Z</time></trkpt><trkpt lat="45.1149956" lon="7.6240629"><ele>267.0</ele><time>2026-04-25T09:15:00.274Z</time></trkpt><trkpt lat="45.1151367" lon="7.624423"><ele>265.0</ele><time>2026-04-25T09:15:01.276Z</time></trkpt><trkpt lat="45.1152744" lon="7.6247699"><ele>263.0</ele><time>2026-04-25T09:15:02.266Z</time></trkpt><trkpt lat="45.1154105" lon="7.6251251"><ele>263.0</ele><time>2026-04-25T09:15:03.269Z</time></trkpt><trkpt lat="45.1155399" lon="7.6254825"><ele>263.0</ele><time>2026-04-25T09:15:04.273Z</time></trkpt><trkpt lat="45.1156744" lon="7.625856"><ele>263.5</ele><time>2026-04-25T09:15:05.272Z</time></trkpt><trkpt lat="45.1158201" lon="7.6262185"><ele>264.0</ele><time>2026-04-25T09:15:06.274Z</time></trkpt><trkpt lat="45.1159433" lon="7.6265887"><ele>264.0</ele><time>2026-04-25T09:15:07.271Z</time></trkpt><trkpt lat="45.1160725" lon="7.6269507"><ele>264.0</ele><time>2026-04-25T09:15:08.274Z</time></trkpt><trkpt lat="45.1161779" lon="7.6273219"><ele>264.0</ele><time>2026-04-25T09:15:09.277Z</time></trkpt><trkpt lat="45.1162873" lon="7.6276865"><ele>264.0</ele><time>2026-04-25T09:15:10.267Z</time></trkpt><trkpt lat="45.116393" lon="7.6280562"><ele>264.0</ele><time>2026-04-25T09:15:11.269Z</time></trkpt><trkpt lat="45.1165084" lon="7.6283877"><ele>264.0</ele><time>2026-04-25T09:15:12.277Z</time></trkpt><trkpt lat="45.1166108" lon="7.6287139"><ele>263.5</ele><time>2026-04-25T09:15:13.272Z</time></trkpt><trkpt lat="45.1167329" lon="7.6290635"><ele>263.0</ele><time>2026-04-25T09:15:14.273Z</time></trkpt><trkpt lat="45.1168521" lon="7.6293922"><ele>263.5</ele><time>2026-04-25T09:15:15.272Z</time></trkpt><trkpt lat="45.1169644" lon="7.6297172"><ele>264.0</ele><time>2026-04-25T09:15:16.269Z</time></trkpt><trkpt lat="45.1170589" lon="7.6300801"><ele>264.0</ele><time>2026-04-25T09:15:17.277Z</time></trkpt><trkpt lat="45.1171584" lon="7.6304237"><ele>264.0</ele><time>2026-04-25T09:15:18.28Z</time></trkpt><trkpt lat="45.1172771" lon="7.6307624"><ele>264.0</ele><time>2026-04-25T09:15:19.275Z</time></trkpt><trkpt lat="45.117398" lon="7.6311036"><ele>264.0</ele><time>2026-04-25T09:15:20.279Z</time></trkpt><trkpt lat="45.1175008" lon="7.6314588"><ele>264.0</ele><time>2026-04-25T09:15:21.276Z</time></trkpt><trkpt lat="45.1176056" lon="7.6318178"><ele>264.0</ele><time>2026-04-25T09:15:22.275Z</time></trkpt><trkpt lat="45.1177137" lon="7.6321743"><ele>263.0</ele><time>2026-04-25T09:15:23.295Z</time></trkpt><trkpt lat="45.1178167" lon="7.6325305"><ele>262.0</ele><time>2026-04-25T09:15:24.275Z</time></trkpt><trkpt lat="45.1179397" lon="7.6328735"><ele>261.0</ele><time>2026-04-25T09:15:25.273Z</time></trkpt><trkpt lat="45.1180493" lon="7.6332149"><ele>260.0</ele><time>2026-04-25T09:15:26.277Z</time></trkpt><trkpt lat="45.1181618" lon="7.6335653"><ele>260.0</ele><time>2026-04-25T09:15:27.274Z</time></trkpt><trkpt lat="45.1182758" lon="7.633902"><ele>260.0</ele><time>2026-04-25T09:15:28.267Z</time></trkpt><trkpt lat="45.1183807" lon="7.6342452"><ele>259.0</ele><time>2026-04-25T09:15:29.278Z</time></trkpt><trkpt lat="45.1184934" lon="7.6345744"><ele>258.0</ele><time>2026-04-25T09:15:30.268Z</time></trkpt><trkpt lat="45.1186127" lon="7.6349143"><ele>258.0</ele><time>2026-04-25T09:15:31.269Z</time></trkpt><trkpt lat="45.1187259" lon="7.6352593"><ele>258.0</ele><time>2026-04-25T09:15:32.277Z</time></trkpt><trkpt lat="45.1188361" lon="7.6355953"><ele>257.5</ele><time>2026-04-25T09:15:33.272Z</time></trkpt><trkpt lat="45.1189339" lon="7.6359519"><ele>257.0</ele><time>2026-04-25T09:15:34.275Z</time></trkpt><trkpt lat="45.1190456" lon="7.6363083"><ele>257.5</ele><time>2026-04-25T09:15:35.274Z</time></trkpt><trkpt lat="45.1191587" lon="7.6366606"><ele>258.0</ele><time>2026-04-25T09:15:36.273Z</time></trkpt><trkpt lat="45.1192728" lon="7.6370055"><ele>258.0</ele><time>2026-04-25T09:15:37.281Z</time></trkpt><trkpt lat="45.1193816" lon="7.6373564"><ele>258.0</ele><time>2026-04-25T09:15:38.272Z</time></trkpt><trkpt lat="45.1194896" lon="7.6377127"><ele>257.0</ele><time>2026-04-25T09:15:39.277Z</time></trkpt><trkpt lat="45.119601" lon="7.6380745"><ele>256.0</ele><time>2026-04-25T09:15:40.274Z</time></trkpt><trkpt lat="45.1197128" lon="7.6384368"><ele>256.5</ele><time>2026-04-25T09:15:41.267Z</time></trkpt><trkpt lat="45.1198084" lon="7.6387955"><ele>257.0</ele><time>2026-04-25T09:15:42.273Z</time></trkpt><trkpt lat="45.1199152" lon="7.63915"><ele>256.0</ele><time>2026-04-25T09:15:43.27Z</time></trkpt><trkpt lat="45.1200219" lon="7.6394936"><ele>255.0</ele><time>2026-04-25T09:15:44.272Z</time></trkpt><trkpt lat="45.1201239" lon="7.6398254"><ele>255.0</ele><time>2026-04-25T09:15:45.265Z</time></trkpt><trkpt lat="45.1202299" lon="7.640167"><ele>255.0</ele><time>2026-04-25T09:15:46.268Z</time></trkpt><trkpt lat="45.1203349" lon="7.6404816"><ele>255.0</ele><time>2026-04-25T09:15:47.26Z</time></trkpt><trkpt lat="45.120431" lon="7.6407683"><ele>255.0</ele><time>2026-04-25T09:15:48.26Z</time></trkpt><trkpt lat="45.1205213" lon="7.6410403"><ele>255.0</ele><time>2026-04-25T09:15:49.266Z</time></trkpt><trkpt lat="45.1205972" lon="7.6413071"><ele>255.0</ele><time>2026-04-25T09:15:50.266Z</time></trkpt><trkpt lat="45.120675" lon="7.6415633"><ele>255.0</ele><time>2026-04-25T09:15:51.267Z</time></trkpt><trkpt lat="45.1207682" lon="7.6418489"><ele>255.0</ele><time>2026-04-25T09:15:52.268Z</time></trkpt><trkpt lat="45.1208742" lon="7.6421334"><ele>254.0</ele><time>2026-04-25T09:15:53.269Z</time></trkpt><trkpt lat="45.1209768" lon="7.6424163"><ele>253.0</ele><time>2026-04-25T09:15:54.278Z</time></trkpt><trkpt lat="45.1210686" lon="7.6427119"><ele>254.0</ele><time>2026-04-25T09:15:55.263Z</time></trkpt><trkpt lat="45.1211696" lon="7.6429907"><ele>255.0</ele><time>2026-04-25T09:15:56.267Z</time></trkpt><trkpt lat="45.121254" lon="7.6432631"><ele>256.0</ele><time>2026-04-25T09:15:57.265Z</time></trkpt><trkpt lat="45.1213444" lon="7.6435454"><ele>256.5</ele><time>2026-04-25T09:15:58.266Z</time></trkpt><trkpt lat="45.1214375" lon="7.6438499"><ele>257.0</ele><time>2026-04-25T09:15:59.263Z</time></trkpt><trkpt lat="45.1215165" lon="7.6441528"><ele>255.0</ele><time>2026-04-25T09:16:00.26Z</time></trkpt><trkpt lat="45.1216115" lon="7.644435"><ele>253.0</ele><time>2026-04-25T09:16:01.262Z</time></trkpt><trkpt lat="45.1216973" lon="7.6447349"><ele>251.0</ele><time>2026-04-25T09:16:02.271Z</time></trkpt><trkpt lat="45.1217858" lon="7.6450143"><ele>251.0</ele><time>2026-04-25T09:16:03.269Z</time></trkpt><trkpt lat="45.1218788" lon="7.6452822"><ele>251.0</ele><time>2026-04-25T09:16:04.263Z</time></trkpt><trkpt lat="45.1219713" lon="7.6455412"><ele>251.0</ele><time>2026-04-25T09:16:05.266Z</time></trkpt><trkpt lat="45.1220519" lon="7.6458348"><ele>253.5</ele><time>2026-04-25T09:16:06.265Z</time></trkpt><trkpt lat="45.1221462" lon="7.6461353"><ele>256.0</ele><time>2026-04-25T09:16:07.265Z</time></trkpt><trkpt lat="45.1222396" lon="7.6464547"><ele>256.0</ele><time>2026-04-25T09:16:08.262Z</time></trkpt><trkpt lat="45.1223488" lon="7.6467594"><ele>256.0</ele><time>2026-04-25T09:16:09.263Z</time></trkpt><trkpt lat="45.1224363" lon="7.6470859"><ele>255.5</ele><time>2026-04-25T09:16:10.26Z</time></trkpt><trkpt lat="45.1225389" lon="7.6474149"><ele>255.0</ele><time>2026-04-25T09:16:11.261Z</time></trkpt><trkpt lat="45.1226346" lon="7.6477461"><ele>253.0</ele><time>2026-04-25T09:16:12.265Z</time></trkpt><trkpt lat="45.1227401" lon="7.6480943"><ele>251.0</ele><time>2026-04-25T09:16:13.254Z</time></trkpt><trkpt lat="45.1228435" lon="7.6484087"><ele>251.0</ele><time>2026-04-25T09:16:14.261Z</time></trkpt><trkpt lat="45.1229427" lon="7.6487255"><ele>251.0</ele><time>2026-04-25T09:16:15.265Z</time></trkpt><trkpt lat="45.1230454" lon="7.6490155"><ele>251.0</ele><time>2026-04-25T09:16:16.262Z</time></trkpt><trkpt lat="45.1231387" lon="7.64933"><ele>251.0</ele><time>2026-04-25T09:16:17.27Z</time></trkpt><trkpt lat="45.1232262" lon="7.6496718"><ele>251.5</ele><time>2026-04-25T09:16:18.27Z</time></trkpt><trkpt lat="45.1233367" lon="7.6499785"><ele>252.0</ele><time>2026-04-25T09:16:19.267Z</time></trkpt><trkpt lat="45.1234679" lon="7.6502763"><ele>251.0</ele><time>2026-04-25T09:16:20.273Z</time></trkpt><trkpt lat="45.1235816" lon="7.6505867"><ele>250.0</ele><time>2026-04-25T09:16:21.271Z</time></trkpt><trkpt lat="45.1236819" lon="7.6509264"><ele>249.5</ele><time>2026-04-25T09:16:22.271Z</time></trkpt><trkpt lat="45.1237876" lon="7.6512548"><ele>249.0</ele><time>2026-04-25T09:16:23.274Z</time></trkpt><trkpt lat="45.1238981" lon="7.6515939"><ele>249.0</ele><time>2026-04-25T09:16:24.265Z</time></trkpt><trkpt lat="45.1240058" lon="7.6519396"><ele>249.0</ele><time>2026-04-25T09:16:25.289Z</time></trkpt><trkpt lat="45.1241079" lon="7.6522863"><ele>248.5</ele><time>2026-04-25T09:16:26.272Z</time></trkpt><trkpt lat="45.1242032" lon="7.6526501"><ele>248.0</ele><time>2026-04-25T09:16:27.27Z</time></trkpt><trkpt lat="45.12431" lon="7.6529796"><ele>248.0</ele><time>2026-04-25T09:16:28.267Z</time></trkpt><trkpt lat="45.1244317" lon="7.6532999"><ele>248.0</ele><time>2026-04-25T09:16:29.27Z</time></trkpt><trkpt lat="45.1245467" lon="7.6536285"><ele>244.5</ele><time>2026-04-25T09:16:30.261Z</time></trkpt><trkpt lat="45.124677" lon="7.6539722"><ele>241.0</ele><time>2026-04-25T09:16:31.265Z</time></trkpt><trkpt lat="45.1247704" lon="7.6543105"><ele>237.5</ele><time>2026-04-25T09:16:32.273Z</time></trkpt><trkpt lat="45.1248531" lon="7.6546645"><ele>234.0</ele><time>2026-04-25T09:16:33.269Z</time></trkpt><trkpt lat="45.1249446" lon="7.6549962"><ele>235.0</ele><time>2026-04-25T09:16:34.27Z</time></trkpt><trkpt lat="45.1250464" lon="7.6553212"><ele>236.0</ele><time>2026-04-25T09:16:35.274Z</time></trkpt><trkpt lat="45.1251628" lon="7.6556252"><ele>236.0</ele><time>2026-04-25T09:16:36.27Z</time></trkpt><trkpt lat="45.1252661" lon="7.6559369"><ele>236.0</ele><time>2026-04-25T09:16:37.269Z</time></trkpt><trkpt lat="45.1253851" lon="7.6562414"><ele>237.0</ele><time>2026-04-25T09:16:38.271Z</time></trkpt><trkpt lat="45.1254967" lon="7.6565511"><ele>238.0</ele><time>2026-04-25T09:16:39.276Z</time></trkpt><trkpt lat="45.1255942" lon="7.6568676"><ele>238.0</ele><time>2026-04-25T09:16:40.275Z</time></trkpt><trkpt lat="45.125694" lon="7.6571939"><ele>238.0</ele><time>2026-04-25T09:16:41.286Z</time></trkpt><trkpt lat="45.1257911" lon="7.6574762"><ele>239.5</ele><time>2026-04-25T09:16:42.279Z</time></trkpt><trkpt lat="45.1258855" lon="7.657803"><ele>241.0</ele><time>2026-04-25T09:16:43.276Z</time></trkpt><trkpt lat="45.1259554" lon="7.6581108"><ele>241.0</ele><time>2026-04-25T09:16:44.271Z</time></trkpt><trkpt lat="45.1260335" lon="7.6584244"><ele>241.0</ele><time>2026-04-25T09:16:45.274Z</time></trkpt><trkpt lat="45.1261221" lon="7.6587309"><ele>241.5</ele><time>2026-04-25T09:16:46.268Z</time></trkpt><trkpt lat="45.1262022" lon="7.6590228"><ele>242.0</ele><time>2026-04-25T09:16:47.272Z</time></trkpt><trkpt lat="45.1262774" lon="7.6593469"><ele>240.5</ele><time>2026-04-25T09:16:48.266Z</time></trkpt><trkpt lat="45.1263534" lon="7.6596729"><ele>239.0</ele><time>2026-04-25T09:16:49.268Z</time></trkpt><trkpt lat="45.1263887" lon="7.6600058"><ele>239.5</ele><time>2026-04-25T09:16:50.278Z</time></trkpt><trkpt lat="45.1264256" lon="7.6603571"><ele>240.0</ele><time>2026-04-25T09:16:51.271Z</time></trkpt><trkpt lat="45.1264627" lon="7.6606791"><ele>240.0</ele><time>2026-04-25T09:16:52.269Z</time></trkpt><trkpt lat="45.126478" lon="7.661008"><ele>240.0</ele><time>2026-04-25T09:16:53.278Z</time></trkpt><trkpt lat="45.1265045" lon="7.6612769"><ele>240.0</ele><time>2026-04-25T09:16:54.274Z</time></trkpt><trkpt lat="45.126551" lon="7.6615096"><ele>240.0</ele><time>2026-04-25T09:16:55.277Z</time></trkpt><trkpt lat="45.1265645" lon="7.6617636"><ele>240.0</ele><time>2026-04-25T09:16:56.285Z</time></trkpt><trkpt lat="45.1265819" lon="7.6619892"><ele>240.0</ele><time>2026-04-25T09:16:57.276Z</time></trkpt><trkpt lat="45.1266003" lon="7.6622119"><ele>239.5</ele><time>2026-04-25T09:16:58.275Z</time></trkpt><trkpt lat="45.1266051" lon="7.6624275"><ele>239.0</ele><time>2026-04-25T09:16:59.274Z</time></trkpt><trkpt lat="45.1266069" lon="7.6626111"><ele>238.5</ele><time>2026-04-25T09:17:00.263Z</time></trkpt><trkpt lat="45.1265878" lon="7.6627662"><ele>238.0</ele><time>2026-04-25T09:17:01.266Z</time></trkpt><trkpt lat="45.1265685" lon="7.6629073"><ele>238.5</ele><time>2026-04-25T09:17:02.269Z</time></trkpt><trkpt lat="45.1265242" lon="7.6630591"><ele>239.0</ele><time>2026-04-25T09:17:03.264Z</time></trkpt><trkpt lat="45.1264384" lon="7.6632318"><ele>239.5</ele><time>2026-04-25T09:17:04.257Z</time></trkpt><trkpt lat="45.1263134" lon="7.6633457"><ele>240.0</ele><time>2026-04-25T09:17:05.269Z</time></trkpt><trkpt lat="45.1261699" lon="7.6633807"><ele>240.0</ele><time>2026-04-25T09:17:06.264Z</time></trkpt><trkpt lat="45.1260181" lon="7.6633672"><ele>240.0</ele><time>2026-04-25T09:17:07.268Z</time></trkpt><trkpt lat="45.1258717" lon="7.6633193"><ele>240.0</ele><time>2026-04-25T09:17:08.259Z</time></trkpt><trkpt lat="45.125729" lon="7.6632593"><ele>239.75</ele><time>2026-04-25T09:17:09.264Z</time></trkpt><trkpt lat="45.125625" lon="7.6631262"><ele>239.5</ele><time>2026-04-25T09:17:10.252Z</time></trkpt><trkpt lat="45.1255732" lon="7.6629517"><ele>239.25</ele><time>2026-04-25T09:17:11.254Z</time></trkpt><trkpt lat="45.1255315" lon="7.6627544"><ele>239.0</ele><time>2026-04-25T09:17:12.256Z</time></trkpt><trkpt lat="45.1255089" lon="7.6625472"><ele>239.0</ele><time>2026-04-25T09:17:13.252Z</time></trkpt><trkpt lat="45.1255096" lon="7.6623574"><ele>239.0</ele><time>2026-04-25T09:17:14.256Z</time></trkpt><trkpt lat="45.1255467" lon="7.6621821"><ele>239.0</ele><time>2026-04-25T09:17:15.252Z</time></trkpt><trkpt lat="45.1255977" lon="7.6619972"><ele>239.0</ele><time>2026-04-25T09:17:16.249Z</time></trkpt><trkpt lat="45.1256534" lon="7.6618483"><ele>239.66666666666669</ele><time>2026-04-25T09:17:17.247Z</time></trkpt><trkpt lat="45.1257413" lon="7.6617104"><ele>240.33333333333331</ele><time>2026-04-25T09:17:18.264Z</time></trkpt><trkpt lat="45.1258941" lon="7.6615859"><ele>241.0</ele><time>2026-04-25T09:17:19.257Z</time></trkpt><trkpt lat="45.1260519" lon="7.6614869"><ele>241.0</ele><time>2026-04-25T09:17:20.259Z</time></trkpt><trkpt lat="45.1262268" lon="7.6614302"><ele>241.0</ele><time>2026-04-25T09:17:21.262Z</time></trkpt><trkpt lat="45.1264004" lon="7.6613706"><ele>241.0</ele><time>2026-04-25T09:17:22.267Z</time></trkpt><trkpt lat="45.1265771" lon="7.6612836"><ele>241.0</ele><time>2026-04-25T09:17:23.269Z</time></trkpt><trkpt lat="45.1267698" lon="7.6611921"><ele>241.0</ele><time>2026-04-25T09:17:24.264Z</time></trkpt><trkpt lat="45.1269574" lon="7.6610996"><ele>241.0</ele><time>2026-04-25T09:17:25.264Z</time></trkpt><trkpt lat="45.1271548" lon="7.6610193"><ele>241.0</ele><time>2026-04-25T09:17:26.264Z</time></trkpt><trkpt lat="45.1273315" lon="7.6609403"><ele>241.0</ele><time>2026-04-25T09:17:27.283Z</time></trkpt><trkpt lat="45.1275145" lon="7.6608623"><ele>241.0</ele><time>2026-04-25T09:17:28.273Z</time></trkpt><trkpt lat="45.1276968" lon="7.6607827"><ele>241.33333333333331</ele><time>2026-04-25T09:17:29.274Z</time></trkpt><trkpt lat="45.1278815" lon="7.660704"><ele>241.66666666666669</ele><time>2026-04-25T09:17:30.272Z</time></trkpt><trkpt lat="45.1280629" lon="7.6606212"><ele>242.0</ele><time>2026-04-25T09:17:31.278Z</time></trkpt><trkpt lat="45.1282434" lon="7.660524"><ele>241.33333333333334</ele><time>2026-04-25T09:17:32.279Z</time></trkpt><trkpt lat="45.1284169" lon="7.6604364"><ele>240.66666666666669</ele><time>2026-04-25T09:17:33.272Z</time></trkpt><trkpt lat="45.128591" lon="7.6603284"><ele>240.0</ele><time>2026-04-25T09:17:34.274Z</time></trkpt><trkpt lat="45.1287697" lon="7.6602072"><ele>240.0</ele><time>2026-04-25T09:17:35.27Z</time></trkpt><trkpt lat="45.1289403" lon="7.6600725"><ele>240.0</ele><time>2026-04-25T09:17:36.26Z</time></trkpt><trkpt lat="45.129118" lon="7.6599216"><ele>240.0</ele><time>2026-04-25T09:17:37.267Z</time></trkpt><trkpt lat="45.1292901" lon="7.6597514"><ele>240.0</ele><time>2026-04-25T09:17:38.273Z</time></trkpt><trkpt lat="45.1294511" lon="7.6595591"><ele>240.0</ele><time>2026-04-25T09:17:39.268Z</time></trkpt><trkpt lat="45.1295939" lon="7.6593616"><ele>240.0</ele><time>2026-04-25T09:17:40.271Z</time></trkpt><trkpt lat="45.1297287" lon="7.6591714"><ele>240.0</ele><time>2026-04-25T09:17:41.273Z</time></trkpt><trkpt lat="45.1298521" lon="7.6589804"><ele>240.0</ele><time>2026-04-25T09:17:42.269Z</time></trkpt><trkpt lat="45.1299789" lon="7.6587849"><ele>240.0</ele><time>2026-04-25T09:17:43.276Z</time></trkpt><trkpt lat="45.1301207" lon="7.6585834"><ele>240.33333333333331</ele><time>2026-04-25T09:17:44.277Z</time></trkpt><trkpt lat="45.1302616" lon="7.6583782"><ele>240.66666666666666</ele><time>2026-04-25T09:17:45.271Z</time></trkpt><trkpt lat="45.1303821" lon="7.6581721"><ele>241.0</ele><time>2026-04-25T09:17:46.277Z</time></trkpt><trkpt lat="45.130522" lon="7.6579643"><ele>240.66666666666666</ele><time>2026-04-25T09:17:47.283Z</time></trkpt><trkpt lat="45.1306649" lon="7.6577447"><ele>240.33333333333331</ele><time>2026-04-25T09:17:48.274Z</time></trkpt><trkpt lat="45.1308261" lon="7.6575332"><ele>240.0</ele><time>2026-04-25T09:17:49.279Z</time></trkpt><trkpt lat="45.1309786" lon="7.6573281"><ele>240.66666666666669</ele><time>2026-04-25T09:17:50.282Z</time></trkpt><trkpt lat="45.1311347" lon="7.6571111"><ele>241.33333333333334</ele><time>2026-04-25T09:17:51.274Z</time></trkpt><trkpt lat="45.1312807" lon="7.656906"><ele>242.0</ele><time>2026-04-25T09:17:52.271Z</time></trkpt><trkpt lat="45.1314366" lon="7.656697"><ele>242.0</ele><time>2026-04-25T09:17:53.277Z</time></trkpt><trkpt lat="45.1315959" lon="7.6564915"><ele>242.0</ele><time>2026-04-25T09:17:54.276Z</time></trkpt><trkpt lat="45.1317757" lon="7.656284"><ele>242.0</ele><time>2026-04-25T09:17:55.27Z</time></trkpt><trkpt lat="45.1319599" lon="7.6560862"><ele>241.0</ele><time>2026-04-25T09:17:56.268Z</time></trkpt><trkpt lat="45.1321513" lon="7.6559087"><ele>240.0</ele><time>2026-04-25T09:17:57.271Z</time></trkpt><trkpt lat="45.132353" lon="7.6557588"><ele>240.66666666666669</ele><time>2026-04-25T09:17:58.288Z</time></trkpt><trkpt lat="45.1325489" lon="7.655604"><ele>241.33333333333334</ele><time>2026-04-25T09:17:59.275Z</time></trkpt><trkpt lat="45.1327421" lon="7.6554578"><ele>242.0</ele><time>2026-04-25T09:18:00.273Z</time></trkpt><trkpt lat="45.1329434" lon="7.6553346"><ele>243.5</ele><time>2026-04-25T09:18:01.273Z</time></trkpt><trkpt lat="45.1331559" lon="7.6552339"><ele>245.0</ele><time>2026-04-25T09:18:02.262Z</time></trkpt><trkpt lat="45.1333897" lon="7.6551725"><ele>246.5</ele><time>2026-04-25T09:18:03.261Z</time></trkpt><trkpt lat="45.133624" lon="7.6551231"><ele>248.0</ele><time>2026-04-25T09:18:04.272Z</time></trkpt><trkpt lat="45.1338456" lon="7.6550787"><ele>245.5</ele><time>2026-04-25T09:18:05.266Z</time></trkpt><trkpt lat="45.1340691" lon="7.6550309"><ele>243.0</ele><time>2026-04-25T09:18:06.261Z</time></trkpt><trkpt lat="45.1343032" lon="7.6550152"><ele>243.0</ele><time>2026-04-25T09:18:07.269Z</time></trkpt><trkpt lat="45.13453" lon="7.6550144"><ele>243.0</ele><time>2026-04-25T09:18:08.27Z</time></trkpt><trkpt lat="45.1347446" lon="7.6550304"><ele>243.0</ele><time>2026-04-25T09:18:09.275Z</time></trkpt><trkpt lat="45.1349723" lon="7.6550558"><ele>243.0</ele><time>2026-04-25T09:18:10.264Z</time></trkpt><trkpt lat="45.1352073" lon="7.6550835"><ele>243.0</ele><time>2026-04-25T09:18:11.27Z</time></trkpt><trkpt lat="45.135438" lon="7.6551098"><ele>243.0</ele><time>2026-04-25T09:18:12.269Z</time></trkpt><trkpt lat="45.1356635" lon="7.6551208"><ele>243.0</ele><time>2026-04-25T09:18:13.265Z</time></trkpt><trkpt lat="45.1358972" lon="7.6551259"><ele>246.0</ele><time>2026-04-25T09:18:14.272Z</time></trkpt><trkpt lat="45.1361497" lon="7.6551441"><ele>249.0</ele><time>2026-04-25T09:18:15.268Z</time></trkpt><trkpt lat="45.1363931" lon="7.6551706"><ele>249.0</ele><time>2026-04-25T09:18:16.269Z</time></trkpt><trkpt lat="45.1366473" lon="7.6551849"><ele>249.0</ele><time>2026-04-25T09:18:17.27Z</time></trkpt><trkpt lat="45.136893" lon="7.6551818"><ele>249.0</ele><time>2026-04-25T09:18:18.267Z</time></trkpt><trkpt lat="45.1371498" lon="7.6551844"><ele>249.0</ele><time>2026-04-25T09:18:19.27Z</time></trkpt><trkpt lat="45.1374013" lon="7.6551954"><ele>248.0</ele><time>2026-04-25T09:18:20.277Z</time></trkpt><trkpt lat="45.1376363" lon="7.6551995"><ele>247.0</ele><time>2026-04-25T09:18:21.272Z</time></trkpt><trkpt lat="45.1378768" lon="7.6551956"><ele>247.0</ele><time>2026-04-25T09:18:22.278Z</time></trkpt><trkpt lat="45.1381168" lon="7.6551651"><ele>247.0</ele><time>2026-04-25T09:18:23.28Z</time></trkpt><trkpt lat="45.1383588" lon="7.6551123"><ele>247.5</ele><time>2026-04-25T09:18:24.275Z</time></trkpt><trkpt lat="45.1386081" lon="7.655064"><ele>248.0</ele><time>2026-04-25T09:18:25.276Z</time></trkpt><trkpt lat="45.1388616" lon="7.655017"><ele>250.5</ele><time>2026-04-25T09:18:26.275Z</time></trkpt><trkpt lat="45.1391029" lon="7.654961"><ele>253.0</ele><time>2026-04-25T09:18:27.27Z</time></trkpt><trkpt lat="45.1393477" lon="7.6549011"><ele>253.0</ele><time>2026-04-25T09:18:28.278Z</time></trkpt><trkpt lat="45.1395701" lon="7.6548226"><ele>253.0</ele><time>2026-04-25T09:18:29.292Z</time></trkpt><trkpt lat="45.1398016" lon="7.6547399"><ele>252.0</ele><time>2026-04-25T09:18:30.276Z</time></trkpt><trkpt lat="45.1400327" lon="7.6546347"><ele>251.0</ele><time>2026-04-25T09:18:31.268Z</time></trkpt><trkpt lat="45.1402542" lon="7.6545178"><ele>253.0</ele><time>2026-04-25T09:18:32.271Z</time></trkpt><trkpt lat="45.140468" lon="7.6543891"><ele>255.0</ele><time>2026-04-25T09:18:33.269Z</time></trkpt><trkpt lat="45.1406939" lon="7.6542777"><ele>251.5</ele><time>2026-04-25T09:18:34.274Z</time></trkpt><trkpt lat="45.1409045" lon="7.6541636"><ele>248.0</ele><time>2026-04-25T09:18:35.272Z</time></trkpt><trkpt lat="45.1411065" lon="7.6540218"><ele>248.0</ele><time>2026-04-25T09:18:36.274Z</time></trkpt><trkpt lat="45.1413097" lon="7.6538683"><ele>248.0</ele><time>2026-04-25T09:18:37.272Z</time></trkpt><trkpt lat="45.1415146" lon="7.6537165"><ele>247.5</ele><time>2026-04-25T09:18:38.274Z</time></trkpt><trkpt lat="45.1417252" lon="7.6535499"><ele>247.0</ele><time>2026-04-25T09:18:39.278Z</time></trkpt><trkpt lat="45.1419254" lon="7.6533761"><ele>247.0</ele><time>2026-04-25T09:18:40.276Z</time></trkpt><trkpt lat="45.1421278" lon="7.653194"><ele>247.0</ele><time>2026-04-25T09:18:41.277Z</time></trkpt><trkpt lat="45.1423237" lon="7.6530036"><ele>247.66666666666666</ele><time>2026-04-25T09:18:42.276Z</time></trkpt><trkpt lat="45.1425146" lon="7.6528372"><ele>248.33333333333331</ele><time>2026-04-25T09:18:43.272Z</time></trkpt><trkpt lat="45.1426932" lon="7.6526701"><ele>249.0</ele><time>2026-04-25T09:18:44.276Z</time></trkpt><trkpt lat="45.1428704" lon="7.6524809"><ele>248.5</ele><time>2026-04-25T09:18:45.272Z</time></trkpt><trkpt lat="45.1430633" lon="7.6522864"><ele>248.0</ele><time>2026-04-25T09:18:46.264Z</time></trkpt><trkpt lat="45.1432455" lon="7.6521183"><ele>249.33333333333334</ele><time>2026-04-25T09:18:47.252Z</time></trkpt><trkpt lat="45.1434208" lon="7.6519557"><ele>250.66666666666669</ele><time>2026-04-25T09:18:48.239Z</time></trkpt><trkpt lat="45.1435914" lon="7.6518363"><ele>252.0</ele><time>2026-04-25T09:18:49.229Z</time></trkpt><trkpt lat="45.143764" lon="7.6516849"><ele>253.0</ele><time>2026-04-25T09:18:50.179Z</time></trkpt><trkpt lat="45.1445333" lon="7.6509909"><ele>252.0</ele><time>2026-04-25T09:18:56.165Z</time></trkpt><trkpt lat="45.1461648" lon="7.6491119"><ele>252.0</ele><time>2026-04-25T09:19:03.229Z</time></trkpt><trkpt lat="45.146271" lon="7.6488709"><ele>252.0</ele><time>2026-04-25T09:19:04.259Z</time></trkpt><trkpt lat="45.1464037" lon="7.6486332"><ele>252.0</ele><time>2026-04-25T09:19:05.271Z</time></trkpt><trkpt lat="45.1465359" lon="7.6483843"><ele>253.0</ele><time>2026-04-25T09:19:06.272Z</time></trkpt><trkpt lat="45.1466864" lon="7.6481462"><ele>254.0</ele><time>2026-04-25T09:19:07.273Z</time></trkpt><trkpt lat="45.1468222" lon="7.6479"><ele>255.0</ele><time>2026-04-25T09:19:08.271Z</time></trkpt><trkpt lat="45.1469654" lon="7.6476803"><ele>255.0</ele><time>2026-04-25T09:19:09.266Z</time></trkpt><trkpt lat="45.1471066" lon="7.6474488"><ele>255.0</ele><time>2026-04-25T09:19:10.272Z</time></trkpt><trkpt lat="45.1472517" lon="7.6471939"><ele>255.0</ele><time>2026-04-25T09:19:11.273Z</time></trkpt><trkpt lat="45.1474057" lon="7.6469422"><ele>255.0</ele><time>2026-04-25T09:19:12.276Z</time></trkpt><trkpt lat="45.1475478" lon="7.6467263"><ele>255.0</ele><time>2026-04-25T09:19:13.279Z</time></trkpt><trkpt lat="45.1476982" lon="7.6464984"><ele>255.0</ele><time>2026-04-25T09:19:14.279Z</time></trkpt><trkpt lat="45.1478624" lon="7.6463147"><ele>255.0</ele><time>2026-04-25T09:19:15.275Z</time></trkpt><trkpt lat="45.1480356" lon="7.6461229"><ele>255.0</ele><time>2026-04-25T09:19:16.267Z</time></trkpt><trkpt lat="45.1482105" lon="7.645959"><ele>255.0</ele><time>2026-04-25T09:19:17.269Z</time></trkpt><trkpt lat="45.1483898" lon="7.645789"><ele>255.0</ele><time>2026-04-25T09:19:18.271Z</time></trkpt><trkpt lat="45.1485571" lon="7.6456316"><ele>255.0</ele><time>2026-04-25T09:19:19.271Z</time></trkpt><trkpt lat="45.14874" lon="7.6454818"><ele>255.0</ele><time>2026-04-25T09:19:20.27Z</time></trkpt><trkpt lat="45.1489292" lon="7.6453666"><ele>255.66666666666669</ele><time>2026-04-25T09:19:21.281Z</time></trkpt><trkpt lat="45.149111" lon="7.6452571"><ele>256.33333333333337</ele><time>2026-04-25T09:19:22.277Z</time></trkpt><trkpt lat="45.1492813" lon="7.6451947"><ele>257.0</ele><time>2026-04-25T09:19:23.284Z</time></trkpt><trkpt lat="45.1494704" lon="7.6451235"><ele>257.0</ele><time>2026-04-25T09:19:24.276Z</time></trkpt><trkpt lat="45.1496474" lon="7.6450811"><ele>257.0</ele><time>2026-04-25T09:19:25.281Z</time></trkpt><trkpt lat="45.1498352" lon="7.6449895"><ele>257.0</ele><time>2026-04-25T09:19:26.277Z</time></trkpt><trkpt lat="45.1500452" lon="7.6449507"><ele>256.6666666666667</ele><time>2026-04-25T09:19:27.276Z</time></trkpt><trkpt lat="45.1502182" lon="7.6449061"><ele>256.3333333333333</ele><time>2026-04-25T09:19:28.283Z</time></trkpt><trkpt lat="45.1504084" lon="7.6448597"><ele>256.0</ele><time>2026-04-25T09:19:29.282Z</time></trkpt><trkpt lat="45.1505941" lon="7.6448059"><ele>257.0</ele><time>2026-04-25T09:19:30.278Z</time></trkpt><trkpt lat="45.1507744" lon="7.6447625"><ele>258.0</ele><time>2026-04-25T09:19:31.309Z</time></trkpt><trkpt lat="45.1509505" lon="7.644689"><ele>259.0</ele><time>2026-04-25T09:19:32.279Z</time></trkpt><trkpt lat="45.1511347" lon="7.6446493"><ele>259.0</ele><time>2026-04-25T09:19:33.273Z</time></trkpt><trkpt lat="45.1513084" lon="7.644605"><ele>259.0</ele><time>2026-04-25T09:19:34.278Z</time></trkpt><trkpt lat="45.1514967" lon="7.6445757"><ele>259.0</ele><time>2026-04-25T09:19:35.277Z</time></trkpt><trkpt lat="45.1516959" lon="7.6445789"><ele>259.66666666666663</ele><time>2026-04-25T09:19:36.279Z</time></trkpt><trkpt lat="45.1518801" lon="7.644598"><ele>260.3333333333333</ele><time>2026-04-25T09:19:37.281Z</time></trkpt><trkpt lat="45.1520471" lon="7.644611"><ele>261.0</ele><time>2026-04-25T09:19:38.273Z</time></trkpt><trkpt lat="45.1522112" lon="7.6446268"><ele>261.0</ele><time>2026-04-25T09:19:39.275Z</time></trkpt><trkpt lat="45.1523604" lon="7.644623"><ele>261.0</ele><time>2026-04-25T09:19:40.271Z</time></trkpt><trkpt lat="45.15249" lon="7.6446026"><ele>261.0</ele><time>2026-04-25T09:19:41.267Z</time></trkpt><trkpt lat="45.1526222" lon="7.6445779"><ele>261.0</ele><time>2026-04-25T09:19:42.268Z</time></trkpt><trkpt lat="45.1527548" lon="7.6445354"><ele>261.0</ele><time>2026-04-25T09:19:43.263Z</time></trkpt><trkpt lat="45.1528844" lon="7.6444984"><ele>261.0</ele><time>2026-04-25T09:19:44.259Z</time></trkpt><trkpt lat="45.1529787" lon="7.6444436"><ele>261.0</ele><time>2026-04-25T09:19:45.27Z</time></trkpt><trkpt lat="45.1530565" lon="7.6443915"><ele>261.0</ele><time>2026-04-25T09:19:46.269Z</time></trkpt><trkpt lat="45.1531433" lon="7.6443594"><ele>261.0</ele><time>2026-04-25T09:19:47.274Z</time></trkpt><trkpt lat="45.1532237" lon="7.6443545"><ele>261.0</ele><time>2026-04-25T09:19:48.265Z</time></trkpt><trkpt lat="45.1532926" lon="7.6443741"><ele>261.0</ele><time>2026-04-25T09:19:49.265Z</time></trkpt><trkpt lat="45.1533549" lon="7.6444182"><ele>261.0</ele><time>2026-04-25T09:19:50.269Z</time></trkpt><trkpt lat="45.1534153" lon="7.6444997"><ele>261.0</ele><time>2026-04-25T09:19:51.268Z</time></trkpt><trkpt lat="45.1534787" lon="7.6445697"><ele>261.0</ele><time>2026-04-25T09:19:52.264Z</time></trkpt><trkpt lat="45.1535409" lon="7.6446286"><ele>261.0</ele><time>2026-04-25T09:19:53.26Z</time></trkpt><trkpt lat="45.1536072" lon="7.6446584"><ele>261.0</ele><time>2026-04-25T09:19:54.253Z</time></trkpt><trkpt lat="45.1536797" lon="7.6446664"><ele>261.0</ele><time>2026-04-25T09:19:55.263Z</time></trkpt><trkpt lat="45.1537619" lon="7.644643"><ele>261.0</ele><time>2026-04-25T09:19:56.246Z</time></trkpt><trkpt lat="45.1538241" lon="7.6446009"><ele>261.0</ele><time>2026-04-25T09:19:57.268Z</time></trkpt><trkpt lat="45.1538925" lon="7.6445303"><ele>261.0</ele><time>2026-04-25T09:19:58.27Z</time></trkpt><trkpt lat="45.1539622" lon="7.644482"><ele>261.0</ele><time>2026-04-25T09:19:59.257Z</time></trkpt><trkpt lat="45.1540378" lon="7.6444541"><ele>261.0</ele><time>2026-04-25T09:20:00.253Z</time></trkpt><trkpt lat="45.1541257" lon="7.6444444"><ele>261.0</ele><time>2026-04-25T09:20:01.275Z</time></trkpt><trkpt lat="45.1542321" lon="7.6444594"><ele>261.0</ele><time>2026-04-25T09:20:02.266Z</time></trkpt><trkpt lat="45.1543532" lon="7.6445004"><ele>261.0</ele><time>2026-04-25T09:20:03.263Z</time></trkpt><trkpt lat="45.1544916" lon="7.6445569"><ele>261.0</ele><time>2026-04-25T09:20:04.263Z</time></trkpt><trkpt lat="45.154641" lon="7.644606"><ele>261.6666666666667</ele><time>2026-04-25T09:20:05.268Z</time></trkpt><trkpt lat="45.1548153" lon="7.6446674"><ele>262.33333333333337</ele><time>2026-04-25T09:20:06.269Z</time></trkpt><trkpt lat="45.154968" lon="7.6447384"><ele>263.0</ele><time>2026-04-25T09:20:07.266Z</time></trkpt><trkpt lat="45.1551023" lon="7.6447912"><ele>263.0</ele><time>2026-04-25T09:20:08.276Z</time></trkpt><trkpt lat="45.1552733" lon="7.6448644"><ele>263.0</ele><time>2026-04-25T09:20:09.267Z</time></trkpt><trkpt lat="45.1554272" lon="7.64491"><ele>263.0</ele><time>2026-04-25T09:20:10.276Z</time></trkpt><trkpt lat="45.155568" lon="7.6449926"><ele>263.0</ele><time>2026-04-25T09:20:11.275Z</time></trkpt><trkpt lat="45.1556982" lon="7.6450756"><ele>263.0</ele><time>2026-04-25T09:20:12.274Z</time></trkpt><trkpt lat="45.1558452" lon="7.6451484"><ele>263.0</ele><time>2026-04-25T09:20:13.272Z</time></trkpt><trkpt lat="45.1559725" lon="7.6452467"><ele>263.0</ele><time>2026-04-25T09:20:14.28Z</time></trkpt><trkpt lat="45.1561133" lon="7.6453352"><ele>262.6666666666667</ele><time>2026-04-25T09:20:15.28Z</time></trkpt><trkpt lat="45.1562477" lon="7.6454094"><ele>262.3333333333333</ele><time>2026-04-25T09:20:16.277Z</time></trkpt><trkpt lat="45.1563929" lon="7.6455349"><ele>262.0</ele><time>2026-04-25T09:20:17.287Z</time></trkpt><trkpt lat="45.156519" lon="7.6456751"><ele>262.3333333333333</ele><time>2026-04-25T09:20:18.28Z</time></trkpt><trkpt lat="45.156679" lon="7.6458027"><ele>262.6666666666667</ele><time>2026-04-25T09:20:19.283Z</time></trkpt><trkpt lat="45.1568112" lon="7.6459473"><ele>263.0</ele><time>2026-04-25T09:20:20.281Z</time></trkpt><trkpt lat="45.1569346" lon="7.6460699"><ele>263.6666666666667</ele><time>2026-04-25T09:20:21.286Z</time></trkpt><trkpt lat="45.1570524" lon="7.6462186"><ele>264.3333333333333</ele><time>2026-04-25T09:20:22.278Z</time></trkpt><trkpt lat="45.1571654" lon="7.6463756"><ele>265.0</ele><time>2026-04-25T09:20:23.279Z</time></trkpt><trkpt lat="45.1572729" lon="7.6465695"><ele>264.66666666666663</ele><time>2026-04-25T09:20:24.282Z</time></trkpt><trkpt lat="45.1573908" lon="7.6467624"><ele>264.3333333333333</ele><time>2026-04-25T09:20:25.273Z</time></trkpt><trkpt lat="45.1574863" lon="7.6469502"><ele>264.0</ele><time>2026-04-25T09:20:26.28Z</time></trkpt><trkpt lat="45.1575831" lon="7.6471548"><ele>263.3333333333333</ele><time>2026-04-25T09:20:27.28Z</time></trkpt><trkpt lat="45.157663" lon="7.6473758"><ele>262.66666666666663</ele><time>2026-04-25T09:20:28.283Z</time></trkpt><trkpt lat="45.1577461" lon="7.6475751"><ele>262.0</ele><time>2026-04-25T09:20:29.282Z</time></trkpt><trkpt lat="45.1578115" lon="7.6477891"><ele>262.0</ele><time>2026-04-25T09:20:30.278Z</time></trkpt><trkpt lat="45.1578906" lon="7.6480015"><ele>262.0</ele><time>2026-04-25T09:20:31.275Z</time></trkpt><trkpt lat="45.1579728" lon="7.6482445"><ele>262.0</ele><time>2026-04-25T09:20:32.288Z</time></trkpt><trkpt lat="45.1580282" lon="7.6484762"><ele>262.0</ele><time>2026-04-25T09:20:33.273Z</time></trkpt><trkpt lat="45.1581062" lon="7.6486857"><ele>262.0</ele><time>2026-04-25T09:20:34.273Z</time></trkpt><trkpt lat="45.1581751" lon="7.6489094"><ele>262.0</ele><time>2026-04-25T09:20:35.274Z</time></trkpt><trkpt lat="45.1582593" lon="7.6491473"><ele>262.0</ele><time>2026-04-25T09:20:36.27Z</time></trkpt><trkpt lat="45.1583404" lon="7.6493902"><ele>262.0</ele><time>2026-04-25T09:20:37.273Z</time></trkpt><trkpt lat="45.1584083" lon="7.6496052"><ele>262.0</ele><time>2026-04-25T09:20:38.271Z</time></trkpt><trkpt lat="45.1584849" lon="7.6498355"><ele>262.0</ele><time>2026-04-25T09:20:39.271Z</time></trkpt><trkpt lat="45.1585592" lon="7.6500994"><ele>262.0</ele><time>2026-04-25T09:20:40.275Z</time></trkpt><trkpt lat="45.1586373" lon="7.6503116"><ele>262.0</ele><time>2026-04-25T09:20:41.268Z</time></trkpt><trkpt lat="45.1587068" lon="7.6505358"><ele>262.0</ele><time>2026-04-25T09:20:42.278Z</time></trkpt><trkpt lat="45.1587753" lon="7.6507657"><ele>262.0</ele><time>2026-04-25T09:20:43.267Z</time></trkpt><trkpt lat="45.1588533" lon="7.650983"><ele>262.0</ele><time>2026-04-25T09:20:44.276Z</time></trkpt><trkpt lat="45.1589473" lon="7.6512168"><ele>262.0</ele><time>2026-04-25T09:20:45.27Z</time></trkpt><trkpt lat="45.1589975" lon="7.6514625"><ele>262.0</ele><time>2026-04-25T09:20:46.264Z</time></trkpt><trkpt lat="45.1590425" lon="7.6517161"><ele>262.0</ele><time>2026-04-25T09:20:47.274Z</time></trkpt><trkpt lat="45.159097" lon="7.6519654"><ele>262.0</ele><time>2026-04-25T09:20:48.275Z</time></trkpt><trkpt lat="45.1591309" lon="7.6522223"><ele>262.0</ele><time>2026-04-25T09:20:49.278Z</time></trkpt><trkpt lat="45.159169" lon="7.6524771"><ele>262.0</ele><time>2026-04-25T09:20:50.274Z</time></trkpt><trkpt lat="45.1591975" lon="7.6527139"><ele>261.3333333333333</ele><time>2026-04-25T09:20:51.268Z</time></trkpt><trkpt lat="45.1592104" lon="7.6529468"><ele>260.6666666666667</ele><time>2026-04-25T09:20:52.276Z</time></trkpt><trkpt lat="45.1592323" lon="7.6531679"><ele>260.0</ele><time>2026-04-25T09:20:53.266Z</time></trkpt><trkpt lat="45.1592435" lon="7.6533829"><ele>260.0</ele><time>2026-04-25T09:20:54.277Z</time></trkpt><trkpt lat="45.15926" lon="7.6535679"><ele>260.0</ele><time>2026-04-25T09:20:55.264Z</time></trkpt><trkpt lat="45.1592505" lon="7.6537454"><ele>260.0</ele><time>2026-04-25T09:20:56.269Z</time></trkpt><trkpt lat="45.1592545" lon="7.6539134"><ele>260.0</ele><time>2026-04-25T09:20:57.269Z</time></trkpt><trkpt lat="45.1592693" lon="7.6540622"><ele>259.83333333333337</ele><time>2026-04-25T09:20:58.267Z</time></trkpt><trkpt lat="45.1592748" lon="7.6541966"><ele>259.6666666666667</ele><time>2026-04-25T09:20:59.27Z</time></trkpt><trkpt lat="45.1592759" lon="7.654316"><ele>259.5</ele><time>2026-04-25T09:21:00.265Z</time></trkpt><trkpt lat="45.1592521" lon="7.6544542"><ele>259.3333333333333</ele><time>2026-04-25T09:21:01.265Z</time></trkpt><trkpt lat="45.1592175" lon="7.6545365"><ele>259.16666666666663</ele><time>2026-04-25T09:21:02.263Z</time></trkpt><trkpt lat="45.1591559" lon="7.6546288"><ele>259.0</ele><time>2026-04-25T09:21:03.278Z</time></trkpt><trkpt lat="45.15911" lon="7.654722"><ele>259.0</ele><time>2026-04-25T09:21:04.268Z</time></trkpt><trkpt lat="45.1590904" lon="7.6548222"><ele>259.0</ele><time>2026-04-25T09:21:05.255Z</time></trkpt><trkpt lat="45.1590796" lon="7.6549293"><ele>259.0</ele><time>2026-04-25T09:21:06.261Z</time></trkpt><trkpt lat="45.1590949" lon="7.6550457"><ele>259.0</ele><time>2026-04-25T09:21:07.256Z</time></trkpt><trkpt lat="45.1591336" lon="7.6551595"><ele>259.0</ele><time>2026-04-25T09:21:08.256Z</time></trkpt><trkpt lat="45.1591991" lon="7.6552589"><ele>259.0</ele><time>2026-04-25T09:21:09.252Z</time></trkpt><trkpt lat="45.1592705" lon="7.6553195"><ele>259.0</ele><time>2026-04-25T09:21:10.255Z</time></trkpt><trkpt lat="45.1593547" lon="7.6553531"><ele>259.0</ele><time>2026-04-25T09:21:11.251Z</time></trkpt><trkpt lat="45.1594486" lon="7.6553458"><ele>259.0</ele><time>2026-04-25T09:21:12.254Z</time></trkpt><trkpt lat="45.1595401" lon="7.655299"><ele>259.0</ele><time>2026-04-25T09:21:13.258Z</time></trkpt><trkpt lat="45.1596077" lon="7.6552186"><ele>259.0</ele><time>2026-04-25T09:21:14.254Z</time></trkpt><trkpt lat="45.1596831" lon="7.6551284"><ele>259.0</ele><time>2026-04-25T09:21:15.254Z</time></trkpt><trkpt lat="45.1597438" lon="7.6550285"><ele>259.0</ele><time>2026-04-25T09:21:16.256Z</time></trkpt><trkpt lat="45.1598293" lon="7.6549588"><ele>259.0</ele><time>2026-04-25T09:21:17.254Z</time></trkpt><trkpt lat="45.1599505" lon="7.6549076"><ele>259.0</ele><time>2026-04-25T09:21:18.254Z</time></trkpt><trkpt lat="45.1600965" lon="7.6548763"><ele>259.66666666666663</ele><time>2026-04-25T09:21:19.261Z</time></trkpt><trkpt lat="45.1602368" lon="7.6548422"><ele>260.3333333333333</ele><time>2026-04-25T09:21:20.254Z</time></trkpt><trkpt lat="45.1603892" lon="7.6548374"><ele>261.0</ele><time>2026-04-25T09:21:21.266Z</time></trkpt><trkpt lat="45.1605518" lon="7.6548362"><ele>261.0</ele><time>2026-04-25T09:21:22.268Z</time></trkpt><trkpt lat="45.1607334" lon="7.654838"><ele>261.0</ele><time>2026-04-25T09:21:23.266Z</time></trkpt><trkpt lat="45.1608938" lon="7.6548253"><ele>261.0</ele><time>2026-04-25T09:21:24.267Z</time></trkpt><trkpt lat="45.1610328" lon="7.6548229"><ele>261.0</ele><time>2026-04-25T09:21:25.263Z</time></trkpt><trkpt lat="45.161152" lon="7.6548064"><ele>261.0</ele><time>2026-04-25T09:21:26.271Z</time></trkpt><trkpt lat="45.1612767" lon="7.6548258"><ele>261.0</ele><time>2026-04-25T09:21:27.269Z</time></trkpt><trkpt lat="45.1614079" lon="7.6548129"><ele>261.0</ele><time>2026-04-25T09:21:28.27Z</time></trkpt><trkpt lat="45.1615588" lon="7.6548274"><ele>261.6666666666667</ele><time>2026-04-25T09:21:29.273Z</time></trkpt><trkpt lat="45.1617098" lon="7.6548382"><ele>262.33333333333337</ele><time>2026-04-25T09:21:30.27Z</time></trkpt><trkpt lat="45.1618769" lon="7.6548544"><ele>263.0</ele><time>2026-04-25T09:21:31.27Z</time></trkpt><trkpt lat="45.1620164" lon="7.6548357"><ele>263.0</ele><time>2026-04-25T09:21:32.27Z</time></trkpt><trkpt lat="45.1621514" lon="7.6548408"><ele>263.0</ele><time>2026-04-25T09:21:33.277Z</time></trkpt><trkpt lat="45.162288" lon="7.6548405"><ele>263.0</ele><time>2026-04-25T09:21:34.275Z</time></trkpt><trkpt lat="45.1624016" lon="7.654825"><ele>263.0</ele><time>2026-04-25T09:21:35.275Z</time></trkpt><trkpt lat="45.1625184" lon="7.6548442"><ele>263.25</ele><time>2026-04-25T09:21:36.273Z</time></trkpt><trkpt lat="45.1626654" lon="7.654853"><ele>263.5</ele><time>2026-04-25T09:21:37.273Z</time></trkpt><trkpt lat="45.1627917" lon="7.6548549"><ele>263.75</ele><time>2026-04-25T09:21:38.27Z</time></trkpt><trkpt lat="45.1629253" lon="7.6548585"><ele>264.0</ele><time>2026-04-25T09:21:39.273Z</time></trkpt><trkpt lat="45.1630479" lon="7.6548889"><ele>264.0</ele><time>2026-04-25T09:21:40.271Z</time></trkpt><trkpt lat="45.1631838" lon="7.6549055"><ele>264.0</ele><time>2026-04-25T09:21:41.271Z</time></trkpt><trkpt lat="45.1633243" lon="7.6549009"><ele>264.0</ele><time>2026-04-25T09:21:42.271Z</time></trkpt><trkpt lat="45.1634585" lon="7.6548791"><ele>264.0</ele><time>2026-04-25T09:21:43.274Z</time></trkpt><trkpt lat="45.1636051" lon="7.6548936"><ele>264.0</ele><time>2026-04-25T09:21:44.267Z</time></trkpt><trkpt lat="45.1637348" lon="7.6549079"><ele>264.0</ele><time>2026-04-25T09:21:45.272Z</time></trkpt><trkpt lat="45.1638568" lon="7.6549009"><ele>264.0</ele><time>2026-04-25T09:21:46.275Z</time></trkpt><trkpt lat="45.1639843" lon="7.6548967"><ele>264.0</ele><time>2026-04-25T09:21:47.28Z</time></trkpt><trkpt lat="45.1640996" lon="7.6548924"><ele>264.0</ele><time>2026-04-25T09:21:48.273Z</time></trkpt><trkpt lat="45.164228" lon="7.6548977"><ele>264.0</ele><time>2026-04-25T09:21:49.281Z</time></trkpt><trkpt lat="45.1643635" lon="7.6548785"><ele>264.0</ele><time>2026-04-25T09:21:50.27Z</time></trkpt><trkpt lat="45.1644886" lon="7.6548535"><ele>264.0</ele><time>2026-04-25T09:21:51.265Z</time></trkpt><trkpt lat="45.1646061" lon="7.6548087"><ele>264.0</ele><time>2026-04-25T09:21:52.263Z</time></trkpt><trkpt lat="45.1647178" lon="7.6547347"><ele>264.0</ele><time>2026-04-25T09:21:53.272Z</time></trkpt><trkpt lat="45.1648262" lon="7.6546605"><ele>264.0</ele><time>2026-04-25T09:21:54.273Z</time></trkpt><trkpt lat="45.1649422" lon="7.6545861"><ele>264.0</ele><time>2026-04-25T09:21:55.271Z</time></trkpt><trkpt lat="45.1650547" lon="7.6545236"><ele>264.25</ele><time>2026-04-25T09:21:56.271Z</time></trkpt><trkpt lat="45.1651659" lon="7.6544407"><ele>264.5</ele><time>2026-04-25T09:21:57.267Z</time></trkpt><trkpt lat="45.1652809" lon="7.6543572"><ele>264.75</ele><time>2026-04-25T09:21:58.278Z</time></trkpt><trkpt lat="45.1653998" lon="7.6542747"><ele>265.0</ele><time>2026-04-25T09:21:59.272Z</time></trkpt><trkpt lat="45.1655202" lon="7.6542094"><ele>265.0</ele><time>2026-04-25T09:22:00.268Z</time></trkpt><trkpt lat="45.1656419" lon="7.6541399"><ele>265.0</ele><time>2026-04-25T09:22:01.274Z</time></trkpt><trkpt lat="45.1657606" lon="7.6540693"><ele>265.0</ele><time>2026-04-25T09:22:02.269Z</time></trkpt><trkpt lat="45.1658706" lon="7.6540002"><ele>265.0</ele><time>2026-04-25T09:22:03.27Z</time></trkpt><trkpt lat="45.1659761" lon="7.6539372"><ele>265.0</ele><time>2026-04-25T09:22:04.274Z</time></trkpt><trkpt lat="45.1660724" lon="7.653882"><ele>265.0</ele><time>2026-04-25T09:22:05.286Z</time></trkpt><trkpt lat="45.1661785" lon="7.653824"><ele>265.0</ele><time>2026-04-25T09:22:06.272Z</time></trkpt><trkpt lat="45.166282" lon="7.6537617"><ele>265.0</ele><time>2026-04-25T09:22:07.274Z</time></trkpt><trkpt lat="45.1663835" lon="7.6537079"><ele>265.0</ele><time>2026-04-25T09:22:08.273Z</time></trkpt><trkpt lat="45.1664753" lon="7.6536539"><ele>265.2</ele><time>2026-04-25T09:22:09.267Z</time></trkpt><trkpt lat="45.1665686" lon="7.6535915"><ele>265.4</ele><time>2026-04-25T09:22:10.272Z</time></trkpt><trkpt lat="45.1666774" lon="7.6535393"><ele>265.6</ele><time>2026-04-25T09:22:11.269Z</time></trkpt><trkpt lat="45.1667867" lon="7.6534911"><ele>265.8</ele><time>2026-04-25T09:22:12.275Z</time></trkpt><trkpt lat="45.166889" lon="7.6534444"><ele>266.0</ele><time>2026-04-25T09:22:13.271Z</time></trkpt><trkpt lat="45.1669785" lon="7.6533912"><ele>266.0</ele><time>2026-04-25T09:22:14.274Z</time></trkpt><trkpt lat="45.1670602" lon="7.6533446"><ele>266.0</ele><time>2026-04-25T09:22:15.274Z</time></trkpt><trkpt lat="45.1671552" lon="7.6533027"><ele>266.0</ele><time>2026-04-25T09:22:16.27Z</time></trkpt><trkpt lat="45.1672657" lon="7.6532537"><ele>266.0</ele><time>2026-04-25T09:22:17.274Z</time></trkpt><trkpt lat="45.167377" lon="7.6531689"><ele>266.0</ele><time>2026-04-25T09:22:18.273Z</time></trkpt><trkpt lat="45.1675008" lon="7.6530999"><ele>266.2</ele><time>2026-04-25T09:22:19.275Z</time></trkpt><trkpt lat="45.1676195" lon="7.6530364"><ele>266.40000000000003</ele><time>2026-04-25T09:22:20.269Z</time></trkpt><trkpt lat="45.1677298" lon="7.6529811"><ele>266.6</ele><time>2026-04-25T09:22:21.257Z</time></trkpt><trkpt lat="45.1678219" lon="7.6529233"><ele>266.8</ele><time>2026-04-25T09:22:22.26Z</time></trkpt><trkpt lat="45.1679152" lon="7.6528783"><ele>267.0</ele><time>2026-04-25T09:22:23.265Z</time></trkpt><trkpt lat="45.1679951" lon="7.6528301"><ele>267.1666666666667</ele><time>2026-04-25T09:22:24.263Z</time></trkpt><trkpt lat="45.1680846" lon="7.6527884"><ele>267.3333333333333</ele><time>2026-04-25T09:22:25.265Z</time></trkpt><trkpt lat="45.1681652" lon="7.6527361"><ele>267.5</ele><time>2026-04-25T09:22:26.261Z</time></trkpt><trkpt lat="45.168244" lon="7.6527003"><ele>267.66666666666663</ele><time>2026-04-25T09:22:27.262Z</time></trkpt><trkpt lat="45.1683138" lon="7.652656"><ele>267.8333333333333</ele><time>2026-04-25T09:22:28.264Z</time></trkpt><trkpt lat="45.1683831" lon="7.652608"><ele>268.0</ele><time>2026-04-25T09:22:29.266Z</time></trkpt><trkpt lat="45.1684445" lon="7.6525698"><ele>268.2</ele><time>2026-04-25T09:22:30.263Z</time></trkpt><trkpt lat="45.1685372" lon="7.6525341"><ele>268.4</ele><time>2026-04-25T09:22:32.264Z</time></trkpt><trkpt lat="45.1686638" lon="7.6525269"><ele>268.59999999999997</ele><time>2026-04-25T09:22:34.253Z</time></trkpt><trkpt lat="45.1687481" lon="7.6524917"><ele>268.8</ele><time>2026-04-25T09:22:35.25Z</time></trkpt><trkpt lat="45.1688281" lon="7.652405"><ele>269.0</ele><time>2026-04-25T09:22:36.271Z</time></trkpt><trkpt lat="45.1688958" lon="7.6522907"><ele>269.0</ele><time>2026-04-25T09:22:37.256Z</time></trkpt><trkpt lat="45.1689547" lon="7.6521941"><ele>269.0</ele><time>2026-04-25T09:22:38.247Z</time></trkpt><trkpt lat="45.1690312" lon="7.6521149"><ele>269.0</ele><time>2026-04-25T09:22:39.254Z</time></trkpt><trkpt lat="45.1691436" lon="7.6520484"><ele>269.0</ele><time>2026-04-25T09:22:40.255Z</time></trkpt><trkpt lat="45.1692679" lon="7.6519774"><ele>269.0</ele><time>2026-04-25T09:22:41.263Z</time></trkpt><trkpt lat="45.1694033" lon="7.651913"><ele>269.4</ele><time>2026-04-25T09:22:42.261Z</time></trkpt><trkpt lat="45.1695154" lon="7.6518459"><ele>269.79999999999995</ele><time>2026-04-25T09:22:43.26Z</time></trkpt><trkpt lat="45.1696203" lon="7.6517908"><ele>270.20000000000005</ele><time>2026-04-25T09:22:44.266Z</time></trkpt><trkpt lat="45.1697152" lon="7.6517355"><ele>270.6</ele><time>2026-04-25T09:22:45.264Z</time></trkpt><trkpt lat="45.1698092" lon="7.6516749"><ele>271.0</ele><time>2026-04-25T09:22:46.265Z</time></trkpt><trkpt lat="45.1699014" lon="7.6516105"><ele>271.40000000000003</ele><time>2026-04-25T09:22:47.27Z</time></trkpt><trkpt lat="45.1700063" lon="7.6515477"><ele>271.8</ele><time>2026-04-25T09:22:48.272Z</time></trkpt><trkpt lat="45.1701053" lon="7.6514942"><ele>272.20000000000005</ele><time>2026-04-25T09:22:49.272Z</time></trkpt><trkpt lat="45.1702004" lon="7.6514431"><ele>272.6</ele><time>2026-04-25T09:22:50.267Z</time></trkpt><trkpt lat="45.1702904" lon="7.6513906"><ele>273.0</ele><time>2026-04-25T09:22:51.267Z</time></trkpt><trkpt lat="45.1703865" lon="7.6513489"><ele>273.0</ele><time>2026-04-25T09:22:52.266Z</time></trkpt><trkpt lat="45.170467" lon="7.6513112"><ele>273.0</ele><time>2026-04-25T09:22:53.265Z</time></trkpt><trkpt lat="45.1705424" lon="7.6512669"><ele>273.0</ele><time>2026-04-25T09:22:54.267Z</time></trkpt><trkpt lat="45.1706221" lon="7.6512238"><ele>273.0</ele><time>2026-04-25T09:22:55.269Z</time></trkpt><trkpt lat="45.1707171" lon="7.6511775"><ele>273.0</ele><time>2026-04-25T09:22:56.268Z</time></trkpt><trkpt lat="45.1708114" lon="7.6511503"><ele>273.0</ele><time>2026-04-25T09:22:57.265Z</time></trkpt><trkpt lat="45.1709044" lon="7.6511223"><ele>273.0</ele><time>2026-04-25T09:22:58.267Z</time></trkpt><trkpt lat="45.1709921" lon="7.6511059"><ele>273.0</ele><time>2026-04-25T09:22:59.268Z</time></trkpt><trkpt lat="45.1710689" lon="7.6510862"><ele>273.0</ele><time>2026-04-25T09:23:00.269Z</time></trkpt><trkpt lat="45.171158" lon="7.6510714"><ele>273.0</ele><time>2026-04-25T09:23:01.269Z</time></trkpt><trkpt lat="45.1712291" lon="7.6510583"><ele>273.0</ele><time>2026-04-25T09:23:02.267Z</time></trkpt><trkpt lat="45.1713535" lon="7.6510387"><ele>273.0</ele><time>2026-04-25T09:23:04.27Z</time></trkpt><trkpt lat="45.1714559" lon="7.6510657"><ele>273.0</ele><time>2026-04-25T09:23:06.259Z</time></trkpt><trkpt lat="45.1715358" lon="7.6510871"><ele>273.0</ele><time>2026-04-25T09:23:07.268Z</time></trkpt><trkpt lat="45.1716237" lon="7.6510967"><ele>273.0</ele><time>2026-04-25T09:23:08.263Z</time></trkpt><trkpt lat="45.1717433" lon="7.6510665"><ele>273.0</ele><time>2026-04-25T09:23:09.263Z</time></trkpt><trkpt lat="45.1718575" lon="7.6510745"><ele>273.0</ele><time>2026-04-25T09:23:10.262Z</time></trkpt><trkpt lat="45.1719652" lon="7.6511067"><ele>273.0</ele><time>2026-04-25T09:23:11.263Z</time></trkpt><trkpt lat="45.1720721" lon="7.6511076"><ele>273.0</ele><time>2026-04-25T09:23:12.263Z</time></trkpt><trkpt lat="45.1721781" lon="7.6511301"><ele>273.0</ele><time>2026-04-25T09:23:13.266Z</time></trkpt><trkpt lat="45.172304" lon="7.6511551"><ele>272.75</ele><time>2026-04-25T09:23:14.262Z</time></trkpt><trkpt lat="45.1724418" lon="7.6511759"><ele>272.5</ele><time>2026-04-25T09:23:15.265Z</time></trkpt><trkpt lat="45.1725803" lon="7.6511951"><ele>272.25</ele><time>2026-04-25T09:23:16.264Z</time></trkpt><trkpt lat="45.1727115" lon="7.65122"><ele>272.0</ele><time>2026-04-25T09:23:17.263Z</time></trkpt><trkpt lat="45.1728017" lon="7.6512393"><ele>272.0</ele><time>2026-04-25T09:23:18.268Z</time></trkpt><trkpt lat="45.1729014" lon="7.6512793"><ele>272.0</ele><time>2026-04-25T09:23:19.272Z</time></trkpt><trkpt lat="45.172999" lon="7.6512992"><ele>272.0</ele><time>2026-04-25T09:23:20.269Z</time></trkpt><trkpt lat="45.1730984" lon="7.6513066"><ele>272.0</ele><time>2026-04-25T09:23:21.266Z</time></trkpt><trkpt lat="45.1732088" lon="7.651333"><ele>272.0</ele><time>2026-04-25T09:23:22.264Z</time></trkpt><trkpt lat="45.1733095" lon="7.6513262"><ele>272.0</ele><time>2026-04-25T09:23:23.27Z</time></trkpt><trkpt lat="45.1734073" lon="7.651341"><ele>272.0</ele><time>2026-04-25T09:23:24.264Z</time></trkpt><trkpt lat="45.1735105" lon="7.6513451"><ele>272.0</ele><time>2026-04-25T09:23:25.268Z</time></trkpt><trkpt lat="45.173619" lon="7.6513463"><ele>272.0</ele><time>2026-04-25T09:23:26.27Z</time></trkpt><trkpt lat="45.173713" lon="7.6513341"><ele>272.0</ele><time>2026-04-25T09:23:27.265Z</time></trkpt><trkpt lat="45.1738066" lon="7.6513238"><ele>272.0</ele><time>2026-04-25T09:23:28.267Z</time></trkpt><trkpt lat="45.1739083" lon="7.6513069"><ele>272.0</ele><time>2026-04-25T09:23:29.266Z</time></trkpt><trkpt lat="45.1740027" lon="7.6512727"><ele>272.0</ele><time>2026-04-25T09:23:30.265Z</time></trkpt><trkpt lat="45.1741008" lon="7.6512439"><ele>272.0</ele><time>2026-04-25T09:23:31.269Z</time></trkpt><trkpt lat="45.1742022" lon="7.651211"><ele>272.0</ele><time>2026-04-25T09:23:32.265Z</time></trkpt><trkpt lat="45.174284" lon="7.6511767"><ele>272.5</ele><time>2026-04-25T09:23:33.268Z</time></trkpt><trkpt lat="45.1743622" lon="7.6511526"><ele>273.0</ele><time>2026-04-25T09:23:34.266Z</time></trkpt><trkpt lat="45.1744362" lon="7.6511335"><ele>273.5</ele><time>2026-04-25T09:23:35.265Z</time></trkpt><trkpt lat="45.1745601" lon="7.6510956"><ele>274.0</ele><time>2026-04-25T09:23:37.261Z</time></trkpt><trkpt lat="45.174636" lon="7.6510562"><ele>274.5</ele><time>2026-04-25T09:23:38.271Z</time></trkpt><trkpt lat="45.1747149" lon="7.6510366"><ele>275.0</ele><time>2026-04-25T09:23:39.261Z</time></trkpt><trkpt lat="45.1747834" lon="7.6510159"><ele>275.1666666666667</ele><time>2026-04-25T09:23:40.263Z</time></trkpt><trkpt lat="45.1748549" lon="7.65099"><ele>275.33333333333337</ele><time>2026-04-25T09:23:41.269Z</time></trkpt><trkpt lat="45.1749283" lon="7.6509638"><ele>275.5</ele><time>2026-04-25T09:23:42.268Z</time></trkpt><trkpt lat="45.1750064" lon="7.6509259"><ele>275.6666666666667</ele><time>2026-04-25T09:23:43.263Z</time></trkpt><trkpt lat="45.1750852" lon="7.6509017"><ele>275.8333333333333</ele><time>2026-04-25T09:23:44.266Z</time></trkpt><trkpt lat="45.175169" lon="7.6508692"><ele>276.0</ele><time>2026-04-25T09:23:45.269Z</time></trkpt><trkpt lat="45.1752574" lon="7.6508195"><ele>276.0</ele><time>2026-04-25T09:23:46.269Z</time></trkpt><trkpt lat="45.1753502" lon="7.6507829"><ele>276.0</ele><time>2026-04-25T09:23:47.266Z</time></trkpt><trkpt lat="45.1754225" lon="7.6507591"><ele>276.0</ele><time>2026-04-25T09:23:48.268Z</time></trkpt><trkpt lat="45.1754994" lon="7.6507386"><ele>276.0</ele><time>2026-04-25T09:23:49.267Z</time></trkpt><trkpt lat="45.1755794" lon="7.6507169"><ele>276.0</ele><time>2026-04-25T09:23:50.268Z</time></trkpt><trkpt lat="45.1756705" lon="7.6506867"><ele>276.0</ele><time>2026-04-25T09:23:51.27Z</time></trkpt><trkpt lat="45.1757637" lon="7.6506561"><ele>276.40000000000003</ele><time>2026-04-25T09:23:52.268Z</time></trkpt><trkpt lat="45.1758587" lon="7.6506286"><ele>276.8</ele><time>2026-04-25T09:23:53.27Z</time></trkpt><trkpt lat="45.1759588" lon="7.650599"><ele>277.20000000000005</ele><time>2026-04-25T09:23:54.27Z</time></trkpt><trkpt lat="45.1760701" lon="7.6505559"><ele>277.6</ele><time>2026-04-25T09:23:55.269Z</time></trkpt><trkpt lat="45.1761771" lon="7.6505265"><ele>278.0</ele><time>2026-04-25T09:23:56.268Z</time></trkpt><trkpt lat="45.1762713" lon="7.6504959"><ele>278.0</ele><time>2026-04-25T09:23:57.27Z</time></trkpt><trkpt lat="45.1763707" lon="7.6504765"><ele>278.0</ele><time>2026-04-25T09:23:58.269Z</time></trkpt><trkpt lat="45.1764628" lon="7.6504318"><ele>278.0</ele><time>2026-04-25T09:23:59.268Z</time></trkpt><trkpt lat="45.1765624" lon="7.650394"><ele>278.0</ele><time>2026-04-25T09:24:00.266Z</time></trkpt><trkpt lat="45.1766681" lon="7.6503612"><ele>278.0</ele><time>2026-04-25T09:24:01.269Z</time></trkpt><trkpt lat="45.176775" lon="7.6503265"><ele>277.75</ele><time>2026-04-25T09:24:02.264Z</time></trkpt><trkpt lat="45.1768989" lon="7.6502907"><ele>277.5</ele><time>2026-04-25T09:24:03.268Z</time></trkpt><trkpt lat="45.1770292" lon="7.6502508"><ele>277.25</ele><time>2026-04-25T09:24:04.267Z</time></trkpt><trkpt lat="45.1771547" lon="7.6502057"><ele>277.0</ele><time>2026-04-25T09:24:05.268Z</time></trkpt><trkpt lat="45.1772607" lon="7.650165"><ele>277.2</ele><time>2026-04-25T09:24:06.266Z</time></trkpt><trkpt lat="45.1773556" lon="7.6501379"><ele>277.4</ele><time>2026-04-25T09:24:07.269Z</time></trkpt><trkpt lat="45.1774522" lon="7.6501125"><ele>277.6</ele><time>2026-04-25T09:24:08.269Z</time></trkpt><trkpt lat="45.1775624" lon="7.6500886"><ele>277.8</ele><time>2026-04-25T09:24:09.282Z</time></trkpt><trkpt lat="45.1776586" lon="7.6500499"><ele>278.0</ele><time>2026-04-25T09:24:10.264Z</time></trkpt><trkpt lat="45.1777539" lon="7.6500289"><ele>278.0</ele><time>2026-04-25T09:24:11.267Z</time></trkpt><trkpt lat="45.1778455" lon="7.6500024"><ele>278.0</ele><time>2026-04-25T09:24:12.27Z</time></trkpt><trkpt lat="45.1779295" lon="7.6499671"><ele>278.0</ele><time>2026-04-25T09:24:13.267Z</time></trkpt><trkpt lat="45.1780076" lon="7.6499407"><ele>278.0</ele><time>2026-04-25T09:24:14.271Z</time></trkpt><trkpt lat="45.1780749" lon="7.6499422"><ele>278.0</ele><time>2026-04-25T09:24:15.262Z</time></trkpt><trkpt lat="45.1781415" lon="7.6499586"><ele>278.0</ele><time>2026-04-25T09:24:16.268Z</time></trkpt><trkpt lat="45.1782629" lon="7.6500225"><ele>277.75</ele><time>2026-04-25T09:24:18.271Z</time></trkpt><trkpt lat="45.1783264" lon="7.6501064"><ele>277.5</ele><time>2026-04-25T09:24:19.272Z</time></trkpt><trkpt lat="45.1783951" lon="7.6502261"><ele>277.25</ele><time>2026-04-25T09:24:20.265Z</time></trkpt><trkpt lat="45.1784626" lon="7.6503764"><ele>277.0</ele><time>2026-04-25T09:24:21.264Z</time></trkpt><trkpt lat="45.1785444" lon="7.6505623"><ele>277.0</ele><time>2026-04-25T09:24:22.271Z</time></trkpt><trkpt lat="45.1786145" lon="7.6507596"><ele>277.0</ele><time>2026-04-25T09:24:23.261Z</time></trkpt><trkpt lat="45.1787022" lon="7.6509986"><ele>277.0</ele><time>2026-04-25T09:24:24.26Z</time></trkpt><trkpt lat="45.1787968" lon="7.6512213"><ele>277.0</ele><time>2026-04-25T09:24:25.259Z</time></trkpt><trkpt lat="45.17888" lon="7.651438"><ele>277.0</ele><time>2026-04-25T09:24:26.262Z</time></trkpt><trkpt lat="45.1789696" lon="7.6516486"><ele>277.0</ele><time>2026-04-25T09:24:27.264Z</time></trkpt><trkpt lat="45.1790391" lon="7.6518833"><ele>276.66666666666663</ele><time>2026-04-25T09:24:28.266Z</time></trkpt><trkpt lat="45.1791352" lon="7.652091"><ele>276.3333333333333</ele><time>2026-04-25T09:24:29.263Z</time></trkpt><trkpt lat="45.1792357" lon="7.6523031"><ele>276.0</ele><time>2026-04-25T09:24:30.264Z</time></trkpt><trkpt lat="45.179344" lon="7.6525436"><ele>276.0</ele><time>2026-04-25T09:24:31.264Z</time></trkpt><trkpt lat="45.1794413" lon="7.652772"><ele>276.0</ele><time>2026-04-25T09:24:32.259Z</time></trkpt><trkpt lat="45.1795426" lon="7.6530021"><ele>276.0</ele><time>2026-04-25T09:24:33.27Z</time></trkpt><trkpt lat="45.1796441" lon="7.6532478"><ele>276.0</ele><time>2026-04-25T09:24:34.263Z</time></trkpt><trkpt lat="45.1797594" lon="7.6534446"><ele>276.0</ele><time>2026-04-25T09:24:35.255Z</time></trkpt><trkpt lat="45.1798256" lon="7.6536549"><ele>276.0</ele><time>2026-04-25T09:24:36.259Z</time></trkpt><trkpt lat="45.179897" lon="7.6538195"><ele>275.5</ele><time>2026-04-25T09:24:37.258Z</time></trkpt><trkpt lat="45.179961" lon="7.6539831"><ele>275.0</ele><time>2026-04-25T09:24:38.266Z</time></trkpt><trkpt lat="45.1800278" lon="7.6541245"><ele>274.5</ele><time>2026-04-25T09:24:39.259Z</time></trkpt><trkpt lat="45.1800735" lon="7.6542657"><ele>274.0</ele><time>2026-04-25T09:24:40.275Z</time></trkpt><trkpt lat="45.1801375" lon="7.654393"><ele>274.0</ele><time>2026-04-25T09:24:41.263Z</time></trkpt><trkpt lat="45.1801638" lon="7.6545029"><ele>274.0</ele><time>2026-04-25T09:24:42.262Z</time></trkpt><trkpt lat="45.1801619" lon="7.6546297"><ele>274.0</ele><time>2026-04-25T09:24:43.264Z</time></trkpt><trkpt lat="45.18016" lon="7.6547826"><ele>274.0</ele><time>2026-04-25T09:24:44.269Z</time></trkpt><trkpt lat="45.1802366" lon="7.6549396"><ele>274.0</ele><time>2026-04-25T09:24:45.256Z</time></trkpt><trkpt lat="45.1802842" lon="7.6551133"><ele>274.3333333333333</ele><time>2026-04-25T09:24:46.253Z</time></trkpt><trkpt lat="45.1803196" lon="7.6553293"><ele>274.6666666666667</ele><time>2026-04-25T09:24:47.259Z</time></trkpt><trkpt lat="45.1803755" lon="7.6555629"><ele>275.0</ele><time>2026-04-25T09:24:48.257Z</time></trkpt><trkpt lat="45.1804441" lon="7.6558086"><ele>275.0</ele><time>2026-04-25T09:24:49.266Z</time></trkpt><trkpt lat="45.1804934" lon="7.6560418"><ele>275.0</ele><time>2026-04-25T09:24:50.259Z</time></trkpt><trkpt lat="45.1805319" lon="7.6562215"><ele>275.0</ele><time>2026-04-25T09:24:51.248Z</time></trkpt><trkpt lat="45.1805184" lon="7.656364"><ele>275.0</ele><time>2026-04-25T09:24:52.262Z</time></trkpt><trkpt lat="45.1804953" lon="7.6565091"><ele>275.0</ele><time>2026-04-25T09:24:53.256Z</time></trkpt><trkpt lat="45.180467" lon="7.656657"><ele>275.0</ele><time>2026-04-25T09:24:54.255Z</time></trkpt><trkpt lat="45.1804977" lon="7.656817"><ele>275.0</ele><time>2026-04-25T09:24:55.253Z</time></trkpt><trkpt lat="45.1805499" lon="7.6569543"><ele>275.0</ele><time>2026-04-25T09:24:56.262Z</time></trkpt><trkpt lat="45.1806787" lon="7.6570745"><ele>274.33333333333337</ele><time>2026-04-25T09:24:57.26Z</time></trkpt><trkpt lat="45.1807788" lon="7.6572502"><ele>273.6666666666667</ele><time>2026-04-25T09:24:58.258Z</time></trkpt><trkpt lat="45.1808512" lon="7.6574565"><ele>273.0</ele><time>2026-04-25T09:24:59.253Z</time></trkpt><trkpt lat="45.1808921" lon="7.6577523"><ele>273.3333333333333</ele><time>2026-04-25T09:25:00.254Z</time></trkpt><trkpt lat="45.1809258" lon="7.6579878"><ele>273.66666666666663</ele><time>2026-04-25T09:25:01.265Z</time></trkpt><trkpt lat="45.1809522" lon="7.6582122"><ele>274.0</ele><time>2026-04-25T09:25:02.255Z</time></trkpt><trkpt lat="45.1809885" lon="7.6584415"><ele>274.0</ele><time>2026-04-25T09:25:03.262Z</time></trkpt><trkpt lat="45.1809961" lon="7.6586935"><ele>274.0</ele><time>2026-04-25T09:25:04.255Z</time></trkpt><trkpt lat="45.1810127" lon="7.6588939"><ele>274.0</ele><time>2026-04-25T09:25:05.26Z</time></trkpt><trkpt lat="45.1810242" lon="7.6591108"><ele>274.0</ele><time>2026-04-25T09:25:06.263Z</time></trkpt><trkpt lat="45.1810417" lon="7.6593254"><ele>274.0</ele><time>2026-04-25T09:25:07.264Z</time></trkpt><trkpt lat="45.1810542" lon="7.6595514"><ele>274.0</ele><time>2026-04-25T09:25:08.266Z</time></trkpt><trkpt lat="45.1810821" lon="7.6597635"><ele>273.75</ele><time>2026-04-25T09:25:09.269Z</time></trkpt><trkpt lat="45.1810942" lon="7.659954"><ele>273.5</ele><time>2026-04-25T09:25:10.27Z</time></trkpt><trkpt lat="45.1811134" lon="7.6601631"><ele>273.25</ele><time>2026-04-25T09:25:11.282Z</time></trkpt><trkpt lat="45.1811316" lon="7.6603628"><ele>273.0</ele><time>2026-04-25T09:25:12.268Z</time></trkpt><trkpt lat="45.1811448" lon="7.6605537"><ele>273.0</ele><time>2026-04-25T09:25:13.267Z</time></trkpt><trkpt lat="45.1811755" lon="7.6607608"><ele>273.0</ele><time>2026-04-25T09:25:14.27Z</time></trkpt><trkpt lat="45.1811916" lon="7.6609708"><ele>273.0</ele><time>2026-04-25T09:25:15.269Z</time></trkpt><trkpt lat="45.1812034" lon="7.6611931"><ele>273.0</ele><time>2026-04-25T09:25:16.267Z</time></trkpt><trkpt lat="45.1812206" lon="7.6614191"><ele>273.0</ele><time>2026-04-25T09:25:17.268Z</time></trkpt><trkpt lat="45.1812369" lon="7.6616249"><ele>273.0</ele><time>2026-04-25T09:25:18.268Z</time></trkpt><trkpt lat="45.181264" lon="7.6618334"><ele>273.0</ele><time>2026-04-25T09:25:19.272Z</time></trkpt><trkpt lat="45.1812842" lon="7.6620473"><ele>273.0</ele><time>2026-04-25T09:25:20.268Z</time></trkpt><trkpt lat="45.1812963" lon="7.6622586"><ele>273.0</ele><time>2026-04-25T09:25:21.269Z</time></trkpt><trkpt lat="45.1813261" lon="7.662455"><ele>273.0</ele><time>2026-04-25T09:25:22.267Z</time></trkpt><trkpt lat="45.1813333" lon="7.6626678"><ele>273.3333333333333</ele><time>2026-04-25T09:25:23.262Z</time></trkpt><trkpt lat="45.1813524" lon="7.6628982"><ele>273.66666666666663</ele><time>2026-04-25T09:25:24.264Z</time></trkpt><trkpt lat="45.1813818" lon="7.6631372"><ele>274.0</ele><time>2026-04-25T09:25:25.262Z</time></trkpt><trkpt lat="45.1813977" lon="7.6633894"><ele>274.0</ele><time>2026-04-25T09:25:26.264Z</time></trkpt><trkpt lat="45.1814236" lon="7.6636037"><ele>274.0</ele><time>2026-04-25T09:25:27.263Z</time></trkpt><trkpt lat="45.1814077" lon="7.6638547"><ele>274.0</ele><time>2026-04-25T09:25:28.266Z</time></trkpt><trkpt lat="45.1813987" lon="7.6640967"><ele>273.3333333333333</ele><time>2026-04-25T09:25:29.265Z</time></trkpt><trkpt lat="45.1814052" lon="7.6643462"><ele>272.6666666666667</ele><time>2026-04-25T09:25:30.264Z</time></trkpt><trkpt lat="45.1813938" lon="7.6646072"><ele>272.0</ele><time>2026-04-25T09:25:31.261Z</time></trkpt><trkpt lat="45.1814091" lon="7.6648393"><ele>271.33333333333337</ele><time>2026-04-25T09:25:32.259Z</time></trkpt><trkpt lat="45.1813972" lon="7.6650986"><ele>270.6666666666667</ele><time>2026-04-25T09:25:33.257Z</time></trkpt><trkpt lat="45.1813935" lon="7.6653169"><ele>270.0</ele><time>2026-04-25T09:25:34.26Z</time></trkpt><trkpt lat="45.1813437" lon="7.6655524"><ele>269.6666666666667</ele><time>2026-04-25T09:25:35.262Z</time></trkpt><trkpt lat="45.1812911" lon="7.6657828"><ele>269.33333333333337</ele><time>2026-04-25T09:25:36.263Z</time></trkpt><trkpt lat="45.1812442" lon="7.6660375"><ele>269.0</ele><time>2026-04-25T09:25:37.264Z</time></trkpt><trkpt lat="45.181214" lon="7.6662775"><ele>269.0</ele><time>2026-04-25T09:25:38.266Z</time></trkpt><trkpt lat="45.18115" lon="7.666518"><ele>269.0</ele><time>2026-04-25T09:25:39.265Z</time></trkpt><trkpt lat="45.1810802" lon="7.6667732"><ele>269.0</ele><time>2026-04-25T09:25:40.27Z</time></trkpt><trkpt lat="45.1810489" lon="7.6670454"><ele>269.0</ele><time>2026-04-25T09:25:41.264Z</time></trkpt><trkpt lat="45.1810388" lon="7.6673142"><ele>269.0</ele><time>2026-04-25T09:25:42.274Z</time></trkpt><trkpt lat="45.1810348" lon="7.6675838"><ele>269.0</ele><time>2026-04-25T09:25:43.267Z</time></trkpt><trkpt lat="45.1810358" lon="7.6678542"><ele>269.0</ele><time>2026-04-25T09:25:44.265Z</time></trkpt><trkpt lat="45.1810274" lon="7.6680903"><ele>269.0</ele><time>2026-04-25T09:25:45.267Z</time></trkpt><trkpt lat="45.1810376" lon="7.6683525"><ele>269.0</ele><time>2026-04-25T09:25:46.271Z</time></trkpt><trkpt lat="45.1810389" lon="7.6686012"><ele>268.6666666666667</ele><time>2026-04-25T09:25:47.27Z</time></trkpt><trkpt lat="45.1810471" lon="7.668871"><ele>268.3333333333333</ele><time>2026-04-25T09:25:48.265Z</time></trkpt><trkpt lat="45.1810491" lon="7.6691601"><ele>268.0</ele><time>2026-04-25T09:25:49.268Z</time></trkpt><trkpt lat="45.1810435" lon="7.6694218"><ele>267.66666666666663</ele><time>2026-04-25T09:25:50.264Z</time></trkpt><trkpt lat="45.1810563" lon="7.6696792"><ele>267.3333333333333</ele><time>2026-04-25T09:25:51.272Z</time></trkpt><trkpt lat="45.1810514" lon="7.6699433"><ele>267.0</ele><time>2026-04-25T09:25:52.261Z</time></trkpt><trkpt lat="45.181063" lon="7.6701951"><ele>267.0</ele><time>2026-04-25T09:25:53.267Z</time></trkpt><trkpt lat="45.1810735" lon="7.6704409"><ele>267.0</ele><time>2026-04-25T09:25:54.263Z</time></trkpt><trkpt lat="45.1810628" lon="7.6707047"><ele>267.0</ele><time>2026-04-25T09:25:55.264Z</time></trkpt><trkpt lat="45.1810547" lon="7.6709737"><ele>267.0</ele><time>2026-04-25T09:25:56.262Z</time></trkpt><trkpt lat="45.1810546" lon="7.6712555"><ele>267.0</ele><time>2026-04-25T09:25:57.263Z</time></trkpt><trkpt lat="45.1810552" lon="7.671533"><ele>267.0</ele><time>2026-04-25T09:25:58.265Z</time></trkpt><trkpt lat="45.181056" lon="7.6717887"><ele>267.0</ele><time>2026-04-25T09:25:59.271Z</time></trkpt><trkpt lat="45.1810474" lon="7.6720076"><ele>267.0</ele><time>2026-04-25T09:26:00.267Z</time></trkpt><trkpt lat="45.1810471" lon="7.6722476"><ele>267.0</ele><time>2026-04-25T09:26:01.269Z</time></trkpt><trkpt lat="45.1810524" lon="7.6725154"><ele>267.0</ele><time>2026-04-25T09:26:02.26Z</time></trkpt><trkpt lat="45.1810692" lon="7.6727867"><ele>267.0</ele><time>2026-04-25T09:26:03.264Z</time></trkpt><trkpt lat="45.1810902" lon="7.6730693"><ele>267.0</ele><time>2026-04-25T09:26:04.273Z</time></trkpt><trkpt lat="45.1811189" lon="7.6733416"><ele>267.0</ele><time>2026-04-25T09:26:05.271Z</time></trkpt><trkpt lat="45.1811496" lon="7.6736446"><ele>267.0</ele><time>2026-04-25T09:26:06.274Z</time></trkpt><trkpt lat="45.1811749" lon="7.673948"><ele>267.0</ele><time>2026-04-25T09:26:07.271Z</time></trkpt><trkpt lat="45.1812055" lon="7.6742615"><ele>267.0</ele><time>2026-04-25T09:26:08.27Z</time></trkpt><trkpt lat="45.1812575" lon="7.674538"><ele>267.0</ele><time>2026-04-25T09:26:09.286Z</time></trkpt><trkpt lat="45.1812978" lon="7.6748106"><ele>267.0</ele><time>2026-04-25T09:26:10.278Z</time></trkpt><trkpt lat="45.1813169" lon="7.6750975"><ele>266.6666666666667</ele><time>2026-04-25T09:26:11.281Z</time></trkpt><trkpt lat="45.181349" lon="7.6753755"><ele>266.33333333333337</ele><time>2026-04-25T09:26:12.278Z</time></trkpt><trkpt lat="45.1813633" lon="7.6756555"><ele>266.0</ele><time>2026-04-25T09:26:13.293Z</time></trkpt><trkpt lat="45.1813933" lon="7.6759248"><ele>265.33333333333337</ele><time>2026-04-25T09:26:14.28Z</time></trkpt><trkpt lat="45.1813992" lon="7.6761935"><ele>264.6666666666667</ele><time>2026-04-25T09:26:15.276Z</time></trkpt><trkpt lat="45.181422" lon="7.6764651"><ele>264.0</ele><time>2026-04-25T09:26:16.277Z</time></trkpt><trkpt lat="45.1814512" lon="7.6767194"><ele>263.3333333333333</ele><time>2026-04-25T09:26:17.283Z</time></trkpt><trkpt lat="45.1814677" lon="7.6769904"><ele>262.66666666666663</ele><time>2026-04-25T09:26:18.278Z</time></trkpt><trkpt lat="45.1814831" lon="7.6772351"><ele>262.0</ele><time>2026-04-25T09:26:19.285Z</time></trkpt><trkpt lat="45.1815026" lon="7.6774959"><ele>263.0</ele><time>2026-04-25T09:26:20.279Z</time></trkpt><trkpt lat="45.181527" lon="7.677762"><ele>264.0</ele><time>2026-04-25T09:26:21.281Z</time></trkpt><trkpt lat="45.181553" lon="7.6780107"><ele>265.0</ele><time>2026-04-25T09:26:22.278Z</time></trkpt><trkpt lat="45.1815707" lon="7.6782845"><ele>265.0</ele><time>2026-04-25T09:26:23.282Z</time></trkpt><trkpt lat="45.181589" lon="7.6785282"><ele>265.0</ele><time>2026-04-25T09:26:24.277Z</time></trkpt><trkpt lat="45.1815947" lon="7.6787976"><ele>265.0</ele><time>2026-04-25T09:26:25.28Z</time></trkpt><trkpt lat="45.1816006" lon="7.6790643"><ele>265.0</ele><time>2026-04-25T09:26:26.279Z</time></trkpt><trkpt lat="45.181622" lon="7.6793358"><ele>265.0</ele><time>2026-04-25T09:26:27.28Z</time></trkpt><trkpt lat="45.1816368" lon="7.679628"><ele>265.0</ele><time>2026-04-25T09:26:28.28Z</time></trkpt><trkpt lat="45.181634" lon="7.6799191"><ele>264.66666666666663</ele><time>2026-04-25T09:26:29.28Z</time></trkpt><trkpt lat="45.1816543" lon="7.680217"><ele>264.3333333333333</ele><time>2026-04-25T09:26:30.277Z</time></trkpt><trkpt lat="45.1816821" lon="7.6805146"><ele>264.0</ele><time>2026-04-25T09:26:31.287Z</time></trkpt><trkpt lat="45.1817135" lon="7.68082"><ele>263.6666666666667</ele><time>2026-04-25T09:26:32.277Z</time></trkpt><trkpt lat="45.1817222" lon="7.6811295"><ele>263.33333333333337</ele><time>2026-04-25T09:26:33.28Z</time></trkpt><trkpt lat="45.1817451" lon="7.6814385"><ele>263.0</ele><time>2026-04-25T09:26:34.279Z</time></trkpt><trkpt lat="45.1817654" lon="7.6817407"><ele>262.6666666666667</ele><time>2026-04-25T09:26:35.283Z</time></trkpt><trkpt lat="45.1817799" lon="7.682042"><ele>262.3333333333333</ele><time>2026-04-25T09:26:36.279Z</time></trkpt><trkpt lat="45.1817914" lon="7.682347"><ele>262.0</ele><time>2026-04-25T09:26:37.274Z</time></trkpt><trkpt lat="45.1818181" lon="7.6826077"><ele>262.0</ele><time>2026-04-25T09:26:38.274Z</time></trkpt><trkpt lat="45.1818345" lon="7.6828822"><ele>262.0</ele><time>2026-04-25T09:26:39.279Z</time></trkpt><trkpt lat="45.1818388" lon="7.6831504"><ele>262.0</ele><time>2026-04-25T09:26:40.278Z</time></trkpt><trkpt lat="45.1818465" lon="7.6833938"><ele>262.0</ele><time>2026-04-25T09:26:41.279Z</time></trkpt><trkpt lat="45.1818626" lon="7.6836748"><ele>262.0</ele><time>2026-04-25T09:26:42.278Z</time></trkpt><trkpt lat="45.1818747" lon="7.6839336"><ele>262.0</ele><time>2026-04-25T09:26:43.276Z</time></trkpt><trkpt lat="45.1818874" lon="7.6841713"><ele>262.0</ele><time>2026-04-25T09:26:44.293Z</time></trkpt><trkpt lat="45.181897" lon="7.6844053"><ele>262.0</ele><time>2026-04-25T09:26:45.277Z</time></trkpt><trkpt lat="45.1819069" lon="7.6846402"><ele>262.0</ele><time>2026-04-25T09:26:46.275Z</time></trkpt><trkpt lat="45.1819213" lon="7.6848463"><ele>262.0</ele><time>2026-04-25T09:26:47.278Z</time></trkpt><trkpt lat="45.1819371" lon="7.6850415"><ele>262.0</ele><time>2026-04-25T09:26:48.275Z</time></trkpt><trkpt lat="45.1819453" lon="7.685263"><ele>262.0</ele><time>2026-04-25T09:26:49.283Z</time></trkpt><trkpt lat="45.1819583" lon="7.6855195"><ele>262.0</ele><time>2026-04-25T09:26:50.279Z</time></trkpt><trkpt lat="45.1819719" lon="7.6857693"><ele>262.0</ele><time>2026-04-25T09:26:51.291Z</time></trkpt><trkpt lat="45.1819987" lon="7.6860203"><ele>262.0</ele><time>2026-04-25T09:26:52.283Z</time></trkpt><trkpt lat="45.1820107" lon="7.6862451"><ele>261.5</ele><time>2026-04-25T09:26:53.28Z</time></trkpt><trkpt lat="45.1820126" lon="7.6864404"><ele>261.0</ele><time>2026-04-25T09:26:54.279Z</time></trkpt><trkpt lat="45.1820262" lon="7.68664"><ele>260.5</ele><time>2026-04-25T09:26:55.286Z</time></trkpt><trkpt lat="45.1820469" lon="7.6868132"><ele>260.0</ele><time>2026-04-25T09:26:56.282Z</time></trkpt><trkpt lat="45.1820555" lon="7.6869979"><ele>260.0</ele><time>2026-04-25T09:26:57.282Z</time></trkpt><trkpt lat="45.1820654" lon="7.6871761"><ele>260.0</ele><time>2026-04-25T09:26:58.278Z</time></trkpt><trkpt lat="45.1820734" lon="7.687352"><ele>260.0</ele><time>2026-04-25T09:26:59.276Z</time></trkpt><trkpt lat="45.1820907" lon="7.6875451"><ele>260.0</ele><time>2026-04-25T09:27:00.287Z</time></trkpt><trkpt lat="45.1820892" lon="7.6877609"><ele>260.0</ele><time>2026-04-25T09:27:01.279Z</time></trkpt><trkpt lat="45.1821115" lon="7.6879605"><ele>260.0</ele><time>2026-04-25T09:27:02.278Z</time></trkpt><trkpt lat="45.182135" lon="7.6881752"><ele>260.0</ele><time>2026-04-25T09:27:03.275Z</time></trkpt><trkpt lat="45.1821415" lon="7.6883967"><ele>260.0</ele><time>2026-04-25T09:27:04.276Z</time></trkpt><trkpt lat="45.1821644" lon="7.6885982"><ele>260.0</ele><time>2026-04-25T09:27:05.278Z</time></trkpt><trkpt lat="45.1821687" lon="7.6888103"><ele>260.0</ele><time>2026-04-25T09:27:06.276Z</time></trkpt><trkpt lat="45.1821768" lon="7.6890127"><ele>260.0</ele><time>2026-04-25T09:27:07.271Z</time></trkpt><trkpt lat="45.1821851" lon="7.6892228"><ele>260.0</ele><time>2026-04-25T09:27:08.268Z</time></trkpt><trkpt lat="45.182196" lon="7.6894211"><ele>260.0</ele><time>2026-04-25T09:27:09.272Z</time></trkpt><trkpt lat="45.1821924" lon="7.6896392"><ele>260.0</ele><time>2026-04-25T09:27:10.274Z</time></trkpt><trkpt lat="45.1821923" lon="7.6898453"><ele>260.0</ele><time>2026-04-25T09:27:11.263Z</time></trkpt><trkpt lat="45.1821891" lon="7.6900402"><ele>259.8</ele><time>2026-04-25T09:27:12.271Z</time></trkpt><trkpt lat="45.1821977" lon="7.690204"><ele>259.6</ele><time>2026-04-25T09:27:13.272Z</time></trkpt><trkpt lat="45.1822149" lon="7.6903571"><ele>259.4</ele><time>2026-04-25T09:27:14.271Z</time></trkpt><trkpt lat="45.1822168" lon="7.6904737"><ele>259.2</ele><time>2026-04-25T09:27:15.288Z</time></trkpt><trkpt lat="45.1822421" lon="7.6905761"><ele>259.0</ele><time>2026-04-25T09:27:16.267Z</time></trkpt><trkpt lat="45.1822806" lon="7.6906695"><ele>259.0</ele><time>2026-04-25T09:27:17.267Z</time></trkpt><trkpt lat="45.1823362" lon="7.690755"><ele>259.0</ele><time>2026-04-25T09:27:18.262Z</time></trkpt><trkpt lat="45.1824136" lon="7.6908061"><ele>259.0</ele><time>2026-04-25T09:27:19.275Z</time></trkpt><trkpt lat="45.1825256" lon="7.6908352"><ele>259.0</ele><time>2026-04-25T09:27:20.272Z</time></trkpt><trkpt lat="45.1826631" lon="7.690889"><ele>259.0</ele><time>2026-04-25T09:27:21.272Z</time></trkpt><trkpt lat="45.1828026" lon="7.6909735"><ele>259.0</ele><time>2026-04-25T09:27:22.266Z</time></trkpt><trkpt lat="45.1829174" lon="7.6910577"><ele>259.0</ele><time>2026-04-25T09:27:23.265Z</time></trkpt><trkpt lat="45.1830259" lon="7.6911521"><ele>259.0</ele><time>2026-04-25T09:27:24.261Z</time></trkpt><trkpt lat="45.1831264" lon="7.6912224"><ele>259.0</ele><time>2026-04-25T09:27:25.267Z</time></trkpt><trkpt lat="45.1832253" lon="7.6912397"><ele>259.0</ele><time>2026-04-25T09:27:26.267Z</time></trkpt><trkpt lat="45.1833245" lon="7.6911937"><ele>259.0</ele><time>2026-04-25T09:27:27.262Z</time></trkpt><trkpt lat="45.1834535" lon="7.6911267"><ele>259.0</ele><time>2026-04-25T09:27:28.267Z</time></trkpt><trkpt lat="45.1835748" lon="7.6910507"><ele>259.0</ele><time>2026-04-25T09:27:29.263Z</time></trkpt><trkpt lat="45.1837048" lon="7.6910027"><ele>260.0</ele><time>2026-04-25T09:27:30.254Z</time></trkpt><trkpt lat="45.1838415" lon="7.6910041"><ele>261.0</ele><time>2026-04-25T09:27:31.248Z</time></trkpt><trkpt lat="45.1839831" lon="7.6910764"><ele>262.0</ele><time>2026-04-25T09:27:32.259Z</time></trkpt><trkpt lat="45.1841378" lon="7.6911985"><ele>262.0</ele><time>2026-04-25T09:27:33.259Z</time></trkpt><trkpt lat="45.1842972" lon="7.6913466"><ele>262.0</ele><time>2026-04-25T09:27:34.242Z</time></trkpt><trkpt lat="45.1845321" lon="7.6915742"><ele>262.0</ele><time>2026-04-25T09:27:35.262Z</time></trkpt><trkpt lat="45.1847717" lon="7.6918115"><ele>262.0</ele><time>2026-04-25T09:27:36.256Z</time></trkpt><trkpt lat="45.1849712" lon="7.6919985"><ele>261.5</ele><time>2026-04-25T09:27:37.263Z</time></trkpt><trkpt lat="45.1851871" lon="7.6921887"><ele>261.0</ele><time>2026-04-25T09:27:38.267Z</time></trkpt><trkpt lat="45.1853925" lon="7.6923549"><ele>261.0</ele><time>2026-04-25T09:27:39.264Z</time></trkpt><trkpt lat="45.1855878" lon="7.6925488"><ele>261.0</ele><time>2026-04-25T09:27:40.263Z</time></trkpt><trkpt lat="45.1857922" lon="7.6927577"><ele>260.5</ele><time>2026-04-25T09:27:41.266Z</time></trkpt><trkpt lat="45.1859945" lon="7.6929808"><ele>260.0</ele><time>2026-04-25T09:27:42.27Z</time></trkpt><trkpt lat="45.1861967" lon="7.69317"><ele>260.0</ele><time>2026-04-25T09:27:43.271Z</time></trkpt><trkpt lat="45.1864111" lon="7.6933879"><ele>260.0</ele><time>2026-04-25T09:27:44.274Z</time></trkpt><trkpt lat="45.1866254" lon="7.6935592"><ele>260.0</ele><time>2026-04-25T09:27:45.275Z</time></trkpt><trkpt lat="45.1868302" lon="7.6937641"><ele>260.0</ele><time>2026-04-25T09:27:46.29Z</time></trkpt><trkpt lat="45.1870566" lon="7.6939648"><ele>260.0</ele><time>2026-04-25T09:27:47.275Z</time></trkpt><trkpt lat="45.187256" lon="7.6941581"><ele>260.0</ele><time>2026-04-25T09:27:48.272Z</time></trkpt><trkpt lat="45.187457" lon="7.6943322"><ele>259.5</ele><time>2026-04-25T09:27:49.28Z</time></trkpt><trkpt lat="45.1876398" lon="7.6945295"><ele>259.0</ele><time>2026-04-25T09:27:50.274Z</time></trkpt><trkpt lat="45.1878275" lon="7.6947061"><ele>259.0</ele><time>2026-04-25T09:27:51.275Z</time></trkpt><trkpt lat="45.1880287" lon="7.6948945"><ele>259.0</ele><time>2026-04-25T09:27:52.275Z</time></trkpt><trkpt lat="45.1882243" lon="7.6950747"><ele>258.66666666666663</ele><time>2026-04-25T09:27:53.277Z</time></trkpt><trkpt lat="45.1884101" lon="7.6952623"><ele>258.3333333333333</ele><time>2026-04-25T09:27:54.274Z</time></trkpt><trkpt lat="45.1885824" lon="7.6954374"><ele>258.0</ele><time>2026-04-25T09:27:55.28Z</time></trkpt><trkpt lat="45.1887803" lon="7.6956123"><ele>258.0</ele><time>2026-04-25T09:27:56.271Z</time></trkpt><trkpt lat="45.1889623" lon="7.6957891"><ele>258.0</ele><time>2026-04-25T09:27:57.274Z</time></trkpt><trkpt lat="45.1891634" lon="7.6959201"><ele>258.0</ele><time>2026-04-25T09:27:58.28Z</time></trkpt><trkpt lat="45.1893777" lon="7.6960358"><ele>258.0</ele><time>2026-04-25T09:27:59.281Z</time></trkpt><trkpt lat="45.1895793" lon="7.6961655"><ele>258.0</ele><time>2026-04-25T09:28:00.272Z</time></trkpt><trkpt lat="45.1897445" lon="7.6962875"><ele>258.0</ele><time>2026-04-25T09:28:01.277Z</time></trkpt><trkpt lat="45.1899398" lon="7.696406"><ele>259.0</ele><time>2026-04-25T09:28:02.278Z</time></trkpt><trkpt lat="45.1901234" lon="7.6964845"><ele>260.0</ele><time>2026-04-25T09:28:03.277Z</time></trkpt><trkpt lat="45.1903059" lon="7.6965714"><ele>261.0</ele><time>2026-04-25T09:28:04.275Z</time></trkpt><trkpt lat="45.1904865" lon="7.6966815"><ele>261.0</ele><time>2026-04-25T09:28:05.271Z</time></trkpt><trkpt lat="45.1906565" lon="7.6967706"><ele>261.0</ele><time>2026-04-25T09:28:06.275Z</time></trkpt><trkpt lat="45.1908331" lon="7.6968514"><ele>261.0</ele><time>2026-04-25T09:28:07.276Z</time></trkpt><trkpt lat="45.191024" lon="7.6969256"><ele>261.0</ele><time>2026-04-25T09:28:08.272Z</time></trkpt><trkpt lat="45.1912061" lon="7.6970113"><ele>261.0</ele><time>2026-04-25T09:28:09.273Z</time></trkpt><trkpt lat="45.19137" lon="7.6970973"><ele>261.0</ele><time>2026-04-25T09:28:10.274Z</time></trkpt><trkpt lat="45.1915364" lon="7.6971805"><ele>261.0</ele><time>2026-04-25T09:28:11.273Z</time></trkpt><trkpt lat="45.1917312" lon="7.6972437"><ele>261.0</ele><time>2026-04-25T09:28:12.275Z</time></trkpt><trkpt lat="45.1919103" lon="7.6973374"><ele>261.0</ele><time>2026-04-25T09:28:13.277Z</time></trkpt><trkpt lat="45.1920822" lon="7.6974201"><ele>261.0</ele><time>2026-04-25T09:28:14.279Z</time></trkpt><trkpt lat="45.1922643" lon="7.6975362"><ele>261.0</ele><time>2026-04-25T09:28:15.276Z</time></trkpt><trkpt lat="45.1924323" lon="7.6976299"><ele>261.0</ele><time>2026-04-25T09:28:16.274Z</time></trkpt><trkpt lat="45.1926081" lon="7.6977181"><ele>260.6666666666667</ele><time>2026-04-25T09:28:17.29Z</time></trkpt><trkpt lat="45.1927848" lon="7.697793"><ele>260.33333333333337</ele><time>2026-04-25T09:28:18.273Z</time></trkpt><trkpt lat="45.192971" lon="7.6979147"><ele>260.0</ele><time>2026-04-25T09:28:19.273Z</time></trkpt><trkpt lat="45.193133" lon="7.6979985"><ele>260.0</ele><time>2026-04-25T09:28:20.265Z</time></trkpt><trkpt lat="45.1933014" lon="7.6981002"><ele>260.0</ele><time>2026-04-25T09:28:21.272Z</time></trkpt><trkpt lat="45.19346" lon="7.6981979"><ele>260.0</ele><time>2026-04-25T09:28:22.271Z</time></trkpt><trkpt lat="45.1936034" lon="7.6983297"><ele>260.0</ele><time>2026-04-25T09:28:23.272Z</time></trkpt><trkpt lat="45.1937634" lon="7.6984646"><ele>260.0</ele><time>2026-04-25T09:28:24.275Z</time></trkpt><trkpt lat="45.1939313" lon="7.6986013"><ele>260.0</ele><time>2026-04-25T09:28:25.267Z</time></trkpt><trkpt lat="45.1941051" lon="7.6987222"><ele>260.0</ele><time>2026-04-25T09:28:26.269Z</time></trkpt><trkpt lat="45.1942405" lon="7.6988738"><ele>260.0</ele><time>2026-04-25T09:28:27.268Z</time></trkpt><trkpt lat="45.1943888" lon="7.6990133"><ele>260.0</ele><time>2026-04-25T09:28:28.274Z</time></trkpt><trkpt lat="45.1945315" lon="7.699153"><ele>260.0</ele><time>2026-04-25T09:28:29.273Z</time></trkpt><trkpt lat="45.1946989" lon="7.699289"><ele>260.0</ele><time>2026-04-25T09:28:30.27Z</time></trkpt><trkpt lat="45.1948377" lon="7.6994353"><ele>260.0</ele><time>2026-04-25T09:28:31.269Z</time></trkpt><trkpt lat="45.1949623" lon="7.6995706"><ele>260.6666666666667</ele><time>2026-04-25T09:28:32.267Z</time></trkpt><trkpt lat="45.1950887" lon="7.6997072"><ele>261.3333333333333</ele><time>2026-04-25T09:28:33.267Z</time></trkpt><trkpt lat="45.1952217" lon="7.699852"><ele>262.0</ele><time>2026-04-25T09:28:34.264Z</time></trkpt><trkpt lat="45.1953439" lon="7.6999947"><ele>262.0</ele><time>2026-04-25T09:28:35.263Z</time></trkpt><trkpt lat="45.1954378" lon="7.7001492"><ele>262.0</ele><time>2026-04-25T09:28:36.263Z</time></trkpt><trkpt lat="45.1955633" lon="7.7002965"><ele>262.0</ele><time>2026-04-25T09:28:37.267Z</time></trkpt><trkpt lat="45.1956973" lon="7.700419"><ele>261.66666666666663</ele><time>2026-04-25T09:28:38.275Z</time></trkpt><trkpt lat="45.1958076" lon="7.7005817"><ele>261.3333333333333</ele><time>2026-04-25T09:28:39.27Z</time></trkpt><trkpt lat="45.195932" lon="7.7007509"><ele>261.0</ele><time>2026-04-25T09:28:40.273Z</time></trkpt><trkpt lat="45.1960435" lon="7.7009341"><ele>260.6666666666667</ele><time>2026-04-25T09:28:41.272Z</time></trkpt><trkpt lat="45.1961518" lon="7.7010964"><ele>260.33333333333337</ele><time>2026-04-25T09:28:42.273Z</time></trkpt><trkpt lat="45.1962597" lon="7.7012557"><ele>260.0</ele><time>2026-04-25T09:28:43.276Z</time></trkpt><trkpt lat="45.1963648" lon="7.7014003"><ele>260.0</ele><time>2026-04-25T09:28:44.278Z</time></trkpt><trkpt lat="45.1964793" lon="7.7015778"><ele>260.0</ele><time>2026-04-25T09:28:45.28Z</time></trkpt><trkpt lat="45.1966029" lon="7.7017425"><ele>260.0</ele><time>2026-04-25T09:28:46.275Z</time></trkpt><trkpt lat="45.1967086" lon="7.7019228"><ele>260.0</ele><time>2026-04-25T09:28:47.278Z</time></trkpt><trkpt lat="45.1968216" lon="7.702087"><ele>260.0</ele><time>2026-04-25T09:28:48.294Z</time></trkpt><trkpt lat="45.1969386" lon="7.7022634"><ele>260.0</ele><time>2026-04-25T09:28:49.28Z</time></trkpt><trkpt lat="45.1970564" lon="7.7024413"><ele>260.0</ele><time>2026-04-25T09:28:50.277Z</time></trkpt><trkpt lat="45.1971628" lon="7.7025986"><ele>260.0</ele><time>2026-04-25T09:28:51.277Z</time></trkpt><trkpt lat="45.1972725" lon="7.7027681"><ele>260.0</ele><time>2026-04-25T09:28:52.276Z</time></trkpt><trkpt lat="45.1973858" lon="7.7029322"><ele>260.33333333333337</ele><time>2026-04-25T09:28:53.278Z</time></trkpt><trkpt lat="45.1975099" lon="7.7031044"><ele>260.6666666666667</ele><time>2026-04-25T09:28:54.273Z</time></trkpt><trkpt lat="45.1976173" lon="7.7032611"><ele>261.0</ele><time>2026-04-25T09:28:55.276Z</time></trkpt><trkpt lat="45.1977393" lon="7.7034312"><ele>260.6666666666667</ele><time>2026-04-25T09:28:56.275Z</time></trkpt><trkpt lat="45.1978707" lon="7.703594"><ele>260.33333333333337</ele><time>2026-04-25T09:28:57.275Z</time></trkpt><trkpt lat="45.1980156" lon="7.7037641"><ele>260.0</ele><time>2026-04-25T09:28:58.284Z</time></trkpt><trkpt lat="45.1981428" lon="7.7039352"><ele>259.6666666666667</ele><time>2026-04-25T09:28:59.279Z</time></trkpt><trkpt lat="45.1982789" lon="7.704086"><ele>259.3333333333333</ele><time>2026-04-25T09:29:00.28Z</time></trkpt><trkpt lat="45.198402" lon="7.7042347"><ele>259.0</ele><time>2026-04-25T09:29:01.277Z</time></trkpt><trkpt lat="45.1985381" lon="7.7043653"><ele>258.66666666666663</ele><time>2026-04-25T09:29:02.277Z</time></trkpt><trkpt lat="45.1986801" lon="7.7044983"><ele>258.3333333333333</ele><time>2026-04-25T09:29:03.278Z</time></trkpt><trkpt lat="45.1988043" lon="7.7046383"><ele>258.0</ele><time>2026-04-25T09:29:04.28Z</time></trkpt><trkpt lat="45.1989494" lon="7.7047738"><ele>258.3333333333333</ele><time>2026-04-25T09:29:05.276Z</time></trkpt><trkpt lat="45.199094" lon="7.7048991"><ele>258.66666666666663</ele><time>2026-04-25T09:29:06.278Z</time></trkpt><trkpt lat="45.1992433" lon="7.7050114"><ele>259.0</ele><time>2026-04-25T09:29:07.277Z</time></trkpt><trkpt lat="45.1993853" lon="7.7051445"><ele>258.66666666666663</ele><time>2026-04-25T09:29:08.28Z</time></trkpt><trkpt lat="45.1995287" lon="7.7052932"><ele>258.3333333333333</ele><time>2026-04-25T09:29:09.275Z</time></trkpt><trkpt lat="45.1996719" lon="7.7054215"><ele>258.0</ele><time>2026-04-25T09:29:10.276Z</time></trkpt><trkpt lat="45.1998195" lon="7.7055323"><ele>258.0</ele><time>2026-04-25T09:29:11.273Z</time></trkpt><trkpt lat="45.1999716" lon="7.7056583"><ele>258.0</ele><time>2026-04-25T09:29:12.274Z</time></trkpt><trkpt lat="45.2001237" lon="7.7057921"><ele>258.0</ele><time>2026-04-25T09:29:13.275Z</time></trkpt><trkpt lat="45.2002708" lon="7.7059198"><ele>258.0</ele><time>2026-04-25T09:29:14.277Z</time></trkpt><trkpt lat="45.2004032" lon="7.7060673"><ele>258.0</ele><time>2026-04-25T09:29:15.274Z</time></trkpt><trkpt lat="45.2005657" lon="7.7061713"><ele>258.0</ele><time>2026-04-25T09:29:16.278Z</time></trkpt><trkpt lat="45.2007248" lon="7.7063081"><ele>259.0</ele><time>2026-04-25T09:29:17.279Z</time></trkpt><trkpt lat="45.2008841" lon="7.7064229"><ele>260.0</ele><time>2026-04-25T09:29:18.276Z</time></trkpt><trkpt lat="45.2010265" lon="7.706544"><ele>261.0</ele><time>2026-04-25T09:29:19.308Z</time></trkpt><trkpt lat="45.201171" lon="7.7066735"><ele>261.0</ele><time>2026-04-25T09:29:20.282Z</time></trkpt><trkpt lat="45.20131" lon="7.7068019"><ele>261.0</ele><time>2026-04-25T09:29:21.278Z</time></trkpt><trkpt lat="45.201465" lon="7.7069283"><ele>261.0</ele><time>2026-04-25T09:29:22.278Z</time></trkpt><trkpt lat="45.2016215" lon="7.7070402"><ele>260.0</ele><time>2026-04-25T09:29:23.278Z</time></trkpt><trkpt lat="45.2017926" lon="7.7071769"><ele>259.0</ele><time>2026-04-25T09:29:24.278Z</time></trkpt><trkpt lat="45.2019303" lon="7.7073028"><ele>258.0</ele><time>2026-04-25T09:29:25.274Z</time></trkpt><trkpt lat="45.2020962" lon="7.7074301"><ele>258.0</ele><time>2026-04-25T09:29:26.274Z</time></trkpt><trkpt lat="45.2022458" lon="7.7075871"><ele>258.0</ele><time>2026-04-25T09:29:27.272Z</time></trkpt><trkpt lat="45.202418" lon="7.7077125"><ele>258.0</ele><time>2026-04-25T09:29:28.282Z</time></trkpt><trkpt lat="45.2025576" lon="7.7078523"><ele>258.0</ele><time>2026-04-25T09:29:29.276Z</time></trkpt><trkpt lat="45.2027041" lon="7.7079888"><ele>258.0</ele><time>2026-04-25T09:29:30.275Z</time></trkpt><trkpt lat="45.2028603" lon="7.7081232"><ele>258.0</ele><time>2026-04-25T09:29:31.279Z</time></trkpt><trkpt lat="45.2030078" lon="7.7082717"><ele>258.0</ele><time>2026-04-25T09:29:32.267Z</time></trkpt><trkpt lat="45.2031639" lon="7.7083994"><ele>258.0</ele><time>2026-04-25T09:29:33.276Z</time></trkpt><trkpt lat="45.2033105" lon="7.7085311"><ele>258.0</ele><time>2026-04-25T09:29:34.275Z</time></trkpt><trkpt lat="45.2034709" lon="7.7086518"><ele>258.3333333333333</ele><time>2026-04-25T09:29:35.276Z</time></trkpt><trkpt lat="45.2036056" lon="7.7087798"><ele>258.66666666666663</ele><time>2026-04-25T09:29:36.273Z</time></trkpt><trkpt lat="45.2037273" lon="7.7088912"><ele>259.0</ele><time>2026-04-25T09:29:37.272Z</time></trkpt><trkpt lat="45.2038498" lon="7.7089955"><ele>259.0</ele><time>2026-04-25T09:29:38.276Z</time></trkpt><trkpt lat="45.2039721" lon="7.7090945"><ele>259.0</ele><time>2026-04-25T09:29:39.27Z</time></trkpt><trkpt lat="45.2041001" lon="7.7092068"><ele>259.0</ele><time>2026-04-25T09:29:40.278Z</time></trkpt><trkpt lat="45.2042302" lon="7.7093026"><ele>259.0</ele><time>2026-04-25T09:29:41.275Z</time></trkpt><trkpt lat="45.204349" lon="7.7094085"><ele>258.75</ele><time>2026-04-25T09:29:42.272Z</time></trkpt><trkpt lat="45.2044863" lon="7.7095148"><ele>258.5</ele><time>2026-04-25T09:29:43.268Z</time></trkpt><trkpt lat="45.2046088" lon="7.7096042"><ele>258.25</ele><time>2026-04-25T09:29:44.277Z</time></trkpt><trkpt lat="45.2047335" lon="7.7097069"><ele>258.0</ele><time>2026-04-25T09:29:45.27Z</time></trkpt><trkpt lat="45.204863" lon="7.7097946"><ele>258.25</ele><time>2026-04-25T09:29:46.274Z</time></trkpt><trkpt lat="45.2049831" lon="7.7099145"><ele>258.5</ele><time>2026-04-25T09:29:47.272Z</time></trkpt><trkpt lat="45.2051045" lon="7.7100392"><ele>258.75</ele><time>2026-04-25T09:29:48.27Z</time></trkpt><trkpt lat="45.2052141" lon="7.7101533"><ele>259.0</ele><time>2026-04-25T09:29:49.275Z</time></trkpt><trkpt lat="45.2053621" lon="7.7102736"><ele>259.0</ele><time>2026-04-25T09:29:50.268Z</time></trkpt><trkpt lat="45.2055004" lon="7.7103998"><ele>259.0</ele><time>2026-04-25T09:29:51.273Z</time></trkpt><trkpt lat="45.2056303" lon="7.7105279"><ele>259.0</ele><time>2026-04-25T09:29:52.272Z</time></trkpt><trkpt lat="45.2057727" lon="7.7106537"><ele>259.0</ele><time>2026-04-25T09:29:53.279Z</time></trkpt><trkpt lat="45.2058957" lon="7.7108233"><ele>259.0</ele><time>2026-04-25T09:29:54.27Z</time></trkpt><trkpt lat="45.2060122" lon="7.7109816"><ele>259.0</ele><time>2026-04-25T09:29:55.262Z</time></trkpt><trkpt lat="45.2061358" lon="7.7111235"><ele>259.0</ele><time>2026-04-25T09:29:56.262Z</time></trkpt><trkpt lat="45.2062741" lon="7.7112841"><ele>259.0</ele><time>2026-04-25T09:29:57.263Z</time></trkpt><trkpt lat="45.2063966" lon="7.7114358"><ele>259.0</ele><time>2026-04-25T09:29:58.271Z</time></trkpt><trkpt lat="45.2065066" lon="7.711586"><ele>259.3333333333333</ele><time>2026-04-25T09:29:59.267Z</time></trkpt><trkpt lat="45.2066251" lon="7.7117346"><ele>259.6666666666667</ele><time>2026-04-25T09:30:00.266Z</time></trkpt><trkpt lat="45.206743" lon="7.7118901"><ele>260.0</ele><time>2026-04-25T09:30:01.261Z</time></trkpt><trkpt lat="45.2068563" lon="7.7120594"><ele>260.0</ele><time>2026-04-25T09:30:02.268Z</time></trkpt><trkpt lat="45.206974" lon="7.712226"><ele>260.0</ele><time>2026-04-25T09:30:03.263Z</time></trkpt><trkpt lat="45.2071095" lon="7.7123817"><ele>260.0</ele><time>2026-04-25T09:30:04.269Z</time></trkpt><trkpt lat="45.2072108" lon="7.7126054"><ele>259.6666666666667</ele><time>2026-04-25T09:30:05.266Z</time></trkpt><trkpt lat="45.2073232" lon="7.7127811"><ele>259.3333333333333</ele><time>2026-04-25T09:30:06.271Z</time></trkpt><trkpt lat="45.2074193" lon="7.7129611"><ele>259.0</ele><time>2026-04-25T09:30:07.269Z</time></trkpt><trkpt lat="45.207521" lon="7.7131498"><ele>259.0</ele><time>2026-04-25T09:30:08.269Z</time></trkpt><trkpt lat="45.2076247" lon="7.7133262"><ele>259.0</ele><time>2026-04-25T09:30:09.273Z</time></trkpt><trkpt lat="45.2077162" lon="7.7135196"><ele>259.0</ele><time>2026-04-25T09:30:10.273Z</time></trkpt><trkpt lat="45.2078138" lon="7.7137014"><ele>258.3333333333333</ele><time>2026-04-25T09:30:11.282Z</time></trkpt><trkpt lat="45.207877" lon="7.7139215"><ele>257.6666666666667</ele><time>2026-04-25T09:30:12.272Z</time></trkpt><trkpt lat="45.207985" lon="7.7140824"><ele>257.0</ele><time>2026-04-25T09:30:13.273Z</time></trkpt><trkpt lat="45.2080754" lon="7.714289"><ele>256.6666666666667</ele><time>2026-04-25T09:30:14.277Z</time></trkpt><trkpt lat="45.2081491" lon="7.714499"><ele>256.3333333333333</ele><time>2026-04-25T09:30:15.27Z</time></trkpt><trkpt lat="45.2082337" lon="7.7146982"><ele>256.0</ele><time>2026-04-25T09:30:16.274Z</time></trkpt><trkpt lat="45.2083236" lon="7.7148849"><ele>256.66666666666663</ele><time>2026-04-25T09:30:17.275Z</time></trkpt><trkpt lat="45.2083988" lon="7.7151006"><ele>257.3333333333333</ele><time>2026-04-25T09:30:18.272Z</time></trkpt><trkpt lat="45.2084866" lon="7.7153067"><ele>258.0</ele><time>2026-04-25T09:30:19.271Z</time></trkpt><trkpt lat="45.208554" lon="7.7155328"><ele>258.3333333333333</ele><time>2026-04-25T09:30:20.281Z</time></trkpt><trkpt lat="45.2086061" lon="7.7157363"><ele>258.66666666666663</ele><time>2026-04-25T09:30:21.274Z</time></trkpt><trkpt lat="45.2086613" lon="7.7159643"><ele>259.0</ele><time>2026-04-25T09:30:22.269Z</time></trkpt><trkpt lat="45.2087399" lon="7.7161635"><ele>258.3333333333333</ele><time>2026-04-25T09:30:23.271Z</time></trkpt><trkpt lat="45.2088114" lon="7.7163858"><ele>257.6666666666667</ele><time>2026-04-25T09:30:24.273Z</time></trkpt><trkpt lat="45.2088859" lon="7.7165815"><ele>257.0</ele><time>2026-04-25T09:30:25.266Z</time></trkpt><trkpt lat="45.2089583" lon="7.7168011"><ele>258.0</ele><time>2026-04-25T09:30:26.268Z</time></trkpt><trkpt lat="45.2090226" lon="7.7170231"><ele>259.0</ele><time>2026-04-25T09:30:27.269Z</time></trkpt><trkpt lat="45.2090944" lon="7.7172516"><ele>260.0</ele><time>2026-04-25T09:30:28.27Z</time></trkpt><trkpt lat="45.209165" lon="7.7174696"><ele>260.0</ele><time>2026-04-25T09:30:29.272Z</time></trkpt><trkpt lat="45.2092339" lon="7.7176944"><ele>260.0</ele><time>2026-04-25T09:30:30.269Z</time></trkpt><trkpt lat="45.209316" lon="7.7179281"><ele>260.0</ele><time>2026-04-25T09:30:31.273Z</time></trkpt><trkpt lat="45.2093916" lon="7.7181647"><ele>260.0</ele><time>2026-04-25T09:30:32.275Z</time></trkpt><trkpt lat="45.2094761" lon="7.7184131"><ele>260.0</ele><time>2026-04-25T09:30:33.272Z</time></trkpt><trkpt lat="45.2095504" lon="7.7186469"><ele>260.0</ele><time>2026-04-25T09:30:34.264Z</time></trkpt><trkpt lat="45.2096116" lon="7.7188757"><ele>260.6666666666667</ele><time>2026-04-25T09:30:35.267Z</time></trkpt><trkpt lat="45.2096918" lon="7.7191124"><ele>261.3333333333333</ele><time>2026-04-25T09:30:36.264Z</time></trkpt><trkpt lat="45.2097798" lon="7.719366"><ele>262.0</ele><time>2026-04-25T09:30:37.262Z</time></trkpt><trkpt lat="45.2098326" lon="7.7196291"><ele>264.66666666666663</ele><time>2026-04-25T09:30:38.256Z</time></trkpt><trkpt lat="45.2099279" lon="7.719856"><ele>267.3333333333333</ele><time>2026-04-25T09:30:39.255Z</time></trkpt><trkpt lat="45.2100092" lon="7.7201006"><ele>270.0</ele><time>2026-04-25T09:30:40.255Z</time></trkpt><trkpt lat="45.2101063" lon="7.7203501"><ele>270.3333333333333</ele><time>2026-04-25T09:30:41.256Z</time></trkpt><trkpt lat="45.2101919" lon="7.720593"><ele>270.66666666666663</ele><time>2026-04-25T09:30:42.257Z</time></trkpt><trkpt lat="45.2102762" lon="7.7208714"><ele>271.0</ele><time>2026-04-25T09:30:43.257Z</time></trkpt><trkpt lat="45.2103446" lon="7.7211214"><ele>271.3333333333333</ele><time>2026-04-25T09:30:44.26Z</time></trkpt><trkpt lat="45.2104205" lon="7.7213663"><ele>271.6666666666667</ele><time>2026-04-25T09:30:45.261Z</time></trkpt><trkpt lat="45.2104957" lon="7.7216138"><ele>272.0</ele><time>2026-04-25T09:30:46.257Z</time></trkpt><trkpt lat="45.2106" lon="7.721855"><ele>271.0</ele><time>2026-04-25T09:30:47.263Z</time></trkpt><trkpt lat="45.2106681" lon="7.7221246"><ele>270.0</ele><time>2026-04-25T09:30:48.259Z</time></trkpt><trkpt lat="45.2107363" lon="7.7223902"><ele>269.0</ele><time>2026-04-25T09:30:49.262Z</time></trkpt><trkpt lat="45.2108337" lon="7.7226659"><ele>269.0</ele><time>2026-04-25T09:30:50.261Z</time></trkpt><trkpt lat="45.210916" lon="7.7229331"><ele>269.0</ele><time>2026-04-25T09:30:51.274Z</time></trkpt><trkpt lat="45.211012" lon="7.7232104"><ele>269.0</ele><time>2026-04-25T09:30:52.255Z</time></trkpt><trkpt lat="45.2111062" lon="7.7234814"><ele>269.0</ele><time>2026-04-25T09:30:53.262Z</time></trkpt><trkpt lat="45.2112047" lon="7.723748"><ele>269.0</ele><time>2026-04-25T09:30:54.26Z</time></trkpt><trkpt lat="45.211298" lon="7.724013"><ele>269.0</ele><time>2026-04-25T09:30:55.256Z</time></trkpt><trkpt lat="45.2113871" lon="7.7242642"><ele>269.0</ele><time>2026-04-25T09:30:56.262Z</time></trkpt><trkpt lat="45.2114685" lon="7.7244973"><ele>269.0</ele><time>2026-04-25T09:30:57.26Z</time></trkpt><trkpt lat="45.2115522" lon="7.7247056"><ele>269.0</ele><time>2026-04-25T09:30:58.262Z</time></trkpt><trkpt lat="45.211621" lon="7.7249408"><ele>268.33333333333337</ele><time>2026-04-25T09:30:59.26Z</time></trkpt><trkpt lat="45.2117065" lon="7.7251819"><ele>267.6666666666667</ele><time>2026-04-25T09:31:00.258Z</time></trkpt><trkpt lat="45.2117755" lon="7.7254093"><ele>267.0</ele><time>2026-04-25T09:31:01.261Z</time></trkpt><trkpt lat="45.2118434" lon="7.7256458"><ele>267.0</ele><time>2026-04-25T09:31:02.258Z</time></trkpt><trkpt lat="45.2119059" lon="7.7258919"><ele>267.0</ele><time>2026-04-25T09:31:03.256Z</time></trkpt><trkpt lat="45.2120026" lon="7.7261376"><ele>267.0</ele><time>2026-04-25T09:31:04.259Z</time></trkpt><trkpt lat="45.2120816" lon="7.7263809"><ele>267.0</ele><time>2026-04-25T09:31:05.256Z</time></trkpt><trkpt lat="45.2121418" lon="7.726624"><ele>267.0</ele><time>2026-04-25T09:31:06.255Z</time></trkpt><trkpt lat="45.212226" lon="7.7268755"><ele>267.0</ele><time>2026-04-25T09:31:07.259Z</time></trkpt><trkpt lat="45.2123209" lon="7.7271294"><ele>267.0</ele><time>2026-04-25T09:31:08.258Z</time></trkpt><trkpt lat="45.2124052" lon="7.7273553"><ele>267.0</ele><time>2026-04-25T09:31:09.256Z</time></trkpt><trkpt lat="45.2125117" lon="7.7276225"><ele>267.0</ele><time>2026-04-25T09:31:10.257Z</time></trkpt><trkpt lat="45.2125822" lon="7.7279021"><ele>267.0</ele><time>2026-04-25T09:31:11.256Z</time></trkpt><trkpt lat="45.2126507" lon="7.7281587"><ele>267.0</ele><time>2026-04-25T09:31:12.26Z</time></trkpt><trkpt lat="45.2127649" lon="7.7284153"><ele>267.0</ele><time>2026-04-25T09:31:13.254Z</time></trkpt><trkpt lat="45.2128413" lon="7.7286475"><ele>267.3333333333333</ele><time>2026-04-25T09:31:14.263Z</time></trkpt><trkpt lat="45.2129143" lon="7.7288842"><ele>267.66666666666663</ele><time>2026-04-25T09:31:15.261Z</time></trkpt><trkpt lat="45.2129973" lon="7.7291059"><ele>268.0</ele><time>2026-04-25T09:31:16.256Z</time></trkpt><trkpt lat="45.2130688" lon="7.729323"><ele>268.0</ele><time>2026-04-25T09:31:17.26Z</time></trkpt><trkpt lat="45.2131337" lon="7.7295342"><ele>268.0</ele><time>2026-04-25T09:31:18.26Z</time></trkpt><trkpt lat="45.2132179" lon="7.7297823"><ele>268.0</ele><time>2026-04-25T09:31:19.258Z</time></trkpt><trkpt lat="45.2132842" lon="7.7300393"><ele>267.3333333333333</ele><time>2026-04-25T09:31:20.256Z</time></trkpt><trkpt lat="45.2133462" lon="7.7302937"><ele>266.6666666666667</ele><time>2026-04-25T09:31:21.252Z</time></trkpt><trkpt lat="45.2134086" lon="7.7305635"><ele>266.0</ele><time>2026-04-25T09:31:22.263Z</time></trkpt><trkpt lat="45.2134654" lon="7.7307863"><ele>266.0</ele><time>2026-04-25T09:31:23.246Z</time></trkpt><trkpt lat="45.2135133" lon="7.7309876"><ele>266.0</ele><time>2026-04-25T09:31:24.254Z</time></trkpt><trkpt lat="45.213589" lon="7.7311821"><ele>266.0</ele><time>2026-04-25T09:31:25.252Z</time></trkpt><trkpt lat="45.2136556" lon="7.7313434"><ele>266.0</ele><time>2026-04-25T09:31:26.245Z</time></trkpt><trkpt lat="45.2137009" lon="7.7315255"><ele>265.6</ele><time>2026-04-25T09:31:27.243Z</time></trkpt><trkpt lat="45.2137748" lon="7.7316685"><ele>265.20000000000005</ele><time>2026-04-25T09:31:28.242Z</time></trkpt><trkpt lat="45.213832" lon="7.7317981"><ele>264.79999999999995</ele><time>2026-04-25T09:31:29.248Z</time></trkpt><trkpt lat="45.2138723" lon="7.7319408"><ele>264.4</ele><time>2026-04-25T09:31:30.245Z</time></trkpt><trkpt lat="45.213855" lon="7.7320843"><ele>264.0</ele><time>2026-04-25T09:31:31.247Z</time></trkpt><trkpt lat="45.2138349" lon="7.7322097"><ele>263.75</ele><time>2026-04-25T09:31:32.245Z</time></trkpt><trkpt lat="45.213743" lon="7.7323305"><ele>263.5</ele><time>2026-04-25T09:31:33.24Z</time></trkpt><trkpt lat="45.2136224" lon="7.7324315"><ele>263.25</ele><time>2026-04-25T09:31:34.245Z</time></trkpt><trkpt lat="45.2134879" lon="7.7324834"><ele>263.0</ele><time>2026-04-25T09:31:35.245Z</time></trkpt><trkpt lat="45.2133763" lon="7.7324742"><ele>263.0</ele><time>2026-04-25T09:31:36.252Z</time></trkpt><trkpt lat="45.2132638" lon="7.7323979"><ele>263.0</ele><time>2026-04-25T09:31:37.251Z</time></trkpt><trkpt lat="45.2131511" lon="7.7322596"><ele>263.0</ele><time>2026-04-25T09:31:38.251Z</time></trkpt><trkpt lat="45.213049" lon="7.7320941"><ele>263.0</ele><time>2026-04-25T09:31:39.254Z</time></trkpt><trkpt lat="45.2129996" lon="7.7318431"><ele>263.6666666666667</ele><time>2026-04-25T09:31:40.241Z</time></trkpt><trkpt lat="45.2129633" lon="7.7315999"><ele>264.3333333333333</ele><time>2026-04-25T09:31:41.259Z</time></trkpt><trkpt lat="45.2129757" lon="7.7313217"><ele>265.0</ele><time>2026-04-25T09:31:42.254Z</time></trkpt><trkpt lat="45.2130166" lon="7.7310803"><ele>266.0</ele><time>2026-04-25T09:31:43.255Z</time></trkpt><trkpt lat="45.2130202" lon="7.7308194"><ele>267.0</ele><time>2026-04-25T09:31:44.263Z</time></trkpt><trkpt lat="45.2130391" lon="7.730616"><ele>268.0</ele><time>2026-04-25T09:31:45.253Z</time></trkpt><trkpt lat="45.2130916" lon="7.730423"><ele>268.0</ele><time>2026-04-25T09:31:46.251Z</time></trkpt><trkpt lat="45.2131219" lon="7.7302833"><ele>268.0</ele><time>2026-04-25T09:31:47.259Z</time></trkpt><trkpt lat="45.2131604" lon="7.7301768"><ele>268.0</ele><time>2026-04-25T09:31:48.239Z</time></trkpt><trkpt lat="45.2132261" lon="7.7301128"><ele>268.0</ele><time>2026-04-25T09:31:49.256Z</time></trkpt><trkpt lat="45.2133202" lon="7.7301146"><ele>268.0</ele><time>2026-04-25T09:31:50.259Z</time></trkpt><trkpt lat="45.2134177" lon="7.7301212"><ele>268.0</ele><time>2026-04-25T09:31:51.246Z</time></trkpt><trkpt lat="45.2134832" lon="7.730143"><ele>268.0</ele><time>2026-04-25T09:31:52.245Z</time></trkpt><trkpt lat="45.2135866" lon="7.7301487"><ele>268.0</ele><time>2026-04-25T09:31:53.259Z</time></trkpt><trkpt lat="45.2137249" lon="7.7301582"><ele>268.0</ele><time>2026-04-25T09:31:54.258Z</time></trkpt><trkpt lat="45.2138785" lon="7.7301656"><ele>268.3333333333333</ele><time>2026-04-25T09:31:55.259Z</time></trkpt><trkpt lat="45.214034" lon="7.7301728"><ele>268.6666666666667</ele><time>2026-04-25T09:31:56.259Z</time></trkpt><trkpt lat="45.2141958" lon="7.7301834"><ele>269.0</ele><time>2026-04-25T09:31:57.259Z</time></trkpt><trkpt lat="45.214351" lon="7.7302092"><ele>269.0</ele><time>2026-04-25T09:31:58.267Z</time></trkpt><trkpt lat="45.2145041" lon="7.7302335"><ele>269.0</ele><time>2026-04-25T09:31:59.263Z</time></trkpt><trkpt lat="45.2146737" lon="7.7302581"><ele>269.0</ele><time>2026-04-25T09:32:00.262Z</time></trkpt><trkpt lat="45.2148355" lon="7.7302824"><ele>269.0</ele><time>2026-04-25T09:32:01.261Z</time></trkpt><trkpt lat="45.2150068" lon="7.7303136"><ele>269.0</ele><time>2026-04-25T09:32:02.259Z</time></trkpt><trkpt lat="45.2151778" lon="7.7303196"><ele>269.0</ele><time>2026-04-25T09:32:03.258Z</time></trkpt><trkpt lat="45.2153493" lon="7.7303255"><ele>269.0</ele><time>2026-04-25T09:32:04.258Z</time></trkpt><trkpt lat="45.2155085" lon="7.7303588"><ele>269.0</ele><time>2026-04-25T09:32:05.252Z</time></trkpt><trkpt lat="45.215659" lon="7.7303958"><ele>269.0</ele><time>2026-04-25T09:32:06.254Z</time></trkpt><trkpt lat="45.2158" lon="7.7304188"><ele>269.25</ele><time>2026-04-25T09:32:07.255Z</time></trkpt><trkpt lat="45.2159521" lon="7.7304151"><ele>269.5</ele><time>2026-04-25T09:32:08.257Z</time></trkpt><trkpt lat="45.2161047" lon="7.73043"><ele>269.75</ele><time>2026-04-25T09:32:09.25Z</time></trkpt><trkpt lat="45.2162384" lon="7.7304581"><ele>270.0</ele><time>2026-04-25T09:32:10.253Z</time></trkpt><trkpt lat="45.2163579" lon="7.7304829"><ele>269.75</ele><time>2026-04-25T09:32:11.253Z</time></trkpt><trkpt lat="45.2164933" lon="7.7304694"><ele>269.5</ele><time>2026-04-25T09:32:12.254Z</time></trkpt><trkpt lat="45.2166212" lon="7.7304648"><ele>269.25</ele><time>2026-04-25T09:32:13.255Z</time></trkpt><trkpt lat="45.2167619" lon="7.7304859"><ele>269.0</ele><time>2026-04-25T09:32:14.259Z</time></trkpt><trkpt lat="45.2169001" lon="7.7305287"><ele>269.0</ele><time>2026-04-25T09:32:15.252Z</time></trkpt><trkpt lat="45.21703" lon="7.7305501"><ele>269.0</ele><time>2026-04-25T09:32:16.254Z</time></trkpt><trkpt lat="45.2171614" lon="7.7305577"><ele>269.0</ele><time>2026-04-25T09:32:17.255Z</time></trkpt><trkpt lat="45.2172727" lon="7.7305653"><ele>269.0</ele><time>2026-04-25T09:32:18.254Z</time></trkpt><trkpt lat="45.2173627" lon="7.7305722"><ele>268.59999999999997</ele><time>2026-04-25T09:32:19.261Z</time></trkpt><trkpt lat="45.2174552" lon="7.7305835"><ele>268.2</ele><time>2026-04-25T09:32:20.256Z</time></trkpt><trkpt lat="45.2175504" lon="7.7305792"><ele>267.79999999999995</ele><time>2026-04-25T09:32:21.251Z</time></trkpt><trkpt lat="45.2176505" lon="7.7305754"><ele>267.4</ele><time>2026-04-25T09:32:22.25Z</time></trkpt><trkpt lat="45.2177618" lon="7.730596"><ele>267.0</ele><time>2026-04-25T09:32:23.246Z</time></trkpt><trkpt lat="45.2178856" lon="7.7306317"><ele>267.0</ele><time>2026-04-25T09:32:24.26Z</time></trkpt><trkpt lat="45.2180272" lon="7.7306506"><ele>267.0</ele><time>2026-04-25T09:32:25.241Z</time></trkpt><trkpt lat="45.2181902" lon="7.7306666"><ele>267.0</ele><time>2026-04-25T09:32:26.243Z</time></trkpt><trkpt lat="45.2184366" lon="7.7307121"><ele>266.5</ele><time>2026-04-25T09:32:27.246Z</time></trkpt><trkpt lat="45.2186654" lon="7.7307251"><ele>266.0</ele><time>2026-04-25T09:32:28.249Z</time></trkpt><trkpt lat="45.218886" lon="7.7307656"><ele>267.0</ele><time>2026-04-25T09:32:29.248Z</time></trkpt><trkpt lat="45.2191233" lon="7.7307897"><ele>268.0</ele><time>2026-04-25T09:32:30.243Z</time></trkpt><trkpt lat="45.2193398" lon="7.7308102"><ele>268.0</ele><time>2026-04-25T09:32:31.246Z</time></trkpt><trkpt lat="45.2195374" lon="7.7308198"><ele>268.0</ele><time>2026-04-25T09:32:32.246Z</time></trkpt><trkpt lat="45.2197458" lon="7.7308514"><ele>268.0</ele><time>2026-04-25T09:32:33.246Z</time></trkpt><trkpt lat="45.2199634" lon="7.7309103"><ele>268.3333333333333</ele><time>2026-04-25T09:32:34.251Z</time></trkpt><trkpt lat="45.2201818" lon="7.730945"><ele>268.6666666666667</ele><time>2026-04-25T09:32:35.252Z</time></trkpt><trkpt lat="45.22038" lon="7.7309562"><ele>269.0</ele><time>2026-04-25T09:32:36.25Z</time></trkpt><trkpt lat="45.2205938" lon="7.7309527"><ele>269.33333333333337</ele><time>2026-04-25T09:32:37.253Z</time></trkpt><trkpt lat="45.2208237" lon="7.7309675"><ele>269.6666666666667</ele><time>2026-04-25T09:32:38.25Z</time></trkpt><trkpt lat="45.2210383" lon="7.7309735"><ele>270.0</ele><time>2026-04-25T09:32:39.259Z</time></trkpt><trkpt lat="45.221258" lon="7.7310087"><ele>270.0</ele><time>2026-04-25T09:32:40.258Z</time></trkpt><trkpt lat="45.2214873" lon="7.7310496"><ele>270.0</ele><time>2026-04-25T09:32:41.262Z</time></trkpt><trkpt lat="45.2217089" lon="7.7310903"><ele>270.0</ele><time>2026-04-25T09:32:42.268Z</time></trkpt><trkpt lat="45.2219216" lon="7.7311151"><ele>270.0</ele><time>2026-04-25T09:32:43.264Z</time></trkpt><trkpt lat="45.2221363" lon="7.7311524"><ele>270.0</ele><time>2026-04-25T09:32:44.263Z</time></trkpt><trkpt lat="45.2223668" lon="7.7311944"><ele>270.0</ele><time>2026-04-25T09:32:45.259Z</time></trkpt><trkpt lat="45.222598" lon="7.7312319"><ele>270.0</ele><time>2026-04-25T09:32:46.256Z</time></trkpt><trkpt lat="45.222814" lon="7.7312468"><ele>270.0</ele><time>2026-04-25T09:32:47.26Z</time></trkpt><trkpt lat="45.2230264" lon="7.7312626"><ele>270.6666666666667</ele><time>2026-04-25T09:32:48.257Z</time></trkpt><trkpt lat="45.2232343" lon="7.7312947"><ele>271.33333333333337</ele><time>2026-04-25T09:32:49.259Z</time></trkpt><trkpt lat="45.223437" lon="7.7313007"><ele>272.0</ele><time>2026-04-25T09:32:50.253Z</time></trkpt><trkpt lat="45.2236526" lon="7.7313115"><ele>272.0</ele><time>2026-04-25T09:32:51.259Z</time></trkpt><trkpt lat="45.2238627" lon="7.7313309"><ele>272.0</ele><time>2026-04-25T09:32:52.258Z</time></trkpt><trkpt lat="45.2240632" lon="7.7313474"><ele>272.0</ele><time>2026-04-25T09:32:53.258Z</time></trkpt><trkpt lat="45.2242694" lon="7.7313822"><ele>271.6666666666667</ele><time>2026-04-25T09:32:54.258Z</time></trkpt><trkpt lat="45.2244754" lon="7.7314029"><ele>271.3333333333333</ele><time>2026-04-25T09:32:55.273Z</time></trkpt><trkpt lat="45.2246899" lon="7.7314195"><ele>271.0</ele><time>2026-04-25T09:32:56.26Z</time></trkpt><trkpt lat="45.224901" lon="7.7314456"><ele>271.0</ele><time>2026-04-25T09:32:57.262Z</time></trkpt><trkpt lat="45.2250958" lon="7.731462"><ele>271.0</ele><time>2026-04-25T09:32:58.27Z</time></trkpt><trkpt lat="45.2252972" lon="7.7314955"><ele>271.0</ele><time>2026-04-25T09:32:59.266Z</time></trkpt><trkpt lat="45.2254928" lon="7.7315257"><ele>271.66666666666663</ele><time>2026-04-25T09:33:00.263Z</time></trkpt><trkpt lat="45.2256849" lon="7.731548"><ele>272.3333333333333</ele><time>2026-04-25T09:33:01.268Z</time></trkpt><trkpt lat="45.225865" lon="7.7315577"><ele>273.0</ele><time>2026-04-25T09:33:02.267Z</time></trkpt><trkpt lat="45.2260418" lon="7.7315884"><ele>273.0</ele><time>2026-04-25T09:33:03.263Z</time></trkpt><trkpt lat="45.2261997" lon="7.7315916"><ele>273.0</ele><time>2026-04-25T09:33:04.263Z</time></trkpt><trkpt lat="45.226343" lon="7.7316108"><ele>273.0</ele><time>2026-04-25T09:33:05.267Z</time></trkpt><trkpt lat="45.2264593" lon="7.7316197"><ele>273.0</ele><time>2026-04-25T09:33:06.265Z</time></trkpt><trkpt lat="45.2265748" lon="7.7316483"><ele>273.1666666666667</ele><time>2026-04-25T09:33:07.27Z</time></trkpt><trkpt lat="45.226654" lon="7.7316535"><ele>273.3333333333333</ele><time>2026-04-25T09:33:08.271Z</time></trkpt><trkpt lat="45.2267298" lon="7.7316408"><ele>273.5</ele><time>2026-04-25T09:33:09.267Z</time></trkpt><trkpt lat="45.2268143" lon="7.7316644"><ele>273.66666666666663</ele><time>2026-04-25T09:33:10.265Z</time></trkpt><trkpt lat="45.2269121" lon="7.731689"><ele>273.8333333333333</ele><time>2026-04-25T09:33:12.255Z</time></trkpt><trkpt lat="45.2269947" lon="7.7316995"><ele>274.0</ele><time>2026-04-25T09:33:15.25Z</time></trkpt><trkpt lat="45.2270772" lon="7.7316954"><ele>274.0</ele><time>2026-04-25T09:33:19.242Z</time></trkpt><trkpt lat="45.2271538" lon="7.7317007"><ele>274.0</ele><time>2026-04-25T09:33:22.251Z</time></trkpt><trkpt lat="45.2272437" lon="7.7317228"><ele>274.0</ele><time>2026-04-25T09:33:25.252Z</time></trkpt><trkpt lat="45.2273584" lon="7.7317573"><ele>274.0</ele><time>2026-04-25T09:33:27.248Z</time></trkpt><trkpt lat="45.2274498" lon="7.7317763"><ele>274.0</ele><time>2026-04-25T09:33:28.249Z</time></trkpt><trkpt lat="45.2275558" lon="7.7317932"><ele>273.5</ele><time>2026-04-25T09:33:29.26Z</time></trkpt><trkpt lat="45.227683" lon="7.731811"><ele>273.0</ele><time>2026-04-25T09:33:30.262Z</time></trkpt><trkpt lat="45.2278077" lon="7.7318158"><ele>272.5</ele><time>2026-04-25T09:33:31.267Z</time></trkpt><trkpt lat="45.2279352" lon="7.7318241"><ele>272.0</ele><time>2026-04-25T09:33:32.27Z</time></trkpt><trkpt lat="45.2280603" lon="7.7318287"><ele>272.25</ele><time>2026-04-25T09:33:33.268Z</time></trkpt><trkpt lat="45.2281897" lon="7.7318389"><ele>272.5</ele><time>2026-04-25T09:33:34.263Z</time></trkpt><trkpt lat="45.2283069" lon="7.7318432"><ele>272.75</ele><time>2026-04-25T09:33:35.259Z</time></trkpt><trkpt lat="45.2284266" lon="7.7318551"><ele>273.0</ele><time>2026-04-25T09:33:36.263Z</time></trkpt><trkpt lat="45.2285481" lon="7.731865"><ele>273.0</ele><time>2026-04-25T09:33:37.254Z</time></trkpt><trkpt lat="45.228673" lon="7.7318812"><ele>273.0</ele><time>2026-04-25T09:33:38.256Z</time></trkpt><trkpt lat="45.2287874" lon="7.7318852"><ele>273.0</ele><time>2026-04-25T09:33:39.252Z</time></trkpt><trkpt lat="45.2289131" lon="7.7318927"><ele>273.0</ele><time>2026-04-25T09:33:40.253Z</time></trkpt><trkpt lat="45.2290476" lon="7.7319198"><ele>273.25</ele><time>2026-04-25T09:33:41.248Z</time></trkpt><trkpt lat="45.2291798" lon="7.7319387"><ele>273.5</ele><time>2026-04-25T09:33:42.244Z</time></trkpt><trkpt lat="45.2292933" lon="7.731949"><ele>273.75</ele><time>2026-04-25T09:33:43.244Z</time></trkpt><trkpt lat="45.2294218" lon="7.7319776"><ele>274.0</ele><time>2026-04-25T09:33:44.25Z</time></trkpt><trkpt lat="45.229578" lon="7.7320173"><ele>274.0</ele><time>2026-04-25T09:33:45.243Z</time></trkpt><trkpt lat="45.2297121" lon="7.7320462"><ele>274.0</ele><time>2026-04-25T09:33:46.245Z</time></trkpt><trkpt lat="45.22983" lon="7.732047"><ele>274.0</ele><time>2026-04-25T09:33:47.25Z</time></trkpt><trkpt lat="45.2299771" lon="7.7320815"><ele>274.0</ele><time>2026-04-25T09:33:48.24Z</time></trkpt><trkpt lat="45.230113" lon="7.7321045"><ele>274.0</ele><time>2026-04-25T09:33:49.243Z</time></trkpt><trkpt lat="45.2302017" lon="7.7320828"><ele>274.0</ele><time>2026-04-25T09:33:50.242Z</time></trkpt><trkpt lat="45.2303334" lon="7.7321195"><ele>274.0</ele><time>2026-04-25T09:33:51.238Z</time></trkpt><trkpt lat="45.2304893" lon="7.7321727"><ele>274.0</ele><time>2026-04-25T09:33:52.241Z</time></trkpt><trkpt lat="45.2306118" lon="7.7323207"><ele>272.25</ele><time>2026-04-25T09:33:53.241Z</time></trkpt><trkpt lat="45.2307252" lon="7.7324667"><ele>270.5</ele><time>2026-04-25T09:33:54.233Z</time></trkpt><trkpt lat="45.2307998" lon="7.732639"><ele>268.75</ele><time>2026-04-25T09:33:55.242Z</time></trkpt><trkpt lat="45.2308721" lon="7.7328314"><ele>267.0</ele><time>2026-04-25T09:33:56.244Z</time></trkpt><trkpt lat="45.230934" lon="7.7330227"><ele>267.0</ele><time>2026-04-25T09:33:57.268Z</time></trkpt><trkpt lat="45.2309948" lon="7.733185"><ele>267.0</ele><time>2026-04-25T09:33:58.247Z</time></trkpt><trkpt lat="45.2310354" lon="7.733382"><ele>267.0</ele><time>2026-04-25T09:33:59.25Z</time></trkpt><trkpt lat="45.2311109" lon="7.7335696"><ele>267.0</ele><time>2026-04-25T09:34:00.246Z</time></trkpt><trkpt lat="45.2311966" lon="7.7337419"><ele>267.3333333333333</ele><time>2026-04-25T09:34:01.25Z</time></trkpt><trkpt lat="45.2312686" lon="7.733959"><ele>267.66666666666663</ele><time>2026-04-25T09:34:02.253Z</time></trkpt><trkpt lat="45.2313899" lon="7.7341509"><ele>268.0</ele><time>2026-04-25T09:34:03.253Z</time></trkpt><trkpt lat="45.2314627" lon="7.7343509"><ele>262.3333333333333</ele><time>2026-04-25T09:34:04.251Z</time></trkpt><trkpt lat="45.2315618" lon="7.7345412"><ele>256.6666666666667</ele><time>2026-04-25T09:34:05.255Z</time></trkpt><trkpt lat="45.2316339" lon="7.7347507"><ele>251.0</ele><time>2026-04-25T09:34:06.258Z</time></trkpt><trkpt lat="45.2317296" lon="7.7349326"><ele>251.0</ele><time>2026-04-25T09:34:07.257Z</time></trkpt><trkpt lat="45.2318053" lon="7.7351175"><ele>251.0</ele><time>2026-04-25T09:34:08.257Z</time></trkpt><trkpt lat="45.2318751" lon="7.7353132"><ele>251.0</ele><time>2026-04-25T09:34:09.257Z</time></trkpt><trkpt lat="45.2319562" lon="7.735485"><ele>250.0</ele><time>2026-04-25T09:34:10.258Z</time></trkpt><trkpt lat="45.2320495" lon="7.7356591"><ele>249.0</ele><time>2026-04-25T09:34:11.257Z</time></trkpt><trkpt lat="45.2321358" lon="7.7358396"><ele>248.0</ele><time>2026-04-25T09:34:12.26Z</time></trkpt><trkpt lat="45.2322183" lon="7.7360098"><ele>247.0</ele><time>2026-04-25T09:34:13.261Z</time></trkpt><trkpt lat="45.2322995" lon="7.7361852"><ele>246.0</ele><time>2026-04-25T09:34:14.262Z</time></trkpt><trkpt lat="45.2323772" lon="7.7363471"><ele>245.0</ele><time>2026-04-25T09:34:15.263Z</time></trkpt><trkpt lat="45.2324442" lon="7.7365336"><ele>244.0</ele><time>2026-04-25T09:34:16.261Z</time></trkpt><trkpt lat="45.2325268" lon="7.7367061"><ele>241.0</ele><time>2026-04-25T09:34:17.262Z</time></trkpt><trkpt lat="45.2326002" lon="7.7368943"><ele>238.0</ele><time>2026-04-25T09:34:18.259Z</time></trkpt><trkpt lat="45.2326813" lon="7.7370671"><ele>235.0</ele><time>2026-04-25T09:34:19.264Z</time></trkpt><trkpt lat="45.2327575" lon="7.7372523"><ele>232.0</ele><time>2026-04-25T09:34:20.265Z</time></trkpt><trkpt lat="45.2328287" lon="7.7374352"><ele>232.0</ele><time>2026-04-25T09:34:21.266Z</time></trkpt><trkpt lat="45.2329448" lon="7.7376122"><ele>232.0</ele><time>2026-04-25T09:34:22.256Z</time></trkpt><trkpt lat="45.2330324" lon="7.7377568"><ele>232.0</ele><time>2026-04-25T09:34:23.261Z</time></trkpt><trkpt lat="45.2331405" lon="7.7379017"><ele>232.2</ele><time>2026-04-25T09:34:24.269Z</time></trkpt><trkpt lat="45.2332162" lon="7.7380304"><ele>232.39999999999998</ele><time>2026-04-25T09:34:25.26Z</time></trkpt><trkpt lat="45.2332934" lon="7.7381457"><ele>232.60000000000002</ele><time>2026-04-25T09:34:26.261Z</time></trkpt><trkpt lat="45.2333675" lon="7.7382455"><ele>232.8</ele><time>2026-04-25T09:34:27.27Z</time></trkpt><trkpt lat="45.2334243" lon="7.7383426"><ele>233.0</ele><time>2026-04-25T09:34:28.269Z</time></trkpt><trkpt lat="45.2334785" lon="7.7384297"><ele>233.0</ele><time>2026-04-25T09:34:29.264Z</time></trkpt><trkpt lat="45.233534" lon="7.7385111"><ele>233.0</ele><time>2026-04-25T09:34:30.262Z</time></trkpt><trkpt lat="45.233603" lon="7.7386082"><ele>233.0</ele><time>2026-04-25T09:34:31.265Z</time></trkpt><trkpt lat="45.2336661" lon="7.7387065"><ele>233.0</ele><time>2026-04-25T09:34:32.259Z</time></trkpt><trkpt lat="45.2337394" lon="7.7388038"><ele>233.0</ele><time>2026-04-25T09:34:33.259Z</time></trkpt><trkpt lat="45.2337947" lon="7.7389104"><ele>232.8</ele><time>2026-04-25T09:34:34.254Z</time></trkpt><trkpt lat="45.2338401" lon="7.7390227"><ele>232.60000000000002</ele><time>2026-04-25T09:34:35.253Z</time></trkpt><trkpt lat="45.2338981" lon="7.7391381"><ele>232.39999999999998</ele><time>2026-04-25T09:34:36.254Z</time></trkpt><trkpt lat="45.2339786" lon="7.7392532"><ele>232.2</ele><time>2026-04-25T09:34:37.249Z</time></trkpt><trkpt lat="45.2340505" lon="7.7393649"><ele>232.0</ele><time>2026-04-25T09:34:38.252Z</time></trkpt><trkpt lat="45.2341254" lon="7.7394916"><ele>231.25</ele><time>2026-04-25T09:34:39.253Z</time></trkpt><trkpt lat="45.2341961" lon="7.7396261"><ele>230.5</ele><time>2026-04-25T09:34:40.251Z</time></trkpt><trkpt lat="45.234248" lon="7.7397689"><ele>229.75</ele><time>2026-04-25T09:34:41.253Z</time></trkpt><trkpt lat="45.2343062" lon="7.7399058"><ele>229.0</ele><time>2026-04-25T09:34:42.254Z</time></trkpt><trkpt lat="45.2343698" lon="7.7400495"><ele>229.0</ele><time>2026-04-25T09:34:43.254Z</time></trkpt><trkpt lat="45.2344471" lon="7.7401977"><ele>229.0</ele><time>2026-04-25T09:34:44.256Z</time></trkpt><trkpt lat="45.2345312" lon="7.7403467"><ele>229.0</ele><time>2026-04-25T09:34:45.253Z</time></trkpt><trkpt lat="45.2346049" lon="7.7404791"><ele>229.0</ele><time>2026-04-25T09:34:46.259Z</time></trkpt><trkpt lat="45.2346813" lon="7.7406355"><ele>228.75</ele><time>2026-04-25T09:34:47.26Z</time></trkpt><trkpt lat="45.2347613" lon="7.7407746"><ele>228.5</ele><time>2026-04-25T09:34:48.259Z</time></trkpt><trkpt lat="45.23483" lon="7.7409056"><ele>228.25</ele><time>2026-04-25T09:34:49.258Z</time></trkpt><trkpt lat="45.2348936" lon="7.7410363"><ele>228.0</ele><time>2026-04-25T09:34:50.256Z</time></trkpt><trkpt lat="45.2349561" lon="7.741162"><ele>228.0</ele><time>2026-04-25T09:34:51.255Z</time></trkpt><trkpt lat="45.235014" lon="7.7412684"><ele>228.0</ele><time>2026-04-25T09:34:52.245Z</time></trkpt><trkpt lat="45.2350696" lon="7.7413574"><ele>228.0</ele><time>2026-04-25T09:34:53.248Z</time></trkpt><trkpt lat="45.235129" lon="7.7414034"><ele>228.0</ele><time>2026-04-25T09:34:54.248Z</time></trkpt><trkpt lat="45.2352304" lon="7.74144"><ele>228.0</ele><time>2026-04-25T09:34:56.232Z</time></trkpt><trkpt lat="45.2352878" lon="7.7415256"><ele>228.0</ele><time>2026-04-25T09:35:24.248Z</time></trkpt><trkpt lat="45.2352612" lon="7.7414442"><ele>228.0</ele><time>2026-04-25T09:36:11.258Z</time></trkpt><trkpt lat="45.2353113" lon="7.7415313"><ele>227.99999999999997</ele><time>2026-04-25T09:36:38.259Z</time></trkpt><trkpt lat="45.2353698" lon="7.7415858"><ele>228.0</ele><time>2026-04-25T09:37:26.25Z</time></trkpt><trkpt lat="45.2354251" lon="7.7416373"><ele>228.0</ele><time>2026-04-25T09:38:56.269Z</time></trkpt><trkpt lat="45.2354761" lon="7.7416946"><ele>227.99999999999997</ele><time>2026-04-25T09:39:02.241Z</time></trkpt><trkpt lat="45.2355323" lon="7.741747"><ele>228.0</ele><time>2026-04-25T09:39:22.256Z</time></trkpt><trkpt lat="45.2354558" lon="7.741672"><ele>228.0</ele><time>2026-04-25T09:39:43.252Z</time></trkpt><trkpt lat="45.2355118" lon="7.7417157"><ele>228.0</ele><time>2026-04-25T09:41:38.235Z</time></trkpt><trkpt lat="45.235565" lon="7.7417652"><ele>228.0</ele><time>2026-04-25T09:42:16.246Z</time></trkpt><trkpt lat="45.2355683" lon="7.7416218"><ele>228.0</ele><time>2026-04-25T09:42:24.226Z</time></trkpt><trkpt lat="45.235504" lon="7.7415679"><ele>228.0</ele><time>2026-04-25T09:42:25.225Z</time></trkpt><trkpt lat="45.2354435" lon="7.7415415"><ele>228.0</ele><time>2026-04-25T09:42:26.229Z</time></trkpt><trkpt lat="45.2353479" lon="7.7414756"><ele>228.0</ele><time>2026-04-25T09:42:32.256Z</time></trkpt><trkpt lat="45.2354183" lon="7.7414054"><ele>228.0</ele><time>2026-04-25T09:43:26.252Z</time></trkpt><trkpt lat="45.2355066" lon="7.7413305"><ele>228.0</ele><time>2026-04-25T09:43:27.243Z</time></trkpt><trkpt lat="45.2356141" lon="7.7412203"><ele>228.0</ele><time>2026-04-25T09:43:28.254Z</time></trkpt><trkpt lat="45.2357176" lon="7.7411027"><ele>228.0</ele><time>2026-04-25T09:43:29.26Z</time></trkpt><trkpt lat="45.2358205" lon="7.7409884"><ele>228.0</ele><time>2026-04-25T09:43:30.261Z</time></trkpt><trkpt lat="45.2359198" lon="7.7408767"><ele>228.0</ele><time>2026-04-25T09:43:31.256Z</time></trkpt><trkpt lat="45.2360264" lon="7.7407488"><ele>228.0</ele><time>2026-04-25T09:43:32.246Z</time></trkpt><trkpt lat="45.2361369" lon="7.7406308"><ele>228.0</ele><time>2026-04-25T09:43:33.261Z</time></trkpt><trkpt lat="45.2362543" lon="7.7405026"><ele>228.0</ele><time>2026-04-25T09:43:34.257Z</time></trkpt><trkpt lat="45.2363271" lon="7.7404038"><ele>228.0</ele><time>2026-04-25T09:43:35.262Z</time></trkpt><trkpt lat="45.2364311" lon="7.7403525"><ele>228.0</ele><time>2026-04-25T09:43:36.252Z</time></trkpt><trkpt lat="45.2365075" lon="7.7402709"><ele>228.0</ele><time>2026-04-25T09:43:37.263Z</time></trkpt><trkpt lat="45.2365987" lon="7.7401748"><ele>228.0</ele><time>2026-04-25T09:43:38.259Z</time></trkpt><trkpt lat="45.2366833" lon="7.7401551"><ele>228.0</ele><time>2026-04-25T09:43:39.26Z</time></trkpt><trkpt lat="45.2367645" lon="7.7401546"><ele>228.0</ele><time>2026-04-25T09:43:40.251Z</time></trkpt><trkpt lat="45.2368415" lon="7.7401429"><ele>228.0</ele><time>2026-04-25T09:43:41.258Z</time></trkpt><trkpt lat="45.2369098" lon="7.7401901"><ele>228.0</ele><time>2026-04-25T09:43:42.27Z</time></trkpt><trkpt lat="45.2369805" lon="7.7402166"><ele>228.0</ele><time>2026-04-25T09:43:43.261Z</time></trkpt><trkpt lat="45.2370884" lon="7.7401857"><ele>228.0</ele><time>2026-04-25T09:43:45.267Z</time></trkpt><trkpt lat="45.2371183" lon="7.7400905"><ele>228.0</ele><time>2026-04-25T09:43:46.26Z</time></trkpt><trkpt lat="45.2371269" lon="7.7399835"><ele>228.0</ele><time>2026-04-25T09:43:47.262Z</time></trkpt><trkpt lat="45.2371292" lon="7.7398217"><ele>228.0</ele><time>2026-04-25T09:43:48.256Z</time></trkpt><trkpt lat="45.237122" lon="7.7396444"><ele>228.0</ele><time>2026-04-25T09:43:49.258Z</time></trkpt><trkpt lat="45.2371256" lon="7.7394149"><ele>230.5</ele><time>2026-04-25T09:43:50.26Z</time></trkpt><trkpt lat="45.2371344" lon="7.7392054"><ele>233.0</ele><time>2026-04-25T09:43:51.266Z</time></trkpt><trkpt lat="45.2371531" lon="7.7390064"><ele>235.5</ele><time>2026-04-25T09:43:52.265Z</time></trkpt><trkpt lat="45.2371878" lon="7.738801"><ele>238.0</ele><time>2026-04-25T09:43:53.261Z</time></trkpt><trkpt lat="45.2372702" lon="7.7385599"><ele>236.66666666666666</ele><time>2026-04-25T09:43:54.26Z</time></trkpt><trkpt lat="45.2373502" lon="7.7383606"><ele>235.33333333333331</ele><time>2026-04-25T09:43:55.266Z</time></trkpt><trkpt lat="45.2374148" lon="7.7381693"><ele>234.0</ele><time>2026-04-25T09:43:56.268Z</time></trkpt><trkpt lat="45.2374983" lon="7.7379835"><ele>234.0</ele><time>2026-04-25T09:43:57.261Z</time></trkpt><trkpt lat="45.2375748" lon="7.7377802"><ele>234.0</ele><time>2026-04-25T09:43:58.261Z</time></trkpt><trkpt lat="45.2376572" lon="7.7376"><ele>234.0</ele><time>2026-04-25T09:43:59.251Z</time></trkpt><trkpt lat="45.2377543" lon="7.7373757"><ele>240.66666666666669</ele><time>2026-04-25T09:44:00.253Z</time></trkpt><trkpt lat="45.2378358" lon="7.7371893"><ele>247.33333333333334</ele><time>2026-04-25T09:44:01.256Z</time></trkpt><trkpt lat="45.237957" lon="7.7369964"><ele>254.0</ele><time>2026-04-25T09:44:02.257Z</time></trkpt><trkpt lat="45.238058" lon="7.7368001"><ele>246.66666666666669</ele><time>2026-04-25T09:44:03.255Z</time></trkpt><trkpt lat="45.23817" lon="7.7365708"><ele>239.33333333333331</ele><time>2026-04-25T09:44:04.255Z</time></trkpt><trkpt lat="45.2382713" lon="7.736339"><ele>232.0</ele><time>2026-04-25T09:44:05.257Z</time></trkpt><trkpt lat="45.2383705" lon="7.7361239"><ele>237.33333333333331</ele><time>2026-04-25T09:44:06.256Z</time></trkpt><trkpt lat="45.2384613" lon="7.7359176"><ele>242.66666666666669</ele><time>2026-04-25T09:44:07.259Z</time></trkpt><trkpt lat="45.2385506" lon="7.735701"><ele>248.0</ele><time>2026-04-25T09:44:08.255Z</time></trkpt><trkpt lat="45.2386453" lon="7.7354936"><ele>248.0</ele><time>2026-04-25T09:44:09.259Z</time></trkpt><trkpt lat="45.2387486" lon="7.7353222"><ele>248.0</ele><time>2026-04-25T09:44:10.258Z</time></trkpt><trkpt lat="45.23886" lon="7.7351888"><ele>248.0</ele><time>2026-04-25T09:44:11.252Z</time></trkpt><trkpt lat="45.2389818" lon="7.7350551"><ele>245.33333333333334</ele><time>2026-04-25T09:44:12.258Z</time></trkpt><trkpt lat="45.2391243" lon="7.7349517"><ele>242.66666666666669</ele><time>2026-04-25T09:44:13.257Z</time></trkpt><trkpt lat="45.2392891" lon="7.7348744"><ele>240.0</ele><time>2026-04-25T09:44:14.253Z</time></trkpt><trkpt lat="45.2394991" lon="7.7347992"><ele>240.0</ele><time>2026-04-25T09:44:15.266Z</time></trkpt><trkpt lat="45.2396658" lon="7.7347207"><ele>240.0</ele><time>2026-04-25T09:44:16.254Z</time></trkpt><trkpt lat="45.2398522" lon="7.7346286"><ele>240.0</ele><time>2026-04-25T09:44:17.261Z</time></trkpt><trkpt lat="45.2400215" lon="7.7345504"><ele>239.66666666666669</ele><time>2026-04-25T09:44:18.259Z</time></trkpt><trkpt lat="45.2402155" lon="7.734457"><ele>239.33333333333334</ele><time>2026-04-25T09:44:19.265Z</time></trkpt><trkpt lat="45.2404097" lon="7.7343334"><ele>239.0</ele><time>2026-04-25T09:44:20.267Z</time></trkpt><trkpt lat="45.2405914" lon="7.7342499"><ele>235.66666666666669</ele><time>2026-04-25T09:44:21.267Z</time></trkpt><trkpt lat="45.2407695" lon="7.7341702"><ele>232.33333333333331</ele><time>2026-04-25T09:44:22.269Z</time></trkpt><trkpt lat="45.2409598" lon="7.7340763"><ele>229.0</ele><time>2026-04-25T09:44:23.266Z</time></trkpt><trkpt lat="45.2411418" lon="7.7339941"><ele>229.0</ele><time>2026-04-25T09:44:24.268Z</time></trkpt><trkpt lat="45.2413261" lon="7.7339175"><ele>229.0</ele><time>2026-04-25T09:44:25.269Z</time></trkpt><trkpt lat="45.2415042" lon="7.7338418"><ele>229.0</ele><time>2026-04-25T09:44:26.279Z</time></trkpt><trkpt lat="45.2416782" lon="7.7337169"><ele>229.0</ele><time>2026-04-25T09:44:27.275Z</time></trkpt><trkpt lat="45.2418343" lon="7.7335605"><ele>229.0</ele><time>2026-04-25T09:44:28.271Z</time></trkpt><trkpt lat="45.2419879" lon="7.7334024"><ele>229.0</ele><time>2026-04-25T09:44:29.269Z</time></trkpt><trkpt lat="45.2421432" lon="7.7332353"><ele>230.0</ele><time>2026-04-25T09:44:30.271Z</time></trkpt><trkpt lat="45.2423128" lon="7.7330566"><ele>231.0</ele><time>2026-04-25T09:44:31.265Z</time></trkpt><trkpt lat="45.2424838" lon="7.7328608"><ele>232.0</ele><time>2026-04-25T09:44:32.267Z</time></trkpt><trkpt lat="45.2426622" lon="7.732695"><ele>232.0</ele><time>2026-04-25T09:44:33.268Z</time></trkpt><trkpt lat="45.2428229" lon="7.7325133"><ele>232.0</ele><time>2026-04-25T09:44:34.267Z</time></trkpt><trkpt lat="45.2429971" lon="7.7323449"><ele>232.0</ele><time>2026-04-25T09:44:35.268Z</time></trkpt><trkpt lat="45.243177" lon="7.7321789"><ele>233.66666666666666</ele><time>2026-04-25T09:44:36.269Z</time></trkpt><trkpt lat="45.2433395" lon="7.7320253"><ele>235.33333333333331</ele><time>2026-04-25T09:44:37.268Z</time></trkpt><trkpt lat="45.2434915" lon="7.7318555"><ele>237.0</ele><time>2026-04-25T09:44:38.267Z</time></trkpt><trkpt lat="45.2436397" lon="7.7316663"><ele>236.66666666666669</ele><time>2026-04-25T09:44:39.267Z</time></trkpt><trkpt lat="45.243782" lon="7.7314857"><ele>236.33333333333334</ele><time>2026-04-25T09:44:40.264Z</time></trkpt><trkpt lat="45.2439167" lon="7.7313098"><ele>236.0</ele><time>2026-04-25T09:44:41.262Z</time></trkpt><trkpt lat="45.2440434" lon="7.7310881"><ele>235.33333333333334</ele><time>2026-04-25T09:44:42.261Z</time></trkpt><trkpt lat="45.244154" lon="7.7308405"><ele>234.66666666666669</ele><time>2026-04-25T09:44:43.264Z</time></trkpt><trkpt lat="45.2442696" lon="7.7306006"><ele>234.0</ele><time>2026-04-25T09:44:44.261Z</time></trkpt><trkpt lat="45.2443965" lon="7.7303607"><ele>234.33333333333331</ele><time>2026-04-25T09:44:45.26Z</time></trkpt><trkpt lat="45.2445342" lon="7.7301346"><ele>234.66666666666666</ele><time>2026-04-25T09:44:46.27Z</time></trkpt><trkpt lat="45.244653" lon="7.7298931"><ele>235.0</ele><time>2026-04-25T09:44:47.263Z</time></trkpt><trkpt lat="45.2447674" lon="7.7296709"><ele>234.66666666666666</ele><time>2026-04-25T09:44:48.258Z</time></trkpt><trkpt lat="45.2448964" lon="7.7294335"><ele>234.33333333333331</ele><time>2026-04-25T09:44:49.262Z</time></trkpt><trkpt lat="45.2450424" lon="7.7291972"><ele>234.0</ele><time>2026-04-25T09:44:50.259Z</time></trkpt><trkpt lat="45.2451736" lon="7.7289618"><ele>235.0</ele><time>2026-04-25T09:44:51.257Z</time></trkpt><trkpt lat="45.2453066" lon="7.7287188"><ele>236.0</ele><time>2026-04-25T09:44:52.257Z</time></trkpt><trkpt lat="45.2454417" lon="7.7284991"><ele>237.0</ele><time>2026-04-25T09:44:53.255Z</time></trkpt><trkpt lat="45.2455622" lon="7.7282243"><ele>237.66666666666669</ele><time>2026-04-25T09:44:54.257Z</time></trkpt><trkpt lat="45.2456427" lon="7.7279464"><ele>238.33333333333334</ele><time>2026-04-25T09:44:55.26Z</time></trkpt><trkpt lat="45.2457203" lon="7.7276546"><ele>239.0</ele><time>2026-04-25T09:44:56.268Z</time></trkpt><trkpt lat="45.2458255" lon="7.7273575"><ele>239.0</ele><time>2026-04-25T09:44:57.261Z</time></trkpt><trkpt lat="45.2459136" lon="7.727055"><ele>239.0</ele><time>2026-04-25T09:44:58.269Z</time></trkpt><trkpt lat="45.2460061" lon="7.726781"><ele>239.0</ele><time>2026-04-25T09:44:59.267Z</time></trkpt><trkpt lat="45.2461091" lon="7.7265256"><ele>242.33333333333334</ele><time>2026-04-25T09:45:00.259Z</time></trkpt><trkpt lat="45.2461806" lon="7.7262961"><ele>245.66666666666669</ele><time>2026-04-25T09:45:01.247Z</time></trkpt><trkpt lat="45.2462474" lon="7.7260491"><ele>249.0</ele><time>2026-04-25T09:45:02.244Z</time></trkpt><trkpt lat="45.2463483" lon="7.7258172"><ele>250.0</ele><time>2026-04-25T09:45:03.244Z</time></trkpt><trkpt lat="45.246454" lon="7.7255928"><ele>251.0</ele><time>2026-04-25T09:45:04.246Z</time></trkpt><trkpt lat="45.2465687" lon="7.7253789"><ele>252.0</ele><time>2026-04-25T09:45:05.241Z</time></trkpt><trkpt lat="45.2466615" lon="7.7251453"><ele>252.0</ele><time>2026-04-25T09:45:06.243Z</time></trkpt><trkpt lat="45.2467505" lon="7.7249259"><ele>252.0</ele><time>2026-04-25T09:45:07.243Z</time></trkpt><trkpt lat="45.2468403" lon="7.7247285"><ele>252.0</ele><time>2026-04-25T09:45:08.244Z</time></trkpt><trkpt lat="45.246967" lon="7.7245296"><ele>253.66666666666669</ele><time>2026-04-25T09:45:09.241Z</time></trkpt><trkpt lat="45.2470894" lon="7.7243174"><ele>255.33333333333334</ele><time>2026-04-25T09:45:10.241Z</time></trkpt><trkpt lat="45.2472271" lon="7.7241385"><ele>257.0</ele><time>2026-04-25T09:45:11.243Z</time></trkpt><trkpt lat="45.2473487" lon="7.7239399"><ele>257.33333333333337</ele><time>2026-04-25T09:45:12.244Z</time></trkpt><trkpt lat="45.2474676" lon="7.7237427"><ele>257.6666666666667</ele><time>2026-04-25T09:45:13.245Z</time></trkpt><trkpt lat="45.2475777" lon="7.7235498"><ele>258.0</ele><time>2026-04-25T09:45:14.244Z</time></trkpt><trkpt lat="45.2477047" lon="7.7233709"><ele>258.0</ele><time>2026-04-25T09:45:15.248Z</time></trkpt><trkpt lat="45.2478193" lon="7.7231828"><ele>258.0</ele><time>2026-04-25T09:45:16.25Z</time></trkpt><trkpt lat="45.2479322" lon="7.7230008"><ele>258.0</ele><time>2026-04-25T09:45:17.264Z</time></trkpt><trkpt lat="45.2480344" lon="7.7228091"><ele>254.66666666666669</ele><time>2026-04-25T09:45:18.248Z</time></trkpt><trkpt lat="45.2481338" lon="7.7225857"><ele>251.33333333333334</ele><time>2026-04-25T09:45:19.247Z</time></trkpt><trkpt lat="45.2481928" lon="7.7223905"><ele>248.0</ele><time>2026-04-25T09:45:20.242Z</time></trkpt><trkpt lat="45.24827" lon="7.7222087"><ele>248.0</ele><time>2026-04-25T09:45:21.244Z</time></trkpt><trkpt lat="45.2483362" lon="7.7220028"><ele>248.0</ele><time>2026-04-25T09:45:22.243Z</time></trkpt><trkpt lat="45.2484098" lon="7.7218122"><ele>248.0</ele><time>2026-04-25T09:45:23.245Z</time></trkpt><trkpt lat="45.2484712" lon="7.7216272"><ele>249.75</ele><time>2026-04-25T09:45:24.247Z</time></trkpt><trkpt lat="45.2485202" lon="7.7214484"><ele>251.5</ele><time>2026-04-25T09:45:25.246Z</time></trkpt><trkpt lat="45.2486084" lon="7.7212709"><ele>253.25</ele><time>2026-04-25T09:45:26.243Z</time></trkpt><trkpt lat="45.2486807" lon="7.721116"><ele>255.0</ele><time>2026-04-25T09:45:27.238Z</time></trkpt><trkpt lat="45.2488038" lon="7.7209651"><ele>256.4</ele><time>2026-04-25T09:45:28.24Z</time></trkpt><trkpt lat="45.2489036" lon="7.7208411"><ele>257.8</ele><time>2026-04-25T09:45:29.24Z</time></trkpt><trkpt lat="45.248974" lon="7.7207308"><ele>259.2</ele><time>2026-04-25T09:45:30.238Z</time></trkpt><trkpt lat="45.2490257" lon="7.7206196"><ele>260.6</ele><time>2026-04-25T09:45:31.237Z</time></trkpt><trkpt lat="45.2490622" lon="7.720541"><ele>262.0</ele><time>2026-04-25T09:45:32.246Z</time></trkpt><trkpt lat="45.2491122" lon="7.7204706"><ele>259.16666666666663</ele><time>2026-04-25T09:45:33.244Z</time></trkpt><trkpt lat="45.2491829" lon="7.7203819"><ele>256.3333333333333</ele><time>2026-04-25T09:45:35.248Z</time></trkpt><trkpt lat="45.2492249" lon="7.720308"><ele>253.5</ele><time>2026-04-25T09:45:49.243Z</time></trkpt><trkpt lat="45.2492779" lon="7.7202271"><ele>250.66666666666669</ele><time>2026-04-25T09:45:52.248Z</time></trkpt><trkpt lat="45.2493658" lon="7.7201086"><ele>247.83333333333334</ele><time>2026-04-25T09:45:54.245Z</time></trkpt><trkpt lat="45.2494185" lon="7.7200449"><ele>245.0</ele><time>2026-04-25T09:45:55.249Z</time></trkpt><trkpt lat="45.2494754" lon="7.7199704"><ele>245.0</ele><time>2026-04-25T09:45:56.257Z</time></trkpt><trkpt lat="45.2495479" lon="7.7198876"><ele>245.0</ele><time>2026-04-25T09:45:57.247Z</time></trkpt><trkpt lat="45.2496235" lon="7.7197809"><ele>245.0</ele><time>2026-04-25T09:45:58.251Z</time></trkpt><trkpt lat="45.2497032" lon="7.7196611"><ele>245.0</ele><time>2026-04-25T09:45:59.25Z</time></trkpt><trkpt lat="45.2497738" lon="7.7195506"><ele>245.0</ele><time>2026-04-25T09:46:00.247Z</time></trkpt><trkpt lat="45.2498322" lon="7.7194366"><ele>244.2</ele><time>2026-04-25T09:46:01.246Z</time></trkpt><trkpt lat="45.2499195" lon="7.719339"><ele>243.4</ele><time>2026-04-25T09:46:02.24Z</time></trkpt><trkpt lat="45.2500152" lon="7.7192474"><ele>242.60000000000002</ele><time>2026-04-25T09:46:03.244Z</time></trkpt><trkpt lat="45.2501015" lon="7.7191588"><ele>241.8</ele><time>2026-04-25T09:46:04.247Z</time></trkpt><trkpt lat="45.2501735" lon="7.7190885"><ele>241.0</ele><time>2026-04-25T09:46:05.244Z</time></trkpt><trkpt lat="45.2502241" lon="7.7190303"><ele>240.99999999999997</ele><time>2026-04-25T09:46:06.253Z</time></trkpt><trkpt lat="45.250293" lon="7.7189456"><ele>241.0</ele><time>2026-04-25T09:46:08.255Z</time></trkpt><trkpt lat="45.2503453" lon="7.7188434"><ele>241.0</ele><time>2026-04-25T09:46:10.252Z</time></trkpt><trkpt lat="45.2503925" lon="7.7187642"><ele>241.0</ele><time>2026-04-25T09:46:13.257Z</time></trkpt><trkpt lat="45.2504207" lon="7.7186755"><ele>240.99999999999997</ele><time>2026-04-25T09:46:16.246Z</time></trkpt><trkpt lat="45.2504508" lon="7.7185848"><ele>241.0</ele><time>2026-04-25T09:46:25.249Z</time></trkpt><trkpt lat="45.2505076" lon="7.7185114"><ele>241.16666666666666</ele><time>2026-04-25T09:46:27.247Z</time></trkpt><trkpt lat="45.2506097" lon="7.7184253"><ele>241.33333333333331</ele><time>2026-04-25T09:46:29.248Z</time></trkpt><trkpt lat="45.2506581" lon="7.718355"><ele>241.5</ele><time>2026-04-25T09:46:30.243Z</time></trkpt><trkpt lat="45.2507036" lon="7.7182894"><ele>241.66666666666669</ele><time>2026-04-25T09:46:31.243Z</time></trkpt><trkpt lat="45.2507648" lon="7.7182285"><ele>241.83333333333334</ele><time>2026-04-25T09:46:32.246Z</time></trkpt><trkpt lat="45.2508287" lon="7.7181479"><ele>242.0</ele><time>2026-04-25T09:46:33.239Z</time></trkpt><trkpt lat="45.2508992" lon="7.7180764"><ele>242.00000000000003</ele><time>2026-04-25T09:46:34.241Z</time></trkpt><trkpt lat="45.2509593" lon="7.7180142"><ele>242.0</ele><time>2026-04-25T09:46:35.242Z</time></trkpt><trkpt lat="45.2510147" lon="7.7179542"><ele>242.0</ele><time>2026-04-25T09:46:36.243Z</time></trkpt><trkpt lat="45.2510829" lon="7.7178592"><ele>242.0</ele><time>2026-04-25T09:46:38.239Z</time></trkpt><trkpt lat="45.2511395" lon="7.7179037"><ele>242.00000000000003</ele><time>2026-04-25T09:46:40.239Z</time></trkpt><trkpt lat="45.2512286" lon="7.7180076"><ele>242.0</ele><time>2026-04-25T09:46:42.24Z</time></trkpt><trkpt lat="45.2512758" lon="7.71809"><ele>242.0</ele><time>2026-04-25T09:46:43.234Z</time></trkpt><trkpt lat="45.251324" lon="7.7181851"><ele>242.0</ele><time>2026-04-25T09:46:44.243Z</time></trkpt><trkpt lat="45.2513586" lon="7.7183215"><ele>242.0</ele><time>2026-04-25T09:46:45.255Z</time></trkpt><trkpt lat="45.2514484" lon="7.7184034"><ele>242.0</ele><time>2026-04-25T09:46:46.255Z</time></trkpt><trkpt lat="45.2515284" lon="7.7185003"><ele>242.0</ele><time>2026-04-25T09:46:47.256Z</time></trkpt><trkpt lat="45.2516177" lon="7.7186011"><ele>241.2</ele><time>2026-04-25T09:46:48.258Z</time></trkpt><trkpt lat="45.2517028" lon="7.7187119"><ele>240.39999999999998</ele><time>2026-04-25T09:46:49.261Z</time></trkpt><trkpt lat="45.2517833" lon="7.718821"><ele>239.60000000000002</ele><time>2026-04-25T09:46:50.27Z</time></trkpt><trkpt lat="45.2518636" lon="7.7189217"><ele>238.8</ele><time>2026-04-25T09:46:51.258Z</time></trkpt><trkpt lat="45.2519443" lon="7.7190214"><ele>238.0</ele><time>2026-04-25T09:46:52.254Z</time></trkpt><trkpt lat="45.2520328" lon="7.7191382"><ele>238.0</ele><time>2026-04-25T09:46:53.256Z</time></trkpt><trkpt lat="45.2521233" lon="7.7192424"><ele>238.0</ele><time>2026-04-25T09:46:54.256Z</time></trkpt><trkpt lat="45.2521984" lon="7.7193573"><ele>238.0</ele><time>2026-04-25T09:46:55.254Z</time></trkpt><trkpt lat="45.252265" lon="7.7194909"><ele>238.0</ele><time>2026-04-25T09:46:56.257Z</time></trkpt><trkpt lat="45.2523238" lon="7.7196319"><ele>237.0</ele><time>2026-04-25T09:46:57.255Z</time></trkpt><trkpt lat="45.2523728" lon="7.7197744"><ele>236.0</ele><time>2026-04-25T09:46:58.261Z</time></trkpt><trkpt lat="45.2524226" lon="7.7199318"><ele>235.0</ele><time>2026-04-25T09:46:59.256Z</time></trkpt><trkpt lat="45.252471" lon="7.7200714"><ele>234.0</ele><time>2026-04-25T09:47:00.252Z</time></trkpt><trkpt lat="45.25251" lon="7.7201993"><ele>233.0</ele><time>2026-04-25T09:47:01.257Z</time></trkpt><trkpt lat="45.2525425" lon="7.7203058"><ele>233.0</ele><time>2026-04-25T09:47:02.257Z</time></trkpt><trkpt lat="45.2525774" lon="7.7203912"><ele>233.0</ele><time>2026-04-25T09:47:03.255Z</time></trkpt><trkpt lat="45.2526674" lon="7.7205088"><ele>233.0</ele><time>2026-04-25T09:47:05.244Z</time></trkpt><trkpt lat="45.2527947" lon="7.7204805"><ele>233.0</ele><time>2026-04-25T09:47:07.245Z</time></trkpt><trkpt lat="45.2528855" lon="7.7204107"><ele>233.0</ele><time>2026-04-25T09:47:08.245Z</time></trkpt><trkpt lat="45.2529866" lon="7.7203157"><ele>232.66666666666669</ele><time>2026-04-25T09:47:09.257Z</time></trkpt><trkpt lat="45.2531127" lon="7.7202022"><ele>232.33333333333331</ele><time>2026-04-25T09:47:10.247Z</time></trkpt><trkpt lat="45.2532681" lon="7.720054"><ele>232.0</ele><time>2026-04-25T09:47:11.25Z</time></trkpt><trkpt lat="45.2534519" lon="7.7198621"><ele>232.5</ele><time>2026-04-25T09:47:12.25Z</time></trkpt><trkpt lat="45.2535896" lon="7.7197205"><ele>233.0</ele><time>2026-04-25T09:47:13.248Z</time></trkpt><trkpt lat="45.2537203" lon="7.7196431"><ele>233.5</ele><time>2026-04-25T09:47:14.25Z</time></trkpt><trkpt lat="45.2538282" lon="7.7195648"><ele>234.0</ele><time>2026-04-25T09:47:15.251Z</time></trkpt><trkpt lat="45.2539423" lon="7.7195317"><ele>234.33333333333331</ele><time>2026-04-25T09:47:16.246Z</time></trkpt><trkpt lat="45.2540852" lon="7.7195152"><ele>234.66666666666666</ele><time>2026-04-25T09:47:17.245Z</time></trkpt><trkpt lat="45.2542366" lon="7.7195678"><ele>235.0</ele><time>2026-04-25T09:47:18.249Z</time></trkpt><trkpt lat="45.2544108" lon="7.7196318"><ele>235.0</ele><time>2026-04-25T09:47:19.25Z</time></trkpt><trkpt lat="45.2546069" lon="7.7196768"><ele>235.0</ele><time>2026-04-25T09:47:20.249Z</time></trkpt><trkpt lat="45.2547773" lon="7.7197384"><ele>235.0</ele><time>2026-04-25T09:47:21.257Z</time></trkpt><trkpt lat="45.2549425" lon="7.7198134"><ele>235.0</ele><time>2026-04-25T09:47:22.249Z</time></trkpt><trkpt lat="45.2551089" lon="7.7198662"><ele>235.0</ele><time>2026-04-25T09:47:23.248Z</time></trkpt><trkpt lat="45.2552749" lon="7.7199038"><ele>235.0</ele><time>2026-04-25T09:47:24.254Z</time></trkpt><trkpt lat="45.255424" lon="7.7199363"><ele>235.0</ele><time>2026-04-25T09:47:25.256Z</time></trkpt><trkpt lat="45.2555773" lon="7.7200029"><ele>235.0</ele><time>2026-04-25T09:47:26.257Z</time></trkpt><trkpt lat="45.2557092" lon="7.7200526"><ele>235.0</ele><time>2026-04-25T09:47:27.249Z</time></trkpt><trkpt lat="45.2558282" lon="7.7201502"><ele>235.0</ele><time>2026-04-25T09:47:28.25Z</time></trkpt><trkpt lat="45.2559443" lon="7.7202745"><ele>235.25</ele><time>2026-04-25T09:47:29.243Z</time></trkpt><trkpt lat="45.2560437" lon="7.7204508"><ele>235.5</ele><time>2026-04-25T09:47:30.25Z</time></trkpt><trkpt lat="45.2561475" lon="7.7205747"><ele>235.75</ele><time>2026-04-25T09:47:31.248Z</time></trkpt><trkpt lat="45.2562262" lon="7.7207002"><ele>236.0</ele><time>2026-04-25T09:47:32.246Z</time></trkpt><trkpt lat="45.2562872" lon="7.7207655"><ele>236.0</ele><time>2026-04-25T09:47:33.247Z</time></trkpt><trkpt lat="45.2563562" lon="7.7208169"><ele>236.00000000000003</ele><time>2026-04-25T09:47:34.247Z</time></trkpt><trkpt lat="45.2563929" lon="7.7209259"><ele>236.00000000000003</ele><time>2026-04-25T09:47:37.244Z</time></trkpt><trkpt lat="45.2563546" lon="7.7210155"><ele>236.0</ele><time>2026-04-25T09:47:38.252Z</time></trkpt><trkpt lat="45.2562954" lon="7.721144"><ele>236.0</ele><time>2026-04-25T09:47:39.242Z</time></trkpt><trkpt lat="45.256229" lon="7.7213177"><ele>236.0</ele><time>2026-04-25T09:47:40.239Z</time></trkpt><trkpt lat="45.2561509" lon="7.7215244"><ele>236.0</ele><time>2026-04-25T09:47:41.253Z</time></trkpt><trkpt lat="45.2560376" lon="7.7217927"><ele>236.0</ele><time>2026-04-25T09:47:42.248Z</time></trkpt><trkpt lat="45.2558498" lon="7.7221594"><ele>236.0</ele><time>2026-04-25T09:47:43.243Z</time></trkpt><trkpt lat="45.2557154" lon="7.7223808"><ele>236.0</ele><time>2026-04-25T09:47:44.245Z</time></trkpt><trkpt lat="45.255622" lon="7.7225357"><ele>236.0</ele><time>2026-04-25T09:47:45.245Z</time></trkpt><trkpt lat="45.2555366" lon="7.7226623"><ele>236.00000000000003</ele><time>2026-04-25T09:47:46.24Z</time></trkpt><trkpt lat="45.2554749" lon="7.722763"><ele>236.0</ele><time>2026-04-25T09:47:47.25Z</time></trkpt><trkpt lat="45.2554303" lon="7.7228799"><ele>236.0</ele><time>2026-04-25T09:47:49.244Z</time></trkpt><trkpt lat="45.2554628" lon="7.7229585"><ele>236.0</ele><time>2026-04-25T09:47:52.267Z</time></trkpt><trkpt lat="45.255516" lon="7.7230254"><ele>236.00000000000003</ele><time>2026-04-25T09:47:54.254Z</time></trkpt><trkpt lat="45.255582" lon="7.7230862"><ele>236.0</ele><time>2026-04-25T09:55:49.273Z</time></trkpt><trkpt lat="45.2556973" lon="7.723203"><ele>236.4</ele><time>2026-04-25T09:55:51.28Z</time></trkpt><trkpt lat="45.2557791" lon="7.7232945"><ele>236.8</ele><time>2026-04-25T09:55:52.28Z</time></trkpt><trkpt lat="45.2558779" lon="7.7233968"><ele>237.20000000000002</ele><time>2026-04-25T09:55:53.286Z</time></trkpt><trkpt lat="45.255953" lon="7.7234808"><ele>237.60000000000002</ele><time>2026-04-25T09:55:54.28Z</time></trkpt><trkpt lat="45.2560294" lon="7.7235724"><ele>238.0</ele><time>2026-04-25T09:55:55.282Z</time></trkpt><trkpt lat="45.2561168" lon="7.7236593"><ele>238.0</ele><time>2026-04-25T09:55:56.284Z</time></trkpt><trkpt lat="45.2562006" lon="7.7237475"><ele>238.0</ele><time>2026-04-25T09:55:57.28Z</time></trkpt><trkpt lat="45.2562843" lon="7.7238313"><ele>238.0</ele><time>2026-04-25T09:55:58.282Z</time></trkpt><trkpt lat="45.2563765" lon="7.7239186"><ele>238.0</ele><time>2026-04-25T09:55:59.285Z</time></trkpt><trkpt lat="45.2564648" lon="7.7240044"><ele>238.0</ele><time>2026-04-25T09:56:00.274Z</time></trkpt><trkpt lat="45.2565614" lon="7.7240877"><ele>237.5</ele><time>2026-04-25T09:56:01.282Z</time></trkpt><trkpt lat="45.256655" lon="7.7241803"><ele>237.0</ele><time>2026-04-25T09:56:02.286Z</time></trkpt><trkpt lat="45.2567535" lon="7.7242737"><ele>236.5</ele><time>2026-04-25T09:56:03.281Z</time></trkpt><trkpt lat="45.2568462" lon="7.7243747"><ele>236.0</ele><time>2026-04-25T09:56:04.285Z</time></trkpt><trkpt lat="45.2569367" lon="7.7244757"><ele>236.0</ele><time>2026-04-25T09:56:05.284Z</time></trkpt><trkpt lat="45.2570247" lon="7.7245767"><ele>236.00000000000003</ele><time>2026-04-25T09:56:06.296Z</time></trkpt><trkpt lat="45.257102" lon="7.7246739"><ele>236.00000000000003</ele><time>2026-04-25T09:56:07.283Z</time></trkpt><trkpt lat="45.2571723" lon="7.7247622"><ele>236.0</ele><time>2026-04-25T09:56:08.285Z</time></trkpt><trkpt lat="45.2572512" lon="7.7248431"><ele>236.0</ele><time>2026-04-25T09:56:09.283Z</time></trkpt><trkpt lat="45.2573348" lon="7.7249203"><ele>236.20000000000002</ele><time>2026-04-25T09:56:10.282Z</time></trkpt><trkpt lat="45.2574231" lon="7.725012"><ele>236.40000000000003</ele><time>2026-04-25T09:56:11.283Z</time></trkpt><trkpt lat="45.2575031" lon="7.7250982"><ele>236.6</ele><time>2026-04-25T09:56:12.275Z</time></trkpt><trkpt lat="45.2575804" lon="7.7251873"><ele>236.8</ele><time>2026-04-25T09:56:13.283Z</time></trkpt><trkpt lat="45.2576683" lon="7.7252873"><ele>237.0</ele><time>2026-04-25T09:56:14.275Z</time></trkpt><trkpt lat="45.2577626" lon="7.7253909"><ele>237.0</ele><time>2026-04-25T09:56:15.279Z</time></trkpt><trkpt lat="45.2578621" lon="7.7254999"><ele>237.0</ele><time>2026-04-25T09:56:16.274Z</time></trkpt><trkpt lat="45.2579615" lon="7.7256107"><ele>237.0</ele><time>2026-04-25T09:56:17.28Z</time></trkpt><trkpt lat="45.258053" lon="7.7257263"><ele>237.0</ele><time>2026-04-25T09:56:18.282Z</time></trkpt><trkpt lat="45.2581424" lon="7.7258204"><ele>237.39999999999998</ele><time>2026-04-25T09:56:19.286Z</time></trkpt><trkpt lat="45.2582314" lon="7.725909"><ele>237.79999999999998</ele><time>2026-04-25T09:56:20.275Z</time></trkpt><trkpt lat="45.2583186" lon="7.7260053"><ele>238.2</ele><time>2026-04-25T09:56:21.284Z</time></trkpt><trkpt lat="45.2584098" lon="7.7261064"><ele>238.6</ele><time>2026-04-25T09:56:22.275Z</time></trkpt><trkpt lat="45.2584978" lon="7.7262033"><ele>239.0</ele><time>2026-04-25T09:56:23.282Z</time></trkpt><trkpt lat="45.2585835" lon="7.7262982"><ele>239.33333333333334</ele><time>2026-04-25T09:56:24.273Z</time></trkpt><trkpt lat="45.2586527" lon="7.7263879"><ele>239.66666666666669</ele><time>2026-04-25T09:56:25.273Z</time></trkpt><trkpt lat="45.2587028" lon="7.7264774"><ele>240.0</ele><time>2026-04-25T09:56:26.269Z</time></trkpt><trkpt lat="45.2587407" lon="7.7265685"><ele>240.33333333333331</ele><time>2026-04-25T09:56:27.269Z</time></trkpt><trkpt lat="45.2587616" lon="7.7266548"><ele>240.66666666666666</ele><time>2026-04-25T09:56:28.261Z</time></trkpt><trkpt lat="45.2587622" lon="7.7267544"><ele>241.0</ele><time>2026-04-25T09:56:29.269Z</time></trkpt><trkpt lat="45.2587399" lon="7.7268539"><ele>241.16666666666666</ele><time>2026-04-25T09:56:30.257Z</time></trkpt><trkpt lat="45.2587072" lon="7.7269691"><ele>241.33333333333331</ele><time>2026-04-25T09:56:31.261Z</time></trkpt><trkpt lat="45.2586485" lon="7.7270624"><ele>241.5</ele><time>2026-04-25T09:56:32.264Z</time></trkpt><trkpt lat="45.2585885" lon="7.7271462"><ele>241.66666666666669</ele><time>2026-04-25T09:56:33.264Z</time></trkpt><trkpt lat="45.2585472" lon="7.7272299"><ele>241.83333333333334</ele><time>2026-04-25T09:56:34.26Z</time></trkpt><trkpt lat="45.2585441" lon="7.7273303"><ele>242.0</ele><time>2026-04-25T09:56:35.262Z</time></trkpt><trkpt lat="45.2585655" lon="7.7274348"><ele>242.0</ele><time>2026-04-25T09:56:36.275Z</time></trkpt><trkpt lat="45.2586119" lon="7.7275746"><ele>242.0</ele><time>2026-04-25T09:56:37.285Z</time></trkpt><trkpt lat="45.2586495" lon="7.7277278"><ele>242.0</ele><time>2026-04-25T09:56:38.27Z</time></trkpt><trkpt lat="45.2586992" lon="7.7278918"><ele>242.0</ele><time>2026-04-25T09:56:39.278Z</time></trkpt><trkpt lat="45.2587451" lon="7.728053"><ele>242.0</ele><time>2026-04-25T09:56:40.28Z</time></trkpt><trkpt lat="45.2587864" lon="7.7282214"><ele>242.0</ele><time>2026-04-25T09:56:41.272Z</time></trkpt><trkpt lat="45.2588288" lon="7.7283758"><ele>242.0</ele><time>2026-04-25T09:56:42.268Z</time></trkpt><trkpt lat="45.2588702" lon="7.7285313"><ele>242.0</ele><time>2026-04-25T09:56:43.275Z</time></trkpt><trkpt lat="45.2589058" lon="7.7286944"><ele>242.0</ele><time>2026-04-25T09:56:44.275Z</time></trkpt><trkpt lat="45.2589434" lon="7.7288491"><ele>242.0</ele><time>2026-04-25T09:56:45.279Z</time></trkpt><trkpt lat="45.25898" lon="7.7289947"><ele>242.0</ele><time>2026-04-25T09:56:46.274Z</time></trkpt><trkpt lat="45.2590014" lon="7.7291214"><ele>242.0</ele><time>2026-04-25T09:56:47.281Z</time></trkpt><trkpt lat="45.2590256" lon="7.7292507"><ele>242.0</ele><time>2026-04-25T09:56:48.272Z</time></trkpt><trkpt lat="45.2590505" lon="7.7294114"><ele>242.25</ele><time>2026-04-25T09:56:49.281Z</time></trkpt><trkpt lat="45.2590907" lon="7.7295782"><ele>242.5</ele><time>2026-04-25T09:56:50.275Z</time></trkpt><trkpt lat="45.259135" lon="7.7297531"><ele>242.75</ele><time>2026-04-25T09:56:51.282Z</time></trkpt><trkpt lat="45.2591738" lon="7.729932"><ele>243.0</ele><time>2026-04-25T09:56:52.279Z</time></trkpt><trkpt lat="45.2592131" lon="7.7300961"><ele>242.0</ele><time>2026-04-25T09:56:53.275Z</time></trkpt><trkpt lat="45.2592466" lon="7.7302488"><ele>241.0</ele><time>2026-04-25T09:56:54.291Z</time></trkpt><trkpt lat="45.2592855" lon="7.7304041"><ele>240.0</ele><time>2026-04-25T09:56:55.291Z</time></trkpt><trkpt lat="45.2593171" lon="7.7305606"><ele>239.0</ele><time>2026-04-25T09:56:56.288Z</time></trkpt><trkpt lat="45.2593521" lon="7.7307165"><ele>239.0</ele><time>2026-04-25T09:56:57.29Z</time></trkpt><trkpt lat="45.2593802" lon="7.7308684"><ele>239.0</ele><time>2026-04-25T09:56:58.293Z</time></trkpt><trkpt lat="45.2594171" lon="7.7310294"><ele>239.0</ele><time>2026-04-25T09:56:59.29Z</time></trkpt><trkpt lat="45.2594544" lon="7.7311869"><ele>239.0</ele><time>2026-04-25T09:57:00.288Z</time></trkpt><trkpt lat="45.2594903" lon="7.7313386"><ele>238.79999999999998</ele><time>2026-04-25T09:57:01.287Z</time></trkpt><trkpt lat="45.2595249" lon="7.7314771"><ele>238.59999999999997</ele><time>2026-04-25T09:57:02.282Z</time></trkpt><trkpt lat="45.2595624" lon="7.7316192"><ele>238.4</ele><time>2026-04-25T09:57:03.281Z</time></trkpt><trkpt lat="45.2595932" lon="7.7317564"><ele>238.2</ele><time>2026-04-25T09:57:04.285Z</time></trkpt><trkpt lat="45.2596224" lon="7.7318949"><ele>238.0</ele><time>2026-04-25T09:57:05.282Z</time></trkpt><trkpt lat="45.2596457" lon="7.7320125"><ele>238.33333333333331</ele><time>2026-04-25T09:57:06.283Z</time></trkpt><trkpt lat="45.2596654" lon="7.7321041"><ele>238.66666666666666</ele><time>2026-04-25T09:57:07.276Z</time></trkpt><trkpt lat="45.2597115" lon="7.7322219"><ele>239.0</ele><time>2026-04-25T09:57:09.285Z</time></trkpt><trkpt lat="45.2598219" lon="7.7322309"><ele>239.33333333333331</ele><time>2026-04-25T09:57:11.274Z</time></trkpt><trkpt lat="45.2598984" lon="7.7322209"><ele>239.66666666666666</ele><time>2026-04-25T09:57:12.274Z</time></trkpt><trkpt lat="45.2599914" lon="7.7321858"><ele>240.0</ele><time>2026-04-25T09:57:13.28Z</time></trkpt><trkpt lat="45.2601003" lon="7.7321178"><ele>240.25</ele><time>2026-04-25T09:57:14.281Z</time></trkpt><trkpt lat="45.2602258" lon="7.7320469"><ele>240.5</ele><time>2026-04-25T09:57:15.282Z</time></trkpt><trkpt lat="45.2603515" lon="7.7319815"><ele>240.75</ele><time>2026-04-25T09:57:16.294Z</time></trkpt><trkpt lat="45.2604577" lon="7.7319223"><ele>241.0</ele><time>2026-04-25T09:57:17.282Z</time></trkpt><trkpt lat="45.2605584" lon="7.7318676"><ele>241.0</ele><time>2026-04-25T09:57:18.287Z</time></trkpt><trkpt lat="45.2606594" lon="7.731813"><ele>241.00000000000003</ele><time>2026-04-25T09:57:19.288Z</time></trkpt><trkpt lat="45.2607639" lon="7.7317664"><ele>241.00000000000003</ele><time>2026-04-25T09:57:20.294Z</time></trkpt><trkpt lat="45.2608653" lon="7.7317148"><ele>241.0</ele><time>2026-04-25T09:57:21.285Z</time></trkpt><trkpt lat="45.2609742" lon="7.7316655"><ele>241.0</ele><time>2026-04-25T09:57:22.276Z</time></trkpt><trkpt lat="45.2610894" lon="7.7316095"><ele>241.0</ele><time>2026-04-25T09:57:23.283Z</time></trkpt><trkpt lat="45.261199" lon="7.7315574"><ele>241.0</ele><time>2026-04-25T09:57:24.282Z</time></trkpt><trkpt lat="45.2613029" lon="7.7314979"><ele>241.0</ele><time>2026-04-25T09:57:25.282Z</time></trkpt><trkpt lat="45.261416" lon="7.7314365"><ele>241.0</ele><time>2026-04-25T09:57:26.279Z</time></trkpt><trkpt lat="45.261528" lon="7.7313705"><ele>241.20000000000002</ele><time>2026-04-25T09:57:27.282Z</time></trkpt><trkpt lat="45.2616427" lon="7.7313188"><ele>241.40000000000003</ele><time>2026-04-25T09:57:28.286Z</time></trkpt><trkpt lat="45.2617474" lon="7.731262"><ele>241.6</ele><time>2026-04-25T09:57:29.28Z</time></trkpt><trkpt lat="45.2618498" lon="7.7312269"><ele>241.8</ele><time>2026-04-25T09:57:30.279Z</time></trkpt><trkpt lat="45.2619536" lon="7.7311845"><ele>242.0</ele><time>2026-04-25T09:57:31.275Z</time></trkpt><trkpt lat="45.2620612" lon="7.7311384"><ele>242.0</ele><time>2026-04-25T09:57:32.275Z</time></trkpt><trkpt lat="45.2621641" lon="7.7310845"><ele>242.0</ele><time>2026-04-25T09:57:33.282Z</time></trkpt><trkpt lat="45.2622686" lon="7.7310301"><ele>242.0</ele><time>2026-04-25T09:57:34.291Z</time></trkpt><trkpt lat="45.262374" lon="7.7309769"><ele>242.0</ele><time>2026-04-25T09:57:35.282Z</time></trkpt><trkpt lat="45.2624764" lon="7.7309326"><ele>242.0</ele><time>2026-04-25T09:57:36.277Z</time></trkpt><trkpt lat="45.2625588" lon="7.7308855"><ele>242.50000000000003</ele><time>2026-04-25T09:57:37.27Z</time></trkpt><trkpt lat="45.2626318" lon="7.7308458"><ele>243.0</ele><time>2026-04-25T09:57:38.275Z</time></trkpt><trkpt lat="45.2626983" lon="7.7307848"><ele>243.5</ele><time>2026-04-25T09:57:39.273Z</time></trkpt><trkpt lat="45.2627482" lon="7.7306805"><ele>244.0</ele><time>2026-04-25T09:57:40.264Z</time></trkpt><trkpt lat="45.2627936" lon="7.7305703"><ele>244.50000000000003</ele><time>2026-04-25T09:57:41.272Z</time></trkpt><trkpt lat="45.2628428" lon="7.7304745"><ele>245.0</ele><time>2026-04-25T09:57:42.26Z</time></trkpt><trkpt lat="45.2629009" lon="7.730401"><ele>245.0</ele><time>2026-04-25T09:57:43.279Z</time></trkpt><trkpt lat="45.2629844" lon="7.7303478"><ele>245.0</ele><time>2026-04-25T09:57:44.273Z</time></trkpt><trkpt lat="45.2630762" lon="7.7302864"><ele>245.0</ele><time>2026-04-25T09:57:45.271Z</time></trkpt><trkpt lat="45.2631652" lon="7.7302477"><ele>245.0</ele><time>2026-04-25T09:57:46.269Z</time></trkpt><trkpt lat="45.2632595" lon="7.7302504"><ele>245.0</ele><time>2026-04-25T09:57:47.267Z</time></trkpt><trkpt lat="45.2633679" lon="7.7302667"><ele>244.75</ele><time>2026-04-25T09:57:48.274Z</time></trkpt><trkpt lat="45.2634755" lon="7.730259"><ele>244.5</ele><time>2026-04-25T09:57:49.266Z</time></trkpt><trkpt lat="45.2635863" lon="7.7302292"><ele>244.25</ele><time>2026-04-25T09:57:50.269Z</time></trkpt><trkpt lat="45.2637305" lon="7.7301775"><ele>244.0</ele><time>2026-04-25T09:57:51.28Z</time></trkpt><trkpt lat="45.2638679" lon="7.7301221"><ele>244.0</ele><time>2026-04-25T09:57:52.279Z</time></trkpt><trkpt lat="45.2639929" lon="7.7300766"><ele>243.99999999999997</ele><time>2026-04-25T09:57:53.279Z</time></trkpt><trkpt lat="45.2641058" lon="7.7300247"><ele>243.99999999999997</ele><time>2026-04-25T09:57:54.281Z</time></trkpt><trkpt lat="45.26421" lon="7.7299748"><ele>244.0</ele><time>2026-04-25T09:57:55.283Z</time></trkpt><trkpt lat="45.2642977" lon="7.7299415"><ele>244.0</ele><time>2026-04-25T09:57:56.287Z</time></trkpt><trkpt lat="45.2643908" lon="7.7299062"><ele>244.0</ele><time>2026-04-25T09:57:57.283Z</time></trkpt><trkpt lat="45.2644908" lon="7.7298541"><ele>244.0</ele><time>2026-04-25T09:57:58.272Z</time></trkpt><trkpt lat="45.2645934" lon="7.7297804"><ele>244.0</ele><time>2026-04-25T09:57:59.28Z</time></trkpt><trkpt lat="45.2646976" lon="7.729681"><ele>244.0</ele><time>2026-04-25T09:58:00.287Z</time></trkpt><trkpt lat="45.2648039" lon="7.729576"><ele>244.25</ele><time>2026-04-25T09:58:01.277Z</time></trkpt><trkpt lat="45.2649137" lon="7.7294723"><ele>244.5</ele><time>2026-04-25T09:58:02.276Z</time></trkpt><trkpt lat="45.2650146" lon="7.7293775"><ele>244.75</ele><time>2026-04-25T09:58:03.273Z</time></trkpt><trkpt lat="45.2651102" lon="7.7292834"><ele>245.0</ele><time>2026-04-25T09:58:04.284Z</time></trkpt><trkpt lat="45.2652064" lon="7.7291957"><ele>244.5</ele><time>2026-04-25T09:58:05.277Z</time></trkpt><trkpt lat="45.2652979" lon="7.7290994"><ele>244.0</ele><time>2026-04-25T09:58:06.274Z</time></trkpt><trkpt lat="45.2653868" lon="7.7290047"><ele>243.5</ele><time>2026-04-25T09:58:07.273Z</time></trkpt><trkpt lat="45.2654829" lon="7.7289108"><ele>243.0</ele><time>2026-04-25T09:58:08.276Z</time></trkpt><trkpt lat="45.2655783" lon="7.7288246"><ele>243.60000000000002</ele><time>2026-04-25T09:58:09.276Z</time></trkpt><trkpt lat="45.2656724" lon="7.7287277"><ele>244.20000000000002</ele><time>2026-04-25T09:58:10.299Z</time></trkpt><trkpt lat="45.2657603" lon="7.7286369"><ele>244.8</ele><time>2026-04-25T09:58:11.277Z</time></trkpt><trkpt lat="45.2658472" lon="7.7285487"><ele>245.4</ele><time>2026-04-25T09:58:12.276Z</time></trkpt><trkpt lat="45.2659308" lon="7.7284713"><ele>246.0</ele><time>2026-04-25T09:58:13.28Z</time></trkpt><trkpt lat="45.2660136" lon="7.7283867"><ele>246.20000000000002</ele><time>2026-04-25T09:58:14.285Z</time></trkpt><trkpt lat="45.2661032" lon="7.7283025"><ele>246.40000000000003</ele><time>2026-04-25T09:58:15.278Z</time></trkpt><trkpt lat="45.2661959" lon="7.7282144"><ele>246.6</ele><time>2026-04-25T09:58:16.288Z</time></trkpt><trkpt lat="45.2662856" lon="7.7281248"><ele>246.8</ele><time>2026-04-25T09:58:17.279Z</time></trkpt><trkpt lat="45.2663783" lon="7.7280385"><ele>247.0</ele><time>2026-04-25T09:58:18.283Z</time></trkpt><trkpt lat="45.2664712" lon="7.7279508"><ele>247.2</ele><time>2026-04-25T09:58:19.288Z</time></trkpt><trkpt lat="45.2665547" lon="7.7278663"><ele>247.39999999999998</ele><time>2026-04-25T09:58:20.283Z</time></trkpt><trkpt lat="45.2666345" lon="7.7277729"><ele>247.60000000000002</ele><time>2026-04-25T09:58:21.28Z</time></trkpt><trkpt lat="45.2667232" lon="7.7276892"><ele>247.8</ele><time>2026-04-25T09:58:22.281Z</time></trkpt><trkpt lat="45.2668119" lon="7.7276009"><ele>248.0</ele><time>2026-04-25T09:58:23.277Z</time></trkpt><trkpt lat="45.2668996" lon="7.7275195"><ele>248.00000000000003</ele><time>2026-04-25T09:58:24.268Z</time></trkpt><trkpt lat="45.2669754" lon="7.7274472"><ele>248.0</ele><time>2026-04-25T09:58:25.273Z</time></trkpt><trkpt lat="45.2670476" lon="7.7273883"><ele>248.0</ele><time>2026-04-25T09:58:26.275Z</time></trkpt><trkpt lat="45.2671109" lon="7.7273176"><ele>248.0</ele><time>2026-04-25T09:58:27.274Z</time></trkpt><trkpt lat="45.2671698" lon="7.7272546"><ele>248.00000000000003</ele><time>2026-04-25T09:58:28.284Z</time></trkpt><trkpt lat="45.2672217" lon="7.7271926"><ele>248.0</ele><time>2026-04-25T09:58:29.275Z</time></trkpt><trkpt lat="45.2672944" lon="7.7270922"><ele>248.0</ele><time>2026-04-25T09:58:31.277Z</time></trkpt><trkpt lat="45.2673751" lon="7.7271602"><ele>248.0</ele><time>2026-04-25T09:58:34.274Z</time></trkpt><trkpt lat="45.2674133" lon="7.7272665"><ele>248.0</ele><time>2026-04-25T09:58:35.273Z</time></trkpt><trkpt lat="45.2674583" lon="7.7274063"><ele>248.0</ele><time>2026-04-25T09:58:36.278Z</time></trkpt><trkpt lat="45.2675276" lon="7.727574"><ele>248.0</ele><time>2026-04-25T09:58:37.279Z</time></trkpt><trkpt lat="45.2676196" lon="7.7277819"><ele>248.0</ele><time>2026-04-25T09:58:38.282Z</time></trkpt><trkpt lat="45.2677447" lon="7.7280588"><ele>248.0</ele><time>2026-04-25T09:58:39.264Z</time></trkpt><trkpt lat="45.2679041" lon="7.7283494"><ele>247.5</ele><time>2026-04-25T09:58:40.266Z</time></trkpt><trkpt lat="45.2680808" lon="7.7286528"><ele>247.0</ele><time>2026-04-25T09:58:41.281Z</time></trkpt><trkpt lat="45.2682238" lon="7.728916"><ele>247.66666666666666</ele><time>2026-04-25T09:58:42.272Z</time></trkpt><trkpt lat="45.268339" lon="7.7291487"><ele>248.33333333333331</ele><time>2026-04-25T09:58:43.28Z</time></trkpt><trkpt lat="45.2684478" lon="7.7293509"><ele>249.0</ele><time>2026-04-25T09:58:44.283Z</time></trkpt><trkpt lat="45.2685489" lon="7.7295915"><ele>249.0</ele><time>2026-04-25T09:58:45.279Z</time></trkpt><trkpt lat="45.2686483" lon="7.7298059"><ele>249.0</ele><time>2026-04-25T09:58:46.281Z</time></trkpt><trkpt lat="45.2687446" lon="7.7300059"><ele>249.0</ele><time>2026-04-25T09:58:47.279Z</time></trkpt><trkpt lat="45.2688347" lon="7.7301886"><ele>249.2</ele><time>2026-04-25T09:58:48.275Z</time></trkpt><trkpt lat="45.2689123" lon="7.7303042"><ele>249.39999999999998</ele><time>2026-04-25T09:58:49.282Z</time></trkpt><trkpt lat="45.2689842" lon="7.7304271"><ele>249.6</ele><time>2026-04-25T09:58:50.271Z</time></trkpt><trkpt lat="45.2690113" lon="7.7305605"><ele>249.8</ele><time>2026-04-25T09:58:51.276Z</time></trkpt><trkpt lat="45.269078" lon="7.7306603"><ele>250.0</ele><time>2026-04-25T09:58:53.281Z</time></trkpt><trkpt lat="45.2691439" lon="7.7306811"><ele>249.5</ele><time>2026-04-25T09:58:54.262Z</time></trkpt><trkpt lat="45.2692192" lon="7.7306742"><ele>249.0</ele><time>2026-04-25T09:58:55.262Z</time></trkpt><trkpt lat="45.2693237" lon="7.7306109"><ele>248.5</ele><time>2026-04-25T09:58:56.259Z</time></trkpt><trkpt lat="45.269454" lon="7.7305181"><ele>248.0</ele><time>2026-04-25T09:58:57.275Z</time></trkpt><trkpt lat="45.2696046" lon="7.7304065"><ele>248.0</ele><time>2026-04-25T09:58:58.262Z</time></trkpt><trkpt lat="45.269789" lon="7.7302599"><ele>248.0</ele><time>2026-04-25T09:58:59.275Z</time></trkpt><trkpt lat="45.2699841" lon="7.7301168"><ele>248.0</ele><time>2026-04-25T09:59:00.271Z</time></trkpt><trkpt lat="45.2701554" lon="7.729974"><ele>248.0</ele><time>2026-04-25T09:59:01.27Z</time></trkpt><trkpt lat="45.2703085" lon="7.7298863"><ele>248.0</ele><time>2026-04-25T09:59:02.275Z</time></trkpt><trkpt lat="45.2704399" lon="7.729788"><ele>248.0</ele><time>2026-04-25T09:59:03.269Z</time></trkpt><trkpt lat="45.2705567" lon="7.7297163"><ele>248.0</ele><time>2026-04-25T09:59:04.277Z</time></trkpt><trkpt lat="45.2707075" lon="7.7296868"><ele>248.33333333333334</ele><time>2026-04-25T09:59:05.265Z</time></trkpt><trkpt lat="45.2708595" lon="7.7297096"><ele>248.66666666666669</ele><time>2026-04-25T09:59:06.275Z</time></trkpt><trkpt lat="45.2710131" lon="7.7297987"><ele>249.0</ele><time>2026-04-25T09:59:07.255Z</time></trkpt><trkpt lat="45.2711688" lon="7.7299171"><ele>249.0</ele><time>2026-04-25T09:59:08.267Z</time></trkpt><trkpt lat="45.2713074" lon="7.7300536"><ele>249.0</ele><time>2026-04-25T09:59:09.272Z</time></trkpt><trkpt lat="45.2714453" lon="7.7301674"><ele>249.0</ele><time>2026-04-25T09:59:10.276Z</time></trkpt><trkpt lat="45.2715845" lon="7.7302655"><ele>248.75</ele><time>2026-04-25T09:59:11.277Z</time></trkpt><trkpt lat="45.2717067" lon="7.7303481"><ele>248.5</ele><time>2026-04-25T09:59:12.294Z</time></trkpt><trkpt lat="45.2718379" lon="7.7304609"><ele>248.25</ele><time>2026-04-25T09:59:13.274Z</time></trkpt><trkpt lat="45.2719412" lon="7.7305649"><ele>248.0</ele><time>2026-04-25T09:59:14.277Z</time></trkpt><trkpt lat="45.2720324" lon="7.7306349"><ele>248.0</ele><time>2026-04-25T09:59:15.273Z</time></trkpt><trkpt lat="45.2721064" lon="7.730712"><ele>248.0</ele><time>2026-04-25T09:59:16.277Z</time></trkpt><trkpt lat="45.2721843" lon="7.7307734"><ele>248.0</ele><time>2026-04-25T09:59:17.283Z</time></trkpt><trkpt lat="45.272258" lon="7.730839"><ele>248.0</ele><time>2026-04-25T09:59:18.276Z</time></trkpt><trkpt lat="45.2723407" lon="7.7308909"><ele>248.0</ele><time>2026-04-25T09:59:19.28Z</time></trkpt><trkpt lat="45.2724323" lon="7.7309339"><ele>248.4</ele><time>2026-04-25T09:59:20.274Z</time></trkpt><trkpt lat="45.2725303" lon="7.7309492"><ele>248.8</ele><time>2026-04-25T09:59:21.277Z</time></trkpt><trkpt lat="45.272626" lon="7.7309311"><ele>249.2</ele><time>2026-04-25T09:59:22.284Z</time></trkpt><trkpt lat="45.2727322" lon="7.7308772"><ele>249.6</ele><time>2026-04-25T09:59:23.281Z</time></trkpt><trkpt lat="45.2728535" lon="7.7308296"><ele>250.0</ele><time>2026-04-25T09:59:24.281Z</time></trkpt><trkpt lat="45.2729807" lon="7.730784"><ele>250.5</ele><time>2026-04-25T09:59:25.28Z</time></trkpt><trkpt lat="45.2731192" lon="7.7307444"><ele>251.0</ele><time>2026-04-25T09:59:26.278Z</time></trkpt><trkpt lat="45.2732692" lon="7.7307038"><ele>251.5</ele><time>2026-04-25T09:59:27.274Z</time></trkpt><trkpt lat="45.273405" lon="7.7306478"><ele>252.0</ele><time>2026-04-25T09:59:28.272Z</time></trkpt><trkpt lat="45.2735553" lon="7.7305754"><ele>252.0</ele><time>2026-04-25T09:59:29.278Z</time></trkpt><trkpt lat="45.2737175" lon="7.7304966"><ele>252.0</ele><time>2026-04-25T09:59:30.276Z</time></trkpt><trkpt lat="45.2738839" lon="7.7304725"><ele>252.0</ele><time>2026-04-25T09:59:31.269Z</time></trkpt><trkpt lat="45.2740376" lon="7.7304329"><ele>252.0</ele><time>2026-04-25T09:59:32.277Z</time></trkpt><trkpt lat="45.2741973" lon="7.7303868"><ele>252.0</ele><time>2026-04-25T09:59:33.277Z</time></trkpt><trkpt lat="45.2743614" lon="7.7303218"><ele>252.0</ele><time>2026-04-25T09:59:34.275Z</time></trkpt><trkpt lat="45.2745317" lon="7.7302529"><ele>251.66666666666669</ele><time>2026-04-25T09:59:35.28Z</time></trkpt><trkpt lat="45.2747058" lon="7.7301747"><ele>251.33333333333334</ele><time>2026-04-25T09:59:36.28Z</time></trkpt><trkpt lat="45.274887" lon="7.730109"><ele>251.0</ele><time>2026-04-25T09:59:37.28Z</time></trkpt><trkpt lat="45.2750672" lon="7.730041"><ele>251.33333333333334</ele><time>2026-04-25T09:59:38.279Z</time></trkpt><trkpt lat="45.2752411" lon="7.729978"><ele>251.66666666666669</ele><time>2026-04-25T09:59:39.282Z</time></trkpt><trkpt lat="45.2754283" lon="7.7298977"><ele>252.0</ele><time>2026-04-25T09:59:40.289Z</time></trkpt><trkpt lat="45.275612" lon="7.7298211"><ele>252.0</ele><time>2026-04-25T09:59:41.287Z</time></trkpt><trkpt lat="45.2758143" lon="7.7297513"><ele>252.0</ele><time>2026-04-25T09:59:42.276Z</time></trkpt><trkpt lat="45.2760079" lon="7.7296718"><ele>252.0</ele><time>2026-04-25T09:59:43.294Z</time></trkpt><trkpt lat="45.2761832" lon="7.7295867"><ele>252.0</ele><time>2026-04-25T09:59:44.281Z</time></trkpt><trkpt lat="45.2763552" lon="7.7295108"><ele>252.0</ele><time>2026-04-25T09:59:45.281Z</time></trkpt><trkpt lat="45.2765382" lon="7.7294146"><ele>252.0</ele><time>2026-04-25T09:59:46.275Z</time></trkpt><trkpt lat="45.2767218" lon="7.7293153"><ele>252.66666666666669</ele><time>2026-04-25T09:59:47.283Z</time></trkpt><trkpt lat="45.27691" lon="7.7292393"><ele>253.33333333333334</ele><time>2026-04-25T09:59:48.278Z</time></trkpt><trkpt lat="45.277091" lon="7.7291545"><ele>254.0</ele><time>2026-04-25T09:59:49.289Z</time></trkpt><trkpt lat="45.2772713" lon="7.7290637"><ele>254.33333333333334</ele><time>2026-04-25T09:59:50.283Z</time></trkpt><trkpt lat="45.2774417" lon="7.7290071"><ele>254.66666666666669</ele><time>2026-04-25T09:59:51.278Z</time></trkpt><trkpt lat="45.2776093" lon="7.7289317"><ele>255.0</ele><time>2026-04-25T09:59:52.287Z</time></trkpt><trkpt lat="45.2777549" lon="7.7288564"><ele>255.0</ele><time>2026-04-25T09:59:53.285Z</time></trkpt><trkpt lat="45.2778839" lon="7.7288175"><ele>255.0</ele><time>2026-04-25T09:59:54.28Z</time></trkpt><trkpt lat="45.2780121" lon="7.728766"><ele>255.0</ele><time>2026-04-25T09:59:55.28Z</time></trkpt><trkpt lat="45.2781179" lon="7.7287024"><ele>255.0</ele><time>2026-04-25T09:59:56.26Z</time></trkpt><trkpt lat="45.2782455" lon="7.728634"><ele>254.75</ele><time>2026-04-25T09:59:57.26Z</time></trkpt><trkpt lat="45.2783726" lon="7.7285645"><ele>254.5</ele><time>2026-04-25T09:59:58.266Z</time></trkpt><trkpt lat="45.2784983" lon="7.728499"><ele>254.25</ele><time>2026-04-25T09:59:59.26Z</time></trkpt><trkpt lat="45.2786143" lon="7.7284237"><ele>254.0</ele><time>2026-04-25T10:00:00.25Z</time></trkpt><trkpt lat="45.2787295" lon="7.7283605"><ele>254.0</ele><time>2026-04-25T10:00:01.245Z</time></trkpt><trkpt lat="45.2788467" lon="7.7282906"><ele>254.0</ele><time>2026-04-25T10:00:02.247Z</time></trkpt><trkpt lat="45.2789553" lon="7.72822"><ele>254.0</ele><time>2026-04-25T10:00:03.246Z</time></trkpt><trkpt lat="45.2790674" lon="7.7281658"><ele>254.0</ele><time>2026-04-25T10:00:04.252Z</time></trkpt><trkpt lat="45.2791805" lon="7.7281107"><ele>254.0</ele><time>2026-04-25T10:00:05.249Z</time></trkpt><trkpt lat="45.2792846" lon="7.7280605"><ele>253.99999999999997</ele><time>2026-04-25T10:00:06.252Z</time></trkpt><trkpt lat="45.2793788" lon="7.7280129"><ele>253.99999999999997</ele><time>2026-04-25T10:00:07.251Z</time></trkpt><trkpt lat="45.2794654" lon="7.7279711"><ele>254.0</ele><time>2026-04-25T10:00:08.247Z</time></trkpt><trkpt lat="45.2795355" lon="7.7279391"><ele>254.0</ele><time>2026-04-25T10:00:09.246Z</time></trkpt><trkpt lat="45.2795962" lon="7.7278247"><ele>254.00000000000003</ele><time>2026-04-25T10:00:11.249Z</time></trkpt><trkpt lat="45.2795759" lon="7.7277341"><ele>254.0</ele><time>2026-04-25T10:00:12.241Z</time></trkpt><trkpt lat="45.2795246" lon="7.7276579"><ele>254.0</ele><time>2026-04-25T10:00:13.238Z</time></trkpt><trkpt lat="45.2794474" lon="7.727589"><ele>254.0</ele><time>2026-04-25T10:00:14.25Z</time></trkpt><trkpt lat="45.2793724" lon="7.7275383"><ele>254.00000000000003</ele><time>2026-04-25T10:00:15.242Z</time></trkpt><trkpt lat="45.2793087" lon="7.7274852"><ele>254.0</ele><time>2026-04-25T10:00:16.255Z</time></trkpt><trkpt lat="45.2792271" lon="7.7274302"><ele>254.25</ele><time>2026-04-25T10:00:17.248Z</time></trkpt><trkpt lat="45.279138" lon="7.7273543"><ele>254.5</ele><time>2026-04-25T10:00:18.258Z</time></trkpt><trkpt lat="45.2790384" lon="7.727255"><ele>254.75</ele><time>2026-04-25T10:00:19.253Z</time></trkpt><trkpt lat="45.2789423" lon="7.7271549"><ele>255.0</ele><time>2026-04-25T10:00:20.258Z</time></trkpt><trkpt lat="45.2788536" lon="7.7270519"><ele>255.0</ele><time>2026-04-25T10:00:21.254Z</time></trkpt><trkpt lat="45.2787733" lon="7.7269429"><ele>255.0</ele><time>2026-04-25T10:00:22.255Z</time></trkpt><trkpt lat="45.2787006" lon="7.7268196"><ele>255.0</ele><time>2026-04-25T10:00:23.253Z</time></trkpt><trkpt lat="45.2786358" lon="7.7266663"><ele>255.0</ele><time>2026-04-25T10:00:24.244Z</time></trkpt><trkpt lat="45.2785747" lon="7.7264999"><ele>255.66666666666669</ele><time>2026-04-25T10:00:25.257Z</time></trkpt><trkpt lat="45.2785084" lon="7.7263269"><ele>256.33333333333337</ele><time>2026-04-25T10:00:26.252Z</time></trkpt><trkpt lat="45.278439" lon="7.7261263"><ele>257.0</ele><time>2026-04-25T10:00:27.25Z</time></trkpt><trkpt lat="45.2783457" lon="7.7259304"><ele>257.0</ele><time>2026-04-25T10:00:28.256Z</time></trkpt><trkpt lat="45.278269" lon="7.7257707"><ele>257.0</ele><time>2026-04-25T10:00:29.26Z</time></trkpt><trkpt lat="45.2781862" lon="7.7256119"><ele>257.0</ele><time>2026-04-25T10:00:30.253Z</time></trkpt><trkpt lat="45.2781098" lon="7.7254357"><ele>257.0</ele><time>2026-04-25T10:00:31.259Z</time></trkpt><trkpt lat="45.27801" lon="7.7252469"><ele>256.75</ele><time>2026-04-25T10:00:32.258Z</time></trkpt><trkpt lat="45.2779115" lon="7.7250635"><ele>256.5</ele><time>2026-04-25T10:00:33.259Z</time></trkpt><trkpt lat="45.2778224" lon="7.7249004"><ele>256.25</ele><time>2026-04-25T10:00:34.26Z</time></trkpt><trkpt lat="45.2777377" lon="7.724746"><ele>256.0</ele><time>2026-04-25T10:00:35.26Z</time></trkpt><trkpt lat="45.2776692" lon="7.7245815"><ele>256.0</ele><time>2026-04-25T10:00:36.253Z</time></trkpt><trkpt lat="45.2775912" lon="7.724409"><ele>256.0</ele><time>2026-04-25T10:00:37.259Z</time></trkpt><trkpt lat="45.2775192" lon="7.7242187"><ele>256.0</ele><time>2026-04-25T10:00:38.26Z</time></trkpt><trkpt lat="45.2774641" lon="7.7239969"><ele>256.0</ele><time>2026-04-25T10:00:39.256Z</time></trkpt><trkpt lat="45.2773932" lon="7.7237789"><ele>256.0</ele><time>2026-04-25T10:00:40.259Z</time></trkpt><trkpt lat="45.2773474" lon="7.7235628"><ele>256.0</ele><time>2026-04-25T10:00:41.252Z</time></trkpt><trkpt lat="45.2772892" lon="7.7233715"><ele>256.0</ele><time>2026-04-25T10:00:42.25Z</time></trkpt><trkpt lat="45.2772595" lon="7.723242"><ele>256.0</ele><time>2026-04-25T10:00:43.254Z</time></trkpt><trkpt lat="45.2772268" lon="7.7230966"><ele>256.0</ele><time>2026-04-25T10:00:44.251Z</time></trkpt><trkpt lat="45.2771965" lon="7.7229557"><ele>256.0</ele><time>2026-04-25T10:00:45.254Z</time></trkpt><trkpt lat="45.277161" lon="7.7228384"><ele>256.0</ele><time>2026-04-25T10:00:46.253Z</time></trkpt><trkpt lat="45.2771256" lon="7.7227468"><ele>256.0</ele><time>2026-04-25T10:00:47.25Z</time></trkpt><trkpt lat="45.2770664" lon="7.7226642"><ele>256.0</ele><time>2026-04-25T10:00:48.247Z</time></trkpt><trkpt lat="45.2769988" lon="7.7226318"><ele>256.0</ele><time>2026-04-25T10:00:49.256Z</time></trkpt><trkpt lat="45.2769111" lon="7.7226127"><ele>256.0</ele><time>2026-04-25T10:00:50.244Z</time></trkpt><trkpt lat="45.2767962" lon="7.7226365"><ele>256.0</ele><time>2026-04-25T10:00:51.244Z</time></trkpt><trkpt lat="45.2766728" lon="7.7226749"><ele>256.0</ele><time>2026-04-25T10:00:52.246Z</time></trkpt><trkpt lat="45.2765199" lon="7.7227227"><ele>256.0</ele><time>2026-04-25T10:00:53.242Z</time></trkpt><trkpt lat="45.2763407" lon="7.7227585"><ele>256.0</ele><time>2026-04-25T10:00:54.241Z</time></trkpt><trkpt lat="45.2761311" lon="7.7228001"><ele>256.0</ele><time>2026-04-25T10:00:55.246Z</time></trkpt><trkpt lat="45.2759345" lon="7.7228415"><ele>256.0</ele><time>2026-04-25T10:00:56.248Z</time></trkpt><trkpt lat="45.2757928" lon="7.7228658"><ele>256.0</ele><time>2026-04-25T10:00:57.253Z</time></trkpt><trkpt lat="45.2756602" lon="7.7228935"><ele>255.8</ele><time>2026-04-25T10:00:58.257Z</time></trkpt><trkpt lat="45.275543" lon="7.7229111"><ele>255.60000000000002</ele><time>2026-04-25T10:00:59.247Z</time></trkpt><trkpt lat="45.2754697" lon="7.7229161"><ele>255.4</ele><time>2026-04-25T10:01:00.247Z</time></trkpt><trkpt lat="45.2753619" lon="7.7228156"><ele>255.2</ele><time>2026-04-25T10:01:02.25Z</time></trkpt><trkpt lat="45.2752875" lon="7.7227311"><ele>255.0</ele><time>2026-04-25T10:01:03.251Z</time></trkpt><trkpt lat="45.2751962" lon="7.7226426"><ele>255.5</ele><time>2026-04-25T10:01:04.246Z</time></trkpt><trkpt lat="45.2750908" lon="7.7225354"><ele>256.0</ele><time>2026-04-25T10:01:05.245Z</time></trkpt><trkpt lat="45.2750014" lon="7.7224226"><ele>256.5</ele><time>2026-04-25T10:01:06.254Z</time></trkpt><trkpt lat="45.2749162" lon="7.7223096"><ele>257.0</ele><time>2026-04-25T10:01:07.256Z</time></trkpt><trkpt lat="45.2748332" lon="7.7222127"><ele>256.6666666666667</ele><time>2026-04-25T10:01:08.252Z</time></trkpt><trkpt lat="45.2747617" lon="7.7221416"><ele>256.33333333333337</ele><time>2026-04-25T10:01:09.248Z</time></trkpt><trkpt lat="45.2746996" lon="7.7220748"><ele>256.0</ele><time>2026-04-25T10:01:10.252Z</time></trkpt><trkpt lat="45.2746512" lon="7.7220041"><ele>255.66666666666669</ele><time>2026-04-25T10:01:11.25Z</time></trkpt><trkpt lat="45.2746254" lon="7.7219012"><ele>255.33333333333334</ele><time>2026-04-25T10:01:12.25Z</time></trkpt><trkpt lat="45.2746003" lon="7.7217641"><ele>255.0</ele><time>2026-04-25T10:01:13.246Z</time></trkpt><trkpt lat="45.274571" lon="7.721615"><ele>255.0</ele><time>2026-04-25T10:01:14.243Z</time></trkpt><trkpt lat="45.2745396" lon="7.721464"><ele>255.0</ele><time>2026-04-25T10:01:15.25Z</time></trkpt><trkpt lat="45.2745049" lon="7.7213105"><ele>255.0</ele><time>2026-04-25T10:01:16.25Z</time></trkpt><trkpt lat="45.2744787" lon="7.7211454"><ele>255.0</ele><time>2026-04-25T10:01:17.246Z</time></trkpt><trkpt lat="45.2744465" lon="7.7209664"><ele>254.66666666666669</ele><time>2026-04-25T10:01:18.248Z</time></trkpt><trkpt lat="45.2744068" lon="7.7207576"><ele>254.33333333333334</ele><time>2026-04-25T10:01:19.258Z</time></trkpt><trkpt lat="45.2743601" lon="7.7205182"><ele>254.0</ele><time>2026-04-25T10:01:20.248Z</time></trkpt><trkpt lat="45.2742904" lon="7.7202881"><ele>254.0</ele><time>2026-04-25T10:01:21.257Z</time></trkpt><trkpt lat="45.2742338" lon="7.7200369"><ele>254.0</ele><time>2026-04-25T10:01:22.253Z</time></trkpt><trkpt lat="45.2741812" lon="7.7198414"><ele>254.0</ele><time>2026-04-25T10:01:23.251Z</time></trkpt><trkpt lat="45.2741415" lon="7.7196597"><ele>254.0</ele><time>2026-04-25T10:01:24.251Z</time></trkpt><trkpt lat="45.2740824" lon="7.7194858"><ele>254.0</ele><time>2026-04-25T10:01:25.256Z</time></trkpt><trkpt lat="45.2740403" lon="7.7193167"><ele>254.0</ele><time>2026-04-25T10:01:26.252Z</time></trkpt><trkpt lat="45.2739614" lon="7.7191146"><ele>254.0</ele><time>2026-04-25T10:01:27.246Z</time></trkpt><trkpt lat="45.2738885" lon="7.7189292"><ele>253.66666666666669</ele><time>2026-04-25T10:01:28.254Z</time></trkpt><trkpt lat="45.2737829" lon="7.7187239"><ele>253.33333333333331</ele><time>2026-04-25T10:01:29.258Z</time></trkpt><trkpt lat="45.2736682" lon="7.7185176"><ele>253.0</ele><time>2026-04-25T10:01:30.256Z</time></trkpt><trkpt lat="45.2735706" lon="7.7183278"><ele>253.0</ele><time>2026-04-25T10:01:31.253Z</time></trkpt><trkpt lat="45.2734788" lon="7.7181428"><ele>253.0</ele><time>2026-04-25T10:01:32.249Z</time></trkpt><trkpt lat="45.2733998" lon="7.7179437"><ele>253.0</ele><time>2026-04-25T10:01:33.256Z</time></trkpt><trkpt lat="45.2733123" lon="7.7177486"><ele>253.0</ele><time>2026-04-25T10:01:34.25Z</time></trkpt><trkpt lat="45.2732388" lon="7.7175264"><ele>253.0</ele><time>2026-04-25T10:01:35.255Z</time></trkpt><trkpt lat="45.2731663" lon="7.7173271"><ele>253.0</ele><time>2026-04-25T10:01:36.255Z</time></trkpt><trkpt lat="45.2731133" lon="7.7171394"><ele>252.8</ele><time>2026-04-25T10:01:37.252Z</time></trkpt><trkpt lat="45.273042" lon="7.7170145"><ele>252.60000000000002</ele><time>2026-04-25T10:01:38.244Z</time></trkpt><trkpt lat="45.2729495" lon="7.7169248"><ele>252.39999999999998</ele><time>2026-04-25T10:01:39.256Z</time></trkpt><trkpt lat="45.2728742" lon="7.7168904"><ele>252.2</ele><time>2026-04-25T10:01:40.244Z</time></trkpt><trkpt lat="45.2728141" lon="7.7168176"><ele>252.0</ele><time>2026-04-25T10:01:42.244Z</time></trkpt><trkpt lat="45.2728854" lon="7.7167528"><ele>252.39999999999998</ele><time>2026-04-25T10:01:44.242Z</time></trkpt><trkpt lat="45.2729503" lon="7.7167289"><ele>252.79999999999998</ele><time>2026-04-25T10:01:45.252Z</time></trkpt><trkpt lat="45.2730512" lon="7.7166872"><ele>253.2</ele><time>2026-04-25T10:01:46.247Z</time></trkpt><trkpt lat="45.2731704" lon="7.7166242"><ele>253.6</ele><time>2026-04-25T10:01:47.253Z</time></trkpt><trkpt lat="45.2733008" lon="7.7165492"><ele>254.0</ele><time>2026-04-25T10:01:48.254Z</time></trkpt><trkpt lat="45.2734256" lon="7.7164632"><ele>254.0</ele><time>2026-04-25T10:01:49.255Z</time></trkpt><trkpt lat="45.273538" lon="7.716382"><ele>253.99999999999997</ele><time>2026-04-25T10:01:50.252Z</time></trkpt><trkpt lat="45.2736245" lon="7.7163156"><ele>253.99999999999997</ele><time>2026-04-25T10:01:51.246Z</time></trkpt><trkpt lat="45.2736901" lon="7.7162597"><ele>254.0</ele><time>2026-04-25T10:01:52.254Z</time></trkpt><trkpt lat="45.2737724" lon="7.7162333"><ele>254.0</ele><time>2026-04-25T10:01:54.256Z</time></trkpt><trkpt lat="45.2738472" lon="7.7163362"><ele>254.0</ele><time>2026-04-25T10:01:56.247Z</time></trkpt><trkpt lat="45.273889" lon="7.7164072"><ele>254.0</ele><time>2026-04-25T10:01:57.251Z</time></trkpt><trkpt lat="45.274037" lon="7.7164045"><ele>254.0</ele><time>2026-04-25T10:01:59.257Z</time></trkpt><trkpt lat="45.2741434" lon="7.7163464"><ele>254.0</ele><time>2026-04-25T10:02:00.252Z</time></trkpt><trkpt lat="45.2742693" lon="7.7162845"><ele>254.25</ele><time>2026-04-25T10:02:01.259Z</time></trkpt><trkpt lat="45.2744004" lon="7.7162226"><ele>254.5</ele><time>2026-04-25T10:02:02.262Z</time></trkpt><trkpt lat="45.2745368" lon="7.7161711"><ele>254.75</ele><time>2026-04-25T10:02:03.263Z</time></trkpt><trkpt lat="45.2746654" lon="7.7161136"><ele>255.0</ele><time>2026-04-25T10:02:04.263Z</time></trkpt><trkpt lat="45.2747868" lon="7.7160566"><ele>255.75</ele><time>2026-04-25T10:02:05.269Z</time></trkpt><trkpt lat="45.2749039" lon="7.7159968"><ele>256.5</ele><time>2026-04-25T10:02:06.266Z</time></trkpt><trkpt lat="45.2750296" lon="7.7159422"><ele>257.25</ele><time>2026-04-25T10:02:07.258Z</time></trkpt><trkpt lat="45.2751625" lon="7.7158923"><ele>258.0</ele><time>2026-04-25T10:02:08.265Z</time></trkpt><trkpt lat="45.2753012" lon="7.7158382"><ele>258.0</ele><time>2026-04-25T10:02:09.256Z</time></trkpt><trkpt lat="45.2754493" lon="7.7157838"><ele>258.0</ele><time>2026-04-25T10:02:10.263Z</time></trkpt><trkpt lat="45.2755927" lon="7.7157365"><ele>258.0</ele><time>2026-04-25T10:02:11.268Z</time></trkpt><trkpt lat="45.2757239" lon="7.7156702"><ele>258.0</ele><time>2026-04-25T10:02:12.261Z</time></trkpt><trkpt lat="45.2758439" lon="7.7156178"><ele>258.0</ele><time>2026-04-25T10:02:13.265Z</time></trkpt><trkpt lat="45.2759704" lon="7.7155593"><ele>258.0</ele><time>2026-04-25T10:02:14.263Z</time></trkpt><trkpt lat="45.2760824" lon="7.7154999"><ele>258.0</ele><time>2026-04-25T10:02:15.262Z</time></trkpt><trkpt lat="45.2761887" lon="7.7154617"><ele>258.0</ele><time>2026-04-25T10:02:16.262Z</time></trkpt><trkpt lat="45.2762985" lon="7.7154253"><ele>258.0</ele><time>2026-04-25T10:02:17.268Z</time></trkpt><trkpt lat="45.2764063" lon="7.7154043"><ele>258.0</ele><time>2026-04-25T10:02:18.273Z</time></trkpt><trkpt lat="45.2764969" lon="7.7153463"><ele>258.0</ele><time>2026-04-25T10:02:19.264Z</time></trkpt><trkpt lat="45.2765794" lon="7.7153113"><ele>258.0</ele><time>2026-04-25T10:02:20.266Z</time></trkpt><trkpt lat="45.2766459" lon="7.7152876"><ele>258.0</ele><time>2026-04-25T10:02:21.264Z</time></trkpt><trkpt lat="45.2767479" lon="7.7152311"><ele>258.0</ele><time>2026-04-25T10:02:23.266Z</time></trkpt><trkpt lat="45.2768457" lon="7.7153095"><ele>258.0</ele><time>2026-04-25T10:02:26.256Z</time></trkpt><trkpt lat="45.2769082" lon="7.7154153"><ele>258.0</ele><time>2026-04-25T10:02:27.263Z</time></trkpt><trkpt lat="45.2769748" lon="7.715538"><ele>258.0</ele><time>2026-04-25T10:02:28.26Z</time></trkpt><trkpt lat="45.2770506" lon="7.7156696"><ele>258.0</ele><time>2026-04-25T10:02:29.264Z</time></trkpt><trkpt lat="45.2771371" lon="7.7158007"><ele>258.0</ele><time>2026-04-25T10:02:30.27Z</time></trkpt><trkpt lat="45.2772289" lon="7.7159316"><ele>258.0</ele><time>2026-04-25T10:02:31.265Z</time></trkpt><trkpt lat="45.2773176" lon="7.7160642"><ele>258.0</ele><time>2026-04-25T10:02:32.265Z</time></trkpt><trkpt lat="45.2774082" lon="7.7161832"><ele>258.0</ele><time>2026-04-25T10:02:33.259Z</time></trkpt><trkpt lat="45.2775116" lon="7.716296"><ele>258.0</ele><time>2026-04-25T10:02:34.273Z</time></trkpt><trkpt lat="45.2776104" lon="7.7164218"><ele>258.0</ele><time>2026-04-25T10:02:35.27Z</time></trkpt><trkpt lat="45.277714" lon="7.7165612"><ele>258.0</ele><time>2026-04-25T10:02:36.274Z</time></trkpt><trkpt lat="45.2778196" lon="7.7166924"><ele>258.0</ele><time>2026-04-25T10:02:37.269Z</time></trkpt><trkpt lat="45.2779143" lon="7.716809"><ele>258.1666666666667</ele><time>2026-04-25T10:02:38.274Z</time></trkpt><trkpt lat="45.2779957" lon="7.7169267"><ele>258.3333333333333</ele><time>2026-04-25T10:02:39.27Z</time></trkpt><trkpt lat="45.2780654" lon="7.7170302"><ele>258.5</ele><time>2026-04-25T10:02:40.274Z</time></trkpt><trkpt lat="45.2781185" lon="7.7171258"><ele>258.66666666666663</ele><time>2026-04-25T10:02:41.271Z</time></trkpt><trkpt lat="45.2781567" lon="7.7172004"><ele>258.8333333333333</ele><time>2026-04-25T10:02:42.277Z</time></trkpt><trkpt lat="45.2782023" lon="7.7172735"><ele>259.0</ele><time>2026-04-25T10:02:43.276Z</time></trkpt><trkpt lat="45.2783096" lon="7.7173189"><ele>259.0</ele><time>2026-04-25T10:02:45.264Z</time></trkpt><trkpt lat="45.2783946" lon="7.7172884"><ele>259.0</ele><time>2026-04-25T10:02:46.273Z</time></trkpt><trkpt lat="45.2785049" lon="7.7172188"><ele>259.0</ele><time>2026-04-25T10:02:47.276Z</time></trkpt><trkpt lat="45.2786249" lon="7.7171302"><ele>259.0</ele><time>2026-04-25T10:02:48.272Z</time></trkpt><trkpt lat="45.2787402" lon="7.7170449"><ele>259.0</ele><time>2026-04-25T10:02:49.289Z</time></trkpt><trkpt lat="45.2788486" lon="7.716962"><ele>259.0</ele><time>2026-04-25T10:02:50.267Z</time></trkpt><trkpt lat="45.27896" lon="7.7168857"><ele>259.0</ele><time>2026-04-25T10:02:51.276Z</time></trkpt><trkpt lat="45.2790584" lon="7.716806"><ele>259.0</ele><time>2026-04-25T10:02:52.264Z</time></trkpt><trkpt lat="45.2791617" lon="7.7167289"><ele>259.0</ele><time>2026-04-25T10:02:53.27Z</time></trkpt><trkpt lat="45.2792735" lon="7.7166561"><ele>259.0</ele><time>2026-04-25T10:02:54.267Z</time></trkpt><trkpt lat="45.2793928" lon="7.7165884"><ele>259.0</ele><time>2026-04-25T10:02:55.272Z</time></trkpt><trkpt lat="45.2795008" lon="7.7165166"><ele>259.0</ele><time>2026-04-25T10:02:56.272Z</time></trkpt><trkpt lat="45.2796121" lon="7.7164579"><ele>259.0</ele><time>2026-04-25T10:02:57.273Z</time></trkpt><trkpt lat="45.2797164" lon="7.716402"><ele>259.0</ele><time>2026-04-25T10:02:58.265Z</time></trkpt><trkpt lat="45.2798065" lon="7.7163475"><ele>259.0</ele><time>2026-04-25T10:02:59.271Z</time></trkpt><trkpt lat="45.2798818" lon="7.7163028"><ele>259.0</ele><time>2026-04-25T10:03:00.266Z</time></trkpt><trkpt lat="45.2799551" lon="7.7162548"><ele>259.0</ele><time>2026-04-25T10:03:01.269Z</time></trkpt><trkpt lat="45.2800321" lon="7.7162036"><ele>258.59999999999997</ele><time>2026-04-25T10:03:02.267Z</time></trkpt><trkpt lat="45.2801013" lon="7.7161632"><ele>258.2</ele><time>2026-04-25T10:03:03.268Z</time></trkpt><trkpt lat="45.2802141" lon="7.7161632"><ele>257.79999999999995</ele><time>2026-04-25T10:03:05.263Z</time></trkpt><trkpt lat="45.280294" lon="7.7162993"><ele>257.4</ele><time>2026-04-25T10:03:07.256Z</time></trkpt><trkpt lat="45.2803294" lon="7.7164174"><ele>257.0</ele><time>2026-04-25T10:03:08.262Z</time></trkpt><trkpt lat="45.2803531" lon="7.7165715"><ele>257.0</ele><time>2026-04-25T10:03:09.266Z</time></trkpt><trkpt lat="45.2803827" lon="7.7167656"><ele>257.0</ele><time>2026-04-25T10:03:10.263Z</time></trkpt><trkpt lat="45.2804209" lon="7.7169552"><ele>257.0</ele><time>2026-04-25T10:03:11.269Z</time></trkpt><trkpt lat="45.280451" lon="7.7171218"><ele>257.0</ele><time>2026-04-25T10:03:12.259Z</time></trkpt><trkpt lat="45.280471" lon="7.717288"><ele>257.2</ele><time>2026-04-25T10:03:13.268Z</time></trkpt><trkpt lat="45.2804884" lon="7.7174656"><ele>257.4</ele><time>2026-04-25T10:03:14.266Z</time></trkpt><trkpt lat="45.2804935" lon="7.7176309"><ele>257.6</ele><time>2026-04-25T10:03:15.256Z</time></trkpt><trkpt lat="45.2804875" lon="7.7177752"><ele>257.8</ele><time>2026-04-25T10:03:16.254Z</time></trkpt><trkpt lat="45.2804703" lon="7.7179006"><ele>258.0</ele><time>2026-04-25T10:03:17.279Z</time></trkpt><trkpt lat="45.2804554" lon="7.7180085"><ele>258.0</ele><time>2026-04-25T10:03:18.251Z</time></trkpt><trkpt lat="45.2804486" lon="7.7181382"><ele>258.0</ele><time>2026-04-25T10:03:20.25Z</time></trkpt><trkpt lat="45.280524" lon="7.7181987"><ele>258.0</ele><time>2026-04-25T10:03:22.264Z</time></trkpt><trkpt lat="45.2806048" lon="7.718193"><ele>258.0</ele><time>2026-04-25T10:03:23.256Z</time></trkpt><trkpt lat="45.2807133" lon="7.7181597"><ele>258.0</ele><time>2026-04-25T10:03:24.257Z</time></trkpt><trkpt lat="45.2808437" lon="7.7181169"><ele>258.25</ele><time>2026-04-25T10:03:25.262Z</time></trkpt><trkpt lat="45.2809801" lon="7.71806"><ele>258.5</ele><time>2026-04-25T10:03:26.26Z</time></trkpt><trkpt lat="45.2811077" lon="7.7179999"><ele>258.75</ele><time>2026-04-25T10:03:27.261Z</time></trkpt><trkpt lat="45.2812411" lon="7.717921"><ele>259.0</ele><time>2026-04-25T10:03:28.257Z</time></trkpt><trkpt lat="45.2813698" lon="7.7178314"><ele>259.0</ele><time>2026-04-25T10:03:29.264Z</time></trkpt><trkpt lat="45.2815036" lon="7.7177195"><ele>259.0</ele><time>2026-04-25T10:03:30.259Z</time></trkpt><trkpt lat="45.281626" lon="7.717593"><ele>259.0</ele><time>2026-04-25T10:03:31.269Z</time></trkpt><trkpt lat="45.2817478" lon="7.7174726"><ele>259.0</ele><time>2026-04-25T10:03:32.263Z</time></trkpt><trkpt lat="45.2818694" lon="7.7173698"><ele>259.0</ele><time>2026-04-25T10:03:33.267Z</time></trkpt><trkpt lat="45.2819904" lon="7.717271"><ele>259.0</ele><time>2026-04-25T10:03:34.277Z</time></trkpt><trkpt lat="45.282118" lon="7.7171655"><ele>259.0</ele><time>2026-04-25T10:03:35.266Z</time></trkpt><trkpt lat="45.2822327" lon="7.717073"><ele>259.66666666666663</ele><time>2026-04-25T10:03:36.267Z</time></trkpt><trkpt lat="45.2823699" lon="7.7169608"><ele>260.3333333333333</ele><time>2026-04-25T10:03:37.273Z</time></trkpt><trkpt lat="45.2825115" lon="7.7168382"><ele>261.0</ele><time>2026-04-25T10:03:38.265Z</time></trkpt><trkpt lat="45.2826312" lon="7.7167409"><ele>261.0</ele><time>2026-04-25T10:03:39.265Z</time></trkpt><trkpt lat="45.2827671" lon="7.716618"><ele>261.0</ele><time>2026-04-25T10:03:40.257Z</time></trkpt><trkpt lat="45.2829024" lon="7.716515"><ele>261.0</ele><time>2026-04-25T10:03:41.264Z</time></trkpt><trkpt lat="45.2830208" lon="7.7164155"><ele>261.3333333333333</ele><time>2026-04-25T10:03:42.252Z</time></trkpt><trkpt lat="45.2831481" lon="7.716312"><ele>261.66666666666663</ele><time>2026-04-25T10:03:43.264Z</time></trkpt><trkpt lat="45.2832855" lon="7.7162027"><ele>262.0</ele><time>2026-04-25T10:03:44.262Z</time></trkpt><trkpt lat="45.2834195" lon="7.7161037"><ele>261.66666666666663</ele><time>2026-04-25T10:03:45.254Z</time></trkpt><trkpt lat="45.2835532" lon="7.7159942"><ele>261.3333333333333</ele><time>2026-04-25T10:03:46.263Z</time></trkpt><trkpt lat="45.2836843" lon="7.7158708"><ele>261.0</ele><time>2026-04-25T10:03:47.258Z</time></trkpt><trkpt lat="45.2838331" lon="7.7157544"><ele>261.75</ele><time>2026-04-25T10:03:48.263Z</time></trkpt><trkpt lat="45.2839515" lon="7.7156461"><ele>262.5</ele><time>2026-04-25T10:03:49.26Z</time></trkpt><trkpt lat="45.2840677" lon="7.7155445"><ele>263.25</ele><time>2026-04-25T10:03:50.265Z</time></trkpt><trkpt lat="45.2841794" lon="7.7154347"><ele>264.0</ele><time>2026-04-25T10:03:51.266Z</time></trkpt><trkpt lat="45.2843007" lon="7.7153275"><ele>263.5</ele><time>2026-04-25T10:03:52.273Z</time></trkpt><trkpt lat="45.2843824" lon="7.7152274"><ele>263.0</ele><time>2026-04-25T10:03:53.262Z</time></trkpt><trkpt lat="45.2844607" lon="7.7150954"><ele>262.5</ele><time>2026-04-25T10:03:54.255Z</time></trkpt><trkpt lat="45.2845302" lon="7.7149495"><ele>262.0</ele><time>2026-04-25T10:03:55.265Z</time></trkpt><trkpt lat="45.28457" lon="7.7147943"><ele>262.0</ele><time>2026-04-25T10:03:56.256Z</time></trkpt><trkpt lat="45.2846218" lon="7.7146387"><ele>262.0</ele><time>2026-04-25T10:03:57.264Z</time></trkpt><trkpt lat="45.2846489" lon="7.7144871"><ele>262.0</ele><time>2026-04-25T10:03:58.263Z</time></trkpt><trkpt lat="45.2846672" lon="7.7143228"><ele>262.0</ele><time>2026-04-25T10:03:59.27Z</time></trkpt><trkpt lat="45.2846788" lon="7.7141854"><ele>262.0</ele><time>2026-04-25T10:04:00.259Z</time></trkpt><trkpt lat="45.2846923" lon="7.7140586"><ele>262.16666666666663</ele><time>2026-04-25T10:04:01.263Z</time></trkpt><trkpt lat="45.2847188" lon="7.7139397"><ele>262.3333333333333</ele><time>2026-04-25T10:04:02.267Z</time></trkpt><trkpt lat="45.2847655" lon="7.7138279"><ele>262.5</ele><time>2026-04-25T10:04:03.249Z</time></trkpt><trkpt lat="45.2848244" lon="7.7137483"><ele>262.6666666666667</ele><time>2026-04-25T10:04:04.258Z</time></trkpt><trkpt lat="45.2848973" lon="7.713702"><ele>262.83333333333337</ele><time>2026-04-25T10:04:05.257Z</time></trkpt><trkpt lat="45.2849853" lon="7.7136786"><ele>263.0</ele><time>2026-04-25T10:04:06.262Z</time></trkpt><trkpt lat="45.2850952" lon="7.7136546"><ele>263.0</ele><time>2026-04-25T10:04:07.268Z</time></trkpt><trkpt lat="45.2852208" lon="7.7136417"><ele>263.0</ele><time>2026-04-25T10:04:08.259Z</time></trkpt><trkpt lat="45.2853459" lon="7.7136422"><ele>263.0</ele><time>2026-04-25T10:04:09.256Z</time></trkpt><trkpt lat="45.2854712" lon="7.7136348"><ele>263.0</ele><time>2026-04-25T10:04:10.269Z</time></trkpt><trkpt lat="45.2855893" lon="7.7136405"><ele>263.4</ele><time>2026-04-25T10:04:11.264Z</time></trkpt><trkpt lat="45.2856892" lon="7.7136689"><ele>263.8</ele><time>2026-04-25T10:04:12.257Z</time></trkpt><trkpt lat="45.2857734" lon="7.7136735"><ele>264.2</ele><time>2026-04-25T10:04:13.269Z</time></trkpt><trkpt lat="45.2858585" lon="7.7136719"><ele>264.6</ele><time>2026-04-25T10:04:14.265Z</time></trkpt><trkpt lat="45.2859467" lon="7.7136495"><ele>265.0</ele><time>2026-04-25T10:04:15.266Z</time></trkpt><trkpt lat="45.2860372" lon="7.7136223"><ele>265.0</ele><time>2026-04-25T10:04:16.265Z</time></trkpt><trkpt lat="45.2861333" lon="7.7135807"><ele>265.0</ele><time>2026-04-25T10:04:17.26Z</time></trkpt><trkpt lat="45.2862389" lon="7.7135352"><ele>265.0</ele><time>2026-04-25T10:04:18.261Z</time></trkpt><trkpt lat="45.2863427" lon="7.7135082"><ele>265.0</ele><time>2026-04-25T10:04:19.267Z</time></trkpt><trkpt lat="45.2864313" lon="7.7134939"><ele>265.0</ele><time>2026-04-25T10:04:20.265Z</time></trkpt><trkpt lat="45.2865126" lon="7.7134842"><ele>265.0</ele><time>2026-04-25T10:04:21.267Z</time></trkpt><trkpt lat="45.2865804" lon="7.7134516"><ele>265.0</ele><time>2026-04-25T10:04:22.263Z</time></trkpt><trkpt lat="45.2866513" lon="7.7134149"><ele>265.0</ele><time>2026-04-25T10:04:23.254Z</time></trkpt><trkpt lat="45.2867234" lon="7.713358"><ele>265.0</ele><time>2026-04-25T10:04:24.257Z</time></trkpt><trkpt lat="45.2867944" lon="7.7132664"><ele>265.0</ele><time>2026-04-25T10:04:25.248Z</time></trkpt><trkpt lat="45.2868856" lon="7.7131823"><ele>265.0</ele><time>2026-04-25T10:04:26.257Z</time></trkpt><trkpt lat="45.286974" lon="7.7130876"><ele>265.0</ele><time>2026-04-25T10:04:27.251Z</time></trkpt><trkpt lat="45.2870691" lon="7.7129897"><ele>265.0</ele><time>2026-04-25T10:04:28.267Z</time></trkpt><trkpt lat="45.2871747" lon="7.7128917"><ele>265.0</ele><time>2026-04-25T10:04:29.26Z</time></trkpt><trkpt lat="45.2872994" lon="7.7127611"><ele>265.0</ele><time>2026-04-25T10:04:30.253Z</time></trkpt><trkpt lat="45.2874238" lon="7.7126295"><ele>265.75</ele><time>2026-04-25T10:04:31.251Z</time></trkpt><trkpt lat="45.2875309" lon="7.7125034"><ele>266.5</ele><time>2026-04-25T10:04:32.255Z</time></trkpt><trkpt lat="45.2876249" lon="7.7123842"><ele>267.25</ele><time>2026-04-25T10:04:33.248Z</time></trkpt><trkpt lat="45.2877272" lon="7.7122457"><ele>268.0</ele><time>2026-04-25T10:04:34.261Z</time></trkpt><trkpt lat="45.2878281" lon="7.7121233"><ele>268.0</ele><time>2026-04-25T10:04:35.259Z</time></trkpt><trkpt lat="45.2879345" lon="7.7119843"><ele>268.0</ele><time>2026-04-25T10:04:36.255Z</time></trkpt><trkpt lat="45.2880255" lon="7.7118475"><ele>268.0</ele><time>2026-04-25T10:04:37.25Z</time></trkpt><trkpt lat="45.2881176" lon="7.7117432"><ele>268.0</ele><time>2026-04-25T10:04:38.255Z</time></trkpt><trkpt lat="45.2882226" lon="7.711625"><ele>268.0</ele><time>2026-04-25T10:04:39.256Z</time></trkpt><trkpt lat="45.2883684" lon="7.711563"><ele>268.0</ele><time>2026-04-25T10:04:40.249Z</time></trkpt><trkpt lat="45.2885217" lon="7.7115083"><ele>268.0</ele><time>2026-04-25T10:04:41.258Z</time></trkpt><trkpt lat="45.2886763" lon="7.7114325"><ele>268.0</ele><time>2026-04-25T10:04:42.26Z</time></trkpt><trkpt lat="45.2888118" lon="7.7113557"><ele>268.0</ele><time>2026-04-25T10:04:43.247Z</time></trkpt><trkpt lat="45.2889297" lon="7.7112839"><ele>268.0</ele><time>2026-04-25T10:04:44.246Z</time></trkpt><trkpt lat="45.2890494" lon="7.7112232"><ele>268.0</ele><time>2026-04-25T10:04:45.244Z</time></trkpt><trkpt lat="45.2891594" lon="7.7111622"><ele>268.0</ele><time>2026-04-25T10:04:46.251Z</time></trkpt><trkpt lat="45.2892661" lon="7.711102"><ele>268.0</ele><time>2026-04-25T10:04:47.246Z</time></trkpt><trkpt lat="45.2893422" lon="7.7110593"><ele>268.0</ele><time>2026-04-25T10:04:48.241Z</time></trkpt><trkpt lat="45.2894068" lon="7.7110355"><ele>268.0</ele><time>2026-04-25T10:04:50.247Z</time></trkpt><trkpt lat="45.2894754" lon="7.7110119"><ele>268.0</ele><time>2026-04-25T10:04:51.246Z</time></trkpt><trkpt lat="45.289551" lon="7.7109461"><ele>268.0</ele><time>2026-04-25T10:04:52.256Z</time></trkpt><trkpt lat="45.2896537" lon="7.7108729"><ele>268.2</ele><time>2026-04-25T10:04:53.246Z</time></trkpt><trkpt lat="45.2897569" lon="7.7108413"><ele>268.4</ele><time>2026-04-25T10:04:54.241Z</time></trkpt><trkpt lat="45.2898395" lon="7.7108047"><ele>268.59999999999997</ele><time>2026-04-25T10:04:55.25Z</time></trkpt><trkpt lat="45.2898884" lon="7.7107348"><ele>268.8</ele><time>2026-04-25T10:04:56.249Z</time></trkpt><trkpt lat="45.2899097" lon="7.7106099"><ele>269.0</ele><time>2026-04-25T10:04:57.247Z</time></trkpt><trkpt lat="45.2899019" lon="7.7104481"><ele>269.0</ele><time>2026-04-25T10:04:58.252Z</time></trkpt><trkpt lat="45.2898803" lon="7.7102617"><ele>269.0</ele><time>2026-04-25T10:04:59.252Z</time></trkpt><trkpt lat="45.2898549" lon="7.710053"><ele>269.0</ele><time>2026-04-25T10:05:00.244Z</time></trkpt><trkpt lat="45.2898344" lon="7.7098363"><ele>269.0</ele><time>2026-04-25T10:05:01.249Z</time></trkpt><trkpt lat="45.289793" lon="7.7095459"><ele>268.6666666666667</ele><time>2026-04-25T10:05:02.245Z</time></trkpt><trkpt lat="45.2897571" lon="7.7092573"><ele>268.3333333333333</ele><time>2026-04-25T10:05:03.25Z</time></trkpt><trkpt lat="45.2897116" lon="7.7089651"><ele>268.0</ele><time>2026-04-25T10:05:04.252Z</time></trkpt><trkpt lat="45.2896712" lon="7.7086464"><ele>268.0</ele><time>2026-04-25T10:05:05.251Z</time></trkpt><trkpt lat="45.2896073" lon="7.7083476"><ele>268.0</ele><time>2026-04-25T10:05:06.249Z</time></trkpt><trkpt lat="45.2895872" lon="7.7080939"><ele>268.0</ele><time>2026-04-25T10:05:07.248Z</time></trkpt><trkpt lat="45.2895539" lon="7.7078408"><ele>268.66666666666663</ele><time>2026-04-25T10:05:08.251Z</time></trkpt><trkpt lat="45.2895252" lon="7.7075982"><ele>269.3333333333333</ele><time>2026-04-25T10:05:09.25Z</time></trkpt><trkpt lat="45.2894897" lon="7.707354"><ele>270.0</ele><time>2026-04-25T10:05:10.249Z</time></trkpt><trkpt lat="45.2894611" lon="7.7071448"><ele>270.0</ele><time>2026-04-25T10:05:11.247Z</time></trkpt><trkpt lat="45.2894602" lon="7.7069564"><ele>270.0</ele><time>2026-04-25T10:05:12.247Z</time></trkpt><trkpt lat="45.2894766" lon="7.7067782"><ele>270.0</ele><time>2026-04-25T10:05:13.243Z</time></trkpt><trkpt lat="45.2894995" lon="7.7065608"><ele>270.0</ele><time>2026-04-25T10:05:14.244Z</time></trkpt><trkpt lat="45.2895211" lon="7.7063396"><ele>270.6666666666667</ele><time>2026-04-25T10:05:15.25Z</time></trkpt><trkpt lat="45.2895219" lon="7.7061041"><ele>271.33333333333337</ele><time>2026-04-25T10:05:16.246Z</time></trkpt><trkpt lat="45.2894971" lon="7.7058722"><ele>272.0</ele><time>2026-04-25T10:05:17.245Z</time></trkpt><trkpt lat="45.289477" lon="7.7056504"><ele>272.0</ele><time>2026-04-25T10:05:18.238Z</time></trkpt><trkpt lat="45.2894343" lon="7.7054464"><ele>272.0</ele><time>2026-04-25T10:05:19.24Z</time></trkpt><trkpt lat="45.2894163" lon="7.7053054"><ele>272.0</ele><time>2026-04-25T10:05:20.234Z</time></trkpt><trkpt lat="45.2893953" lon="7.7051906"><ele>272.0</ele><time>2026-04-25T10:05:21.236Z</time></trkpt><trkpt lat="45.2893558" lon="7.7051181"><ele>272.0</ele><time>2026-04-25T10:05:22.261Z</time></trkpt><trkpt lat="45.2892705" lon="7.7051005"><ele>271.4</ele><time>2026-04-25T10:05:23.262Z</time></trkpt><trkpt lat="45.2891487" lon="7.705124"><ele>270.79999999999995</ele><time>2026-04-25T10:05:24.247Z</time></trkpt><trkpt lat="45.2890478" lon="7.7051535"><ele>270.2</ele><time>2026-04-25T10:05:25.25Z</time></trkpt><trkpt lat="45.2889433" lon="7.705165"><ele>269.59999999999997</ele><time>2026-04-25T10:05:26.248Z</time></trkpt><trkpt lat="45.2888464" lon="7.7051282"><ele>269.0</ele><time>2026-04-25T10:05:27.241Z</time></trkpt><trkpt lat="45.2887459" lon="7.7050569"><ele>269.0</ele><time>2026-04-25T10:05:28.248Z</time></trkpt><trkpt lat="45.2886591" lon="7.7049417"><ele>269.0</ele><time>2026-04-25T10:05:29.252Z</time></trkpt><trkpt lat="45.2886124" lon="7.7047445"><ele>269.0</ele><time>2026-04-25T10:05:30.244Z</time></trkpt><trkpt lat="45.2886015" lon="7.704514"><ele>269.0</ele><time>2026-04-25T10:05:31.242Z</time></trkpt><trkpt lat="45.2886052" lon="7.7042213"><ele>269.5</ele><time>2026-04-25T10:05:32.251Z</time></trkpt><trkpt lat="45.2886515" lon="7.7038369"><ele>270.0</ele><time>2026-04-25T10:05:33.247Z</time></trkpt><trkpt lat="45.2886931" lon="7.7035124"><ele>270.3333333333333</ele><time>2026-04-25T10:05:34.251Z</time></trkpt><trkpt lat="45.2887058" lon="7.7032416"><ele>270.66666666666663</ele><time>2026-04-25T10:05:35.25Z</time></trkpt><trkpt lat="45.2886727" lon="7.7029957"><ele>271.0</ele><time>2026-04-25T10:05:36.255Z</time></trkpt><trkpt lat="45.2886627" lon="7.7027931"><ele>271.0</ele><time>2026-04-25T10:05:37.257Z</time></trkpt><trkpt lat="45.2886544" lon="7.702619"><ele>271.0</ele><time>2026-04-25T10:05:38.254Z</time></trkpt><trkpt lat="45.2886414" lon="7.7024415"><ele>271.0</ele><time>2026-04-25T10:05:39.26Z</time></trkpt><trkpt lat="45.2886145" lon="7.7022672"><ele>271.0</ele><time>2026-04-25T10:05:40.266Z</time></trkpt><trkpt lat="45.2885717" lon="7.702093"><ele>271.0</ele><time>2026-04-25T10:05:41.252Z</time></trkpt><trkpt lat="45.2884836" lon="7.7019239"><ele>271.0</ele><time>2026-04-25T10:05:42.261Z</time></trkpt><trkpt lat="45.2884186" lon="7.7017529"><ele>271.0</ele><time>2026-04-25T10:05:43.253Z</time></trkpt><trkpt lat="45.2884176" lon="7.7015798"><ele>271.0</ele><time>2026-04-25T10:05:44.252Z</time></trkpt><trkpt lat="45.2884567" lon="7.7013584"><ele>270.66666666666663</ele><time>2026-04-25T10:05:45.258Z</time></trkpt><trkpt lat="45.2884851" lon="7.7011536"><ele>270.3333333333333</ele><time>2026-04-25T10:05:46.261Z</time></trkpt><trkpt lat="45.2885236" lon="7.7009435"><ele>270.0</ele><time>2026-04-25T10:05:47.26Z</time></trkpt><trkpt lat="45.2885789" lon="7.7007318"><ele>270.0</ele><time>2026-04-25T10:05:48.254Z</time></trkpt><trkpt lat="45.2886189" lon="7.7005216"><ele>270.0</ele><time>2026-04-25T10:05:49.272Z</time></trkpt><trkpt lat="45.2886509" lon="7.7003012"><ele>270.0</ele><time>2026-04-25T10:05:50.265Z</time></trkpt><trkpt lat="45.288663" lon="7.7000916"><ele>270.5</ele><time>2026-04-25T10:05:51.261Z</time></trkpt><trkpt lat="45.2886618" lon="7.6998856"><ele>271.0</ele><time>2026-04-25T10:05:52.262Z</time></trkpt><trkpt lat="45.2886495" lon="7.6996903"><ele>271.5</ele><time>2026-04-25T10:05:53.264Z</time></trkpt><trkpt lat="45.2886477" lon="7.6995307"><ele>272.0</ele><time>2026-04-25T10:05:54.259Z</time></trkpt><trkpt lat="45.2886347" lon="7.6994032"><ele>272.0</ele><time>2026-04-25T10:05:55.253Z</time></trkpt><trkpt lat="45.2886503" lon="7.699314"><ele>272.0</ele><time>2026-04-25T10:05:56.252Z</time></trkpt><trkpt lat="45.2887009" lon="7.6992261"><ele>272.0</ele><time>2026-04-25T10:05:58.245Z</time></trkpt><trkpt lat="45.288844" lon="7.6992433"><ele>272.0</ele><time>2026-04-25T10:06:00.25Z</time></trkpt><trkpt lat="45.2889354" lon="7.6992529"><ele>272.0</ele><time>2026-04-25T10:06:01.251Z</time></trkpt><trkpt lat="45.2890513" lon="7.6992408"><ele>272.0</ele><time>2026-04-25T10:06:02.254Z</time></trkpt><trkpt lat="45.2891723" lon="7.6992161"><ele>272.0</ele><time>2026-04-25T10:06:03.256Z</time></trkpt><trkpt lat="45.2892907" lon="7.6991933"><ele>272.0</ele><time>2026-04-25T10:06:04.253Z</time></trkpt><trkpt lat="45.2893952" lon="7.6991556"><ele>272.0</ele><time>2026-04-25T10:06:05.257Z</time></trkpt><trkpt lat="45.2895006" lon="7.6990877"><ele>272.0</ele><time>2026-04-25T10:06:06.259Z</time></trkpt><trkpt lat="45.2896009" lon="7.6990287"><ele>272.0</ele><time>2026-04-25T10:06:07.253Z</time></trkpt><trkpt lat="45.2896941" lon="7.6989818"><ele>272.0</ele><time>2026-04-25T10:06:08.255Z</time></trkpt><trkpt lat="45.2897678" lon="7.698963"><ele>272.0</ele><time>2026-04-25T10:06:09.247Z</time></trkpt><trkpt lat="45.2898391" lon="7.6989136"><ele>272.0</ele><time>2026-04-25T10:06:10.252Z</time></trkpt><trkpt lat="45.2898945" lon="7.6988111"><ele>272.0</ele><time>2026-04-25T10:06:11.252Z</time></trkpt><trkpt lat="45.2899246" lon="7.6986524"><ele>272.0</ele><time>2026-04-25T10:06:12.252Z</time></trkpt><trkpt lat="45.2899488" lon="7.6984582"><ele>272.0</ele><time>2026-04-25T10:06:13.252Z</time></trkpt><trkpt lat="45.2899702" lon="7.6982018"><ele>272.0</ele><time>2026-04-25T10:06:14.256Z</time></trkpt><trkpt lat="45.2899796" lon="7.6979174"><ele>272.25</ele><time>2026-04-25T10:06:15.255Z</time></trkpt><trkpt lat="45.2899712" lon="7.6977052"><ele>272.5</ele><time>2026-04-25T10:06:16.254Z</time></trkpt><trkpt lat="45.2900038" lon="7.6975367"><ele>272.75</ele><time>2026-04-25T10:06:17.25Z</time></trkpt><trkpt lat="45.2900073" lon="7.6973974"><ele>273.0</ele><time>2026-04-25T10:06:18.25Z</time></trkpt><trkpt lat="45.2900032" lon="7.6972393"><ele>273.0</ele><time>2026-04-25T10:06:19.258Z</time></trkpt><trkpt lat="45.2900052" lon="7.697058"><ele>273.0</ele><time>2026-04-25T10:06:20.246Z</time></trkpt><trkpt lat="45.2900047" lon="7.6968717"><ele>273.0</ele><time>2026-04-25T10:06:21.242Z</time></trkpt><trkpt lat="45.2900075" lon="7.696674"><ele>273.0</ele><time>2026-04-25T10:06:22.258Z</time></trkpt><trkpt lat="45.2899772" lon="7.6964893"><ele>272.75</ele><time>2026-04-25T10:06:23.265Z</time></trkpt><trkpt lat="45.2899608" lon="7.6963191"><ele>272.5</ele><time>2026-04-25T10:06:24.261Z</time></trkpt><trkpt lat="45.2899454" lon="7.6961481"><ele>272.25</ele><time>2026-04-25T10:06:25.267Z</time></trkpt><trkpt lat="45.2899461" lon="7.695988"><ele>272.0</ele><time>2026-04-25T10:06:26.262Z</time></trkpt><trkpt lat="45.2899565" lon="7.6958289"><ele>272.0</ele><time>2026-04-25T10:06:27.269Z</time></trkpt><trkpt lat="45.2899578" lon="7.6956772"><ele>272.0</ele><time>2026-04-25T10:06:28.27Z</time></trkpt><trkpt lat="45.2899556" lon="7.695534"><ele>272.0</ele><time>2026-04-25T10:06:29.272Z</time></trkpt><trkpt lat="45.289941" lon="7.6953974"><ele>272.0</ele><time>2026-04-25T10:06:30.259Z</time></trkpt><trkpt lat="45.2899347" lon="7.6953041"><ele>272.0</ele><time>2026-04-25T10:06:31.262Z</time></trkpt><trkpt lat="45.2899217" lon="7.6951628"><ele>272.4</ele><time>2026-04-25T10:06:35.273Z</time></trkpt><trkpt lat="45.2899251" lon="7.6950515"><ele>272.79999999999995</ele><time>2026-04-25T10:06:38.256Z</time></trkpt><trkpt lat="45.2899503" lon="7.6948896"><ele>273.2</ele><time>2026-04-25T10:06:40.252Z</time></trkpt><trkpt lat="45.2899673" lon="7.6947824"><ele>273.59999999999997</ele><time>2026-04-25T10:06:41.266Z</time></trkpt><trkpt lat="45.2899834" lon="7.6946311"><ele>274.0</ele><time>2026-04-25T10:06:42.262Z</time></trkpt><trkpt lat="45.289993" lon="7.6944611"><ele>273.75</ele><time>2026-04-25T10:06:43.26Z</time></trkpt><trkpt lat="45.2900104" lon="7.6942805"><ele>273.5</ele><time>2026-04-25T10:06:44.263Z</time></trkpt><trkpt lat="45.2900206" lon="7.6940871"><ele>273.25</ele><time>2026-04-25T10:06:45.267Z</time></trkpt><trkpt lat="45.2900324" lon="7.6938749"><ele>273.0</ele><time>2026-04-25T10:06:46.267Z</time></trkpt><trkpt lat="45.290044" lon="7.6936835"><ele>273.0</ele><time>2026-04-25T10:06:47.273Z</time></trkpt><trkpt lat="45.2900567" lon="7.6934814"><ele>273.0</ele><time>2026-04-25T10:06:48.265Z</time></trkpt><trkpt lat="45.2900842" lon="7.6932987"><ele>273.0</ele><time>2026-04-25T10:06:49.271Z</time></trkpt><trkpt lat="45.290101" lon="7.6931153"><ele>273.0</ele><time>2026-04-25T10:06:50.279Z</time></trkpt><trkpt lat="45.2901446" lon="7.6929334"><ele>273.25</ele><time>2026-04-25T10:06:51.274Z</time></trkpt><trkpt lat="45.2901715" lon="7.6927343"><ele>273.5</ele><time>2026-04-25T10:06:52.278Z</time></trkpt><trkpt lat="45.2902125" lon="7.6925359"><ele>273.75</ele><time>2026-04-25T10:06:53.272Z</time></trkpt><trkpt lat="45.2902568" lon="7.6923625"><ele>274.0</ele><time>2026-04-25T10:06:54.274Z</time></trkpt><trkpt lat="45.2902957" lon="7.6921672"><ele>274.0</ele><time>2026-04-25T10:06:55.273Z</time></trkpt><trkpt lat="45.2903284" lon="7.6919564"><ele>274.0</ele><time>2026-04-25T10:06:56.282Z</time></trkpt><trkpt lat="45.2903512" lon="7.6917648"><ele>274.0</ele><time>2026-04-25T10:06:57.269Z</time></trkpt><trkpt lat="45.2903821" lon="7.6915815"><ele>274.0</ele><time>2026-04-25T10:06:58.267Z</time></trkpt><trkpt lat="45.290398" lon="7.6913766"><ele>274.0</ele><time>2026-04-25T10:06:59.267Z</time></trkpt><trkpt lat="45.2903744" lon="7.6911198"><ele>274.0</ele><time>2026-04-25T10:07:00.249Z</time></trkpt><trkpt lat="45.2903306" lon="7.6908617"><ele>274.0</ele><time>2026-04-25T10:07:01.259Z</time></trkpt><trkpt lat="45.2903257" lon="7.690644"><ele>274.0</ele><time>2026-04-25T10:07:02.266Z</time></trkpt><trkpt lat="45.2903044" lon="7.6904287"><ele>274.0</ele><time>2026-04-25T10:07:03.27Z</time></trkpt><trkpt lat="45.290277" lon="7.6901972"><ele>274.0</ele><time>2026-04-25T10:07:04.271Z</time></trkpt><trkpt lat="45.290253" lon="7.6899861"><ele>274.0</ele><time>2026-04-25T10:07:05.27Z</time></trkpt><trkpt lat="45.2902288" lon="7.6897718"><ele>274.0</ele><time>2026-04-25T10:07:06.264Z</time></trkpt><trkpt lat="45.2902242" lon="7.6895723"><ele>274.0</ele><time>2026-04-25T10:07:07.261Z</time></trkpt><trkpt lat="45.2902183" lon="7.6893639"><ele>274.0</ele><time>2026-04-25T10:07:08.273Z</time></trkpt><trkpt lat="45.2902108" lon="7.6891818"><ele>274.0</ele><time>2026-04-25T10:07:09.263Z</time></trkpt><trkpt lat="45.2901677" lon="7.6890027"><ele>274.0</ele><time>2026-04-25T10:07:10.269Z</time></trkpt><trkpt lat="45.2901528" lon="7.6888304"><ele>274.0</ele><time>2026-04-25T10:07:11.268Z</time></trkpt><trkpt lat="45.2901506" lon="7.6886552"><ele>274.0</ele><time>2026-04-25T10:07:12.267Z</time></trkpt><trkpt lat="45.2901484" lon="7.6885054"><ele>274.16666666666663</ele><time>2026-04-25T10:07:13.262Z</time></trkpt><trkpt lat="45.2901189" lon="7.6883835"><ele>274.3333333333333</ele><time>2026-04-25T10:07:14.259Z</time></trkpt><trkpt lat="45.2901191" lon="7.6882871"><ele>274.5</ele><time>2026-04-25T10:07:15.261Z</time></trkpt><trkpt lat="45.2901473" lon="7.6881406"><ele>274.6666666666667</ele><time>2026-04-25T10:07:17.264Z</time></trkpt><trkpt lat="45.2902124" lon="7.6880796"><ele>274.83333333333337</ele><time>2026-04-25T10:07:19.266Z</time></trkpt><trkpt lat="45.2902829" lon="7.6880655"><ele>275.0</ele><time>2026-04-25T10:07:20.258Z</time></trkpt><trkpt lat="45.2903897" lon="7.6880654"><ele>275.0</ele><time>2026-04-25T10:07:21.259Z</time></trkpt><trkpt lat="45.2905244" lon="7.6880771"><ele>275.0</ele><time>2026-04-25T10:07:22.262Z</time></trkpt><trkpt lat="45.2906618" lon="7.6880914"><ele>275.0</ele><time>2026-04-25T10:07:23.265Z</time></trkpt><trkpt lat="45.2908134" lon="7.688113"><ele>275.0</ele><time>2026-04-25T10:07:24.273Z</time></trkpt><trkpt lat="45.2909501" lon="7.6881211"><ele>275.25</ele><time>2026-04-25T10:07:25.27Z</time></trkpt><trkpt lat="45.2910931" lon="7.6881214"><ele>275.5</ele><time>2026-04-25T10:07:26.275Z</time></trkpt><trkpt lat="45.2912372" lon="7.6881297"><ele>275.75</ele><time>2026-04-25T10:07:27.28Z</time></trkpt><trkpt lat="45.2913924" lon="7.6881234"><ele>276.0</ele><time>2026-04-25T10:07:28.273Z</time></trkpt><trkpt lat="45.2915459" lon="7.6881367"><ele>276.0</ele><time>2026-04-25T10:07:29.273Z</time></trkpt><trkpt lat="45.2916964" lon="7.6881312"><ele>276.0</ele><time>2026-04-25T10:07:30.269Z</time></trkpt><trkpt lat="45.2918632" lon="7.6881344"><ele>276.0</ele><time>2026-04-25T10:07:31.269Z</time></trkpt><trkpt lat="45.2920326" lon="7.6881423"><ele>276.0</ele><time>2026-04-25T10:07:32.274Z</time></trkpt><trkpt lat="45.2922022" lon="7.6881535"><ele>276.0</ele><time>2026-04-25T10:07:33.271Z</time></trkpt><trkpt lat="45.2923737" lon="7.688154"><ele>276.0</ele><time>2026-04-25T10:07:34.271Z</time></trkpt><trkpt lat="45.2925452" lon="7.6881419"><ele>276.0</ele><time>2026-04-25T10:07:35.272Z</time></trkpt><trkpt lat="45.2927165" lon="7.6881492"><ele>276.0</ele><time>2026-04-25T10:07:36.268Z</time></trkpt><trkpt lat="45.2928821" lon="7.6881454"><ele>276.0</ele><time>2026-04-25T10:07:37.265Z</time></trkpt><trkpt lat="45.2930375" lon="7.6881647"><ele>275.6666666666667</ele><time>2026-04-25T10:07:38.267Z</time></trkpt><trkpt lat="45.2931889" lon="7.6881608"><ele>275.33333333333337</ele><time>2026-04-25T10:07:39.27Z</time></trkpt><trkpt lat="45.2933443" lon="7.6881759"><ele>275.0</ele><time>2026-04-25T10:07:40.273Z</time></trkpt><trkpt lat="45.2934954" lon="7.6881707"><ele>275.0</ele><time>2026-04-25T10:07:41.27Z</time></trkpt><trkpt lat="45.2936297" lon="7.6881695"><ele>275.0</ele><time>2026-04-25T10:07:42.273Z</time></trkpt><trkpt lat="45.293755" lon="7.6881627"><ele>275.0</ele><time>2026-04-25T10:07:43.27Z</time></trkpt><trkpt lat="45.2938635" lon="7.6881703"><ele>275.0</ele><time>2026-04-25T10:07:44.271Z</time></trkpt><trkpt lat="45.2939461" lon="7.6881867"><ele>275.4</ele><time>2026-04-25T10:07:45.273Z</time></trkpt><trkpt lat="45.2940162" lon="7.688183"><ele>275.8</ele><time>2026-04-25T10:07:46.279Z</time></trkpt><trkpt lat="45.2940821" lon="7.6881527"><ele>276.2</ele><time>2026-04-25T10:07:47.279Z</time></trkpt><trkpt lat="45.2941319" lon="7.687996"><ele>276.6</ele><time>2026-04-25T10:07:49.277Z</time></trkpt><trkpt lat="45.2941251" lon="7.6878242"><ele>277.0</ele><time>2026-04-25T10:07:50.275Z</time></trkpt><trkpt lat="45.2941055" lon="7.6876126"><ele>277.25</ele><time>2026-04-25T10:07:51.262Z</time></trkpt><trkpt lat="45.2941044" lon="7.6874322"><ele>277.5</ele><time>2026-04-25T10:07:52.272Z</time></trkpt><trkpt lat="45.2940999" lon="7.6872642"><ele>277.75</ele><time>2026-04-25T10:07:53.276Z</time></trkpt><trkpt lat="45.294095" lon="7.6870903"><ele>278.0</ele><time>2026-04-25T10:07:54.273Z</time></trkpt><trkpt lat="45.2940831" lon="7.6869105"><ele>278.25</ele><time>2026-04-25T10:07:55.27Z</time></trkpt><trkpt lat="45.2940684" lon="7.6867355"><ele>278.5</ele><time>2026-04-25T10:07:56.271Z</time></trkpt><trkpt lat="45.2940492" lon="7.6865598"><ele>278.75</ele><time>2026-04-25T10:07:57.279Z</time></trkpt><trkpt lat="45.2940342" lon="7.6863727"><ele>279.0</ele><time>2026-04-25T10:07:58.266Z</time></trkpt><trkpt lat="45.2940259" lon="7.6861829"><ele>278.6666666666667</ele><time>2026-04-25T10:07:59.278Z</time></trkpt><trkpt lat="45.2940166" lon="7.6859706"><ele>278.33333333333337</ele><time>2026-04-25T10:08:00.272Z</time></trkpt><trkpt lat="45.2940101" lon="7.6857336"><ele>278.0</ele><time>2026-04-25T10:08:01.273Z</time></trkpt><trkpt lat="45.2940084" lon="7.6855132"><ele>278.0</ele><time>2026-04-25T10:08:02.274Z</time></trkpt><trkpt lat="45.2940127" lon="7.6852798"><ele>278.0</ele><time>2026-04-25T10:08:03.265Z</time></trkpt><trkpt lat="45.2940091" lon="7.6850515"><ele>278.0</ele><time>2026-04-25T10:08:04.275Z</time></trkpt><trkpt lat="45.2940331" lon="7.6848363"><ele>277.6666666666667</ele><time>2026-04-25T10:08:05.275Z</time></trkpt><trkpt lat="45.2940399" lon="7.6846179"><ele>277.3333333333333</ele><time>2026-04-25T10:08:06.278Z</time></trkpt><trkpt lat="45.2940353" lon="7.6843819"><ele>277.0</ele><time>2026-04-25T10:08:07.279Z</time></trkpt><trkpt lat="45.2940345" lon="7.684154"><ele>277.3333333333333</ele><time>2026-04-25T10:08:08.278Z</time></trkpt><trkpt lat="45.2940453" lon="7.6839167"><ele>277.6666666666667</ele><time>2026-04-25T10:08:09.279Z</time></trkpt><trkpt lat="45.2940721" lon="7.6836817"><ele>278.0</ele><time>2026-04-25T10:08:10.281Z</time></trkpt><trkpt lat="45.294071" lon="7.6834394"><ele>278.0</ele><time>2026-04-25T10:08:11.271Z</time></trkpt><trkpt lat="45.2940702" lon="7.683189"><ele>278.0</ele><time>2026-04-25T10:08:12.276Z</time></trkpt><trkpt lat="45.2940875" lon="7.6829597"><ele>278.0</ele><time>2026-04-25T10:08:13.279Z</time></trkpt><trkpt lat="45.294077" lon="7.682721"><ele>278.0</ele><time>2026-04-25T10:08:14.271Z</time></trkpt><trkpt lat="45.2940822" lon="7.682504"><ele>278.0</ele><time>2026-04-25T10:08:15.273Z</time></trkpt><trkpt lat="45.2940874" lon="7.6822762"><ele>278.0</ele><time>2026-04-25T10:08:16.269Z</time></trkpt><trkpt lat="45.2940898" lon="7.6820473"><ele>278.6666666666667</ele><time>2026-04-25T10:08:17.279Z</time></trkpt><trkpt lat="45.2940763" lon="7.681824"><ele>279.3333333333333</ele><time>2026-04-25T10:08:18.276Z</time></trkpt><trkpt lat="45.2940837" lon="7.6816039"><ele>280.0</ele><time>2026-04-25T10:08:19.281Z</time></trkpt><trkpt lat="45.2940851" lon="7.6813779"><ele>280.0</ele><time>2026-04-25T10:08:20.273Z</time></trkpt><trkpt lat="45.2940599" lon="7.6811459"><ele>280.0</ele><time>2026-04-25T10:08:21.27Z</time></trkpt><trkpt lat="45.2940477" lon="7.6808988"><ele>280.0</ele><time>2026-04-25T10:08:22.278Z</time></trkpt><trkpt lat="45.2940376" lon="7.6806449"><ele>280.0</ele><time>2026-04-25T10:08:23.28Z</time></trkpt><trkpt lat="45.2940675" lon="7.6803902"><ele>280.0</ele><time>2026-04-25T10:08:24.276Z</time></trkpt><trkpt lat="45.2940755" lon="7.6801147"><ele>280.0</ele><time>2026-04-25T10:08:25.269Z</time></trkpt><trkpt lat="45.2940858" lon="7.6798529"><ele>280.3333333333333</ele><time>2026-04-25T10:08:26.268Z</time></trkpt><trkpt lat="45.2940797" lon="7.6795832"><ele>280.6666666666667</ele><time>2026-04-25T10:08:27.274Z</time></trkpt><trkpt lat="45.2940845" lon="7.6793181"><ele>281.0</ele><time>2026-04-25T10:08:28.28Z</time></trkpt><trkpt lat="45.2940903" lon="7.6790822"><ele>281.0</ele><time>2026-04-25T10:08:29.273Z</time></trkpt><trkpt lat="45.2940763" lon="7.6788421"><ele>281.0</ele><time>2026-04-25T10:08:30.273Z</time></trkpt><trkpt lat="45.294078" lon="7.6785714"><ele>281.0</ele><time>2026-04-25T10:08:31.274Z</time></trkpt><trkpt lat="45.2941051" lon="7.6783138"><ele>280.6666666666667</ele><time>2026-04-25T10:08:32.272Z</time></trkpt><trkpt lat="45.29413" lon="7.6780706"><ele>280.3333333333333</ele><time>2026-04-25T10:08:33.272Z</time></trkpt><trkpt lat="45.2941248" lon="7.6778089"><ele>280.0</ele><time>2026-04-25T10:08:34.269Z</time></trkpt><trkpt lat="45.2941348" lon="7.6775588"><ele>280.0</ele><time>2026-04-25T10:08:35.268Z</time></trkpt><trkpt lat="45.2941608" lon="7.6773103"><ele>280.0</ele><time>2026-04-25T10:08:36.267Z</time></trkpt><trkpt lat="45.2941451" lon="7.6770558"><ele>280.0</ele><time>2026-04-25T10:08:37.272Z</time></trkpt><trkpt lat="45.2941312" lon="7.6768116"><ele>280.3333333333333</ele><time>2026-04-25T10:08:38.271Z</time></trkpt><trkpt lat="45.2941387" lon="7.6765806"><ele>280.6666666666667</ele><time>2026-04-25T10:08:39.273Z</time></trkpt><trkpt lat="45.2941522" lon="7.6763435"><ele>281.0</ele><time>2026-04-25T10:08:40.27Z</time></trkpt><trkpt lat="45.2941543" lon="7.6761124"><ele>281.0</ele><time>2026-04-25T10:08:41.269Z</time></trkpt><trkpt lat="45.2941635" lon="7.6759134"><ele>281.0</ele><time>2026-04-25T10:08:42.265Z</time></trkpt><trkpt lat="45.2941598" lon="7.6756922"><ele>281.0</ele><time>2026-04-25T10:08:43.267Z</time></trkpt><trkpt lat="45.2941751" lon="7.6754677"><ele>280.6666666666667</ele><time>2026-04-25T10:08:44.274Z</time></trkpt><trkpt lat="45.2941932" lon="7.6752629"><ele>280.3333333333333</ele><time>2026-04-25T10:08:45.27Z</time></trkpt><trkpt lat="45.2941781" lon="7.67504"><ele>280.0</ele><time>2026-04-25T10:08:46.275Z</time></trkpt><trkpt lat="45.2941768" lon="7.6748217"><ele>280.0</ele><time>2026-04-25T10:08:47.275Z</time></trkpt><trkpt lat="45.2942011" lon="7.6746349"><ele>280.0</ele><time>2026-04-25T10:08:48.275Z</time></trkpt><trkpt lat="45.2942076" lon="7.6744596"><ele>280.0</ele><time>2026-04-25T10:08:49.288Z</time></trkpt><trkpt lat="45.2942085" lon="7.6743171"><ele>280.0</ele><time>2026-04-25T10:08:50.281Z</time></trkpt><trkpt lat="45.2942055" lon="7.6741769"><ele>280.0</ele><time>2026-04-25T10:08:51.27Z</time></trkpt><trkpt lat="45.2942224" lon="7.674025"><ele>280.0</ele><time>2026-04-25T10:08:53.271Z</time></trkpt><trkpt lat="45.2942249" lon="7.6739319"><ele>280.0</ele><time>2026-04-25T10:08:59.279Z</time></trkpt><trkpt lat="45.2942158" lon="7.6738187"><ele>280.0</ele><time>2026-04-25T10:09:07.277Z</time></trkpt><trkpt lat="45.2940976" lon="7.673753"><ele>280.0</ele><time>2026-04-25T10:09:09.259Z</time></trkpt><trkpt lat="45.2939822" lon="7.6737302"><ele>280.0</ele><time>2026-04-25T10:09:10.266Z</time></trkpt><trkpt lat="45.2938439" lon="7.6736918"><ele>280.0</ele><time>2026-04-25T10:09:11.259Z</time></trkpt><trkpt lat="45.2937125" lon="7.6736626"><ele>280.0</ele><time>2026-04-25T10:09:12.275Z</time></trkpt><trkpt lat="45.2935653" lon="7.6736319"><ele>280.0</ele><time>2026-04-25T10:09:13.268Z</time></trkpt><trkpt lat="45.2934202" lon="7.6735816"><ele>280.25</ele><time>2026-04-25T10:09:14.252Z</time></trkpt><trkpt lat="45.2932673" lon="7.6735503"><ele>280.5</ele><time>2026-04-25T10:09:15.265Z</time></trkpt><trkpt lat="45.2931358" lon="7.6735189"><ele>280.75</ele><time>2026-04-25T10:09:16.27Z</time></trkpt><trkpt lat="45.2930038" lon="7.673495"><ele>281.0</ele><time>2026-04-25T10:09:17.265Z</time></trkpt><trkpt lat="45.2928374" lon="7.6734448"><ele>280.33333333333337</ele><time>2026-04-25T10:09:18.273Z</time></trkpt><trkpt lat="45.2926679" lon="7.6734081"><ele>279.6666666666667</ele><time>2026-04-25T10:09:19.272Z</time></trkpt><trkpt lat="45.2924907" lon="7.6733507"><ele>279.0</ele><time>2026-04-25T10:09:20.274Z</time></trkpt><trkpt lat="45.2922918" lon="7.6733014"><ele>278.6666666666667</ele><time>2026-04-25T10:09:21.273Z</time></trkpt><trkpt lat="45.2920865" lon="7.6732706"><ele>278.33333333333337</ele><time>2026-04-25T10:09:22.278Z</time></trkpt><trkpt lat="45.2918751" lon="7.6732233"><ele>278.0</ele><time>2026-04-25T10:09:23.281Z</time></trkpt><trkpt lat="45.2916821" lon="7.6731832"><ele>278.0</ele><time>2026-04-25T10:09:24.279Z</time></trkpt><trkpt lat="45.2914719" lon="7.6731276"><ele>278.0</ele><time>2026-04-25T10:09:25.277Z</time></trkpt><trkpt lat="45.2912679" lon="7.6730785"><ele>278.0</ele><time>2026-04-25T10:09:26.283Z</time></trkpt><trkpt lat="45.2910752" lon="7.6730424"><ele>278.0</ele><time>2026-04-25T10:09:27.282Z</time></trkpt><trkpt lat="45.290899" lon="7.6729867"><ele>278.0</ele><time>2026-04-25T10:09:28.289Z</time></trkpt><trkpt lat="45.2907178" lon="7.6729595"><ele>278.0</ele><time>2026-04-25T10:09:29.286Z</time></trkpt><trkpt lat="45.2905332" lon="7.6729182"><ele>278.0</ele><time>2026-04-25T10:09:30.277Z</time></trkpt><trkpt lat="45.2903824" lon="7.6728566"><ele>278.0</ele><time>2026-04-25T10:09:31.28Z</time></trkpt><trkpt lat="45.2902104" lon="7.6727977"><ele>278.0</ele><time>2026-04-25T10:09:32.277Z</time></trkpt><trkpt lat="45.2900435" lon="7.6727635"><ele>278.0</ele><time>2026-04-25T10:09:33.278Z</time></trkpt><trkpt lat="45.2898751" lon="7.6727266"><ele>278.0</ele><time>2026-04-25T10:09:34.274Z</time></trkpt><trkpt lat="45.2896968" lon="7.6726815"><ele>278.0</ele><time>2026-04-25T10:09:35.272Z</time></trkpt><trkpt lat="45.2895163" lon="7.6726409"><ele>278.0</ele><time>2026-04-25T10:09:36.27Z</time></trkpt><trkpt lat="45.2893358" lon="7.6725942"><ele>278.0</ele><time>2026-04-25T10:09:37.273Z</time></trkpt><trkpt lat="45.2891585" lon="7.6725494"><ele>278.0</ele><time>2026-04-25T10:09:38.276Z</time></trkpt><trkpt lat="45.2890006" lon="7.6724765"><ele>278.0</ele><time>2026-04-25T10:09:39.263Z</time></trkpt><trkpt lat="45.2888531" lon="7.6723993"><ele>278.0</ele><time>2026-04-25T10:09:40.261Z</time></trkpt><trkpt lat="45.2886964" lon="7.6723062"><ele>278.0</ele><time>2026-04-25T10:09:41.264Z</time></trkpt><trkpt lat="45.2885411" lon="7.6721885"><ele>278.0</ele><time>2026-04-25T10:09:42.244Z</time></trkpt><trkpt lat="45.2883834" lon="7.6720632"><ele>278.0</ele><time>2026-04-25T10:09:43.251Z</time></trkpt><trkpt lat="45.2882801" lon="7.6719408"><ele>278.0</ele><time>2026-04-25T10:09:44.241Z</time></trkpt><trkpt lat="45.288149" lon="7.6718026"><ele>277.0</ele><time>2026-04-25T10:09:45.252Z</time></trkpt><trkpt lat="45.2880463" lon="7.6716431"><ele>276.0</ele><time>2026-04-25T10:09:46.251Z</time></trkpt><trkpt lat="45.2879294" lon="7.6714584"><ele>275.0</ele><time>2026-04-25T10:09:47.251Z</time></trkpt><trkpt lat="45.2878436" lon="7.6712783"><ele>274.6666666666667</ele><time>2026-04-25T10:09:48.252Z</time></trkpt><trkpt lat="45.2877373" lon="7.6710973"><ele>274.3333333333333</ele><time>2026-04-25T10:09:49.252Z</time></trkpt><trkpt lat="45.2876339" lon="7.6709099"><ele>274.0</ele><time>2026-04-25T10:09:50.24Z</time></trkpt><trkpt lat="45.2875429" lon="7.6706804"><ele>274.0</ele><time>2026-04-25T10:09:51.249Z</time></trkpt><trkpt lat="45.2874854" lon="7.670447"><ele>274.0</ele><time>2026-04-25T10:09:52.247Z</time></trkpt><trkpt lat="45.2874235" lon="7.6702275"><ele>274.0</ele><time>2026-04-25T10:09:53.253Z</time></trkpt><trkpt lat="45.2873242" lon="7.6700214"><ele>273.66666666666663</ele><time>2026-04-25T10:09:54.252Z</time></trkpt><trkpt lat="45.2872412" lon="7.6698294"><ele>273.3333333333333</ele><time>2026-04-25T10:09:55.251Z</time></trkpt><trkpt lat="45.2871506" lon="7.6696459"><ele>273.0</ele><time>2026-04-25T10:09:56.256Z</time></trkpt><trkpt lat="45.287071" lon="7.669469"><ele>273.25</ele><time>2026-04-25T10:09:57.251Z</time></trkpt><trkpt lat="45.2870012" lon="7.6692896"><ele>273.5</ele><time>2026-04-25T10:09:58.256Z</time></trkpt><trkpt lat="45.2869427" lon="7.669119"><ele>273.75</ele><time>2026-04-25T10:09:59.252Z</time></trkpt><trkpt lat="45.2868808" lon="7.6689583"><ele>274.0</ele><time>2026-04-25T10:10:00.253Z</time></trkpt><trkpt lat="45.2868191" lon="7.6688133"><ele>274.0</ele><time>2026-04-25T10:10:01.254Z</time></trkpt><trkpt lat="45.2867736" lon="7.668677"><ele>274.0</ele><time>2026-04-25T10:10:02.253Z</time></trkpt><trkpt lat="45.2867278" lon="7.6685649"><ele>274.0</ele><time>2026-04-25T10:10:03.253Z</time></trkpt><trkpt lat="45.2866855" lon="7.668486"><ele>274.0</ele><time>2026-04-25T10:10:04.259Z</time></trkpt><trkpt lat="45.2866459" lon="7.6683324"><ele>274.0</ele><time>2026-04-25T10:10:06.251Z</time></trkpt><trkpt lat="45.2866179" lon="7.6682317"><ele>273.8</ele><time>2026-04-25T10:10:09.258Z</time></trkpt><trkpt lat="45.2865872" lon="7.6681393"><ele>273.59999999999997</ele><time>2026-04-25T10:10:13.261Z</time></trkpt><trkpt lat="45.2865157" lon="7.6680382"><ele>273.4</ele><time>2026-04-25T10:10:16.252Z</time></trkpt><trkpt lat="45.2864426" lon="7.6679857"><ele>273.2</ele><time>2026-04-25T10:10:17.26Z</time></trkpt><trkpt lat="45.2863412" lon="7.6679367"><ele>273.0</ele><time>2026-04-25T10:10:18.246Z</time></trkpt><trkpt lat="45.2862318" lon="7.6678928"><ele>272.75</ele><time>2026-04-25T10:10:19.251Z</time></trkpt><trkpt lat="45.2861171" lon="7.667832"><ele>272.5</ele><time>2026-04-25T10:10:20.244Z</time></trkpt><trkpt lat="45.2860024" lon="7.6677578"><ele>272.25</ele><time>2026-04-25T10:10:21.252Z</time></trkpt><trkpt lat="45.2858772" lon="7.6676777"><ele>272.0</ele><time>2026-04-25T10:10:22.253Z</time></trkpt><trkpt lat="45.2857509" lon="7.6675887"><ele>271.5</ele><time>2026-04-25T10:10:23.252Z</time></trkpt><trkpt lat="45.2856339" lon="7.6674885"><ele>271.0</ele><time>2026-04-25T10:10:24.252Z</time></trkpt><trkpt lat="45.28551" lon="7.6673853"><ele>270.5</ele><time>2026-04-25T10:10:25.256Z</time></trkpt><trkpt lat="45.2853971" lon="7.6673017"><ele>270.0</ele><time>2026-04-25T10:10:26.261Z</time></trkpt><trkpt lat="45.2852921" lon="7.6672244"><ele>270.0</ele><time>2026-04-25T10:10:27.258Z</time></trkpt><trkpt lat="45.2851861" lon="7.6671489"><ele>270.0</ele><time>2026-04-25T10:10:28.256Z</time></trkpt><trkpt lat="45.2850775" lon="7.6670729"><ele>270.0</ele><time>2026-04-25T10:10:29.257Z</time></trkpt><trkpt lat="45.2849625" lon="7.6669807"><ele>270.0</ele><time>2026-04-25T10:10:30.258Z</time></trkpt><trkpt lat="45.2848409" lon="7.6668947"><ele>270.0</ele><time>2026-04-25T10:10:31.251Z</time></trkpt><trkpt lat="45.2847273" lon="7.6668036"><ele>270.0</ele><time>2026-04-25T10:10:32.255Z</time></trkpt><trkpt lat="45.2846109" lon="7.6667185"><ele>270.0</ele><time>2026-04-25T10:10:33.252Z</time></trkpt><trkpt lat="45.2844917" lon="7.6666294"><ele>270.0</ele><time>2026-04-25T10:10:34.259Z</time></trkpt><trkpt lat="45.2843645" lon="7.6665398"><ele>270.0</ele><time>2026-04-25T10:10:35.256Z</time></trkpt><trkpt lat="45.2842407" lon="7.6664454"><ele>270.0</ele><time>2026-04-25T10:10:36.254Z</time></trkpt><trkpt lat="45.2841222" lon="7.6663645"><ele>270.0</ele><time>2026-04-25T10:10:37.255Z</time></trkpt><trkpt lat="45.2840052" lon="7.6662779"><ele>270.0</ele><time>2026-04-25T10:10:38.254Z</time></trkpt><trkpt lat="45.2838816" lon="7.6661981"><ele>269.5</ele><time>2026-04-25T10:10:39.26Z</time></trkpt><trkpt lat="45.2837523" lon="7.6661121"><ele>269.0</ele><time>2026-04-25T10:10:40.25Z</time></trkpt><trkpt lat="45.2836239" lon="7.6660247"><ele>268.5</ele><time>2026-04-25T10:10:41.255Z</time></trkpt><trkpt lat="45.2834956" lon="7.6659369"><ele>268.0</ele><time>2026-04-25T10:10:42.258Z</time></trkpt><trkpt lat="45.2833837" lon="7.6658299"><ele>268.0</ele><time>2026-04-25T10:10:43.25Z</time></trkpt><trkpt lat="45.2832673" lon="7.6657214"><ele>268.0</ele><time>2026-04-25T10:10:44.257Z</time></trkpt><trkpt lat="45.283159" lon="7.6656226"><ele>268.0</ele><time>2026-04-25T10:10:45.253Z</time></trkpt><trkpt lat="45.2830621" lon="7.665517"><ele>268.0</ele><time>2026-04-25T10:10:46.259Z</time></trkpt><trkpt lat="45.282975" lon="7.6654342"><ele>267.8333333333333</ele><time>2026-04-25T10:10:47.254Z</time></trkpt><trkpt lat="45.28291" lon="7.6653665"><ele>267.66666666666663</ele><time>2026-04-25T10:10:48.257Z</time></trkpt><trkpt lat="45.2828527" lon="7.6653047"><ele>267.5</ele><time>2026-04-25T10:10:49.254Z</time></trkpt><trkpt lat="45.2827855" lon="7.6652271"><ele>267.3333333333333</ele><time>2026-04-25T10:10:51.245Z</time></trkpt><trkpt lat="45.282803" lon="7.6651204"><ele>267.1666666666667</ele><time>2026-04-25T10:10:56.253Z</time></trkpt><trkpt lat="45.2827978" lon="7.6650257"><ele>267.0</ele><time>2026-04-25T10:10:57.256Z</time></trkpt><trkpt lat="45.2827943" lon="7.6649176"><ele>267.0</ele><time>2026-04-25T10:10:58.25Z</time></trkpt><trkpt lat="45.2827978" lon="7.6647902"><ele>267.0</ele><time>2026-04-25T10:10:59.255Z</time></trkpt><trkpt lat="45.2828149" lon="7.6646372"><ele>267.0</ele><time>2026-04-25T10:11:00.254Z</time></trkpt><trkpt lat="45.2828436" lon="7.6644417"><ele>267.0</ele><time>2026-04-25T10:11:01.253Z</time></trkpt><trkpt lat="45.2828774" lon="7.6642311"><ele>267.25</ele><time>2026-04-25T10:11:02.258Z</time></trkpt><trkpt lat="45.2829003" lon="7.6640515"><ele>267.5</ele><time>2026-04-25T10:11:03.259Z</time></trkpt><trkpt lat="45.282934" lon="7.6638758"><ele>267.75</ele><time>2026-04-25T10:11:04.255Z</time></trkpt><trkpt lat="45.2829973" lon="7.6636862"><ele>268.0</ele><time>2026-04-25T10:11:05.239Z</time></trkpt><trkpt lat="45.2830987" lon="7.6635029"><ele>268.25</ele><time>2026-04-25T10:11:06.24Z</time></trkpt><trkpt lat="45.2832054" lon="7.6633416"><ele>268.5</ele><time>2026-04-25T10:11:07.251Z</time></trkpt><trkpt lat="45.2833091" lon="7.6632103"><ele>268.75</ele><time>2026-04-25T10:11:08.244Z</time></trkpt><trkpt lat="45.2834226" lon="7.6631034"><ele>269.0</ele><time>2026-04-25T10:11:09.251Z</time></trkpt><trkpt lat="45.2835512" lon="7.6629922"><ele>269.0</ele><time>2026-04-25T10:11:10.249Z</time></trkpt><trkpt lat="45.2836653" lon="7.662931"><ele>269.0</ele><time>2026-04-25T10:11:11.254Z</time></trkpt><trkpt lat="45.2837573" lon="7.6628702"><ele>269.0</ele><time>2026-04-25T10:11:12.255Z</time></trkpt><trkpt lat="45.283838" lon="7.6628126"><ele>269.0</ele><time>2026-04-25T10:11:13.249Z</time></trkpt><trkpt lat="45.2839143" lon="7.6627616"><ele>269.0</ele><time>2026-04-25T10:11:14.257Z</time></trkpt><trkpt lat="45.2839917" lon="7.6627634"><ele>268.83333333333337</ele><time>2026-04-25T10:11:15.253Z</time></trkpt><trkpt lat="45.2840706" lon="7.6627723"><ele>268.6666666666667</ele><time>2026-04-25T10:11:16.25Z</time></trkpt><trkpt lat="45.2841566" lon="7.6627608"><ele>268.5</ele><time>2026-04-25T10:11:17.246Z</time></trkpt><trkpt lat="45.284225" lon="7.6627284"><ele>268.3333333333333</ele><time>2026-04-25T10:11:18.244Z</time></trkpt><trkpt lat="45.284274" lon="7.6626559"><ele>268.16666666666663</ele><time>2026-04-25T10:11:19.26Z</time></trkpt><trkpt lat="45.2842904" lon="7.662546"><ele>268.0</ele><time>2026-04-25T10:11:20.252Z</time></trkpt><trkpt lat="45.2842521" lon="7.6624544"><ele>268.0</ele><time>2026-04-25T10:11:21.248Z</time></trkpt><trkpt lat="45.2841798" lon="7.6623748"><ele>268.0</ele><time>2026-04-25T10:11:22.249Z</time></trkpt><trkpt lat="45.2840776" lon="7.6622972"><ele>268.0</ele><time>2026-04-25T10:11:23.242Z</time></trkpt><trkpt lat="45.2839823" lon="7.6621827"><ele>268.0</ele><time>2026-04-25T10:11:24.239Z</time></trkpt><trkpt lat="45.2838872" lon="7.6620433"><ele>268.5</ele><time>2026-04-25T10:11:25.243Z</time></trkpt><trkpt lat="45.283797" lon="7.6618818"><ele>269.0</ele><time>2026-04-25T10:11:26.243Z</time></trkpt><trkpt lat="45.2837085" lon="7.661725"><ele>269.5</ele><time>2026-04-25T10:11:27.242Z</time></trkpt><trkpt lat="45.2836207" lon="7.6615563"><ele>270.0</ele><time>2026-04-25T10:11:28.245Z</time></trkpt><trkpt lat="45.2835156" lon="7.6613759"><ele>270.0</ele><time>2026-04-25T10:11:29.247Z</time></trkpt><trkpt lat="45.2834238" lon="7.6612206"><ele>270.0</ele><time>2026-04-25T10:11:30.237Z</time></trkpt><trkpt lat="45.2833705" lon="7.6610889"><ele>270.0</ele><time>2026-04-25T10:11:31.239Z</time></trkpt><trkpt lat="45.2832995" lon="7.6609484"><ele>270.0</ele><time>2026-04-25T10:11:32.242Z</time></trkpt><trkpt lat="45.2832479" lon="7.6608369"><ele>271.2</ele><time>2026-04-25T10:11:33.244Z</time></trkpt><trkpt lat="45.2832069" lon="7.660748"><ele>272.4</ele><time>2026-04-25T10:11:34.248Z</time></trkpt><trkpt lat="45.2831926" lon="7.6605883"><ele>273.6</ele><time>2026-04-25T10:11:36.231Z</time></trkpt><trkpt lat="45.2832748" lon="7.6604308"><ele>274.8</ele><time>2026-04-25T10:11:38.234Z</time></trkpt><trkpt lat="45.2833768" lon="7.6603739"><ele>276.0</ele><time>2026-04-25T10:11:39.23Z</time></trkpt><trkpt lat="45.2835269" lon="7.6603447"><ele>276.0</ele><time>2026-04-25T10:11:40.242Z</time></trkpt><trkpt lat="45.2836891" lon="7.6603028"><ele>276.0</ele><time>2026-04-25T10:11:41.231Z</time></trkpt><trkpt lat="45.2838673" lon="7.6602485"><ele>276.0</ele><time>2026-04-25T10:11:42.242Z</time></trkpt><trkpt lat="45.2839977" lon="7.6601773"><ele>275.0</ele><time>2026-04-25T10:11:43.237Z</time></trkpt><trkpt lat="45.2841413" lon="7.6601082"><ele>274.0</ele><time>2026-04-25T10:11:44.243Z</time></trkpt><trkpt lat="45.2843158" lon="7.6600171"><ele>273.0</ele><time>2026-04-25T10:11:45.25Z</time></trkpt><trkpt lat="45.2844801" lon="7.6599135"><ele>273.0</ele><time>2026-04-25T10:11:46.244Z</time></trkpt><trkpt lat="45.2846511" lon="7.6598093"><ele>273.0</ele><time>2026-04-25T10:11:47.249Z</time></trkpt><trkpt lat="45.2848107" lon="7.6597127"><ele>273.0</ele><time>2026-04-25T10:11:48.245Z</time></trkpt><trkpt lat="45.2849778" lon="7.6596216"><ele>272.6666666666667</ele><time>2026-04-25T10:11:49.25Z</time></trkpt><trkpt lat="45.2851329" lon="7.6595084"><ele>272.33333333333337</ele><time>2026-04-25T10:11:50.252Z</time></trkpt><trkpt lat="45.285282" lon="7.6594117"><ele>272.0</ele><time>2026-04-25T10:11:51.252Z</time></trkpt><trkpt lat="45.2854358" lon="7.6593224"><ele>273.0</ele><time>2026-04-25T10:11:52.251Z</time></trkpt><trkpt lat="45.285596" lon="7.6592292"><ele>274.0</ele><time>2026-04-25T10:11:53.25Z</time></trkpt><trkpt lat="45.2857471" lon="7.6591302"><ele>275.0</ele><time>2026-04-25T10:11:54.244Z</time></trkpt><trkpt lat="45.2858922" lon="7.6590389"><ele>275.0</ele><time>2026-04-25T10:11:55.251Z</time></trkpt><trkpt lat="45.2860309" lon="7.6589334"><ele>275.0</ele><time>2026-04-25T10:11:56.243Z</time></trkpt><trkpt lat="45.2861521" lon="7.6587784"><ele>275.0</ele><time>2026-04-25T10:11:57.247Z</time></trkpt><trkpt lat="45.2862637" lon="7.6585805"><ele>276.33333333333337</ele><time>2026-04-25T10:11:58.249Z</time></trkpt><trkpt lat="45.2863523" lon="7.6583562"><ele>277.6666666666667</ele><time>2026-04-25T10:11:59.249Z</time></trkpt><trkpt lat="45.2864549" lon="7.6581317"><ele>279.0</ele><time>2026-04-25T10:12:00.245Z</time></trkpt><trkpt lat="45.2865314" lon="7.6579146"><ele>279.3333333333333</ele><time>2026-04-25T10:12:01.235Z</time></trkpt><trkpt lat="45.286581" lon="7.6576887"><ele>279.66666666666663</ele><time>2026-04-25T10:12:02.237Z</time></trkpt><trkpt lat="45.2866019" lon="7.6574352"><ele>280.0</ele><time>2026-04-25T10:12:03.246Z</time></trkpt><trkpt lat="45.2866318" lon="7.657187"><ele>280.3333333333333</ele><time>2026-04-25T10:12:04.243Z</time></trkpt><trkpt lat="45.2866351" lon="7.656935"><ele>280.6666666666667</ele><time>2026-04-25T10:12:05.244Z</time></trkpt><trkpt lat="45.2866608" lon="7.6566957"><ele>281.0</ele><time>2026-04-25T10:12:06.245Z</time></trkpt><trkpt lat="45.2866712" lon="7.6564609"><ele>281.0</ele><time>2026-04-25T10:12:07.243Z</time></trkpt><trkpt lat="45.2866968" lon="7.656241"><ele>281.0</ele><time>2026-04-25T10:12:08.244Z</time></trkpt><trkpt lat="45.2867233" lon="7.6560499"><ele>281.0</ele><time>2026-04-25T10:12:09.239Z</time></trkpt><trkpt lat="45.2867382" lon="7.6558619"><ele>281.0</ele><time>2026-04-25T10:12:10.25Z</time></trkpt><trkpt lat="45.2867776" lon="7.6556824"><ele>280.75</ele><time>2026-04-25T10:12:11.238Z</time></trkpt><trkpt lat="45.2868281" lon="7.6555347"><ele>280.5</ele><time>2026-04-25T10:12:12.236Z</time></trkpt><trkpt lat="45.2868866" lon="7.6554147"><ele>280.25</ele><time>2026-04-25T10:12:13.23Z</time></trkpt><trkpt lat="45.2870048" lon="7.6553634"><ele>280.0</ele><time>2026-04-25T10:12:14.239Z</time></trkpt><trkpt lat="45.2871601" lon="7.6553296"><ele>279.66666666666663</ele><time>2026-04-25T10:12:15.239Z</time></trkpt><trkpt lat="45.2873369" lon="7.6553202"><ele>279.3333333333333</ele><time>2026-04-25T10:12:16.236Z</time></trkpt><trkpt lat="45.287504" lon="7.6553656"><ele>279.0</ele><time>2026-04-25T10:12:17.241Z</time></trkpt><trkpt lat="45.287666" lon="7.6554134"><ele>279.0</ele><time>2026-04-25T10:12:18.247Z</time></trkpt><trkpt lat="45.2878208" lon="7.6554303"><ele>279.0</ele><time>2026-04-25T10:12:19.249Z</time></trkpt><trkpt lat="45.2879841" lon="7.6554797"><ele>279.0</ele><time>2026-04-25T10:12:20.243Z</time></trkpt><trkpt lat="45.2881541" lon="7.655524"><ele>280.0</ele><time>2026-04-25T10:12:21.247Z</time></trkpt><trkpt lat="45.2883178" lon="7.6555413"><ele>281.0</ele><time>2026-04-25T10:12:22.239Z</time></trkpt><trkpt lat="45.2884682" lon="7.6555633"><ele>282.0</ele><time>2026-04-25T10:12:23.239Z</time></trkpt><trkpt lat="45.2886224" lon="7.6555837"><ele>282.0</ele><time>2026-04-25T10:12:24.241Z</time></trkpt><trkpt lat="45.2887794" lon="7.6556076"><ele>282.0</ele><time>2026-04-25T10:12:25.245Z</time></trkpt><trkpt lat="45.2889263" lon="7.6556576"><ele>282.0</ele><time>2026-04-25T10:12:26.239Z</time></trkpt><trkpt lat="45.2890553" lon="7.6556707"><ele>282.0</ele><time>2026-04-25T10:12:27.241Z</time></trkpt><trkpt lat="45.2892053" lon="7.6556771"><ele>282.0</ele><time>2026-04-25T10:12:28.248Z</time></trkpt><trkpt lat="45.2893374" lon="7.655698"><ele>282.0</ele><time>2026-04-25T10:12:29.254Z</time></trkpt><trkpt lat="45.2894896" lon="7.6557236"><ele>282.0</ele><time>2026-04-25T10:12:30.249Z</time></trkpt><trkpt lat="45.2896287" lon="7.6557435"><ele>282.0</ele><time>2026-04-25T10:12:31.25Z</time></trkpt><trkpt lat="45.289766" lon="7.6557923"><ele>282.0</ele><time>2026-04-25T10:12:32.253Z</time></trkpt><trkpt lat="45.2898989" lon="7.6558188"><ele>282.0</ele><time>2026-04-25T10:12:33.252Z</time></trkpt><trkpt lat="45.2900321" lon="7.6558403"><ele>282.0</ele><time>2026-04-25T10:12:34.253Z</time></trkpt><trkpt lat="45.2901696" lon="7.6558759"><ele>282.0</ele><time>2026-04-25T10:12:35.252Z</time></trkpt><trkpt lat="45.2902921" lon="7.6558881"><ele>282.0</ele><time>2026-04-25T10:12:36.252Z</time></trkpt><trkpt lat="45.2904141" lon="7.6558676"><ele>282.0</ele><time>2026-04-25T10:12:37.239Z</time></trkpt><trkpt lat="45.2905294" lon="7.6557477"><ele>282.0</ele><time>2026-04-25T10:12:38.259Z</time></trkpt><trkpt lat="45.2906171" lon="7.655594"><ele>282.0</ele><time>2026-04-25T10:12:39.258Z</time></trkpt><trkpt lat="45.2906675" lon="7.6554101"><ele>283.5</ele><time>2026-04-25T10:12:40.261Z</time></trkpt><trkpt lat="45.2906787" lon="7.6552061"><ele>285.0</ele><time>2026-04-25T10:12:41.25Z</time></trkpt><trkpt lat="45.2906942" lon="7.655002"><ele>286.5</ele><time>2026-04-25T10:12:42.258Z</time></trkpt><trkpt lat="45.2906966" lon="7.6548113"><ele>288.0</ele><time>2026-04-25T10:12:43.255Z</time></trkpt><trkpt lat="45.2906962" lon="7.6546016"><ele>287.3333333333333</ele><time>2026-04-25T10:12:44.262Z</time></trkpt><trkpt lat="45.2906822" lon="7.6543795"><ele>286.66666666666663</ele><time>2026-04-25T10:12:45.257Z</time></trkpt><trkpt lat="45.2906941" lon="7.6541549"><ele>286.0</ele><time>2026-04-25T10:12:46.258Z</time></trkpt><trkpt lat="45.2907028" lon="7.6539284"><ele>286.0</ele><time>2026-04-25T10:12:47.259Z</time></trkpt><trkpt lat="45.2907305" lon="7.6537138"><ele>286.0</ele><time>2026-04-25T10:12:48.256Z</time></trkpt><trkpt lat="45.2907346" lon="7.6534754"><ele>286.0</ele><time>2026-04-25T10:12:49.263Z</time></trkpt><trkpt lat="45.2907398" lon="7.6532388"><ele>287.0</ele><time>2026-04-25T10:12:50.256Z</time></trkpt><trkpt lat="45.290722" lon="7.6529767"><ele>288.0</ele><time>2026-04-25T10:12:51.246Z</time></trkpt><trkpt lat="45.2907345" lon="7.6527263"><ele>289.0</ele><time>2026-04-25T10:12:52.25Z</time></trkpt><trkpt lat="45.2907379" lon="7.6524505"><ele>291.3333333333333</ele><time>2026-04-25T10:12:53.244Z</time></trkpt><trkpt lat="45.2907503" lon="7.6521694"><ele>293.6666666666667</ele><time>2026-04-25T10:12:54.248Z</time></trkpt><trkpt lat="45.2907775" lon="7.6518921"><ele>296.0</ele><time>2026-04-25T10:12:55.244Z</time></trkpt><trkpt lat="45.2907812" lon="7.6516168"><ele>297.33333333333337</ele><time>2026-04-25T10:12:56.247Z</time></trkpt><trkpt lat="45.2907813" lon="7.6513711"><ele>298.6666666666667</ele><time>2026-04-25T10:12:57.242Z</time></trkpt><trkpt lat="45.2907734" lon="7.6511331"><ele>300.0</ele><time>2026-04-25T10:12:58.239Z</time></trkpt><trkpt lat="45.2907665" lon="7.6508695"><ele>301.6666666666667</ele><time>2026-04-25T10:12:59.239Z</time></trkpt><trkpt lat="45.2907577" lon="7.6505917"><ele>303.33333333333337</ele><time>2026-04-25T10:13:00.245Z</time></trkpt><trkpt lat="45.2907581" lon="7.6503426"><ele>305.0</ele><time>2026-04-25T10:13:01.246Z</time></trkpt><trkpt lat="45.2907611" lon="7.6500896"><ele>305.6666666666667</ele><time>2026-04-25T10:13:02.231Z</time></trkpt><trkpt lat="45.290754" lon="7.6498327"><ele>306.3333333333333</ele><time>2026-04-25T10:13:03.244Z</time></trkpt><trkpt lat="45.2907362" lon="7.6495676"><ele>307.0</ele><time>2026-04-25T10:13:04.244Z</time></trkpt><trkpt lat="45.2907244" lon="7.649308"><ele>308.3333333333333</ele><time>2026-04-25T10:13:05.24Z</time></trkpt><trkpt lat="45.2907348" lon="7.6490548"><ele>309.6666666666667</ele><time>2026-04-25T10:13:06.237Z</time></trkpt><trkpt lat="45.2907495" lon="7.6488226"><ele>311.0</ele><time>2026-04-25T10:13:07.238Z</time></trkpt><trkpt lat="45.290758" lon="7.6485852"><ele>311.6666666666667</ele><time>2026-04-25T10:13:08.238Z</time></trkpt><trkpt lat="45.2907696" lon="7.6483504"><ele>312.3333333333333</ele><time>2026-04-25T10:13:09.252Z</time></trkpt><trkpt lat="45.2908078" lon="7.6481337"><ele>313.0</ele><time>2026-04-25T10:13:10.235Z</time></trkpt><trkpt lat="45.2909006" lon="7.6479042"><ele>313.66666666666663</ele><time>2026-04-25T10:13:11.241Z</time></trkpt><trkpt lat="45.2909888" lon="7.6476653"><ele>314.3333333333333</ele><time>2026-04-25T10:13:12.239Z</time></trkpt><trkpt lat="45.2910703" lon="7.6474399"><ele>315.0</ele><time>2026-04-25T10:13:13.24Z</time></trkpt><trkpt lat="45.2911313" lon="7.6472229"><ele>315.0</ele><time>2026-04-25T10:13:14.245Z</time></trkpt><trkpt lat="45.2911968" lon="7.6470323"><ele>315.0</ele><time>2026-04-25T10:13:15.247Z</time></trkpt><trkpt lat="45.2912715" lon="7.6468471"><ele>315.0</ele><time>2026-04-25T10:13:16.255Z</time></trkpt><trkpt lat="45.2913487" lon="7.6466467"><ele>318.0</ele><time>2026-04-25T10:13:17.256Z</time></trkpt><trkpt lat="45.2914307" lon="7.6464392"><ele>321.0</ele><time>2026-04-25T10:13:18.254Z</time></trkpt><trkpt lat="45.2915042" lon="7.6462217"><ele>324.0</ele><time>2026-04-25T10:13:19.264Z</time></trkpt><trkpt lat="45.2915876" lon="7.6460138"><ele>325.0</ele><time>2026-04-25T10:13:20.264Z</time></trkpt><trkpt lat="45.2916657" lon="7.6458083"><ele>326.0</ele><time>2026-04-25T10:13:21.259Z</time></trkpt><trkpt lat="45.2917369" lon="7.6456112"><ele>327.0</ele><time>2026-04-25T10:13:22.268Z</time></trkpt><trkpt lat="45.2918126" lon="7.6454293"><ele>327.5</ele><time>2026-04-25T10:13:23.26Z</time></trkpt><trkpt lat="45.2918805" lon="7.6452606"><ele>328.0</ele><time>2026-04-25T10:13:24.263Z</time></trkpt><trkpt lat="45.2919259" lon="7.6450797"><ele>328.5</ele><time>2026-04-25T10:13:25.266Z</time></trkpt><trkpt lat="45.2919678" lon="7.6448923"><ele>329.0</ele><time>2026-04-25T10:13:26.261Z</time></trkpt><trkpt lat="45.2919958" lon="7.6446778"><ele>329.0</ele><time>2026-04-25T10:13:27.263Z</time></trkpt><trkpt lat="45.2920369" lon="7.6444505"><ele>329.0</ele><time>2026-04-25T10:13:28.268Z</time></trkpt><trkpt lat="45.2920778" lon="7.6442335"><ele>329.0</ele><time>2026-04-25T10:13:29.265Z</time></trkpt><trkpt lat="45.2921169" lon="7.6440301"><ele>329.0</ele><time>2026-04-25T10:13:30.259Z</time></trkpt><trkpt lat="45.2921599" lon="7.6438207"><ele>329.0</ele><time>2026-04-25T10:13:31.264Z</time></trkpt><trkpt lat="45.2922003" lon="7.6436112"><ele>329.0</ele><time>2026-04-25T10:13:32.259Z</time></trkpt><trkpt lat="45.292232" lon="7.6433992"><ele>330.0</ele><time>2026-04-25T10:13:33.263Z</time></trkpt><trkpt lat="45.2922472" lon="7.6431907"><ele>331.0</ele><time>2026-04-25T10:13:34.258Z</time></trkpt><trkpt lat="45.2922482" lon="7.6429883"><ele>332.0</ele><time>2026-04-25T10:13:35.256Z</time></trkpt><trkpt lat="45.2922471" lon="7.6427498"><ele>332.25</ele><time>2026-04-25T10:13:36.264Z</time></trkpt><trkpt lat="45.292247" lon="7.6425395"><ele>332.5</ele><time>2026-04-25T10:13:37.267Z</time></trkpt><trkpt lat="45.2922295" lon="7.6423281"><ele>332.75</ele><time>2026-04-25T10:13:38.266Z</time></trkpt><trkpt lat="45.2922301" lon="7.6421159"><ele>333.0</ele><time>2026-04-25T10:13:39.263Z</time></trkpt><trkpt lat="45.2922251" lon="7.6418974"><ele>333.75</ele><time>2026-04-25T10:13:40.261Z</time></trkpt><trkpt lat="45.2922322" lon="7.6416822"><ele>334.5</ele><time>2026-04-25T10:13:41.254Z</time></trkpt><trkpt lat="45.2922283" lon="7.6414687"><ele>335.25</ele><time>2026-04-25T10:13:42.256Z</time></trkpt><trkpt lat="45.2922207" lon="7.6412601"><ele>336.0</ele><time>2026-04-25T10:13:43.262Z</time></trkpt><trkpt lat="45.2922103" lon="7.6410553"><ele>337.0</ele><time>2026-04-25T10:13:44.256Z</time></trkpt><trkpt lat="45.2921916" lon="7.6408368"><ele>338.0</ele><time>2026-04-25T10:13:45.249Z</time></trkpt><trkpt lat="45.2921949" lon="7.640621"><ele>339.0</ele><time>2026-04-25T10:13:46.26Z</time></trkpt><trkpt lat="45.2921771" lon="7.640387"><ele>339.3333333333333</ele><time>2026-04-25T10:13:47.258Z</time></trkpt><trkpt lat="45.2921723" lon="7.6401745"><ele>339.66666666666663</ele><time>2026-04-25T10:13:48.252Z</time></trkpt><trkpt lat="45.2921526" lon="7.639947"><ele>340.0</ele><time>2026-04-25T10:13:49.259Z</time></trkpt><trkpt lat="45.2921378" lon="7.6397228"><ele>340.0</ele><time>2026-04-25T10:13:50.254Z</time></trkpt><trkpt lat="45.2921271" lon="7.6394889"><ele>340.0</ele><time>2026-04-25T10:13:51.249Z</time></trkpt><trkpt lat="45.2921412" lon="7.6392601"><ele>340.0</ele><time>2026-04-25T10:13:52.252Z</time></trkpt><trkpt lat="45.2921259" lon="7.6390286"><ele>340.0</ele><time>2026-04-25T10:13:53.253Z</time></trkpt><trkpt lat="45.2921223" lon="7.638825"><ele>340.0</ele><time>2026-04-25T10:13:54.257Z</time></trkpt><trkpt lat="45.2921157" lon="7.6386034"><ele>340.0</ele><time>2026-04-25T10:13:55.251Z</time></trkpt><trkpt lat="45.2921011" lon="7.6383907"><ele>340.25</ele><time>2026-04-25T10:13:56.259Z</time></trkpt><trkpt lat="45.2920557" lon="7.6381745"><ele>340.5</ele><time>2026-04-25T10:13:57.254Z</time></trkpt><trkpt lat="45.2920491" lon="7.6379685"><ele>340.75</ele><time>2026-04-25T10:13:58.255Z</time></trkpt><trkpt lat="45.2920294" lon="7.6377674"><ele>341.0</ele><time>2026-04-25T10:13:59.267Z</time></trkpt><trkpt lat="45.2919991" lon="7.6375836"><ele>341.75</ele><time>2026-04-25T10:14:00.253Z</time></trkpt><trkpt lat="45.2919521" lon="7.6373898"><ele>342.5</ele><time>2026-04-25T10:14:01.252Z</time></trkpt><trkpt lat="45.2919228" lon="7.637203"><ele>343.25</ele><time>2026-04-25T10:14:02.252Z</time></trkpt><trkpt lat="45.2919011" lon="7.6370296"><ele>344.0</ele><time>2026-04-25T10:14:03.247Z</time></trkpt><trkpt lat="45.2918782" lon="7.6368748"><ele>344.0</ele><time>2026-04-25T10:14:04.255Z</time></trkpt><trkpt lat="45.2918661" lon="7.6367666"><ele>344.0</ele><time>2026-04-25T10:14:05.245Z</time></trkpt><trkpt lat="45.2918783" lon="7.6365945"><ele>344.0</ele><time>2026-04-25T10:14:07.245Z</time></trkpt><trkpt lat="45.2919324" lon="7.6364342"><ele>344.0</ele><time>2026-04-25T10:14:09.237Z</time></trkpt><trkpt lat="45.2919382" lon="7.6363155"><ele>344.0</ele><time>2026-04-25T10:14:10.242Z</time></trkpt><trkpt lat="45.2919409" lon="7.636171"><ele>344.0</ele><time>2026-04-25T10:14:11.248Z</time></trkpt><trkpt lat="45.2919389" lon="7.6360321"><ele>344.0</ele><time>2026-04-25T10:14:12.255Z</time></trkpt><trkpt lat="45.2919607" lon="7.6358805"><ele>344.0</ele><time>2026-04-25T10:14:13.246Z</time></trkpt><trkpt lat="45.2919984" lon="7.6357162"><ele>344.0</ele><time>2026-04-25T10:14:14.253Z</time></trkpt><trkpt lat="45.2920493" lon="7.6355441"><ele>344.0</ele><time>2026-04-25T10:14:15.251Z</time></trkpt><trkpt lat="45.2921152" lon="7.6353838"><ele>344.0</ele><time>2026-04-25T10:14:16.264Z</time></trkpt><trkpt lat="45.2921944" lon="7.6352098"><ele>344.0</ele><time>2026-04-25T10:14:17.258Z</time></trkpt><trkpt lat="45.2922909" lon="7.6350282"><ele>344.0</ele><time>2026-04-25T10:14:18.263Z</time></trkpt><trkpt lat="45.2923896" lon="7.6348543"><ele>345.0</ele><time>2026-04-25T10:14:19.265Z</time></trkpt><trkpt lat="45.2924738" lon="7.6346714"><ele>346.0</ele><time>2026-04-25T10:14:20.262Z</time></trkpt><trkpt lat="45.2925524" lon="7.634503"><ele>347.0</ele><time>2026-04-25T10:14:21.261Z</time></trkpt><trkpt lat="45.2926076" lon="7.6342954"><ele>347.6666666666667</ele><time>2026-04-25T10:14:22.258Z</time></trkpt><trkpt lat="45.2926409" lon="7.6340681"><ele>348.3333333333333</ele><time>2026-04-25T10:14:23.26Z</time></trkpt><trkpt lat="45.2926988" lon="7.6338333"><ele>349.0</ele><time>2026-04-25T10:14:24.25Z</time></trkpt><trkpt lat="45.2927286" lon="7.6335909"><ele>349.3333333333333</ele><time>2026-04-25T10:14:25.259Z</time></trkpt><trkpt lat="45.292752" lon="7.6333763"><ele>349.6666666666667</ele><time>2026-04-25T10:14:26.263Z</time></trkpt><trkpt lat="45.2927817" lon="7.6331457"><ele>350.0</ele><time>2026-04-25T10:14:27.255Z</time></trkpt><trkpt lat="45.2928058" lon="7.632888"><ele>350.33333333333337</ele><time>2026-04-25T10:14:28.255Z</time></trkpt><trkpt lat="45.2928307" lon="7.6326227"><ele>350.6666666666667</ele><time>2026-04-25T10:14:29.255Z</time></trkpt><trkpt lat="45.2928348" lon="7.6323575"><ele>351.0</ele><time>2026-04-25T10:14:30.255Z</time></trkpt><trkpt lat="45.2928549" lon="7.6321145"><ele>350.6666666666667</ele><time>2026-04-25T10:14:31.244Z</time></trkpt><trkpt lat="45.2928808" lon="7.631881"><ele>350.33333333333337</ele><time>2026-04-25T10:14:32.247Z</time></trkpt><trkpt lat="45.2929172" lon="7.6316429"><ele>350.0</ele><time>2026-04-25T10:14:33.256Z</time></trkpt><trkpt lat="45.2929382" lon="7.6314181"><ele>350.0</ele><time>2026-04-25T10:14:34.248Z</time></trkpt><trkpt lat="45.2929483" lon="7.6312048"><ele>350.0</ele><time>2026-04-25T10:14:35.247Z</time></trkpt><trkpt lat="45.2929586" lon="7.6310066"><ele>350.0</ele><time>2026-04-25T10:14:36.243Z</time></trkpt><trkpt lat="45.2929719" lon="7.6308364"><ele>350.0</ele><time>2026-04-25T10:14:37.246Z</time></trkpt><trkpt lat="45.2930062" lon="7.6306935"><ele>350.0</ele><time>2026-04-25T10:14:38.25Z</time></trkpt><trkpt lat="45.2930187" lon="7.6305622"><ele>350.0</ele><time>2026-04-25T10:14:39.237Z</time></trkpt><trkpt lat="45.2930638" lon="7.6304518"><ele>350.0</ele><time>2026-04-25T10:14:40.237Z</time></trkpt><trkpt lat="45.2930923" lon="7.6303444"><ele>350.0</ele><time>2026-04-25T10:14:41.229Z</time></trkpt><trkpt lat="45.2931272" lon="7.6302549"><ele>350.0</ele><time>2026-04-25T10:14:42.233Z</time></trkpt><trkpt lat="45.2932135" lon="7.6301434"><ele>349.5</ele><time>2026-04-25T10:14:44.238Z</time></trkpt><trkpt lat="45.2933103" lon="7.6301212"><ele>349.0</ele><time>2026-04-25T10:14:45.237Z</time></trkpt><trkpt lat="45.2934498" lon="7.6301374"><ele>348.5</ele><time>2026-04-25T10:14:46.237Z</time></trkpt><trkpt lat="45.2936255" lon="7.630174"><ele>348.0</ele><time>2026-04-25T10:14:47.229Z</time></trkpt><trkpt lat="45.2937943" lon="7.6302376"><ele>349.0</ele><time>2026-04-25T10:14:48.237Z</time></trkpt><trkpt lat="45.2939486" lon="7.6302867"><ele>350.0</ele><time>2026-04-25T10:14:49.246Z</time></trkpt><trkpt lat="45.2941051" lon="7.6303051"><ele>351.0</ele><time>2026-04-25T10:14:50.241Z</time></trkpt><trkpt lat="45.2942569" lon="7.630303"><ele>351.0</ele><time>2026-04-25T10:14:51.237Z</time></trkpt><trkpt lat="45.2943829" lon="7.6302802"><ele>351.0</ele><time>2026-04-25T10:14:52.241Z</time></trkpt><trkpt lat="45.2945157" lon="7.6302614"><ele>351.0</ele><time>2026-04-25T10:14:53.246Z</time></trkpt><trkpt lat="45.2946623" lon="7.6302469"><ele>351.0</ele><time>2026-04-25T10:14:54.237Z</time></trkpt><trkpt lat="45.2948117" lon="7.6302559"><ele>350.25</ele><time>2026-04-25T10:14:55.244Z</time></trkpt><trkpt lat="45.2949476" lon="7.6302159"><ele>349.5</ele><time>2026-04-25T10:14:56.237Z</time></trkpt><trkpt lat="45.2950787" lon="7.6301265"><ele>348.75</ele><time>2026-04-25T10:14:57.237Z</time></trkpt><trkpt lat="45.2951867" lon="7.6300149"><ele>348.0</ele><time>2026-04-25T10:14:58.24Z</time></trkpt><trkpt lat="45.2952738" lon="7.6299004"><ele>348.0</ele><time>2026-04-25T10:14:59.239Z</time></trkpt><trkpt lat="45.2953498" lon="7.6297693"><ele>348.0</ele><time>2026-04-25T10:15:00.235Z</time></trkpt><trkpt lat="45.2954259" lon="7.6296352"><ele>348.0</ele><time>2026-04-25T10:15:01.237Z</time></trkpt><trkpt lat="45.295476" lon="7.6294596"><ele>348.0</ele><time>2026-04-25T10:15:02.243Z</time></trkpt><trkpt lat="45.2954705" lon="7.629251"><ele>348.3333333333333</ele><time>2026-04-25T10:15:03.227Z</time></trkpt><trkpt lat="45.2954026" lon="7.6290136"><ele>348.66666666666663</ele><time>2026-04-25T10:15:04.235Z</time></trkpt><trkpt lat="45.2953395" lon="7.6287723"><ele>349.0</ele><time>2026-04-25T10:15:05.233Z</time></trkpt><trkpt lat="45.2953218" lon="7.6285422"><ele>349.0</ele><time>2026-04-25T10:15:06.239Z</time></trkpt><trkpt lat="45.2953041" lon="7.6282987"><ele>349.0</ele><time>2026-04-25T10:15:07.232Z</time></trkpt><trkpt lat="45.2953216" lon="7.6280756"><ele>349.0</ele><time>2026-04-25T10:15:08.236Z</time></trkpt><trkpt lat="45.2953566" lon="7.62786"><ele>347.3333333333333</ele><time>2026-04-25T10:15:09.244Z</time></trkpt><trkpt lat="45.2953979" lon="7.6276344"><ele>345.6666666666667</ele><time>2026-04-25T10:15:10.247Z</time></trkpt><trkpt lat="45.2954429" lon="7.6273977"><ele>344.0</ele><time>2026-04-25T10:15:11.247Z</time></trkpt><trkpt lat="45.2954809" lon="7.6271767"><ele>346.0</ele><time>2026-04-25T10:15:12.247Z</time></trkpt><trkpt lat="45.2955325" lon="7.6269532"><ele>348.0</ele><time>2026-04-25T10:15:13.243Z</time></trkpt><trkpt lat="45.295602" lon="7.626731"><ele>350.0</ele><time>2026-04-25T10:15:14.249Z</time></trkpt><trkpt lat="45.2956881" lon="7.6265155"><ele>343.33333333333337</ele><time>2026-04-25T10:15:15.241Z</time></trkpt><trkpt lat="45.2958057" lon="7.6263173"><ele>336.6666666666667</ele><time>2026-04-25T10:15:16.247Z</time></trkpt><trkpt lat="45.2958965" lon="7.6261237"><ele>330.0</ele><time>2026-04-25T10:15:17.245Z</time></trkpt><trkpt lat="45.2959903" lon="7.6259373"><ele>330.0</ele><time>2026-04-25T10:15:18.254Z</time></trkpt><trkpt lat="45.2960831" lon="7.625739"><ele>330.0</ele><time>2026-04-25T10:15:19.257Z</time></trkpt><trkpt lat="45.2961846" lon="7.6255361"><ele>330.0</ele><time>2026-04-25T10:15:20.254Z</time></trkpt><trkpt lat="45.2962832" lon="7.6253337"><ele>330.3333333333333</ele><time>2026-04-25T10:15:21.25Z</time></trkpt><trkpt lat="45.2963689" lon="7.6251337"><ele>330.66666666666663</ele><time>2026-04-25T10:15:22.252Z</time></trkpt><trkpt lat="45.2964604" lon="7.6249374"><ele>331.0</ele><time>2026-04-25T10:15:23.245Z</time></trkpt><trkpt lat="45.2965494" lon="7.6247453"><ele>330.0</ele><time>2026-04-25T10:15:24.251Z</time></trkpt><trkpt lat="45.2966469" lon="7.6245404"><ele>329.0</ele><time>2026-04-25T10:15:25.244Z</time></trkpt><trkpt lat="45.2967536" lon="7.6243328"><ele>328.0</ele><time>2026-04-25T10:15:26.256Z</time></trkpt><trkpt lat="45.2968534" lon="7.6241328"><ele>328.0</ele><time>2026-04-25T10:15:27.254Z</time></trkpt><trkpt lat="45.2969469" lon="7.6239298"><ele>328.0</ele><time>2026-04-25T10:15:28.258Z</time></trkpt><trkpt lat="45.2970392" lon="7.623729"><ele>328.0</ele><time>2026-04-25T10:15:29.255Z</time></trkpt><trkpt lat="45.2971268" lon="7.6235358"><ele>328.66666666666663</ele><time>2026-04-25T10:15:30.261Z</time></trkpt><trkpt lat="45.2972123" lon="7.6233307"><ele>329.3333333333333</ele><time>2026-04-25T10:15:31.252Z</time></trkpt><trkpt lat="45.2972926" lon="7.6231194"><ele>330.0</ele><time>2026-04-25T10:15:32.255Z</time></trkpt><trkpt lat="45.297376" lon="7.6228941"><ele>330.6666666666667</ele><time>2026-04-25T10:15:33.255Z</time></trkpt><trkpt lat="45.2974439" lon="7.6226738"><ele>331.33333333333337</ele><time>2026-04-25T10:15:34.255Z</time></trkpt><trkpt lat="45.297521" lon="7.6224619"><ele>332.0</ele><time>2026-04-25T10:15:35.255Z</time></trkpt><trkpt lat="45.2975937" lon="7.6222407"><ele>332.0</ele><time>2026-04-25T10:15:36.256Z</time></trkpt><trkpt lat="45.2976707" lon="7.6220173"><ele>332.0</ele><time>2026-04-25T10:15:37.258Z</time></trkpt><trkpt lat="45.2977578" lon="7.6218007"><ele>332.0</ele><time>2026-04-25T10:15:38.259Z</time></trkpt><trkpt lat="45.2978163" lon="7.6215629"><ele>332.33333333333337</ele><time>2026-04-25T10:15:39.256Z</time></trkpt><trkpt lat="45.2978874" lon="7.6213664"><ele>332.6666666666667</ele><time>2026-04-25T10:15:40.257Z</time></trkpt><trkpt lat="45.2979481" lon="7.6211689"><ele>333.0</ele><time>2026-04-25T10:15:41.253Z</time></trkpt><trkpt lat="45.2979933" lon="7.6209722"><ele>333.3333333333333</ele><time>2026-04-25T10:15:42.259Z</time></trkpt><trkpt lat="45.2980261" lon="7.6207688"><ele>333.66666666666663</ele><time>2026-04-25T10:15:43.248Z</time></trkpt><trkpt lat="45.2980532" lon="7.620547"><ele>334.0</ele><time>2026-04-25T10:15:44.253Z</time></trkpt><trkpt lat="45.2980823" lon="7.6203335"><ele>334.0</ele><time>2026-04-25T10:15:45.25Z</time></trkpt><trkpt lat="45.2981063" lon="7.6200958"><ele>334.0</ele><time>2026-04-25T10:15:46.262Z</time></trkpt><trkpt lat="45.2981339" lon="7.6198594"><ele>334.0</ele><time>2026-04-25T10:15:47.253Z</time></trkpt><trkpt lat="45.2981781" lon="7.6196228"><ele>335.3333333333333</ele><time>2026-04-25T10:15:48.26Z</time></trkpt><trkpt lat="45.2982166" lon="7.6193767"><ele>336.6666666666667</ele><time>2026-04-25T10:15:49.252Z</time></trkpt><trkpt lat="45.2982607" lon="7.619157"><ele>338.0</ele><time>2026-04-25T10:15:50.256Z</time></trkpt><trkpt lat="45.2982861" lon="7.618952"><ele>338.0</ele><time>2026-04-25T10:15:51.242Z</time></trkpt><trkpt lat="45.298323" lon="7.6187538"><ele>338.0</ele><time>2026-04-25T10:15:52.255Z</time></trkpt><trkpt lat="45.2983435" lon="7.6185378"><ele>338.0</ele><time>2026-04-25T10:15:53.254Z</time></trkpt><trkpt lat="45.2983815" lon="7.6183232"><ele>338.5</ele><time>2026-04-25T10:15:54.256Z</time></trkpt><trkpt lat="45.2984203" lon="7.618107"><ele>339.0</ele><time>2026-04-25T10:15:55.235Z</time></trkpt><trkpt lat="45.2984515" lon="7.6179283"><ele>339.5</ele><time>2026-04-25T10:15:56.246Z</time></trkpt><trkpt lat="45.2984814" lon="7.6177855"><ele>340.0</ele><time>2026-04-25T10:15:57.244Z</time></trkpt><trkpt lat="45.2984977" lon="7.6176565"><ele>340.2</ele><time>2026-04-25T10:15:58.254Z</time></trkpt><trkpt lat="45.2985126" lon="7.6175259"><ele>340.4</ele><time>2026-04-25T10:15:59.264Z</time></trkpt><trkpt lat="45.2985425" lon="7.6174032"><ele>340.6</ele><time>2026-04-25T10:16:00.25Z</time></trkpt><trkpt lat="45.2985475" lon="7.6172508"><ele>340.8</ele><time>2026-04-25T10:16:01.256Z</time></trkpt><trkpt lat="45.2985527" lon="7.6170917"><ele>341.0</ele><time>2026-04-25T10:16:02.256Z</time></trkpt><trkpt lat="45.2985493" lon="7.6169046"><ele>341.25</ele><time>2026-04-25T10:16:03.254Z</time></trkpt><trkpt lat="45.2985498" lon="7.6167186"><ele>341.5</ele><time>2026-04-25T10:16:04.258Z</time></trkpt><trkpt lat="45.298547" lon="7.6165104"><ele>341.75</ele><time>2026-04-25T10:16:05.248Z</time></trkpt><trkpt lat="45.2985345" lon="7.6163058"><ele>342.0</ele><time>2026-04-25T10:16:06.259Z</time></trkpt><trkpt lat="45.2985189" lon="7.6160945"><ele>342.75</ele><time>2026-04-25T10:16:07.255Z</time></trkpt><trkpt lat="45.2985098" lon="7.6159083"><ele>343.5</ele><time>2026-04-25T10:16:08.255Z</time></trkpt><trkpt lat="45.2985059" lon="7.6157081"><ele>344.25</ele><time>2026-04-25T10:16:09.246Z</time></trkpt><trkpt lat="45.2984985" lon="7.6155392"><ele>345.0</ele><time>2026-04-25T10:16:10.259Z</time></trkpt><trkpt lat="45.298498" lon="7.6153661"><ele>345.2</ele><time>2026-04-25T10:16:11.252Z</time></trkpt><trkpt lat="45.2984931" lon="7.6152016"><ele>345.4</ele><time>2026-04-25T10:16:12.253Z</time></trkpt><trkpt lat="45.298488" lon="7.6150418"><ele>345.6</ele><time>2026-04-25T10:16:13.256Z</time></trkpt><trkpt lat="45.2984857" lon="7.6148886"><ele>345.8</ele><time>2026-04-25T10:16:14.253Z</time></trkpt><trkpt lat="45.2984856" lon="7.6147623"><ele>346.0</ele><time>2026-04-25T10:16:15.248Z</time></trkpt><trkpt lat="45.2984931" lon="7.6146646"><ele>346.0</ele><time>2026-04-25T10:16:16.243Z</time></trkpt><trkpt lat="45.298573" lon="7.6145687"><ele>346.0</ele><time>2026-04-25T10:16:18.253Z</time></trkpt><trkpt lat="45.2986595" lon="7.614584"><ele>346.0</ele><time>2026-04-25T10:16:19.26Z</time></trkpt><trkpt lat="45.2987812" lon="7.6146112"><ele>346.0</ele><time>2026-04-25T10:16:20.258Z</time></trkpt><trkpt lat="45.2989385" lon="7.6146564"><ele>345.0</ele><time>2026-04-25T10:16:21.253Z</time></trkpt><trkpt lat="45.2991093" lon="7.6147045"><ele>344.0</ele><time>2026-04-25T10:16:22.257Z</time></trkpt><trkpt lat="45.2993284" lon="7.6147534"><ele>343.0</ele><time>2026-04-25T10:16:23.243Z</time></trkpt><trkpt lat="45.2995617" lon="7.6147883"><ele>341.0</ele><time>2026-04-25T10:16:24.253Z</time></trkpt><trkpt lat="45.2997907" lon="7.6148339"><ele>339.0</ele><time>2026-04-25T10:16:25.254Z</time></trkpt><trkpt lat="45.3000205" lon="7.614885"><ele>339.0</ele><time>2026-04-25T10:16:26.255Z</time></trkpt><trkpt lat="45.3002502" lon="7.6149167"><ele>339.0</ele><time>2026-04-25T10:16:27.251Z</time></trkpt><trkpt lat="45.3004774" lon="7.6149464"><ele>339.3333333333333</ele><time>2026-04-25T10:16:28.258Z</time></trkpt><trkpt lat="45.3006959" lon="7.6149904"><ele>339.66666666666663</ele><time>2026-04-25T10:16:29.259Z</time></trkpt><trkpt lat="45.3009138" lon="7.6150349"><ele>340.0</ele><time>2026-04-25T10:16:30.253Z</time></trkpt><trkpt lat="45.3011313" lon="7.6150743"><ele>340.0</ele><time>2026-04-25T10:16:31.254Z</time></trkpt><trkpt lat="45.3013616" lon="7.6151041"><ele>340.0</ele><time>2026-04-25T10:16:32.255Z</time></trkpt><trkpt lat="45.3015882" lon="7.6151287"><ele>341.3333333333333</ele><time>2026-04-25T10:16:33.257Z</time></trkpt><trkpt lat="45.3018224" lon="7.6151301"><ele>342.6666666666667</ele><time>2026-04-25T10:16:34.248Z</time></trkpt><trkpt lat="45.3020323" lon="7.6151368"><ele>344.0</ele><time>2026-04-25T10:16:35.26Z</time></trkpt><trkpt lat="45.3022331" lon="7.6151215"><ele>344.0</ele><time>2026-04-25T10:16:36.253Z</time></trkpt><trkpt lat="45.3024516" lon="7.6151079"><ele>344.0</ele><time>2026-04-25T10:16:37.248Z</time></trkpt><trkpt lat="45.3026526" lon="7.6151236"><ele>344.0</ele><time>2026-04-25T10:16:38.257Z</time></trkpt><trkpt lat="45.3028764" lon="7.6151192"><ele>343.0</ele><time>2026-04-25T10:16:39.257Z</time></trkpt><trkpt lat="45.3030839" lon="7.6150994"><ele>342.0</ele><time>2026-04-25T10:16:40.265Z</time></trkpt><trkpt lat="45.303274" lon="7.615065"><ele>341.0</ele><time>2026-04-25T10:16:41.258Z</time></trkpt><trkpt lat="45.3034578" lon="7.6150211"><ele>341.0</ele><time>2026-04-25T10:16:42.262Z</time></trkpt><trkpt lat="45.3036588" lon="7.6150337"><ele>341.0</ele><time>2026-04-25T10:16:43.253Z</time></trkpt><trkpt lat="45.3038607" lon="7.6150688"><ele>341.0</ele><time>2026-04-25T10:16:44.248Z</time></trkpt><trkpt lat="45.3040769" lon="7.6151198"><ele>341.6666666666667</ele><time>2026-04-25T10:16:45.256Z</time></trkpt><trkpt lat="45.3042806" lon="7.6151887"><ele>342.3333333333333</ele><time>2026-04-25T10:16:46.261Z</time></trkpt><trkpt lat="45.3044872" lon="7.6152186"><ele>343.0</ele><time>2026-04-25T10:16:47.255Z</time></trkpt><trkpt lat="45.3046777" lon="7.6152601"><ele>343.0</ele><time>2026-04-25T10:16:48.254Z</time></trkpt><trkpt lat="45.3048674" lon="7.6152875"><ele>343.0</ele><time>2026-04-25T10:16:49.257Z</time></trkpt><trkpt lat="45.3050365" lon="7.6153599"><ele>343.0</ele><time>2026-04-25T10:16:50.247Z</time></trkpt><trkpt lat="45.3052115" lon="7.6154524"><ele>343.0</ele><time>2026-04-25T10:16:51.251Z</time></trkpt><trkpt lat="45.3053875" lon="7.6155674"><ele>343.0</ele><time>2026-04-25T10:16:52.26Z</time></trkpt><trkpt lat="45.3055541" lon="7.6156539"><ele>343.0</ele><time>2026-04-25T10:16:53.263Z</time></trkpt><trkpt lat="45.3057214" lon="7.6157275"><ele>343.0</ele><time>2026-04-25T10:16:54.253Z</time></trkpt><trkpt lat="45.3058905" lon="7.6157757"><ele>343.0</ele><time>2026-04-25T10:16:55.251Z</time></trkpt><trkpt lat="45.3060635" lon="7.6157602"><ele>343.0</ele><time>2026-04-25T10:16:56.251Z</time></trkpt><trkpt lat="45.3062393" lon="7.6157172"><ele>343.0</ele><time>2026-04-25T10:16:57.256Z</time></trkpt><trkpt lat="45.306395" lon="7.6156687"><ele>343.0</ele><time>2026-04-25T10:16:58.256Z</time></trkpt><trkpt lat="45.3065551" lon="7.6156246"><ele>343.0</ele><time>2026-04-25T10:16:59.269Z</time></trkpt><trkpt lat="45.306725" lon="7.6155771"><ele>342.0</ele><time>2026-04-25T10:17:00.256Z</time></trkpt><trkpt lat="45.3068796" lon="7.6155536"><ele>341.0</ele><time>2026-04-25T10:17:01.259Z</time></trkpt><trkpt lat="45.3070405" lon="7.6155003"><ele>340.0</ele><time>2026-04-25T10:17:02.256Z</time></trkpt><trkpt lat="45.3071921" lon="7.6154593"><ele>340.0</ele><time>2026-04-25T10:17:03.259Z</time></trkpt><trkpt lat="45.3073439" lon="7.6153995"><ele>340.0</ele><time>2026-04-25T10:17:04.252Z</time></trkpt><trkpt lat="45.3075105" lon="7.6152952"><ele>340.0</ele><time>2026-04-25T10:17:05.243Z</time></trkpt><trkpt lat="45.3076662" lon="7.6151552"><ele>341.3333333333333</ele><time>2026-04-25T10:17:06.248Z</time></trkpt><trkpt lat="45.3078039" lon="7.6149698"><ele>342.6666666666667</ele><time>2026-04-25T10:17:07.246Z</time></trkpt><trkpt lat="45.3079352" lon="7.6147725"><ele>344.0</ele><time>2026-04-25T10:17:08.25Z</time></trkpt><trkpt lat="45.3080971" lon="7.6145621"><ele>344.5</ele><time>2026-04-25T10:17:09.252Z</time></trkpt><trkpt lat="45.3082775" lon="7.6143538"><ele>345.0</ele><time>2026-04-25T10:17:10.258Z</time></trkpt><trkpt lat="45.3084435" lon="7.6141291"><ele>345.0</ele><time>2026-04-25T10:17:11.258Z</time></trkpt><trkpt lat="45.308604" lon="7.6139035"><ele>345.0</ele><time>2026-04-25T10:17:12.258Z</time></trkpt><trkpt lat="45.3087427" lon="7.6137358"><ele>345.0</ele><time>2026-04-25T10:17:13.253Z</time></trkpt><trkpt lat="45.3088783" lon="7.6135584"><ele>344.6666666666667</ele><time>2026-04-25T10:17:14.257Z</time></trkpt><trkpt lat="45.3090116" lon="7.6133615"><ele>344.33333333333337</ele><time>2026-04-25T10:17:15.254Z</time></trkpt><trkpt lat="45.3091422" lon="7.6131907"><ele>344.0</ele><time>2026-04-25T10:17:16.259Z</time></trkpt><trkpt lat="45.3092624" lon="7.6130354"><ele>344.0</ele><time>2026-04-25T10:17:17.267Z</time></trkpt><trkpt lat="45.3093877" lon="7.6128576"><ele>344.0</ele><time>2026-04-25T10:17:18.26Z</time></trkpt><trkpt lat="45.3095229" lon="7.6126973"><ele>344.0</ele><time>2026-04-25T10:17:19.268Z</time></trkpt><trkpt lat="45.3096544" lon="7.6125466"><ele>344.0</ele><time>2026-04-25T10:17:20.254Z</time></trkpt><trkpt lat="45.3097978" lon="7.612436"><ele>344.0</ele><time>2026-04-25T10:17:21.251Z</time></trkpt><trkpt lat="45.3099527" lon="7.6123305"><ele>344.0</ele><time>2026-04-25T10:17:22.258Z</time></trkpt><trkpt lat="45.3101049" lon="7.6122496"><ele>344.0</ele><time>2026-04-25T10:17:23.263Z</time></trkpt><trkpt lat="45.3102603" lon="7.6121688"><ele>344.0</ele><time>2026-04-25T10:17:24.25Z</time></trkpt><trkpt lat="45.3104127" lon="7.6120931"><ele>344.0</ele><time>2026-04-25T10:17:25.259Z</time></trkpt><trkpt lat="45.3105718" lon="7.6120597"><ele>343.6666666666667</ele><time>2026-04-25T10:17:26.258Z</time></trkpt><trkpt lat="45.3107397" lon="7.6120007"><ele>343.3333333333333</ele><time>2026-04-25T10:17:27.255Z</time></trkpt><trkpt lat="45.3109072" lon="7.6119796"><ele>343.0</ele><time>2026-04-25T10:17:28.265Z</time></trkpt><trkpt lat="45.3110705" lon="7.6119426"><ele>343.3333333333333</ele><time>2026-04-25T10:17:29.266Z</time></trkpt><trkpt lat="45.3112291" lon="7.6118927"><ele>343.6666666666667</ele><time>2026-04-25T10:17:30.257Z</time></trkpt><trkpt lat="45.3114016" lon="7.611831"><ele>344.0</ele><time>2026-04-25T10:17:31.265Z</time></trkpt><trkpt lat="45.3115638" lon="7.6117588"><ele>344.0</ele><time>2026-04-25T10:17:32.259Z</time></trkpt><trkpt lat="45.311728" lon="7.6116955"><ele>344.0</ele><time>2026-04-25T10:17:33.256Z</time></trkpt><trkpt lat="45.3118931" lon="7.6115969"><ele>344.0</ele><time>2026-04-25T10:17:34.25Z</time></trkpt><trkpt lat="45.3120578" lon="7.6114896"><ele>344.0</ele><time>2026-04-25T10:17:35.264Z</time></trkpt><trkpt lat="45.3121995" lon="7.6113685"><ele>344.0</ele><time>2026-04-25T10:17:36.253Z</time></trkpt><trkpt lat="45.3123247" lon="7.6112724"><ele>344.0</ele><time>2026-04-25T10:17:37.248Z</time></trkpt><trkpt lat="45.3124452" lon="7.6112075"><ele>344.0</ele><time>2026-04-25T10:17:38.25Z</time></trkpt><trkpt lat="45.3125826" lon="7.6111804"><ele>344.0</ele><time>2026-04-25T10:17:39.256Z</time></trkpt><trkpt lat="45.3127232" lon="7.6111794"><ele>344.0</ele><time>2026-04-25T10:17:40.261Z</time></trkpt><trkpt lat="45.3128708" lon="7.6111851"><ele>344.0</ele><time>2026-04-25T10:17:41.259Z</time></trkpt><trkpt lat="45.3129877" lon="7.6111789"><ele>344.0</ele><time>2026-04-25T10:17:42.255Z</time></trkpt><trkpt lat="45.3130933" lon="7.6111574"><ele>344.5</ele><time>2026-04-25T10:17:43.262Z</time></trkpt><trkpt lat="45.3131813" lon="7.6111033"><ele>345.0</ele><time>2026-04-25T10:17:44.253Z</time></trkpt><trkpt lat="45.3132784" lon="7.6110034"><ele>345.5</ele><time>2026-04-25T10:17:45.251Z</time></trkpt><trkpt lat="45.313356" lon="7.6108645"><ele>346.0</ele><time>2026-04-25T10:17:46.253Z</time></trkpt><trkpt lat="45.3134375" lon="7.6107191"><ele>346.0</ele><time>2026-04-25T10:17:47.262Z</time></trkpt><trkpt lat="45.3135149" lon="7.6105704"><ele>346.0</ele><time>2026-04-25T10:17:48.268Z</time></trkpt><trkpt lat="45.3135891" lon="7.6104367"><ele>346.0</ele><time>2026-04-25T10:17:49.268Z</time></trkpt><trkpt lat="45.3136726" lon="7.6103318"><ele>346.0</ele><time>2026-04-25T10:17:50.251Z</time></trkpt><trkpt lat="45.3137712" lon="7.6102451"><ele>346.0</ele><time>2026-04-25T10:17:51.253Z</time></trkpt><trkpt lat="45.313891" lon="7.6101775"><ele>346.0</ele><time>2026-04-25T10:17:52.257Z</time></trkpt><trkpt lat="45.3139988" lon="7.6101307"><ele>346.0</ele><time>2026-04-25T10:17:53.259Z</time></trkpt><trkpt lat="45.3140846" lon="7.610093"><ele>346.0</ele><time>2026-04-25T10:17:54.257Z</time></trkpt><trkpt lat="45.3141552" lon="7.6100758"><ele>346.0</ele><time>2026-04-25T10:17:55.252Z</time></trkpt><trkpt lat="45.3142482" lon="7.6100547"><ele>346.0</ele><time>2026-04-25T10:17:57.251Z</time></trkpt><trkpt lat="45.3143466" lon="7.6100285"><ele>346.0</ele><time>2026-04-25T10:17:59.253Z</time></trkpt><trkpt lat="45.3144376" lon="7.6100147"><ele>346.0</ele><time>2026-04-25T10:18:00.247Z</time></trkpt><trkpt lat="45.3145474" lon="7.6099996"><ele>346.0</ele><time>2026-04-25T10:18:01.259Z</time></trkpt><trkpt lat="45.3146675" lon="7.6099729"><ele>346.0</ele><time>2026-04-25T10:18:02.253Z</time></trkpt><trkpt lat="45.3147988" lon="7.6099351"><ele>345.75</ele><time>2026-04-25T10:18:03.255Z</time></trkpt><trkpt lat="45.3149382" lon="7.6098853"><ele>345.5</ele><time>2026-04-25T10:18:04.254Z</time></trkpt><trkpt lat="45.3150762" lon="7.6098331"><ele>345.25</ele><time>2026-04-25T10:18:05.259Z</time></trkpt><trkpt lat="45.3152094" lon="7.6097631"><ele>345.0</ele><time>2026-04-25T10:18:06.26Z</time></trkpt><trkpt lat="45.3153488" lon="7.6096861"><ele>345.0</ele><time>2026-04-25T10:18:07.254Z</time></trkpt><trkpt lat="45.3154766" lon="7.609625"><ele>345.0</ele><time>2026-04-25T10:18:08.254Z</time></trkpt><trkpt lat="45.3156055" lon="7.6095667"><ele>345.0</ele><time>2026-04-25T10:18:09.26Z</time></trkpt><trkpt lat="45.3157327" lon="7.6094937"><ele>345.0</ele><time>2026-04-25T10:18:10.252Z</time></trkpt><trkpt lat="45.3158544" lon="7.6094303"><ele>345.5</ele><time>2026-04-25T10:18:11.262Z</time></trkpt><trkpt lat="45.3159667" lon="7.6093976"><ele>346.0</ele><time>2026-04-25T10:18:12.254Z</time></trkpt><trkpt lat="45.3160768" lon="7.6093332"><ele>346.5</ele><time>2026-04-25T10:18:13.254Z</time></trkpt><trkpt lat="45.3162058" lon="7.6092759"><ele>347.0</ele><time>2026-04-25T10:18:14.249Z</time></trkpt><trkpt lat="45.3163373" lon="7.6092119"><ele>347.5</ele><time>2026-04-25T10:18:15.254Z</time></trkpt><trkpt lat="45.316476" lon="7.609155"><ele>348.0</ele><time>2026-04-25T10:18:16.257Z</time></trkpt><trkpt lat="45.3166251" lon="7.6090862"><ele>348.5</ele><time>2026-04-25T10:18:17.256Z</time></trkpt><trkpt lat="45.316757" lon="7.6090138"><ele>349.0</ele><time>2026-04-25T10:18:18.25Z</time></trkpt><trkpt lat="45.3168719" lon="7.6089591"><ele>349.0</ele><time>2026-04-25T10:18:19.255Z</time></trkpt><trkpt lat="45.3169731" lon="7.6089266"><ele>349.0</ele><time>2026-04-25T10:18:20.247Z</time></trkpt><trkpt lat="45.3170622" lon="7.6088811"><ele>349.0</ele><time>2026-04-25T10:18:21.252Z</time></trkpt><trkpt lat="45.3171531" lon="7.6088256"><ele>349.0</ele><time>2026-04-25T10:18:22.255Z</time></trkpt><trkpt lat="45.3172325" lon="7.608755"><ele>349.0</ele><time>2026-04-25T10:18:23.246Z</time></trkpt><trkpt lat="45.3173126" lon="7.6086822"><ele>349.3333333333333</ele><time>2026-04-25T10:18:24.239Z</time></trkpt><trkpt lat="45.3173887" lon="7.6085709"><ele>349.66666666666663</ele><time>2026-04-25T10:18:25.246Z</time></trkpt><trkpt lat="45.3174327" lon="7.6084746"><ele>350.0</ele><time>2026-04-25T10:18:26.237Z</time></trkpt><trkpt lat="45.3174738" lon="7.6083839"><ele>350.3333333333333</ele><time>2026-04-25T10:18:27.239Z</time></trkpt><trkpt lat="45.3175154" lon="7.6082997"><ele>350.6666666666667</ele><time>2026-04-25T10:18:28.242Z</time></trkpt><trkpt lat="45.317563" lon="7.6082078"><ele>351.0</ele><time>2026-04-25T10:18:29.245Z</time></trkpt><trkpt lat="45.3176111" lon="7.6081135"><ele>351.0</ele><time>2026-04-25T10:18:30.235Z</time></trkpt><trkpt lat="45.3176651" lon="7.6080279"><ele>351.0</ele><time>2026-04-25T10:18:31.233Z</time></trkpt><trkpt lat="45.3177303" lon="7.6079466"><ele>351.0</ele><time>2026-04-25T10:18:32.232Z</time></trkpt><trkpt lat="45.3177994" lon="7.6078687"><ele>351.0</ele><time>2026-04-25T10:18:33.235Z</time></trkpt><trkpt lat="45.3178731" lon="7.6077808"><ele>351.0</ele><time>2026-04-25T10:18:34.238Z</time></trkpt><trkpt lat="45.3179513" lon="7.6076904"><ele>351.4</ele><time>2026-04-25T10:18:35.243Z</time></trkpt><trkpt lat="45.3180287" lon="7.6075965"><ele>351.8</ele><time>2026-04-25T10:18:36.243Z</time></trkpt><trkpt lat="45.3181037" lon="7.6075071"><ele>352.2</ele><time>2026-04-25T10:18:37.248Z</time></trkpt><trkpt lat="45.3181734" lon="7.6074305"><ele>352.59999999999997</ele><time>2026-04-25T10:18:38.249Z</time></trkpt><trkpt lat="45.3182352" lon="7.6073455"><ele>353.0</ele><time>2026-04-25T10:18:39.239Z</time></trkpt><trkpt lat="45.3182987" lon="7.6072706"><ele>353.4</ele><time>2026-04-25T10:18:40.245Z</time></trkpt><trkpt lat="45.3183772" lon="7.6071969"><ele>353.79999999999995</ele><time>2026-04-25T10:18:41.24Z</time></trkpt><trkpt lat="45.3184352" lon="7.6071329"><ele>354.2</ele><time>2026-04-25T10:18:42.24Z</time></trkpt><trkpt lat="45.3184882" lon="7.6070723"><ele>354.6</ele><time>2026-04-25T10:18:43.242Z</time></trkpt><trkpt lat="45.3185865" lon="7.6069707"><ele>355.0</ele><time>2026-04-25T10:18:45.235Z</time></trkpt><trkpt lat="45.318696" lon="7.6068626"><ele>355.3333333333333</ele><time>2026-04-25T10:18:47.234Z</time></trkpt><trkpt lat="45.3187509" lon="7.6068084"><ele>355.66666666666663</ele><time>2026-04-25T10:18:48.233Z</time></trkpt><trkpt lat="45.3188151" lon="7.6067456"><ele>356.0</ele><time>2026-04-25T10:18:49.236Z</time></trkpt><trkpt lat="45.3189053" lon="7.6066708"><ele>356.3333333333333</ele><time>2026-04-25T10:18:50.235Z</time></trkpt><trkpt lat="45.3189882" lon="7.6066143"><ele>356.6666666666667</ele><time>2026-04-25T10:18:51.234Z</time></trkpt><trkpt lat="45.3190678" lon="7.6065656"><ele>357.0</ele><time>2026-04-25T10:18:52.238Z</time></trkpt><trkpt lat="45.3191473" lon="7.6065159"><ele>357.1666666666667</ele><time>2026-04-25T10:18:53.242Z</time></trkpt><trkpt lat="45.319227" lon="7.6064735"><ele>357.3333333333333</ele><time>2026-04-25T10:18:54.232Z</time></trkpt><trkpt lat="45.3192951" lon="7.6064367"><ele>357.5</ele><time>2026-04-25T10:18:55.243Z</time></trkpt><trkpt lat="45.3193695" lon="7.6063771"><ele>357.66666666666663</ele><time>2026-04-25T10:18:56.243Z</time></trkpt><trkpt lat="45.3194358" lon="7.6062897"><ele>357.8333333333333</ele><time>2026-04-25T10:18:57.237Z</time></trkpt><trkpt lat="45.3194956" lon="7.606195"><ele>358.0</ele><time>2026-04-25T10:18:58.241Z</time></trkpt><trkpt lat="45.3195527" lon="7.6061208"><ele>358.2</ele><time>2026-04-25T10:18:59.237Z</time></trkpt><trkpt lat="45.3196044" lon="7.606021"><ele>358.4</ele><time>2026-04-25T10:19:00.236Z</time></trkpt><trkpt lat="45.3196444" lon="7.6059049"><ele>358.59999999999997</ele><time>2026-04-25T10:19:01.228Z</time></trkpt><trkpt lat="45.319677" lon="7.6057765"><ele>358.79999999999995</ele><time>2026-04-25T10:19:02.229Z</time></trkpt><trkpt lat="45.3197176" lon="7.6056427"><ele>359.0</ele><time>2026-04-25T10:19:03.225Z</time></trkpt><trkpt lat="45.3197594" lon="7.6055098"><ele>359.0</ele><time>2026-04-25T10:19:04.235Z</time></trkpt><trkpt lat="45.3198151" lon="7.6053915"><ele>359.0</ele><time>2026-04-25T10:19:05.233Z</time></trkpt><trkpt lat="45.3198949" lon="7.6052785"><ele>359.0</ele><time>2026-04-25T10:19:06.233Z</time></trkpt><trkpt lat="45.3199751" lon="7.6051634"><ele>359.0</ele><time>2026-04-25T10:19:07.242Z</time></trkpt><trkpt lat="45.32005" lon="7.6050371"><ele>359.0</ele><time>2026-04-25T10:19:08.24Z</time></trkpt><trkpt lat="45.3201072" lon="7.6049266"><ele>359.33333333333337</ele><time>2026-04-25T10:19:09.248Z</time></trkpt><trkpt lat="45.3201739" lon="7.6048421"><ele>359.6666666666667</ele><time>2026-04-25T10:19:10.238Z</time></trkpt><trkpt lat="45.3202226" lon="7.604759"><ele>360.0</ele><time>2026-04-25T10:19:11.24Z</time></trkpt><trkpt lat="45.3202746" lon="7.6046938"><ele>360.3333333333333</ele><time>2026-04-25T10:19:12.242Z</time></trkpt><trkpt lat="45.3203256" lon="7.6046226"><ele>360.66666666666663</ele><time>2026-04-25T10:19:13.232Z</time></trkpt><trkpt lat="45.3203742" lon="7.6045501"><ele>361.0</ele><time>2026-04-25T10:19:14.232Z</time></trkpt><trkpt lat="45.3204185" lon="7.6044554"><ele>361.3333333333333</ele><time>2026-04-25T10:19:15.229Z</time></trkpt><trkpt lat="45.3204579" lon="7.6043597"><ele>361.66666666666663</ele><time>2026-04-25T10:19:16.239Z</time></trkpt><trkpt lat="45.3205086" lon="7.6042974"><ele>362.0</ele><time>2026-04-25T10:19:17.233Z</time></trkpt><trkpt lat="45.3205943" lon="7.6042161"><ele>362.3333333333333</ele><time>2026-04-25T10:19:19.241Z</time></trkpt><trkpt lat="45.3206239" lon="7.6041324"><ele>362.6666666666667</ele><time>2026-04-25T10:19:28.237Z</time></trkpt><trkpt lat="45.3207172" lon="7.604109"><ele>363.0</ele><time>2026-04-25T10:19:56.239Z</time></trkpt><trkpt lat="45.320762" lon="7.6039621"><ele>363.5</ele><time>2026-04-25T10:19:58.238Z</time></trkpt><trkpt lat="45.3207923" lon="7.6038796"><ele>364.0</ele><time>2026-04-25T10:19:59.252Z</time></trkpt><trkpt lat="45.3208308" lon="7.6037923"><ele>364.5</ele><time>2026-04-25T10:20:01.234Z</time></trkpt><trkpt lat="45.3208769" lon="7.6036944"><ele>365.0</ele><time>2026-04-25T10:20:03.237Z</time></trkpt><trkpt lat="45.3209535" lon="7.6035867"><ele>365.5</ele><time>2026-04-25T10:20:05.237Z</time></trkpt><trkpt lat="45.3210256" lon="7.6035452"><ele>366.0</ele><time>2026-04-25T10:20:07.228Z</time></trkpt><trkpt lat="45.3210327" lon="7.6036621"><ele>366.0</ele><time>2026-04-25T10:20:16.234Z</time></trkpt><trkpt lat="45.3209816" lon="7.6037745"><ele>366.0</ele><time>2026-04-25T10:20:18.232Z</time></trkpt><trkpt lat="45.3208937" lon="7.6038609"><ele>366.0</ele><time>2026-04-25T10:20:20.242Z</time></trkpt><trkpt lat="45.3208128" lon="7.60385"><ele>366.0</ele><time>2026-04-25T10:20:26.229Z</time></trkpt><trkpt lat="45.3207095" lon="7.6037218"><ele>366.0</ele><time>2026-04-25T10:20:28.234Z</time></trkpt><trkpt lat="45.3206556" lon="7.603621"><ele>366.8</ele><time>2026-04-25T10:20:29.239Z</time></trkpt><trkpt lat="45.3205879" lon="7.6035421"><ele>367.6</ele><time>2026-04-25T10:20:30.232Z</time></trkpt><trkpt lat="45.3205262" lon="7.6034692"><ele>368.4</ele><time>2026-04-25T10:20:31.232Z</time></trkpt><trkpt lat="45.3204866" lon="7.6033923"><ele>369.2</ele><time>2026-04-25T10:20:32.242Z</time></trkpt><trkpt lat="45.3204645" lon="7.6032567"><ele>370.0</ele><time>2026-04-25T10:20:34.244Z</time></trkpt><trkpt lat="45.3205003" lon="7.6030858"><ele>369.99999999999994</ele><time>2026-04-25T10:20:36.243Z</time></trkpt><trkpt lat="45.3205214" lon="7.6029976"><ele>370.0</ele><time>2026-04-25T10:20:37.243Z</time></trkpt><trkpt lat="45.3205505" lon="7.6029078"><ele>370.0</ele><time>2026-04-25T10:20:38.237Z</time></trkpt><trkpt lat="45.3205595" lon="7.6028137"><ele>370.0</ele><time>2026-04-25T10:20:39.242Z</time></trkpt><trkpt lat="45.3205334" lon="7.6027196"><ele>370.0</ele><time>2026-04-25T10:20:40.238Z</time></trkpt><trkpt lat="45.3204893" lon="7.6026277"><ele>369.99999999999994</ele><time>2026-04-25T10:20:41.235Z</time></trkpt><trkpt lat="45.320421" lon="7.6025378"><ele>370.0</ele><time>2026-04-25T10:20:42.238Z</time></trkpt><trkpt lat="45.320346" lon="7.602437"><ele>371.4</ele><time>2026-04-25T10:20:43.237Z</time></trkpt><trkpt lat="45.3202747" lon="7.6023367"><ele>372.8</ele><time>2026-04-25T10:20:44.246Z</time></trkpt><trkpt lat="45.3202177" lon="7.6022424"><ele>374.20000000000005</ele><time>2026-04-25T10:20:45.239Z</time></trkpt><trkpt lat="45.3201633" lon="7.602141"><ele>375.6</ele><time>2026-04-25T10:20:46.236Z</time></trkpt><trkpt lat="45.3201034" lon="7.6020399"><ele>377.0</ele><time>2026-04-25T10:20:47.238Z</time></trkpt><trkpt lat="45.3200475" lon="7.6019481"><ele>379.33333333333337</ele><time>2026-04-25T10:20:48.237Z</time></trkpt><trkpt lat="45.3199749" lon="7.6018671"><ele>381.6666666666667</ele><time>2026-04-25T10:20:49.237Z</time></trkpt><trkpt lat="45.3199083" lon="7.6018007"><ele>384.0</ele><time>2026-04-25T10:20:50.231Z</time></trkpt><trkpt lat="45.3198513" lon="7.6017442"><ele>386.33333333333337</ele><time>2026-04-25T10:20:51.232Z</time></trkpt><trkpt lat="45.3198043" lon="7.6016465"><ele>388.6666666666667</ele><time>2026-04-25T10:20:53.236Z</time></trkpt><trkpt lat="45.3196928" lon="7.6016131"><ele>391.0</ele><time>2026-04-25T10:20:56.237Z</time></trkpt><trkpt lat="45.3196171" lon="7.6016224"><ele>391.0</ele><time>2026-04-25T10:20:57.229Z</time></trkpt><trkpt lat="45.3195397" lon="7.601621"><ele>391.0</ele><time>2026-04-25T10:20:58.23Z</time></trkpt><trkpt lat="45.3194588" lon="7.6016074"><ele>391.0</ele><time>2026-04-25T10:20:59.243Z</time></trkpt><trkpt lat="45.3193569" lon="7.6015819"><ele>391.0</ele><time>2026-04-25T10:21:01.226Z</time></trkpt><trkpt lat="45.3193862" lon="7.6014738"><ele>391.0</ele><time>2026-04-25T10:21:03.225Z</time></trkpt><trkpt lat="45.3194941" lon="7.601442"><ele>391.0</ele><time>2026-04-25T10:21:05.224Z</time></trkpt><trkpt lat="45.3195961" lon="7.6014609"><ele>391.0</ele><time>2026-04-25T10:21:06.229Z</time></trkpt><trkpt lat="45.3197034" lon="7.6014661"><ele>391.0</ele><time>2026-04-25T10:21:07.235Z</time></trkpt><trkpt lat="45.3197975" lon="7.6014285"><ele>391.0</ele><time>2026-04-25T10:21:08.231Z</time></trkpt><trkpt lat="45.3198812" lon="7.6014047"><ele>391.0</ele><time>2026-04-25T10:21:09.231Z</time></trkpt><trkpt lat="45.3199457" lon="7.6013479"><ele>391.20000000000005</ele><time>2026-04-25T10:21:10.231Z</time></trkpt><trkpt lat="45.3200052" lon="7.6012726"><ele>391.40000000000003</ele><time>2026-04-25T10:21:11.234Z</time></trkpt><trkpt lat="45.3200496" lon="7.6011944"><ele>391.6</ele><time>2026-04-25T10:21:12.23Z</time></trkpt><trkpt lat="45.3201391" lon="7.6011985"><ele>391.8</ele><time>2026-04-25T10:21:14.234Z</time></trkpt><trkpt lat="45.3202822" lon="7.6012224"><ele>392.0</ele><time>2026-04-25T10:21:16.24Z</time></trkpt><trkpt lat="45.3203679" lon="7.6012314"><ele>392.0</ele><time>2026-04-25T10:21:17.235Z</time></trkpt><trkpt lat="45.3204361" lon="7.6012219"><ele>392.0</ele><time>2026-04-25T10:21:18.237Z</time></trkpt><trkpt lat="45.3204982" lon="7.6011931"><ele>392.0</ele><time>2026-04-25T10:21:19.23Z</time></trkpt><trkpt lat="45.3205648" lon="7.6011163"><ele>392.0</ele><time>2026-04-25T10:21:21.233Z</time></trkpt><trkpt lat="45.3205323" lon="7.6010359"><ele>392.0</ele><time>2026-04-25T10:21:24.236Z</time></trkpt><trkpt lat="45.320461" lon="7.6010089"><ele>392.0</ele><time>2026-04-25T10:21:25.235Z</time></trkpt><trkpt lat="45.3204023" lon="7.6009649"><ele>392.0</ele><time>2026-04-25T10:21:26.241Z</time></trkpt><trkpt lat="45.3203291" lon="7.6009475"><ele>395.49999999999994</ele><time>2026-04-25T10:21:27.238Z</time></trkpt><trkpt lat="45.3202665" lon="7.6009378"><ele>399.0</ele><time>2026-04-25T10:21:28.236Z</time></trkpt><trkpt lat="45.3201607" lon="7.6008529"><ele>402.5</ele><time>2026-04-25T10:21:32.241Z</time></trkpt><trkpt lat="45.3202512" lon="7.6008666"><ele>406.0</ele><time>2026-04-25T10:21:35.239Z</time></trkpt><trkpt lat="45.3203179" lon="7.600894"><ele>409.49999999999994</ele><time>2026-04-25T10:21:36.236Z</time></trkpt><trkpt lat="45.3203866" lon="7.6009076"><ele>413.0</ele><time>2026-04-25T10:21:37.242Z</time></trkpt><trkpt lat="45.320455" lon="7.6009184"><ele>413.0</ele><time>2026-04-25T10:21:38.235Z</time></trkpt><trkpt lat="45.3205196" lon="7.600919"><ele>413.0</ele><time>2026-04-25T10:21:39.233Z</time></trkpt><trkpt lat="45.3206397" lon="7.6008409"><ele>413.0</ele><time>2026-04-25T10:21:41.232Z</time></trkpt><trkpt lat="45.3207051" lon="7.6007564"><ele>413.0</ele><time>2026-04-25T10:21:42.229Z</time></trkpt><trkpt lat="45.3207823" lon="7.6006589"><ele>413.0</ele><time>2026-04-25T10:21:43.239Z</time></trkpt><trkpt lat="45.3208583" lon="7.6005663"><ele>412.16666666666663</ele><time>2026-04-25T10:21:44.234Z</time></trkpt><trkpt lat="45.3208967" lon="7.6004424"><ele>411.3333333333333</ele><time>2026-04-25T10:21:45.24Z</time></trkpt><trkpt lat="45.3209032" lon="7.600328"><ele>410.5</ele><time>2026-04-25T10:21:46.246Z</time></trkpt><trkpt lat="45.3208997" lon="7.6002198"><ele>409.66666666666663</ele><time>2026-04-25T10:21:47.241Z</time></trkpt><trkpt lat="45.3208719" lon="7.6001152"><ele>408.8333333333333</ele><time>2026-04-25T10:21:48.234Z</time></trkpt><trkpt lat="45.3208338" lon="7.6000118"><ele>408.0</ele><time>2026-04-25T10:21:49.239Z</time></trkpt><trkpt lat="45.320805" lon="7.5999115"><ele>410.6666666666667</ele><time>2026-04-25T10:21:50.228Z</time></trkpt><trkpt lat="45.3207824" lon="7.5998197"><ele>413.33333333333337</ele><time>2026-04-25T10:21:51.222Z</time></trkpt><trkpt lat="45.3207888" lon="7.5997176"><ele>416.0</ele><time>2026-04-25T10:21:52.226Z</time></trkpt><trkpt lat="45.3208045" lon="7.5995904"><ele>418.6666666666667</ele><time>2026-04-25T10:21:53.238Z</time></trkpt><trkpt lat="45.3208043" lon="7.5994674"><ele>421.33333333333337</ele><time>2026-04-25T10:21:54.226Z</time></trkpt><trkpt lat="45.3208069" lon="7.5993496"><ele>424.0</ele><time>2026-04-25T10:21:55.229Z</time></trkpt><trkpt lat="45.320802" lon="7.5992107"><ele>425.6666666666667</ele><time>2026-04-25T10:21:56.235Z</time></trkpt><trkpt lat="45.3207981" lon="7.5990844"><ele>427.33333333333337</ele><time>2026-04-25T10:21:57.225Z</time></trkpt><trkpt lat="45.3207917" lon="7.5989823"><ele>429.0</ele><time>2026-04-25T10:21:58.226Z</time></trkpt><trkpt lat="45.3207469" lon="7.5988934"><ele>430.66666666666663</ele><time>2026-04-25T10:21:59.229Z</time></trkpt><trkpt lat="45.3206711" lon="7.5988061"><ele>432.3333333333333</ele><time>2026-04-25T10:22:01.231Z</time></trkpt><trkpt lat="45.320679" lon="7.5986873"><ele>434.0</ele><time>2026-04-25T10:22:04.23Z</time></trkpt><trkpt lat="45.3207362" lon="7.5985965"><ele>435.99999999999994</ele><time>2026-04-25T10:22:06.225Z</time></trkpt><trkpt lat="45.3207785" lon="7.5985237"><ele>438.0</ele><time>2026-04-25T10:22:07.224Z</time></trkpt><trkpt lat="45.3208173" lon="7.598431"><ele>440.0</ele><time>2026-04-25T10:22:08.226Z</time></trkpt><trkpt lat="45.3208684" lon="7.5983446"><ele>442.0</ele><time>2026-04-25T10:22:09.222Z</time></trkpt><trkpt lat="45.3209261" lon="7.598297"><ele>443.99999999999994</ele><time>2026-04-25T10:22:10.232Z</time></trkpt><trkpt lat="45.3210199" lon="7.5981708"><ele>446.0</ele><time>2026-04-25T10:22:12.229Z</time></trkpt><trkpt lat="45.3210583" lon="7.5980179"><ele>446.0</ele><time>2026-04-25T10:22:14.231Z</time></trkpt><trkpt lat="45.3211043" lon="7.597906"><ele>446.0</ele><time>2026-04-25T10:22:16.227Z</time></trkpt><trkpt lat="45.3211362" lon="7.5978126"><ele>446.0</ele><time>2026-04-25T10:22:19.224Z</time></trkpt><trkpt lat="45.3210569" lon="7.5979174"><ele>446.0</ele><time>2026-04-25T10:22:23.227Z</time></trkpt><trkpt lat="45.3209971" lon="7.5980393"><ele>446.0</ele><time>2026-04-25T10:22:24.224Z</time></trkpt><trkpt lat="45.3209124" lon="7.5981235"><ele>446.0</ele><time>2026-04-25T10:22:25.223Z</time></trkpt><trkpt lat="45.3208213" lon="7.5982407"><ele>446.0</ele><time>2026-04-25T10:22:26.227Z</time></trkpt><trkpt lat="45.3207301" lon="7.5983539"><ele>446.0</ele><time>2026-04-25T10:22:27.221Z</time></trkpt><trkpt lat="45.320626" lon="7.5984366"><ele>446.0</ele><time>2026-04-25T10:22:28.216Z</time></trkpt><trkpt lat="45.3205395" lon="7.5985305"><ele>447.7142857142857</ele><time>2026-04-25T10:22:29.22Z</time></trkpt><trkpt lat="45.3204629" lon="7.5985562"><ele>449.42857142857144</ele><time>2026-04-25T10:22:30.231Z</time></trkpt><trkpt lat="45.3203953" lon="7.5985703"><ele>451.1428571428571</ele><time>2026-04-25T10:22:31.218Z</time></trkpt><trkpt lat="45.3203286" lon="7.5985653"><ele>452.8571428571429</ele><time>2026-04-25T10:22:32.217Z</time></trkpt><trkpt lat="45.3202599" lon="7.5985558"><ele>454.5714285714286</ele><time>2026-04-25T10:22:33.229Z</time></trkpt><trkpt lat="45.3201961" lon="7.5985967"><ele>456.2857142857143</ele><time>2026-04-25T10:22:34.225Z</time></trkpt><trkpt lat="45.3201389" lon="7.598677"><ele>458.0</ele><time>2026-04-25T10:22:35.224Z</time></trkpt><trkpt lat="45.3201011" lon="7.5987652"><ele>458.0</ele><time>2026-04-25T10:22:36.233Z</time></trkpt><trkpt lat="45.3201202" lon="7.5989337"><ele>458.0</ele><time>2026-04-25T10:22:38.227Z</time></trkpt><trkpt lat="45.3201716" lon="7.5990901"><ele>458.0</ele><time>2026-04-25T10:22:40.23Z</time></trkpt><trkpt lat="45.3202458" lon="7.5992104"><ele>458.0</ele><time>2026-04-25T10:22:42.234Z</time></trkpt><trkpt lat="45.3201976" lon="7.5990694"><ele>457.99999999999994</ele><time>2026-04-25T10:22:57.235Z</time></trkpt><trkpt lat="45.3201726" lon="7.598969"><ele>458.0</ele><time>2026-04-25T10:22:58.228Z</time></trkpt><trkpt lat="45.3201435" lon="7.5988729"><ele>458.0</ele><time>2026-04-25T10:22:59.239Z</time></trkpt><trkpt lat="45.3201066" lon="7.5987739"><ele>458.0</ele><time>2026-04-25T10:23:00.239Z</time></trkpt><trkpt lat="45.3200291" lon="7.5986564"><ele>457.99999999999994</ele><time>2026-04-25T10:23:02.227Z</time></trkpt><trkpt lat="45.3200537" lon="7.5985088"><ele>458.0</ele><time>2026-04-25T10:23:04.233Z</time></trkpt><trkpt lat="45.3201024" lon="7.5984251"><ele>460.16666666666663</ele><time>2026-04-25T10:23:05.228Z</time></trkpt><trkpt lat="45.3201614" lon="7.5983326"><ele>462.3333333333333</ele><time>2026-04-25T10:23:06.236Z</time></trkpt><trkpt lat="45.3202135" lon="7.5982544"><ele>464.5</ele><time>2026-04-25T10:23:07.236Z</time></trkpt><trkpt lat="45.3202649" lon="7.5981799"><ele>466.66666666666663</ele><time>2026-04-25T10:23:08.233Z</time></trkpt><trkpt lat="45.3203123" lon="7.5981095"><ele>468.8333333333333</ele><time>2026-04-25T10:23:09.23Z</time></trkpt><trkpt lat="45.3203741" lon="7.5980087"><ele>471.0</ele><time>2026-04-25T10:23:11.229Z</time></trkpt><trkpt lat="45.320286" lon="7.5980473"><ele>471.0</ele><time>2026-04-25T10:23:17.223Z</time></trkpt><trkpt lat="45.3201732" lon="7.5980984"><ele>471.0</ele><time>2026-04-25T10:23:19.233Z</time></trkpt><trkpt lat="45.3200884" lon="7.5980846"><ele>471.0</ele><time>2026-04-25T10:23:20.236Z</time></trkpt><trkpt lat="45.3200114" lon="7.598106"><ele>471.0</ele><time>2026-04-25T10:23:21.24Z</time></trkpt><trkpt lat="45.3199346" lon="7.5981225"><ele>471.0</ele><time>2026-04-25T10:23:22.236Z</time></trkpt><trkpt lat="45.3198653" lon="7.5981352"><ele>471.0</ele><time>2026-04-25T10:23:23.239Z</time></trkpt><trkpt lat="45.3197914" lon="7.5981536"><ele>471.0</ele><time>2026-04-25T10:23:24.235Z</time></trkpt><trkpt lat="45.3197217" lon="7.598181"><ele>471.0</ele><time>2026-04-25T10:23:25.238Z</time></trkpt><trkpt lat="45.3196354" lon="7.5982144"><ele>471.0</ele><time>2026-04-25T10:23:27.235Z</time></trkpt><trkpt lat="45.3197205" lon="7.5981233"><ele>471.0</ele><time>2026-04-25T10:23:31.233Z</time></trkpt><trkpt lat="45.3198041" lon="7.5981151"><ele>471.0</ele><time>2026-04-25T10:23:32.236Z</time></trkpt><trkpt lat="45.3198866" lon="7.5981164"><ele>471.0</ele><time>2026-04-25T10:23:33.237Z</time></trkpt><trkpt lat="45.3199556" lon="7.5980814"><ele>471.0</ele><time>2026-04-25T10:23:34.233Z</time></trkpt><trkpt lat="45.3200353" lon="7.5980479"><ele>471.0</ele><time>2026-04-25T10:23:35.234Z</time></trkpt><trkpt lat="45.3201062" lon="7.5979764"><ele>471.0</ele><time>2026-04-25T10:23:36.232Z</time></trkpt><trkpt lat="45.3201548" lon="7.5978921"><ele>471.0</ele><time>2026-04-25T10:23:37.237Z</time></trkpt><trkpt lat="45.3202069" lon="7.5978002"><ele>471.0</ele><time>2026-04-25T10:23:38.234Z</time></trkpt><trkpt lat="45.3202507" lon="7.5977156"><ele>471.0</ele><time>2026-04-25T10:23:39.243Z</time></trkpt><trkpt lat="45.320298" lon="7.5976094"><ele>470.33333333333337</ele><time>2026-04-25T10:23:59.258Z</time></trkpt><trkpt lat="45.3204094" lon="7.5974307"><ele>469.6666666666667</ele><time>2026-04-25T10:24:01.247Z</time></trkpt><trkpt lat="45.3205169" lon="7.5972789"><ele>469.0</ele><time>2026-04-25T10:24:02.243Z</time></trkpt><trkpt lat="45.3206312" lon="7.5971428"><ele>469.0</ele><time>2026-04-25T10:24:03.236Z</time></trkpt><trkpt lat="45.3207354" lon="7.5970487"><ele>469.0</ele><time>2026-04-25T10:24:04.242Z</time></trkpt><trkpt lat="45.3208198" lon="7.5969946"><ele>469.0</ele><time>2026-04-25T10:24:05.236Z</time></trkpt><trkpt lat="45.3209012" lon="7.596921"><ele>469.0</ele><time>2026-04-25T10:24:06.237Z</time></trkpt><trkpt lat="45.3209542" lon="7.5968471"><ele>469.0</ele><time>2026-04-25T10:24:07.25Z</time></trkpt><trkpt lat="45.3210005" lon="7.5967651"><ele>471.79999999999995</ele><time>2026-04-25T10:24:08.248Z</time></trkpt><trkpt lat="45.3210392" lon="7.5966573"><ele>474.59999999999997</ele><time>2026-04-25T10:24:09.24Z</time></trkpt><trkpt lat="45.3210919" lon="7.5965347"><ele>477.4</ele><time>2026-04-25T10:24:10.243Z</time></trkpt><trkpt lat="45.3211406" lon="7.5964044"><ele>480.2</ele><time>2026-04-25T10:24:11.245Z</time></trkpt><trkpt lat="45.3212119" lon="7.5962864"><ele>483.0</ele><time>2026-04-25T10:24:12.247Z</time></trkpt><trkpt lat="45.3212687" lon="7.5961806"><ele>482.1666666666667</ele><time>2026-04-25T10:24:13.248Z</time></trkpt><trkpt lat="45.3213192" lon="7.596093"><ele>481.33333333333337</ele><time>2026-04-25T10:24:14.248Z</time></trkpt><trkpt lat="45.3213687" lon="7.5960066"><ele>480.5</ele><time>2026-04-25T10:24:15.25Z</time></trkpt><trkpt lat="45.3214311" lon="7.5959431"><ele>479.6666666666667</ele><time>2026-04-25T10:24:16.262Z</time></trkpt><trkpt lat="45.3215149" lon="7.5959014"><ele>478.83333333333337</ele><time>2026-04-25T10:24:17.256Z</time></trkpt><trkpt lat="45.3215863" lon="7.5958882"><ele>478.0</ele><time>2026-04-25T10:24:18.249Z</time></trkpt><trkpt lat="45.3216531" lon="7.5958924"><ele>480.1666666666667</ele><time>2026-04-25T10:24:19.257Z</time></trkpt><trkpt lat="45.3217306" lon="7.5958889"><ele>482.33333333333337</ele><time>2026-04-25T10:24:20.251Z</time></trkpt><trkpt lat="45.3218231" lon="7.5958775"><ele>484.5</ele><time>2026-04-25T10:24:21.25Z</time></trkpt><trkpt lat="45.3219045" lon="7.5958485"><ele>486.66666666666663</ele><time>2026-04-25T10:24:22.24Z</time></trkpt><trkpt lat="45.3219695" lon="7.5958362"><ele>488.8333333333333</ele><time>2026-04-25T10:24:23.249Z</time></trkpt><trkpt lat="45.3220759" lon="7.5958441"><ele>491.0</ele><time>2026-04-25T10:24:25.242Z</time></trkpt><trkpt lat="45.3221861" lon="7.5959172"><ele>491.66666666666663</ele><time>2026-04-25T10:24:27.248Z</time></trkpt><trkpt lat="45.3222472" lon="7.5959662"><ele>492.3333333333333</ele><time>2026-04-25T10:24:28.247Z</time></trkpt><trkpt lat="45.3222951" lon="7.5960271"><ele>493.0</ele><time>2026-04-25T10:24:29.256Z</time></trkpt><trkpt lat="45.3223736" lon="7.5961331"><ele>493.66666666666663</ele><time>2026-04-25T10:24:31.244Z</time></trkpt><trkpt lat="45.3224479" lon="7.596108"><ele>494.3333333333333</ele><time>2026-04-25T10:24:33.24Z</time></trkpt><trkpt lat="45.3224679" lon="7.5959935"><ele>495.0</ele><time>2026-04-25T10:24:35.247Z</time></trkpt><trkpt lat="45.3224515" lon="7.5958176"><ele>495.0</ele><time>2026-04-25T10:24:37.258Z</time></trkpt><trkpt lat="45.3224372" lon="7.59568"><ele>495.0</ele><time>2026-04-25T10:24:38.25Z</time></trkpt><trkpt lat="45.3224336" lon="7.5955344"><ele>495.0</ele><time>2026-04-25T10:24:39.257Z</time></trkpt><trkpt lat="45.3224282" lon="7.5954187"><ele>495.0</ele><time>2026-04-25T10:24:40.244Z</time></trkpt><trkpt lat="45.3224142" lon="7.5952965"><ele>495.0</ele><time>2026-04-25T10:24:41.255Z</time></trkpt><trkpt lat="45.3224131" lon="7.5951741"><ele>495.5714285714285</ele><time>2026-04-25T10:24:42.251Z</time></trkpt><trkpt lat="45.3224075" lon="7.5950798"><ele>496.1428571428571</ele><time>2026-04-25T10:24:43.252Z</time></trkpt><trkpt lat="45.3224078" lon="7.5949861"><ele>496.7142857142857</ele><time>2026-04-25T10:24:44.241Z</time></trkpt><trkpt lat="45.3224011" lon="7.5948873"><ele>497.2857142857143</ele><time>2026-04-25T10:24:45.252Z</time></trkpt><trkpt lat="45.3223745" lon="7.5947865"><ele>497.8571428571429</ele><time>2026-04-25T10:24:46.251Z</time></trkpt><trkpt lat="45.3223479" lon="7.5947012"><ele>498.4285714285715</ele><time>2026-04-25T10:24:47.247Z</time></trkpt><trkpt lat="45.3223159" lon="7.5946007"><ele>499.00000000000006</ele><time>2026-04-25T10:24:48.24Z</time></trkpt><trkpt lat="45.3222273" lon="7.594433"><ele>501.6</ele><time>2026-04-25T10:24:50.242Z</time></trkpt><trkpt lat="45.3221464" lon="7.5943453"><ele>504.2</ele><time>2026-04-25T10:24:51.242Z</time></trkpt><trkpt lat="45.3220593" lon="7.5942907"><ele>506.80000000000007</ele><time>2026-04-25T10:24:52.243Z</time></trkpt><trkpt lat="45.3219762" lon="7.5942511"><ele>509.40000000000003</ele><time>2026-04-25T10:24:53.242Z</time></trkpt><trkpt lat="45.3219368" lon="7.5941161"><ele>512.0</ele><time>2026-04-25T10:24:55.238Z</time></trkpt><trkpt lat="45.3219393" lon="7.5940197"><ele>511.99999999999994</ele><time>2026-04-25T10:24:56.236Z</time></trkpt><trkpt lat="45.3219365" lon="7.593926"><ele>512.0</ele><time>2026-04-25T10:24:57.24Z</time></trkpt><trkpt lat="45.3219462" lon="7.5937932"><ele>512.0</ele><time>2026-04-25T10:24:58.242Z</time></trkpt><trkpt lat="45.3219623" lon="7.5936677"><ele>512.0</ele><time>2026-04-25T10:24:59.24Z</time></trkpt><trkpt lat="45.321992" lon="7.5935378"><ele>511.99999999999994</ele><time>2026-04-25T10:25:00.254Z</time></trkpt><trkpt lat="45.3220276" lon="7.593404"><ele>512.0</ele><time>2026-04-25T10:25:01.244Z</time></trkpt><trkpt lat="45.3220726" lon="7.5932838"><ele>511.16666666666663</ele><time>2026-04-25T10:25:02.242Z</time></trkpt><trkpt lat="45.3221176" lon="7.593176"><ele>510.3333333333333</ele><time>2026-04-25T10:25:03.243Z</time></trkpt><trkpt lat="45.3221598" lon="7.593086"><ele>509.5</ele><time>2026-04-25T10:25:04.245Z</time></trkpt><trkpt lat="45.3222074" lon="7.5929752"><ele>508.66666666666663</ele><time>2026-04-25T10:25:05.247Z</time></trkpt><trkpt lat="45.3222565" lon="7.5928654"><ele>507.8333333333333</ele><time>2026-04-25T10:25:06.244Z</time></trkpt><trkpt lat="45.3223135" lon="7.5927719"><ele>507.0</ele><time>2026-04-25T10:25:07.242Z</time></trkpt><trkpt lat="45.3223534" lon="7.5926728"><ele>509.0</ele><time>2026-04-25T10:25:08.248Z</time></trkpt><trkpt lat="45.3223738" lon="7.5925765"><ele>511.00000000000006</ele><time>2026-04-25T10:25:09.241Z</time></trkpt><trkpt lat="45.3223842" lon="7.5924338"><ele>513.0</ele><time>2026-04-25T10:25:11.243Z</time></trkpt><trkpt lat="45.3223758" lon="7.5922525"><ele>515.0</ele><time>2026-04-25T10:25:13.254Z</time></trkpt><trkpt lat="45.3223657" lon="7.5921391"><ele>517.0</ele><time>2026-04-25T10:25:14.239Z</time></trkpt><trkpt lat="45.3223533" lon="7.5920113"><ele>517.3333333333334</ele><time>2026-04-25T10:25:15.243Z</time></trkpt><trkpt lat="45.322329" lon="7.5919093"><ele>517.6666666666667</ele><time>2026-04-25T10:25:16.244Z</time></trkpt><trkpt lat="45.3222874" lon="7.591806"><ele>518.0</ele><time>2026-04-25T10:25:17.243Z</time></trkpt><trkpt lat="45.3222423" lon="7.5917233"><ele>518.3333333333334</ele><time>2026-04-25T10:25:18.247Z</time></trkpt><trkpt lat="45.3221621" lon="7.5916185"><ele>518.6666666666666</ele><time>2026-04-25T10:25:20.25Z</time></trkpt><trkpt lat="45.3220755" lon="7.5915351"><ele>519.0</ele><time>2026-04-25T10:25:22.23Z</time></trkpt><trkpt lat="45.3220945" lon="7.5913737"><ele>522.0</ele><time>2026-04-25T10:25:24.236Z</time></trkpt><trkpt lat="45.3221539" lon="7.5912648"><ele>525.0</ele><time>2026-04-25T10:25:26.244Z</time></trkpt><trkpt lat="45.3222351" lon="7.5911427"><ele>528.0</ele><time>2026-04-25T10:25:28.253Z</time></trkpt><trkpt lat="45.3222823" lon="7.5910319"><ele>531.0</ele><time>2026-04-25T10:25:30.254Z</time></trkpt><trkpt lat="45.3223109" lon="7.5909269"><ele>534.0</ele><time>2026-04-25T10:25:32.242Z</time></trkpt><trkpt lat="45.3224129" lon="7.5908364"><ele>534.0</ele><time>2026-04-25T10:25:36.24Z</time></trkpt><trkpt lat="45.3225055" lon="7.5906768"><ele>534.0</ele><time>2026-04-25T10:25:38.236Z</time></trkpt><trkpt lat="45.3225418" lon="7.590583"><ele>534.0</ele><time>2026-04-25T10:25:39.241Z</time></trkpt><trkpt lat="45.3225617" lon="7.5904114"><ele>534.0</ele><time>2026-04-25T10:25:41.232Z</time></trkpt><trkpt lat="45.3225722" lon="7.5902978"><ele>534.0</ele><time>2026-04-25T10:25:43.231Z</time></trkpt><trkpt lat="45.3226458" lon="7.5903084"><ele>536.1666666666666</ele><time>2026-04-25T10:25:45.238Z</time></trkpt><trkpt lat="45.3227083" lon="7.590324"><ele>538.3333333333334</ele><time>2026-04-25T10:25:46.233Z</time></trkpt><trkpt lat="45.3227708" lon="7.5902945"><ele>540.5</ele><time>2026-04-25T10:25:47.238Z</time></trkpt><trkpt lat="45.3228687" lon="7.5901876"><ele>542.6666666666667</ele><time>2026-04-25T10:25:49.252Z</time></trkpt><trkpt lat="45.3229257" lon="7.5901226"><ele>544.8333333333334</ele><time>2026-04-25T10:25:50.248Z</time></trkpt><trkpt lat="45.3229712" lon="7.5900423"><ele>547.0</ele><time>2026-04-25T10:25:51.243Z</time></trkpt><trkpt lat="45.3230216" lon="7.5899215"><ele>546.5</ele><time>2026-04-25T10:25:53.239Z</time></trkpt><trkpt lat="45.3230869" lon="7.589823"><ele>546.0</ele><time>2026-04-25T10:25:55.238Z</time></trkpt><trkpt lat="45.3231954" lon="7.5898169"><ele>545.5</ele><time>2026-04-25T10:25:57.24Z</time></trkpt><trkpt lat="45.3232607" lon="7.5898403"><ele>545.0</ele><time>2026-04-25T10:25:58.235Z</time></trkpt><trkpt lat="45.323335" lon="7.5898358"><ele>544.5</ele><time>2026-04-25T10:25:59.238Z</time></trkpt><trkpt lat="45.3233982" lon="7.5898046"><ele>544.0</ele><time>2026-04-25T10:26:00.243Z</time></trkpt><trkpt lat="45.3235137" lon="7.5897324"><ele>544.0</ele><time>2026-04-25T10:26:02.232Z</time></trkpt><trkpt lat="45.3235827" lon="7.5895918"><ele>544.0</ele><time>2026-04-25T10:26:04.234Z</time></trkpt><trkpt lat="45.3235995" lon="7.5894316"><ele>544.0</ele><time>2026-04-25T10:26:06.228Z</time></trkpt><trkpt lat="45.3235954" lon="7.5893316"><ele>544.0</ele><time>2026-04-25T10:26:07.236Z</time></trkpt><trkpt lat="45.3235895" lon="7.5892299"><ele>544.0</ele><time>2026-04-25T10:26:08.237Z</time></trkpt><trkpt lat="45.323585" lon="7.5891397"><ele>544.0</ele><time>2026-04-25T10:26:09.235Z</time></trkpt><trkpt lat="45.3236038" lon="7.5889806"><ele>546.0</ele><time>2026-04-25T10:26:11.232Z</time></trkpt><trkpt lat="45.3236239" lon="7.5888909"><ele>548.0</ele><time>2026-04-25T10:26:12.232Z</time></trkpt><trkpt lat="45.3236431" lon="7.5888043"><ele>550.0</ele><time>2026-04-25T10:26:13.227Z</time></trkpt><trkpt lat="45.3236967" lon="7.5887357"><ele>552.0</ele><time>2026-04-25T10:26:15.232Z</time></trkpt><trkpt lat="45.3237899" lon="7.5887765"><ele>554.0</ele><time>2026-04-25T10:26:18.241Z</time></trkpt><trkpt lat="45.3238784" lon="7.5888967"><ele>556.0</ele><time>2026-04-25T10:26:20.237Z</time></trkpt><trkpt lat="45.3238967" lon="7.5889953"><ele>556.3333333333334</ele><time>2026-04-25T10:26:21.239Z</time></trkpt><trkpt lat="45.3239194" lon="7.5890945"><ele>556.6666666666667</ele><time>2026-04-25T10:26:22.244Z</time></trkpt><trkpt lat="45.3239552" lon="7.5891804"><ele>557.0</ele><time>2026-04-25T10:26:23.237Z</time></trkpt><trkpt lat="45.3239864" lon="7.5892828"><ele>557.3333333333334</ele><time>2026-04-25T10:26:24.239Z</time></trkpt><trkpt lat="45.3240183" lon="7.5893634"><ele>557.6666666666666</ele><time>2026-04-25T10:26:25.236Z</time></trkpt><trkpt lat="45.3240921" lon="7.5895024"><ele>558.0</ele><time>2026-04-25T10:26:27.239Z</time></trkpt><trkpt lat="45.3242039" lon="7.5895717"><ele>558.0</ele><time>2026-04-25T10:26:29.232Z</time></trkpt><trkpt lat="45.3243078" lon="7.5895676"><ele>558.0</ele><time>2026-04-25T10:26:31.248Z</time></trkpt><trkpt lat="45.3244159" lon="7.5895409"><ele>558.0</ele><time>2026-04-25T10:26:33.243Z</time></trkpt><trkpt lat="45.3245025" lon="7.5894609"><ele>558.0</ele><time>2026-04-25T10:26:35.24Z</time></trkpt><trkpt lat="45.3245666" lon="7.5893657"><ele>558.0</ele><time>2026-04-25T10:26:37.247Z</time></trkpt><trkpt lat="45.3246049" lon="7.5892649"><ele>559.4285714285713</ele><time>2026-04-25T10:26:39.245Z</time></trkpt><trkpt lat="45.324641" lon="7.5891805"><ele>560.8571428571429</ele><time>2026-04-25T10:27:21.248Z</time></trkpt><trkpt lat="45.3246902" lon="7.5890661"><ele>562.2857142857142</ele><time>2026-04-25T10:28:15.248Z</time></trkpt><trkpt lat="45.324725" lon="7.5889854"><ele>563.7142857142857</ele><time>2026-04-25T10:29:49.257Z</time></trkpt><trkpt lat="45.3247595" lon="7.5889052"><ele>565.1428571428571</ele><time>2026-04-25T10:32:45.257Z</time></trkpt><trkpt lat="45.3248014" lon="7.58882"><ele>566.5714285714286</ele><time>2026-04-25T10:34:31.259Z</time></trkpt><trkpt lat="45.3248329" lon="7.5887374"><ele>568.0</ele><time>2026-04-25T10:37:12.246Z</time></trkpt><trkpt lat="45.3248031" lon="7.5888208"><ele>568.6666666666667</ele><time>2026-04-25T10:37:19.245Z</time></trkpt><trkpt lat="45.324765" lon="7.5889051"><ele>569.3333333333334</ele><time>2026-04-25T10:37:33.24Z</time></trkpt><trkpt lat="45.3247361" lon="7.5890027"><ele>570.0</ele><time>2026-04-25T10:39:09.252Z</time></trkpt><trkpt lat="45.3247684" lon="7.5890957"><ele>570.6666666666666</ele><time>2026-04-25T10:39:41.248Z</time></trkpt><trkpt lat="45.3248333" lon="7.589088"><ele>571.3333333333333</ele><time>2026-04-25T10:39:43.238Z</time></trkpt><trkpt lat="45.3249455" lon="7.5890561"><ele>572.0</ele><time>2026-04-25T10:39:45.248Z</time></trkpt><trkpt lat="45.3250212" lon="7.5889806"><ele>572.0</ele><time>2026-04-25T10:39:47.246Z</time></trkpt><trkpt lat="45.3251026" lon="7.5889468"><ele>572.0</ele><time>2026-04-25T10:39:50.242Z</time></trkpt><trkpt lat="45.3251558" lon="7.5890117"><ele>572.0</ele><time>2026-04-25T10:39:53.238Z</time></trkpt><trkpt lat="45.3251833" lon="7.5891592"><ele>572.0</ele><time>2026-04-25T10:39:55.24Z</time></trkpt><trkpt lat="45.3251944" lon="7.5892717"><ele>572.0</ele><time>2026-04-25T10:39:56.238Z</time></trkpt><trkpt lat="45.3252337" lon="7.5893752"><ele>572.0</ele><time>2026-04-25T10:39:57.24Z</time></trkpt><trkpt lat="45.3253177" lon="7.5894592"><ele>571.25</ele><time>2026-04-25T10:39:59.246Z</time></trkpt><trkpt lat="45.3253851" lon="7.5895816"><ele>570.5</ele><time>2026-04-25T10:40:01.245Z</time></trkpt><trkpt lat="45.3254089" lon="7.5897711"><ele>569.75</ele><time>2026-04-25T10:40:03.245Z</time></trkpt><trkpt lat="45.3254629" lon="7.5899041"><ele>569.0</ele><time>2026-04-25T10:40:05.244Z</time></trkpt><trkpt lat="45.3255836" lon="7.589938"><ele>569.0</ele><time>2026-04-25T10:40:07.24Z</time></trkpt><trkpt lat="45.3256896" lon="7.5899097"><ele>569.0</ele><time>2026-04-25T10:40:09.242Z</time></trkpt><trkpt lat="45.3257422" lon="7.5898454"><ele>569.0</ele><time>2026-04-25T10:40:10.239Z</time></trkpt><trkpt lat="45.3258077" lon="7.589765"><ele>569.0</ele><time>2026-04-25T10:40:11.239Z</time></trkpt><trkpt lat="45.3258741" lon="7.5897044"><ele>569.0</ele><time>2026-04-25T10:40:12.242Z</time></trkpt><trkpt lat="45.3259376" lon="7.5896543"><ele>569.0</ele><time>2026-04-25T10:40:13.239Z</time></trkpt><trkpt lat="45.3260158" lon="7.5896086"><ele>569.0</ele><time>2026-04-25T10:40:14.238Z</time></trkpt><trkpt lat="45.3261128" lon="7.5895988"><ele>569.0</ele><time>2026-04-25T10:40:15.24Z</time></trkpt><trkpt lat="45.3262229" lon="7.589556"><ele>569.0</ele><time>2026-04-25T10:40:16.233Z</time></trkpt><trkpt lat="45.3263229" lon="7.5895199"><ele>569.0</ele><time>2026-04-25T10:40:17.24Z</time></trkpt><trkpt lat="45.3264014" lon="7.5894714"><ele>569.0</ele><time>2026-04-25T10:40:18.24Z</time></trkpt><trkpt lat="45.3264827" lon="7.5894634"><ele>570.8333333333333</ele><time>2026-04-25T10:40:19.242Z</time></trkpt><trkpt lat="45.3265482" lon="7.589461"><ele>572.6666666666666</ele><time>2026-04-25T10:40:20.245Z</time></trkpt><trkpt lat="45.3266679" lon="7.5894758"><ele>574.5</ele><time>2026-04-25T10:40:22.245Z</time></trkpt><trkpt lat="45.3267333" lon="7.589498"><ele>576.3333333333334</ele><time>2026-04-25T10:40:23.245Z</time></trkpt><trkpt lat="45.3268025" lon="7.5895437"><ele>578.1666666666667</ele><time>2026-04-25T10:40:24.247Z</time></trkpt><trkpt lat="45.3268709" lon="7.5896112"><ele>580.0</ele><time>2026-04-25T10:40:25.244Z</time></trkpt><trkpt lat="45.3269499" lon="7.5896557"><ele>575.1666666666667</ele><time>2026-04-25T10:40:26.249Z</time></trkpt><trkpt lat="45.3270245" lon="7.5897012"><ele>570.3333333333334</ele><time>2026-04-25T10:40:27.246Z</time></trkpt><trkpt lat="45.3270946" lon="7.5897575"><ele>565.5</ele><time>2026-04-25T10:40:28.252Z</time></trkpt><trkpt lat="45.3271673" lon="7.5898228"><ele>560.6666666666666</ele><time>2026-04-25T10:40:29.241Z</time></trkpt><trkpt lat="45.3272307" lon="7.5899145"><ele>555.8333333333333</ele><time>2026-04-25T10:40:30.248Z</time></trkpt><trkpt lat="45.327279" lon="7.5900035"><ele>551.0</ele><time>2026-04-25T10:40:31.252Z</time></trkpt><trkpt lat="45.3273228" lon="7.5901136"><ele>550.8</ele><time>2026-04-25T10:40:32.247Z</time></trkpt><trkpt lat="45.3273563" lon="7.5902398"><ele>550.6</ele><time>2026-04-25T10:40:33.252Z</time></trkpt><trkpt lat="45.3273814" lon="7.5903682"><ele>550.4</ele><time>2026-04-25T10:40:34.245Z</time></trkpt><trkpt lat="45.3274048" lon="7.5905044"><ele>550.2</ele><time>2026-04-25T10:40:35.241Z</time></trkpt><trkpt lat="45.3274342" lon="7.5906131"><ele>550.0</ele><time>2026-04-25T10:40:36.243Z</time></trkpt><trkpt lat="45.3274948" lon="7.5907179"><ele>550.0</ele><time>2026-04-25T10:40:38.237Z</time></trkpt><trkpt lat="45.3275485" lon="7.5907655"><ele>550.0</ele><time>2026-04-25T10:40:40.24Z</time></trkpt><trkpt lat="45.3276179" lon="7.590699"><ele>550.0</ele><time>2026-04-25T10:40:42.246Z</time></trkpt><trkpt lat="45.327687" lon="7.5905538"><ele>550.0</ele><time>2026-04-25T10:40:44.245Z</time></trkpt><trkpt lat="45.3277242" lon="7.5904251"><ele>550.0</ele><time>2026-04-25T10:40:49.253Z</time></trkpt><trkpt lat="45.3277493" lon="7.5903196"><ele>550.0</ele><time>2026-04-25T10:40:51.252Z</time></trkpt><trkpt lat="45.3278076" lon="7.5901446"><ele>550.0</ele><time>2026-04-25T10:40:53.249Z</time></trkpt><trkpt lat="45.3278546" lon="7.5900443"><ele>550.0</ele><time>2026-04-25T10:40:54.251Z</time></trkpt><trkpt lat="45.3279035" lon="7.5899324"><ele>550.0</ele><time>2026-04-25T10:40:55.247Z</time></trkpt><trkpt lat="45.3279486" lon="7.5898097"><ele>550.0</ele><time>2026-04-25T10:40:56.254Z</time></trkpt><trkpt lat="45.3279902" lon="7.5896989"><ele>550.0</ele><time>2026-04-25T10:40:57.265Z</time></trkpt><trkpt lat="45.32802" lon="7.5895836"><ele>550.0</ele><time>2026-04-25T10:40:58.254Z</time></trkpt><trkpt lat="45.3280512" lon="7.5894554"><ele>548.2857142857143</ele><time>2026-04-25T10:40:59.245Z</time></trkpt><trkpt lat="45.3280833" lon="7.589339"><ele>546.5714285714286</ele><time>2026-04-25T10:41:00.25Z</time></trkpt><trkpt lat="45.3281074" lon="7.5892349"><ele>544.8571428571429</ele><time>2026-04-25T10:41:01.239Z</time></trkpt><trkpt lat="45.328141" lon="7.5891428"><ele>543.1428571428571</ele><time>2026-04-25T10:41:02.236Z</time></trkpt><trkpt lat="45.3281744" lon="7.5890611"><ele>541.4285714285714</ele><time>2026-04-25T10:41:03.245Z</time></trkpt><trkpt lat="45.3282094" lon="7.5889749"><ele>539.7142857142858</ele><time>2026-04-25T10:41:04.242Z</time></trkpt><trkpt lat="45.3282436" lon="7.5888912"><ele>538.0</ele><time>2026-04-25T10:41:05.245Z</time></trkpt><trkpt lat="45.3282734" lon="7.5888037"><ele>538.0</ele><time>2026-04-25T10:41:06.237Z</time></trkpt><trkpt lat="45.3282924" lon="7.588702"><ele>538.0</ele><time>2026-04-25T10:41:07.239Z</time></trkpt><trkpt lat="45.3283005" lon="7.5886025"><ele>538.0</ele><time>2026-04-25T10:41:08.236Z</time></trkpt><trkpt lat="45.3283035" lon="7.588479"><ele>538.0</ele><time>2026-04-25T10:41:09.238Z</time></trkpt><trkpt lat="45.3283064" lon="7.5883575"><ele>538.0</ele><time>2026-04-25T10:41:10.238Z</time></trkpt><trkpt lat="45.3283178" lon="7.588257"><ele>538.0</ele><time>2026-04-25T10:41:11.237Z</time></trkpt><trkpt lat="45.3283086" lon="7.5881099"><ele>539.1999999999999</ele><time>2026-04-25T10:41:13.24Z</time></trkpt><trkpt lat="45.3283198" lon="7.5879078"><ele>540.4</ele><time>2026-04-25T10:41:15.236Z</time></trkpt><trkpt lat="45.3283351" lon="7.5877812"><ele>541.5999999999999</ele><time>2026-04-25T10:41:16.24Z</time></trkpt><trkpt lat="45.3283552" lon="7.5876463"><ele>542.8</ele><time>2026-04-25T10:41:17.244Z</time></trkpt><trkpt lat="45.3283899" lon="7.5875399"><ele>544.0</ele><time>2026-04-25T10:41:18.233Z</time></trkpt><trkpt lat="45.328415" lon="7.5874234"><ele>546.4</ele><time>2026-04-25T10:41:20.238Z</time></trkpt><trkpt lat="45.3284955" lon="7.5873964"><ele>548.8</ele><time>2026-04-25T10:41:22.237Z</time></trkpt><trkpt lat="45.3286085" lon="7.5874257"><ele>551.2</ele><time>2026-04-25T10:41:24.243Z</time></trkpt><trkpt lat="45.3286867" lon="7.587382"><ele>553.6</ele><time>2026-04-25T10:41:26.239Z</time></trkpt><trkpt lat="45.3287612" lon="7.5873198"><ele>556.0</ele><time>2026-04-25T10:41:28.255Z</time></trkpt><trkpt lat="45.3288262" lon="7.5871956"><ele>556.0</ele><time>2026-04-25T10:41:30.247Z</time></trkpt><trkpt lat="45.3288669" lon="7.5871138"><ele>556.0</ele><time>2026-04-25T10:41:31.247Z</time></trkpt><trkpt lat="45.3289119" lon="7.587014"><ele>556.0</ele><time>2026-04-25T10:41:32.24Z</time></trkpt><trkpt lat="45.3289405" lon="7.5869021"><ele>556.0</ele><time>2026-04-25T10:41:33.246Z</time></trkpt><trkpt lat="45.3289679" lon="7.5867914"><ele>556.0</ele><time>2026-04-25T10:41:34.234Z</time></trkpt><trkpt lat="45.3289635" lon="7.5866717"><ele>556.0</ele><time>2026-04-25T10:41:35.242Z</time></trkpt><trkpt lat="45.3289463" lon="7.5865431"><ele>555.6666666666667</ele><time>2026-04-25T10:41:36.232Z</time></trkpt><trkpt lat="45.3289519" lon="7.5864135"><ele>555.3333333333334</ele><time>2026-04-25T10:41:37.243Z</time></trkpt><trkpt lat="45.3289538" lon="7.5862775"><ele>555.0</ele><time>2026-04-25T10:41:38.238Z</time></trkpt><trkpt lat="45.3289631" lon="7.586157"><ele>554.6666666666666</ele><time>2026-04-25T10:41:39.238Z</time></trkpt><trkpt lat="45.3289508" lon="7.5860531"><ele>554.3333333333333</ele><time>2026-04-25T10:41:40.241Z</time></trkpt><trkpt lat="45.328939" lon="7.5859573"><ele>554.0</ele><time>2026-04-25T10:41:41.241Z</time></trkpt><trkpt lat="45.3289521" lon="7.585819"><ele>554.0</ele><time>2026-04-25T10:41:43.253Z</time></trkpt><trkpt lat="45.3289919" lon="7.5857102"><ele>554.0</ele><time>2026-04-25T10:41:45.246Z</time></trkpt><trkpt lat="45.329055" lon="7.5855937"><ele>554.0</ele><time>2026-04-25T10:41:47.244Z</time></trkpt><trkpt lat="45.3291256" lon="7.5854889"><ele>554.0</ele><time>2026-04-25T10:41:49.25Z</time></trkpt><trkpt lat="45.3291821" lon="7.5853911"><ele>554.0</ele><time>2026-04-25T10:41:51.253Z</time></trkpt><trkpt lat="45.3292225" lon="7.5852823"><ele>555.6</ele><time>2026-04-25T10:41:53.25Z</time></trkpt><trkpt lat="45.3292558" lon="7.5851024"><ele>557.2</ele><time>2026-04-25T10:41:55.252Z</time></trkpt><trkpt lat="45.3292797" lon="7.5849956"><ele>558.8000000000001</ele><time>2026-04-25T10:41:56.249Z</time></trkpt><trkpt lat="45.3292982" lon="7.5848988"><ele>560.4</ele><time>2026-04-25T10:41:57.245Z</time></trkpt><trkpt lat="45.3293381" lon="7.5847816"><ele>562.0</ele><time>2026-04-25T10:41:59.239Z</time></trkpt><trkpt lat="45.3294351" lon="7.5847836"><ele>562.0</ele><time>2026-04-25T10:42:01.24Z</time></trkpt><trkpt lat="45.329512" lon="7.5848987"><ele>562.0</ele><time>2026-04-25T10:42:03.237Z</time></trkpt><trkpt lat="45.3295722" lon="7.5850326"><ele>562.0</ele><time>2026-04-25T10:42:05.245Z</time></trkpt><trkpt lat="45.3296182" lon="7.5851016"><ele>562.0</ele><time>2026-04-25T10:42:06.245Z</time></trkpt><trkpt lat="45.3296761" lon="7.5851665"><ele>562.0</ele><time>2026-04-25T10:42:07.247Z</time></trkpt><trkpt lat="45.3297353" lon="7.5852258"><ele>562.0</ele><time>2026-04-25T10:42:08.25Z</time></trkpt><trkpt lat="45.3297823" lon="7.5853001"><ele>560.8000000000001</ele><time>2026-04-25T10:42:09.246Z</time></trkpt><trkpt lat="45.3298719" lon="7.5854"><ele>559.6</ele><time>2026-04-25T10:42:11.246Z</time></trkpt><trkpt lat="45.3299694" lon="7.5854353"><ele>558.4000000000001</ele><time>2026-04-25T10:42:13.247Z</time></trkpt><trkpt lat="45.3300499" lon="7.5854184"><ele>557.2</ele><time>2026-04-25T10:42:15.242Z</time></trkpt><trkpt lat="45.3301557" lon="7.5853014"><ele>556.0</ele><time>2026-04-25T10:42:17.238Z</time></trkpt><trkpt lat="45.3301962" lon="7.5852176"><ele>556.0</ele><time>2026-04-25T10:42:18.24Z</time></trkpt><trkpt lat="45.3302641" lon="7.5851081"><ele>556.0</ele><time>2026-04-25T10:42:20.24Z</time></trkpt><trkpt lat="45.330341" lon="7.5850696"><ele>556.0</ele><time>2026-04-25T10:42:22.24Z</time></trkpt><trkpt lat="45.3304049" lon="7.5851587"><ele>556.0</ele><time>2026-04-25T10:42:24.24Z</time></trkpt><trkpt lat="45.3304241" lon="7.5852803"><ele>556.0</ele><time>2026-04-25T10:42:25.24Z</time></trkpt><trkpt lat="45.3304446" lon="7.5854059"><ele>555.8333333333334</ele><time>2026-04-25T10:42:26.235Z</time></trkpt><trkpt lat="45.3304741" lon="7.5855229"><ele>555.6666666666667</ele><time>2026-04-25T10:42:27.238Z</time></trkpt><trkpt lat="45.330507" lon="7.585629"><ele>555.5</ele><time>2026-04-25T10:42:28.247Z</time></trkpt><trkpt lat="45.3305574" lon="7.5857045"><ele>555.3333333333334</ele><time>2026-04-25T10:42:29.239Z</time></trkpt><trkpt lat="45.3306265" lon="7.5857422"><ele>555.1666666666666</ele><time>2026-04-25T10:42:30.238Z</time></trkpt><trkpt lat="45.3307271" lon="7.5857148"><ele>555.0</ele><time>2026-04-25T10:42:32.239Z</time></trkpt><trkpt lat="45.3308293" lon="7.5857443"><ele>555.0</ele><time>2026-04-25T10:42:34.239Z</time></trkpt><trkpt lat="45.3309009" lon="7.5858279"><ele>555.0</ele><time>2026-04-25T10:42:36.246Z</time></trkpt><trkpt lat="45.3308941" lon="7.5859257"><ele>555.0</ele><time>2026-04-25T10:42:37.246Z</time></trkpt><trkpt lat="45.3308816" lon="7.5860749"><ele>555.0</ele><time>2026-04-25T10:42:38.245Z</time></trkpt><trkpt lat="45.330895" lon="7.5862308"><ele>555.0</ele><time>2026-04-25T10:42:39.238Z</time></trkpt><trkpt lat="45.3309147" lon="7.5863919"><ele>553.75</ele><time>2026-04-25T10:42:40.233Z</time></trkpt><trkpt lat="45.3309427" lon="7.5865676"><ele>552.5</ele><time>2026-04-25T10:42:41.25Z</time></trkpt><trkpt lat="45.3309847" lon="7.5867392"><ele>551.25</ele><time>2026-04-25T10:42:42.249Z</time></trkpt><trkpt lat="45.3310274" lon="7.586883"><ele>550.0</ele><time>2026-04-25T10:42:43.243Z</time></trkpt><trkpt lat="45.331074" lon="7.5869997"><ele>548.6666666666667</ele><time>2026-04-25T10:42:44.247Z</time></trkpt><trkpt lat="45.3311109" lon="7.5870908"><ele>547.3333333333334</ele><time>2026-04-25T10:42:45.238Z</time></trkpt><trkpt lat="45.3311794" lon="7.587218"><ele>546.0</ele><time>2026-04-25T10:42:47.243Z</time></trkpt><trkpt lat="45.3312654" lon="7.5873191"><ele>544.6666666666666</ele><time>2026-04-25T10:42:49.243Z</time></trkpt><trkpt lat="45.3313273" lon="7.5873571"><ele>543.3333333333333</ele><time>2026-04-25T10:42:50.235Z</time></trkpt><trkpt lat="45.3313952" lon="7.5873817"><ele>542.0</ele><time>2026-04-25T10:42:51.244Z</time></trkpt><trkpt lat="45.3314673" lon="7.5873925"><ele>542.0</ele><time>2026-04-25T10:42:52.235Z</time></trkpt><trkpt lat="45.331557" lon="7.5874045"><ele>542.0</ele><time>2026-04-25T10:42:53.237Z</time></trkpt><trkpt lat="45.331657" lon="7.5874127"><ele>542.0</ele><time>2026-04-25T10:42:54.243Z</time></trkpt><trkpt lat="45.3317571" lon="7.5874018"><ele>542.0</ele><time>2026-04-25T10:42:55.232Z</time></trkpt><trkpt lat="45.3318473" lon="7.5874065"><ele>542.0</ele><time>2026-04-25T10:42:56.237Z</time></trkpt><trkpt lat="45.3319224" lon="7.5874091"><ele>542.0</ele><time>2026-04-25T10:42:57.236Z</time></trkpt><trkpt lat="45.3319908" lon="7.5874198"><ele>542.0</ele><time>2026-04-25T10:42:58.239Z</time></trkpt><trkpt lat="45.3320596" lon="7.587441"><ele>542.0</ele><time>2026-04-25T10:42:59.237Z</time></trkpt><trkpt lat="45.3321154" lon="7.5874965"><ele>542.0</ele><time>2026-04-25T10:43:00.241Z</time></trkpt><trkpt lat="45.3322356" lon="7.5875486"><ele>542.0</ele><time>2026-04-25T10:43:02.233Z</time></trkpt><trkpt lat="45.3323011" lon="7.587535"><ele>542.0</ele><time>2026-04-25T10:43:03.237Z</time></trkpt><trkpt lat="45.3324056" lon="7.5874854"><ele>541.8333333333333</ele><time>2026-04-25T10:43:05.243Z</time></trkpt><trkpt lat="45.3324863" lon="7.5873878"><ele>541.6666666666666</ele><time>2026-04-25T10:43:07.242Z</time></trkpt><trkpt lat="45.3325325" lon="7.5873022"><ele>541.5</ele><time>2026-04-25T10:43:08.244Z</time></trkpt><trkpt lat="45.3325604" lon="7.5872212"><ele>541.3333333333334</ele><time>2026-04-25T10:43:09.238Z</time></trkpt><trkpt lat="45.332631" lon="7.5871916"><ele>541.1666666666667</ele><time>2026-04-25T10:43:11.238Z</time></trkpt><trkpt lat="45.3326903" lon="7.5872674"><ele>541.0</ele><time>2026-04-25T10:43:13.241Z</time></trkpt><trkpt lat="45.3327225" lon="7.5874002"><ele>541.0</ele><time>2026-04-25T10:43:14.244Z</time></trkpt><trkpt lat="45.3327465" lon="7.5875508"><ele>541.0</ele><time>2026-04-25T10:43:15.246Z</time></trkpt><trkpt lat="45.3327629" lon="7.587666"><ele>541.0</ele><time>2026-04-25T10:43:16.249Z</time></trkpt><trkpt lat="45.3328527" lon="7.5877945"><ele>541.0</ele><time>2026-04-25T10:43:18.24Z</time></trkpt><trkpt lat="45.3329161" lon="7.5878471"><ele>541.0</ele><time>2026-04-25T10:43:19.248Z</time></trkpt><trkpt lat="45.3329778" lon="7.5878867"><ele>539.6666666666667</ele><time>2026-04-25T10:43:20.247Z</time></trkpt><trkpt lat="45.3330926" lon="7.5878655"><ele>538.3333333333334</ele><time>2026-04-25T10:43:22.247Z</time></trkpt><trkpt lat="45.3331464" lon="7.587809"><ele>537.0</ele><time>2026-04-25T10:43:23.249Z</time></trkpt><trkpt lat="45.3332185" lon="7.587755"><ele>535.6666666666666</ele><time>2026-04-25T10:43:24.253Z</time></trkpt><trkpt lat="45.3332994" lon="7.5877099"><ele>534.3333333333333</ele><time>2026-04-25T10:43:25.256Z</time></trkpt><trkpt lat="45.3333678" lon="7.5876617"><ele>533.0</ele><time>2026-04-25T10:43:26.249Z</time></trkpt><trkpt lat="45.3334382" lon="7.5876107"><ele>533.0</ele><time>2026-04-25T10:43:27.25Z</time></trkpt><trkpt lat="45.3335004" lon="7.5875615"><ele>533.0</ele><time>2026-04-25T10:43:28.253Z</time></trkpt><trkpt lat="45.3335553" lon="7.587504"><ele>533.0</ele><time>2026-04-25T10:43:29.251Z</time></trkpt><trkpt lat="45.3335995" lon="7.5874222"><ele>533.0</ele><time>2026-04-25T10:43:30.242Z</time></trkpt><trkpt lat="45.3336397" lon="7.5873018"><ele>533.0</ele><time>2026-04-25T10:43:31.249Z</time></trkpt><trkpt lat="45.3336805" lon="7.5871491"><ele>533.0</ele><time>2026-04-25T10:43:32.236Z</time></trkpt><trkpt lat="45.3337201" lon="7.587016"><ele>533.8</ele><time>2026-04-25T10:43:33.247Z</time></trkpt><trkpt lat="45.3337542" lon="7.5869406"><ele>534.5999999999999</ele><time>2026-04-25T10:43:34.231Z</time></trkpt><trkpt lat="45.3337866" lon="7.5868194"><ele>535.4000000000001</ele><time>2026-04-25T10:43:36.231Z</time></trkpt><trkpt lat="45.3338542" lon="7.5866927"><ele>536.2</ele><time>2026-04-25T10:43:38.23Z</time></trkpt><trkpt lat="45.33389" lon="7.5865361"><ele>537.0</ele><time>2026-04-25T10:43:40.233Z</time></trkpt><trkpt lat="45.3339357" lon="7.5864466"><ele>537.0</ele><time>2026-04-25T10:43:43.232Z</time></trkpt><trkpt lat="45.3340307" lon="7.5864739"><ele>537.0</ele><time>2026-04-25T10:43:45.221Z</time></trkpt><trkpt lat="45.3340415" lon="7.5865699"><ele>537.0</ele><time>2026-04-25T10:43:46.22Z</time></trkpt><trkpt lat="45.3340535" lon="7.5866733"><ele>537.0</ele><time>2026-04-25T10:43:47.223Z</time></trkpt><trkpt lat="45.3340395" lon="7.5868144"><ele>537.0</ele><time>2026-04-25T10:43:48.23Z</time></trkpt><trkpt lat="45.3340411" lon="7.5869407"><ele>537.0</ele><time>2026-04-25T10:43:49.222Z</time></trkpt><trkpt lat="45.3340737" lon="7.5870515"><ele>534.0</ele><time>2026-04-25T10:43:50.227Z</time></trkpt><trkpt lat="45.3341327" lon="7.5871493"><ele>531.0</ele><time>2026-04-25T10:43:51.241Z</time></trkpt><trkpt lat="45.3342123" lon="7.5872666"><ele>528.0</ele><time>2026-04-25T10:43:52.234Z</time></trkpt><trkpt lat="45.3342912" lon="7.5873404"><ele>525.0</ele><time>2026-04-25T10:43:53.235Z</time></trkpt><trkpt lat="45.3343547" lon="7.5873948"><ele>522.0</ele><time>2026-04-25T10:43:54.245Z</time></trkpt><trkpt lat="45.3344351" lon="7.5874341"><ele>522.0</ele><time>2026-04-25T10:43:55.237Z</time></trkpt><trkpt lat="45.3345112" lon="7.5874464"><ele>522.0</ele><time>2026-04-25T10:43:56.235Z</time></trkpt><trkpt lat="45.3345747" lon="7.5874582"><ele>522.0</ele><time>2026-04-25T10:43:57.239Z</time></trkpt><trkpt lat="45.3346754" lon="7.5875502"><ele>522.0</ele><time>2026-04-25T10:43:59.246Z</time></trkpt><trkpt lat="45.3346935" lon="7.5876535"><ele>522.0</ele><time>2026-04-25T10:44:00.241Z</time></trkpt><trkpt lat="45.3347198" lon="7.5877974"><ele>522.0</ele><time>2026-04-25T10:44:02.239Z</time></trkpt><trkpt lat="45.3348116" lon="7.5878007"><ele>521.7142857142858</ele><time>2026-04-25T10:44:05.239Z</time></trkpt><trkpt lat="45.3348608" lon="7.5877351"><ele>521.4285714285714</ele><time>2026-04-25T10:44:06.248Z</time></trkpt><trkpt lat="45.3349182" lon="7.5876538"><ele>521.1428571428571</ele><time>2026-04-25T10:44:07.244Z</time></trkpt><trkpt lat="45.3349657" lon="7.5875919"><ele>520.8571428571429</ele><time>2026-04-25T10:44:08.246Z</time></trkpt><trkpt lat="45.3350175" lon="7.5875369"><ele>520.5714285714286</ele><time>2026-04-25T10:44:10.238Z</time></trkpt><trkpt lat="45.335077" lon="7.5874688"><ele>520.2857142857143</ele><time>2026-04-25T10:44:12.231Z</time></trkpt><trkpt lat="45.3351553" lon="7.5874812"><ele>520.0</ele><time>2026-04-25T10:44:14.231Z</time></trkpt><trkpt lat="45.3352388" lon="7.5875368"><ele>520.0</ele><time>2026-04-25T10:44:16.236Z</time></trkpt><trkpt lat="45.3353053" lon="7.5875657"><ele>520.0</ele><time>2026-04-25T10:44:23.232Z</time></trkpt><trkpt lat="45.3352973" lon="7.5876985"><ele>520.0</ele><time>2026-04-25T10:44:27.232Z</time></trkpt><trkpt lat="45.335189" lon="7.587817"><ele>520.0</ele><time>2026-04-25T10:44:29.237Z</time></trkpt><trkpt lat="45.335144" lon="7.5879033"><ele>520.0</ele><time>2026-04-25T10:44:30.231Z</time></trkpt><trkpt lat="45.3351467" lon="7.5880821"><ele>518.6</ele><time>2026-04-25T10:44:32.241Z</time></trkpt><trkpt lat="45.3351902" lon="7.5881588"><ele>517.2</ele><time>2026-04-25T10:44:33.243Z</time></trkpt><trkpt lat="45.3352373" lon="7.5883128"><ele>515.8</ele><time>2026-04-25T10:44:35.23Z</time></trkpt><trkpt lat="45.3352653" lon="7.588413"><ele>514.4</ele><time>2026-04-25T10:44:36.24Z</time></trkpt><trkpt lat="45.3352882" lon="7.5885019"><ele>513.0</ele><time>2026-04-25T10:44:37.232Z</time></trkpt><trkpt lat="45.3353872" lon="7.5886301"><ele>513.1666666666666</ele><time>2026-04-25T10:44:39.238Z</time></trkpt><trkpt lat="45.3354642" lon="7.5886816"><ele>513.3333333333334</ele><time>2026-04-25T10:44:40.235Z</time></trkpt><trkpt lat="45.3355479" lon="7.5887405"><ele>513.5</ele><time>2026-04-25T10:44:41.236Z</time></trkpt><trkpt lat="45.3356101" lon="7.5888246"><ele>513.6666666666667</ele><time>2026-04-25T10:44:42.236Z</time></trkpt><trkpt lat="45.3356606" lon="7.5889196"><ele>513.8333333333334</ele><time>2026-04-25T10:44:43.232Z</time></trkpt><trkpt lat="45.3356998" lon="7.5890292"><ele>514.0</ele><time>2026-04-25T10:44:44.234Z</time></trkpt><trkpt lat="45.335725" lon="7.5891476"><ele>519.0</ele><time>2026-04-25T10:44:45.233Z</time></trkpt><trkpt lat="45.3357446" lon="7.5892964"><ele>524.0</ele><time>2026-04-25T10:44:46.238Z</time></trkpt><trkpt lat="45.3357514" lon="7.5894657"><ele>529.0</ele><time>2026-04-25T10:44:47.236Z</time></trkpt><trkpt lat="45.3357541" lon="7.5896448"><ele>534.0</ele><time>2026-04-25T10:44:48.234Z</time></trkpt><trkpt lat="45.3357599" lon="7.5898136"><ele>534.0</ele><time>2026-04-25T10:44:49.237Z</time></trkpt><trkpt lat="45.3357502" lon="7.5899661"><ele>534.0</ele><time>2026-04-25T10:44:50.232Z</time></trkpt><trkpt lat="45.3357634" lon="7.5900902"><ele>534.0</ele><time>2026-04-25T10:44:51.232Z</time></trkpt><trkpt lat="45.335756" lon="7.5902116"><ele>534.0</ele><time>2026-04-25T10:44:52.228Z</time></trkpt><trkpt lat="45.3357306" lon="7.5903646"><ele>534.0</ele><time>2026-04-25T10:44:53.233Z</time></trkpt><trkpt lat="45.3357041" lon="7.5904734"><ele>534.0</ele><time>2026-04-25T10:44:54.243Z</time></trkpt><trkpt lat="45.335682" lon="7.5905755"><ele>534.0</ele><time>2026-04-25T10:44:56.228Z</time></trkpt><trkpt lat="45.3357423" lon="7.590547"><ele>534.0</ele><time>2026-04-25T10:45:03.229Z</time></trkpt><trkpt lat="45.3357945" lon="7.5904044"><ele>534.0</ele><time>2026-04-25T10:45:05.229Z</time></trkpt><trkpt lat="45.3358404" lon="7.590296"><ele>534.0</ele><time>2026-04-25T10:45:06.24Z</time></trkpt><trkpt lat="45.3358867" lon="7.590187"><ele>534.0</ele><time>2026-04-25T10:45:07.229Z</time></trkpt><trkpt lat="45.3359298" lon="7.590094"><ele>534.0</ele><time>2026-04-25T10:45:08.233Z</time></trkpt><trkpt lat="45.3359741" lon="7.590016"><ele>534.0</ele><time>2026-04-25T10:45:09.234Z</time></trkpt><trkpt lat="45.3360094" lon="7.5899268"><ele>534.0</ele><time>2026-04-25T10:45:10.228Z</time></trkpt><trkpt lat="45.3360506" lon="7.5898408"><ele>534.0</ele><time>2026-04-25T10:45:11.233Z</time></trkpt><trkpt lat="45.3360914" lon="7.5897499"><ele>534.0</ele><time>2026-04-25T10:45:12.232Z</time></trkpt><trkpt lat="45.3361366" lon="7.589649"><ele>534.0</ele><time>2026-04-25T10:45:13.236Z</time></trkpt><trkpt lat="45.3361933" lon="7.5895361"><ele>534.0</ele><time>2026-04-25T10:45:14.227Z</time></trkpt><trkpt lat="45.3362539" lon="7.5894326"><ele>534.0</ele><time>2026-04-25T10:45:15.229Z</time></trkpt><trkpt lat="45.3363176" lon="7.5893455"><ele>534.0</ele><time>2026-04-25T10:45:16.231Z</time></trkpt><trkpt lat="45.3363881" lon="7.5892485"><ele>534.0</ele><time>2026-04-25T10:45:17.228Z</time></trkpt><trkpt lat="45.3364867" lon="7.589152"><ele>534.0</ele><time>2026-04-25T10:45:18.23Z</time></trkpt><trkpt lat="45.3366032" lon="7.5890707"><ele>536.5</ele><time>2026-04-25T10:45:19.231Z</time></trkpt><trkpt lat="45.3367235" lon="7.5889919"><ele>539.0</ele><time>2026-04-25T10:45:20.23Z</time></trkpt><trkpt lat="45.3368363" lon="7.5889076"><ele>541.5</ele><time>2026-04-25T10:45:21.239Z</time></trkpt><trkpt lat="45.3369503" lon="7.5888192"><ele>544.0</ele><time>2026-04-25T10:45:22.231Z</time></trkpt><trkpt lat="45.3370691" lon="7.5887272"><ele>542.75</ele><time>2026-04-25T10:45:23.239Z</time></trkpt><trkpt lat="45.3371848" lon="7.5886137"><ele>541.5</ele><time>2026-04-25T10:45:24.232Z</time></trkpt><trkpt lat="45.337294" lon="7.5884942"><ele>540.25</ele><time>2026-04-25T10:45:25.237Z</time></trkpt><trkpt lat="45.3373942" lon="7.5883693"><ele>539.0</ele><time>2026-04-25T10:45:26.233Z</time></trkpt><trkpt lat="45.3374904" lon="7.5882432"><ele>541.4</ele><time>2026-04-25T10:45:27.234Z</time></trkpt><trkpt lat="45.3375894" lon="7.5881207"><ele>543.8</ele><time>2026-04-25T10:45:28.237Z</time></trkpt><trkpt lat="45.3376775" lon="7.5880094"><ele>546.2</ele><time>2026-04-25T10:45:29.231Z</time></trkpt><trkpt lat="45.3377589" lon="7.5879167"><ele>548.6</ele><time>2026-04-25T10:45:30.239Z</time></trkpt><trkpt lat="45.3378215" lon="7.5878391"><ele>551.0</ele><time>2026-04-25T10:45:31.237Z</time></trkpt><trkpt lat="45.3378728" lon="7.5877656"><ele>551.2</ele><time>2026-04-25T10:45:32.229Z</time></trkpt><trkpt lat="45.3379339" lon="7.5877059"><ele>551.4000000000001</ele><time>2026-04-25T10:45:33.232Z</time></trkpt><trkpt lat="45.3380036" lon="7.587648"><ele>551.6</ele><time>2026-04-25T10:45:34.226Z</time></trkpt><trkpt lat="45.338089" lon="7.5875789"><ele>551.8000000000001</ele><time>2026-04-25T10:45:35.231Z</time></trkpt><trkpt lat="45.3381906" lon="7.5874902"><ele>552.0</ele><time>2026-04-25T10:45:36.229Z</time></trkpt><trkpt lat="45.3382887" lon="7.587402"><ele>553.5</ele><time>2026-04-25T10:45:37.231Z</time></trkpt><trkpt lat="45.3383772" lon="7.5872946"><ele>555.0</ele><time>2026-04-25T10:45:38.225Z</time></trkpt><trkpt lat="45.3384468" lon="7.5871567"><ele>556.5</ele><time>2026-04-25T10:45:39.232Z</time></trkpt><trkpt lat="45.3384965" lon="7.5870063"><ele>558.0</ele><time>2026-04-25T10:45:40.229Z</time></trkpt><trkpt lat="45.3385432" lon="7.5868594"><ele>558.6</ele><time>2026-04-25T10:45:41.23Z</time></trkpt><trkpt lat="45.3385897" lon="7.5867402"><ele>559.1999999999999</ele><time>2026-04-25T10:45:42.23Z</time></trkpt><trkpt lat="45.3386294" lon="7.5866554"><ele>559.8</ele><time>2026-04-25T10:45:43.232Z</time></trkpt><trkpt lat="45.3386899" lon="7.5865258"><ele>560.4</ele><time>2026-04-25T10:45:45.234Z</time></trkpt><trkpt lat="45.338695" lon="7.5863771"><ele>561.0</ele><time>2026-04-25T10:45:47.224Z</time></trkpt><trkpt lat="45.3386589" lon="7.5862836"><ele>561.6</ele><time>2026-04-25T10:45:48.227Z</time></trkpt><trkpt lat="45.3385872" lon="7.5861748"><ele>562.2</ele><time>2026-04-25T10:45:49.226Z</time></trkpt><trkpt lat="45.3385136" lon="7.5860581"><ele>562.8</ele><time>2026-04-25T10:45:50.226Z</time></trkpt><trkpt lat="45.3384655" lon="7.5859497"><ele>563.4</ele><time>2026-04-25T10:45:51.225Z</time></trkpt><trkpt lat="45.3384349" lon="7.5858517"><ele>564.0</ele><time>2026-04-25T10:45:52.216Z</time></trkpt><trkpt lat="45.338422" lon="7.5857494"><ele>564.0</ele><time>2026-04-25T10:45:53.214Z</time></trkpt><trkpt lat="45.3384293" lon="7.5856065"><ele>564.0</ele><time>2026-04-25T10:45:55.216Z</time></trkpt><trkpt lat="45.3384624" lon="7.5855144"><ele>564.0</ele><time>2026-04-25T10:45:57.228Z</time></trkpt><trkpt lat="45.3384879" lon="7.5853935"><ele>564.0</ele><time>2026-04-25T10:45:59.228Z</time></trkpt><trkpt lat="45.3385027" lon="7.5852944"><ele>564.0</ele><time>2026-04-25T10:46:00.229Z</time></trkpt><trkpt lat="45.3385351" lon="7.5851713"><ele>564.0</ele><time>2026-04-25T10:46:01.238Z</time></trkpt><trkpt lat="45.3385619" lon="7.5850504"><ele>562.8333333333334</ele><time>2026-04-25T10:46:02.231Z</time></trkpt><trkpt lat="45.3385983" lon="7.5849493"><ele>561.6666666666666</ele><time>2026-04-25T10:46:03.232Z</time></trkpt><trkpt lat="45.3386222" lon="7.5848606"><ele>560.5</ele><time>2026-04-25T10:46:04.225Z</time></trkpt><trkpt lat="45.3386401" lon="7.5847639"><ele>559.3333333333333</ele><time>2026-04-25T10:46:05.239Z</time></trkpt><trkpt lat="45.3386991" lon="7.5847061"><ele>558.1666666666666</ele><time>2026-04-25T10:46:06.224Z</time></trkpt><trkpt lat="45.3387851" lon="7.5846586"><ele>557.0</ele><time>2026-04-25T10:46:07.217Z</time></trkpt><trkpt lat="45.3388886" lon="7.5846097"><ele>558.0</ele><time>2026-04-25T10:46:08.231Z</time></trkpt><trkpt lat="45.3389929" lon="7.5845308"><ele>559.0</ele><time>2026-04-25T10:46:09.223Z</time></trkpt><trkpt lat="45.3390862" lon="7.5844414"><ele>560.0</ele><time>2026-04-25T10:46:10.221Z</time></trkpt><trkpt lat="45.3391682" lon="7.5843157"><ele>561.0</ele><time>2026-04-25T10:46:11.226Z</time></trkpt><trkpt lat="45.3392358" lon="7.5841816"><ele>561.0</ele><time>2026-04-25T10:46:12.227Z</time></trkpt><trkpt lat="45.3392888" lon="7.5840482"><ele>561.0</ele><time>2026-04-25T10:46:13.225Z</time></trkpt><trkpt lat="45.33934" lon="7.5838896"><ele>561.0</ele><time>2026-04-25T10:46:14.227Z</time></trkpt><trkpt lat="45.3393861" lon="7.5837252"><ele>561.0</ele><time>2026-04-25T10:46:15.233Z</time></trkpt><trkpt lat="45.3394193" lon="7.5835621"><ele>559.0</ele><time>2026-04-25T10:46:16.229Z</time></trkpt><trkpt lat="45.3394572" lon="7.5834032"><ele>557.0</ele><time>2026-04-25T10:46:17.231Z</time></trkpt><trkpt lat="45.3395055" lon="7.5832301"><ele>555.0</ele><time>2026-04-25T10:46:18.234Z</time></trkpt><trkpt lat="45.3395571" lon="7.5830686"><ele>553.0</ele><time>2026-04-25T10:46:19.224Z</time></trkpt><trkpt lat="45.3396063" lon="7.5829389"><ele>553.1999999999999</ele><time>2026-04-25T10:46:20.225Z</time></trkpt><trkpt lat="45.3396539" lon="7.5828084"><ele>553.4</ele><time>2026-04-25T10:46:21.229Z</time></trkpt><trkpt lat="45.3396862" lon="7.5826837"><ele>553.5999999999999</ele><time>2026-04-25T10:46:22.219Z</time></trkpt><trkpt lat="45.3397032" lon="7.5825574"><ele>553.8</ele><time>2026-04-25T10:46:23.23Z</time></trkpt><trkpt lat="45.3396923" lon="7.5824314"><ele>554.0</ele><time>2026-04-25T10:46:24.228Z</time></trkpt><trkpt lat="45.3396746" lon="7.5822981"><ele>554.0</ele><time>2026-04-25T10:46:25.23Z</time></trkpt><trkpt lat="45.3396734" lon="7.5821792"><ele>554.0</ele><time>2026-04-25T10:46:26.228Z</time></trkpt><trkpt lat="45.3396879" lon="7.5820706"><ele>554.0</ele><time>2026-04-25T10:46:27.224Z</time></trkpt><trkpt lat="45.3397219" lon="7.5819676"><ele>554.0</ele><time>2026-04-25T10:46:28.228Z</time></trkpt><trkpt lat="45.3397723" lon="7.5818773"><ele>554.0</ele><time>2026-04-25T10:46:29.224Z</time></trkpt><trkpt lat="45.3398102" lon="7.5817929"><ele>554.0</ele><time>2026-04-25T10:46:30.217Z</time></trkpt><trkpt lat="45.3398019" lon="7.5816383"><ele>556.8</ele><time>2026-04-25T10:46:32.221Z</time></trkpt><trkpt lat="45.339744" lon="7.5815583"><ele>559.5999999999999</ele><time>2026-04-25T10:46:34.219Z</time></trkpt><trkpt lat="45.3397235" lon="7.5814315"><ele>562.4</ele><time>2026-04-25T10:46:36.224Z</time></trkpt><trkpt lat="45.3396826" lon="7.5813253"><ele>565.1999999999999</ele><time>2026-04-25T10:46:37.222Z</time></trkpt><trkpt lat="45.3396413" lon="7.5812141"><ele>568.0</ele><time>2026-04-25T10:46:38.218Z</time></trkpt><trkpt lat="45.3395791" lon="7.5810811"><ele>570.0</ele><time>2026-04-25T10:46:39.212Z</time></trkpt><trkpt lat="45.339535" lon="7.5809806"><ele>572.0</ele><time>2026-04-25T10:46:40.214Z</time></trkpt><trkpt lat="45.3394715" lon="7.5808881"><ele>574.0</ele><time>2026-04-25T10:46:41.219Z</time></trkpt><trkpt lat="45.3394281" lon="7.5808059"><ele>576.0</ele><time>2026-04-25T10:46:42.217Z</time></trkpt><trkpt lat="45.3394046" lon="7.5807142"><ele>578.0</ele><time>2026-04-25T10:46:43.219Z</time></trkpt><trkpt lat="45.339394" lon="7.5806095"><ele>580.0</ele><time>2026-04-25T10:46:44.21Z</time></trkpt><trkpt lat="45.3394233" lon="7.580468"><ele>582.25</ele><time>2026-04-25T10:46:45.226Z</time></trkpt><trkpt lat="45.3394403" lon="7.5802999"><ele>584.5</ele><time>2026-04-25T10:46:46.211Z</time></trkpt><trkpt lat="45.3394632" lon="7.5800988"><ele>586.75</ele><time>2026-04-25T10:46:47.218Z</time></trkpt><trkpt lat="45.339492" lon="7.5799142"><ele>589.0</ele><time>2026-04-25T10:46:48.222Z</time></trkpt><trkpt lat="45.3395424" lon="7.5797302"><ele>589.0</ele><time>2026-04-25T10:46:49.224Z</time></trkpt><trkpt lat="45.3395872" lon="7.5795791"><ele>589.0</ele><time>2026-04-25T10:46:50.219Z</time></trkpt><trkpt lat="45.3396027" lon="7.5794405"><ele>589.0</ele><time>2026-04-25T10:46:51.221Z</time></trkpt><trkpt lat="45.3395906" lon="7.5792972"><ele>589.0</ele><time>2026-04-25T10:46:52.219Z</time></trkpt><trkpt lat="45.3395598" lon="7.5791719"><ele>589.0</ele><time>2026-04-25T10:46:53.214Z</time></trkpt><trkpt lat="45.3394814" lon="7.5790682"><ele>589.6666666666667</ele><time>2026-04-25T10:46:54.219Z</time></trkpt><trkpt lat="45.3394047" lon="7.5789776"><ele>590.3333333333334</ele><time>2026-04-25T10:46:55.217Z</time></trkpt><trkpt lat="45.3393432" lon="7.5788783"><ele>591.0</ele><time>2026-04-25T10:46:56.226Z</time></trkpt><trkpt lat="45.3392939" lon="7.5787966"><ele>591.6666666666666</ele><time>2026-04-25T10:46:57.226Z</time></trkpt><trkpt lat="45.3392286" lon="7.578744"><ele>592.3333333333333</ele><time>2026-04-25T10:46:58.22Z</time></trkpt><trkpt lat="45.339156" lon="7.5787112"><ele>593.0</ele><time>2026-04-25T10:46:59.223Z</time></trkpt><trkpt lat="45.3390887" lon="7.5787657"><ele>593.0</ele><time>2026-04-25T10:47:01.225Z</time></trkpt><trkpt lat="45.3390873" lon="7.5788639"><ele>593.0</ele><time>2026-04-25T10:47:02.23Z</time></trkpt><trkpt lat="45.3390997" lon="7.5789671"><ele>593.0</ele><time>2026-04-25T10:47:03.223Z</time></trkpt><trkpt lat="45.3391137" lon="7.5790847"><ele>593.0</ele><time>2026-04-25T10:47:04.222Z</time></trkpt><trkpt lat="45.3391409" lon="7.5792439"><ele>593.0</ele><time>2026-04-25T10:47:05.217Z</time></trkpt><trkpt lat="45.339136" lon="7.5794048"><ele>592.1999999999999</ele><time>2026-04-25T10:47:06.22Z</time></trkpt><trkpt lat="45.3391336" lon="7.5795604"><ele>591.4</ele><time>2026-04-25T10:47:07.227Z</time></trkpt><trkpt lat="45.3390991" lon="7.5796991"><ele>590.5999999999999</ele><time>2026-04-25T10:47:08.225Z</time></trkpt><trkpt lat="45.3390499" lon="7.5798231"><ele>589.8</ele><time>2026-04-25T10:47:09.227Z</time></trkpt><trkpt lat="45.3389695" lon="7.5799091"><ele>589.0</ele><time>2026-04-25T10:47:10.225Z</time></trkpt><trkpt lat="45.3388596" lon="7.5799658"><ele>594.5</ele><time>2026-04-25T10:47:11.22Z</time></trkpt><trkpt lat="45.3387322" lon="7.5800323"><ele>600.0</ele><time>2026-04-25T10:47:12.219Z</time></trkpt><trkpt lat="45.3386119" lon="7.5800915"><ele>605.5</ele><time>2026-04-25T10:47:13.224Z</time></trkpt><trkpt lat="45.3384949" lon="7.580108"><ele>611.0</ele><time>2026-04-25T10:47:14.217Z</time></trkpt><trkpt lat="45.3384224" lon="7.5800822"><ele>611.0</ele><time>2026-04-25T10:47:15.223Z</time></trkpt><trkpt lat="45.3383732" lon="7.5800245"><ele>611.0</ele><time>2026-04-25T10:47:16.218Z</time></trkpt><trkpt lat="45.3383504" lon="7.5798416"><ele>611.0</ele><time>2026-04-25T10:47:18.226Z</time></trkpt><trkpt lat="45.3383789" lon="7.5797468"><ele>611.0</ele><time>2026-04-25T10:47:19.229Z</time></trkpt><trkpt lat="45.33845" lon="7.579619"><ele>611.0</ele><time>2026-04-25T10:47:20.229Z</time></trkpt><trkpt lat="45.3385241" lon="7.5794704"><ele>611.4</ele><time>2026-04-25T10:47:21.236Z</time></trkpt><trkpt lat="45.338583" lon="7.5793212"><ele>611.8</ele><time>2026-04-25T10:47:22.234Z</time></trkpt><trkpt lat="45.3385898" lon="7.5791848"><ele>612.1999999999999</ele><time>2026-04-25T10:47:23.23Z</time></trkpt><trkpt lat="45.3385999" lon="7.579069"><ele>612.6</ele><time>2026-04-25T10:47:24.232Z</time></trkpt><trkpt lat="45.3385677" lon="7.57899"><ele>613.0</ele><time>2026-04-25T10:47:25.231Z</time></trkpt><trkpt lat="45.3384595" lon="7.5789357"><ele>613.0</ele><time>2026-04-25T10:47:27.225Z</time></trkpt><trkpt lat="45.3383696" lon="7.5789721"><ele>613.0</ele><time>2026-04-25T10:47:28.227Z</time></trkpt><trkpt lat="45.3382661" lon="7.5790366"><ele>613.0</ele><time>2026-04-25T10:47:29.239Z</time></trkpt><trkpt lat="45.3381549" lon="7.5791242"><ele>613.0</ele><time>2026-04-25T10:47:30.226Z</time></trkpt><trkpt lat="45.3380591" lon="7.5791797"><ele>613.0</ele><time>2026-04-25T10:47:31.227Z</time></trkpt><trkpt lat="45.3379664" lon="7.5792317"><ele>618.0</ele><time>2026-04-25T10:47:32.237Z</time></trkpt><trkpt lat="45.3378666" lon="7.5792453"><ele>623.0</ele><time>2026-04-25T10:47:33.23Z</time></trkpt><trkpt lat="45.3377575" lon="7.5792534"><ele>628.0</ele><time>2026-04-25T10:47:34.224Z</time></trkpt><trkpt lat="45.337638" lon="7.5792278"><ele>633.0</ele><time>2026-04-25T10:47:35.221Z</time></trkpt><trkpt lat="45.3375172" lon="7.5791743"><ele>633.0</ele><time>2026-04-25T10:47:36.23Z</time></trkpt><trkpt lat="45.3374042" lon="7.579106"><ele>633.0</ele><time>2026-04-25T10:47:37.22Z</time></trkpt><trkpt lat="45.3372952" lon="7.5790445"><ele>633.0</ele><time>2026-04-25T10:47:38.227Z</time></trkpt><trkpt lat="45.3371816" lon="7.5789992"><ele>633.0</ele><time>2026-04-25T10:47:39.231Z</time></trkpt><trkpt lat="45.3370716" lon="7.5789429"><ele>638.2</ele><time>2026-04-25T10:47:40.229Z</time></trkpt><trkpt lat="45.3369818" lon="7.5788905"><ele>643.4</ele><time>2026-04-25T10:47:41.221Z</time></trkpt><trkpt lat="45.3369111" lon="7.5788512"><ele>648.6</ele><time>2026-04-25T10:47:42.225Z</time></trkpt><trkpt lat="45.3368153" lon="7.5788187"><ele>653.8000000000001</ele><time>2026-04-25T10:47:44.227Z</time></trkpt><trkpt lat="45.3367557" lon="7.5789243"><ele>659.0</ele><time>2026-04-25T10:47:46.226Z</time></trkpt><trkpt lat="45.3368012" lon="7.5790878"><ele>659.0</ele><time>2026-04-25T10:47:48.221Z</time></trkpt><trkpt lat="45.3368519" lon="7.5792222"><ele>659.0</ele><time>2026-04-25T10:47:49.227Z</time></trkpt><trkpt lat="45.3369114" lon="7.5793806"><ele>659.0</ele><time>2026-04-25T10:47:50.228Z</time></trkpt><trkpt lat="45.3369484" lon="7.5795386"><ele>659.0</ele><time>2026-04-25T10:47:51.226Z</time></trkpt><trkpt lat="45.3369562" lon="7.579693"><ele>659.6</ele><time>2026-04-25T10:47:52.229Z</time></trkpt><trkpt lat="45.3369464" lon="7.5798234"><ele>660.2</ele><time>2026-04-25T10:47:53.221Z</time></trkpt><trkpt lat="45.3369142" lon="7.5799823"><ele>660.8000000000001</ele><time>2026-04-25T10:47:54.222Z</time></trkpt><trkpt lat="45.3369148" lon="7.5801331"><ele>661.4000000000001</ele><time>2026-04-25T10:47:55.221Z</time></trkpt><trkpt lat="45.3368779" lon="7.5802713"><ele>662.0</ele><time>2026-04-25T10:47:56.23Z</time></trkpt><trkpt lat="45.3368324" lon="7.5804116"><ele>662.0</ele><time>2026-04-25T10:47:57.23Z</time></trkpt><trkpt lat="45.3367752" lon="7.5805136"><ele>662.0</ele><time>2026-04-25T10:47:58.226Z</time></trkpt><trkpt lat="45.3367198" lon="7.5805662"><ele>662.0</ele><time>2026-04-25T10:47:59.234Z</time></trkpt><trkpt lat="45.3366623" lon="7.5806772"><ele>662.0</ele><time>2026-04-25T10:48:01.237Z</time></trkpt><trkpt lat="45.3366587" lon="7.5808156"><ele>662.0</ele><time>2026-04-25T10:48:04.231Z</time></trkpt><trkpt lat="45.3366151" lon="7.5809547"><ele>662.0</ele><time>2026-04-25T10:48:07.224Z</time></trkpt><trkpt lat="45.3365773" lon="7.5810288"><ele>662.0</ele><time>2026-04-25T10:48:08.241Z</time></trkpt><trkpt lat="45.3365138" lon="7.5811005"><ele>662.0</ele><time>2026-04-25T10:48:09.236Z</time></trkpt><trkpt lat="45.3364307" lon="7.5811687"><ele>662.0</ele><time>2026-04-25T10:48:10.235Z</time></trkpt><trkpt lat="45.3363245" lon="7.581235"><ele>662.0</ele><time>2026-04-25T10:48:11.234Z</time></trkpt><trkpt lat="45.3362228" lon="7.5813181"><ele>664.8</ele><time>2026-04-25T10:48:12.233Z</time></trkpt><trkpt lat="45.336144" lon="7.5814048"><ele>667.6</ele><time>2026-04-25T10:48:13.233Z</time></trkpt><trkpt lat="45.3360965" lon="7.5814738"><ele>670.4</ele><time>2026-04-25T10:48:14.228Z</time></trkpt><trkpt lat="45.3360439" lon="7.5816049"><ele>673.1999999999999</ele><time>2026-04-25T10:48:16.236Z</time></trkpt><trkpt lat="45.3359918" lon="7.5817374"><ele>676.0</ele><time>2026-04-25T10:48:18.239Z</time></trkpt><trkpt lat="45.3359415" lon="7.5818606"><ele>676.0</ele><time>2026-04-25T10:48:20.238Z</time></trkpt><trkpt lat="45.3358729" lon="7.581976"><ele>676.0</ele><time>2026-04-25T10:48:22.245Z</time></trkpt><trkpt lat="45.3357986" lon="7.5821045"><ele>676.0</ele><time>2026-04-25T10:48:24.241Z</time></trkpt><trkpt lat="45.3357136" lon="7.5821429"><ele>676.0</ele><time>2026-04-25T10:48:26.229Z</time></trkpt><trkpt lat="45.3355971" lon="7.5820527"><ele>676.0</ele><time>2026-04-25T10:48:28.232Z</time></trkpt><trkpt lat="45.3355438" lon="7.5819776"><ele>676.0</ele><time>2026-04-25T10:48:29.244Z</time></trkpt><trkpt lat="45.3355025" lon="7.5819032"><ele>676.0</ele><time>2026-04-25T10:48:30.237Z</time></trkpt><trkpt lat="45.3354726" lon="7.581803"><ele>676.0</ele><time>2026-04-25T10:48:31.238Z</time></trkpt><trkpt lat="45.335449" lon="7.5817"><ele>676.0</ele><time>2026-04-25T10:48:32.241Z</time></trkpt><trkpt lat="45.3354363" lon="7.5815796"><ele>676.0</ele><time>2026-04-25T10:48:34.236Z</time></trkpt><trkpt lat="45.335466" lon="7.5815006"><ele>676.0</ele><time>2026-04-25T10:48:36.241Z</time></trkpt><trkpt lat="45.3356099" lon="7.5815201"><ele>676.0</ele><time>2026-04-25T10:48:38.231Z</time></trkpt><trkpt lat="45.3356818" lon="7.5815218"><ele>676.0</ele><time>2026-04-25T10:48:39.24Z</time></trkpt><trkpt lat="45.3357272" lon="7.5814504"><ele>676.0</ele><time>2026-04-25T10:48:40.229Z</time></trkpt><trkpt lat="45.3357465" lon="7.5813522"><ele>676.0</ele><time>2026-04-25T10:48:41.258Z</time></trkpt><trkpt lat="45.335748" lon="7.5812262"><ele>676.0</ele><time>2026-04-25T10:48:42.266Z</time></trkpt><trkpt lat="45.3357421" lon="7.5810931"><ele>676.0</ele><time>2026-04-25T10:48:43.269Z</time></trkpt><trkpt lat="45.3357406" lon="7.5809575"><ele>678.5999999999999</ele><time>2026-04-25T10:48:44.248Z</time></trkpt><trkpt lat="45.3357264" lon="7.5808096"><ele>681.2</ele><time>2026-04-25T10:48:45.257Z</time></trkpt><trkpt lat="45.3357163" lon="7.5806893"><ele>683.8</ele><time>2026-04-25T10:48:46.224Z</time></trkpt><trkpt lat="45.3357096" lon="7.5805863"><ele>686.4000000000001</ele><time>2026-04-25T10:48:47.227Z</time></trkpt><trkpt lat="45.3357703" lon="7.5804314"><ele>689.0</ele><time>2026-04-25T10:48:49.229Z</time></trkpt><trkpt lat="45.3358217" lon="7.5803717"><ele>691.1666666666666</ele><time>2026-04-25T10:48:50.224Z</time></trkpt><trkpt lat="45.3358815" lon="7.5802961"><ele>693.3333333333333</ele><time>2026-04-25T10:48:51.227Z</time></trkpt><trkpt lat="45.3359257" lon="7.5802251"><ele>695.5</ele><time>2026-04-25T10:48:52.235Z</time></trkpt><trkpt lat="45.3358881" lon="7.5801151"><ele>697.6666666666666</ele><time>2026-04-25T10:48:54.225Z</time></trkpt><trkpt lat="45.3357829" lon="7.580198"><ele>699.8333333333334</ele><time>2026-04-25T10:48:57.225Z</time></trkpt><trkpt lat="45.3357394" lon="7.5802773"><ele>702.0</ele><time>2026-04-25T10:48:58.226Z</time></trkpt><trkpt lat="45.3356789" lon="7.5803481"><ele>701.1666666666666</ele><time>2026-04-25T10:48:59.23Z</time></trkpt><trkpt lat="45.3356108" lon="7.5804157"><ele>700.3333333333334</ele><time>2026-04-25T10:49:00.223Z</time></trkpt><trkpt lat="45.3355341" lon="7.5804727"><ele>699.5</ele><time>2026-04-25T10:49:01.224Z</time></trkpt><trkpt lat="45.3354625" lon="7.5805139"><ele>698.6666666666667</ele><time>2026-04-25T10:49:02.239Z</time></trkpt><trkpt lat="45.3354015" lon="7.5805585"><ele>697.8333333333334</ele><time>2026-04-25T10:49:03.229Z</time></trkpt><trkpt lat="45.3352978" lon="7.5806342"><ele>697.0</ele><time>2026-04-25T10:49:05.229Z</time></trkpt><trkpt lat="45.3351974" lon="7.5806668"><ele>697.0</ele><time>2026-04-25T10:49:07.235Z</time></trkpt><trkpt lat="45.3350935" lon="7.5806579"><ele>697.0</ele><time>2026-04-25T10:49:09.228Z</time></trkpt><trkpt lat="45.3350343" lon="7.5806271"><ele>697.0</ele><time>2026-04-25T10:49:10.233Z</time></trkpt><trkpt lat="45.3349804" lon="7.5805752"><ele>697.0</ele><time>2026-04-25T10:49:11.227Z</time></trkpt><trkpt lat="45.334894" lon="7.5804499"><ele>697.0</ele><time>2026-04-25T10:49:13.223Z</time></trkpt><trkpt lat="45.3348313" lon="7.5803167"><ele>698.7142857142858</ele><time>2026-04-25T10:49:15.221Z</time></trkpt><trkpt lat="45.3347869" lon="7.5802522"><ele>700.4285714285714</ele><time>2026-04-25T10:49:16.227Z</time></trkpt><trkpt lat="45.3347459" lon="7.5801811"><ele>702.1428571428571</ele><time>2026-04-25T10:49:17.231Z</time></trkpt><trkpt lat="45.3346991" lon="7.5801027"><ele>703.8571428571429</ele><time>2026-04-25T10:49:18.228Z</time></trkpt><trkpt lat="45.3346515" lon="7.5800291"><ele>705.5714285714286</ele><time>2026-04-25T10:49:19.229Z</time></trkpt><trkpt lat="45.3345973" lon="7.5799501"><ele>707.2857142857143</ele><time>2026-04-25T10:49:20.237Z</time></trkpt><trkpt lat="45.3345605" lon="7.579871"><ele>709.0</ele><time>2026-04-25T10:49:21.231Z</time></trkpt><trkpt lat="45.3345189" lon="7.5797877"><ele>709.0</ele><time>2026-04-25T10:49:22.238Z</time></trkpt><trkpt lat="45.3344813" lon="7.5796922"><ele>709.0</ele><time>2026-04-25T10:49:23.232Z</time></trkpt><trkpt lat="45.3344402" lon="7.5795999"><ele>709.0</ele><time>2026-04-25T10:49:24.234Z</time></trkpt><trkpt lat="45.3344052" lon="7.5795125"><ele>709.0</ele><time>2026-04-25T10:49:25.234Z</time></trkpt><trkpt lat="45.334346" lon="7.579366"><ele>709.0</ele><time>2026-04-25T10:49:27.231Z</time></trkpt><trkpt lat="45.3343187" lon="7.579208"><ele>712.4000000000001</ele><time>2026-04-25T10:49:29.245Z</time></trkpt><trkpt lat="45.3343764" lon="7.5791204"><ele>715.8</ele><time>2026-04-25T10:49:31.248Z</time></trkpt><trkpt lat="45.3344764" lon="7.5791144"><ele>719.2</ele><time>2026-04-25T10:49:33.237Z</time></trkpt><trkpt lat="45.3345444" lon="7.5792196"><ele>722.5999999999999</ele><time>2026-04-25T10:49:35.24Z</time></trkpt><trkpt lat="45.3345872" lon="7.5793545"><ele>726.0</ele><time>2026-04-25T10:49:37.247Z</time></trkpt><trkpt lat="45.3346268" lon="7.5794754"><ele>725.9999999999999</ele><time>2026-04-25T10:49:39.244Z</time></trkpt><trkpt lat="45.3346923" lon="7.5795341"><ele>726.0</ele><time>2026-04-25T10:49:41.252Z</time></trkpt><trkpt lat="45.3347509" lon="7.5795773"><ele>726.0</ele><time>2026-04-25T10:49:43.254Z</time></trkpt><trkpt lat="45.3348089" lon="7.5796161"><ele>726.0</ele><time>2026-04-25T10:49:45.252Z</time></trkpt><trkpt lat="45.3348189" lon="7.5797083"><ele>726.0</ele><time>2026-04-25T10:49:51.248Z</time></trkpt><trkpt lat="45.3347786" lon="7.5796358"><ele>725.9999999999999</ele><time>2026-04-25T10:57:26.245Z</time></trkpt><trkpt lat="45.3347201" lon="7.5795546"><ele>726.0</ele><time>2026-04-25T10:58:30.248Z</time></trkpt><trkpt lat="45.3346796" lon="7.5794658"><ele>726.0</ele><time>2026-04-25T10:58:32.254Z</time></trkpt><trkpt lat="45.3346401" lon="7.5793741"><ele>726.0</ele><time>2026-04-25T10:58:35.251Z</time></trkpt><trkpt lat="45.3346" lon="7.5792887"><ele>726.0</ele><time>2026-04-25T10:58:58.258Z</time></trkpt><trkpt lat="45.3345194" lon="7.5791945"><ele>726.0</ele><time>2026-04-25T10:59:00.249Z</time></trkpt><trkpt lat="45.3343963" lon="7.5792011"><ele>726.0</ele><time>2026-04-25T10:59:02.261Z</time></trkpt><trkpt lat="45.3343864" lon="7.5793529"><ele>726.0</ele><time>2026-04-25T10:59:04.245Z</time></trkpt><trkpt lat="45.334412" lon="7.5794645"><ele>726.0</ele><time>2026-04-25T10:59:05.25Z</time></trkpt><trkpt lat="45.3344338" lon="7.5795865"><ele>726.0</ele><time>2026-04-25T10:59:06.245Z</time></trkpt><trkpt lat="45.3344723" lon="7.5796966"><ele>726.0</ele><time>2026-04-25T10:59:07.26Z</time></trkpt><trkpt lat="45.3345141" lon="7.5797993"><ele>726.0</ele><time>2026-04-25T10:59:08.257Z</time></trkpt><trkpt lat="45.3345604" lon="7.5798916"><ele>726.0</ele><time>2026-04-25T10:59:09.261Z</time></trkpt><trkpt lat="45.3345995" lon="7.5799703"><ele>724.9999999999999</ele><time>2026-04-25T10:59:10.257Z</time></trkpt><trkpt lat="45.3346427" lon="7.5800419"><ele>724.0</ele><time>2026-04-25T10:59:11.266Z</time></trkpt><trkpt lat="45.3346873" lon="7.5801212"><ele>723.0</ele><time>2026-04-25T10:59:12.263Z</time></trkpt><trkpt lat="45.3347247" lon="7.5802008"><ele>722.0</ele><time>2026-04-25T10:59:13.265Z</time></trkpt><trkpt lat="45.3347546" lon="7.5802849"><ele>721.0</ele><time>2026-04-25T10:59:14.261Z</time></trkpt><trkpt lat="45.3347993" lon="7.5803531"><ele>719.9999999999999</ele><time>2026-04-25T10:59:15.265Z</time></trkpt><trkpt lat="45.3348439" lon="7.5804182"><ele>719.0</ele><time>2026-04-25T10:59:16.261Z</time></trkpt><trkpt lat="45.3348904" lon="7.5804852"><ele>715.8571428571428</ele><time>2026-04-25T10:59:17.268Z</time></trkpt><trkpt lat="45.3349333" lon="7.5805519"><ele>712.7142857142857</ele><time>2026-04-25T10:59:18.262Z</time></trkpt><trkpt lat="45.3349843" lon="7.5806169"><ele>709.5714285714286</ele><time>2026-04-25T10:59:19.257Z</time></trkpt><trkpt lat="45.3350426" lon="7.5806816"><ele>706.4285714285713</ele><time>2026-04-25T10:59:20.27Z</time></trkpt><trkpt lat="45.3351174" lon="7.5807137"><ele>703.2857142857142</ele><time>2026-04-25T10:59:21.253Z</time></trkpt><trkpt lat="45.3351855" lon="7.5807255"><ele>700.1428571428571</ele><time>2026-04-25T10:59:22.259Z</time></trkpt><trkpt lat="45.3352515" lon="7.5807142"><ele>697.0</ele><time>2026-04-25T10:59:23.258Z</time></trkpt><trkpt lat="45.3353183" lon="7.5806849"><ele>697.0</ele><time>2026-04-25T10:59:24.261Z</time></trkpt><trkpt lat="45.3353862" lon="7.5806526"><ele>697.0</ele><time>2026-04-25T10:59:25.253Z</time></trkpt><trkpt lat="45.3354463" lon="7.5806039"><ele>697.0</ele><time>2026-04-25T10:59:26.252Z</time></trkpt><trkpt lat="45.3354995" lon="7.5805477"><ele>697.0</ele><time>2026-04-25T10:59:27.256Z</time></trkpt><trkpt lat="45.3355892" lon="7.5804544"><ele>697.0</ele><time>2026-04-25T10:59:29.257Z</time></trkpt><trkpt lat="45.3356876" lon="7.5803709"><ele>697.0</ele><time>2026-04-25T10:59:31.254Z</time></trkpt><trkpt lat="45.3357697" lon="7.5802526"><ele>698.0</ele><time>2026-04-25T10:59:33.25Z</time></trkpt><trkpt lat="45.3358348" lon="7.5801599"><ele>699.0</ele><time>2026-04-25T10:59:35.252Z</time></trkpt><trkpt lat="45.3358904" lon="7.5802358"><ele>700.0</ele><time>2026-04-25T10:59:37.246Z</time></trkpt><trkpt lat="45.3358285" lon="7.5804209"><ele>701.0</ele><time>2026-04-25T10:59:39.25Z</time></trkpt><trkpt lat="45.335756" lon="7.5805216"><ele>702.0</ele><time>2026-04-25T10:59:40.245Z</time></trkpt><trkpt lat="45.3356892" lon="7.5805954"><ele>699.8333333333334</ele><time>2026-04-25T10:59:41.248Z</time></trkpt><trkpt lat="45.3356395" lon="7.5806591"><ele>697.6666666666666</ele><time>2026-04-25T10:59:42.231Z</time></trkpt><trkpt lat="45.3356285" lon="7.5808031"><ele>695.5</ele><time>2026-04-25T10:59:44.242Z</time></trkpt><trkpt lat="45.3356484" lon="7.5808957"><ele>693.3333333333333</ele><time>2026-04-25T10:59:45.242Z</time></trkpt><trkpt lat="45.3356696" lon="7.5809837"><ele>691.1666666666666</ele><time>2026-04-25T10:59:46.252Z</time></trkpt><trkpt lat="45.3356875" lon="7.5811486"><ele>689.0</ele><time>2026-04-25T10:59:48.254Z</time></trkpt><trkpt lat="45.3356854" lon="7.5812801"><ele>686.4000000000001</ele><time>2026-04-25T10:59:50.253Z</time></trkpt><trkpt lat="45.3356958" lon="7.5813965"><ele>683.8</ele><time>2026-04-25T10:59:52.251Z</time></trkpt><trkpt lat="45.335689" lon="7.581514"><ele>681.2</ele><time>2026-04-25T10:59:54.246Z</time></trkpt><trkpt lat="45.3356308" lon="7.5816248"><ele>678.5999999999999</ele><time>2026-04-25T10:59:56.239Z</time></trkpt><trkpt lat="45.3355353" lon="7.5816324"><ele>676.0</ele><time>2026-04-25T10:59:58.245Z</time></trkpt><trkpt lat="45.3354241" lon="7.581605"><ele>674.6666666666667</ele><time>2026-04-25T11:00:00.244Z</time></trkpt><trkpt lat="45.3353985" lon="7.581719"><ele>673.3333333333334</ele><time>2026-04-25T11:00:02.243Z</time></trkpt><trkpt lat="45.3354193" lon="7.5818079"><ele>672.0</ele><time>2026-04-25T11:00:03.246Z</time></trkpt><trkpt lat="45.3354586" lon="7.5819235"><ele>670.6666666666666</ele><time>2026-04-25T11:00:04.246Z</time></trkpt><trkpt lat="45.3355051" lon="7.5820263"><ele>669.3333333333333</ele><time>2026-04-25T11:00:05.241Z</time></trkpt><trkpt lat="45.3355614" lon="7.5821029"><ele>668.0</ele><time>2026-04-25T11:00:06.241Z</time></trkpt><trkpt lat="45.3356125" lon="7.5821632"><ele>669.3333333333333</ele><time>2026-04-25T11:00:07.235Z</time></trkpt><trkpt lat="45.3357146" lon="7.5821918"><ele>670.6666666666666</ele><time>2026-04-25T11:00:09.243Z</time></trkpt><trkpt lat="45.3358192" lon="7.582144"><ele>672.0</ele><time>2026-04-25T11:00:11.248Z</time></trkpt><trkpt lat="45.3358775" lon="7.5821061"><ele>673.3333333333334</ele><time>2026-04-25T11:00:12.243Z</time></trkpt><trkpt lat="45.3359293" lon="7.5820331"><ele>674.6666666666667</ele><time>2026-04-25T11:00:13.24Z</time></trkpt><trkpt lat="45.3359915" lon="7.5819315"><ele>676.0</ele><time>2026-04-25T11:00:14.242Z</time></trkpt><trkpt lat="45.3360441" lon="7.5818298"><ele>676.0</ele><time>2026-04-25T11:00:15.244Z</time></trkpt><trkpt lat="45.336086" lon="7.581734"><ele>676.0</ele><time>2026-04-25T11:00:16.243Z</time></trkpt><trkpt lat="45.3361301" lon="7.581635"><ele>676.0</ele><time>2026-04-25T11:00:17.251Z</time></trkpt><trkpt lat="45.3361725" lon="7.5815366"><ele>676.0</ele><time>2026-04-25T11:00:18.238Z</time></trkpt><trkpt lat="45.3362118" lon="7.5814445"><ele>676.0</ele><time>2026-04-25T11:00:19.24Z</time></trkpt><trkpt lat="45.3362457" lon="7.5813566"><ele>676.0</ele><time>2026-04-25T11:00:20.235Z</time></trkpt><trkpt lat="45.3362983" lon="7.5812848"><ele>673.6666666666667</ele><time>2026-04-25T11:00:21.239Z</time></trkpt><trkpt lat="45.3364103" lon="7.5812008"><ele>671.3333333333334</ele><time>2026-04-25T11:00:23.237Z</time></trkpt><trkpt lat="45.336484" lon="7.5811679"><ele>669.0</ele><time>2026-04-25T11:00:24.241Z</time></trkpt><trkpt lat="45.3365424" lon="7.5811219"><ele>666.6666666666666</ele><time>2026-04-25T11:00:25.241Z</time></trkpt><trkpt lat="45.3365829" lon="7.5810437"><ele>664.3333333333333</ele><time>2026-04-25T11:00:26.229Z</time></trkpt><trkpt lat="45.3366281" lon="7.5809169"><ele>662.0</ele><time>2026-04-25T11:00:27.239Z</time></trkpt><trkpt lat="45.3366668" lon="7.5807908"><ele>662.0</ele><time>2026-04-25T11:00:28.236Z</time></trkpt><trkpt lat="45.3366869" lon="7.5806606"><ele>662.0</ele><time>2026-04-25T11:00:29.239Z</time></trkpt><trkpt lat="45.3367009" lon="7.5805393"><ele>662.0</ele><time>2026-04-25T11:00:30.23Z</time></trkpt><trkpt lat="45.336725" lon="7.5804259"><ele>662.0</ele><time>2026-04-25T11:00:31.231Z</time></trkpt><trkpt lat="45.3367507" lon="7.5803208"><ele>662.0</ele><time>2026-04-25T11:00:32.24Z</time></trkpt><trkpt lat="45.3367877" lon="7.5802299"><ele>662.0</ele><time>2026-04-25T11:00:33.225Z</time></trkpt><trkpt lat="45.3368338" lon="7.5801399"><ele>662.2857142857143</ele><time>2026-04-25T11:00:34.228Z</time></trkpt><trkpt lat="45.336881" lon="7.5800586"><ele>662.5714285714286</ele><time>2026-04-25T11:00:35.228Z</time></trkpt><trkpt lat="45.3369319" lon="7.5799701"><ele>662.8571428571429</ele><time>2026-04-25T11:00:36.225Z</time></trkpt><trkpt lat="45.3369643" lon="7.5798826"><ele>663.1428571428571</ele><time>2026-04-25T11:00:37.235Z</time></trkpt><trkpt lat="45.3369859" lon="7.5797907"><ele>663.4285714285714</ele><time>2026-04-25T11:00:38.226Z</time></trkpt><trkpt lat="45.3370044" lon="7.5796897"><ele>663.7142857142857</ele><time>2026-04-25T11:00:39.23Z</time></trkpt><trkpt lat="45.3370386" lon="7.579594"><ele>664.0</ele><time>2026-04-25T11:00:40.224Z</time></trkpt><trkpt lat="45.3370576" lon="7.5794909"><ele>663.1666666666667</ele><time>2026-04-25T11:00:41.224Z</time></trkpt><trkpt lat="45.3370552" lon="7.5793818"><ele>662.3333333333334</ele><time>2026-04-25T11:00:42.225Z</time></trkpt><trkpt lat="45.3370424" lon="7.5792653"><ele>661.5</ele><time>2026-04-25T11:00:43.224Z</time></trkpt><trkpt lat="45.3370341" lon="7.5791745"><ele>660.6666666666666</ele><time>2026-04-25T11:00:44.228Z</time></trkpt><trkpt lat="45.3369935" lon="7.5790201"><ele>659.8333333333333</ele><time>2026-04-25T11:00:46.219Z</time></trkpt><trkpt lat="45.3369586" lon="7.578943"><ele>659.0</ele><time>2026-04-25T11:00:47.229Z</time></trkpt><trkpt lat="45.3369279" lon="7.5788173"><ele>659.0</ele><time>2026-04-25T11:00:49.221Z</time></trkpt><trkpt lat="45.3370108" lon="7.5788244"><ele>659.0</ele><time>2026-04-25T11:00:51.229Z</time></trkpt><trkpt lat="45.337077" lon="7.5788847"><ele>659.0</ele><time>2026-04-25T11:00:52.23Z</time></trkpt><trkpt lat="45.3371537" lon="7.5789452"><ele>659.0</ele><time>2026-04-25T11:00:53.227Z</time></trkpt><trkpt lat="45.3372368" lon="7.5790079"><ele>659.0</ele><time>2026-04-25T11:00:54.223Z</time></trkpt><trkpt lat="45.3373316" lon="7.5790675"><ele>659.0</ele><time>2026-04-25T11:00:55.224Z</time></trkpt><trkpt lat="45.3374289" lon="7.5791234"><ele>653.8000000000001</ele><time>2026-04-25T11:00:56.222Z</time></trkpt><trkpt lat="45.3375161" lon="7.579167"><ele>648.6</ele><time>2026-04-25T11:00:57.227Z</time></trkpt><trkpt lat="45.3376026" lon="7.5792125"><ele>643.4</ele><time>2026-04-25T11:00:58.229Z</time></trkpt><trkpt lat="45.3376922" lon="7.5792503"><ele>638.2</ele><time>2026-04-25T11:00:59.227Z</time></trkpt><trkpt lat="45.3377825" lon="7.5792879"><ele>633.0</ele><time>2026-04-25T11:01:00.234Z</time></trkpt><trkpt lat="45.3378759" lon="7.5793148"><ele>633.0</ele><time>2026-04-25T11:01:01.227Z</time></trkpt><trkpt lat="45.3379695" lon="7.5793145"><ele>633.0</ele><time>2026-04-25T11:01:02.231Z</time></trkpt><trkpt lat="45.3380477" lon="7.5793024"><ele>633.0</ele><time>2026-04-25T11:01:03.224Z</time></trkpt><trkpt lat="45.3381314" lon="7.579272"><ele>633.0</ele><time>2026-04-25T11:01:04.236Z</time></trkpt><trkpt lat="45.3382199" lon="7.5792324"><ele>633.0</ele><time>2026-04-25T11:01:05.232Z</time></trkpt><trkpt lat="45.3382966" lon="7.5791849"><ele>633.0</ele><time>2026-04-25T11:01:06.238Z</time></trkpt><trkpt lat="45.3383661" lon="7.5791328"><ele>629.6666666666666</ele><time>2026-04-25T11:01:07.228Z</time></trkpt><trkpt lat="45.3384345" lon="7.5790839"><ele>626.3333333333334</ele><time>2026-04-25T11:01:08.228Z</time></trkpt><trkpt lat="45.3385414" lon="7.5790143"><ele>623.0</ele><time>2026-04-25T11:01:10.236Z</time></trkpt><trkpt lat="45.3386245" lon="7.5790737"><ele>619.6666666666667</ele><time>2026-04-25T11:01:12.234Z</time></trkpt><trkpt lat="45.3386624" lon="7.5791493"><ele>616.3333333333334</ele><time>2026-04-25T11:01:13.225Z</time></trkpt><trkpt lat="45.3386826" lon="7.5792556"><ele>613.0</ele><time>2026-04-25T11:01:14.232Z</time></trkpt><trkpt lat="45.3386777" lon="7.579381"><ele>612.6</ele><time>2026-04-25T11:01:15.23Z</time></trkpt><trkpt lat="45.3386578" lon="7.5795209"><ele>612.1999999999999</ele><time>2026-04-25T11:01:16.226Z</time></trkpt><trkpt lat="45.338629" lon="7.5796831"><ele>611.8</ele><time>2026-04-25T11:01:17.233Z</time></trkpt><trkpt lat="45.3385843" lon="7.5798203"><ele>611.4</ele><time>2026-04-25T11:01:18.232Z</time></trkpt><trkpt lat="45.3385147" lon="7.5799191"><ele>611.0</ele><time>2026-04-25T11:01:19.233Z</time></trkpt><trkpt lat="45.3384591" lon="7.5799748"><ele>611.0</ele><time>2026-04-25T11:01:20.222Z</time></trkpt><trkpt lat="45.3384777" lon="7.58007"><ele>611.0</ele><time>2026-04-25T11:01:22.245Z</time></trkpt><trkpt lat="45.3386048" lon="7.5800492"><ele>611.0</ele><time>2026-04-25T11:01:24.233Z</time></trkpt><trkpt lat="45.3386982" lon="7.5800092"><ele>611.0</ele><time>2026-04-25T11:01:25.225Z</time></trkpt><trkpt lat="45.3388022" lon="7.5799572"><ele>611.0</ele><time>2026-04-25T11:01:26.223Z</time></trkpt><trkpt lat="45.3389042" lon="7.5799133"><ele>607.4</ele><time>2026-04-25T11:01:27.219Z</time></trkpt><trkpt lat="45.3389949" lon="7.5798569"><ele>603.8</ele><time>2026-04-25T11:01:28.216Z</time></trkpt><trkpt lat="45.3390915" lon="7.5797759"><ele>600.1999999999999</ele><time>2026-04-25T11:01:29.222Z</time></trkpt><trkpt lat="45.3391646" lon="7.5796689"><ele>596.6</ele><time>2026-04-25T11:01:30.218Z</time></trkpt><trkpt lat="45.3392043" lon="7.5795482"><ele>593.0</ele><time>2026-04-25T11:01:31.224Z</time></trkpt><trkpt lat="45.3392255" lon="7.5794313"><ele>593.0</ele><time>2026-04-25T11:01:32.221Z</time></trkpt><trkpt lat="45.339235" lon="7.5792979"><ele>593.0</ele><time>2026-04-25T11:01:33.227Z</time></trkpt><trkpt lat="45.3392205" lon="7.5791688"><ele>593.0</ele><time>2026-04-25T11:01:34.229Z</time></trkpt><trkpt lat="45.339203" lon="7.5789963"><ele>593.0</ele><time>2026-04-25T11:01:36.224Z</time></trkpt><trkpt lat="45.3391711" lon="7.5788873"><ele>593.0</ele><time>2026-04-25T11:01:38.224Z</time></trkpt><trkpt lat="45.3393036" lon="7.5789398"><ele>593.0</ele><time>2026-04-25T11:01:41.221Z</time></trkpt><trkpt lat="45.3393718" lon="7.5790441"><ele>593.0</ele><time>2026-04-25T11:01:42.225Z</time></trkpt><trkpt lat="45.3394496" lon="7.579157"><ele>593.0</ele><time>2026-04-25T11:01:43.223Z</time></trkpt><trkpt lat="45.3395271" lon="7.5792848"><ele>593.0</ele><time>2026-04-25T11:01:44.218Z</time></trkpt><trkpt lat="45.3395851" lon="7.5793777"><ele>593.0</ele><time>2026-04-25T11:01:45.215Z</time></trkpt><trkpt lat="45.3396198" lon="7.5794798"><ele>592.3333333333333</ele><time>2026-04-25T11:01:46.219Z</time></trkpt><trkpt lat="45.3396343" lon="7.5795857"><ele>591.6666666666666</ele><time>2026-04-25T11:01:47.216Z</time></trkpt><trkpt lat="45.3396382" lon="7.5796843"><ele>591.0</ele><time>2026-04-25T11:01:48.225Z</time></trkpt><trkpt lat="45.339632" lon="7.5798316"><ele>590.3333333333334</ele><time>2026-04-25T11:01:50.227Z</time></trkpt><trkpt lat="45.3395894" lon="7.5799242"><ele>589.6666666666667</ele><time>2026-04-25T11:01:52.227Z</time></trkpt><trkpt lat="45.3395247" lon="7.5800289"><ele>589.0</ele><time>2026-04-25T11:01:54.223Z</time></trkpt><trkpt lat="45.3394799" lon="7.5801414"><ele>589.0</ele><time>2026-04-25T11:01:56.224Z</time></trkpt><trkpt lat="45.3394737" lon="7.5802594"><ele>589.0</ele><time>2026-04-25T11:01:58.222Z</time></trkpt><trkpt lat="45.3394649" lon="7.5803884"><ele>589.0</ele><time>2026-04-25T11:02:00.225Z</time></trkpt><trkpt lat="45.3394407" lon="7.5805132"><ele>589.0</ele><time>2026-04-25T11:02:02.231Z</time></trkpt><trkpt lat="45.3394221" lon="7.5806055"><ele>589.0</ele><time>2026-04-25T11:02:03.225Z</time></trkpt><trkpt lat="45.3394154" lon="7.5806948"><ele>589.0</ele><time>2026-04-25T11:02:04.225Z</time></trkpt><trkpt lat="45.3394054" lon="7.5807958"><ele>587.5</ele><time>2026-04-25T11:02:05.229Z</time></trkpt><trkpt lat="45.3394164" lon="7.5808977"><ele>586.0</ele><time>2026-04-25T11:02:06.224Z</time></trkpt><trkpt lat="45.3394576" lon="7.5810026"><ele>584.5</ele><time>2026-04-25T11:02:07.223Z</time></trkpt><trkpt lat="45.3395153" lon="7.5810986"><ele>583.0</ele><time>2026-04-25T11:02:08.229Z</time></trkpt><trkpt lat="45.3395752" lon="7.5811839"><ele>581.5</ele><time>2026-04-25T11:02:09.22Z</time></trkpt><trkpt lat="45.3396311" lon="7.5812673"><ele>580.0</ele><time>2026-04-25T11:02:10.23Z</time></trkpt><trkpt lat="45.3396794" lon="7.5813602"><ele>578.0</ele><time>2026-04-25T11:02:11.225Z</time></trkpt><trkpt lat="45.3397188" lon="7.5814714"><ele>576.0</ele><time>2026-04-25T11:02:12.221Z</time></trkpt><trkpt lat="45.3397325" lon="7.5815891"><ele>574.0</ele><time>2026-04-25T11:02:13.218Z</time></trkpt><trkpt lat="45.3397292" lon="7.5816926"><ele>572.0</ele><time>2026-04-25T11:02:14.227Z</time></trkpt><trkpt lat="45.3397651" lon="7.5818374"><ele>570.0</ele><time>2026-04-25T11:02:16.227Z</time></trkpt><trkpt lat="45.3397634" lon="7.5819498"><ele>568.0</ele><time>2026-04-25T11:02:18.224Z</time></trkpt><trkpt lat="45.3396575" lon="7.5821234"><ele>565.1999999999999</ele><time>2026-04-25T11:02:20.232Z</time></trkpt><trkpt lat="45.339592" lon="7.5822321"><ele>562.4</ele><time>2026-04-25T11:02:21.23Z</time></trkpt><trkpt lat="45.3395488" lon="7.5823406"><ele>559.5999999999999</ele><time>2026-04-25T11:02:22.236Z</time></trkpt><trkpt lat="45.3395497" lon="7.5824341"><ele>556.8</ele><time>2026-04-25T11:02:23.228Z</time></trkpt><trkpt lat="45.3395769" lon="7.5825943"><ele>554.0</ele><time>2026-04-25T11:02:25.24Z</time></trkpt><trkpt lat="45.3396004" lon="7.5827574"><ele>553.8</ele><time>2026-04-25T11:02:27.239Z</time></trkpt><trkpt lat="45.3396132" lon="7.5828699"><ele>553.5999999999999</ele><time>2026-04-25T11:02:28.234Z</time></trkpt><trkpt lat="45.3395961" lon="7.5830183"><ele>553.4</ele><time>2026-04-25T11:02:29.23Z</time></trkpt><trkpt lat="45.339547" lon="7.5831818"><ele>553.1999999999999</ele><time>2026-04-25T11:02:30.226Z</time></trkpt><trkpt lat="45.3394823" lon="7.5833471"><ele>553.0</ele><time>2026-04-25T11:02:31.233Z</time></trkpt><trkpt lat="45.33943" lon="7.5834869"><ele>553.0</ele><time>2026-04-25T11:02:32.234Z</time></trkpt><trkpt lat="45.3393821" lon="7.583636"><ele>553.0</ele><time>2026-04-25T11:02:34.241Z</time></trkpt><trkpt lat="45.3393495" lon="7.5837293"><ele>553.0</ele><time>2026-04-25T11:02:35.235Z</time></trkpt><trkpt lat="45.3393174" lon="7.5838309"><ele>553.0</ele><time>2026-04-25T11:02:36.241Z</time></trkpt><trkpt lat="45.3392773" lon="7.5839697"><ele>553.0</ele><time>2026-04-25T11:02:37.233Z</time></trkpt><trkpt lat="45.3392248" lon="7.5841311"><ele>555.0</ele><time>2026-04-25T11:02:38.243Z</time></trkpt><trkpt lat="45.3391647" lon="7.5842919"><ele>557.0</ele><time>2026-04-25T11:02:39.239Z</time></trkpt><trkpt lat="45.3390963" lon="7.5844558"><ele>559.0</ele><time>2026-04-25T11:02:40.238Z</time></trkpt><trkpt lat="45.3390334" lon="7.5845792"><ele>561.0</ele><time>2026-04-25T11:02:41.237Z</time></trkpt><trkpt lat="45.3389617" lon="7.5846717"><ele>560.2</ele><time>2026-04-25T11:02:42.231Z</time></trkpt><trkpt lat="45.3388993" lon="7.584733"><ele>559.4000000000001</ele><time>2026-04-25T11:02:43.23Z</time></trkpt><trkpt lat="45.3387856" lon="7.5847849"><ele>558.6</ele><time>2026-04-25T11:02:45.237Z</time></trkpt><trkpt lat="45.3386806" lon="7.5848665"><ele>557.8000000000001</ele><time>2026-04-25T11:02:47.238Z</time></trkpt><trkpt lat="45.3386172" lon="7.5849295"><ele>557.0</ele><time>2026-04-25T11:02:48.235Z</time></trkpt><trkpt lat="45.3385702" lon="7.5850172"><ele>557.0</ele><time>2026-04-25T11:02:49.237Z</time></trkpt><trkpt lat="45.3385272" lon="7.5851257"><ele>557.0</ele><time>2026-04-25T11:02:50.237Z</time></trkpt><trkpt lat="45.3385028" lon="7.5852483"><ele>557.0</ele><time>2026-04-25T11:02:51.242Z</time></trkpt><trkpt lat="45.338492" lon="7.5853553"><ele>557.0</ele><time>2026-04-25T11:02:52.241Z</time></trkpt><trkpt lat="45.338477" lon="7.5854964"><ele>557.0</ele><time>2026-04-25T11:02:54.225Z</time></trkpt><trkpt lat="45.3384534" lon="7.5855978"><ele>557.0</ele><time>2026-04-25T11:03:06.241Z</time></trkpt><trkpt lat="45.3385205" lon="7.5856422"><ele>558.4</ele><time>2026-04-25T11:03:09.235Z</time></trkpt><trkpt lat="45.3386459" lon="7.585588"><ele>559.8000000000001</ele><time>2026-04-25T11:03:11.223Z</time></trkpt><trkpt lat="45.3387284" lon="7.5855404"><ele>561.2</ele><time>2026-04-25T11:03:12.224Z</time></trkpt><trkpt lat="45.3388055" lon="7.5854825"><ele>562.6</ele><time>2026-04-25T11:03:13.223Z</time></trkpt><trkpt lat="45.3388688" lon="7.5854801"><ele>564.0</ele><time>2026-04-25T11:03:14.233Z</time></trkpt><trkpt lat="45.3389486" lon="7.5854373"><ele>564.0</ele><time>2026-04-25T11:03:16.228Z</time></trkpt><trkpt lat="45.3390147" lon="7.585398"><ele>564.0</ele><time>2026-04-25T11:03:32.225Z</time></trkpt><trkpt lat="45.3389382" lon="7.5854518"><ele>564.0</ele><time>2026-04-25T11:03:36.22Z</time></trkpt><trkpt lat="45.3388679" lon="7.5854968"><ele>564.0</ele><time>2026-04-25T11:03:39.235Z</time></trkpt><trkpt lat="45.3387868" lon="7.5855147"><ele>564.0</ele><time>2026-04-25T11:03:41.244Z</time></trkpt><trkpt lat="45.3386991" lon="7.5855251"><ele>564.0</ele><time>2026-04-25T11:03:43.232Z</time></trkpt><trkpt lat="45.3386323" lon="7.5855271"><ele>564.0</ele><time>2026-04-25T11:03:45.226Z</time></trkpt><trkpt lat="45.3385627" lon="7.5855724"><ele>564.0</ele><time>2026-04-25T11:03:48.23Z</time></trkpt><trkpt lat="45.3384996" lon="7.5856139"><ele>564.0</ele><time>2026-04-25T11:03:50.234Z</time></trkpt><trkpt lat="45.3384248" lon="7.5856493"><ele>564.0</ele><time>2026-04-25T11:03:53.251Z</time></trkpt><trkpt lat="45.3383683" lon="7.5857654"><ele>564.0</ele><time>2026-04-25T11:03:55.243Z</time></trkpt><trkpt lat="45.3383869" lon="7.5859249"><ele>564.0</ele><time>2026-04-25T11:03:57.238Z</time></trkpt><trkpt lat="45.3384084" lon="7.5860136"><ele>564.0</ele><time>2026-04-25T11:03:58.237Z</time></trkpt><trkpt lat="45.3384447" lon="7.5861724"><ele>564.0</ele><time>2026-04-25T11:04:00.23Z</time></trkpt><trkpt lat="45.338503" lon="7.5862549"><ele>564.0</ele><time>2026-04-25T11:04:02.235Z</time></trkpt><trkpt lat="45.3385529" lon="7.5863267"><ele>564.0</ele><time>2026-04-25T11:04:04.234Z</time></trkpt><trkpt lat="45.338609" lon="7.5864221"><ele>564.0</ele><time>2026-04-25T11:04:06.238Z</time></trkpt><trkpt lat="45.338655" lon="7.5865221"><ele>564.0</ele><time>2026-04-25T11:04:08.244Z</time></trkpt><trkpt lat="45.3387058" lon="7.5866104"><ele>564.1666666666666</ele><time>2026-04-25T11:04:10.245Z</time></trkpt><trkpt lat="45.3387576" lon="7.5866613"><ele>564.3333333333334</ele><time>2026-04-25T11:04:11.237Z</time></trkpt><trkpt lat="45.3388193" lon="7.5867444"><ele>564.5</ele><time>2026-04-25T11:04:12.238Z</time></trkpt><trkpt lat="45.338879" lon="7.5868428"><ele>564.6666666666667</ele><time>2026-04-25T11:04:13.25Z</time></trkpt><trkpt lat="45.3389384" lon="7.5869391"><ele>564.8333333333334</ele><time>2026-04-25T11:04:14.252Z</time></trkpt><trkpt lat="45.3390044" lon="7.5870141"><ele>565.0</ele><time>2026-04-25T11:04:15.254Z</time></trkpt><trkpt lat="45.3390813" lon="7.5870729"><ele>565.0</ele><time>2026-04-25T11:04:16.253Z</time></trkpt><trkpt lat="45.3391634" lon="7.5871099"><ele>565.0</ele><time>2026-04-25T11:04:17.244Z</time></trkpt><trkpt lat="45.3392608" lon="7.5871417"><ele>565.0</ele><time>2026-04-25T11:04:18.251Z</time></trkpt><trkpt lat="45.3393704" lon="7.5871663"><ele>565.0</ele><time>2026-04-25T11:04:19.252Z</time></trkpt><trkpt lat="45.3394759" lon="7.5871888"><ele>565.0</ele><time>2026-04-25T11:04:20.251Z</time></trkpt><trkpt lat="45.3395674" lon="7.5872125"><ele>565.0</ele><time>2026-04-25T11:04:21.246Z</time></trkpt><trkpt lat="45.3396361" lon="7.5872354"><ele>565.0</ele><time>2026-04-25T11:04:22.246Z</time></trkpt><trkpt lat="45.3397296" lon="7.5873091"><ele>565.0</ele><time>2026-04-25T11:04:24.226Z</time></trkpt><trkpt lat="45.339796" lon="7.587367"><ele>565.0</ele><time>2026-04-25T11:04:26.22Z</time></trkpt><trkpt lat="45.339906" lon="7.5873912"><ele>565.0</ele><time>2026-04-25T11:04:29.216Z</time></trkpt><trkpt lat="45.3399603" lon="7.5873351"><ele>565.0</ele><time>2026-04-25T11:04:30.22Z</time></trkpt><trkpt lat="45.3400624" lon="7.5873171"><ele>565.2</ele><time>2026-04-25T11:04:33.229Z</time></trkpt><trkpt lat="45.3401132" lon="7.5872534"><ele>565.4</ele><time>2026-04-25T11:04:34.236Z</time></trkpt><trkpt lat="45.3401663" lon="7.5871297"><ele>565.6</ele><time>2026-04-25T11:04:35.237Z</time></trkpt><trkpt lat="45.3402267" lon="7.5869771"><ele>565.8</ele><time>2026-04-25T11:04:36.233Z</time></trkpt><trkpt lat="45.3402957" lon="7.5868247"><ele>566.0</ele><time>2026-04-25T11:04:37.236Z</time></trkpt><trkpt lat="45.3403527" lon="7.5866869"><ele>565.2</ele><time>2026-04-25T11:04:38.232Z</time></trkpt><trkpt lat="45.3404349" lon="7.586567"><ele>564.4000000000001</ele><time>2026-04-25T11:04:39.235Z</time></trkpt><trkpt lat="45.3405196" lon="7.5864515"><ele>563.6</ele><time>2026-04-25T11:04:40.232Z</time></trkpt><trkpt lat="45.3405935" lon="7.5863397"><ele>562.8000000000001</ele><time>2026-04-25T11:04:41.243Z</time></trkpt><trkpt lat="45.3406685" lon="7.5862357"><ele>562.0</ele><time>2026-04-25T11:04:42.236Z</time></trkpt><trkpt lat="45.3407482" lon="7.5861204"><ele>564.75</ele><time>2026-04-25T11:04:43.234Z</time></trkpt><trkpt lat="45.340825" lon="7.5859849"><ele>567.5</ele><time>2026-04-25T11:04:44.24Z</time></trkpt><trkpt lat="45.3409054" lon="7.5858251"><ele>570.25</ele><time>2026-04-25T11:04:45.237Z</time></trkpt><trkpt lat="45.3409912" lon="7.5856613"><ele>573.0</ele><time>2026-04-25T11:04:46.232Z</time></trkpt><trkpt lat="45.3410813" lon="7.5855044"><ele>573.0</ele><time>2026-04-25T11:04:47.232Z</time></trkpt><trkpt lat="45.3411878" lon="7.5853681"><ele>573.0</ele><time>2026-04-25T11:04:48.236Z</time></trkpt><trkpt lat="45.3413092" lon="7.5852459"><ele>573.0</ele><time>2026-04-25T11:04:49.241Z</time></trkpt><trkpt lat="45.341434" lon="7.5851216"><ele>573.0</ele><time>2026-04-25T11:04:50.239Z</time></trkpt><trkpt lat="45.3415312" lon="7.5850534"><ele>574.1999999999999</ele><time>2026-04-25T11:04:51.235Z</time></trkpt><trkpt lat="45.3416495" lon="7.584991"><ele>575.4</ele><time>2026-04-25T11:04:52.236Z</time></trkpt><trkpt lat="45.3417569" lon="7.5849019"><ele>576.5999999999999</ele><time>2026-04-25T11:04:53.241Z</time></trkpt><trkpt lat="45.3418374" lon="7.5847972"><ele>577.8</ele><time>2026-04-25T11:04:54.234Z</time></trkpt><trkpt lat="45.3419029" lon="7.5847352"><ele>579.0</ele><time>2026-04-25T11:04:55.245Z</time></trkpt><trkpt lat="45.3419726" lon="7.5846358"><ele>579.0</ele><time>2026-04-25T11:04:57.243Z</time></trkpt><trkpt lat="45.3420411" lon="7.5845297"><ele>579.0</ele><time>2026-04-25T11:05:00.235Z</time></trkpt><trkpt lat="45.3421064" lon="7.5844799"><ele>579.0</ele><time>2026-04-25T11:05:01.242Z</time></trkpt><trkpt lat="45.3421973" lon="7.5844738"><ele>579.0</ele><time>2026-04-25T11:05:02.242Z</time></trkpt><trkpt lat="45.3423103" lon="7.5844641"><ele>579.0</ele><time>2026-04-25T11:05:03.234Z</time></trkpt><trkpt lat="45.3424391" lon="7.5844366"><ele>580.75</ele><time>2026-04-25T11:05:04.229Z</time></trkpt><trkpt lat="45.3425862" lon="7.5844271"><ele>582.5</ele><time>2026-04-25T11:05:05.231Z</time></trkpt><trkpt lat="45.3427329" lon="7.5844257"><ele>584.25</ele><time>2026-04-25T11:05:06.229Z</time></trkpt><trkpt lat="45.3428714" lon="7.5844446"><ele>586.0</ele><time>2026-04-25T11:05:07.225Z</time></trkpt><trkpt lat="45.3430246" lon="7.5844394"><ele>584.25</ele><time>2026-04-25T11:05:08.226Z</time></trkpt><trkpt lat="45.3431933" lon="7.5844504"><ele>582.5</ele><time>2026-04-25T11:05:09.229Z</time></trkpt><trkpt lat="45.3433172" lon="7.5844287"><ele>580.75</ele><time>2026-04-25T11:05:10.234Z</time></trkpt><trkpt lat="45.3434342" lon="7.5843875"><ele>579.0</ele><time>2026-04-25T11:05:11.236Z</time></trkpt><trkpt lat="45.343553" lon="7.584327"><ele>579.0</ele><time>2026-04-25T11:05:12.237Z</time></trkpt><trkpt lat="45.3436979" lon="7.5842443"><ele>579.0</ele><time>2026-04-25T11:05:13.237Z</time></trkpt><trkpt lat="45.3438308" lon="7.584167"><ele>579.0</ele><time>2026-04-25T11:05:14.241Z</time></trkpt><trkpt lat="45.3439498" lon="7.584127"><ele>579.0</ele><time>2026-04-25T11:05:15.237Z</time></trkpt><trkpt lat="45.3440755" lon="7.5840826"><ele>576.75</ele><time>2026-04-25T11:05:16.242Z</time></trkpt><trkpt lat="45.3441994" lon="7.5840468"><ele>574.5</ele><time>2026-04-25T11:05:17.237Z</time></trkpt><trkpt lat="45.3443182" lon="7.5839965"><ele>572.25</ele><time>2026-04-25T11:05:18.239Z</time></trkpt><trkpt lat="45.344444" lon="7.5839464"><ele>570.0</ele><time>2026-04-25T11:05:19.237Z</time></trkpt><trkpt lat="45.3445704" lon="7.5838966"><ele>570.0</ele><time>2026-04-25T11:05:20.24Z</time></trkpt><trkpt lat="45.3446884" lon="7.5838416"><ele>570.0</ele><time>2026-04-25T11:05:21.239Z</time></trkpt><trkpt lat="45.3448075" lon="7.5837855"><ele>570.0</ele><time>2026-04-25T11:05:22.246Z</time></trkpt><trkpt lat="45.344928" lon="7.5837274"><ele>570.0</ele><time>2026-04-25T11:05:23.24Z</time></trkpt><trkpt lat="45.3450437" lon="7.583678"><ele>571.0</ele><time>2026-04-25T11:05:24.236Z</time></trkpt><trkpt lat="45.3451573" lon="7.5836217"><ele>572.0</ele><time>2026-04-25T11:05:25.238Z</time></trkpt><trkpt lat="45.3452695" lon="7.5835578"><ele>573.0</ele><time>2026-04-25T11:05:26.24Z</time></trkpt><trkpt lat="45.3453917" lon="7.5834854"><ele>574.0</ele><time>2026-04-25T11:05:27.24Z</time></trkpt><trkpt lat="45.3455211" lon="7.5833915"><ele>570.75</ele><time>2026-04-25T11:05:28.238Z</time></trkpt><trkpt lat="45.3456507" lon="7.5832611"><ele>567.5</ele><time>2026-04-25T11:05:29.237Z</time></trkpt><trkpt lat="45.3457889" lon="7.5831567"><ele>564.25</ele><time>2026-04-25T11:05:30.241Z</time></trkpt><trkpt lat="45.3458991" lon="7.5830535"><ele>561.0</ele><time>2026-04-25T11:05:31.235Z</time></trkpt><trkpt lat="45.346013" lon="7.5829671"><ele>561.0</ele><time>2026-04-25T11:05:32.236Z</time></trkpt><trkpt lat="45.3461261" lon="7.5828726"><ele>561.0</ele><time>2026-04-25T11:05:33.235Z</time></trkpt><trkpt lat="45.3462253" lon="7.5827992"><ele>561.0</ele><time>2026-04-25T11:05:34.234Z</time></trkpt><trkpt lat="45.3463435" lon="7.5827527"><ele>561.0</ele><time>2026-04-25T11:05:35.227Z</time></trkpt><trkpt lat="45.3464563" lon="7.582718"><ele>561.6</ele><time>2026-04-25T11:05:36.235Z</time></trkpt><trkpt lat="45.3465757" lon="7.5826896"><ele>562.2</ele><time>2026-04-25T11:05:37.226Z</time></trkpt><trkpt lat="45.3466738" lon="7.5826638"><ele>562.8</ele><time>2026-04-25T11:05:38.244Z</time></trkpt><trkpt lat="45.3467563" lon="7.5827057"><ele>563.4</ele><time>2026-04-25T11:05:39.233Z</time></trkpt><trkpt lat="45.3468086" lon="7.5827942"><ele>564.0</ele><time>2026-04-25T11:05:40.222Z</time></trkpt><trkpt lat="45.346832" lon="7.5828958"><ele>562.8</ele><time>2026-04-25T11:05:41.224Z</time></trkpt><trkpt lat="45.3468335" lon="7.583056"><ele>561.5999999999999</ele><time>2026-04-25T11:05:42.229Z</time></trkpt><trkpt lat="45.3468407" lon="7.583187"><ele>560.4</ele><time>2026-04-25T11:05:43.231Z</time></trkpt><trkpt lat="45.3468137" lon="7.5833422"><ele>559.1999999999999</ele><time>2026-04-25T11:05:44.23Z</time></trkpt><trkpt lat="45.3467893" lon="7.5835021"><ele>558.0</ele><time>2026-04-25T11:05:45.236Z</time></trkpt><trkpt lat="45.3467765" lon="7.5836753"><ele>557.8</ele><time>2026-04-25T11:05:46.234Z</time></trkpt><trkpt lat="45.3467727" lon="7.5838351"><ele>557.5999999999999</ele><time>2026-04-25T11:05:47.243Z</time></trkpt><trkpt lat="45.3467695" lon="7.5839758"><ele>557.4000000000001</ele><time>2026-04-25T11:05:48.234Z</time></trkpt><trkpt lat="45.3467773" lon="7.5841065"><ele>557.2</ele><time>2026-04-25T11:05:49.234Z</time></trkpt><trkpt lat="45.3468088" lon="7.5842398"><ele>557.0</ele><time>2026-04-25T11:05:50.236Z</time></trkpt><trkpt lat="45.3468551" lon="7.5843257"><ele>557.0</ele><time>2026-04-25T11:05:51.223Z</time></trkpt><trkpt lat="45.3469306" lon="7.5843938"><ele>557.0</ele><time>2026-04-25T11:05:52.229Z</time></trkpt><trkpt lat="45.3470221" lon="7.5844639"><ele>557.0</ele><time>2026-04-25T11:05:53.228Z</time></trkpt><trkpt lat="45.3471048" lon="7.5845124"><ele>557.0</ele><time>2026-04-25T11:05:54.22Z</time></trkpt><trkpt lat="45.3471922" lon="7.5845424"><ele>557.0</ele><time>2026-04-25T11:05:56.221Z</time></trkpt><trkpt lat="45.3472333" lon="7.5846358"><ele>560.0</ele><time>2026-04-25T11:05:59.227Z</time></trkpt><trkpt lat="45.3472956" lon="7.5847494"><ele>563.0</ele><time>2026-04-25T11:06:01.227Z</time></trkpt><trkpt lat="45.3473007" lon="7.584869"><ele>566.0</ele><time>2026-04-25T11:06:05.222Z</time></trkpt><trkpt lat="45.3473219" lon="7.5849675"><ele>569.0</ele><time>2026-04-25T11:06:29.226Z</time></trkpt><trkpt lat="45.3473815" lon="7.5850431"><ele>572.0</ele><time>2026-04-25T11:07:16.229Z</time></trkpt><trkpt lat="45.3474362" lon="7.5851292"><ele>575.0</ele><time>2026-04-25T11:07:18.227Z</time></trkpt><trkpt lat="45.3475029" lon="7.5852835"><ele>574.75</ele><time>2026-04-25T11:07:20.231Z</time></trkpt><trkpt lat="45.3475534" lon="7.5854245"><ele>574.5</ele><time>2026-04-25T11:07:22.24Z</time></trkpt><trkpt lat="45.3475424" lon="7.5855994"><ele>574.25</ele><time>2026-04-25T11:07:24.233Z</time></trkpt><trkpt lat="45.3475103" lon="7.5857326"><ele>574.0</ele><time>2026-04-25T11:07:25.228Z</time></trkpt><trkpt lat="45.3474479" lon="7.5859044"><ele>574.0</ele><time>2026-04-25T11:07:26.234Z</time></trkpt><trkpt lat="45.3474155" lon="7.5861101"><ele>574.0</ele><time>2026-04-25T11:07:27.242Z</time></trkpt><trkpt lat="45.3473906" lon="7.5862898"><ele>574.0</ele><time>2026-04-25T11:07:28.246Z</time></trkpt><trkpt lat="45.3473943" lon="7.5864588"><ele>574.0</ele><time>2026-04-25T11:07:29.241Z</time></trkpt><trkpt lat="45.3473989" lon="7.5865897"><ele>573.6</ele><time>2026-04-25T11:07:30.234Z</time></trkpt><trkpt lat="45.3474262" lon="7.5866977"><ele>573.2</ele><time>2026-04-25T11:07:31.233Z</time></trkpt><trkpt lat="45.3474704" lon="7.586811"><ele>572.8000000000001</ele><time>2026-04-25T11:07:32.235Z</time></trkpt><trkpt lat="45.3475302" lon="7.5869324"><ele>572.4</ele><time>2026-04-25T11:07:33.24Z</time></trkpt><trkpt lat="45.3476012" lon="7.5870611"><ele>572.0</ele><time>2026-04-25T11:07:34.235Z</time></trkpt><trkpt lat="45.3476941" lon="7.5871479"><ele>571.8000000000001</ele><time>2026-04-25T11:07:35.243Z</time></trkpt><trkpt lat="45.3477994" lon="7.5872102"><ele>571.6</ele><time>2026-04-25T11:07:36.243Z</time></trkpt><trkpt lat="45.3479073" lon="7.5872564"><ele>571.4000000000001</ele><time>2026-04-25T11:07:37.235Z</time></trkpt><trkpt lat="45.3480052" lon="7.5872947"><ele>571.2</ele><time>2026-04-25T11:07:38.237Z</time></trkpt><trkpt lat="45.3480875" lon="7.5873248"><ele>571.0</ele><time>2026-04-25T11:07:39.237Z</time></trkpt><trkpt lat="45.3481548" lon="7.5874354"><ele>571.0</ele><time>2026-04-25T11:07:41.248Z</time></trkpt><trkpt lat="45.348235" lon="7.5875255"><ele>571.0</ele><time>2026-04-25T11:07:43.25Z</time></trkpt><trkpt lat="45.3483551" lon="7.5874287"><ele>571.0</ele><time>2026-04-25T11:07:45.251Z</time></trkpt><trkpt lat="45.3484162" lon="7.5873424"><ele>571.0</ele><time>2026-04-25T11:07:46.239Z</time></trkpt><trkpt lat="45.3485134" lon="7.5872823"><ele>571.0</ele><time>2026-04-25T11:07:47.243Z</time></trkpt><trkpt lat="45.3486523" lon="7.5872248"><ele>571.0</ele><time>2026-04-25T11:07:48.244Z</time></trkpt><trkpt lat="45.3488176" lon="7.5871548"><ele>571.0</ele><time>2026-04-25T11:07:49.241Z</time></trkpt><trkpt lat="45.3490129" lon="7.5870797"><ele>571.0</ele><time>2026-04-25T11:07:50.244Z</time></trkpt><trkpt lat="45.3491799" lon="7.5870432"><ele>571.75</ele><time>2026-04-25T11:07:51.243Z</time></trkpt><trkpt lat="45.3493275" lon="7.5869972"><ele>572.5</ele><time>2026-04-25T11:07:52.243Z</time></trkpt><trkpt lat="45.3494659" lon="7.5869668"><ele>573.25</ele><time>2026-04-25T11:07:53.244Z</time></trkpt><trkpt lat="45.3496223" lon="7.5869765"><ele>574.0</ele><time>2026-04-25T11:07:54.247Z</time></trkpt><trkpt lat="45.3497953" lon="7.5869856"><ele>574.0</ele><time>2026-04-25T11:07:55.248Z</time></trkpt><trkpt lat="45.3499786" lon="7.5869649"><ele>574.0</ele><time>2026-04-25T11:07:56.237Z</time></trkpt><trkpt lat="45.3501601" lon="7.5869283"><ele>574.0</ele><time>2026-04-25T11:07:57.245Z</time></trkpt><trkpt lat="45.3503297" lon="7.5868851"><ele>574.0</ele><time>2026-04-25T11:07:58.242Z</time></trkpt><trkpt lat="45.3504973" lon="7.586827"><ele>574.0</ele><time>2026-04-25T11:07:59.239Z</time></trkpt><trkpt lat="45.3506813" lon="7.5867778"><ele>574.0</ele><time>2026-04-25T11:08:00.235Z</time></trkpt><trkpt lat="45.3508476" lon="7.5867274"><ele>573.75</ele><time>2026-04-25T11:08:01.232Z</time></trkpt><trkpt lat="45.350987" lon="7.5866904"><ele>573.5</ele><time>2026-04-25T11:08:02.228Z</time></trkpt><trkpt lat="45.3511242" lon="7.586663"><ele>573.25</ele><time>2026-04-25T11:08:03.228Z</time></trkpt><trkpt lat="45.3512508" lon="7.5866888"><ele>573.0</ele><time>2026-04-25T11:08:04.228Z</time></trkpt><trkpt lat="45.3513678" lon="7.5867129"><ele>573.3333333333334</ele><time>2026-04-25T11:08:05.217Z</time></trkpt><trkpt lat="45.3515485" lon="7.5867837"><ele>573.6666666666667</ele><time>2026-04-25T11:08:06.218Z</time></trkpt><trkpt lat="45.3517196" lon="7.5868005"><ele>574.0</ele><time>2026-04-25T11:08:07.208Z</time></trkpt><trkpt lat="45.351858" lon="7.5869171"><ele>573.5</ele><time>2026-04-25T11:08:08.22Z</time></trkpt><trkpt lat="45.3519891" lon="7.5870511"><ele>573.0</ele><time>2026-04-25T11:08:09.224Z</time></trkpt><trkpt lat="45.3520991" lon="7.5871614"><ele>572.5</ele><time>2026-04-25T11:08:10.225Z</time></trkpt><trkpt lat="45.3522131" lon="7.5872979"><ele>572.0</ele><time>2026-04-25T11:08:11.222Z</time></trkpt><trkpt lat="45.3522905" lon="7.5874973"><ele>572.0</ele><time>2026-04-25T11:08:12.225Z</time></trkpt><trkpt lat="45.3523533" lon="7.5876665"><ele>572.0</ele><time>2026-04-25T11:08:13.242Z</time></trkpt><trkpt lat="45.3524167" lon="7.5878199"><ele>572.0</ele><time>2026-04-25T11:08:14.228Z</time></trkpt><trkpt lat="45.3524055" lon="7.587993"><ele>572.0</ele><time>2026-04-25T11:08:15.229Z</time></trkpt><trkpt lat="45.352401" lon="7.5882112"><ele>572.0</ele><time>2026-04-25T11:08:16.23Z</time></trkpt><trkpt lat="45.3523767" lon="7.5884061"><ele>572.0</ele><time>2026-04-25T11:08:17.232Z</time></trkpt><trkpt lat="45.3523615" lon="7.5886084"><ele>572.0</ele><time>2026-04-25T11:08:18.222Z</time></trkpt><trkpt lat="45.3523265" lon="7.5888184"><ele>572.0</ele><time>2026-04-25T11:08:19.223Z</time></trkpt><trkpt lat="45.3523546" lon="7.5890065"><ele>572.0</ele><time>2026-04-25T11:08:20.221Z</time></trkpt><trkpt lat="45.3523963" lon="7.5891672"><ele>572.0</ele><time>2026-04-25T11:08:21.231Z</time></trkpt><trkpt lat="45.3524918" lon="7.5892922"><ele>572.0</ele><time>2026-04-25T11:08:22.234Z</time></trkpt><trkpt lat="45.3525981" lon="7.5894453"><ele>572.0</ele><time>2026-04-25T11:08:23.235Z</time></trkpt><trkpt lat="45.3526915" lon="7.5895647"><ele>572.1666666666666</ele><time>2026-04-25T11:08:24.235Z</time></trkpt><trkpt lat="45.3527747" lon="7.5896739"><ele>572.3333333333333</ele><time>2026-04-25T11:08:25.231Z</time></trkpt><trkpt lat="45.3528449" lon="7.5897738"><ele>572.5</ele><time>2026-04-25T11:08:26.228Z</time></trkpt><trkpt lat="45.3528911" lon="7.5898547"><ele>572.6666666666666</ele><time>2026-04-25T11:08:27.224Z</time></trkpt><trkpt lat="45.3528967" lon="7.5899459"><ele>572.8333333333334</ele><time>2026-04-25T11:08:28.232Z</time></trkpt><trkpt lat="45.3528827" lon="7.5900419"><ele>573.0</ele><time>2026-04-25T11:08:29.231Z</time></trkpt><trkpt lat="45.3528111" lon="7.5902007"><ele>573.6666666666666</ele><time>2026-04-25T11:08:30.237Z</time></trkpt><trkpt lat="45.35272" lon="7.5903796"><ele>574.3333333333333</ele><time>2026-04-25T11:08:31.234Z</time></trkpt><trkpt lat="45.3526463" lon="7.590588"><ele>575.0</ele><time>2026-04-25T11:08:32.234Z</time></trkpt><trkpt lat="45.3526169" lon="7.5908132"><ele>575.0</ele><time>2026-04-25T11:08:33.225Z</time></trkpt><trkpt lat="45.3526147" lon="7.5910847"><ele>575.0</ele><time>2026-04-25T11:08:34.226Z</time></trkpt><trkpt lat="45.3525915" lon="7.5913245"><ele>575.0</ele><time>2026-04-25T11:08:35.228Z</time></trkpt><trkpt lat="45.3525777" lon="7.5915599"><ele>576.6666666666666</ele><time>2026-04-25T11:08:36.236Z</time></trkpt><trkpt lat="45.3525652" lon="7.5917707"><ele>578.3333333333334</ele><time>2026-04-25T11:08:37.225Z</time></trkpt><trkpt lat="45.3525664" lon="7.5919839"><ele>580.0</ele><time>2026-04-25T11:08:38.223Z</time></trkpt><trkpt lat="45.35259" lon="7.5922097"><ele>581.3333333333334</ele><time>2026-04-25T11:08:39.234Z</time></trkpt><trkpt lat="45.3526183" lon="7.592403"><ele>582.6666666666666</ele><time>2026-04-25T11:08:40.236Z</time></trkpt><trkpt lat="45.3526528" lon="7.592609"><ele>584.0</ele><time>2026-04-25T11:08:41.232Z</time></trkpt><trkpt lat="45.3520991" lon="7.5871614"><ele>581.0</ele><time>2026-04-25T11:08:10.225Z</time></trkpt><trkpt lat="45.3522131" lon="7.5872979"><ele>578.0</ele><time>2026-04-25T11:08:11.222Z</time></trkpt><trkpt lat="45.3522905" lon="7.5874973"><ele>575.0</ele><time>2026-04-25T11:08:12.225Z</time></trkpt><trkpt lat="45.3523533" lon="7.5876665"><ele>572.0</ele><time>2026-04-25T11:08:13.242Z</time></trkpt><trkpt lat="45.3524167" lon="7.5878199"><ele>571.5</ele><time>2026-04-25T11:08:14.228Z</time></trkpt><trkpt lat="45.3524055" lon="7.587993"><ele>571.0</ele><time>2026-04-25T11:08:15.229Z</time></trkpt><trkpt lat="45.352401" lon="7.5882112"><ele>570.5</ele><time>2026-04-25T11:08:16.23Z</time></trkpt><trkpt lat="45.3523767" lon="7.5884061"><ele>570.0</ele><time>2026-04-25T11:08:17.232Z</time></trkpt><trkpt lat="45.3523615" lon="7.5886084"><ele>570.5</ele><time>2026-04-25T11:08:18.222Z</time></trkpt><trkpt lat="45.3523265" lon="7.5888184"><ele>571.0</ele><time>2026-04-25T11:08:19.223Z</time></trkpt><trkpt lat="45.3523546" lon="7.5890065"><ele>571.5</ele><time>2026-04-25T11:08:20.221Z</time></trkpt><trkpt lat="45.3523963" lon="7.5891672"><ele>572.0</ele><time>2026-04-25T11:08:21.231Z</time></trkpt><trkpt lat="45.3524918" lon="7.5892922"><ele>572.0</ele><time>2026-04-25T11:08:22.234Z</time></trkpt><trkpt lat="45.3525981" lon="7.5894453"><ele>572.0</ele><time>2026-04-25T11:08:23.235Z</time></trkpt><trkpt lat="45.3526915" lon="7.5895647"><ele>572.0</ele><time>2026-04-25T11:08:24.235Z</time></trkpt><trkpt lat="45.3527747" lon="7.5896739"><ele>572.0</ele><time>2026-04-25T11:08:25.231Z</time></trkpt><trkpt lat="45.3528449" lon="7.5897738"><ele>572.2</ele><time>2026-04-25T11:08:26.228Z</time></trkpt><trkpt lat="45.3528911" lon="7.5898547"><ele>572.4000000000001</ele><time>2026-04-25T11:08:27.224Z</time></trkpt><trkpt lat="45.3528967" lon="7.5899459"><ele>572.5999999999999</ele><time>2026-04-25T11:08:28.232Z</time></trkpt><trkpt lat="45.3528827" lon="7.5900419"><ele>572.8</ele><time>2026-04-25T11:08:29.231Z</time></trkpt><trkpt lat="45.3528111" lon="7.5902007"><ele>573.0</ele><time>2026-04-25T11:08:30.237Z</time></trkpt><trkpt lat="45.35272" lon="7.5903796"><ele>573.6666666666666</ele><time>2026-04-25T11:08:31.234Z</time></trkpt><trkpt lat="45.3526463" lon="7.590588"><ele>574.3333333333333</ele><time>2026-04-25T11:08:32.234Z</time></trkpt><trkpt lat="45.3526169" lon="7.5908132"><ele>575.0</ele><time>2026-04-25T11:08:33.225Z</time></trkpt><trkpt lat="45.3526147" lon="7.5910847"><ele>576.6666666666666</ele><time>2026-04-25T11:08:34.226Z</time></trkpt><trkpt lat="45.3525915" lon="7.5913245"><ele>578.3333333333334</ele><time>2026-04-25T11:08:35.228Z</time></trkpt><trkpt lat="45.3525777" lon="7.5915599"><ele>580.0</ele><time>2026-04-25T11:08:36.236Z</time></trkpt><trkpt lat="45.3525652" lon="7.5917707"><ele>580.0</ele><time>2026-04-25T11:08:37.225Z</time></trkpt><trkpt lat="45.3525664" lon="7.5919839"><ele>580.0</ele><time>2026-04-25T11:08:38.223Z</time></trkpt><trkpt lat="45.35259" lon="7.5922097"><ele>580.0</ele><time>2026-04-25T11:08:39.234Z</time></trkpt><trkpt lat="45.3526183" lon="7.592403"><ele>580.0</ele><time>2026-04-25T11:08:40.236Z</time></trkpt><trkpt lat="45.3526528" lon="7.592609"><ele>581.3333333333334</ele><time>2026-04-25T11:08:41.232Z</time></trkpt><trkpt lat="45.3526744" lon="7.5928171"><ele>582.6666666666666</ele><time>2026-04-25T11:08:42.229Z</time></trkpt><trkpt lat="45.352637" lon="7.5930539"><ele>584.0</ele><time>2026-04-25T11:08:43.225Z</time></trkpt><trkpt lat="45.3526032" lon="7.5932944"><ele>585.6666666666666</ele><time>2026-04-25T11:08:44.239Z</time></trkpt><trkpt lat="45.3525898" lon="7.5935437"><ele>587.3333333333334</ele><time>2026-04-25T11:08:45.23Z</time></trkpt><trkpt lat="45.3526084" lon="7.5937759"><ele>589.0</ele><time>2026-04-25T11:08:46.23Z</time></trkpt><trkpt lat="45.352624" lon="7.594017"><ele>591.0</ele><time>2026-04-25T11:08:47.235Z</time></trkpt><trkpt lat="45.3526161" lon="7.5942306"><ele>593.0</ele><time>2026-04-25T11:08:48.234Z</time></trkpt><trkpt lat="45.3526053" lon="7.5944545"><ele>595.0</ele><time>2026-04-25T11:08:49.234Z</time></trkpt><trkpt lat="45.3526075" lon="7.594648"><ele>597.0</ele><time>2026-04-25T11:08:50.231Z</time></trkpt><trkpt lat="45.3526304" lon="7.5948238"><ele>598.2</ele><time>2026-04-25T11:08:51.241Z</time></trkpt><trkpt lat="45.352655" lon="7.5950206"><ele>599.4000000000001</ele><time>2026-04-25T11:08:52.236Z</time></trkpt><trkpt lat="45.3526796" lon="7.5951876"><ele>600.5999999999999</ele><time>2026-04-25T11:08:53.227Z</time></trkpt><trkpt lat="45.3526619" lon="7.5952817"><ele>601.8</ele><time>2026-04-25T11:08:54.22Z</time></trkpt><trkpt lat="45.3525856" lon="7.5953494"><ele>603.0</ele><time>2026-04-25T11:08:55.223Z</time></trkpt><trkpt lat="45.3524767" lon="7.5953916"><ele>603.75</ele><time>2026-04-25T11:08:56.212Z</time></trkpt><trkpt lat="45.3523692" lon="7.5954015"><ele>604.5</ele><time>2026-04-25T11:08:57.224Z</time></trkpt><trkpt lat="45.3522499" lon="7.5953897"><ele>605.25</ele><time>2026-04-25T11:08:58.217Z</time></trkpt><trkpt lat="45.3521184" lon="7.5953779"><ele>606.0</ele><time>2026-04-25T11:08:59.219Z</time></trkpt><trkpt lat="45.3519915" lon="7.5953704"><ele>606.0</ele><time>2026-04-25T11:09:00.224Z</time></trkpt><trkpt lat="45.3518557" lon="7.5954164"><ele>606.0</ele><time>2026-04-25T11:09:01.228Z</time></trkpt><trkpt lat="45.3517259" lon="7.5954729"><ele>606.0</ele><time>2026-04-25T11:09:02.24Z</time></trkpt><trkpt lat="45.3515985" lon="7.5955839"><ele>606.0</ele><time>2026-04-25T11:09:03.234Z</time></trkpt><trkpt lat="45.3514675" lon="7.5957319"><ele>606.0</ele><time>2026-04-25T11:09:04.228Z</time></trkpt><trkpt lat="45.3513514" lon="7.5958886"><ele>606.0</ele><time>2026-04-25T11:09:05.233Z</time></trkpt><trkpt lat="45.3512595" lon="7.5960092"><ele>606.0</ele><time>2026-04-25T11:09:06.232Z</time></trkpt><trkpt lat="45.3511611" lon="7.5961183"><ele>606.0</ele><time>2026-04-25T11:09:07.229Z</time></trkpt><trkpt lat="45.3510673" lon="7.5962682"><ele>606.0</ele><time>2026-04-25T11:09:08.227Z</time></trkpt><trkpt lat="45.3509849" lon="7.5964702"><ele>606.0</ele><time>2026-04-25T11:09:09.235Z</time></trkpt><trkpt lat="45.3508857" lon="7.5966486"><ele>606.0</ele><time>2026-04-25T11:09:10.231Z</time></trkpt><trkpt lat="45.3508102" lon="7.5968455"><ele>606.0</ele><time>2026-04-25T11:09:11.236Z</time></trkpt><trkpt lat="45.3507213" lon="7.5969908"><ele>606.0</ele><time>2026-04-25T11:09:12.232Z</time></trkpt><trkpt lat="45.3506581" lon="7.5971249"><ele>606.0</ele><time>2026-04-25T11:09:13.229Z</time></trkpt><trkpt lat="45.3505734" lon="7.5972507"><ele>606.0</ele><time>2026-04-25T11:09:14.23Z</time></trkpt><trkpt lat="45.3505277" lon="7.5973724"><ele>606.75</ele><time>2026-04-25T11:09:15.232Z</time></trkpt><trkpt lat="45.3505541" lon="7.5975556"><ele>607.5</ele><time>2026-04-25T11:09:16.245Z</time></trkpt><trkpt lat="45.350591" lon="7.597765"><ele>608.25</ele><time>2026-04-25T11:09:17.241Z</time></trkpt><trkpt lat="45.3506335" lon="7.5979757"><ele>609.0</ele><time>2026-04-25T11:09:18.23Z</time></trkpt><trkpt lat="45.3506639" lon="7.5981511"><ele>609.0</ele><time>2026-04-25T11:09:19.24Z</time></trkpt><trkpt lat="45.3506859" lon="7.5983056"><ele>609.0</ele><time>2026-04-25T11:09:20.232Z</time></trkpt><trkpt lat="45.3507187" lon="7.5984472"><ele>609.0</ele><time>2026-04-25T11:09:21.233Z</time></trkpt><trkpt lat="45.350765" lon="7.5985652"><ele>609.0</ele><time>2026-04-25T11:09:22.249Z</time></trkpt><trkpt lat="45.3508217" lon="7.5986519"><ele>609.0</ele><time>2026-04-25T11:09:23.231Z</time></trkpt><trkpt lat="45.3509539" lon="7.5986261"><ele>609.0</ele><time>2026-04-25T11:09:25.238Z</time></trkpt><trkpt lat="45.3510315" lon="7.5985261"><ele>609.0</ele><time>2026-04-25T11:09:26.231Z</time></trkpt><trkpt lat="45.3511181" lon="7.5983861"><ele>609.0</ele><time>2026-04-25T11:09:27.232Z</time></trkpt><trkpt lat="45.3512155" lon="7.5982357"><ele>609.0</ele><time>2026-04-25T11:09:28.225Z</time></trkpt><trkpt lat="45.3513182" lon="7.5980751"><ele>611.6666666666666</ele><time>2026-04-25T11:09:29.225Z</time></trkpt><trkpt lat="45.3514267" lon="7.5979098"><ele>614.3333333333333</ele><time>2026-04-25T11:09:30.22Z</time></trkpt><trkpt lat="45.3515729" lon="7.5977324"><ele>617.0</ele><time>2026-04-25T11:09:31.235Z</time></trkpt><trkpt lat="45.3516802" lon="7.5975667"><ele>617.0</ele><time>2026-04-25T11:09:32.239Z</time></trkpt><trkpt lat="45.3517847" lon="7.5974174"><ele>617.0</ele><time>2026-04-25T11:09:33.238Z</time></trkpt><trkpt lat="45.3518623" lon="7.597273"><ele>617.0</ele><time>2026-04-25T11:09:34.226Z</time></trkpt><trkpt lat="45.3519835" lon="7.5971374"><ele>617.0</ele><time>2026-04-25T11:09:35.231Z</time></trkpt><trkpt lat="45.3520774" lon="7.5970166"><ele>617.0</ele><time>2026-04-25T11:09:36.233Z</time></trkpt><trkpt lat="45.3521406" lon="7.5969375"><ele>617.0</ele><time>2026-04-25T11:09:37.23Z</time></trkpt><trkpt lat="45.3522357" lon="7.5968182"><ele>617.0</ele><time>2026-04-25T11:09:38.231Z</time></trkpt><trkpt lat="45.352351" lon="7.5967451"><ele>617.0</ele><time>2026-04-25T11:09:39.236Z</time></trkpt><trkpt lat="45.352454" lon="7.5967077"><ele>617.0</ele><time>2026-04-25T11:09:40.23Z</time></trkpt><trkpt lat="45.3525358" lon="7.5966726"><ele>617.0</ele><time>2026-04-25T11:09:41.224Z</time></trkpt><trkpt lat="45.3526175" lon="7.5965922"><ele>617.0</ele><time>2026-04-25T11:09:42.236Z</time></trkpt><trkpt lat="45.3527085" lon="7.5964991"><ele>617.0</ele><time>2026-04-25T11:09:43.237Z</time></trkpt><trkpt lat="45.3527903" lon="7.5964166"><ele>617.0</ele><time>2026-04-25T11:09:44.235Z</time></trkpt><trkpt lat="45.3528708" lon="7.5963376"><ele>617.0</ele><time>2026-04-25T11:09:45.228Z</time></trkpt><trkpt lat="45.3529573" lon="7.5962826"><ele>617.0</ele><time>2026-04-25T11:09:46.238Z</time></trkpt><trkpt lat="45.3530219" lon="7.5962442"><ele>617.0</ele><time>2026-04-25T11:09:47.236Z</time></trkpt><trkpt lat="45.3530968" lon="7.5962407"><ele>617.0</ele><time>2026-04-25T11:09:48.229Z</time></trkpt><trkpt lat="45.3531807" lon="7.5962272"><ele>617.0</ele><time>2026-04-25T11:09:49.222Z</time></trkpt><trkpt lat="45.3532718" lon="7.5962139"><ele>617.0</ele><time>2026-04-25T11:09:50.226Z</time></trkpt><trkpt lat="45.3533492" lon="7.5961726"><ele>617.0</ele><time>2026-04-25T11:09:51.235Z</time></trkpt><trkpt lat="45.3534277" lon="7.5961283"><ele>617.25</ele><time>2026-04-25T11:09:52.234Z</time></trkpt><trkpt lat="45.3535248" lon="7.5960781"><ele>617.5</ele><time>2026-04-25T11:09:53.231Z</time></trkpt><trkpt lat="45.3536481" lon="7.5960083"><ele>617.75</ele><time>2026-04-25T11:09:54.236Z</time></trkpt><trkpt lat="45.3537813" lon="7.5959403"><ele>618.0</ele><time>2026-04-25T11:09:55.224Z</time></trkpt><trkpt lat="45.3539181" lon="7.5958591"><ele>614.5</ele><time>2026-04-25T11:09:56.239Z</time></trkpt><trkpt lat="45.3540631" lon="7.5957686"><ele>611.0</ele><time>2026-04-25T11:09:57.232Z</time></trkpt><trkpt lat="45.3541796" lon="7.5956875"><ele>607.5</ele><time>2026-04-25T11:09:58.234Z</time></trkpt><trkpt lat="45.3542898" lon="7.5955867"><ele>604.0</ele><time>2026-04-25T11:09:59.239Z</time></trkpt><trkpt lat="45.3543447" lon="7.5954056"><ele>610.6666666666667</ele><time>2026-04-25T11:10:00.235Z</time></trkpt><trkpt lat="45.3543792" lon="7.5951899"><ele>617.3333333333334</ele><time>2026-04-25T11:10:01.233Z</time></trkpt><trkpt lat="45.3544302" lon="7.5949705"><ele>624.0</ele><time>2026-04-25T11:10:02.226Z</time></trkpt><trkpt lat="45.3544858" lon="7.594781"><ele>624.0</ele><time>2026-04-25T11:10:03.222Z</time></trkpt><trkpt lat="45.3545298" lon="7.5946629"><ele>624.0</ele><time>2026-04-25T11:10:04.216Z</time></trkpt><trkpt lat="45.3546007" lon="7.5945618"><ele>624.0</ele><time>2026-04-25T11:10:05.215Z</time></trkpt><trkpt lat="45.3547006" lon="7.5944662"><ele>624.0</ele><time>2026-04-25T11:10:06.215Z</time></trkpt><trkpt lat="45.3548404" lon="7.5944062"><ele>626.3333333333334</ele><time>2026-04-25T11:10:07.216Z</time></trkpt><trkpt lat="45.3550099" lon="7.5943627"><ele>628.6666666666667</ele><time>2026-04-25T11:10:08.208Z</time></trkpt><trkpt lat="45.3552258" lon="7.594372"><ele>631.0</ele><time>2026-04-25T11:10:09.223Z</time></trkpt><trkpt lat="45.3553818" lon="7.5943799"><ele>626.6666666666667</ele><time>2026-04-25T11:10:10.211Z</time></trkpt><trkpt lat="45.3555479" lon="7.5943906"><ele>622.3333333333334</ele><time>2026-04-25T11:10:11.228Z</time></trkpt><trkpt lat="45.3557032" lon="7.5943819"><ele>618.0</ele><time>2026-04-25T11:10:12.227Z</time></trkpt><trkpt lat="45.3558371" lon="7.5943697"><ele>618.0</ele><time>2026-04-25T11:10:13.226Z</time></trkpt><trkpt lat="45.3559721" lon="7.5943269"><ele>618.0</ele><time>2026-04-25T11:10:14.225Z</time></trkpt><trkpt lat="45.3560747" lon="7.5942964"><ele>618.0</ele><time>2026-04-25T11:10:15.223Z</time></trkpt><trkpt lat="45.3561661" lon="7.5943634"><ele>618.0</ele><time>2026-04-25T11:10:16.233Z</time></trkpt><trkpt lat="45.35625" lon="7.5944685"><ele>615.5</ele><time>2026-04-25T11:10:17.238Z</time></trkpt><trkpt lat="45.356306" lon="7.5946138"><ele>613.0</ele><time>2026-04-25T11:10:18.223Z</time></trkpt><trkpt lat="45.3563421" lon="7.5947724"><ele>610.5</ele><time>2026-04-25T11:10:19.23Z</time></trkpt><trkpt lat="45.3563986" lon="7.5949433"><ele>608.0</ele><time>2026-04-25T11:10:20.221Z</time></trkpt><trkpt lat="45.3564792" lon="7.5950818"><ele>608.0</ele><time>2026-04-25T11:10:21.237Z</time></trkpt><trkpt lat="45.3565811" lon="7.5951645"><ele>608.0</ele><time>2026-04-25T11:10:22.236Z</time></trkpt><trkpt lat="45.3566928" lon="7.5952075"><ele>608.0</ele><time>2026-04-25T11:10:23.22Z</time></trkpt><trkpt lat="45.3568139" lon="7.5952092"><ele>608.0</ele><time>2026-04-25T11:10:24.22Z</time></trkpt><trkpt lat="45.3569429" lon="7.595158"><ele>608.0</ele><time>2026-04-25T11:10:25.216Z</time></trkpt><trkpt lat="45.3570681" lon="7.5950832"><ele>608.0</ele><time>2026-04-25T11:10:26.213Z</time></trkpt><trkpt lat="45.3571942" lon="7.5949818"><ele>608.0</ele><time>2026-04-25T11:10:27.22Z</time></trkpt><trkpt lat="45.3573289" lon="7.5948604"><ele>608.0</ele><time>2026-04-25T11:10:28.22Z</time></trkpt><trkpt lat="45.3574779" lon="7.5947195"><ele>606.0</ele><time>2026-04-25T11:10:29.222Z</time></trkpt><trkpt lat="45.357657" lon="7.5946002"><ele>604.0</ele><time>2026-04-25T11:10:30.221Z</time></trkpt><trkpt lat="45.3577857" lon="7.5944495"><ele>602.0</ele><time>2026-04-25T11:10:31.227Z</time></trkpt><trkpt lat="45.3578819" lon="7.5943228"><ele>603.0</ele><time>2026-04-25T11:10:32.222Z</time></trkpt><trkpt lat="45.3579677" lon="7.5941758"><ele>604.0</ele><time>2026-04-25T11:10:33.22Z</time></trkpt><trkpt lat="45.3580526" lon="7.5939526"><ele>605.0</ele><time>2026-04-25T11:10:34.226Z</time></trkpt><trkpt lat="45.3581151" lon="7.5937088"><ele>608.0</ele><time>2026-04-25T11:10:35.219Z</time></trkpt><trkpt lat="45.3581772" lon="7.5934982"><ele>611.0</ele><time>2026-04-25T11:10:36.217Z</time></trkpt><trkpt lat="45.3582284" lon="7.5933873"><ele>614.0</ele><time>2026-04-25T11:10:37.218Z</time></trkpt><trkpt lat="45.3582908" lon="7.5933195"><ele>617.0</ele><time>2026-04-25T11:10:38.213Z</time></trkpt><trkpt lat="45.3583675" lon="7.5932938"><ele>620.0</ele><time>2026-04-25T11:10:39.217Z</time></trkpt><trkpt lat="45.3585051" lon="7.5933477"><ele>620.0</ele><time>2026-04-25T11:10:40.211Z</time></trkpt><trkpt lat="45.3586323" lon="7.5934105"><ele>620.0</ele><time>2026-04-25T11:10:41.216Z</time></trkpt><trkpt lat="45.3587524" lon="7.5934686"><ele>620.0</ele><time>2026-04-25T11:10:42.224Z</time></trkpt><trkpt lat="45.3588481" lon="7.593535"><ele>620.0</ele><time>2026-04-25T11:10:43.222Z</time></trkpt><trkpt lat="45.3589201" lon="7.5936151"><ele>618.0</ele><time>2026-04-25T11:10:44.222Z</time></trkpt><trkpt lat="45.358968" lon="7.5937202"><ele>616.0</ele><time>2026-04-25T11:10:45.225Z</time></trkpt><trkpt lat="45.3589831" lon="7.5938752"><ele>614.0</ele><time>2026-04-25T11:10:46.225Z</time></trkpt><trkpt lat="45.3589686" lon="7.5940546"><ele>612.0</ele><time>2026-04-25T11:10:47.224Z</time></trkpt><trkpt lat="45.3589969" lon="7.5942082"><ele>610.0</ele><time>2026-04-25T11:10:48.238Z</time></trkpt><trkpt lat="45.3590458" lon="7.5943238"><ele>610.0</ele><time>2026-04-25T11:10:49.235Z</time></trkpt><trkpt lat="45.3591287" lon="7.5943842"><ele>610.0</ele><time>2026-04-25T11:10:50.234Z</time></trkpt><trkpt lat="45.3592234" lon="7.5943966"><ele>610.0</ele><time>2026-04-25T11:10:51.235Z</time></trkpt><trkpt lat="45.3593318" lon="7.594362"><ele>610.0</ele><time>2026-04-25T11:10:52.226Z</time></trkpt><trkpt lat="45.3594413" lon="7.5942984"><ele>610.0</ele><time>2026-04-25T11:10:53.224Z</time></trkpt><trkpt lat="45.3595228" lon="7.5942056"><ele>610.0</ele><time>2026-04-25T11:10:54.231Z</time></trkpt><trkpt lat="45.3595775" lon="7.5940694"><ele>610.0</ele><time>2026-04-25T11:10:55.222Z</time></trkpt><trkpt lat="45.3596144" lon="7.5938982"><ele>610.0</ele><time>2026-04-25T11:10:56.209Z</time></trkpt><trkpt lat="45.3596332" lon="7.5936821"><ele>610.0</ele><time>2026-04-25T11:10:57.216Z</time></trkpt><trkpt lat="45.3596373" lon="7.5934767"><ele>611.8</ele><time>2026-04-25T11:10:58.22Z</time></trkpt><trkpt lat="45.3596501" lon="7.5933263"><ele>613.6</ele><time>2026-04-25T11:10:59.224Z</time></trkpt><trkpt lat="45.3596668" lon="7.5932329"><ele>615.4</ele><time>2026-04-25T11:11:00.218Z</time></trkpt><trkpt lat="45.3597219" lon="7.5931777"><ele>617.2</ele><time>2026-04-25T11:11:01.221Z</time></trkpt><trkpt lat="45.3598278" lon="7.5932238"><ele>619.0</ele><time>2026-04-25T11:11:03.219Z</time></trkpt><trkpt lat="45.3599196" lon="7.5933551"><ele>619.0</ele><time>2026-04-25T11:11:04.221Z</time></trkpt><trkpt lat="45.3600083" lon="7.5935329"><ele>619.0</ele><time>2026-04-25T11:11:05.216Z</time></trkpt><trkpt lat="45.3600822" lon="7.5937482"><ele>619.0</ele><time>2026-04-25T11:11:06.214Z</time></trkpt><trkpt lat="45.3601509" lon="7.59401"><ele>617.0</ele><time>2026-04-25T11:11:07.214Z</time></trkpt><trkpt lat="45.3602015" lon="7.5942422"><ele>615.0</ele><time>2026-04-25T11:11:08.225Z</time></trkpt><trkpt lat="45.3602477" lon="7.5944094"><ele>613.0</ele><time>2026-04-25T11:11:09.233Z</time></trkpt><trkpt lat="45.3603259" lon="7.5944797"><ele>611.0</ele><time>2026-04-25T11:11:10.227Z</time></trkpt><trkpt lat="45.360435" lon="7.5945005"><ele>615.5</ele><time>2026-04-25T11:11:11.236Z</time></trkpt><trkpt lat="45.3605608" lon="7.5944765"><ele>620.0</ele><time>2026-04-25T11:11:12.227Z</time></trkpt><trkpt lat="45.3606883" lon="7.5944154"><ele>624.5</ele><time>2026-04-25T11:11:13.228Z</time></trkpt><trkpt lat="45.360765" lon="7.5943986"><ele>629.0</ele><time>2026-04-25T11:11:14.219Z</time></trkpt><trkpt lat="45.3608628" lon="7.5944799"><ele>627.3333333333333</ele><time>2026-04-25T11:11:16.224Z</time></trkpt><trkpt lat="45.3608175" lon="7.5946478"><ele>625.6666666666666</ele><time>2026-04-25T11:11:18.212Z</time></trkpt><trkpt lat="45.3607038" lon="7.594794"><ele>624.0</ele><time>2026-04-25T11:11:19.227Z</time></trkpt><trkpt lat="45.3605685" lon="7.594945"><ele>617.5</ele><time>2026-04-25T11:11:20.22Z</time></trkpt><trkpt lat="45.3604555" lon="7.5951048"><ele>611.0</ele><time>2026-04-25T11:11:21.232Z</time></trkpt><trkpt lat="45.3604053" lon="7.5952871"><ele>604.5</ele><time>2026-04-25T11:11:22.227Z</time></trkpt><trkpt lat="45.3603837" lon="7.5954448"><ele>598.0</ele><time>2026-04-25T11:11:23.23Z</time></trkpt><trkpt lat="45.3603775" lon="7.595573"><ele>598.0</ele><time>2026-04-25T11:11:24.238Z</time></trkpt><trkpt lat="45.3603562" lon="7.5956734"><ele>598.0</ele><time>2026-04-25T11:11:25.229Z</time></trkpt><trkpt lat="45.360308" lon="7.5957508"><ele>598.0</ele><time>2026-04-25T11:11:26.233Z</time></trkpt><trkpt lat="45.3602552" lon="7.5958111"><ele>598.0</ele><time>2026-04-25T11:11:27.236Z</time></trkpt><trkpt lat="45.3601945" lon="7.5958767"><ele>598.0</ele><time>2026-04-25T11:11:29.233Z</time></trkpt><trkpt lat="45.36027" lon="7.5959011"><ele>598.0</ele><time>2026-04-25T11:11:32.233Z</time></trkpt><trkpt lat="45.3603199" lon="7.5957916"><ele>598.0</ele><time>2026-04-25T11:11:33.228Z</time></trkpt><trkpt lat="45.3603839" lon="7.5956318"><ele>598.0</ele><time>2026-04-25T11:11:34.226Z</time></trkpt><trkpt lat="45.360442" lon="7.5955115"><ele>598.0</ele><time>2026-04-25T11:11:35.219Z</time></trkpt><trkpt lat="45.3604801" lon="7.5954296"><ele>598.0</ele><time>2026-04-25T11:11:36.225Z</time></trkpt><trkpt lat="45.360561" lon="7.5955084"><ele>598.0</ele><time>2026-04-25T11:11:39.231Z</time></trkpt><trkpt lat="45.360519" lon="7.5955996"><ele>598.0</ele><time>2026-04-25T11:11:41.222Z</time></trkpt><trkpt lat="45.3604568" lon="7.5956877"><ele>598.0</ele><time>2026-04-25T11:11:42.233Z</time></trkpt><trkpt lat="45.3603634" lon="7.5958271"><ele>598.0</ele><time>2026-04-25T11:11:43.229Z</time></trkpt><trkpt lat="45.3602961" lon="7.5960104"><ele>598.0</ele><time>2026-04-25T11:11:44.237Z</time></trkpt><trkpt lat="45.3602398" lon="7.5962502"><ele>600.5</ele><time>2026-04-25T11:11:45.227Z</time></trkpt><trkpt lat="45.3602027" lon="7.5965254"><ele>603.0</ele><time>2026-04-25T11:11:46.23Z</time></trkpt><trkpt lat="45.3601671" lon="7.5966811"><ele>605.5</ele><time>2026-04-25T11:11:47.238Z</time></trkpt><trkpt lat="45.3601808" lon="7.5968421"><ele>608.0</ele><time>2026-04-25T11:11:48.23Z</time></trkpt><trkpt lat="45.3601892" lon="7.5969565"><ele>608.0</ele><time>2026-04-25T11:11:49.243Z</time></trkpt><trkpt lat="45.3602443" lon="7.5970504"><ele>608.0</ele><time>2026-04-25T11:11:50.251Z</time></trkpt><trkpt lat="45.3602958" lon="7.597114"><ele>608.0</ele><time>2026-04-25T11:11:51.24Z</time></trkpt><trkpt lat="45.3603907" lon="7.5971369"><ele>608.0</ele><time>2026-04-25T11:11:53.23Z</time></trkpt><trkpt lat="45.3604691" lon="7.5970139"><ele>608.0</ele><time>2026-04-25T11:11:55.237Z</time></trkpt><trkpt lat="45.360473" lon="7.5968976"><ele>608.0</ele><time>2026-04-25T11:11:56.236Z</time></trkpt><trkpt lat="45.3605118" lon="7.596765"><ele>615.4</ele><time>2026-04-25T11:11:57.233Z</time></trkpt><trkpt lat="45.3605726" lon="7.596625"><ele>622.8</ele><time>2026-04-25T11:11:58.235Z</time></trkpt><trkpt lat="45.3606295" lon="7.5965129"><ele>630.2</ele><time>2026-04-25T11:11:59.243Z</time></trkpt><trkpt lat="45.3606763" lon="7.5964413"><ele>637.6</ele><time>2026-04-25T11:12:00.238Z</time></trkpt><trkpt lat="45.360743" lon="7.5964305"><ele>645.0</ele><time>2026-04-25T11:12:02.233Z</time></trkpt><trkpt lat="45.3607511" lon="7.5965889"><ele>645.0</ele><time>2026-04-25T11:12:04.236Z</time></trkpt><trkpt lat="45.360728" lon="7.5966977"><ele>645.0</ele><time>2026-04-25T11:12:05.222Z</time></trkpt><trkpt lat="45.360715" lon="7.5968586"><ele>645.0</ele><time>2026-04-25T11:12:06.233Z</time></trkpt><trkpt lat="45.3607445" lon="7.5970026"><ele>645.0</ele><time>2026-04-25T11:12:07.239Z</time></trkpt><trkpt lat="45.3607954" lon="7.5970813"><ele>645.0</ele><time>2026-04-25T11:12:08.225Z</time></trkpt><trkpt lat="45.3608565" lon="7.5971218"><ele>645.0</ele><time>2026-04-25T11:12:09.239Z</time></trkpt><trkpt lat="45.3609161" lon="7.5970925"><ele>645.0</ele><time>2026-04-25T11:12:10.236Z</time></trkpt><trkpt lat="45.3609609" lon="7.597"><ele>645.0</ele><time>2026-04-25T11:12:11.24Z</time></trkpt><trkpt lat="45.3609946" lon="7.5968378"><ele>645.0</ele><time>2026-04-25T11:12:12.237Z</time></trkpt><trkpt lat="45.3610469" lon="7.5966332"><ele>645.0</ele><time>2026-04-25T11:12:13.229Z</time></trkpt><trkpt lat="45.3611288" lon="7.5963885"><ele>639.0</ele><time>2026-04-25T11:12:14.232Z</time></trkpt><trkpt lat="45.3612477" lon="7.596101"><ele>633.0</ele><time>2026-04-25T11:12:15.233Z</time></trkpt><trkpt lat="45.3613897" lon="7.5957474"><ele>639.6666666666666</ele><time>2026-04-25T11:12:16.224Z</time></trkpt><trkpt lat="45.3615237" lon="7.5955059"><ele>646.3333333333333</ele><time>2026-04-25T11:12:17.223Z</time></trkpt><trkpt lat="45.3616329" lon="7.5953419"><ele>653.0</ele><time>2026-04-25T11:12:18.223Z</time></trkpt><trkpt lat="45.3617011" lon="7.5952018"><ele>653.0</ele><time>2026-04-25T11:12:19.217Z</time></trkpt><trkpt lat="45.3618164" lon="7.5951275"><ele>653.0</ele><time>2026-04-25T11:12:20.225Z</time></trkpt><trkpt lat="45.3618974" lon="7.5950861"><ele>653.0</ele><time>2026-04-25T11:12:21.229Z</time></trkpt><trkpt lat="45.3619828" lon="7.595158"><ele>653.0</ele><time>2026-04-25T11:12:22.229Z</time></trkpt><trkpt lat="45.3620801" lon="7.5952841"><ele>653.0</ele><time>2026-04-25T11:12:23.22Z</time></trkpt><trkpt lat="45.3622178" lon="7.5953306"><ele>657.0</ele><time>2026-04-25T11:12:24.222Z</time></trkpt><trkpt lat="45.362378" lon="7.5953887"><ele>661.0</ele><time>2026-04-25T11:12:25.226Z</time></trkpt><trkpt lat="45.3624852" lon="7.595378"><ele>665.0</ele><time>2026-04-25T11:12:26.216Z</time></trkpt><trkpt lat="45.3625872" lon="7.5953573"><ele>669.0</ele><time>2026-04-25T11:12:27.23Z</time></trkpt><trkpt lat="45.3626461" lon="7.5952659"><ele>669.0</ele><time>2026-04-25T11:12:28.235Z</time></trkpt><trkpt lat="45.3626733" lon="7.5951009"><ele>669.0</ele><time>2026-04-25T11:12:29.234Z</time></trkpt><trkpt lat="45.3627011" lon="7.5949246"><ele>669.0</ele><time>2026-04-25T11:12:30.226Z</time></trkpt><trkpt lat="45.3627346" lon="7.5947974"><ele>669.0</ele><time>2026-04-25T11:12:31.231Z</time></trkpt><trkpt lat="45.3628098" lon="7.5947021"><ele>669.0</ele><time>2026-04-25T11:12:32.237Z</time></trkpt><trkpt lat="45.3628636" lon="7.5945508"><ele>667.6</ele><time>2026-04-25T11:12:33.228Z</time></trkpt><trkpt lat="45.3629521" lon="7.5943957"><ele>666.2</ele><time>2026-04-25T11:12:34.231Z</time></trkpt><trkpt lat="45.3630162" lon="7.5942709"><ele>664.8000000000001</ele><time>2026-04-25T11:12:35.227Z</time></trkpt><trkpt lat="45.363035" lon="7.594167"><ele>663.4000000000001</ele><time>2026-04-25T11:12:36.226Z</time></trkpt><trkpt lat="45.3630414" lon="7.5940561"><ele>662.0</ele><time>2026-04-25T11:12:37.227Z</time></trkpt><trkpt lat="45.3630325" lon="7.5939024"><ele>662.0</ele><time>2026-04-25T11:12:38.234Z</time></trkpt><trkpt lat="45.3630231" lon="7.5937085"><ele>662.0</ele><time>2026-04-25T11:12:39.237Z</time></trkpt><trkpt lat="45.3630198" lon="7.5935542"><ele>662.0</ele><time>2026-04-25T11:12:40.237Z</time></trkpt><trkpt lat="45.363043" lon="7.5934016"><ele>662.0</ele><time>2026-04-25T11:12:41.244Z</time></trkpt><trkpt lat="45.3630841" lon="7.5932302"><ele>669.0</ele><time>2026-04-25T11:12:42.229Z</time></trkpt><trkpt lat="45.3631517" lon="7.59306"><ele>676.0</ele><time>2026-04-25T11:12:43.24Z</time></trkpt><trkpt lat="45.3632365" lon="7.5928838"><ele>683.0</ele><time>2026-04-25T11:12:44.234Z</time></trkpt><trkpt lat="45.3633337" lon="7.5927195"><ele>690.0</ele><time>2026-04-25T11:12:45.233Z</time></trkpt><trkpt lat="45.3634343" lon="7.5926109"><ele>690.0</ele><time>2026-04-25T11:12:46.236Z</time></trkpt><trkpt lat="45.3635657" lon="7.5925608"><ele>690.0</ele><time>2026-04-25T11:12:47.238Z</time></trkpt><trkpt lat="45.3637055" lon="7.5925069"><ele>690.0</ele><time>2026-04-25T11:12:48.232Z</time></trkpt><trkpt lat="45.36389" lon="7.5924657"><ele>697.0</ele><time>2026-04-25T11:12:49.237Z</time></trkpt><trkpt lat="45.3640924" lon="7.5923412"><ele>704.0</ele><time>2026-04-25T11:12:50.232Z</time></trkpt><trkpt lat="45.3642734" lon="7.5922932"><ele>711.0</ele><time>2026-04-25T11:12:51.227Z</time></trkpt><trkpt lat="45.3644037" lon="7.5922911"><ele>711.0</ele><time>2026-04-25T11:12:52.238Z</time></trkpt><trkpt lat="45.3644781" lon="7.5923369"><ele>711.0</ele><time>2026-04-25T11:12:53.228Z</time></trkpt><trkpt lat="45.3645871" lon="7.5923933"><ele>711.0</ele><time>2026-04-25T11:12:54.224Z</time></trkpt><trkpt lat="45.3646199" lon="7.5924805"><ele>711.0</ele><time>2026-04-25T11:12:55.222Z</time></trkpt><trkpt lat="45.3645746" lon="7.5926359"><ele>711.0</ele><time>2026-04-25T11:12:56.225Z</time></trkpt><trkpt lat="45.3644926" lon="7.5927877"><ele>714.0</ele><time>2026-04-25T11:12:57.224Z</time></trkpt><trkpt lat="45.3644284" lon="7.5929182"><ele>717.0</ele><time>2026-04-25T11:12:58.224Z</time></trkpt><trkpt lat="45.364316" lon="7.5930069"><ele>720.0</ele><time>2026-04-25T11:12:59.226Z</time></trkpt><trkpt lat="45.3641937" lon="7.5931314"><ele>723.0</ele><time>2026-04-25T11:13:00.227Z</time></trkpt><trkpt lat="45.3640374" lon="7.5931795"><ele>723.0</ele><time>2026-04-25T11:13:01.227Z</time></trkpt><trkpt lat="45.3639127" lon="7.5932316"><ele>723.0</ele><time>2026-04-25T11:13:02.225Z</time></trkpt><trkpt lat="45.3639866" lon="7.5933288"><ele>723.0</ele><time>2026-04-25T11:13:05.218Z</time></trkpt><trkpt lat="45.3640798" lon="7.5933423"><ele>723.0</ele><time>2026-04-25T11:13:06.226Z</time></trkpt><trkpt lat="45.3641971" lon="7.5933534"><ele>723.0</ele><time>2026-04-25T11:13:07.221Z</time></trkpt><trkpt lat="45.3643291" lon="7.5933696"><ele>723.0</ele><time>2026-04-25T11:13:08.221Z</time></trkpt><trkpt lat="45.3644954" lon="7.5934104"><ele>723.0</ele><time>2026-04-25T11:13:09.224Z</time></trkpt><trkpt lat="45.3646481" lon="7.5934649"><ele>723.0</ele><time>2026-04-25T11:13:10.222Z</time></trkpt><trkpt lat="45.3647585" lon="7.5934839"><ele>723.0</ele><time>2026-04-25T11:13:11.224Z</time></trkpt><trkpt lat="45.3648674" lon="7.5934468"><ele>727.25</ele><time>2026-04-25T11:13:12.219Z</time></trkpt><trkpt lat="45.3649735" lon="7.59336"><ele>731.5</ele><time>2026-04-25T11:13:13.219Z</time></trkpt><trkpt lat="45.3650974" lon="7.5932544"><ele>735.75</ele><time>2026-04-25T11:13:14.229Z</time></trkpt><trkpt lat="45.365225" lon="7.593172"><ele>740.0</ele><time>2026-04-25T11:13:15.228Z</time></trkpt><trkpt lat="45.3653257" lon="7.5930763"><ele>740.0</ele><time>2026-04-25T11:13:16.229Z</time></trkpt><trkpt lat="45.3654001" lon="7.5929819"><ele>740.0</ele><time>2026-04-25T11:13:17.236Z</time></trkpt><trkpt lat="45.3654376" lon="7.5928392"><ele>740.0</ele><time>2026-04-25T11:13:18.234Z</time></trkpt><trkpt lat="45.365442" lon="7.5926038"><ele>740.0</ele><time>2026-04-25T11:13:19.23Z</time></trkpt><trkpt lat="45.3654363" lon="7.5923195"><ele>739.3333333333333</ele><time>2026-04-25T11:13:20.227Z</time></trkpt><trkpt lat="45.365397" lon="7.5919691"><ele>738.6666666666666</ele><time>2026-04-25T11:13:21.232Z</time></trkpt><trkpt lat="45.3653855" lon="7.5917406"><ele>738.0</ele><time>2026-04-25T11:13:22.225Z</time></trkpt><trkpt lat="45.3654356" lon="7.5915503"><ele>738.0</ele><time>2026-04-25T11:13:23.231Z</time></trkpt><trkpt lat="45.3655197" lon="7.5913769"><ele>738.0</ele><time>2026-04-25T11:13:24.229Z</time></trkpt><trkpt lat="45.3656043" lon="7.5911743"><ele>738.0</ele><time>2026-04-25T11:13:25.225Z</time></trkpt><trkpt lat="45.3656342" lon="7.5910202"><ele>738.0</ele><time>2026-04-25T11:13:26.225Z</time></trkpt><trkpt lat="45.3656706" lon="7.5908428"><ele>739.5999999999999</ele><time>2026-04-25T11:13:27.231Z</time></trkpt><trkpt lat="45.3656113" lon="7.5907706"><ele>741.1999999999999</ele><time>2026-04-25T11:13:28.23Z</time></trkpt><trkpt lat="45.3655424" lon="7.5906969"><ele>742.8</ele><time>2026-04-25T11:13:29.235Z</time></trkpt><trkpt lat="45.3654437" lon="7.5906216"><ele>744.4</ele><time>2026-04-25T11:13:30.237Z</time></trkpt><trkpt lat="45.3653113" lon="7.5906055"><ele>746.0</ele><time>2026-04-25T11:13:31.227Z</time></trkpt><trkpt lat="45.3652443" lon="7.590614"><ele>746.0</ele><time>2026-04-25T11:13:32.228Z</time></trkpt><trkpt lat="45.3653958" lon="7.5905867"><ele>746.0</ele><time>2026-04-25T11:13:38.214Z</time></trkpt><trkpt lat="45.3655533" lon="7.5905814"><ele>746.0</ele><time>2026-04-25T11:13:39.215Z</time></trkpt><trkpt lat="45.3657242" lon="7.5905776"><ele>751.0</ele><time>2026-04-25T11:13:40.214Z</time></trkpt><trkpt lat="45.3658559" lon="7.5905607"><ele>756.0</ele><time>2026-04-25T11:13:41.215Z</time></trkpt><trkpt lat="45.3659104" lon="7.5906128"><ele>761.0</ele><time>2026-04-25T11:13:42.209Z</time></trkpt><trkpt lat="45.3659683" lon="7.5907626"><ele>766.0</ele><time>2026-04-25T11:13:44.212Z</time></trkpt><trkpt lat="45.3658826" lon="7.590914"><ele>766.0</ele><time>2026-04-25T11:13:45.209Z</time></trkpt><trkpt lat="45.3658558" lon="7.5910341"><ele>766.0</ele><time>2026-04-25T11:13:46.222Z</time></trkpt><trkpt lat="45.3659301" lon="7.5910982"><ele>766.0</ele><time>2026-04-25T11:13:48.216Z</time></trkpt><trkpt lat="45.3660214" lon="7.591101"><ele>766.0</ele><time>2026-04-25T11:13:50.218Z</time></trkpt><trkpt lat="45.3660803" lon="7.5909386"><ele>766.0</ele><time>2026-04-25T11:13:52.228Z</time></trkpt><trkpt lat="45.366126" lon="7.5907428"><ele>766.0</ele><time>2026-04-25T11:13:53.22Z</time></trkpt><trkpt lat="45.3661918" lon="7.5905606"><ele>766.0</ele><time>2026-04-25T11:13:54.231Z</time></trkpt><trkpt lat="45.3662515" lon="7.5904072"><ele>766.0</ele><time>2026-04-25T11:13:55.228Z</time></trkpt><trkpt lat="45.3662816" lon="7.5902736"><ele>766.0</ele><time>2026-04-25T11:13:56.229Z</time></trkpt><trkpt lat="45.3662954" lon="7.5901671"><ele>766.0</ele><time>2026-04-25T11:13:57.228Z</time></trkpt><trkpt lat="45.3662739" lon="7.5900761"><ele>766.75</ele><time>2026-04-25T11:13:58.228Z</time></trkpt><trkpt lat="45.3662132" lon="7.5898672"><ele>767.5</ele><time>2026-04-25T11:14:00.231Z</time></trkpt><trkpt lat="45.3661699" lon="7.5896898"><ele>768.25</ele><time>2026-04-25T11:14:01.231Z</time></trkpt><trkpt lat="45.366127" lon="7.5895063"><ele>769.0</ele><time>2026-04-25T11:14:02.231Z</time></trkpt><trkpt lat="45.3660782" lon="7.5893239"><ele>770.0</ele><time>2026-04-25T11:14:03.219Z</time></trkpt><trkpt lat="45.3660193" lon="7.589173"><ele>771.0</ele><time>2026-04-25T11:14:04.22Z</time></trkpt><trkpt lat="45.3659254" lon="7.5890377"><ele>772.0</ele><time>2026-04-25T11:14:05.219Z</time></trkpt><trkpt lat="45.3658053" lon="7.5888918"><ele>773.0</ele><time>2026-04-25T11:14:06.213Z</time></trkpt><trkpt lat="45.3656782" lon="7.5887265"><ele>773.2</ele><time>2026-04-25T11:14:07.218Z</time></trkpt><trkpt lat="45.3656495" lon="7.5886173"><ele>773.4</ele><time>2026-04-25T11:14:08.217Z</time></trkpt><trkpt lat="45.3656395" lon="7.5884824"><ele>773.6</ele><time>2026-04-25T11:14:09.217Z</time></trkpt><trkpt lat="45.3656487" lon="7.5883543"><ele>773.8000000000001</ele><time>2026-04-25T11:14:10.21Z</time></trkpt><trkpt lat="45.3657259" lon="7.5882058"><ele>774.0</ele><time>2026-04-25T11:14:11.215Z</time></trkpt><trkpt lat="45.3658168" lon="7.5880817"><ele>774.0</ele><time>2026-04-25T11:14:12.215Z</time></trkpt><trkpt lat="45.3658903" lon="7.5879378"><ele>774.0</ele><time>2026-04-25T11:14:13.216Z</time></trkpt><trkpt lat="45.3659593" lon="7.5877914"><ele>774.0</ele><time>2026-04-25T11:14:14.214Z</time></trkpt><trkpt lat="45.366034" lon="7.5876387"><ele>774.0</ele><time>2026-04-25T11:14:15.215Z</time></trkpt><trkpt lat="45.3660994" lon="7.5874597"><ele>776.6666666666667</ele><time>2026-04-25T11:14:16.213Z</time></trkpt><trkpt lat="45.3661687" lon="7.5872452"><ele>779.3333333333334</ele><time>2026-04-25T11:14:17.22Z</time></trkpt><trkpt lat="45.3662533" lon="7.5869303"><ele>782.0</ele><time>2026-04-25T11:14:18.222Z</time></trkpt><trkpt lat="45.366343" lon="7.5865554"><ele>766.5</ele><time>2026-04-25T11:14:19.217Z</time></trkpt><trkpt lat="45.366411" lon="7.5861971"><ele>751.0</ele><time>2026-04-25T11:14:20.221Z</time></trkpt><trkpt lat="45.3664416" lon="7.58592"><ele>750.6666666666667</ele><time>2026-04-25T11:14:21.217Z</time></trkpt><trkpt lat="45.3664761" lon="7.5856741"><ele>750.3333333333334</ele><time>2026-04-25T11:14:22.219Z</time></trkpt><trkpt lat="45.3665283" lon="7.5854219"><ele>750.0</ele><time>2026-04-25T11:14:23.214Z</time></trkpt><trkpt lat="45.366571" lon="7.5852524"><ele>750.0</ele><time>2026-04-25T11:14:24.224Z</time></trkpt><trkpt lat="45.3665799" lon="7.5850345"><ele>750.0</ele><time>2026-04-25T11:14:25.217Z</time></trkpt><trkpt lat="45.3665822" lon="7.5847844"><ele>750.0</ele><time>2026-04-25T11:14:26.222Z</time></trkpt><trkpt lat="45.3665662" lon="7.5845536"><ele>749.0</ele><time>2026-04-25T11:14:27.218Z</time></trkpt><trkpt lat="45.366547" lon="7.5843086"><ele>748.0</ele><time>2026-04-25T11:14:28.227Z</time></trkpt><trkpt lat="45.3665481" lon="7.5841023"><ele>747.0</ele><time>2026-04-25T11:14:29.226Z</time></trkpt><trkpt lat="45.3665397" lon="7.5838878"><ele>747.0</ele><time>2026-04-25T11:14:30.224Z</time></trkpt><trkpt lat="45.3665327" lon="7.5836946"><ele>747.0</ele><time>2026-04-25T11:14:31.224Z</time></trkpt><trkpt lat="45.3665398" lon="7.5835273"><ele>747.0</ele><time>2026-04-25T11:14:32.224Z</time></trkpt><trkpt lat="45.3665404" lon="7.5833664"><ele>747.0</ele><time>2026-04-25T11:14:33.221Z</time></trkpt><trkpt lat="45.3665643" lon="7.5832038"><ele>747.0</ele><time>2026-04-25T11:14:34.216Z</time></trkpt><trkpt lat="45.3665991" lon="7.5829997"><ele>747.0</ele><time>2026-04-25T11:14:35.222Z</time></trkpt><trkpt lat="45.3666748" lon="7.5827931"><ele>747.0</ele><time>2026-04-25T11:14:36.217Z</time></trkpt><trkpt lat="45.3667544" lon="7.5825753"><ele>747.0</ele><time>2026-04-25T11:14:37.216Z</time></trkpt><trkpt lat="45.3668705" lon="7.5824134"><ele>747.0</ele><time>2026-04-25T11:14:38.207Z</time></trkpt><trkpt lat="45.3669923" lon="7.5822983"><ele>747.0</ele><time>2026-04-25T11:14:39.216Z</time></trkpt><trkpt lat="45.3670859" lon="7.5821797"><ele>747.0</ele><time>2026-04-25T11:14:40.209Z</time></trkpt><trkpt lat="45.3671672" lon="7.5820704"><ele>743.3333333333334</ele><time>2026-04-25T11:14:41.212Z</time></trkpt><trkpt lat="45.3672905" lon="7.5819925"><ele>739.6666666666667</ele><time>2026-04-25T11:14:42.217Z</time></trkpt><trkpt lat="45.367438" lon="7.5819781"><ele>736.0</ele><time>2026-04-25T11:14:43.222Z</time></trkpt><trkpt lat="45.3676271" lon="7.5820026"><ele>732.6666666666667</ele><time>2026-04-25T11:14:44.227Z</time></trkpt><trkpt lat="45.3678165" lon="7.5820674"><ele>729.3333333333334</ele><time>2026-04-25T11:14:45.22Z</time></trkpt><trkpt lat="45.3680066" lon="7.5821412"><ele>726.0</ele><time>2026-04-25T11:14:46.224Z</time></trkpt><trkpt lat="45.3682009" lon="7.582146"><ele>723.6666666666666</ele><time>2026-04-25T11:14:47.234Z</time></trkpt><trkpt lat="45.3683863" lon="7.5821483"><ele>721.3333333333333</ele><time>2026-04-25T11:14:48.236Z</time></trkpt><trkpt lat="45.3685407" lon="7.5821597"><ele>719.0</ele><time>2026-04-25T11:14:49.232Z</time></trkpt><trkpt lat="45.3686868" lon="7.5821674"><ele>719.0</ele><time>2026-04-25T11:14:50.231Z</time></trkpt><trkpt lat="45.3688248" lon="7.5821846"><ele>719.0</ele><time>2026-04-25T11:14:51.232Z</time></trkpt><trkpt lat="45.3689384" lon="7.582195"><ele>719.0</ele><time>2026-04-25T11:14:52.234Z</time></trkpt><trkpt lat="45.3690491" lon="7.5822156"><ele>719.0</ele><time>2026-04-25T11:14:53.229Z</time></trkpt><trkpt lat="45.3691255" lon="7.5821909"><ele>719.0</ele><time>2026-04-25T11:14:54.232Z</time></trkpt><trkpt lat="45.3691907" lon="7.582127"><ele>720.0</ele><time>2026-04-25T11:14:55.234Z</time></trkpt><trkpt lat="45.3692606" lon="7.5819794"><ele>721.0</ele><time>2026-04-25T11:14:56.231Z</time></trkpt><trkpt lat="45.3693149" lon="7.5818152"><ele>722.0</ele><time>2026-04-25T11:14:57.226Z</time></trkpt><trkpt lat="45.3693772" lon="7.58169"><ele>723.0</ele><time>2026-04-25T11:14:58.224Z</time></trkpt><trkpt lat="45.3694491" lon="7.5815868"><ele>723.0</ele><time>2026-04-25T11:14:59.228Z</time></trkpt><trkpt lat="45.3695173" lon="7.5815242"><ele>723.0</ele><time>2026-04-25T11:15:00.217Z</time></trkpt><trkpt lat="45.3695828" lon="7.5815021"><ele>723.0</ele><time>2026-04-25T11:15:01.226Z</time></trkpt><trkpt lat="45.3696742" lon="7.5816211"><ele>723.0</ele><time>2026-04-25T11:15:03.224Z</time></trkpt><trkpt lat="45.369687" lon="7.5817097"><ele>723.0</ele><time>2026-04-25T11:15:04.221Z</time></trkpt><trkpt lat="45.3696784" lon="7.5818337"><ele>723.0</ele><time>2026-04-25T11:15:05.229Z</time></trkpt><trkpt lat="45.369651" lon="7.5820054"><ele>722.5</ele><time>2026-04-25T11:15:06.222Z</time></trkpt><trkpt lat="45.3696199" lon="7.582187"><ele>722.0</ele><time>2026-04-25T11:15:07.226Z</time></trkpt><trkpt lat="45.369605" lon="7.5823743"><ele>721.5</ele><time>2026-04-25T11:15:08.225Z</time></trkpt><trkpt lat="45.3696069" lon="7.5825905"><ele>721.0</ele><time>2026-04-25T11:15:09.233Z</time></trkpt><trkpt lat="45.3696191" lon="7.5828321"><ele>720.6666666666667</ele><time>2026-04-25T11:15:10.227Z</time></trkpt><trkpt lat="45.3695901" lon="7.5831173"><ele>720.3333333333334</ele><time>2026-04-25T11:15:11.225Z</time></trkpt><trkpt lat="45.36957" lon="7.5833624"><ele>720.0</ele><time>2026-04-25T11:15:12.22Z</time></trkpt><trkpt lat="45.3695426" lon="7.5835398"><ele>718.75</ele><time>2026-04-25T11:15:13.224Z</time></trkpt><trkpt lat="45.3694848" lon="7.583737"><ele>717.5</ele><time>2026-04-25T11:15:14.222Z</time></trkpt><trkpt lat="45.3694294" lon="7.5839109"><ele>716.25</ele><time>2026-04-25T11:15:15.215Z</time></trkpt><trkpt lat="45.3694693" lon="7.58412"><ele>715.0</ele><time>2026-04-25T11:15:16.222Z</time></trkpt><trkpt lat="45.3695549" lon="7.5843261"><ele>715.0</ele><time>2026-04-25T11:15:17.22Z</time></trkpt><trkpt lat="45.3696002" lon="7.5844953"><ele>715.0</ele><time>2026-04-25T11:15:18.221Z</time></trkpt><trkpt lat="45.369604" lon="7.5846925"><ele>715.0</ele><time>2026-04-25T11:15:19.229Z</time></trkpt><trkpt lat="45.3695876" lon="7.584854"><ele>715.0</ele><time>2026-04-25T11:15:20.224Z</time></trkpt><trkpt lat="45.3695606" lon="7.585014"><ele>713.2</ele><time>2026-04-25T11:15:21.224Z</time></trkpt><trkpt lat="45.3695373" lon="7.5851668"><ele>711.4</ele><time>2026-04-25T11:15:22.23Z</time></trkpt><trkpt lat="45.3695068" lon="7.5852898"><ele>709.5999999999999</ele><time>2026-04-25T11:15:23.219Z</time></trkpt><trkpt lat="45.36949" lon="7.5853852"><ele>707.8</ele><time>2026-04-25T11:15:24.23Z</time></trkpt><trkpt lat="45.3695757" lon="7.5853134"><ele>706.0</ele><time>2026-04-25T11:15:28.232Z</time></trkpt><trkpt lat="45.3696171" lon="7.5851518"><ele>706.0</ele><time>2026-04-25T11:15:29.225Z</time></trkpt><trkpt lat="45.3696809" lon="7.5850405"><ele>706.0</ele><time>2026-04-25T11:15:30.215Z</time></trkpt><trkpt lat="45.3697514" lon="7.584974"><ele>706.0</ele><time>2026-04-25T11:15:31.227Z</time></trkpt><trkpt lat="45.3698235" lon="7.5849682"><ele>706.0</ele><time>2026-04-25T11:15:32.235Z</time></trkpt><trkpt lat="45.3698948" lon="7.5849773"><ele>706.0</ele><time>2026-04-25T11:15:33.24Z</time></trkpt><trkpt lat="45.3699645" lon="7.5850884"><ele>706.0</ele><time>2026-04-25T11:15:35.234Z</time></trkpt><trkpt lat="45.3699495" lon="7.58523"><ele>702.0</ele><time>2026-04-25T11:15:36.234Z</time></trkpt><trkpt lat="45.3699185" lon="7.5854134"><ele>698.0</ele><time>2026-04-25T11:15:37.239Z</time></trkpt><trkpt lat="45.3699131" lon="7.5856202"><ele>694.0</ele><time>2026-04-25T11:15:38.232Z</time></trkpt><trkpt lat="45.3699037" lon="7.5858546"><ele>690.0</ele><time>2026-04-25T11:15:39.227Z</time></trkpt><trkpt lat="45.3699058" lon="7.5861025"><ele>689.0</ele><time>2026-04-25T11:15:40.225Z</time></trkpt><trkpt lat="45.3698919" lon="7.5863207"><ele>688.0</ele><time>2026-04-25T11:15:41.228Z</time></trkpt><trkpt lat="45.3698711" lon="7.586522"><ele>687.0</ele><time>2026-04-25T11:15:42.225Z</time></trkpt><trkpt lat="45.3698446" lon="7.5867284"><ele>686.0</ele><time>2026-04-25T11:15:43.221Z</time></trkpt><trkpt lat="45.3698306" lon="7.5868993"><ele>683.5</ele><time>2026-04-25T11:15:44.225Z</time></trkpt><trkpt lat="45.3697658" lon="7.5870212"><ele>681.0</ele><time>2026-04-25T11:15:45.22Z</time></trkpt><trkpt lat="45.3697158" lon="7.5871851"><ele>678.5</ele><time>2026-04-25T11:15:46.226Z</time></trkpt><trkpt lat="45.3697268" lon="7.5873247"><ele>676.0</ele><time>2026-04-25T11:15:47.225Z</time></trkpt><trkpt lat="45.3697915" lon="7.5874667"><ele>676.0</ele><time>2026-04-25T11:15:48.232Z</time></trkpt><trkpt lat="45.3698827" lon="7.5876548"><ele>676.0</ele><time>2026-04-25T11:15:49.228Z</time></trkpt><trkpt lat="45.3699885" lon="7.5878269"><ele>676.0</ele><time>2026-04-25T11:15:50.238Z</time></trkpt><trkpt lat="45.3700821" lon="7.5879993"><ele>674.3333333333334</ele><time>2026-04-25T11:15:51.233Z</time></trkpt><trkpt lat="45.3701542" lon="7.5881505"><ele>672.6666666666666</ele><time>2026-04-25T11:15:52.232Z</time></trkpt><trkpt lat="45.3701989" lon="7.5883458"><ele>671.0</ele><time>2026-04-25T11:15:53.231Z</time></trkpt><trkpt lat="45.3702854" lon="7.5885854"><ele>672.6666666666666</ele><time>2026-04-25T11:15:54.227Z</time></trkpt><trkpt lat="45.3703989" lon="7.5888241"><ele>674.3333333333334</ele><time>2026-04-25T11:15:55.231Z</time></trkpt><trkpt lat="45.3705287" lon="7.5890466"><ele>676.0</ele><time>2026-04-25T11:15:56.229Z</time></trkpt><trkpt lat="45.369604" lon="7.5846925"><ele>680.0</ele><time>2026-04-25T11:15:19.229Z</time></trkpt><trkpt lat="45.3695876" lon="7.584854"><ele>684.0</ele><time>2026-04-25T11:15:20.224Z</time></trkpt><trkpt lat="45.3695606" lon="7.585014"><ele>688.0</ele><time>2026-04-25T11:15:21.224Z</time></trkpt><trkpt lat="45.3695373" lon="7.5851668"><ele>692.0</ele><time>2026-04-25T11:15:22.23Z</time></trkpt><trkpt lat="45.3695068" lon="7.5852898"><ele>696.0</ele><time>2026-04-25T11:15:23.219Z</time></trkpt><trkpt lat="45.36949" lon="7.5853852"><ele>695.8</ele><time>2026-04-25T11:15:24.23Z</time></trkpt><trkpt lat="45.3695757" lon="7.5853134"><ele>695.5999999999999</ele><time>2026-04-25T11:15:28.232Z</time></trkpt><trkpt lat="45.3696171" lon="7.5851518"><ele>695.4</ele><time>2026-04-25T11:15:29.225Z</time></trkpt><trkpt lat="45.3696809" lon="7.5850405"><ele>695.2</ele><time>2026-04-25T11:15:30.215Z</time></trkpt><trkpt lat="45.3697514" lon="7.584974"><ele>695.0</ele><time>2026-04-25T11:15:31.227Z</time></trkpt><trkpt lat="45.3698235" lon="7.5849682"><ele>695.0</ele><time>2026-04-25T11:15:32.235Z</time></trkpt><trkpt lat="45.3698948" lon="7.5849773"><ele>695.0</ele><time>2026-04-25T11:15:33.24Z</time></trkpt><trkpt lat="45.3699645" lon="7.5850884"><ele>695.0</ele><time>2026-04-25T11:15:35.234Z</time></trkpt><trkpt lat="45.3699495" lon="7.58523"><ele>695.0</ele><time>2026-04-25T11:15:36.234Z</time></trkpt><trkpt lat="45.3699185" lon="7.5854134"><ele>695.0</ele><time>2026-04-25T11:15:37.239Z</time></trkpt><trkpt lat="45.3699131" lon="7.5856202"><ele>693.3333333333333</ele><time>2026-04-25T11:15:38.232Z</time></trkpt><trkpt lat="45.3699037" lon="7.5858546"><ele>691.6666666666666</ele><time>2026-04-25T11:15:39.227Z</time></trkpt><trkpt lat="45.3699058" lon="7.5861025"><ele>690.0</ele><time>2026-04-25T11:15:40.225Z</time></trkpt><trkpt lat="45.3698919" lon="7.5863207"><ele>689.0</ele><time>2026-04-25T11:15:41.228Z</time></trkpt><trkpt lat="45.3698711" lon="7.586522"><ele>688.0</ele><time>2026-04-25T11:15:42.225Z</time></trkpt><trkpt lat="45.3698446" lon="7.5867284"><ele>687.0</ele><time>2026-04-25T11:15:43.221Z</time></trkpt><trkpt lat="45.3698306" lon="7.5868993"><ele>686.0</ele><time>2026-04-25T11:15:44.225Z</time></trkpt><trkpt lat="45.3697658" lon="7.5870212"><ele>683.5</ele><time>2026-04-25T11:15:45.22Z</time></trkpt><trkpt lat="45.3697158" lon="7.5871851"><ele>681.0</ele><time>2026-04-25T11:15:46.226Z</time></trkpt><trkpt lat="45.3697268" lon="7.5873247"><ele>678.5</ele><time>2026-04-25T11:15:47.225Z</time></trkpt><trkpt lat="45.3697915" lon="7.5874667"><ele>676.0</ele><time>2026-04-25T11:15:48.232Z</time></trkpt><trkpt lat="45.3698827" lon="7.5876548"><ele>676.0</ele><time>2026-04-25T11:15:49.228Z</time></trkpt><trkpt lat="45.3699885" lon="7.5878269"><ele>676.0</ele><time>2026-04-25T11:15:50.238Z</time></trkpt><trkpt lat="45.3700821" lon="7.5879993"><ele>676.0</ele><time>2026-04-25T11:15:51.233Z</time></trkpt><trkpt lat="45.3701542" lon="7.5881505"><ele>676.0</ele><time>2026-04-25T11:15:52.232Z</time></trkpt><trkpt lat="45.3701989" lon="7.5883458"><ele>676.0</ele><time>2026-04-25T11:15:53.231Z</time></trkpt><trkpt lat="45.3702854" lon="7.5885854"><ele>676.0</ele><time>2026-04-25T11:15:54.227Z</time></trkpt><trkpt lat="45.3703989" lon="7.5888241"><ele>676.0</ele><time>2026-04-25T11:15:55.231Z</time></trkpt><trkpt lat="45.3705287" lon="7.5890466"><ele>676.0</ele><time>2026-04-25T11:15:56.229Z</time></trkpt><trkpt lat="45.3706441" lon="7.589246"><ele>676.0</ele><time>2026-04-25T11:15:57.235Z</time></trkpt><trkpt lat="45.3707201" lon="7.5894516"><ele>676.0</ele><time>2026-04-25T11:15:58.228Z</time></trkpt><trkpt lat="45.3707443" lon="7.5896423"><ele>673.75</ele><time>2026-04-25T11:15:59.23Z</time></trkpt><trkpt lat="45.370761" lon="7.5898159"><ele>671.5</ele><time>2026-04-25T11:16:00.229Z</time></trkpt><trkpt lat="45.3708082" lon="7.5899613"><ele>669.25</ele><time>2026-04-25T11:16:01.227Z</time></trkpt><trkpt lat="45.3708348" lon="7.590092"><ele>667.0</ele><time>2026-04-25T11:16:02.232Z</time></trkpt><trkpt lat="45.3709625" lon="7.5901837"><ele>667.0</ele><time>2026-04-25T11:16:03.23Z</time></trkpt><trkpt lat="45.3710391" lon="7.5903033"><ele>667.0</ele><time>2026-04-25T11:16:04.218Z</time></trkpt><trkpt lat="45.3710844" lon="7.5904571"><ele>667.0</ele><time>2026-04-25T11:16:05.226Z</time></trkpt><trkpt lat="45.3711077" lon="7.5905929"><ele>667.0</ele><time>2026-04-25T11:16:06.229Z</time></trkpt><trkpt lat="45.3711043" lon="7.5908907"><ele>664.6666666666667</ele><time>2026-04-25T11:16:07.22Z</time></trkpt><trkpt lat="45.3710897" lon="7.5911789"><ele>662.3333333333334</ele><time>2026-04-25T11:16:08.225Z</time></trkpt><trkpt lat="45.3710657" lon="7.5915094"><ele>660.0</ele><time>2026-04-25T11:16:09.222Z</time></trkpt><trkpt lat="45.3710461" lon="7.5917787"><ele>660.6666666666666</ele><time>2026-04-25T11:16:10.216Z</time></trkpt><trkpt lat="45.3710409" lon="7.5920188"><ele>661.3333333333333</ele><time>2026-04-25T11:16:11.213Z</time></trkpt><trkpt lat="45.3710291" lon="7.5923089"><ele>662.0</ele><time>2026-04-25T11:16:12.218Z</time></trkpt><trkpt lat="45.3710366" lon="7.5926269"><ele>661.25</ele><time>2026-04-25T11:16:13.221Z</time></trkpt><trkpt lat="45.3710056" lon="7.5928795"><ele>660.5</ele><time>2026-04-25T11:16:14.222Z</time></trkpt><trkpt lat="45.3709747" lon="7.5930687"><ele>659.75</ele><time>2026-04-25T11:16:15.234Z</time></trkpt><trkpt lat="45.3709311" lon="7.5932147"><ele>659.0</ele><time>2026-04-25T11:16:16.228Z</time></trkpt><trkpt lat="45.3708999" lon="7.5933693"><ele>659.0</ele><time>2026-04-25T11:16:17.232Z</time></trkpt><trkpt lat="45.3708803" lon="7.5934624"><ele>659.0</ele><time>2026-04-25T11:16:18.236Z</time></trkpt><trkpt lat="45.3708748" lon="7.5935954"><ele>659.0</ele><time>2026-04-25T11:16:20.234Z</time></trkpt><trkpt lat="45.370951" lon="7.5935311"><ele>659.0</ele><time>2026-04-25T11:16:23.23Z</time></trkpt><trkpt lat="45.3710028" lon="7.5933591"><ele>659.0</ele><time>2026-04-25T11:16:25.231Z</time></trkpt><trkpt lat="45.37106" lon="7.5932443"><ele>659.0</ele><time>2026-04-25T11:16:26.235Z</time></trkpt><trkpt lat="45.3711219" lon="7.5931034"><ele>659.0</ele><time>2026-04-25T11:16:27.236Z</time></trkpt><trkpt lat="45.3711918" lon="7.5929468"><ele>659.0</ele><time>2026-04-25T11:16:28.243Z</time></trkpt><trkpt lat="45.3712354" lon="7.5927862"><ele>659.0</ele><time>2026-04-25T11:16:29.238Z</time></trkpt><trkpt lat="45.3712832" lon="7.5926294"><ele>659.75</ele><time>2026-04-25T11:16:30.233Z</time></trkpt><trkpt lat="45.3713293" lon="7.5924802"><ele>660.5</ele><time>2026-04-25T11:16:31.231Z</time></trkpt><trkpt lat="45.3713805" lon="7.5923385"><ele>661.25</ele><time>2026-04-25T11:16:32.237Z</time></trkpt><trkpt lat="45.3714485" lon="7.5922129"><ele>662.0</ele><time>2026-04-25T11:16:33.234Z</time></trkpt><trkpt lat="45.3715189" lon="7.5920773"><ele>667.0</ele><time>2026-04-25T11:16:34.232Z</time></trkpt><trkpt lat="45.3715955" lon="7.5919477"><ele>672.0</ele><time>2026-04-25T11:16:35.241Z</time></trkpt><trkpt lat="45.3716645" lon="7.5918128"><ele>677.0</ele><time>2026-04-25T11:16:36.235Z</time></trkpt><trkpt lat="45.3717303" lon="7.5916717"><ele>682.0</ele><time>2026-04-25T11:16:37.234Z</time></trkpt><trkpt lat="45.3718005" lon="7.5915189"><ele>682.0</ele><time>2026-04-25T11:16:38.233Z</time></trkpt><trkpt lat="45.3718734" lon="7.5913521"><ele>682.0</ele><time>2026-04-25T11:16:39.234Z</time></trkpt><trkpt lat="45.3719306" lon="7.5911773"><ele>682.0</ele><time>2026-04-25T11:16:40.243Z</time></trkpt><trkpt lat="45.3720151" lon="7.5910244"><ele>682.0</ele><time>2026-04-25T11:16:41.234Z</time></trkpt><trkpt lat="45.3720338" lon="7.590899"><ele>683.5</ele><time>2026-04-25T11:16:42.236Z</time></trkpt><trkpt lat="45.3720819" lon="7.5907592"><ele>685.0</ele><time>2026-04-25T11:16:43.239Z</time></trkpt><trkpt lat="45.3721613" lon="7.5906339"><ele>686.5</ele><time>2026-04-25T11:16:44.238Z</time></trkpt><trkpt lat="45.3722531" lon="7.5905071"><ele>688.0</ele><time>2026-04-25T11:16:45.241Z</time></trkpt><trkpt lat="45.3723249" lon="7.5903653"><ele>690.5</ele><time>2026-04-25T11:16:46.243Z</time></trkpt><trkpt lat="45.372374" lon="7.5901969"><ele>693.0</ele><time>2026-04-25T11:16:47.237Z</time></trkpt><trkpt lat="45.3724337" lon="7.5900363"><ele>695.5</ele><time>2026-04-25T11:16:48.242Z</time></trkpt><trkpt lat="45.3724738" lon="7.5898893"><ele>698.0</ele><time>2026-04-25T11:16:49.243Z</time></trkpt><trkpt lat="45.3724973" lon="7.5897188"><ele>698.0</ele><time>2026-04-25T11:16:50.244Z</time></trkpt><trkpt lat="45.372494" lon="7.5895564"><ele>698.0</ele><time>2026-04-25T11:16:51.242Z</time></trkpt><trkpt lat="45.3724845" lon="7.5893993"><ele>698.0</ele><time>2026-04-25T11:16:52.234Z</time></trkpt><trkpt lat="45.3724946" lon="7.5892387"><ele>698.0</ele><time>2026-04-25T11:16:53.231Z</time></trkpt><trkpt lat="45.3725048" lon="7.5890732"><ele>700.25</ele><time>2026-04-25T11:16:54.237Z</time></trkpt><trkpt lat="45.3725376" lon="7.5889108"><ele>702.5</ele><time>2026-04-25T11:16:55.23Z</time></trkpt><trkpt lat="45.3725543" lon="7.5887327"><ele>704.75</ele><time>2026-04-25T11:16:56.231Z</time></trkpt><trkpt lat="45.3725789" lon="7.5885797"><ele>707.0</ele><time>2026-04-25T11:16:57.224Z</time></trkpt><trkpt lat="45.3726102" lon="7.5884335"><ele>709.25</ele><time>2026-04-25T11:16:58.228Z</time></trkpt><trkpt lat="45.3726586" lon="7.5882832"><ele>711.5</ele><time>2026-04-25T11:16:59.228Z</time></trkpt><trkpt lat="45.3727158" lon="7.5881323"><ele>713.75</ele><time>2026-04-25T11:17:00.217Z</time></trkpt><trkpt lat="45.3727858" lon="7.5879678"><ele>716.0</ele><time>2026-04-25T11:17:01.224Z</time></trkpt><trkpt lat="45.3728376" lon="7.5878161"><ele>716.3333333333333</ele><time>2026-04-25T11:17:02.217Z</time></trkpt><trkpt lat="45.3728977" lon="7.5877238"><ele>716.6666666666666</ele><time>2026-04-25T11:17:03.215Z</time></trkpt><trkpt lat="45.3729918" lon="7.587672"><ele>717.0</ele><time>2026-04-25T11:17:05.219Z</time></trkpt><trkpt lat="45.3730078" lon="7.5875353"><ele>717.3333333333334</ele><time>2026-04-25T11:17:09.232Z</time></trkpt><trkpt lat="45.3729801" lon="7.5874427"><ele>717.6666666666667</ele><time>2026-04-25T11:17:10.237Z</time></trkpt><trkpt lat="45.3729244" lon="7.5873392"><ele>718.0</ele><time>2026-04-25T11:17:11.23Z</time></trkpt><trkpt lat="45.3728649" lon="7.5872283"><ele>718.0</ele><time>2026-04-25T11:17:12.232Z</time></trkpt><trkpt lat="45.3728171" lon="7.5871095"><ele>718.0</ele><time>2026-04-25T11:17:13.236Z</time></trkpt><trkpt lat="45.3727996" lon="7.5869581"><ele>718.0</ele><time>2026-04-25T11:17:14.225Z</time></trkpt><trkpt lat="45.3727923" lon="7.5867838"><ele>718.0</ele><time>2026-04-25T11:17:15.228Z</time></trkpt><trkpt lat="45.3727795" lon="7.5866165"><ele>718.0</ele><time>2026-04-25T11:17:16.238Z</time></trkpt><trkpt lat="45.3727601" lon="7.5864485"><ele>718.4</ele><time>2026-04-25T11:17:17.235Z</time></trkpt><trkpt lat="45.3727517" lon="7.5863033"><ele>718.8</ele><time>2026-04-25T11:17:18.229Z</time></trkpt><trkpt lat="45.3727481" lon="7.5861588"><ele>719.2</ele><time>2026-04-25T11:17:19.223Z</time></trkpt><trkpt lat="45.372755" lon="7.586041"><ele>719.6</ele><time>2026-04-25T11:17:20.234Z</time></trkpt><trkpt lat="45.3727928" lon="7.5859548"><ele>720.0</ele><time>2026-04-25T11:17:21.232Z</time></trkpt><trkpt lat="45.3728785" lon="7.5858627"><ele>720.8</ele><time>2026-04-25T11:17:22.231Z</time></trkpt><trkpt lat="45.3729501" lon="7.5857832"><ele>721.6</ele><time>2026-04-25T11:17:23.227Z</time></trkpt><trkpt lat="45.3729932" lon="7.5856907"><ele>722.4000000000001</ele><time>2026-04-25T11:17:24.227Z</time></trkpt><trkpt lat="45.3729768" lon="7.5855381"><ele>723.2</ele><time>2026-04-25T11:17:26.225Z</time></trkpt><trkpt lat="45.3728577" lon="7.5854344"><ele>724.0</ele><time>2026-04-25T11:17:28.215Z</time></trkpt><trkpt lat="45.372811" lon="7.5853148"><ele>726.8333333333334</ele><time>2026-04-25T11:17:29.221Z</time></trkpt><trkpt lat="45.372784" lon="7.5851983"><ele>729.6666666666667</ele><time>2026-04-25T11:17:30.227Z</time></trkpt><trkpt lat="45.3727567" lon="7.5851126"><ele>732.5</ele><time>2026-04-25T11:17:31.226Z</time></trkpt><trkpt lat="45.3726375" lon="7.5850548"><ele>735.3333333333334</ele><time>2026-04-25T11:17:33.227Z</time></trkpt><trkpt lat="45.3725536" lon="7.5850679"><ele>738.1666666666666</ele><time>2026-04-25T11:17:34.224Z</time></trkpt><trkpt lat="45.3724746" lon="7.5850858"><ele>741.0</ele><time>2026-04-25T11:17:35.217Z</time></trkpt><trkpt lat="45.3723697" lon="7.5850753"><ele>741.0</ele><time>2026-04-25T11:17:36.217Z</time></trkpt><trkpt lat="45.3722777" lon="7.5850171"><ele>741.0</ele><time>2026-04-25T11:17:37.223Z</time></trkpt><trkpt lat="45.372181" lon="7.5849325"><ele>741.0</ele><time>2026-04-25T11:17:38.22Z</time></trkpt><trkpt lat="45.3720588" lon="7.5848467"><ele>741.0</ele><time>2026-04-25T11:17:39.219Z</time></trkpt><trkpt lat="45.3719205" lon="7.5847671"><ele>739.75</ele><time>2026-04-25T11:17:40.218Z</time></trkpt><trkpt lat="45.3717829" lon="7.5846936"><ele>738.5</ele><time>2026-04-25T11:17:41.212Z</time></trkpt><trkpt lat="45.3716656" lon="7.5846576"><ele>737.25</ele><time>2026-04-25T11:17:42.222Z</time></trkpt><trkpt lat="45.371562" lon="7.5845996"><ele>736.0</ele><time>2026-04-25T11:17:43.225Z</time></trkpt><trkpt lat="45.3714577" lon="7.5845717"><ele>736.0</ele><time>2026-04-25T11:17:44.226Z</time></trkpt><trkpt lat="45.3713575" lon="7.5845429"><ele>736.0</ele><time>2026-04-25T11:17:45.233Z</time></trkpt><trkpt lat="45.3712958" lon="7.5844086"><ele>736.0</ele><time>2026-04-25T11:17:47.232Z</time></trkpt><trkpt lat="45.3713604" lon="7.5842441"><ele>736.0</ele><time>2026-04-25T11:17:49.233Z</time></trkpt><trkpt lat="45.3714278" lon="7.5841696"><ele>736.0</ele><time>2026-04-25T11:17:50.229Z</time></trkpt><trkpt lat="45.3715049" lon="7.5841386"><ele>737.5999999999999</ele><time>2026-04-25T11:17:51.237Z</time></trkpt><trkpt lat="45.3715643" lon="7.5841017"><ele>739.2</ele><time>2026-04-25T11:17:52.242Z</time></trkpt><trkpt lat="45.3716176" lon="7.584186"><ele>740.8</ele><time>2026-04-25T11:17:56.243Z</time></trkpt><trkpt lat="45.3716827" lon="7.5842693"><ele>742.4000000000001</ele><time>2026-04-25T11:17:57.239Z</time></trkpt><trkpt lat="45.3717698" lon="7.5843848"><ele>744.0</ele><time>2026-04-25T11:17:58.238Z</time></trkpt><trkpt lat="45.3718955" lon="7.584462"><ele>744.0</ele><time>2026-04-25T11:17:59.235Z</time></trkpt><trkpt lat="45.3720209" lon="7.584509"><ele>744.0</ele><time>2026-04-25T11:18:00.242Z</time></trkpt><trkpt lat="45.3721453" lon="7.5844857"><ele>744.0</ele><time>2026-04-25T11:18:01.24Z</time></trkpt><trkpt lat="45.3722758" lon="7.5844359"><ele>744.0</ele><time>2026-04-25T11:18:02.239Z</time></trkpt><trkpt lat="45.3724219" lon="7.5843697"><ele>746.8000000000001</ele><time>2026-04-25T11:18:03.237Z</time></trkpt><trkpt lat="45.372561" lon="7.584329"><ele>749.6</ele><time>2026-04-25T11:18:04.24Z</time></trkpt><trkpt lat="45.3726861" lon="7.5843165"><ele>752.4</ele><time>2026-04-25T11:18:05.232Z</time></trkpt><trkpt lat="45.3727863" lon="7.5842798"><ele>755.2</ele><time>2026-04-25T11:18:06.237Z</time></trkpt><trkpt lat="45.372851" lon="7.5842312"><ele>758.0</ele><time>2026-04-25T11:18:07.233Z</time></trkpt><trkpt lat="45.3729393" lon="7.5841302"><ele>758.0</ele><time>2026-04-25T11:18:08.238Z</time></trkpt><trkpt lat="45.3729865" lon="7.5839986"><ele>758.0</ele><time>2026-04-25T11:18:09.236Z</time></trkpt><trkpt lat="45.3730292" lon="7.5838681"><ele>758.0</ele><time>2026-04-25T11:18:10.236Z</time></trkpt><trkpt lat="45.3731313" lon="7.5838071"><ele>758.0</ele><time>2026-04-25T11:18:12.231Z</time></trkpt><trkpt lat="45.3732361" lon="7.5838184"><ele>758.0</ele><time>2026-04-25T11:18:14.218Z</time></trkpt><trkpt lat="45.3733248" lon="7.5838803"><ele>759.8</ele><time>2026-04-25T11:18:15.227Z</time></trkpt><trkpt lat="45.3733892" lon="7.5839518"><ele>761.5999999999999</ele><time>2026-04-25T11:18:16.227Z</time></trkpt><trkpt lat="45.3734272" lon="7.5838562"><ele>763.4000000000001</ele><time>2026-04-25T11:18:18.222Z</time></trkpt><trkpt lat="45.3734039" lon="7.5837499"><ele>765.2</ele><time>2026-04-25T11:18:19.234Z</time></trkpt><trkpt lat="45.3733335" lon="7.5835963"><ele>767.0</ele><time>2026-04-25T11:18:20.237Z</time></trkpt><trkpt lat="45.3732243" lon="7.5834371"><ele>768.2</ele><time>2026-04-25T11:18:21.231Z</time></trkpt><trkpt lat="45.3731239" lon="7.5833328"><ele>769.4000000000001</ele><time>2026-04-25T11:18:22.239Z</time></trkpt><trkpt lat="45.3730451" lon="7.5832702"><ele>770.5999999999999</ele><time>2026-04-25T11:18:23.234Z</time></trkpt><trkpt lat="45.3730064" lon="7.583172"><ele>771.8</ele><time>2026-04-25T11:18:25.239Z</time></trkpt><trkpt lat="45.3731314" lon="7.5831042"><ele>773.0</ele><time>2026-04-25T11:18:27.239Z</time></trkpt><trkpt lat="45.373252" lon="7.583089"><ele>773.0</ele><time>2026-04-25T11:18:28.234Z</time></trkpt><trkpt lat="45.3733993" lon="7.583071"><ele>773.0</ele><time>2026-04-25T11:18:29.232Z</time></trkpt><trkpt lat="45.3735581" lon="7.5830102"><ele>773.0</ele><time>2026-04-25T11:18:30.233Z</time></trkpt><trkpt lat="45.3736778" lon="7.5829221"><ele>773.0</ele><time>2026-04-25T11:18:31.232Z</time></trkpt><trkpt lat="45.3737817" lon="7.5828323"><ele>777.8</ele><time>2026-04-25T11:18:32.239Z</time></trkpt><trkpt lat="45.3738721" lon="7.5827799"><ele>782.5999999999999</ele><time>2026-04-25T11:18:33.224Z</time></trkpt><trkpt lat="45.3739449" lon="7.5827324"><ele>787.4000000000001</ele><time>2026-04-25T11:18:34.225Z</time></trkpt><trkpt lat="45.3740455" lon="7.5826996"><ele>792.2</ele><time>2026-04-25T11:18:35.225Z</time></trkpt><trkpt lat="45.3741671" lon="7.5826929"><ele>797.0</ele><time>2026-04-25T11:18:36.226Z</time></trkpt><trkpt lat="45.3742668" lon="7.5827177"><ele>797.0000000000001</ele><time>2026-04-25T11:18:37.225Z</time></trkpt><trkpt lat="45.3743484" lon="7.5827576"><ele>797.0</ele><time>2026-04-25T11:18:38.218Z</time></trkpt><trkpt lat="45.3744059" lon="7.5827988"><ele>797.0</ele><time>2026-04-25T11:18:39.226Z</time></trkpt><trkpt lat="45.3744942" lon="7.5827524"><ele>797.0</ele><time>2026-04-25T11:18:41.22Z</time></trkpt><trkpt lat="45.3745591" lon="7.5826435"><ele>797.0000000000001</ele><time>2026-04-25T11:18:43.224Z</time></trkpt><trkpt lat="45.3745418" lon="7.5825066"><ele>797.0</ele><time>2026-04-25T11:18:45.222Z</time></trkpt><trkpt lat="45.3745639" lon="7.582378"><ele>797.0000000000001</ele><time>2026-04-25T11:18:49.222Z</time></trkpt><trkpt lat="45.3745732" lon="7.5822277"><ele>797.0</ele><time>2026-04-25T11:18:51.24Z</time></trkpt><trkpt lat="45.3745318" lon="7.5821305"><ele>797.0</ele><time>2026-04-25T11:18:52.243Z</time></trkpt><trkpt lat="45.3744809" lon="7.5820473"><ele>797.0</ele><time>2026-04-25T11:18:53.234Z</time></trkpt><trkpt lat="45.3744119" lon="7.5819771"><ele>797.0000000000001</ele><time>2026-04-25T11:18:54.233Z</time></trkpt><trkpt lat="45.3743547" lon="7.5818988"><ele>797.0</ele><time>2026-04-25T11:18:55.234Z</time></trkpt><trkpt lat="45.3743005" lon="7.5818405"><ele>799.0</ele><time>2026-04-25T11:18:56.228Z</time></trkpt><trkpt lat="45.3742374" lon="7.5817629"><ele>801.0</ele><time>2026-04-25T11:18:57.23Z</time></trkpt><trkpt lat="45.3742126" lon="7.5815927"><ele>803.0</ele><time>2026-04-25T11:18:59.225Z</time></trkpt><trkpt lat="45.3742628" lon="7.581499"><ele>805.0</ele><time>2026-04-25T11:19:01.222Z</time></trkpt><trkpt lat="45.3743829" lon="7.5815247"><ele>807.0</ele><time>2026-04-25T11:19:02.229Z</time></trkpt><trkpt lat="45.3744987" lon="7.5815008"><ele>807.0</ele><time>2026-04-25T11:19:03.228Z</time></trkpt><trkpt lat="45.3745921" lon="7.5814257"><ele>807.0</ele><time>2026-04-25T11:19:04.228Z</time></trkpt><trkpt lat="45.3746898" lon="7.5813013"><ele>807.0</ele><time>2026-04-25T11:19:05.23Z</time></trkpt><trkpt lat="45.3747827" lon="7.58115"><ele>807.0</ele><time>2026-04-25T11:19:06.23Z</time></trkpt><trkpt lat="45.3748635" lon="7.580996"><ele>812.75</ele><time>2026-04-25T11:19:07.226Z</time></trkpt><trkpt lat="45.3749336" lon="7.5808216"><ele>818.5</ele><time>2026-04-25T11:19:08.234Z</time></trkpt><trkpt lat="45.3750083" lon="7.5806423"><ele>824.25</ele><time>2026-04-25T11:19:09.232Z</time></trkpt><trkpt lat="45.3750719" lon="7.5804663"><ele>830.0</ele><time>2026-04-25T11:19:10.224Z</time></trkpt><trkpt lat="45.3751287" lon="7.5803136"><ele>831.0</ele><time>2026-04-25T11:19:11.23Z</time></trkpt><trkpt lat="45.3751742" lon="7.5801812"><ele>832.0</ele><time>2026-04-25T11:19:12.23Z</time></trkpt><trkpt lat="45.3751965" lon="7.5800747"><ele>833.0</ele><time>2026-04-25T11:19:13.223Z</time></trkpt><trkpt lat="45.3752376" lon="7.5799808"><ele>834.0</ele><time>2026-04-25T11:19:14.226Z</time></trkpt><trkpt lat="45.3753111" lon="7.5799378"><ele>835.0</ele><time>2026-04-25T11:19:15.226Z</time></trkpt><trkpt lat="45.3754195" lon="7.5799009"><ele>837.25</ele><time>2026-04-25T11:19:16.226Z</time></trkpt><trkpt lat="45.3755299" lon="7.579822"><ele>839.5</ele><time>2026-04-25T11:19:17.225Z</time></trkpt><trkpt lat="45.3756323" lon="7.5797078"><ele>841.75</ele><time>2026-04-25T11:19:18.219Z</time></trkpt><trkpt lat="45.3757164" lon="7.5796183"><ele>844.0</ele><time>2026-04-25T11:19:19.221Z</time></trkpt><trkpt lat="45.3758229" lon="7.5795881"><ele>844.0</ele><time>2026-04-25T11:19:20.226Z</time></trkpt><trkpt lat="45.3759555" lon="7.5795755"><ele>844.0</ele><time>2026-04-25T11:19:21.218Z</time></trkpt><trkpt lat="45.3760807" lon="7.5795439"><ele>844.0</ele><time>2026-04-25T11:19:22.215Z</time></trkpt><trkpt lat="45.3761861" lon="7.5794934"><ele>844.0</ele><time>2026-04-25T11:19:23.209Z</time></trkpt><trkpt lat="45.3762945" lon="7.5794193"><ele>848.6</ele><time>2026-04-25T11:19:24.213Z</time></trkpt><trkpt lat="45.3763992" lon="7.5793671"><ele>853.2</ele><time>2026-04-25T11:19:25.21Z</time></trkpt><trkpt lat="45.3765072" lon="7.5793094"><ele>857.8000000000001</ele><time>2026-04-25T11:19:26.211Z</time></trkpt><trkpt lat="45.3766034" lon="7.5792656"><ele>862.4000000000001</ele><time>2026-04-25T11:19:27.208Z</time></trkpt><trkpt lat="45.3767036" lon="7.5792332"><ele>867.0</ele><time>2026-04-25T11:19:28.212Z</time></trkpt><trkpt lat="45.3768041" lon="7.5792128"><ele>867.0</ele><time>2026-04-25T11:19:29.209Z</time></trkpt><trkpt lat="45.3769082" lon="7.5791874"><ele>867.0</ele><time>2026-04-25T11:19:30.207Z</time></trkpt><trkpt lat="45.3770145" lon="7.5791466"><ele>867.0</ele><time>2026-04-25T11:19:31.202Z</time></trkpt><trkpt lat="45.3771392" lon="7.5790573"><ele>867.0</ele><time>2026-04-25T11:19:32.207Z</time></trkpt><trkpt lat="45.3772519" lon="7.5789391"><ele>865.5</ele><time>2026-04-25T11:19:33.206Z</time></trkpt><trkpt lat="45.3773894" lon="7.5788072"><ele>864.0</ele><time>2026-04-25T11:19:34.211Z</time></trkpt><trkpt lat="45.3775124" lon="7.578704"><ele>862.5</ele><time>2026-04-25T11:19:35.208Z</time></trkpt><trkpt lat="45.3776214" lon="7.5786323"><ele>861.0</ele><time>2026-04-25T11:19:36.206Z</time></trkpt><trkpt lat="45.3777202" lon="7.5785788"><ele>865.8333333333334</ele><time>2026-04-25T11:19:37.207Z</time></trkpt><trkpt lat="45.3778175" lon="7.5785777"><ele>870.6666666666667</ele><time>2026-04-25T11:19:38.208Z</time></trkpt><trkpt lat="45.3779063" lon="7.5785581"><ele>875.5</ele><time>2026-04-25T11:19:39.21Z</time></trkpt><trkpt lat="45.3779863" lon="7.5785597"><ele>880.3333333333334</ele><time>2026-04-25T11:19:40.211Z</time></trkpt><trkpt lat="45.378056" lon="7.5785825"><ele>885.1666666666667</ele><time>2026-04-25T11:19:41.203Z</time></trkpt><trkpt lat="45.3781401" lon="7.5786244"><ele>890.0</ele><time>2026-04-25T11:19:43.209Z</time></trkpt><trkpt lat="45.3781985" lon="7.578487"><ele>890.0</ele><time>2026-04-25T11:19:45.21Z</time></trkpt><trkpt lat="45.3782334" lon="7.5783826"><ele>890.0</ele><time>2026-04-25T11:19:46.209Z</time></trkpt><trkpt lat="45.378294" lon="7.5783077"><ele>890.0</ele><time>2026-04-25T11:19:47.214Z</time></trkpt><trkpt lat="45.3783797" lon="7.5782766"><ele>890.0</ele><time>2026-04-25T11:19:48.211Z</time></trkpt><trkpt lat="45.3784928" lon="7.5782536"><ele>890.0</ele><time>2026-04-25T11:19:49.209Z</time></trkpt><trkpt lat="45.3786074" lon="7.578231"><ele>890.0</ele><time>2026-04-25T11:19:50.208Z</time></trkpt><trkpt lat="45.3787286" lon="7.5781746"><ele>890.0</ele><time>2026-04-25T11:19:51.211Z</time></trkpt><trkpt lat="45.3788603" lon="7.5780942"><ele>890.0</ele><time>2026-04-25T11:19:52.222Z</time></trkpt><trkpt lat="45.3789801" lon="7.5780254"><ele>890.0</ele><time>2026-04-25T11:19:53.218Z</time></trkpt><trkpt lat="45.3790858" lon="7.5779821"><ele>890.5</ele><time>2026-04-25T11:19:54.216Z</time></trkpt><trkpt lat="45.3791915" lon="7.5779724"><ele>891.0</ele><time>2026-04-25T11:19:55.215Z</time></trkpt><trkpt lat="45.3793173" lon="7.5780177"><ele>891.5</ele><time>2026-04-25T11:19:56.212Z</time></trkpt><trkpt lat="45.3794344" lon="7.5780532"><ele>892.0</ele><time>2026-04-25T11:19:57.223Z</time></trkpt><trkpt lat="45.3795437" lon="7.5780462"><ele>892.0</ele><time>2026-04-25T11:19:58.22Z</time></trkpt><trkpt lat="45.3796602" lon="7.5779848"><ele>892.0</ele><time>2026-04-25T11:19:59.221Z</time></trkpt><trkpt lat="45.3797841" lon="7.5779052"><ele>892.0</ele><time>2026-04-25T11:20:00.224Z</time></trkpt><trkpt lat="45.3798948" lon="7.5778234"><ele>892.0</ele><time>2026-04-25T11:20:01.213Z</time></trkpt><trkpt lat="45.3800204" lon="7.5777621"><ele>899.4000000000001</ele><time>2026-04-25T11:20:02.214Z</time></trkpt><trkpt lat="45.3801462" lon="7.5777202"><ele>906.8000000000001</ele><time>2026-04-25T11:20:03.212Z</time></trkpt><trkpt lat="45.3802572" lon="7.5776982"><ele>914.2</ele><time>2026-04-25T11:20:04.211Z</time></trkpt><trkpt lat="45.3803525" lon="7.5777106"><ele>921.6</ele><time>2026-04-25T11:20:05.21Z</time></trkpt><trkpt lat="45.3804577" lon="7.5777461"><ele>929.0</ele><time>2026-04-25T11:20:06.207Z</time></trkpt><trkpt lat="45.3805507" lon="7.5778167"><ele>929.0</ele><time>2026-04-25T11:20:07.211Z</time></trkpt><trkpt lat="45.3806282" lon="7.5778412"><ele>929.0000000000001</ele><time>2026-04-25T11:20:08.211Z</time></trkpt><trkpt lat="45.3807498" lon="7.5778146"><ele>929.0000000000001</ele><time>2026-04-25T11:20:10.215Z</time></trkpt><trkpt lat="45.3807923" lon="7.5776985"><ele>929.0</ele><time>2026-04-25T11:20:12.217Z</time></trkpt><trkpt lat="45.38076" lon="7.5776129"><ele>929.0</ele><time>2026-04-25T11:20:13.219Z</time></trkpt><trkpt lat="45.380679" lon="7.5775306"><ele>929.0</ele><time>2026-04-25T11:20:14.221Z</time></trkpt><trkpt lat="45.3805931" lon="7.5774544"><ele>929.0000000000001</ele><time>2026-04-25T11:20:15.219Z</time></trkpt><trkpt lat="45.3805777" lon="7.5773623"><ele>929.0000000000001</ele><time>2026-04-25T11:20:17.218Z</time></trkpt><trkpt lat="45.3806835" lon="7.5772933"><ele>929.0</ele><time>2026-04-25T11:20:19.216Z</time></trkpt><trkpt lat="45.3807741" lon="7.5772256"><ele>929.0</ele><time>2026-04-25T11:20:20.217Z</time></trkpt><trkpt lat="45.3808705" lon="7.5771261"><ele>934.75</ele><time>2026-04-25T11:20:21.227Z</time></trkpt><trkpt lat="45.3809451" lon="7.5769765"><ele>940.5</ele><time>2026-04-25T11:20:22.23Z</time></trkpt><trkpt lat="45.3810071" lon="7.5767851"><ele>946.25</ele><time>2026-04-25T11:20:23.226Z</time></trkpt><trkpt lat="45.3810466" lon="7.5765514"><ele>952.0</ele><time>2026-04-25T11:20:24.221Z</time></trkpt><trkpt lat="45.3810989" lon="7.576284"><ele>956.2</ele><time>2026-04-25T11:20:25.228Z</time></trkpt><trkpt lat="45.381143" lon="7.5760958"><ele>960.4000000000001</ele><time>2026-04-25T11:20:26.219Z</time></trkpt><trkpt lat="45.3811836" lon="7.575914"><ele>964.5999999999999</ele><time>2026-04-25T11:20:27.215Z</time></trkpt><trkpt lat="45.3812029" lon="7.5757986"><ele>968.8</ele><time>2026-04-25T11:20:28.218Z</time></trkpt><trkpt lat="45.3812572" lon="7.575735"><ele>973.0</ele><time>2026-04-25T11:20:29.222Z</time></trkpt><trkpt lat="45.3812493" lon="7.5756156"><ele>973.0</ele><time>2026-04-25T11:20:31.221Z</time></trkpt><trkpt lat="45.3811749" lon="7.5755921"><ele>973.0</ele><time>2026-04-25T11:20:32.221Z</time></trkpt><trkpt lat="45.381086" lon="7.5756025"><ele>973.0</ele><time>2026-04-25T11:20:33.216Z</time></trkpt><trkpt lat="45.3809957" lon="7.575659"><ele>973.0</ele><time>2026-04-25T11:20:34.216Z</time></trkpt><trkpt lat="45.3809114" lon="7.5757498"><ele>973.0</ele><time>2026-04-25T11:20:35.218Z</time></trkpt><trkpt lat="45.3808166" lon="7.5758529"><ele>973.0</ele><time>2026-04-25T11:20:36.219Z</time></trkpt><trkpt lat="45.3807378" lon="7.5759594"><ele>973.0</ele><time>2026-04-25T11:20:37.213Z</time></trkpt><trkpt lat="45.380631" lon="7.5760429"><ele>973.0</ele><time>2026-04-25T11:20:38.21Z</time></trkpt><trkpt lat="45.3805368" lon="7.5760971"><ele>973.0</ele><time>2026-04-25T11:20:39.216Z</time></trkpt><trkpt lat="45.3804485" lon="7.5761165"><ele>973.0</ele><time>2026-04-25T11:20:40.216Z</time></trkpt><trkpt lat="45.3803428" lon="7.5761118"><ele>973.0</ele><time>2026-04-25T11:20:42.214Z</time></trkpt><trkpt lat="45.3803883" lon="7.5760036"><ele>973.0</ele><time>2026-04-25T11:20:46.218Z</time></trkpt><trkpt lat="45.3804738" lon="7.5759263"><ele>973.0</ele><time>2026-04-25T11:20:47.213Z</time></trkpt><trkpt lat="45.3805764" lon="7.5758103"><ele>973.0</ele><time>2026-04-25T11:20:48.219Z</time></trkpt><trkpt lat="45.3806719" lon="7.5756731"><ele>973.0</ele><time>2026-04-25T11:20:49.213Z</time></trkpt><trkpt lat="45.38074" lon="7.5755318"><ele>973.0</ele><time>2026-04-25T11:20:50.217Z</time></trkpt><trkpt lat="45.38082" lon="7.575425"><ele>973.0</ele><time>2026-04-25T11:20:51.224Z</time></trkpt><trkpt lat="45.3808838" lon="7.5752697"><ele>973.0</ele><time>2026-04-25T11:20:52.227Z</time></trkpt><trkpt lat="45.3809297" lon="7.5751135"><ele>975.5999999999999</ele><time>2026-04-25T11:20:53.216Z</time></trkpt><trkpt lat="45.380952" lon="7.574958"><ele>978.1999999999999</ele><time>2026-04-25T11:20:54.218Z</time></trkpt><trkpt lat="45.3809667" lon="7.5747933"><ele>980.8</ele><time>2026-04-25T11:20:55.213Z</time></trkpt><trkpt lat="45.3810036" lon="7.5746366"><ele>983.4</ele><time>2026-04-25T11:20:56.216Z</time></trkpt><trkpt lat="45.381043" lon="7.5745223"><ele>986.0</ele><time>2026-04-25T11:20:57.218Z</time></trkpt><trkpt lat="45.3811123" lon="7.5743662"><ele>984.1999999999999</ele><time>2026-04-25T11:20:58.218Z</time></trkpt><trkpt lat="45.3811472" lon="7.5742035"><ele>982.3999999999999</ele><time>2026-04-25T11:20:59.221Z</time></trkpt><trkpt lat="45.3811911" lon="7.5740602"><ele>980.6</ele><time>2026-04-25T11:21:00.217Z</time></trkpt><trkpt lat="45.3812463" lon="7.5739486"><ele>978.8</ele><time>2026-04-25T11:21:01.221Z</time></trkpt><trkpt lat="45.38131" lon="7.5738544"><ele>977.0</ele><time>2026-04-25T11:21:02.219Z</time></trkpt><trkpt lat="45.3813652" lon="7.573749"><ele>981.0000000000001</ele><time>2026-04-25T11:21:03.223Z</time></trkpt><trkpt lat="45.3814152" lon="7.5736447"><ele>985.0</ele><time>2026-04-25T11:21:04.22Z</time></trkpt><trkpt lat="45.38147" lon="7.5735639"><ele>989.0</ele><time>2026-04-25T11:21:05.221Z</time></trkpt><trkpt lat="45.3815271" lon="7.5734918"><ele>993.0</ele><time>2026-04-25T11:21:07.218Z</time></trkpt><trkpt lat="45.3815887" lon="7.5733846"><ele>997.0000000000001</ele><time>2026-04-25T11:21:10.212Z</time></trkpt><trkpt lat="45.381657" lon="7.5733108"><ele>1001.0</ele><time>2026-04-25T11:21:12.212Z</time></trkpt><trkpt lat="45.3817676" lon="7.5732179"><ele>1001.0000000000001</ele><time>2026-04-25T11:21:14.215Z</time></trkpt><trkpt lat="45.3818183" lon="7.573145"><ele>1001.0</ele><time>2026-04-25T11:21:15.212Z</time></trkpt><trkpt lat="45.3818754" lon="7.5730579"><ele>1001.0</ele><time>2026-04-25T11:21:16.215Z</time></trkpt><trkpt lat="45.3819305" lon="7.5729848"><ele>1001.0</ele><time>2026-04-25T11:21:17.212Z</time></trkpt><trkpt lat="45.3819782" lon="7.5729136"><ele>1001.0000000000001</ele><time>2026-04-25T11:21:18.215Z</time></trkpt><trkpt lat="45.382034" lon="7.5728394"><ele>1001.0</ele><time>2026-04-25T11:21:19.215Z</time></trkpt><trkpt lat="45.3821064" lon="7.572745"><ele>1000.8</ele><time>2026-04-25T11:21:20.214Z</time></trkpt><trkpt lat="45.382149" lon="7.572642"><ele>1000.5999999999999</ele><time>2026-04-25T11:21:21.218Z</time></trkpt><trkpt lat="45.3821894" lon="7.5725282"><ele>1000.4</ele><time>2026-04-25T11:21:22.216Z</time></trkpt><trkpt lat="45.3821983" lon="7.5723863"><ele>1000.2</ele><time>2026-04-25T11:21:23.214Z</time></trkpt><trkpt lat="45.3821968" lon="7.5722217"><ele>1000.0</ele><time>2026-04-25T11:21:24.21Z</time></trkpt><trkpt lat="45.3821887" lon="7.5720469"><ele>1004.4</ele><time>2026-04-25T11:21:25.214Z</time></trkpt><trkpt lat="45.3821855" lon="7.5718663"><ele>1008.8</ele><time>2026-04-25T11:21:26.213Z</time></trkpt><trkpt lat="45.3821689" lon="7.5717162"><ele>1013.2</ele><time>2026-04-25T11:21:27.212Z</time></trkpt><trkpt lat="45.3821673" lon="7.5715842"><ele>1017.6</ele><time>2026-04-25T11:21:28.211Z</time></trkpt><trkpt lat="45.3821745" lon="7.5714823"><ele>1022.0</ele><time>2026-04-25T11:21:29.215Z</time></trkpt><trkpt lat="45.382231" lon="7.5713318"><ele>1022.0</ele><time>2026-04-25T11:21:31.219Z</time></trkpt><trkpt lat="45.3822316" lon="7.5712179"><ele>1022.0</ele><time>2026-04-25T11:21:33.211Z</time></trkpt><trkpt lat="45.3821204" lon="7.5712789"><ele>1022.0</ele><time>2026-04-25T11:21:36.207Z</time></trkpt><trkpt lat="45.3820705" lon="7.5713824"><ele>1022.0</ele><time>2026-04-25T11:21:37.208Z</time></trkpt><trkpt lat="45.3820219" lon="7.571486"><ele>1022.0</ele><time>2026-04-25T11:21:38.211Z</time></trkpt><trkpt lat="45.3819532" lon="7.5716047"><ele>1022.6</ele><time>2026-04-25T11:21:39.208Z</time></trkpt><trkpt lat="45.3818904" lon="7.5717139"><ele>1023.2</ele><time>2026-04-25T11:21:40.208Z</time></trkpt><trkpt lat="45.3818523" lon="7.5718142"><ele>1023.8</ele><time>2026-04-25T11:21:41.209Z</time></trkpt><trkpt lat="45.3818264" lon="7.5719464"><ele>1024.4</ele><time>2026-04-25T11:21:42.211Z</time></trkpt><trkpt lat="45.381777" lon="7.5720419"><ele>1025.0</ele><time>2026-04-25T11:21:43.209Z</time></trkpt><trkpt lat="45.3817019" lon="7.5721205"><ele>1025.0</ele><time>2026-04-25T11:21:44.211Z</time></trkpt><trkpt lat="45.3816324" lon="7.5722081"><ele>1025.0</ele><time>2026-04-25T11:21:45.215Z</time></trkpt><trkpt lat="45.3815689" lon="7.5722965"><ele>1025.0</ele><time>2026-04-25T11:21:46.212Z</time></trkpt><trkpt lat="45.3815171" lon="7.5723495"><ele>1025.0</ele><time>2026-04-25T11:21:47.215Z</time></trkpt><trkpt lat="45.3814504" lon="7.5723515"><ele>1025.0</ele><time>2026-04-25T11:21:48.216Z</time></trkpt><trkpt lat="45.3813545" lon="7.5723397"><ele>1025.0</ele><time>2026-04-25T11:21:49.219Z</time></trkpt><trkpt lat="45.3812636" lon="7.5723109"><ele>1030.0</ele><time>2026-04-25T11:21:50.22Z</time></trkpt><trkpt lat="45.3811685" lon="7.5722851"><ele>1035.0</ele><time>2026-04-25T11:21:51.213Z</time></trkpt><trkpt lat="45.3810762" lon="7.5722545"><ele>1040.0</ele><time>2026-04-25T11:21:52.226Z</time></trkpt><trkpt lat="45.3809811" lon="7.5722541"><ele>1045.0</ele><time>2026-04-25T11:21:53.211Z</time></trkpt><trkpt lat="45.3808923" lon="7.5722993"><ele>1050.0</ele><time>2026-04-25T11:21:54.214Z</time></trkpt><trkpt lat="45.3808155" lon="7.5723843"><ele>1050.0</ele><time>2026-04-25T11:21:55.217Z</time></trkpt><trkpt lat="45.3807601" lon="7.5724725"><ele>1050.0</ele><time>2026-04-25T11:21:56.214Z</time></trkpt><trkpt lat="45.3807052" lon="7.5725992"><ele>1050.0</ele><time>2026-04-25T11:21:57.211Z</time></trkpt><trkpt lat="45.3806581" lon="7.5727249"><ele>1050.0</ele><time>2026-04-25T11:21:58.217Z</time></trkpt><trkpt lat="45.3806052" lon="7.5728357"><ele>1050.0</ele><time>2026-04-25T11:21:59.212Z</time></trkpt><trkpt lat="45.3805195" lon="7.572933"><ele>1050.75</ele><time>2026-04-25T11:22:00.223Z</time></trkpt><trkpt lat="45.3804174" lon="7.5730106"><ele>1051.5</ele><time>2026-04-25T11:22:01.214Z</time></trkpt><trkpt lat="45.3803222" lon="7.5730731"><ele>1052.25</ele><time>2026-04-25T11:22:02.218Z</time></trkpt><trkpt lat="45.3802232" lon="7.5731231"><ele>1053.0</ele><time>2026-04-25T11:22:03.225Z</time></trkpt><trkpt lat="45.3800961" lon="7.5731663"><ele>1053.0</ele><time>2026-04-25T11:22:04.22Z</time></trkpt><trkpt lat="45.3799581" lon="7.5732118"><ele>1053.0</ele><time>2026-04-25T11:22:05.218Z</time></trkpt><trkpt lat="45.37985" lon="7.5732824"><ele>1053.0</ele><time>2026-04-25T11:22:06.219Z</time></trkpt><trkpt lat="45.379762" lon="7.5733571"><ele>1053.0</ele><time>2026-04-25T11:22:07.218Z</time></trkpt><trkpt lat="45.3796917" lon="7.5734088"><ele>1053.0</ele><time>2026-04-25T11:22:08.222Z</time></trkpt><trkpt lat="45.3795973" lon="7.5734667"><ele>1053.0</ele><time>2026-04-25T11:22:10.229Z</time></trkpt><trkpt lat="45.3796252" lon="7.5733097"><ele>1053.0</ele><time>2026-04-25T11:22:13.218Z</time></trkpt><trkpt lat="45.379669" lon="7.5732195"><ele>1053.0</ele><time>2026-04-25T11:22:14.221Z</time></trkpt><trkpt lat="45.3797156" lon="7.5731258"><ele>1053.0</ele><time>2026-04-25T11:22:15.215Z</time></trkpt><trkpt lat="45.3797753" lon="7.5730498"><ele>1053.0</ele><time>2026-04-25T11:22:16.224Z</time></trkpt><trkpt lat="45.3798338" lon="7.5729393"><ele>1053.0</ele><time>2026-04-25T11:22:17.223Z</time></trkpt><trkpt lat="45.3798888" lon="7.5728277"><ele>1057.0</ele><time>2026-04-25T11:22:18.225Z</time></trkpt><trkpt lat="45.3799459" lon="7.5727257"><ele>1061.0</ele><time>2026-04-25T11:22:19.216Z</time></trkpt><trkpt lat="45.3800071" lon="7.5726313"><ele>1065.0</ele><time>2026-04-25T11:22:20.213Z</time></trkpt><trkpt lat="45.3800672" lon="7.5725532"><ele>1069.0</ele><time>2026-04-25T11:22:21.218Z</time></trkpt><trkpt lat="45.3801295" lon="7.5724605"><ele>1073.0</ele><time>2026-04-25T11:22:22.216Z</time></trkpt><trkpt lat="45.3801861" lon="7.5723445"><ele>1073.0</ele><time>2026-04-25T11:22:23.221Z</time></trkpt><trkpt lat="45.3802336" lon="7.5722111"><ele>1073.0</ele><time>2026-04-25T11:22:24.215Z</time></trkpt><trkpt lat="45.3802667" lon="7.5720729"><ele>1073.0</ele><time>2026-04-25T11:22:25.22Z</time></trkpt><trkpt lat="45.3802855" lon="7.5719457"><ele>1073.0</ele><time>2026-04-25T11:22:26.214Z</time></trkpt><trkpt lat="45.3802933" lon="7.5718257"><ele>1073.0</ele><time>2026-04-25T11:22:27.217Z</time></trkpt><trkpt lat="45.3802975" lon="7.5716991"><ele>1075.3333333333335</ele><time>2026-04-25T11:22:28.213Z</time></trkpt><trkpt lat="45.3803042" lon="7.5715634"><ele>1077.6666666666667</ele><time>2026-04-25T11:22:29.216Z</time></trkpt><trkpt lat="45.3803105" lon="7.5714402"><ele>1080.0</ele><time>2026-04-25T11:22:30.22Z</time></trkpt><trkpt lat="45.3803161" lon="7.5713257"><ele>1082.3333333333333</ele><time>2026-04-25T11:22:32.214Z</time></trkpt><trkpt lat="45.3802135" lon="7.5713189"><ele>1084.6666666666665</ele><time>2026-04-25T11:22:34.22Z</time></trkpt><trkpt lat="45.3801446" lon="7.5713627"><ele>1087.0</ele><time>2026-04-25T11:22:35.207Z</time></trkpt><trkpt lat="45.3800884" lon="7.5714206"><ele>1087.0</ele><time>2026-04-25T11:22:36.215Z</time></trkpt><trkpt lat="45.3800478" lon="7.5715126"><ele>1087.0</ele><time>2026-04-25T11:22:37.21Z</time></trkpt><trkpt lat="45.3800042" lon="7.5716044"><ele>1087.0</ele><time>2026-04-25T11:22:38.213Z</time></trkpt><trkpt lat="45.3799487" lon="7.5717068"><ele>1087.0</ele><time>2026-04-25T11:22:39.213Z</time></trkpt><trkpt lat="45.3798918" lon="7.5718106"><ele>1087.0</ele><time>2026-04-25T11:22:40.225Z</time></trkpt><trkpt lat="45.379855" lon="7.5718957"><ele>1087.0</ele><time>2026-04-25T11:22:41.224Z</time></trkpt><trkpt lat="45.3798111" lon="7.5719768"><ele>1087.0</ele><time>2026-04-25T11:22:43.225Z</time></trkpt><trkpt lat="45.3797405" lon="7.5719073"><ele>1087.0</ele><time>2026-04-25T11:22:46.216Z</time></trkpt><trkpt lat="45.3796921" lon="7.5718331"><ele>1087.0</ele><time>2026-04-25T11:22:47.211Z</time></trkpt><trkpt lat="45.3796175" lon="7.5717148"><ele>1087.0</ele><time>2026-04-25T11:22:48.211Z</time></trkpt><trkpt lat="45.3794991" lon="7.5716088"><ele>1087.0</ele><time>2026-04-25T11:22:49.211Z</time></trkpt><trkpt lat="45.3794198" lon="7.5715265"><ele>1087.6666666666665</ele><time>2026-04-25T11:22:50.21Z</time></trkpt><trkpt lat="45.3793801" lon="7.5714103"><ele>1088.3333333333333</ele><time>2026-04-25T11:22:51.213Z</time></trkpt><trkpt lat="45.3793627" lon="7.5712812"><ele>1089.0</ele><time>2026-04-25T11:22:52.212Z</time></trkpt><trkpt lat="45.3793605" lon="7.5711679"><ele>1089.6666666666667</ele><time>2026-04-25T11:22:53.238Z</time></trkpt><trkpt lat="45.3793865" lon="7.5710721"><ele>1090.3333333333335</ele><time>2026-04-25T11:22:54.222Z</time></trkpt><trkpt lat="45.3794072" lon="7.5709779"><ele>1091.0</ele><time>2026-04-25T11:22:55.225Z</time></trkpt><trkpt lat="45.3794277" lon="7.5708784"><ele>1091.8333333333335</ele><time>2026-04-25T11:22:56.227Z</time></trkpt><trkpt lat="45.3794171" lon="7.5707588"><ele>1092.6666666666667</ele><time>2026-04-25T11:22:57.223Z</time></trkpt><trkpt lat="45.3794169" lon="7.5706369"><ele>1093.5</ele><time>2026-04-25T11:22:58.226Z</time></trkpt><trkpt lat="45.3794073" lon="7.5705178"><ele>1094.3333333333333</ele><time>2026-04-25T11:22:59.226Z</time></trkpt><trkpt lat="45.3793878" lon="7.5704026"><ele>1095.1666666666665</ele><time>2026-04-25T11:23:00.223Z</time></trkpt><trkpt lat="45.3793594" lon="7.5703044"><ele>1096.0</ele><time>2026-04-25T11:23:01.228Z</time></trkpt><trkpt lat="45.3793138" lon="7.570224"><ele>1098.8</ele><time>2026-04-25T11:23:02.232Z</time></trkpt><trkpt lat="45.3792629" lon="7.5701402"><ele>1101.6</ele><time>2026-04-25T11:23:03.228Z</time></trkpt><trkpt lat="45.3791773" lon="7.57004"><ele>1104.4</ele><time>2026-04-25T11:23:04.23Z</time></trkpt><trkpt lat="45.379088" lon="7.5699212"><ele>1107.2</ele><time>2026-04-25T11:23:05.218Z</time></trkpt><trkpt lat="45.3790197" lon="7.5698115"><ele>1110.0</ele><time>2026-04-25T11:23:06.225Z</time></trkpt><trkpt lat="45.3789747" lon="7.5696911"><ele>1110.0</ele><time>2026-04-25T11:23:07.226Z</time></trkpt><trkpt lat="45.3789232" lon="7.5695824"><ele>1110.0</ele><time>2026-04-25T11:23:08.22Z</time></trkpt><trkpt lat="45.3788662" lon="7.5694901"><ele>1110.0</ele><time>2026-04-25T11:23:09.22Z</time></trkpt><trkpt lat="45.3788082" lon="7.5694205"><ele>1110.0</ele><time>2026-04-25T11:23:10.23Z</time></trkpt><trkpt lat="45.3787564" lon="7.5692836"><ele>1110.0</ele><time>2026-04-25T11:23:12.229Z</time></trkpt><trkpt lat="45.3787765" lon="7.5690952"><ele>1110.5</ele><time>2026-04-25T11:23:14.223Z</time></trkpt><trkpt lat="45.3787871" lon="7.5689736"><ele>1111.0</ele><time>2026-04-25T11:23:15.224Z</time></trkpt><trkpt lat="45.3787856" lon="7.5688579"><ele>1111.5</ele><time>2026-04-25T11:23:16.221Z</time></trkpt><trkpt lat="45.3787238" lon="7.5686829"><ele>1112.0</ele><time>2026-04-25T11:23:18.216Z</time></trkpt><trkpt lat="45.3786731" lon="7.5686044"><ele>1112.5</ele><time>2026-04-25T11:23:19.223Z</time></trkpt><trkpt lat="45.378608" lon="7.5685696"><ele>1113.0</ele><time>2026-04-25T11:23:20.22Z</time></trkpt><trkpt lat="45.3785302" lon="7.5685428"><ele>1113.0</ele><time>2026-04-25T11:23:21.223Z</time></trkpt><trkpt lat="45.3784565" lon="7.5685137"><ele>1113.0</ele><time>2026-04-25T11:23:22.222Z</time></trkpt><trkpt lat="45.3783917" lon="7.5684996"><ele>1113.0</ele><time>2026-04-25T11:23:23.233Z</time></trkpt><trkpt lat="45.3782841" lon="7.5684516"><ele>1113.0</ele><time>2026-04-25T11:23:25.221Z</time></trkpt><trkpt lat="45.3782566" lon="7.5683509"><ele>1113.0</ele><time>2026-04-25T11:23:27.227Z</time></trkpt><trkpt lat="45.3782846" lon="7.5682586"><ele>1113.0</ele><time>2026-04-25T11:23:28.22Z</time></trkpt><trkpt lat="45.3783225" lon="7.5681497"><ele>1113.0</ele><time>2026-04-25T11:23:29.226Z</time></trkpt><trkpt lat="45.37835" lon="7.5680465"><ele>1113.0</ele><time>2026-04-25T11:23:30.222Z</time></trkpt><trkpt lat="45.3783936" lon="7.5679305"><ele>1113.0</ele><time>2026-04-25T11:23:31.224Z</time></trkpt><trkpt lat="45.3784482" lon="7.5677986"><ele>1113.0</ele><time>2026-04-25T11:23:32.234Z</time></trkpt><trkpt lat="45.3784985" lon="7.5676588"><ele>1113.0</ele><time>2026-04-25T11:23:33.233Z</time></trkpt><trkpt lat="45.3785577" lon="7.5675411"><ele>1112.0</ele><time>2026-04-25T11:23:34.231Z</time></trkpt><trkpt lat="45.3786095" lon="7.5674274"><ele>1111.0</ele><time>2026-04-25T11:23:35.233Z</time></trkpt><trkpt lat="45.3786451" lon="7.5673336"><ele>1110.0</ele><time>2026-04-25T11:23:36.225Z</time></trkpt><trkpt lat="45.3786989" lon="7.5672236"><ele>1109.0</ele><time>2026-04-25T11:23:38.225Z</time></trkpt><trkpt lat="45.3787384" lon="7.5673347"><ele>1108.0</ele><time>2026-04-25T11:23:41.225Z</time></trkpt><trkpt lat="45.3786686" lon="7.5674968"><ele>1108.0</ele><time>2026-04-25T11:23:43.225Z</time></trkpt><trkpt lat="45.3786415" lon="7.5675845"><ele>1108.0</ele><time>2026-04-25T11:23:44.229Z</time></trkpt><trkpt lat="45.3786256" lon="7.5676804"><ele>1108.0</ele><time>2026-04-25T11:23:45.234Z</time></trkpt><trkpt lat="45.3786175" lon="7.5677716"><ele>1108.0</ele><time>2026-04-25T11:23:46.241Z</time></trkpt><trkpt lat="45.3786348" lon="7.5678685"><ele>1108.0</ele><time>2026-04-25T11:23:47.234Z</time></trkpt><trkpt lat="45.3787122" lon="7.5679401"><ele>1108.0</ele><time>2026-04-25T11:23:49.231Z</time></trkpt><trkpt lat="45.3788243" lon="7.5679577"><ele>1112.1666666666665</ele><time>2026-04-25T11:23:51.231Z</time></trkpt><trkpt lat="45.3788985" lon="7.5679662"><ele>1116.3333333333333</ele><time>2026-04-25T11:23:52.235Z</time></trkpt><trkpt lat="45.3789804" lon="7.5679694"><ele>1120.5</ele><time>2026-04-25T11:23:53.239Z</time></trkpt><trkpt lat="45.3790643" lon="7.5679611"><ele>1124.6666666666667</ele><time>2026-04-25T11:23:54.23Z</time></trkpt><trkpt lat="45.3791514" lon="7.5679385"><ele>1128.8333333333335</ele><time>2026-04-25T11:23:55.229Z</time></trkpt><trkpt lat="45.3792433" lon="7.5679121"><ele>1133.0</ele><time>2026-04-25T11:23:56.231Z</time></trkpt><trkpt lat="45.3793324" lon="7.5679222"><ele>1133.0</ele><time>2026-04-25T11:23:57.229Z</time></trkpt><trkpt lat="45.3793975" lon="7.5679689"><ele>1133.0</ele><time>2026-04-25T11:23:58.231Z</time></trkpt><trkpt lat="45.3794531" lon="7.5680604"><ele>1133.0</ele><time>2026-04-25T11:23:59.237Z</time></trkpt><trkpt lat="45.3795214" lon="7.5681553"><ele>1133.0</ele><time>2026-04-25T11:24:00.236Z</time></trkpt><trkpt lat="45.3796144" lon="7.5682202"><ele>1133.0</ele><time>2026-04-25T11:24:01.232Z</time></trkpt><trkpt lat="45.3797089" lon="7.5682851"><ele>1138.6</ele><time>2026-04-25T11:24:02.239Z</time></trkpt><trkpt lat="45.3797926" lon="7.5683643"><ele>1144.1999999999998</ele><time>2026-04-25T11:24:03.237Z</time></trkpt><trkpt lat="45.379882" lon="7.5684295"><ele>1149.8</ele><time>2026-04-25T11:24:04.23Z</time></trkpt><trkpt lat="45.3799743" lon="7.5684959"><ele>1155.3999999999999</ele><time>2026-04-25T11:24:05.229Z</time></trkpt><trkpt lat="45.3800774" lon="7.5685472"><ele>1161.0</ele><time>2026-04-25T11:24:06.235Z</time></trkpt><trkpt lat="45.3801791" lon="7.5686097"><ele>1161.0</ele><time>2026-04-25T11:24:07.228Z</time></trkpt><trkpt lat="45.3802443" lon="7.5686714"><ele>1161.0</ele><time>2026-04-25T11:24:08.237Z</time></trkpt><trkpt lat="45.3803036" lon="7.5687094"><ele>1161.0</ele><time>2026-04-25T11:24:09.233Z</time></trkpt><trkpt lat="45.3803716" lon="7.5687296"><ele>1161.0</ele><time>2026-04-25T11:24:10.228Z</time></trkpt><trkpt lat="45.3804452" lon="7.5687347"><ele>1161.0</ele><time>2026-04-25T11:24:11.224Z</time></trkpt><trkpt lat="45.3805241" lon="7.5687113"><ele>1161.0</ele><time>2026-04-25T11:24:12.229Z</time></trkpt><trkpt lat="45.3806024" lon="7.5686637"><ele>1162.0</ele><time>2026-04-25T11:24:13.229Z</time></trkpt><trkpt lat="45.3806614" lon="7.5685894"><ele>1163.0</ele><time>2026-04-25T11:24:14.222Z</time></trkpt><trkpt lat="45.3807233" lon="7.5684868"><ele>1164.0</ele><time>2026-04-25T11:24:15.221Z</time></trkpt><trkpt lat="45.3807832" lon="7.5684046"><ele>1165.0</ele><time>2026-04-25T11:24:16.226Z</time></trkpt><trkpt lat="45.3808489" lon="7.5683091"><ele>1166.0</ele><time>2026-04-25T11:24:17.219Z</time></trkpt><trkpt lat="45.3809027" lon="7.568212"><ele>1167.0</ele><time>2026-04-25T11:24:18.216Z</time></trkpt><trkpt lat="45.3809576" lon="7.5681226"><ele>1167.0</ele><time>2026-04-25T11:24:19.221Z</time></trkpt><trkpt lat="45.3809973" lon="7.5680252"><ele>1167.0</ele><time>2026-04-25T11:24:20.221Z</time></trkpt><trkpt lat="45.381031" lon="7.5678905"><ele>1167.0</ele><time>2026-04-25T11:24:21.218Z</time></trkpt><trkpt lat="45.3810514" lon="7.5677438"><ele>1167.0</ele><time>2026-04-25T11:24:22.22Z</time></trkpt><trkpt lat="45.3810728" lon="7.5676031"><ele>1167.0</ele><time>2026-04-25T11:24:23.216Z</time></trkpt><trkpt lat="45.3810946" lon="7.567455"><ele>1171.25</ele><time>2026-04-25T11:24:24.222Z</time></trkpt><trkpt lat="45.381116" lon="7.5672978"><ele>1175.5</ele><time>2026-04-25T11:24:25.213Z</time></trkpt><trkpt lat="45.3811469" lon="7.5671182"><ele>1179.75</ele><time>2026-04-25T11:24:26.212Z</time></trkpt><trkpt lat="45.3811824" lon="7.5669611"><ele>1184.0</ele><time>2026-04-25T11:24:27.219Z</time></trkpt><trkpt lat="45.3812095" lon="7.5668137"><ele>1184.1666666666667</ele><time>2026-04-25T11:24:28.216Z</time></trkpt><trkpt lat="45.3812497" lon="7.5666713"><ele>1184.3333333333335</ele><time>2026-04-25T11:24:29.217Z</time></trkpt><trkpt lat="45.3812899" lon="7.5665348"><ele>1184.5</ele><time>2026-04-25T11:24:30.219Z</time></trkpt><trkpt lat="45.3813165" lon="7.5664286"><ele>1184.6666666666667</ele><time>2026-04-25T11:24:31.214Z</time></trkpt><trkpt lat="45.3813437" lon="7.5663429"><ele>1184.8333333333333</ele><time>2026-04-25T11:24:32.217Z</time></trkpt><trkpt lat="45.3813856" lon="7.5662302"><ele>1185.0</ele><time>2026-04-25T11:24:34.229Z</time></trkpt><trkpt lat="45.3813294" lon="7.5661415"><ele>1186.75</ele><time>2026-04-25T11:24:36.228Z</time></trkpt><trkpt lat="45.3812025" lon="7.5662108"><ele>1188.5</ele><time>2026-04-25T11:24:38.231Z</time></trkpt><trkpt lat="45.3811145" lon="7.5663225"><ele>1190.25</ele><time>2026-04-25T11:24:39.227Z</time></trkpt><trkpt lat="45.3810192" lon="7.5664535"><ele>1192.0</ele><time>2026-04-25T11:24:40.233Z</time></trkpt><trkpt lat="45.3809356" lon="7.5665753"><ele>1192.0</ele><time>2026-04-25T11:24:41.225Z</time></trkpt><trkpt lat="45.3809009" lon="7.566671"><ele>1192.0</ele><time>2026-04-25T11:24:42.223Z</time></trkpt><trkpt lat="45.3808325" lon="7.5667014"><ele>1192.0</ele><time>2026-04-25T11:24:44.229Z</time></trkpt><trkpt lat="45.3807947" lon="7.5665954"><ele>1192.0</ele><time>2026-04-25T11:24:46.232Z</time></trkpt><trkpt lat="45.3808402" lon="7.5664133"><ele>1192.0</ele><time>2026-04-25T11:24:48.233Z</time></trkpt><trkpt lat="45.3808611" lon="7.5662934"><ele>1193.6666666666665</ele><time>2026-04-25T11:24:49.234Z</time></trkpt><trkpt lat="45.3808799" lon="7.5661647"><ele>1195.3333333333333</ele><time>2026-04-25T11:24:50.233Z</time></trkpt><trkpt lat="45.3808753" lon="7.5660241"><ele>1197.0</ele><time>2026-04-25T11:24:51.231Z</time></trkpt><trkpt lat="45.3808608" lon="7.5658911"><ele>1198.6666666666667</ele><time>2026-04-25T11:24:52.234Z</time></trkpt><trkpt lat="45.3808626" lon="7.5657795"><ele>1200.3333333333335</ele><time>2026-04-25T11:24:53.234Z</time></trkpt><trkpt lat="45.380878" lon="7.5656841"><ele>1202.0</ele><time>2026-04-25T11:24:54.241Z</time></trkpt><trkpt lat="45.3809066" lon="7.5656023"><ele>1202.0</ele><time>2026-04-25T11:24:55.231Z</time></trkpt><trkpt lat="45.3809349" lon="7.5655195"><ele>1202.0</ele><time>2026-04-25T11:24:56.234Z</time></trkpt><trkpt lat="45.3809882" lon="7.5654601"><ele>1202.0</ele><time>2026-04-25T11:24:57.235Z</time></trkpt><trkpt lat="45.3810589" lon="7.5654421"><ele>1202.0</ele><time>2026-04-25T11:24:58.225Z</time></trkpt><trkpt lat="45.3811461" lon="7.5654607"><ele>1202.0</ele><time>2026-04-25T11:24:59.232Z</time></trkpt><trkpt lat="45.3812316" lon="7.5655404"><ele>1202.0</ele><time>2026-04-25T11:25:00.229Z</time></trkpt><trkpt lat="45.3813274" lon="7.5656442"><ele>1205.0</ele><time>2026-04-25T11:25:01.232Z</time></trkpt><trkpt lat="45.3814327" lon="7.5657359"><ele>1208.0</ele><time>2026-04-25T11:25:02.231Z</time></trkpt><trkpt lat="45.3815344" lon="7.5658149"><ele>1211.0</ele><time>2026-04-25T11:25:03.23Z</time></trkpt><trkpt lat="45.3816411" lon="7.5658691"><ele>1214.0</ele><time>2026-04-25T11:25:04.226Z</time></trkpt><trkpt lat="45.3817542" lon="7.56592"><ele>1214.0</ele><time>2026-04-25T11:25:05.235Z</time></trkpt><trkpt lat="45.3818531" lon="7.5659844"><ele>1214.0</ele><time>2026-04-25T11:25:06.226Z</time></trkpt><trkpt lat="45.3819338" lon="7.566064"><ele>1214.0</ele><time>2026-04-25T11:25:07.224Z</time></trkpt><trkpt lat="45.3820025" lon="7.5661349"><ele>1214.0</ele><time>2026-04-25T11:25:08.224Z</time></trkpt><trkpt lat="45.3820704" lon="7.5661807"><ele>1214.0</ele><time>2026-04-25T11:25:09.226Z</time></trkpt><trkpt lat="45.3821421" lon="7.5662212"><ele>1214.0</ele><time>2026-04-25T11:25:10.222Z</time></trkpt><trkpt lat="45.3822225" lon="7.5662321"><ele>1215.25</ele><time>2026-04-25T11:25:11.222Z</time></trkpt><trkpt lat="45.3823024" lon="7.5662346"><ele>1216.5</ele><time>2026-04-25T11:25:12.227Z</time></trkpt><trkpt lat="45.382412" lon="7.5662176"><ele>1217.75</ele><time>2026-04-25T11:25:13.227Z</time></trkpt><trkpt lat="45.3825376" lon="7.5662045"><ele>1219.0</ele><time>2026-04-25T11:25:14.238Z</time></trkpt><trkpt lat="45.3826695" lon="7.5661653"><ele>1219.0</ele><time>2026-04-25T11:25:15.228Z</time></trkpt><trkpt lat="45.3827876" lon="7.5661047"><ele>1219.0</ele><time>2026-04-25T11:25:16.229Z</time></trkpt><trkpt lat="45.3828903" lon="7.5660284"><ele>1219.0</ele><time>2026-04-25T11:25:17.226Z</time></trkpt><trkpt lat="45.3829739" lon="7.5659428"><ele>1219.0</ele><time>2026-04-25T11:25:18.227Z</time></trkpt><trkpt lat="45.3830398" lon="7.565858"><ele>1219.0</ele><time>2026-04-25T11:25:19.226Z</time></trkpt><trkpt lat="45.3831033" lon="7.5657549"><ele>1217.0</ele><time>2026-04-25T11:25:20.229Z</time></trkpt><trkpt lat="45.3831597" lon="7.5656629"><ele>1215.0</ele><time>2026-04-25T11:25:21.23Z</time></trkpt><trkpt lat="45.3832099" lon="7.5655604"><ele>1213.0</ele><time>2026-04-25T11:25:22.228Z</time></trkpt><trkpt lat="45.3832649" lon="7.5654318"><ele>1211.0</ele><time>2026-04-25T11:25:23.225Z</time></trkpt><trkpt lat="45.383312" lon="7.5652942"><ele>1209.0</ele><time>2026-04-25T11:25:24.233Z</time></trkpt><trkpt lat="45.3833685" lon="7.5651562"><ele>1214.2</ele><time>2026-04-25T11:25:25.224Z</time></trkpt><trkpt lat="45.3834303" lon="7.5650369"><ele>1219.4</ele><time>2026-04-25T11:25:26.222Z</time></trkpt><trkpt lat="45.3834998" lon="7.564935"><ele>1224.6</ele><time>2026-04-25T11:25:27.216Z</time></trkpt><trkpt lat="45.3835685" lon="7.5648465"><ele>1229.8</ele><time>2026-04-25T11:25:28.215Z</time></trkpt><trkpt lat="45.3836523" lon="7.5647765"><ele>1235.0</ele><time>2026-04-25T11:25:29.216Z</time></trkpt><trkpt lat="45.3837553" lon="7.5647059"><ele>1237.6</ele><time>2026-04-25T11:25:30.215Z</time></trkpt><trkpt lat="45.3838556" lon="7.5646369"><ele>1240.2</ele><time>2026-04-25T11:25:31.22Z</time></trkpt><trkpt lat="45.383955" lon="7.5645615"><ele>1242.8</ele><time>2026-04-25T11:25:32.214Z</time></trkpt><trkpt lat="45.3840465" lon="7.5644807"><ele>1245.4</ele><time>2026-04-25T11:25:33.218Z</time></trkpt><trkpt lat="45.3841166" lon="7.5644035"><ele>1248.0</ele><time>2026-04-25T11:25:34.214Z</time></trkpt><trkpt lat="45.3841853" lon="7.5643226"><ele>1248.0</ele><time>2026-04-25T11:25:35.225Z</time></trkpt><trkpt lat="45.3842628" lon="7.5642757"><ele>1248.0</ele><time>2026-04-25T11:25:36.218Z</time></trkpt><trkpt lat="45.3843478" lon="7.5642332"><ele>1248.0</ele><time>2026-04-25T11:25:37.213Z</time></trkpt><trkpt lat="45.3844395" lon="7.5641903"><ele>1248.0</ele><time>2026-04-25T11:25:38.214Z</time></trkpt><trkpt lat="45.3845286" lon="7.5641595"><ele>1248.0</ele><time>2026-04-25T11:25:39.217Z</time></trkpt><trkpt lat="45.3846086" lon="7.5641059"><ele>1248.0</ele><time>2026-04-25T11:25:40.215Z</time></trkpt><trkpt lat="45.3846687" lon="7.5640623"><ele>1248.0</ele><time>2026-04-25T11:25:41.215Z</time></trkpt><trkpt lat="45.3847599" lon="7.5639693"><ele>1248.0</ele><time>2026-04-25T11:25:43.222Z</time></trkpt><trkpt lat="45.3848096" lon="7.5638848"><ele>1248.0</ele><time>2026-04-25T11:25:44.222Z</time></trkpt><trkpt lat="45.384878" lon="7.5638207"><ele>1248.0</ele><time>2026-04-25T11:25:45.225Z</time></trkpt><trkpt lat="45.3849439" lon="7.5637561"><ele>1248.0</ele><time>2026-04-25T11:25:47.217Z</time></trkpt><trkpt lat="45.3849048" lon="7.5636689"><ele>1248.0</ele><time>2026-04-25T11:25:49.222Z</time></trkpt><trkpt lat="45.3848089" lon="7.5636892"><ele>1248.0</ele><time>2026-04-25T11:25:51.216Z</time></trkpt><trkpt lat="45.3847556" lon="7.5637558"><ele>1248.0</ele><time>2026-04-25T11:25:52.22Z</time></trkpt><trkpt lat="45.3846946" lon="7.5638027"><ele>1248.0</ele><time>2026-04-25T11:25:53.223Z</time></trkpt><trkpt lat="45.3846247" lon="7.5638339"><ele>1248.0</ele><time>2026-04-25T11:25:54.231Z</time></trkpt><trkpt lat="45.3845395" lon="7.5638367"><ele>1248.0</ele><time>2026-04-25T11:25:55.218Z</time></trkpt><trkpt lat="45.3844597" lon="7.5638441"><ele>1248.0</ele><time>2026-04-25T11:25:56.221Z</time></trkpt><trkpt lat="45.3843608" lon="7.5638785"><ele>1248.0</ele><time>2026-04-25T11:25:58.208Z</time></trkpt><trkpt lat="45.3844193" lon="7.5638391"><ele>1248.0</ele><time>2026-04-25T11:26:05.219Z</time></trkpt><trkpt lat="45.3843626" lon="7.5637572"><ele>1248.0</ele><time>2026-04-25T11:26:08.211Z</time></trkpt><trkpt lat="45.3842155" lon="7.5636981"><ele>1248.0</ele><time>2026-04-25T11:26:09.211Z</time></trkpt><trkpt lat="45.3840913" lon="7.5636043"><ele>1256.0</ele><time>2026-04-25T11:26:10.218Z</time></trkpt><trkpt lat="45.3839939" lon="7.5635421"><ele>1264.0</ele><time>2026-04-25T11:26:11.222Z</time></trkpt><trkpt lat="45.38385" lon="7.5635196"><ele>1272.0</ele><time>2026-04-25T11:26:12.22Z</time></trkpt><trkpt lat="45.3837149" lon="7.5635364"><ele>1280.0</ele><time>2026-04-25T11:26:13.221Z</time></trkpt><trkpt lat="45.3836311" lon="7.5636029"><ele>1281.1666666666667</ele><time>2026-04-25T11:26:14.218Z</time></trkpt><trkpt lat="45.3835284" lon="7.5636241"><ele>1282.3333333333335</ele><time>2026-04-25T11:26:15.219Z</time></trkpt><trkpt lat="45.3834398" lon="7.563625"><ele>1283.5</ele><time>2026-04-25T11:26:16.223Z</time></trkpt><trkpt lat="45.3833778" lon="7.5636492"><ele>1284.6666666666667</ele><time>2026-04-25T11:26:17.225Z</time></trkpt><trkpt lat="45.3832927" lon="7.5636471"><ele>1285.8333333333333</ele><time>2026-04-25T11:26:18.218Z</time></trkpt><trkpt lat="45.3832211" lon="7.5636365"><ele>1287.0</ele><time>2026-04-25T11:26:19.227Z</time></trkpt><trkpt lat="45.3832883" lon="7.5636105"><ele>1287.0</ele><time>2026-04-25T11:26:26.228Z</time></trkpt><trkpt lat="45.3833587" lon="7.5635831"><ele>1287.0</ele><time>2026-04-25T11:26:27.227Z</time></trkpt><trkpt lat="45.3834401" lon="7.5635568"><ele>1287.0</ele><time>2026-04-25T11:26:28.229Z</time></trkpt><trkpt lat="45.383516" lon="7.5634931"><ele>1287.0</ele><time>2026-04-25T11:26:29.228Z</time></trkpt><trkpt lat="45.3835982" lon="7.5634186"><ele>1287.0</ele><time>2026-04-25T11:26:30.226Z</time></trkpt><trkpt lat="45.3836857" lon="7.5633254"><ele>1287.0</ele><time>2026-04-25T11:26:31.229Z</time></trkpt><trkpt lat="45.3837725" lon="7.5632437"><ele>1287.0</ele><time>2026-04-25T11:26:32.221Z</time></trkpt><trkpt lat="45.3838763" lon="7.5631563"><ele>1287.0</ele><time>2026-04-25T11:26:33.222Z</time></trkpt><trkpt lat="45.3839619" lon="7.5630533"><ele>1287.0</ele><time>2026-04-25T11:26:34.219Z</time></trkpt><trkpt lat="45.3840367" lon="7.5630033"><ele>1287.0</ele><time>2026-04-25T11:26:35.229Z</time></trkpt><trkpt lat="45.3841195" lon="7.5629786"><ele>1285.6</ele><time>2026-04-25T11:26:36.227Z</time></trkpt><trkpt lat="45.3842054" lon="7.5629909"><ele>1284.1999999999998</ele><time>2026-04-25T11:26:37.223Z</time></trkpt><trkpt lat="45.3843022" lon="7.5630104"><ele>1282.8</ele><time>2026-04-25T11:26:38.219Z</time></trkpt><trkpt lat="45.3843978" lon="7.5630043"><ele>1281.4</ele><time>2026-04-25T11:26:39.22Z</time></trkpt><trkpt lat="45.3844914" lon="7.5629758"><ele>1280.0</ele><time>2026-04-25T11:26:40.223Z</time></trkpt><trkpt lat="45.3845773" lon="7.5629441"><ele>1280.0</ele><time>2026-04-25T11:26:41.222Z</time></trkpt><trkpt lat="45.3846667" lon="7.5629061"><ele>1280.0</ele><time>2026-04-25T11:26:42.22Z</time></trkpt><trkpt lat="45.3847492" lon="7.5628592"><ele>1280.0</ele><time>2026-04-25T11:26:43.221Z</time></trkpt><trkpt lat="45.3848127" lon="7.5628089"><ele>1280.0</ele><time>2026-04-25T11:26:44.219Z</time></trkpt><trkpt lat="45.3848782" lon="7.562775"><ele>1280.0</ele><time>2026-04-25T11:26:45.224Z</time></trkpt><trkpt lat="45.3849833" lon="7.5627466"><ele>1280.0</ele><time>2026-04-25T11:26:47.226Z</time></trkpt><trkpt lat="45.3850097" lon="7.5626439"><ele>1285.1666666666667</ele><time>2026-04-25T11:26:50.223Z</time></trkpt><trkpt lat="45.3849361" lon="7.5626037"><ele>1290.3333333333335</ele><time>2026-04-25T11:26:52.216Z</time></trkpt><trkpt lat="45.3848665" lon="7.5626081"><ele>1295.5</ele><time>2026-04-25T11:26:53.224Z</time></trkpt><trkpt lat="45.3847809" lon="7.5625917"><ele>1300.6666666666667</ele><time>2026-04-25T11:26:54.224Z</time></trkpt><trkpt lat="45.3846879" lon="7.5625825"><ele>1305.8333333333333</ele><time>2026-04-25T11:26:55.223Z</time></trkpt><trkpt lat="45.3845905" lon="7.5625376"><ele>1311.0</ele><time>2026-04-25T11:26:56.227Z</time></trkpt><trkpt lat="45.3844805" lon="7.5624606"><ele>1311.0</ele><time>2026-04-25T11:26:57.229Z</time></trkpt><trkpt lat="45.3843718" lon="7.5623728"><ele>1311.0</ele><time>2026-04-25T11:26:58.228Z</time></trkpt><trkpt lat="45.3842669" lon="7.5622979"><ele>1311.0</ele><time>2026-04-25T11:26:59.232Z</time></trkpt><trkpt lat="45.3841727" lon="7.5622419"><ele>1311.0</ele><time>2026-04-25T11:27:00.229Z</time></trkpt><trkpt lat="45.3840792" lon="7.5621944"><ele>1311.0</ele><time>2026-04-25T11:27:01.232Z</time></trkpt><trkpt lat="45.3839941" lon="7.5621388"><ele>1311.0</ele><time>2026-04-25T11:27:02.24Z</time></trkpt><trkpt lat="45.3839079" lon="7.5620929"><ele>1311.0</ele><time>2026-04-25T11:27:03.233Z</time></trkpt><trkpt lat="45.3838285" lon="7.5620478"><ele>1311.0</ele><time>2026-04-25T11:27:04.24Z</time></trkpt><trkpt lat="45.3837658" lon="7.562005"><ele>1311.0</ele><time>2026-04-25T11:27:05.229Z</time></trkpt><trkpt lat="45.3836821" lon="7.5619116"><ele>1311.0</ele><time>2026-04-25T11:27:07.233Z</time></trkpt><trkpt lat="45.3836578" lon="7.5617839"><ele>1311.0</ele><time>2026-04-25T11:27:09.229Z</time></trkpt><trkpt lat="45.3837007" lon="7.5616474"><ele>1312.0</ele><time>2026-04-25T11:27:11.238Z</time></trkpt><trkpt lat="45.3837901" lon="7.5615538"><ele>1313.0</ele><time>2026-04-25T11:27:13.244Z</time></trkpt><trkpt lat="45.3838513" lon="7.5615256"><ele>1314.0</ele><time>2026-04-25T11:27:14.239Z</time></trkpt><trkpt lat="45.3839223" lon="7.5614987"><ele>1315.0</ele><time>2026-04-25T11:27:15.239Z</time></trkpt><trkpt lat="45.3839881" lon="7.5614506"><ele>1316.0</ele><time>2026-04-25T11:27:16.244Z</time></trkpt><trkpt lat="45.3840548" lon="7.5614028"><ele>1317.0</ele><time>2026-04-25T11:27:17.241Z</time></trkpt><trkpt lat="45.3841144" lon="7.5613515"><ele>1319.3333333333333</ele><time>2026-04-25T11:27:18.245Z</time></trkpt><trkpt lat="45.3841717" lon="7.5612989"><ele>1321.6666666666667</ele><time>2026-04-25T11:27:19.244Z</time></trkpt><trkpt lat="45.3842323" lon="7.5612319"><ele>1324.0</ele><time>2026-04-25T11:27:20.241Z</time></trkpt><trkpt lat="45.3842939" lon="7.5611659"><ele>1326.3333333333335</ele><time>2026-04-25T11:27:21.241Z</time></trkpt><trkpt lat="45.3843456" lon="7.5610937"><ele>1328.6666666666667</ele><time>2026-04-25T11:27:22.238Z</time></trkpt><trkpt lat="45.384397" lon="7.5609998"><ele>1331.0</ele><time>2026-04-25T11:27:23.235Z</time></trkpt><trkpt lat="45.3844367" lon="7.5608911"><ele>1331.1666666666667</ele><time>2026-04-25T11:27:24.249Z</time></trkpt><trkpt lat="45.3844796" lon="7.5607869"><ele>1331.3333333333335</ele><time>2026-04-25T11:27:25.241Z</time></trkpt><trkpt lat="45.3845245" lon="7.5606958"><ele>1331.5</ele><time>2026-04-25T11:27:26.241Z</time></trkpt><trkpt lat="45.3845725" lon="7.5606118"><ele>1331.6666666666667</ele><time>2026-04-25T11:27:27.241Z</time></trkpt><trkpt lat="45.3846185" lon="7.5604797"><ele>1331.8333333333333</ele><time>2026-04-25T11:27:29.247Z</time></trkpt><trkpt lat="45.3846338" lon="7.5603885"><ele>1332.0</ele><time>2026-04-25T11:27:43.242Z</time></trkpt><trkpt lat="45.3846514" lon="7.5602146"><ele>1331.6666666666667</ele><time>2026-04-25T11:27:45.242Z</time></trkpt><trkpt lat="45.3846685" lon="7.560097"><ele>1331.3333333333333</ele><time>2026-04-25T11:27:46.246Z</time></trkpt><trkpt lat="45.3846865" lon="7.5599968"><ele>1331.0</ele><time>2026-04-25T11:27:47.237Z</time></trkpt><trkpt lat="45.3847511" lon="7.559891"><ele>1330.6666666666665</ele><time>2026-04-25T11:27:49.242Z</time></trkpt><trkpt lat="45.3848016" lon="7.5598214"><ele>1330.3333333333333</ele><time>2026-04-25T11:27:50.246Z</time></trkpt><trkpt lat="45.3848482" lon="7.5597288"><ele>1330.0</ele><time>2026-04-25T11:27:51.245Z</time></trkpt><trkpt lat="45.3848854" lon="7.559629"><ele>1337.6666666666665</ele><time>2026-04-25T11:27:52.247Z</time></trkpt><trkpt lat="45.3849145" lon="7.5595101"><ele>1345.3333333333333</ele><time>2026-04-25T11:27:53.245Z</time></trkpt><trkpt lat="45.3849429" lon="7.5593991"><ele>1353.0</ele><time>2026-04-25T11:27:54.254Z</time></trkpt><trkpt lat="45.3849477" lon="7.5592836"><ele>1360.6666666666667</ele><time>2026-04-25T11:27:55.243Z</time></trkpt><trkpt lat="45.3849426" lon="7.5591805"><ele>1368.3333333333335</ele><time>2026-04-25T11:27:56.242Z</time></trkpt><trkpt lat="45.3849124" lon="7.5590766"><ele>1376.0</ele><time>2026-04-25T11:27:57.243Z</time></trkpt><trkpt lat="45.3848687" lon="7.5589723"><ele>1376.0</ele><time>2026-04-25T11:27:58.247Z</time></trkpt><trkpt lat="45.3848256" lon="7.5588689"><ele>1376.0</ele><time>2026-04-25T11:27:59.249Z</time></trkpt><trkpt lat="45.3847858" lon="7.55878"><ele>1376.0</ele><time>2026-04-25T11:28:00.247Z</time></trkpt><trkpt lat="45.3847647" lon="7.5586905"><ele>1376.0</ele><time>2026-04-25T11:28:01.238Z</time></trkpt><trkpt lat="45.3847393" lon="7.5585993"><ele>1376.0</ele><time>2026-04-25T11:28:03.243Z</time></trkpt><trkpt lat="45.3848126" lon="7.5585987"><ele>1376.0</ele><time>2026-04-25T11:28:06.243Z</time></trkpt><trkpt lat="45.3848586" lon="7.5587549"><ele>1376.0</ele><time>2026-04-25T11:28:08.23Z</time></trkpt><trkpt lat="45.3848885" lon="7.5588553"><ele>1376.0</ele><time>2026-04-25T11:28:09.245Z</time></trkpt><trkpt lat="45.3849298" lon="7.5589515"><ele>1376.0</ele><time>2026-04-25T11:28:10.248Z</time></trkpt><trkpt lat="45.3849918" lon="7.5590323"><ele>1376.0</ele><time>2026-04-25T11:28:11.246Z</time></trkpt><trkpt lat="45.3850645" lon="7.5591197"><ele>1376.0</ele><time>2026-04-25T11:28:12.243Z</time></trkpt><trkpt lat="45.385149" lon="7.5592011"><ele>1376.0</ele><time>2026-04-25T11:28:13.253Z</time></trkpt><trkpt lat="45.3852384" lon="7.5592683"><ele>1376.0</ele><time>2026-04-25T11:28:14.238Z</time></trkpt><trkpt lat="45.3853349" lon="7.5593386"><ele>1376.0</ele><time>2026-04-25T11:28:15.248Z</time></trkpt><trkpt lat="45.3854217" lon="7.5594179"><ele>1376.0</ele><time>2026-04-25T11:28:16.24Z</time></trkpt><trkpt lat="45.3854865" lon="7.5595091"><ele>1376.0</ele><time>2026-04-25T11:28:17.241Z</time></trkpt><trkpt lat="45.385527" lon="7.5595966"><ele>1376.0</ele><time>2026-04-25T11:28:18.243Z</time></trkpt><trkpt lat="45.3855545" lon="7.5596862"><ele>1376.0</ele><time>2026-04-25T11:28:19.244Z</time></trkpt><trkpt lat="45.3855645" lon="7.5597849"><ele>1374.8333333333335</ele><time>2026-04-25T11:28:20.243Z</time></trkpt><trkpt lat="45.3855578" lon="7.5598912"><ele>1373.6666666666667</ele><time>2026-04-25T11:28:21.247Z</time></trkpt><trkpt lat="45.3855394" lon="7.5600065"><ele>1372.5</ele><time>2026-04-25T11:28:22.238Z</time></trkpt><trkpt lat="45.3854867" lon="7.5601694"><ele>1371.3333333333333</ele><time>2026-04-25T11:28:24.256Z</time></trkpt><trkpt lat="45.3854629" lon="7.5602861"><ele>1370.1666666666665</ele><time>2026-04-25T11:28:26.247Z</time></trkpt><trkpt lat="45.3855382" lon="7.5603104"><ele>1369.0</ele><time>2026-04-25T11:28:29.259Z</time></trkpt><trkpt lat="45.3856267" lon="7.5601882"><ele>1372.1666666666665</ele><time>2026-04-25T11:28:31.243Z</time></trkpt><trkpt lat="45.385687" lon="7.5601255"><ele>1375.3333333333333</ele><time>2026-04-25T11:28:32.244Z</time></trkpt><trkpt lat="45.3857509" lon="7.5600332"><ele>1378.5</ele><time>2026-04-25T11:28:33.252Z</time></trkpt><trkpt lat="45.3858181" lon="7.5599267"><ele>1381.6666666666667</ele><time>2026-04-25T11:28:34.253Z</time></trkpt><trkpt lat="45.3858675" lon="7.5598284"><ele>1384.8333333333335</ele><time>2026-04-25T11:28:35.247Z</time></trkpt><trkpt lat="45.3859039" lon="7.5597407"><ele>1388.0</ele><time>2026-04-25T11:28:36.25Z</time></trkpt><trkpt lat="45.3859248" lon="7.5595546"><ele>1391.3333333333335</ele><time>2026-04-25T11:28:38.249Z</time></trkpt><trkpt lat="45.3859201" lon="7.559432"><ele>1394.6666666666667</ele><time>2026-04-25T11:28:39.243Z</time></trkpt><trkpt lat="45.3859082" lon="7.5592999"><ele>1398.0</ele><time>2026-04-25T11:28:40.247Z</time></trkpt><trkpt lat="45.3858814" lon="7.5591636"><ele>1401.3333333333333</ele><time>2026-04-25T11:28:41.242Z</time></trkpt><trkpt lat="45.3858492" lon="7.5590412"><ele>1404.6666666666665</ele><time>2026-04-25T11:28:42.245Z</time></trkpt><trkpt lat="45.3858047" lon="7.5589523"><ele>1408.0</ele><time>2026-04-25T11:28:43.235Z</time></trkpt><trkpt lat="45.3857632" lon="7.5588677"><ele>1408.0</ele><time>2026-04-25T11:28:44.249Z</time></trkpt><trkpt lat="45.3857195" lon="7.558791"><ele>1408.0</ele><time>2026-04-25T11:28:45.251Z</time></trkpt><trkpt lat="45.3856713" lon="7.558703"><ele>1408.0</ele><time>2026-04-25T11:28:46.253Z</time></trkpt><trkpt lat="45.385626" lon="7.5586036"><ele>1408.0</ele><time>2026-04-25T11:28:47.235Z</time></trkpt><trkpt lat="45.3855785" lon="7.558524"><ele>1408.0</ele><time>2026-04-25T11:28:48.238Z</time></trkpt><trkpt lat="45.3854857" lon="7.5584262"><ele>1408.0</ele><time>2026-04-25T11:28:50.236Z</time></trkpt><trkpt lat="45.3854423" lon="7.5583174"><ele>1410.1666666666665</ele><time>2026-04-25T11:28:52.242Z</time></trkpt><trkpt lat="45.3854954" lon="7.5582017"><ele>1412.3333333333333</ele><time>2026-04-25T11:28:54.249Z</time></trkpt><trkpt lat="45.3855266" lon="7.5581115"><ele>1414.5</ele><time>2026-04-25T11:28:55.239Z</time></trkpt><trkpt lat="45.3855714" lon="7.5579862"><ele>1416.6666666666667</ele><time>2026-04-25T11:28:57.237Z</time></trkpt><trkpt lat="45.3856628" lon="7.5578978"><ele>1418.8333333333335</ele><time>2026-04-25T11:28:59.244Z</time></trkpt><trkpt lat="45.3857301" lon="7.557862"><ele>1421.0</ele><time>2026-04-25T11:29:00.25Z</time></trkpt><trkpt lat="45.385799" lon="7.5578259"><ele>1421.0</ele><time>2026-04-25T11:29:01.241Z</time></trkpt><trkpt lat="45.3858644" lon="7.5577875"><ele>1421.0</ele><time>2026-04-25T11:29:02.241Z</time></trkpt><trkpt lat="45.3859299" lon="7.5577385"><ele>1421.0</ele><time>2026-04-25T11:29:03.24Z</time></trkpt><trkpt lat="45.3860232" lon="7.5576365"><ele>1421.0</ele><time>2026-04-25T11:29:05.237Z</time></trkpt><trkpt lat="45.386121" lon="7.557515"><ele>1421.0</ele><time>2026-04-25T11:29:07.236Z</time></trkpt><trkpt lat="45.3861726" lon="7.5574374"><ele>1421.0</ele><time>2026-04-25T11:29:08.242Z</time></trkpt><trkpt lat="45.3862294" lon="7.5573726"><ele>1421.0</ele><time>2026-04-25T11:29:09.235Z</time></trkpt><trkpt lat="45.3862828" lon="7.5573108"><ele>1421.0</ele><time>2026-04-25T11:29:10.246Z</time></trkpt><trkpt lat="45.3863301" lon="7.5572287"><ele>1421.0</ele><time>2026-04-25T11:29:11.243Z</time></trkpt><trkpt lat="45.3863683" lon="7.5571405"><ele>1421.0</ele><time>2026-04-25T11:29:12.243Z</time></trkpt><trkpt lat="45.3864012" lon="7.5570527"><ele>1421.0</ele><time>2026-04-25T11:29:13.24Z</time></trkpt><trkpt lat="45.3864372" lon="7.5569772"><ele>1421.0</ele><time>2026-04-25T11:29:14.241Z</time></trkpt><trkpt lat="45.3865" lon="7.5568281"><ele>1427.0</ele><time>2026-04-25T11:29:16.24Z</time></trkpt><trkpt lat="45.3865193" lon="7.5567367"><ele>1433.0</ele><time>2026-04-25T11:29:17.241Z</time></trkpt><trkpt lat="45.3865334" lon="7.5566447"><ele>1439.0</ele><time>2026-04-25T11:29:18.242Z</time></trkpt><trkpt lat="45.3865489" lon="7.5565451"><ele>1445.0</ele><time>2026-04-25T11:29:19.241Z</time></trkpt><trkpt lat="45.3865514" lon="7.5564409"><ele>1451.0</ele><time>2026-04-25T11:29:20.24Z</time></trkpt><trkpt lat="45.3865334" lon="7.5563303"><ele>1457.0</ele><time>2026-04-25T11:29:21.242Z</time></trkpt><trkpt lat="45.3865104" lon="7.5562292"><ele>1463.0</ele><time>2026-04-25T11:29:22.253Z</time></trkpt><trkpt lat="45.3864757" lon="7.5561379"><ele>1465.4</ele><time>2026-04-25T11:29:23.239Z</time></trkpt><trkpt lat="45.386424" lon="7.556034"><ele>1467.8000000000002</ele><time>2026-04-25T11:29:24.255Z</time></trkpt><trkpt lat="45.3863657" lon="7.5559248"><ele>1470.2</ele><time>2026-04-25T11:29:25.238Z</time></trkpt><trkpt lat="45.3863147" lon="7.5558337"><ele>1472.6</ele><time>2026-04-25T11:29:26.241Z</time></trkpt><trkpt lat="45.3862392" lon="7.5556935"><ele>1475.0</ele><time>2026-04-25T11:29:28.238Z</time></trkpt><trkpt lat="45.3862059" lon="7.5556064"><ele>1471.3333333333335</ele><time>2026-04-25T11:29:29.243Z</time></trkpt><trkpt lat="45.3861513" lon="7.5555154"><ele>1467.6666666666667</ele><time>2026-04-25T11:29:30.242Z</time></trkpt><trkpt lat="45.3860996" lon="7.5554221"><ele>1464.0</ele><time>2026-04-25T11:29:31.245Z</time></trkpt><trkpt lat="45.3860459" lon="7.5553316"><ele>1460.3333333333333</ele><time>2026-04-25T11:29:32.245Z</time></trkpt><trkpt lat="45.3859958" lon="7.55525"><ele>1456.6666666666665</ele><time>2026-04-25T11:29:33.246Z</time></trkpt><trkpt lat="45.3859491" lon="7.5551738"><ele>1453.0</ele><time>2026-04-25T11:29:34.249Z</time></trkpt><trkpt lat="45.3859099" lon="7.5551007"><ele>1453.0</ele><time>2026-04-25T11:29:35.247Z</time></trkpt><trkpt lat="45.3858671" lon="7.5549575"><ele>1453.0</ele><time>2026-04-25T11:29:37.238Z</time></trkpt><trkpt lat="45.3858986" lon="7.5548264"><ele>1453.0</ele><time>2026-04-25T11:29:39.239Z</time></trkpt><trkpt lat="45.3859439" lon="7.5547499"><ele>1453.0</ele><time>2026-04-25T11:29:40.244Z</time></trkpt><trkpt lat="45.3859766" lon="7.554666"><ele>1453.0</ele><time>2026-04-25T11:29:41.246Z</time></trkpt><trkpt lat="45.3860038" lon="7.5545818"><ele>1453.0</ele><time>2026-04-25T11:29:42.243Z</time></trkpt><trkpt lat="45.386021" lon="7.5544244"><ele>1456.0</ele><time>2026-04-25T11:29:44.241Z</time></trkpt><trkpt lat="45.3860127" lon="7.5542527"><ele>1459.0</ele><time>2026-04-25T11:29:46.241Z</time></trkpt><trkpt lat="45.3860024" lon="7.5541593"><ele>1462.0</ele><time>2026-04-25T11:29:47.24Z</time></trkpt><trkpt lat="45.3859848" lon="7.5540703"><ele>1465.0</ele><time>2026-04-25T11:29:48.234Z</time></trkpt><trkpt lat="45.3859563" lon="7.5539755"><ele>1468.0</ele><time>2026-04-25T11:29:49.239Z</time></trkpt><trkpt lat="45.3859015" lon="7.553884"><ele>1471.0</ele><time>2026-04-25T11:29:50.229Z</time></trkpt><trkpt lat="45.3858377" lon="7.5537961"><ele>1471.0</ele><time>2026-04-25T11:29:51.232Z</time></trkpt><trkpt lat="45.3857805" lon="7.5537288"><ele>1471.0</ele><time>2026-04-25T11:29:52.231Z</time></trkpt><trkpt lat="45.3857218" lon="7.5536644"><ele>1471.0</ele><time>2026-04-25T11:29:53.236Z</time></trkpt><trkpt lat="45.3856799" lon="7.5535743"><ele>1471.0</ele><time>2026-04-25T11:29:54.238Z</time></trkpt><trkpt lat="45.3856322" lon="7.5535103"><ele>1471.0</ele><time>2026-04-25T11:29:55.233Z</time></trkpt><trkpt lat="45.3855742" lon="7.5534714"><ele>1471.0</ele><time>2026-04-25T11:29:56.239Z</time></trkpt><trkpt lat="45.3855036" lon="7.5534385"><ele>1471.0</ele><time>2026-04-25T11:29:57.244Z</time></trkpt><trkpt lat="45.3854367" lon="7.5533941"><ele>1469.4</ele><time>2026-04-25T11:29:58.243Z</time></trkpt><trkpt lat="45.3853793" lon="7.5533468"><ele>1467.8</ele><time>2026-04-25T11:29:59.242Z</time></trkpt><trkpt lat="45.3853242" lon="7.553299"><ele>1466.2</ele><time>2026-04-25T11:30:00.239Z</time></trkpt><trkpt lat="45.3852315" lon="7.5531865"><ele>1464.6000000000001</ele><time>2026-04-25T11:30:02.239Z</time></trkpt><trkpt lat="45.385161" lon="7.5530729"><ele>1463.0</ele><time>2026-04-25T11:30:04.243Z</time></trkpt><trkpt lat="45.3851" lon="7.5529345"><ele>1469.4</ele><time>2026-04-25T11:30:06.244Z</time></trkpt><trkpt lat="45.3850777" lon="7.5528398"><ele>1475.8000000000002</ele><time>2026-04-25T11:30:07.239Z</time></trkpt><trkpt lat="45.3850229" lon="7.5527107"><ele>1482.2</ele><time>2026-04-25T11:30:09.234Z</time></trkpt><trkpt lat="45.3849616" lon="7.5526209"><ele>1488.6</ele><time>2026-04-25T11:30:12.24Z</time></trkpt><trkpt lat="45.3850584" lon="7.552622"><ele>1495.0</ele><time>2026-04-25T11:30:15.233Z</time></trkpt><trkpt lat="45.3851071" lon="7.5527658"><ele>1495.0</ele><time>2026-04-25T11:30:17.233Z</time></trkpt><trkpt lat="45.3851421" lon="7.5528605"><ele>1495.0</ele><time>2026-04-25T11:30:18.245Z</time></trkpt><trkpt lat="45.3851968" lon="7.5529289"><ele>1495.0</ele><time>2026-04-25T11:30:19.242Z</time></trkpt><trkpt lat="45.3852542" lon="7.5529708"><ele>1495.0</ele><time>2026-04-25T11:30:20.239Z</time></trkpt><trkpt lat="45.3853729" lon="7.5530205"><ele>1495.0</ele><time>2026-04-25T11:30:22.241Z</time></trkpt><trkpt lat="45.385432" lon="7.55306"><ele>1495.0</ele><time>2026-04-25T11:30:23.233Z</time></trkpt><trkpt lat="45.3854932" lon="7.5530933"><ele>1495.3333333333333</ele><time>2026-04-25T11:30:24.251Z</time></trkpt><trkpt lat="45.3856109" lon="7.5531567"><ele>1495.6666666666665</ele><time>2026-04-25T11:30:26.241Z</time></trkpt><trkpt lat="45.3856772" lon="7.5531811"><ele>1496.0</ele><time>2026-04-25T11:30:27.242Z</time></trkpt><trkpt lat="45.3857513" lon="7.5532042"><ele>1496.3333333333333</ele><time>2026-04-25T11:30:28.239Z</time></trkpt><trkpt lat="45.385825" lon="7.5532328"><ele>1496.6666666666667</ele><time>2026-04-25T11:30:29.235Z</time></trkpt><trkpt lat="45.3858854" lon="7.5532773"><ele>1497.0</ele><time>2026-04-25T11:30:30.244Z</time></trkpt><trkpt lat="45.3859431" lon="7.5533312"><ele>1497.0</ele><time>2026-04-25T11:30:31.239Z</time></trkpt><trkpt lat="45.3860036" lon="7.5533914"><ele>1497.0</ele><time>2026-04-25T11:30:32.249Z</time></trkpt><trkpt lat="45.3860682" lon="7.5534427"><ele>1497.0</ele><time>2026-04-25T11:30:33.238Z</time></trkpt><trkpt lat="45.3861291" lon="7.5534862"><ele>1497.0</ele><time>2026-04-25T11:30:34.237Z</time></trkpt><trkpt lat="45.3862457" lon="7.5535327"><ele>1497.0</ele><time>2026-04-25T11:30:36.24Z</time></trkpt><trkpt lat="45.3863269" lon="7.553628"><ele>1497.0</ele><time>2026-04-25T11:30:38.23Z</time></trkpt><trkpt lat="45.3864104" lon="7.5537066"><ele>1501.1999999999998</ele><time>2026-04-25T11:30:40.225Z</time></trkpt><trkpt lat="45.3864295" lon="7.5538519"><ele>1505.4</ele><time>2026-04-25T11:30:42.23Z</time></trkpt><trkpt lat="45.3864366" lon="7.5539618"><ele>1509.6</ele><time>2026-04-25T11:30:43.237Z</time></trkpt><trkpt lat="45.3864601" lon="7.5540718"><ele>1513.8000000000002</ele><time>2026-04-25T11:30:44.242Z</time></trkpt><trkpt lat="45.3864807" lon="7.5541672"><ele>1518.0</ele><time>2026-04-25T11:30:45.234Z</time></trkpt><trkpt lat="45.3865141" lon="7.5543393"><ele>1518.0</ele><time>2026-04-25T11:30:47.245Z</time></trkpt><trkpt lat="45.3865512" lon="7.554429"><ele>1518.0</ele><time>2026-04-25T11:30:48.245Z</time></trkpt><trkpt lat="45.3865953" lon="7.5545203"><ele>1518.0</ele><time>2026-04-25T11:30:49.241Z</time></trkpt><trkpt lat="45.3866299" lon="7.5546168"><ele>1518.0</ele><time>2026-04-25T11:30:50.244Z</time></trkpt><trkpt lat="45.3866614" lon="7.5546956"><ele>1518.0</ele><time>2026-04-25T11:30:51.24Z</time></trkpt><trkpt lat="45.3867683" lon="7.5547985"><ele>1518.0</ele><time>2026-04-25T11:30:53.226Z</time></trkpt><trkpt lat="45.3868448" lon="7.5548554"><ele>1515.0</ele><time>2026-04-25T11:30:54.233Z</time></trkpt><trkpt lat="45.3869194" lon="7.5549103"><ele>1512.0</ele><time>2026-04-25T11:30:55.236Z</time></trkpt><trkpt lat="45.3869844" lon="7.5549618"><ele>1509.0</ele><time>2026-04-25T11:30:56.229Z</time></trkpt><trkpt lat="45.3870377" lon="7.5550232"><ele>1506.0</ele><time>2026-04-25T11:30:57.225Z</time></trkpt><trkpt lat="45.3870812" lon="7.5550899"><ele>1503.0</ele><time>2026-04-25T11:30:58.231Z</time></trkpt><trkpt lat="45.3871667" lon="7.5551938"><ele>1500.0</ele><time>2026-04-25T11:31:00.241Z</time></trkpt><trkpt lat="45.3872072" lon="7.555314"><ele>1503.6666666666667</ele><time>2026-04-25T11:31:02.235Z</time></trkpt><trkpt lat="45.3872454" lon="7.5554201"><ele>1507.3333333333333</ele><time>2026-04-25T11:31:04.239Z</time></trkpt><trkpt lat="45.3873506" lon="7.555525"><ele>1511.0</ele><time>2026-04-25T11:31:06.245Z</time></trkpt><trkpt lat="45.3874017" lon="7.5555902"><ele>1514.6666666666665</ele><time>2026-04-25T11:31:07.234Z</time></trkpt><trkpt lat="45.3874456" lon="7.5556737"><ele>1518.3333333333333</ele><time>2026-04-25T11:31:08.237Z</time></trkpt><trkpt lat="45.3875036" lon="7.5557703"><ele>1522.0</ele><time>2026-04-25T11:31:09.236Z</time></trkpt><trkpt lat="45.3875438" lon="7.5559032"><ele>1522.0</ele><time>2026-04-25T11:31:10.228Z</time></trkpt><trkpt lat="45.3875632" lon="7.5560239"><ele>1522.0</ele><time>2026-04-25T11:31:11.232Z</time></trkpt><trkpt lat="45.3875799" lon="7.5561427"><ele>1522.0</ele><time>2026-04-25T11:31:12.234Z</time></trkpt><trkpt lat="45.3876125" lon="7.5562576"><ele>1522.0</ele><time>2026-04-25T11:31:13.236Z</time></trkpt><trkpt lat="45.3876671" lon="7.5563647"><ele>1522.0</ele><time>2026-04-25T11:31:14.233Z</time></trkpt><trkpt lat="45.3877355" lon="7.5564656"><ele>1525.0</ele><time>2026-04-25T11:31:15.242Z</time></trkpt><trkpt lat="45.3878192" lon="7.556561"><ele>1528.0</ele><time>2026-04-25T11:31:16.233Z</time></trkpt><trkpt lat="45.3879176" lon="7.5566698"><ele>1531.0</ele><time>2026-04-25T11:31:17.243Z</time></trkpt><trkpt lat="45.3879985" lon="7.5567817"><ele>1534.0</ele><time>2026-04-25T11:31:18.237Z</time></trkpt><trkpt lat="45.388072" lon="7.5568882"><ele>1537.0</ele><time>2026-04-25T11:31:19.243Z</time></trkpt><trkpt lat="45.3881379" lon="7.5569845"><ele>1528.6666666666667</ele><time>2026-04-25T11:31:20.241Z</time></trkpt><trkpt lat="45.3881897" lon="7.5570785"><ele>1520.3333333333335</ele><time>2026-04-25T11:31:21.233Z</time></trkpt><trkpt lat="45.3882253" lon="7.5571552"><ele>1512.0</ele><time>2026-04-25T11:31:22.245Z</time></trkpt><trkpt lat="45.3863269" lon="7.553628"><ele>1513.0</ele><time>2026-04-25T11:30:38.23Z</time></trkpt><trkpt lat="45.3864104" lon="7.5537066"><ele>1514.0</ele><time>2026-04-25T11:30:40.225Z</time></trkpt><trkpt lat="45.3864295" lon="7.5538519"><ele>1515.0</ele><time>2026-04-25T11:30:42.23Z</time></trkpt><trkpt lat="45.3864366" lon="7.5539618"><ele>1516.0</ele><time>2026-04-25T11:30:43.237Z</time></trkpt><trkpt lat="45.3864601" lon="7.5540718"><ele>1517.0</ele><time>2026-04-25T11:30:44.242Z</time></trkpt><trkpt lat="45.3864807" lon="7.5541672"><ele>1518.0</ele><time>2026-04-25T11:30:45.234Z</time></trkpt><trkpt lat="45.3865141" lon="7.5543393"><ele>1518.0</ele><time>2026-04-25T11:30:47.245Z</time></trkpt><trkpt lat="45.3865512" lon="7.554429"><ele>1518.0</ele><time>2026-04-25T11:30:48.245Z</time></trkpt><trkpt lat="45.3865953" lon="7.5545203"><ele>1518.0</ele><time>2026-04-25T11:30:49.241Z</time></trkpt><trkpt lat="45.3866299" lon="7.5546168"><ele>1518.0</ele><time>2026-04-25T11:30:50.244Z</time></trkpt><trkpt lat="45.3866614" lon="7.5546956"><ele>1518.0</ele><time>2026-04-25T11:30:51.24Z</time></trkpt><trkpt lat="45.3867683" lon="7.5547985"><ele>1518.0</ele><time>2026-04-25T11:30:53.226Z</time></trkpt><trkpt lat="45.3868448" lon="7.5548554"><ele>1515.0</ele><time>2026-04-25T11:30:54.233Z</time></trkpt><trkpt lat="45.3869194" lon="7.5549103"><ele>1512.0</ele><time>2026-04-25T11:30:55.236Z</time></trkpt><trkpt lat="45.3869844" lon="7.5549618"><ele>1509.0</ele><time>2026-04-25T11:30:56.229Z</time></trkpt><trkpt lat="45.3870377" lon="7.5550232"><ele>1506.0</ele><time>2026-04-25T11:30:57.225Z</time></trkpt><trkpt lat="45.3870812" lon="7.5550899"><ele>1503.0</ele><time>2026-04-25T11:30:58.231Z</time></trkpt><trkpt lat="45.3871667" lon="7.5551938"><ele>1500.0</ele><time>2026-04-25T11:31:00.241Z</time></trkpt><trkpt lat="45.3872072" lon="7.555314"><ele>1503.6666666666667</ele><time>2026-04-25T11:31:02.235Z</time></trkpt><trkpt lat="45.3872454" lon="7.5554201"><ele>1507.3333333333333</ele><time>2026-04-25T11:31:04.239Z</time></trkpt><trkpt lat="45.3873506" lon="7.555525"><ele>1511.0</ele><time>2026-04-25T11:31:06.245Z</time></trkpt><trkpt lat="45.3874017" lon="7.5555902"><ele>1514.6666666666665</ele><time>2026-04-25T11:31:07.234Z</time></trkpt><trkpt lat="45.3874456" lon="7.5556737"><ele>1518.3333333333333</ele><time>2026-04-25T11:31:08.237Z</time></trkpt><trkpt lat="45.3875036" lon="7.5557703"><ele>1522.0</ele><time>2026-04-25T11:31:09.236Z</time></trkpt><trkpt lat="45.3875438" lon="7.5559032"><ele>1522.0</ele><time>2026-04-25T11:31:10.228Z</time></trkpt><trkpt lat="45.3875632" lon="7.5560239"><ele>1522.0</ele><time>2026-04-25T11:31:11.232Z</time></trkpt><trkpt lat="45.3875799" lon="7.5561427"><ele>1522.0</ele><time>2026-04-25T11:31:12.234Z</time></trkpt><trkpt lat="45.3876125" lon="7.5562576"><ele>1522.0</ele><time>2026-04-25T11:31:13.236Z</time></trkpt><trkpt lat="45.3876671" lon="7.5563647"><ele>1522.0</ele><time>2026-04-25T11:31:14.233Z</time></trkpt><trkpt lat="45.3877355" lon="7.5564656"><ele>1525.0</ele><time>2026-04-25T11:31:15.242Z</time></trkpt><trkpt lat="45.3878192" lon="7.556561"><ele>1528.0</ele><time>2026-04-25T11:31:16.233Z</time></trkpt><trkpt lat="45.3879176" lon="7.5566698"><ele>1531.0</ele><time>2026-04-25T11:31:17.243Z</time></trkpt><trkpt lat="45.3879985" lon="7.5567817"><ele>1534.0</ele><time>2026-04-25T11:31:18.237Z</time></trkpt><trkpt lat="45.388072" lon="7.5568882"><ele>1537.0</ele><time>2026-04-25T11:31:19.243Z</time></trkpt><trkpt lat="45.3881379" lon="7.5569845"><ele>1532.8333333333335</ele><time>2026-04-25T11:31:20.241Z</time></trkpt><trkpt lat="45.3881897" lon="7.5570785"><ele>1528.6666666666667</ele><time>2026-04-25T11:31:21.233Z</time></trkpt><trkpt lat="45.3882253" lon="7.5571552"><ele>1524.5</ele><time>2026-04-25T11:31:22.245Z</time></trkpt><trkpt lat="45.3882913" lon="7.5572345"><ele>1520.3333333333335</ele><time>2026-04-25T11:31:24.252Z</time></trkpt><trkpt lat="45.3883987" lon="7.5572675"><ele>1516.1666666666667</ele><time>2026-04-25T11:31:26.243Z</time></trkpt><trkpt lat="45.3884645" lon="7.5572892"><ele>1512.0</ele><time>2026-04-25T11:31:27.24Z</time></trkpt><trkpt lat="45.3885268" lon="7.5573043"><ele>1512.0</ele><time>2026-04-25T11:31:28.235Z</time></trkpt><trkpt lat="45.3885886" lon="7.5573218"><ele>1512.0</ele><time>2026-04-25T11:31:29.248Z</time></trkpt><trkpt lat="45.3886527" lon="7.5573351"><ele>1512.0</ele><time>2026-04-25T11:31:30.237Z</time></trkpt><trkpt lat="45.3887214" lon="7.5573744"><ele>1512.0</ele><time>2026-04-25T11:31:31.24Z</time></trkpt><trkpt lat="45.3887968" lon="7.5574053"><ele>1512.0</ele><time>2026-04-25T11:31:32.237Z</time></trkpt><trkpt lat="45.3888849" lon="7.5574288"><ele>1512.0</ele><time>2026-04-25T11:31:33.237Z</time></trkpt><trkpt lat="45.3889704" lon="7.5574506"><ele>1515.8</ele><time>2026-04-25T11:31:34.24Z</time></trkpt><trkpt lat="45.3890637" lon="7.5574778"><ele>1519.6</ele><time>2026-04-25T11:31:35.233Z</time></trkpt><trkpt lat="45.3891439" lon="7.5575051"><ele>1523.3999999999999</ele><time>2026-04-25T11:31:36.246Z</time></trkpt><trkpt lat="45.3892108" lon="7.5575132"><ele>1527.1999999999998</ele><time>2026-04-25T11:31:37.233Z</time></trkpt><trkpt lat="45.3893152" lon="7.5574811"><ele>1531.0</ele><time>2026-04-25T11:31:39.242Z</time></trkpt><trkpt lat="45.3894039" lon="7.5573877"><ele>1531.0</ele><time>2026-04-25T11:31:41.24Z</time></trkpt><trkpt lat="45.3894386" lon="7.5572268"><ele>1531.0</ele><time>2026-04-25T11:31:43.237Z</time></trkpt><trkpt lat="45.3894501" lon="7.5570993"><ele>1531.0</ele><time>2026-04-25T11:31:45.246Z</time></trkpt><trkpt lat="45.3894453" lon="7.5570076"><ele>1531.0</ele><time>2026-04-25T11:31:47.24Z</time></trkpt><trkpt lat="45.3894742" lon="7.556925"><ele>1531.0</ele><time>2026-04-25T11:31:59.252Z</time></trkpt><trkpt lat="45.3894146" lon="7.5568762"><ele>1531.0</ele><time>2026-04-25T11:32:03.24Z</time></trkpt><trkpt lat="45.3893582" lon="7.5569182"><ele>1531.0</ele><time>2026-04-25T11:32:43.245Z</time></trkpt><trkpt lat="45.389295" lon="7.5569626"><ele>1531.0</ele><time>2026-04-25T12:21:29.29Z</time></trkpt><trkpt lat="45.3892224" lon="7.557016"><ele>1531.0</ele><time>2026-04-25T12:21:33.305Z</time></trkpt><trkpt lat="45.3892771" lon="7.5569613"><ele>1531.0</ele><time>2026-04-25T12:21:40.314Z</time></trkpt><trkpt lat="45.3893396" lon="7.5570018"><ele>1531.0</ele><time>2026-04-25T12:22:14.33Z</time></trkpt><trkpt lat="45.3893658" lon="7.5570859"><ele>1531.0</ele><time>2026-04-25T12:22:16.32Z</time></trkpt><trkpt lat="45.3893758" lon="7.5571763"><ele>1531.0</ele><time>2026-04-25T12:22:18.317Z</time></trkpt><trkpt lat="45.3893688" lon="7.5572818"><ele>1531.0</ele><time>2026-04-25T12:22:21.314Z</time></trkpt><trkpt lat="45.3893367" lon="7.5573742"><ele>1531.0</ele><time>2026-04-25T12:22:24.316Z</time></trkpt><trkpt lat="45.3892825" lon="7.5574335"><ele>1531.0</ele><time>2026-04-25T12:22:27.308Z</time></trkpt><trkpt lat="45.3892185" lon="7.5574307"><ele>1531.0</ele><time>2026-04-25T12:22:44.314Z</time></trkpt><trkpt lat="45.3891547" lon="7.5574122"><ele>1531.0</ele><time>2026-04-25T12:22:46.318Z</time></trkpt><trkpt lat="45.38907" lon="7.5573694"><ele>1531.0</ele><time>2026-04-25T12:22:49.314Z</time></trkpt><trkpt lat="45.3889728" lon="7.5573395"><ele>1531.0</ele><time>2026-04-25T12:22:51.313Z</time></trkpt><trkpt lat="45.3888681" lon="7.5573148"><ele>1531.0</ele><time>2026-04-25T12:22:53.322Z</time></trkpt><trkpt lat="45.3887736" lon="7.5572853"><ele>1531.0</ele><time>2026-04-25T12:22:55.31Z</time></trkpt><trkpt lat="45.3886857" lon="7.5572489"><ele>1531.0</ele><time>2026-04-25T12:22:57.306Z</time></trkpt><trkpt lat="45.3885937" lon="7.5572"><ele>1531.0</ele><time>2026-04-25T12:22:59.309Z</time></trkpt><trkpt lat="45.3884922" lon="7.5571755"><ele>1532.1999999999998</ele><time>2026-04-25T12:23:01.312Z</time></trkpt><trkpt lat="45.3883956" lon="7.5571518"><ele>1533.3999999999999</ele><time>2026-04-25T12:23:03.312Z</time></trkpt><trkpt lat="45.3882966" lon="7.5571281"><ele>1534.6</ele><time>2026-04-25T12:23:05.313Z</time></trkpt><trkpt lat="45.388194" lon="7.5570485"><ele>1535.8</ele><time>2026-04-25T12:23:07.304Z</time></trkpt><trkpt lat="45.3881407" lon="7.5569489"><ele>1537.0</ele><time>2026-04-25T12:23:08.303Z</time></trkpt><trkpt lat="45.3880854" lon="7.5568328"><ele>1537.0000000000002</ele><time>2026-04-25T12:23:09.303Z</time></trkpt><trkpt lat="45.3880303" lon="7.5567317"><ele>1537.0</ele><time>2026-04-25T12:23:10.301Z</time></trkpt><trkpt lat="45.3879698" lon="7.5566495"><ele>1537.0</ele><time>2026-04-25T12:23:11.289Z</time></trkpt><trkpt lat="45.3878997" lon="7.5565542"><ele>1537.0</ele><time>2026-04-25T12:23:12.297Z</time></trkpt><trkpt lat="45.3878319" lon="7.5564825"><ele>1537.0000000000002</ele><time>2026-04-25T12:23:13.288Z</time></trkpt><trkpt lat="45.3877674" lon="7.5564103"><ele>1537.0</ele><time>2026-04-25T12:23:14.301Z</time></trkpt><trkpt lat="45.3877081" lon="7.5563345"><ele>1534.5000000000002</ele><time>2026-04-25T12:23:15.296Z</time></trkpt><trkpt lat="45.3876614" lon="7.5562572"><ele>1532.0</ele><time>2026-04-25T12:23:16.31Z</time></trkpt><trkpt lat="45.3876191" lon="7.5561796"><ele>1529.5</ele><time>2026-04-25T12:23:17.297Z</time></trkpt><trkpt lat="45.3875834" lon="7.5560883"><ele>1527.0</ele><time>2026-04-25T12:23:18.295Z</time></trkpt><trkpt lat="45.3875607" lon="7.5559829"><ele>1524.5</ele><time>2026-04-25T12:23:19.296Z</time></trkpt><trkpt lat="45.3875462" lon="7.5558716"><ele>1522.0</ele><time>2026-04-25T12:23:20.288Z</time></trkpt><trkpt lat="45.3875409" lon="7.5557523"><ele>1522.0</ele><time>2026-04-25T12:23:21.293Z</time></trkpt><trkpt lat="45.3875335" lon="7.5556538"><ele>1522.0</ele><time>2026-04-25T12:23:22.289Z</time></trkpt><trkpt lat="45.3875067" lon="7.5555562"><ele>1522.0</ele><time>2026-04-25T12:23:23.3Z</time></trkpt><trkpt lat="45.3874363" lon="7.5554146"><ele>1522.0</ele><time>2026-04-25T12:23:25.286Z</time></trkpt><trkpt lat="45.3873547" lon="7.5553242"><ele>1522.0</ele><time>2026-04-25T12:23:27.289Z</time></trkpt><trkpt lat="45.3872819" lon="7.5553091"><ele>1522.0</ele><time>2026-04-25T12:23:29.292Z</time></trkpt><trkpt lat="45.3872347" lon="7.5552425"><ele>1525.3999999999999</ele><time>2026-04-25T12:23:31.294Z</time></trkpt><trkpt lat="45.3872146" lon="7.5551039"><ele>1528.8</ele><time>2026-04-25T12:23:33.284Z</time></trkpt><trkpt lat="45.3871384" lon="7.5549903"><ele>1532.2</ele><time>2026-04-25T12:23:35.292Z</time></trkpt><trkpt lat="45.3870571" lon="7.5548891"><ele>1535.6</ele><time>2026-04-25T12:23:37.292Z</time></trkpt><trkpt lat="45.3869631" lon="7.5547944"><ele>1539.0</ele><time>2026-04-25T12:23:39.297Z</time></trkpt><trkpt lat="45.3869084" lon="7.5547449"><ele>1534.8000000000002</ele><time>2026-04-25T12:23:40.3Z</time></trkpt><trkpt lat="45.3868021" lon="7.5546757"><ele>1530.6000000000001</ele><time>2026-04-25T12:23:42.305Z</time></trkpt><trkpt lat="45.3867106" lon="7.5546018"><ele>1526.4</ele><time>2026-04-25T12:23:44.297Z</time></trkpt><trkpt lat="45.3866363" lon="7.5544924"><ele>1522.2</ele><time>2026-04-25T12:23:46.297Z</time></trkpt><trkpt lat="45.3866004" lon="7.5543578"><ele>1518.0</ele><time>2026-04-25T12:23:48.296Z</time></trkpt><trkpt lat="45.3865688" lon="7.5542779"><ele>1518.0</ele><time>2026-04-25T12:23:49.301Z</time></trkpt><trkpt lat="45.38651" lon="7.5541595"><ele>1518.0</ele><time>2026-04-25T12:23:51.295Z</time></trkpt><trkpt lat="45.3864811" lon="7.554017"><ele>1518.0</ele><time>2026-04-25T12:23:53.293Z</time></trkpt><trkpt lat="45.3864601" lon="7.5539261"><ele>1518.0</ele><time>2026-04-25T12:23:54.291Z</time></trkpt><trkpt lat="45.3864193" lon="7.5537701"><ele>1518.0</ele><time>2026-04-25T12:23:56.293Z</time></trkpt><trkpt lat="45.3864135" lon="7.553634"><ele>1521.0</ele><time>2026-04-25T12:23:58.287Z</time></trkpt><trkpt lat="45.3863801" lon="7.553524"><ele>1524.0</ele><time>2026-04-25T12:24:00.283Z</time></trkpt><trkpt lat="45.3862976" lon="7.553453"><ele>1527.0</ele><time>2026-04-25T12:24:02.277Z</time></trkpt><trkpt lat="45.386183" lon="7.5533722"><ele>1530.0</ele><time>2026-04-25T12:24:04.29Z</time></trkpt><trkpt lat="45.3861189" lon="7.5533366"><ele>1533.0</ele><time>2026-04-25T12:24:05.283Z</time></trkpt><trkpt lat="45.3860027" lon="7.5533156"><ele>1525.8000000000002</ele><time>2026-04-25T12:24:07.282Z</time></trkpt><trkpt lat="45.3858785" lon="7.55321"><ele>1518.6</ele><time>2026-04-25T12:24:09.288Z</time></trkpt><trkpt lat="45.3858039" lon="7.5531544"><ele>1511.4</ele><time>2026-04-25T12:24:10.283Z</time></trkpt><trkpt lat="45.3857373" lon="7.5531188"><ele>1504.1999999999998</ele><time>2026-04-25T12:24:11.289Z</time></trkpt><trkpt lat="45.3856121" lon="7.5530845"><ele>1497.0</ele><time>2026-04-25T12:24:13.308Z</time></trkpt><trkpt lat="45.3855508" lon="7.5530637"><ele>1496.6666666666667</ele><time>2026-04-25T12:24:14.301Z</time></trkpt><trkpt lat="45.3854385" lon="7.5530004"><ele>1496.3333333333333</ele><time>2026-04-25T12:24:16.302Z</time></trkpt><trkpt lat="45.3853695" lon="7.5529757"><ele>1496.0</ele><time>2026-04-25T12:24:17.302Z</time></trkpt><trkpt lat="45.3853059" lon="7.5529422"><ele>1495.6666666666665</ele><time>2026-04-25T12:24:18.312Z</time></trkpt><trkpt lat="45.3852405" lon="7.5529039"><ele>1495.3333333333333</ele><time>2026-04-25T12:24:19.3Z</time></trkpt><trkpt lat="45.3851492" lon="7.5528204"><ele>1495.0</ele><time>2026-04-25T12:24:21.303Z</time></trkpt><trkpt lat="45.3850764" lon="7.5527243"><ele>1495.0</ele><time>2026-04-25T12:24:23.3Z</time></trkpt><trkpt lat="45.3850335" lon="7.5526458"><ele>1495.0</ele><time>2026-04-25T12:24:25.293Z</time></trkpt><trkpt lat="45.3849726" lon="7.5525819"><ele>1495.0</ele><time>2026-04-25T12:24:28.28Z</time></trkpt><trkpt lat="45.3849585" lon="7.5526728"><ele>1495.0</ele><time>2026-04-25T12:24:30.28Z</time></trkpt><trkpt lat="45.385013" lon="7.5527768"><ele>1495.0</ele><time>2026-04-25T12:24:33.289Z</time></trkpt><trkpt lat="45.3850607" lon="7.5528906"><ele>1495.0</ele><time>2026-04-25T12:24:35.293Z</time></trkpt><trkpt lat="45.3850956" lon="7.5529679"><ele>1489.6666666666665</ele><time>2026-04-25T12:24:36.293Z</time></trkpt><trkpt lat="45.3851306" lon="7.5530545"><ele>1484.3333333333333</ele><time>2026-04-25T12:24:37.294Z</time></trkpt><trkpt lat="45.385174" lon="7.553126"><ele>1479.0</ele><time>2026-04-25T12:24:38.292Z</time></trkpt><trkpt lat="45.3852633" lon="7.5532374"><ele>1473.6666666666667</ele><time>2026-04-25T12:24:40.293Z</time></trkpt><trkpt lat="45.3853191" lon="7.5532972"><ele>1468.3333333333335</ele><time>2026-04-25T12:24:41.289Z</time></trkpt><trkpt lat="45.3853889" lon="7.5533611"><ele>1463.0</ele><time>2026-04-25T12:24:42.295Z</time></trkpt><trkpt lat="45.3854501" lon="7.5534384"><ele>1465.0</ele><time>2026-04-25T12:24:43.284Z</time></trkpt><trkpt lat="45.3855349" lon="7.5535182"><ele>1467.0</ele><time>2026-04-25T12:24:45.282Z</time></trkpt><trkpt lat="45.3856372" lon="7.5536167"><ele>1469.0</ele><time>2026-04-25T12:24:47.291Z</time></trkpt><trkpt lat="45.3857258" lon="7.5537313"><ele>1471.0</ele><time>2026-04-25T12:24:49.293Z</time></trkpt><trkpt lat="45.3857986" lon="7.5538718"><ele>1471.0</ele><time>2026-04-25T12:24:51.287Z</time></trkpt><trkpt lat="45.3858471" lon="7.5539417"><ele>1471.0</ele><time>2026-04-25T12:24:52.289Z</time></trkpt><trkpt lat="45.3858935" lon="7.5540108"><ele>1471.0</ele><time>2026-04-25T12:24:53.29Z</time></trkpt><trkpt lat="45.3859292" lon="7.5540877"><ele>1471.0</ele><time>2026-04-25T12:24:54.286Z</time></trkpt><trkpt lat="45.3859637" lon="7.554169"><ele>1471.0</ele><time>2026-04-25T12:24:55.282Z</time></trkpt><trkpt lat="45.3859851" lon="7.5543429"><ele>1471.0</ele><time>2026-04-25T12:24:57.284Z</time></trkpt><trkpt lat="45.3859831" lon="7.5544411"><ele>1468.0</ele><time>2026-04-25T12:24:58.289Z</time></trkpt><trkpt lat="45.3859981" lon="7.5545999"><ele>1465.0</ele><time>2026-04-25T12:25:00.284Z</time></trkpt><trkpt lat="45.3859761" lon="7.5547215"><ele>1462.0</ele><time>2026-04-25T12:25:02.283Z</time></trkpt><trkpt lat="45.385942" lon="7.5548154"><ele>1459.0</ele><time>2026-04-25T12:25:04.29Z</time></trkpt><trkpt lat="45.3858992" lon="7.5549061"><ele>1456.0</ele><time>2026-04-25T12:25:06.289Z</time></trkpt><trkpt lat="45.385851" lon="7.555014"><ele>1453.0</ele><time>2026-04-25T12:25:08.284Z</time></trkpt><trkpt lat="45.3858576" lon="7.5551337"><ele>1453.0</ele><time>2026-04-25T12:25:10.287Z</time></trkpt><trkpt lat="45.3859341" lon="7.55527"><ele>1453.0</ele><time>2026-04-25T12:25:12.295Z</time></trkpt><trkpt lat="45.3859867" lon="7.5553435"><ele>1453.0</ele><time>2026-04-25T12:25:13.3Z</time></trkpt><trkpt lat="45.3860735" lon="7.555485"><ele>1453.0</ele><time>2026-04-25T12:25:15.304Z</time></trkpt><trkpt lat="45.3861192" lon="7.5555536"><ele>1453.0</ele><time>2026-04-25T12:25:16.301Z</time></trkpt><trkpt lat="45.3861618" lon="7.5556238"><ele>1455.0</ele><time>2026-04-25T12:25:17.293Z</time></trkpt><trkpt lat="45.3862434" lon="7.5557263"><ele>1457.0</ele><time>2026-04-25T12:25:19.298Z</time></trkpt><trkpt lat="45.3862832" lon="7.5558274"><ele>1459.0</ele><time>2026-04-25T12:25:21.294Z</time></trkpt><trkpt lat="45.3863387" lon="7.5559586"><ele>1461.0</ele><time>2026-04-25T12:25:23.303Z</time></trkpt><trkpt lat="45.3863936" lon="7.556097"><ele>1463.0</ele><time>2026-04-25T12:25:25.287Z</time></trkpt><trkpt lat="45.3864477" lon="7.5562383"><ele>1463.0</ele><time>2026-04-25T12:25:27.295Z</time></trkpt><trkpt lat="45.3864949" lon="7.5564131"><ele>1463.0</ele><time>2026-04-25T12:25:29.286Z</time></trkpt><trkpt lat="45.3865082" lon="7.5565256"><ele>1463.0</ele><time>2026-04-25T12:25:30.286Z</time></trkpt><trkpt lat="45.386503" lon="7.5566248"><ele>1463.0</ele><time>2026-04-25T12:25:31.287Z</time></trkpt><trkpt lat="45.3864804" lon="7.5567189"><ele>1463.0</ele><time>2026-04-25T12:25:32.291Z</time></trkpt><trkpt lat="45.3864592" lon="7.5568065"><ele>1463.0</ele><time>2026-04-25T12:25:33.291Z</time></trkpt><trkpt lat="45.3864338" lon="7.556895"><ele>1463.0</ele><time>2026-04-25T12:25:34.285Z</time></trkpt><trkpt lat="45.3863784" lon="7.5570201"><ele>1463.0</ele><time>2026-04-25T12:25:36.287Z</time></trkpt><trkpt lat="45.3862952" lon="7.5571422"><ele>1463.0</ele><time>2026-04-25T12:25:38.288Z</time></trkpt><trkpt lat="45.3862161" lon="7.5572744"><ele>1463.0</ele><time>2026-04-25T12:25:40.285Z</time></trkpt><trkpt lat="45.3861164" lon="7.5573811"><ele>1454.6000000000001</ele><time>2026-04-25T12:25:42.284Z</time></trkpt><trkpt lat="45.3860349" lon="7.5574742"><ele>1446.2</ele><time>2026-04-25T12:25:44.28Z</time></trkpt><trkpt lat="45.3859616" lon="7.5575793"><ele>1437.8</ele><time>2026-04-25T12:25:46.286Z</time></trkpt><trkpt lat="45.3858628" lon="7.5576801"><ele>1429.4</ele><time>2026-04-25T12:25:48.278Z</time></trkpt><trkpt lat="45.3857609" lon="7.557733"><ele>1421.0</ele><time>2026-04-25T12:25:50.283Z</time></trkpt><trkpt lat="45.3856611" lon="7.5577862"><ele>1421.0</ele><time>2026-04-25T12:25:52.284Z</time></trkpt><trkpt lat="45.3855828" lon="7.5578609"><ele>1421.0</ele><time>2026-04-25T12:25:54.288Z</time></trkpt><trkpt lat="45.3855253" lon="7.5579807"><ele>1421.0</ele><time>2026-04-25T12:25:56.282Z</time></trkpt><trkpt lat="45.3854837" lon="7.5581117"><ele>1421.0</ele><time>2026-04-25T12:25:58.283Z</time></trkpt><trkpt lat="45.3854488" lon="7.5582301"><ele>1421.0</ele><time>2026-04-25T12:26:00.296Z</time></trkpt><trkpt lat="45.3854097" lon="7.5583644"><ele>1421.6</ele><time>2026-04-25T12:26:02.283Z</time></trkpt><trkpt lat="45.3854381" lon="7.5584958"><ele>1422.1999999999998</ele><time>2026-04-25T12:26:04.298Z</time></trkpt><trkpt lat="45.3855142" lon="7.5586255"><ele>1422.8000000000002</ele><time>2026-04-25T12:26:06.3Z</time></trkpt><trkpt lat="45.3855914" lon="7.5587249"><ele>1423.4</ele><time>2026-04-25T12:26:08.296Z</time></trkpt><trkpt lat="45.3856666" lon="7.5588583"><ele>1424.0</ele><time>2026-04-25T12:26:10.298Z</time></trkpt><trkpt lat="45.3857556" lon="7.5589758"><ele>1421.3333333333335</ele><time>2026-04-25T12:26:12.296Z</time></trkpt><trkpt lat="45.3858251" lon="7.5590873"><ele>1418.6666666666667</ele><time>2026-04-25T12:26:14.301Z</time></trkpt><trkpt lat="45.3858672" lon="7.5592107"><ele>1416.0</ele><time>2026-04-25T12:26:16.309Z</time></trkpt><trkpt lat="45.3858874" lon="7.5593539"><ele>1413.3333333333333</ele><time>2026-04-25T12:26:18.303Z</time></trkpt><trkpt lat="45.3858779" lon="7.5594559"><ele>1410.6666666666665</ele><time>2026-04-25T12:26:19.301Z</time></trkpt><trkpt lat="45.385877" lon="7.5595538"><ele>1408.0</ele><time>2026-04-25T12:26:20.302Z</time></trkpt><trkpt lat="45.3858478" lon="7.559728"><ele>1404.6666666666665</ele><time>2026-04-25T12:26:22.315Z</time></trkpt><trkpt lat="45.3857911" lon="7.5598963"><ele>1401.3333333333333</ele><time>2026-04-25T12:26:24.297Z</time></trkpt><trkpt lat="45.3857506" lon="7.5599749"><ele>1398.0</ele><time>2026-04-25T12:26:25.298Z</time></trkpt><trkpt lat="45.3857016" lon="7.5600484"><ele>1394.6666666666667</ele><time>2026-04-25T12:26:26.303Z</time></trkpt><trkpt lat="45.385655" lon="7.5601118"><ele>1391.3333333333335</ele><time>2026-04-25T12:26:27.305Z</time></trkpt><trkpt lat="45.3855704" lon="7.5601973"><ele>1388.0</ele><time>2026-04-25T12:26:29.303Z</time></trkpt><trkpt lat="45.3854859" lon="7.5602584"><ele>1388.0</ele><time>2026-04-25T12:26:31.302Z</time></trkpt><trkpt lat="45.3854402" lon="7.5601959"><ele>1388.0</ele><time>2026-04-25T12:26:33.292Z</time></trkpt><trkpt lat="45.3854952" lon="7.5601098"><ele>1388.0</ele><time>2026-04-25T12:26:35.287Z</time></trkpt><trkpt lat="45.3855613" lon="7.5599603"><ele>1388.0</ele><time>2026-04-25T12:26:37.292Z</time></trkpt><trkpt lat="45.3855818" lon="7.559874"><ele>1388.0</ele><time>2026-04-25T12:26:38.293Z</time></trkpt><trkpt lat="45.3855837" lon="7.5597747"><ele>1388.0</ele><time>2026-04-25T12:26:39.281Z</time></trkpt><trkpt lat="45.3855808" lon="7.5596541"><ele>1388.0</ele><time>2026-04-25T12:26:40.283Z</time></trkpt><trkpt lat="45.3855663" lon="7.5595343"><ele>1388.0</ele><time>2026-04-25T12:26:41.281Z</time></trkpt><trkpt lat="45.3855378" lon="7.5594519"><ele>1388.0</ele><time>2026-04-25T12:26:42.277Z</time></trkpt><trkpt lat="45.3854921" lon="7.5593799"><ele>1388.0</ele><time>2026-04-25T12:26:43.288Z</time></trkpt><trkpt lat="45.3854186" lon="7.5592971"><ele>1388.0</ele><time>2026-04-25T12:26:44.286Z</time></trkpt><trkpt lat="45.3853478" lon="7.5592055"><ele>1388.0</ele><time>2026-04-25T12:26:45.286Z</time></trkpt><trkpt lat="45.3852689" lon="7.5591439"><ele>1385.6000000000001</ele><time>2026-04-25T12:26:46.278Z</time></trkpt><trkpt lat="45.3851833" lon="7.5590744"><ele>1383.2</ele><time>2026-04-25T12:26:47.285Z</time></trkpt><trkpt lat="45.3850959" lon="7.5590115"><ele>1380.8</ele><time>2026-04-25T12:26:48.295Z</time></trkpt><trkpt lat="45.3850135" lon="7.5589519"><ele>1378.4</ele><time>2026-04-25T12:26:49.286Z</time></trkpt><trkpt lat="45.384937" lon="7.5588672"><ele>1376.0</ele><time>2026-04-25T12:26:50.282Z</time></trkpt><trkpt lat="45.3848701" lon="7.5587794"><ele>1376.0</ele><time>2026-04-25T12:26:51.278Z</time></trkpt><trkpt lat="45.3848219" lon="7.5586828"><ele>1376.0</ele><time>2026-04-25T12:26:52.282Z</time></trkpt><trkpt lat="45.3847705" lon="7.5585628"><ele>1376.0</ele><time>2026-04-25T12:26:54.295Z</time></trkpt><trkpt lat="45.384705" lon="7.5586133"><ele>1376.0</ele><time>2026-04-25T12:26:57.28Z</time></trkpt><trkpt lat="45.384734" lon="7.558774"><ele>1376.0</ele><time>2026-04-25T12:26:59.283Z</time></trkpt><trkpt lat="45.3847725" lon="7.5588654"><ele>1376.0</ele><time>2026-04-25T12:27:00.289Z</time></trkpt><trkpt lat="45.384814" lon="7.5589794"><ele>1376.0</ele><time>2026-04-25T12:27:01.287Z</time></trkpt><trkpt lat="45.3848532" lon="7.5590885"><ele>1376.0</ele><time>2026-04-25T12:27:02.293Z</time></trkpt><trkpt lat="45.384882" lon="7.5591748"><ele>1376.0</ele><time>2026-04-25T12:27:03.29Z</time></trkpt><trkpt lat="45.3849038" lon="7.5592649"><ele>1376.0</ele><time>2026-04-25T12:27:04.278Z</time></trkpt><trkpt lat="45.3849122" lon="7.5593554"><ele>1376.0</ele><time>2026-04-25T12:27:05.288Z</time></trkpt><trkpt lat="45.3848977" lon="7.5594829"><ele>1376.0</ele><time>2026-04-25T12:27:06.286Z</time></trkpt><trkpt lat="45.3848598" lon="7.5596163"><ele>1374.6</ele><time>2026-04-25T12:27:07.289Z</time></trkpt><trkpt lat="45.3848182" lon="7.5597342"><ele>1373.1999999999998</ele><time>2026-04-25T12:27:08.284Z</time></trkpt><trkpt lat="45.3847724" lon="7.5598349"><ele>1371.8000000000002</ele><time>2026-04-25T12:27:09.282Z</time></trkpt><trkpt lat="45.3847189" lon="7.559911"><ele>1370.4</ele><time>2026-04-25T12:27:10.273Z</time></trkpt><trkpt lat="45.3846685" lon="7.5600188"><ele>1369.0</ele><time>2026-04-25T12:27:12.285Z</time></trkpt><trkpt lat="45.3846165" lon="7.560196"><ele>1361.6</ele><time>2026-04-25T12:27:14.276Z</time></trkpt><trkpt lat="45.384588" lon="7.5603099"><ele>1354.2</ele><time>2026-04-25T12:27:15.278Z</time></trkpt><trkpt lat="45.3845642" lon="7.5604316"><ele>1346.8</ele><time>2026-04-25T12:27:16.278Z</time></trkpt><trkpt lat="45.3845292" lon="7.5605515"><ele>1339.3999999999999</ele><time>2026-04-25T12:27:17.274Z</time></trkpt><trkpt lat="45.3844924" lon="7.5606631"><ele>1332.0</ele><time>2026-04-25T12:27:18.275Z</time></trkpt><trkpt lat="45.3844374" lon="7.5607837"><ele>1332.0</ele><time>2026-04-25T12:27:19.291Z</time></trkpt><trkpt lat="45.3843777" lon="7.5609021"><ele>1332.0</ele><time>2026-04-25T12:27:20.289Z</time></trkpt><trkpt lat="45.3843219" lon="7.5609966"><ele>1332.0</ele><time>2026-04-25T12:27:21.283Z</time></trkpt><trkpt lat="45.3842808" lon="7.561086"><ele>1332.0</ele><time>2026-04-25T12:27:22.292Z</time></trkpt><trkpt lat="45.3842441" lon="7.5611678"><ele>1332.0</ele><time>2026-04-25T12:27:23.29Z</time></trkpt><trkpt lat="45.3841557" lon="7.5612894"><ele>1331.8</ele><time>2026-04-25T12:27:25.283Z</time></trkpt><trkpt lat="45.3840505" lon="7.5613567"><ele>1331.6</ele><time>2026-04-25T12:27:27.286Z</time></trkpt><trkpt lat="45.3839378" lon="7.5614171"><ele>1331.3999999999999</ele><time>2026-04-25T12:27:29.287Z</time></trkpt><trkpt lat="45.3838245" lon="7.5614631"><ele>1331.1999999999998</ele><time>2026-04-25T12:27:31.291Z</time></trkpt><trkpt lat="45.3837607" lon="7.5614824"><ele>1331.0</ele><time>2026-04-25T12:27:32.292Z</time></trkpt><trkpt lat="45.3837075" lon="7.5615314"><ele>1328.1999999999998</ele><time>2026-04-25T12:27:33.291Z</time></trkpt><trkpt lat="45.3836339" lon="7.5616335"><ele>1325.3999999999999</ele><time>2026-04-25T12:27:35.292Z</time></trkpt><trkpt lat="45.383618" lon="7.5617526"><ele>1322.6</ele><time>2026-04-25T12:27:37.306Z</time></trkpt><trkpt lat="45.3836277" lon="7.5618777"><ele>1319.8</ele><time>2026-04-25T12:27:39.308Z</time></trkpt><trkpt lat="45.38367" lon="7.5619982"><ele>1317.0</ele><time>2026-04-25T12:27:41.308Z</time></trkpt><trkpt lat="45.3837753" lon="7.5620768"><ele>1315.8</ele><time>2026-04-25T12:27:43.311Z</time></trkpt><trkpt lat="45.3838884" lon="7.5621179"><ele>1314.6</ele><time>2026-04-25T12:27:45.302Z</time></trkpt><trkpt lat="45.3839978" lon="7.5621806"><ele>1313.3999999999999</ele><time>2026-04-25T12:27:47.308Z</time></trkpt><trkpt lat="45.3840602" lon="7.5622371"><ele>1312.1999999999998</ele><time>2026-04-25T12:27:48.309Z</time></trkpt><trkpt lat="45.3841617" lon="7.5622969"><ele>1311.0</ele><time>2026-04-25T12:27:50.313Z</time></trkpt><trkpt lat="45.3842648" lon="7.5623629"><ele>1311.0</ele><time>2026-04-25T12:27:52.303Z</time></trkpt><trkpt lat="45.3843858" lon="7.5624323"><ele>1311.0</ele><time>2026-04-25T12:27:54.294Z</time></trkpt><trkpt lat="45.3844959" lon="7.5625078"><ele>1311.0</ele><time>2026-04-25T12:27:56.293Z</time></trkpt><trkpt lat="45.3845901" lon="7.5625788"><ele>1311.0</ele><time>2026-04-25T12:27:58.296Z</time></trkpt><trkpt lat="45.384701" lon="7.5626518"><ele>1311.5</ele><time>2026-04-25T12:28:00.296Z</time></trkpt><trkpt lat="45.3847609" lon="7.5626796"><ele>1312.0</ele><time>2026-04-25T12:28:01.287Z</time></trkpt><trkpt lat="45.3848673" lon="7.5627269"><ele>1312.5</ele><time>2026-04-25T12:28:03.293Z</time></trkpt><trkpt lat="45.3849629" lon="7.5627096"><ele>1313.0</ele><time>2026-04-25T12:28:05.286Z</time></trkpt><trkpt lat="45.3850311" lon="7.5627304"><ele>1313.5</ele><time>2026-04-25T12:28:07.275Z</time></trkpt><trkpt lat="45.3849552" lon="7.5627741"><ele>1314.0</ele><time>2026-04-25T12:28:10.273Z</time></trkpt><trkpt lat="45.3848633" lon="7.5627039"><ele>1314.0</ele><time>2026-04-25T12:28:12.278Z</time></trkpt><trkpt lat="45.3847354" lon="7.5627155"><ele>1314.0</ele><time>2026-04-25T12:28:14.265Z</time></trkpt><trkpt lat="45.3846671" lon="7.5627609"><ele>1314.0</ele><time>2026-04-25T12:28:15.268Z</time></trkpt><trkpt lat="45.3845971" lon="7.5628074"><ele>1314.0</ele><time>2026-04-25T12:28:16.265Z</time></trkpt><trkpt lat="45.384522" lon="7.5628461"><ele>1314.0</ele><time>2026-04-25T12:28:17.266Z</time></trkpt><trkpt lat="45.3844424" lon="7.562885"><ele>1314.0</ele><time>2026-04-25T12:28:18.276Z</time></trkpt><trkpt lat="45.3843559" lon="7.5628994"><ele>1311.0</ele><time>2026-04-25T12:28:19.274Z</time></trkpt><trkpt lat="45.3841617" lon="7.5622969"><ele>1311.0</ele><time>2026-04-25T12:27:50.313Z</time></trkpt><trkpt lat="45.3842648" lon="7.5623629"><ele>1311.0</ele><time>2026-04-25T12:27:52.303Z</time></trkpt><trkpt lat="45.3843858" lon="7.5624323"><ele>1311.0</ele><time>2026-04-25T12:27:54.294Z</time></trkpt><trkpt lat="45.3844959" lon="7.5625078"><ele>1311.0</ele><time>2026-04-25T12:27:56.293Z</time></trkpt><trkpt lat="45.3845901" lon="7.5625788"><ele>1311.6</ele><time>2026-04-25T12:27:58.296Z</time></trkpt><trkpt lat="45.384701" lon="7.5626518"><ele>1312.1999999999998</ele><time>2026-04-25T12:28:00.296Z</time></trkpt><trkpt lat="45.3847609" lon="7.5626796"><ele>1312.8000000000002</ele><time>2026-04-25T12:28:01.287Z</time></trkpt><trkpt lat="45.3848673" lon="7.5627269"><ele>1313.4</ele><time>2026-04-25T12:28:03.293Z</time></trkpt><trkpt lat="45.3849629" lon="7.5627096"><ele>1314.0</ele><time>2026-04-25T12:28:05.286Z</time></trkpt><trkpt lat="45.3850311" lon="7.5627304"><ele>1314.0</ele><time>2026-04-25T12:28:07.275Z</time></trkpt><trkpt lat="45.3849552" lon="7.5627741"><ele>1314.0</ele><time>2026-04-25T12:28:10.273Z</time></trkpt><trkpt lat="45.3848633" lon="7.5627039"><ele>1314.0</ele><time>2026-04-25T12:28:12.278Z</time></trkpt><trkpt lat="45.3847354" lon="7.5627155"><ele>1314.0</ele><time>2026-04-25T12:28:14.265Z</time></trkpt><trkpt lat="45.3846671" lon="7.5627609"><ele>1314.0</ele><time>2026-04-25T12:28:15.268Z</time></trkpt><trkpt lat="45.3845971" lon="7.5628074"><ele>1313.5</ele><time>2026-04-25T12:28:16.265Z</time></trkpt><trkpt lat="45.384522" lon="7.5628461"><ele>1313.0</ele><time>2026-04-25T12:28:17.266Z</time></trkpt><trkpt lat="45.3844424" lon="7.562885"><ele>1312.5</ele><time>2026-04-25T12:28:18.276Z</time></trkpt><trkpt lat="45.3843559" lon="7.5628994"><ele>1312.0</ele><time>2026-04-25T12:28:19.274Z</time></trkpt><trkpt lat="45.3842673" lon="7.5629201"><ele>1311.5</ele><time>2026-04-25T12:28:20.278Z</time></trkpt><trkpt lat="45.3841811" lon="7.5629185"><ele>1311.0</ele><time>2026-04-25T12:28:21.282Z</time></trkpt><trkpt lat="45.384096" lon="7.562922"><ele>1306.1999999999998</ele><time>2026-04-25T12:28:22.273Z</time></trkpt><trkpt lat="45.3840113" lon="7.5629256"><ele>1301.3999999999999</ele><time>2026-04-25T12:28:23.274Z</time></trkpt><trkpt lat="45.3839266" lon="7.5629691"><ele>1296.6</ele><time>2026-04-25T12:28:24.281Z</time></trkpt><trkpt lat="45.3838307" lon="7.5630428"><ele>1291.8</ele><time>2026-04-25T12:28:25.271Z</time></trkpt><trkpt lat="45.3837449" lon="7.5631441"><ele>1287.0</ele><time>2026-04-25T12:28:26.284Z</time></trkpt><trkpt lat="45.3836577" lon="7.563229"><ele>1287.0</ele><time>2026-04-25T12:28:27.263Z</time></trkpt><trkpt lat="45.3835741" lon="7.563288"><ele>1287.0</ele><time>2026-04-25T12:28:28.269Z</time></trkpt><trkpt lat="45.3834913" lon="7.5633504"><ele>1287.0</ele><time>2026-04-25T12:28:29.273Z</time></trkpt><trkpt lat="45.3834273" lon="7.5634118"><ele>1287.0</ele><time>2026-04-25T12:28:30.28Z</time></trkpt><trkpt lat="45.3833675" lon="7.5634507"><ele>1287.0</ele><time>2026-04-25T12:28:31.277Z</time></trkpt><trkpt lat="45.3832748" lon="7.5635042"><ele>1287.0</ele><time>2026-04-25T12:28:33.283Z</time></trkpt><trkpt lat="45.3832095" lon="7.5635554"><ele>1287.0</ele><time>2026-04-25T12:28:35.277Z</time></trkpt><trkpt lat="45.3832135" lon="7.5636745"><ele>1287.0</ele><time>2026-04-25T12:28:38.276Z</time></trkpt><trkpt lat="45.3832987" lon="7.5637068"><ele>1287.0</ele><time>2026-04-25T12:28:40.28Z</time></trkpt><trkpt lat="45.3833814" lon="7.5637146"><ele>1287.0</ele><time>2026-04-25T12:28:41.281Z</time></trkpt><trkpt lat="45.3834811" lon="7.5637084"><ele>1287.0</ele><time>2026-04-25T12:28:42.282Z</time></trkpt><trkpt lat="45.3835701" lon="7.5637088"><ele>1287.0</ele><time>2026-04-25T12:28:43.285Z</time></trkpt><trkpt lat="45.3836575" lon="7.5637012"><ele>1287.0</ele><time>2026-04-25T12:28:44.283Z</time></trkpt><trkpt lat="45.3837433" lon="7.5636967"><ele>1287.0</ele><time>2026-04-25T12:28:45.279Z</time></trkpt><trkpt lat="45.3838313" lon="7.5636963"><ele>1287.0</ele><time>2026-04-25T12:28:46.287Z</time></trkpt><trkpt lat="45.3839136" lon="7.5636908"><ele>1287.0</ele><time>2026-04-25T12:28:47.277Z</time></trkpt><trkpt lat="45.3839878" lon="7.5636871"><ele>1287.0</ele><time>2026-04-25T12:28:48.277Z</time></trkpt><trkpt lat="45.3840621" lon="7.5636876"><ele>1287.0</ele><time>2026-04-25T12:28:49.278Z</time></trkpt><trkpt lat="45.3841399" lon="7.5636993"><ele>1281.4285714285713</ele><time>2026-04-25T12:28:50.28Z</time></trkpt><trkpt lat="45.3842137" lon="7.5637385"><ele>1275.857142857143</ele><time>2026-04-25T12:28:51.276Z</time></trkpt><trkpt lat="45.3842821" lon="7.5637672"><ele>1270.2857142857142</ele><time>2026-04-25T12:28:52.286Z</time></trkpt><trkpt lat="45.3843469" lon="7.5637846"><ele>1264.7142857142858</ele><time>2026-04-25T12:28:53.285Z</time></trkpt><trkpt lat="45.3844098" lon="7.5638149"><ele>1259.142857142857</ele><time>2026-04-25T12:28:54.276Z</time></trkpt><trkpt lat="45.3844778" lon="7.5638719"><ele>1253.5714285714287</ele><time>2026-04-25T12:28:55.279Z</time></trkpt><trkpt lat="45.3845507" lon="7.5638962"><ele>1248.0</ele><time>2026-04-25T12:28:56.274Z</time></trkpt><trkpt lat="45.3846759" lon="7.5638832"><ele>1245.8</ele><time>2026-04-25T12:28:58.284Z</time></trkpt><trkpt lat="45.3847899" lon="7.5638447"><ele>1243.6</ele><time>2026-04-25T12:29:00.287Z</time></trkpt><trkpt lat="45.3848589" lon="7.5638167"><ele>1241.4</ele><time>2026-04-25T12:29:01.278Z</time></trkpt><trkpt lat="45.3849495" lon="7.563774"><ele>1239.2</ele><time>2026-04-25T12:29:03.285Z</time></trkpt><trkpt lat="45.3849464" lon="7.5638861"><ele>1237.0</ele><time>2026-04-25T12:29:07.272Z</time></trkpt><trkpt lat="45.3848228" lon="7.5639363"><ele>1237.0</ele><time>2026-04-25T12:29:09.273Z</time></trkpt><trkpt lat="45.3847497" lon="7.5640046"><ele>1237.0</ele><time>2026-04-25T12:29:10.277Z</time></trkpt><trkpt lat="45.3846707" lon="7.5640756"><ele>1237.0</ele><time>2026-04-25T12:29:11.27Z</time></trkpt><trkpt lat="45.3846055" lon="7.564143"><ele>1237.0</ele><time>2026-04-25T12:29:12.278Z</time></trkpt><trkpt lat="45.3844947" lon="7.5641535"><ele>1237.0</ele><time>2026-04-25T12:29:14.279Z</time></trkpt><trkpt lat="45.3844228" lon="7.564169"><ele>1237.0</ele><time>2026-04-25T12:29:16.273Z</time></trkpt><trkpt lat="45.3843427" lon="7.5642098"><ele>1238.8333333333333</ele><time>2026-04-25T12:29:20.282Z</time></trkpt><trkpt lat="45.384268" lon="7.5642236"><ele>1240.6666666666665</ele><time>2026-04-25T12:29:22.286Z</time></trkpt><trkpt lat="45.3841888" lon="7.5642532"><ele>1242.5</ele><time>2026-04-25T12:29:24.275Z</time></trkpt><trkpt lat="45.3841002" lon="7.5643518"><ele>1244.3333333333333</ele><time>2026-04-25T12:29:26.27Z</time></trkpt><trkpt lat="45.3840418" lon="7.5644164"><ele>1246.1666666666667</ele><time>2026-04-25T12:29:27.269Z</time></trkpt><trkpt lat="45.3839835" lon="7.5644804"><ele>1248.0</ele><time>2026-04-25T12:29:28.277Z</time></trkpt><trkpt lat="45.3839214" lon="7.5645478"><ele>1245.4</ele><time>2026-04-25T12:29:29.271Z</time></trkpt><trkpt lat="45.3838528" lon="7.5646175"><ele>1242.8</ele><time>2026-04-25T12:29:30.274Z</time></trkpt><trkpt lat="45.3837741" lon="7.5646833"><ele>1240.2</ele><time>2026-04-25T12:29:31.28Z</time></trkpt><trkpt lat="45.3836746" lon="7.5647579"><ele>1237.6</ele><time>2026-04-25T12:29:32.279Z</time></trkpt><trkpt lat="45.3835926" lon="7.5648249"><ele>1235.0</ele><time>2026-04-25T12:29:33.275Z</time></trkpt><trkpt lat="45.3835023" lon="7.5648959"><ele>1235.0</ele><time>2026-04-25T12:29:34.273Z</time></trkpt><trkpt lat="45.3834319" lon="7.5649626"><ele>1235.0</ele><time>2026-04-25T12:29:35.268Z</time></trkpt><trkpt lat="45.3833853" lon="7.5650416"><ele>1235.0</ele><time>2026-04-25T12:29:36.276Z</time></trkpt><trkpt lat="45.3833428" lon="7.5651161"><ele>1235.0</ele><time>2026-04-25T12:29:37.276Z</time></trkpt><trkpt lat="45.3832818" lon="7.5652512"><ele>1235.0</ele><time>2026-04-25T12:29:39.28Z</time></trkpt><trkpt lat="45.3832138" lon="7.5654075"><ele>1232.3333333333335</ele><time>2026-04-25T12:29:41.276Z</time></trkpt><trkpt lat="45.3831733" lon="7.5654981"><ele>1229.6666666666667</ele><time>2026-04-25T12:29:42.279Z</time></trkpt><trkpt lat="45.3831406" lon="7.5655911"><ele>1227.0</ele><time>2026-04-25T12:29:43.276Z</time></trkpt><trkpt lat="45.3831057" lon="7.56568"><ele>1224.3333333333333</ele><time>2026-04-25T12:29:44.278Z</time></trkpt><trkpt lat="45.3830633" lon="7.5657632"><ele>1221.6666666666665</ele><time>2026-04-25T12:29:45.277Z</time></trkpt><trkpt lat="45.3829772" lon="7.5658737"><ele>1219.0</ele><time>2026-04-25T12:29:47.279Z</time></trkpt><trkpt lat="45.3829268" lon="7.5659331"><ele>1219.0</ele><time>2026-04-25T12:29:48.279Z</time></trkpt><trkpt lat="45.3828695" lon="7.5659785"><ele>1219.0</ele><time>2026-04-25T12:29:49.277Z</time></trkpt><trkpt lat="45.3827513" lon="7.5660277"><ele>1219.0</ele><time>2026-04-25T12:29:51.27Z</time></trkpt><trkpt lat="45.382666" lon="7.5660577"><ele>1219.0</ele><time>2026-04-25T12:29:52.266Z</time></trkpt><trkpt lat="45.3825836" lon="7.5660343"><ele>1219.0</ele><time>2026-04-25T12:29:53.276Z</time></trkpt><trkpt lat="45.3824676" lon="7.5660144"><ele>1219.0</ele><time>2026-04-25T12:29:54.277Z</time></trkpt><trkpt lat="45.382364" lon="7.5660237"><ele>1219.0</ele><time>2026-04-25T12:29:55.268Z</time></trkpt><trkpt lat="45.3822707" lon="7.5660371"><ele>1219.0</ele><time>2026-04-25T12:29:56.272Z</time></trkpt><trkpt lat="45.3821745" lon="7.5660348"><ele>1219.0</ele><time>2026-04-25T12:29:57.279Z</time></trkpt><trkpt lat="45.3821063" lon="7.566022"><ele>1219.0</ele><time>2026-04-25T12:29:58.281Z</time></trkpt><trkpt lat="45.3820309" lon="7.5659902"><ele>1219.0</ele><time>2026-04-25T12:29:59.281Z</time></trkpt><trkpt lat="45.3819522" lon="7.5659465"><ele>1218.0</ele><time>2026-04-25T12:30:00.276Z</time></trkpt><trkpt lat="45.3818616" lon="7.5658522"><ele>1217.0</ele><time>2026-04-25T12:30:01.266Z</time></trkpt><trkpt lat="45.3817588" lon="7.5657924"><ele>1216.0</ele><time>2026-04-25T12:30:02.265Z</time></trkpt><trkpt lat="45.3816477" lon="7.5657411"><ele>1215.0</ele><time>2026-04-25T12:30:03.275Z</time></trkpt><trkpt lat="45.3815479" lon="7.5656992"><ele>1214.0</ele><time>2026-04-25T12:30:04.284Z</time></trkpt><trkpt lat="45.3814529" lon="7.5656481"><ele>1214.0</ele><time>2026-04-25T12:30:05.271Z</time></trkpt><trkpt lat="45.3813728" lon="7.5656031"><ele>1214.0</ele><time>2026-04-25T12:30:06.276Z</time></trkpt><trkpt lat="45.3812926" lon="7.5655577"><ele>1214.0</ele><time>2026-04-25T12:30:07.287Z</time></trkpt><trkpt lat="45.3812086" lon="7.5655274"><ele>1214.0</ele><time>2026-04-25T12:30:08.287Z</time></trkpt><trkpt lat="45.3811185" lon="7.5655165"><ele>1214.0</ele><time>2026-04-25T12:30:09.284Z</time></trkpt><trkpt lat="45.3810312" lon="7.5655104"><ele>1214.0</ele><time>2026-04-25T12:30:10.29Z</time></trkpt><trkpt lat="45.3809501" lon="7.5655436"><ele>1211.6000000000001</ele><time>2026-04-25T12:30:11.295Z</time></trkpt><trkpt lat="45.3808903" lon="7.5656334"><ele>1209.2</ele><time>2026-04-25T12:30:12.291Z</time></trkpt><trkpt lat="45.3808429" lon="7.5657666"><ele>1206.8000000000002</ele><time>2026-04-25T12:30:13.286Z</time></trkpt><trkpt lat="45.3808064" lon="7.5659122"><ele>1204.4</ele><time>2026-04-25T12:30:14.283Z</time></trkpt><trkpt lat="45.3807748" lon="7.5660437"><ele>1202.0</ele><time>2026-04-25T12:30:15.29Z</time></trkpt><trkpt lat="45.3807789" lon="7.5661758"><ele>1198.6666666666667</ele><time>2026-04-25T12:30:16.278Z</time></trkpt><trkpt lat="45.3807916" lon="7.5663096"><ele>1195.3333333333333</ele><time>2026-04-25T12:30:17.286Z</time></trkpt><trkpt lat="45.3808035" lon="7.5664142"><ele>1192.0</ele><time>2026-04-25T12:30:18.276Z</time></trkpt><trkpt lat="45.3829772" lon="7.5658737"><ele>1196.5</ele><time>2026-04-25T12:29:47.279Z</time></trkpt><trkpt lat="45.3829268" lon="7.5659331"><ele>1201.0</ele><time>2026-04-25T12:29:48.279Z</time></trkpt><trkpt lat="45.3828695" lon="7.5659785"><ele>1205.5</ele><time>2026-04-25T12:29:49.277Z</time></trkpt><trkpt lat="45.3827513" lon="7.5660277"><ele>1210.0</ele><time>2026-04-25T12:29:51.27Z</time></trkpt><trkpt lat="45.382666" lon="7.5660577"><ele>1214.5</ele><time>2026-04-25T12:29:52.266Z</time></trkpt><trkpt lat="45.3825836" lon="7.5660343"><ele>1219.0</ele><time>2026-04-25T12:29:53.276Z</time></trkpt><trkpt lat="45.3824676" lon="7.5660144"><ele>1219.0</ele><time>2026-04-25T12:29:54.277Z</time></trkpt><trkpt lat="45.382364" lon="7.5660237"><ele>1219.0</ele><time>2026-04-25T12:29:55.268Z</time></trkpt><trkpt lat="45.3822707" lon="7.5660371"><ele>1219.0</ele><time>2026-04-25T12:29:56.272Z</time></trkpt><trkpt lat="45.3821745" lon="7.5660348"><ele>1219.0</ele><time>2026-04-25T12:29:57.279Z</time></trkpt><trkpt lat="45.3821063" lon="7.566022"><ele>1219.0</ele><time>2026-04-25T12:29:58.281Z</time></trkpt><trkpt lat="45.3820309" lon="7.5659902"><ele>1219.0</ele><time>2026-04-25T12:29:59.281Z</time></trkpt><trkpt lat="45.3819522" lon="7.5659465"><ele>1218.0</ele><time>2026-04-25T12:30:00.276Z</time></trkpt><trkpt lat="45.3818616" lon="7.5658522"><ele>1217.0</ele><time>2026-04-25T12:30:01.266Z</time></trkpt><trkpt lat="45.3817588" lon="7.5657924"><ele>1216.0</ele><time>2026-04-25T12:30:02.265Z</time></trkpt><trkpt lat="45.3816477" lon="7.5657411"><ele>1215.0</ele><time>2026-04-25T12:30:03.275Z</time></trkpt><trkpt lat="45.3815479" lon="7.5656992"><ele>1214.0</ele><time>2026-04-25T12:30:04.284Z</time></trkpt><trkpt lat="45.3814529" lon="7.5656481"><ele>1214.0</ele><time>2026-04-25T12:30:05.271Z</time></trkpt><trkpt lat="45.3813728" lon="7.5656031"><ele>1214.0</ele><time>2026-04-25T12:30:06.276Z</time></trkpt><trkpt lat="45.3812926" lon="7.5655577"><ele>1214.0</ele><time>2026-04-25T12:30:07.287Z</time></trkpt><trkpt lat="45.3812086" lon="7.5655274"><ele>1214.0</ele><time>2026-04-25T12:30:08.287Z</time></trkpt><trkpt lat="45.3811185" lon="7.5655165"><ele>1214.0</ele><time>2026-04-25T12:30:09.284Z</time></trkpt><trkpt lat="45.3810312" lon="7.5655104"><ele>1214.0</ele><time>2026-04-25T12:30:10.29Z</time></trkpt><trkpt lat="45.3809501" lon="7.5655436"><ele>1211.6000000000001</ele><time>2026-04-25T12:30:11.295Z</time></trkpt><trkpt lat="45.3808903" lon="7.5656334"><ele>1209.2</ele><time>2026-04-25T12:30:12.291Z</time></trkpt><trkpt lat="45.3808429" lon="7.5657666"><ele>1206.8000000000002</ele><time>2026-04-25T12:30:13.286Z</time></trkpt><trkpt lat="45.3808064" lon="7.5659122"><ele>1204.4</ele><time>2026-04-25T12:30:14.283Z</time></trkpt><trkpt lat="45.3807748" lon="7.5660437"><ele>1202.0</ele><time>2026-04-25T12:30:15.29Z</time></trkpt><trkpt lat="45.3807789" lon="7.5661758"><ele>1200.3333333333335</ele><time>2026-04-25T12:30:16.278Z</time></trkpt><trkpt lat="45.3807916" lon="7.5663096"><ele>1198.6666666666667</ele><time>2026-04-25T12:30:17.286Z</time></trkpt><trkpt lat="45.3808035" lon="7.5664142"><ele>1197.0</ele><time>2026-04-25T12:30:18.276Z</time></trkpt><trkpt lat="45.3808026" lon="7.5665577"><ele>1195.3333333333333</ele><time>2026-04-25T12:30:20.279Z</time></trkpt><trkpt lat="45.38082" lon="7.5666646"><ele>1193.6666666666665</ele><time>2026-04-25T12:30:23.291Z</time></trkpt><trkpt lat="45.3809092" lon="7.5666537"><ele>1192.0</ele><time>2026-04-25T12:30:25.305Z</time></trkpt><trkpt lat="45.380998" lon="7.566533"><ele>1192.0</ele><time>2026-04-25T12:30:27.294Z</time></trkpt><trkpt lat="45.3810589" lon="7.5664264"><ele>1192.0</ele><time>2026-04-25T12:30:28.286Z</time></trkpt><trkpt lat="45.3811268" lon="7.5663309"><ele>1192.0</ele><time>2026-04-25T12:30:29.29Z</time></trkpt><trkpt lat="45.3812139" lon="7.5662504"><ele>1192.0</ele><time>2026-04-25T12:30:30.296Z</time></trkpt><trkpt lat="45.3812959" lon="7.5662013"><ele>1192.0</ele><time>2026-04-25T12:30:31.285Z</time></trkpt><trkpt lat="45.3813721" lon="7.5661786"><ele>1192.0</ele><time>2026-04-25T12:30:33.285Z</time></trkpt><trkpt lat="45.3813842" lon="7.5662988"><ele>1192.0</ele><time>2026-04-25T12:30:35.275Z</time></trkpt><trkpt lat="45.3813518" lon="7.5664023"><ele>1192.0</ele><time>2026-04-25T12:30:36.274Z</time></trkpt><trkpt lat="45.3812887" lon="7.566502"><ele>1192.0</ele><time>2026-04-25T12:30:37.279Z</time></trkpt><trkpt lat="45.3812354" lon="7.5666114"><ele>1192.0</ele><time>2026-04-25T12:30:38.281Z</time></trkpt><trkpt lat="45.3812038" lon="7.5667157"><ele>1192.0</ele><time>2026-04-25T12:30:39.283Z</time></trkpt><trkpt lat="45.3811777" lon="7.5668023"><ele>1192.0</ele><time>2026-04-25T12:30:40.274Z</time></trkpt><trkpt lat="45.3811135" lon="7.5669551"><ele>1192.0</ele><time>2026-04-25T12:30:42.267Z</time></trkpt><trkpt lat="45.3810685" lon="7.5670555"><ele>1192.0</ele><time>2026-04-25T12:30:44.273Z</time></trkpt><trkpt lat="45.3810356" lon="7.5671974"><ele>1192.0</ele><time>2026-04-25T12:30:47.279Z</time></trkpt><trkpt lat="45.380992" lon="7.567346"><ele>1192.0</ele><time>2026-04-25T12:30:49.278Z</time></trkpt><trkpt lat="45.3809755" lon="7.567444"><ele>1190.4</ele><time>2026-04-25T12:30:50.27Z</time></trkpt><trkpt lat="45.3809514" lon="7.5675589"><ele>1188.8000000000002</ele><time>2026-04-25T12:30:51.268Z</time></trkpt><trkpt lat="45.3809243" lon="7.5676937"><ele>1187.2</ele><time>2026-04-25T12:30:52.278Z</time></trkpt><trkpt lat="45.3809102" lon="7.5678405"><ele>1185.6000000000001</ele><time>2026-04-25T12:30:53.28Z</time></trkpt><trkpt lat="45.3809018" lon="7.567965"><ele>1184.0</ele><time>2026-04-25T12:30:54.278Z</time></trkpt><trkpt lat="45.38089" lon="7.5680857"><ele>1181.1666666666667</ele><time>2026-04-25T12:30:55.276Z</time></trkpt><trkpt lat="45.3808512" lon="7.5681977"><ele>1178.3333333333335</ele><time>2026-04-25T12:30:56.286Z</time></trkpt><trkpt lat="45.3807926" lon="7.5683005"><ele>1175.5</ele><time>2026-04-25T12:30:57.279Z</time></trkpt><trkpt lat="45.3807314" lon="7.5683856"><ele>1172.6666666666667</ele><time>2026-04-25T12:30:58.279Z</time></trkpt><trkpt lat="45.3806768" lon="7.5684595"><ele>1169.8333333333333</ele><time>2026-04-25T12:30:59.28Z</time></trkpt><trkpt lat="45.3806226" lon="7.5685254"><ele>1167.0</ele><time>2026-04-25T12:31:00.288Z</time></trkpt><trkpt lat="45.3805258" lon="7.5686281"><ele>1166.0</ele><time>2026-04-25T12:31:02.277Z</time></trkpt><trkpt lat="45.3804272" lon="7.5686981"><ele>1165.0</ele><time>2026-04-25T12:31:04.27Z</time></trkpt><trkpt lat="45.3803577" lon="7.5687253"><ele>1164.0</ele><time>2026-04-25T12:31:05.278Z</time></trkpt><trkpt lat="45.3802865" lon="7.5687338"><ele>1163.0</ele><time>2026-04-25T12:31:06.273Z</time></trkpt><trkpt lat="45.3801686" lon="7.5687009"><ele>1162.0</ele><time>2026-04-25T12:31:08.269Z</time></trkpt><trkpt lat="45.3801069" lon="7.5686527"><ele>1161.0</ele><time>2026-04-25T12:31:09.264Z</time></trkpt><trkpt lat="45.3800219" lon="7.5685906"><ele>1161.0</ele><time>2026-04-25T12:31:10.267Z</time></trkpt><trkpt lat="45.3799399" lon="7.5685202"><ele>1161.0</ele><time>2026-04-25T12:31:11.269Z</time></trkpt><trkpt lat="45.3798723" lon="7.5684737"><ele>1161.0</ele><time>2026-04-25T12:31:12.27Z</time></trkpt><trkpt lat="45.3798025" lon="7.5684028"><ele>1161.0</ele><time>2026-04-25T12:31:13.276Z</time></trkpt><trkpt lat="45.3797245" lon="7.5683213"><ele>1161.0</ele><time>2026-04-25T12:31:14.268Z</time></trkpt><trkpt lat="45.3796558" lon="7.568259"><ele>1161.0</ele><time>2026-04-25T12:31:15.275Z</time></trkpt><trkpt lat="45.3795873" lon="7.56819"><ele>1156.3333333333333</ele><time>2026-04-25T12:31:16.277Z</time></trkpt><trkpt lat="45.3795197" lon="7.5681279"><ele>1151.6666666666667</ele><time>2026-04-25T12:31:17.284Z</time></trkpt><trkpt lat="45.379466" lon="7.5680618"><ele>1147.0</ele><time>2026-04-25T12:31:18.288Z</time></trkpt><trkpt lat="45.3794217" lon="7.5679905"><ele>1142.3333333333335</ele><time>2026-04-25T12:31:19.291Z</time></trkpt><trkpt lat="45.3793552" lon="7.5679185"><ele>1137.6666666666667</ele><time>2026-04-25T12:31:20.28Z</time></trkpt><trkpt lat="45.3792843" lon="7.56788"><ele>1133.0</ele><time>2026-04-25T12:31:21.28Z</time></trkpt><trkpt lat="45.3792109" lon="7.5678707"><ele>1133.0</ele><time>2026-04-25T12:31:22.283Z</time></trkpt><trkpt lat="45.3791398" lon="7.5678757"><ele>1133.0</ele><time>2026-04-25T12:31:23.277Z</time></trkpt><trkpt lat="45.3790699" lon="7.5678933"><ele>1133.0</ele><time>2026-04-25T12:31:24.282Z</time></trkpt><trkpt lat="45.379007" lon="7.5678985"><ele>1133.0</ele><time>2026-04-25T12:31:25.284Z</time></trkpt><trkpt lat="45.378905" lon="7.567902"><ele>1133.0</ele><time>2026-04-25T12:31:27.29Z</time></trkpt><trkpt lat="45.3788386" lon="7.5678807"><ele>1133.0</ele><time>2026-04-25T12:31:28.292Z</time></trkpt><trkpt lat="45.3787258" lon="7.5678424"><ele>1128.8333333333335</ele><time>2026-04-25T12:31:30.297Z</time></trkpt><trkpt lat="45.378647" lon="7.5677855"><ele>1124.6666666666667</ele><time>2026-04-25T12:31:32.299Z</time></trkpt><trkpt lat="45.3785996" lon="7.5676648"><ele>1120.5</ele><time>2026-04-25T12:31:34.288Z</time></trkpt><trkpt lat="45.3786087" lon="7.5675002"><ele>1116.3333333333333</ele><time>2026-04-25T12:31:36.291Z</time></trkpt><trkpt lat="45.3786157" lon="7.567405"><ele>1112.1666666666665</ele><time>2026-04-25T12:31:37.289Z</time></trkpt><trkpt lat="45.3786236" lon="7.5673157"><ele>1108.0</ele><time>2026-04-25T12:31:38.284Z</time></trkpt><trkpt lat="45.3786609" lon="7.5671983"><ele>1108.0</ele><time>2026-04-25T12:31:40.281Z</time></trkpt><trkpt lat="45.378628" lon="7.5671165"><ele>1108.0</ele><time>2026-04-25T12:31:43.273Z</time></trkpt><trkpt lat="45.3785438" lon="7.5672306"><ele>1108.0</ele><time>2026-04-25T12:31:45.267Z</time></trkpt><trkpt lat="45.378507" lon="7.5673214"><ele>1108.0</ele><time>2026-04-25T12:31:46.274Z</time></trkpt><trkpt lat="45.3784716" lon="7.5674279"><ele>1108.0</ele><time>2026-04-25T12:31:47.273Z</time></trkpt><trkpt lat="45.3784387" lon="7.5675549"><ele>1108.0</ele><time>2026-04-25T12:31:48.267Z</time></trkpt><trkpt lat="45.3783866" lon="7.5676729"><ele>1108.0</ele><time>2026-04-25T12:31:49.262Z</time></trkpt><trkpt lat="45.3783409" lon="7.5677787"><ele>1108.0</ele><time>2026-04-25T12:31:50.276Z</time></trkpt><trkpt lat="45.3782975" lon="7.5679128"><ele>1108.0</ele><time>2026-04-25T12:31:51.281Z</time></trkpt><trkpt lat="45.378269" lon="7.5680525"><ele>1108.0</ele><time>2026-04-25T12:31:52.29Z</time></trkpt><trkpt lat="45.3782561" lon="7.5681764"><ele>1108.0</ele><time>2026-04-25T12:31:53.292Z</time></trkpt><trkpt lat="45.3782362" lon="7.5682801"><ele>1109.0</ele><time>2026-04-25T12:31:54.288Z</time></trkpt><trkpt lat="45.3782156" lon="7.5683755"><ele>1110.0</ele><time>2026-04-25T12:31:55.29Z</time></trkpt><trkpt lat="45.3782854" lon="7.5685121"><ele>1111.0</ele><time>2026-04-25T12:31:57.289Z</time></trkpt><trkpt lat="45.3783692" lon="7.5685478"><ele>1112.0</ele><time>2026-04-25T12:31:58.28Z</time></trkpt><trkpt lat="45.3784512" lon="7.5685838"><ele>1113.0</ele><time>2026-04-25T12:31:59.285Z</time></trkpt><trkpt lat="45.3785474" lon="7.5686057"><ele>1113.0</ele><time>2026-04-25T12:32:00.285Z</time></trkpt><trkpt lat="45.3786429" lon="7.5686476"><ele>1113.0</ele><time>2026-04-25T12:32:01.281Z</time></trkpt><trkpt lat="45.3787226" lon="7.5687066"><ele>1113.0</ele><time>2026-04-25T12:32:02.282Z</time></trkpt><trkpt lat="45.3787878" lon="7.5687783"><ele>1113.0</ele><time>2026-04-25T12:32:03.293Z</time></trkpt><trkpt lat="45.3788429" lon="7.5688569"><ele>1113.0</ele><time>2026-04-25T12:32:04.28Z</time></trkpt><trkpt lat="45.3788786" lon="7.5689515"><ele>1113.0</ele><time>2026-04-25T12:32:05.272Z</time></trkpt><trkpt lat="45.3788748" lon="7.5690606"><ele>1112.5</ele><time>2026-04-25T12:32:06.285Z</time></trkpt><trkpt lat="45.3788513" lon="7.569195"><ele>1112.0</ele><time>2026-04-25T12:32:07.281Z</time></trkpt><trkpt lat="45.3788179" lon="7.5693218"><ele>1111.5</ele><time>2026-04-25T12:32:08.282Z</time></trkpt><trkpt lat="45.3787856" lon="7.5694254"><ele>1111.0</ele><time>2026-04-25T12:32:09.283Z</time></trkpt><trkpt lat="45.3787827" lon="7.5695313"><ele>1110.5</ele><time>2026-04-25T12:32:10.29Z</time></trkpt><trkpt lat="45.3788448" lon="7.5696384"><ele>1110.0</ele><time>2026-04-25T12:32:11.281Z</time></trkpt><trkpt lat="45.3789048" lon="7.5697581"><ele>1110.0</ele><time>2026-04-25T12:32:12.285Z</time></trkpt><trkpt lat="45.3789758" lon="7.569891"><ele>1110.0</ele><time>2026-04-25T12:32:13.286Z</time></trkpt><trkpt lat="45.3790444" lon="7.5700159"><ele>1110.0</ele><time>2026-04-25T12:32:14.286Z</time></trkpt><trkpt lat="45.3791048" lon="7.5701316"><ele>1110.0</ele><time>2026-04-25T12:32:15.284Z</time></trkpt><trkpt lat="45.3791736" lon="7.5702446"><ele>1110.0</ele><time>2026-04-25T12:32:16.284Z</time></trkpt><trkpt lat="45.3792475" lon="7.5703273"><ele>1107.6666666666667</ele><time>2026-04-25T12:32:17.287Z</time></trkpt><trkpt lat="45.3793227" lon="7.5703968"><ele>1105.3333333333333</ele><time>2026-04-25T12:32:18.284Z</time></trkpt><trkpt lat="45.3793701" lon="7.5704689"><ele>1103.0</ele><time>2026-04-25T12:32:19.285Z</time></trkpt><trkpt lat="45.3793871" lon="7.5705584"><ele>1100.6666666666665</ele><time>2026-04-25T12:32:20.283Z</time></trkpt><trkpt lat="45.3793882" lon="7.5707173"><ele>1098.3333333333333</ele><time>2026-04-25T12:32:22.297Z</time></trkpt><trkpt lat="45.3793667" lon="7.5708279"><ele>1096.0</ele><time>2026-04-25T12:32:24.301Z</time></trkpt><trkpt lat="45.3793386" lon="7.5709794"><ele>1096.0</ele><time>2026-04-25T12:32:26.282Z</time></trkpt><trkpt lat="45.3793286" lon="7.5710834"><ele>1096.0</ele><time>2026-04-25T12:32:27.282Z</time></trkpt><trkpt lat="45.3793062" lon="7.5712129"><ele>1096.0</ele><time>2026-04-25T12:32:28.301Z</time></trkpt><trkpt lat="45.3792892" lon="7.5713467"><ele>1096.0</ele><time>2026-04-25T12:32:29.281Z</time></trkpt><trkpt lat="45.3792933" lon="7.5714696"><ele>1096.0</ele><time>2026-04-25T12:32:30.287Z</time></trkpt><trkpt lat="45.3793192" lon="7.5715915"><ele>1096.0</ele><time>2026-04-25T12:32:31.286Z</time></trkpt><trkpt lat="45.3793553" lon="7.5716728"><ele>1095.0</ele><time>2026-04-25T12:32:32.283Z</time></trkpt><trkpt lat="45.3794201" lon="7.5717372"><ele>1094.0</ele><time>2026-04-25T12:32:33.296Z</time></trkpt><trkpt lat="45.3795107" lon="7.5717865"><ele>1093.0</ele><time>2026-04-25T12:32:34.31Z</time></trkpt><trkpt lat="45.3796146" lon="7.5718421"><ele>1092.0</ele><time>2026-04-25T12:32:35.288Z</time></trkpt><trkpt lat="45.3797056" lon="7.5718912"><ele>1091.0</ele><time>2026-04-25T12:32:36.285Z</time></trkpt><trkpt lat="45.3797811" lon="7.5719515"><ele>1090.3333333333335</ele><time>2026-04-25T12:32:37.273Z</time></trkpt><trkpt lat="45.3798525" lon="7.5720003"><ele>1089.6666666666667</ele><time>2026-04-25T12:32:38.286Z</time></trkpt><trkpt lat="45.379929" lon="7.5720344"><ele>1089.0</ele><time>2026-04-25T12:32:40.29Z</time></trkpt><trkpt lat="45.3799949" lon="7.5718835"><ele>1088.3333333333333</ele><time>2026-04-25T12:32:42.275Z</time></trkpt><trkpt lat="45.3800277" lon="7.5717886"><ele>1087.6666666666665</ele><time>2026-04-25T12:32:43.275Z</time></trkpt><trkpt lat="45.3800751" lon="7.5717116"><ele>1087.0</ele><time>2026-04-25T12:32:44.27Z</time></trkpt><trkpt lat="45.3801293" lon="7.5716244"><ele>1087.0</ele><time>2026-04-25T12:32:45.268Z</time></trkpt><trkpt lat="45.3801936" lon="7.5715341"><ele>1087.0</ele><time>2026-04-25T12:32:46.271Z</time></trkpt><trkpt lat="45.38024" lon="7.5714421"><ele>1087.0</ele><time>2026-04-25T12:32:47.263Z</time></trkpt><trkpt lat="45.3802815" lon="7.5713698"><ele>1087.0</ele><time>2026-04-25T12:32:48.262Z</time></trkpt><trkpt lat="45.3803471" lon="7.5713125"><ele>1087.0</ele><time>2026-04-25T12:32:50.27Z</time></trkpt><trkpt lat="45.3803752" lon="7.5714748"><ele>1087.0</ele><time>2026-04-25T12:32:53.27Z</time></trkpt><trkpt lat="45.3803682" lon="7.5715657"><ele>1087.0</ele><time>2026-04-25T12:32:54.273Z</time></trkpt><trkpt lat="45.3803405" lon="7.5716873"><ele>1087.0</ele><time>2026-04-25T12:32:55.277Z</time></trkpt><trkpt lat="45.3803202" lon="7.5718077"><ele>1087.0</ele><time>2026-04-25T12:32:56.271Z</time></trkpt><trkpt lat="45.3803038" lon="7.571956"><ele>1087.0</ele><time>2026-04-25T12:32:57.277Z</time></trkpt><trkpt lat="45.3802903" lon="7.5720876"><ele>1087.0</ele><time>2026-04-25T12:32:58.267Z</time></trkpt><trkpt lat="45.3802656" lon="7.5722001"><ele>1084.6666666666665</ele><time>2026-04-25T12:32:59.281Z</time></trkpt><trkpt lat="45.3802315" lon="7.5723062"><ele>1082.3333333333333</ele><time>2026-04-25T12:33:00.28Z</time></trkpt><trkpt lat="45.3801979" lon="7.5724075"><ele>1080.0</ele><time>2026-04-25T12:33:01.276Z</time></trkpt><trkpt lat="45.3801581" lon="7.5725085"><ele>1077.6666666666667</ele><time>2026-04-25T12:33:02.28Z</time></trkpt><trkpt lat="45.3801187" lon="7.572605"><ele>1075.3333333333335</ele><time>2026-04-25T12:33:03.27Z</time></trkpt><trkpt lat="45.380058" lon="7.5726851"><ele>1073.0</ele><time>2026-04-25T12:33:04.278Z</time></trkpt><trkpt lat="45.3799841" lon="7.5727728"><ele>1073.0</ele><time>2026-04-25T12:33:05.274Z</time></trkpt><trkpt lat="45.3799139" lon="7.5728376"><ele>1073.0</ele><time>2026-04-25T12:33:06.278Z</time></trkpt><trkpt lat="45.3798674" lon="7.5729063"><ele>1073.0</ele><time>2026-04-25T12:33:07.279Z</time></trkpt><trkpt lat="45.3798153" lon="7.572992"><ele>1073.0</ele><time>2026-04-25T12:33:08.275Z</time></trkpt><trkpt lat="45.3797691" lon="7.5730931"><ele>1073.0</ele><time>2026-04-25T12:33:09.279Z</time></trkpt><trkpt lat="45.3797293" lon="7.573176"><ele>1073.0</ele><time>2026-04-25T12:33:10.275Z</time></trkpt><trkpt lat="45.379668" lon="7.5732833"><ele>1069.6666666666667</ele><time>2026-04-25T12:33:12.283Z</time></trkpt><trkpt lat="45.3796223" lon="7.5733817"><ele>1066.3333333333335</ele><time>2026-04-25T12:33:14.278Z</time></trkpt><trkpt lat="45.3796039" lon="7.573494"><ele>1063.0</ele><time>2026-04-25T12:33:16.268Z</time></trkpt><trkpt lat="45.3796716" lon="7.5735039"><ele>1059.6666666666667</ele><time>2026-04-25T12:33:18.277Z</time></trkpt><trkpt lat="45.3797377" lon="7.5734823"><ele>1056.3333333333333</ele><time>2026-04-25T12:33:19.276Z</time></trkpt><trkpt lat="45.3798341" lon="7.5734103"><ele>1053.0</ele><time>2026-04-25T12:33:20.288Z</time></trkpt><trkpt lat="45.3799428" lon="7.5733296"><ele>1053.0</ele><time>2026-04-25T12:33:21.272Z</time></trkpt><trkpt lat="45.3800562" lon="7.5732618"><ele>1053.0</ele><time>2026-04-25T12:33:22.276Z</time></trkpt><trkpt lat="45.380152" lon="7.5731726"><ele>1053.0</ele><time>2026-04-25T12:33:23.279Z</time></trkpt><trkpt lat="45.3802494" lon="7.5730907"><ele>1053.0</ele><time>2026-04-25T12:33:24.273Z</time></trkpt><trkpt lat="45.3803517" lon="7.5730282"><ele>1053.0</ele><time>2026-04-25T12:33:25.27Z</time></trkpt><trkpt lat="45.3804641" lon="7.5729987"><ele>1053.0</ele><time>2026-04-25T12:33:26.271Z</time></trkpt><trkpt lat="45.3805721" lon="7.5729579"><ele>1053.0</ele><time>2026-04-25T12:33:27.262Z</time></trkpt><trkpt lat="45.3806626" lon="7.5728881"><ele>1053.0</ele><time>2026-04-25T12:33:28.265Z</time></trkpt><trkpt lat="45.3807475" lon="7.5728057"><ele>1053.0</ele><time>2026-04-25T12:33:29.271Z</time></trkpt><trkpt lat="45.3808192" lon="7.5727099"><ele>1052.4</ele><time>2026-04-25T12:33:30.278Z</time></trkpt><trkpt lat="45.3809025" lon="7.5726221"><ele>1051.8</ele><time>2026-04-25T12:33:31.27Z</time></trkpt><trkpt lat="45.3809834" lon="7.572506"><ele>1051.2</ele><time>2026-04-25T12:33:32.274Z</time></trkpt><trkpt lat="45.3810619" lon="7.5723881"><ele>1050.6</ele><time>2026-04-25T12:33:33.26Z</time></trkpt><trkpt lat="45.3811427" lon="7.5723076"><ele>1050.0</ele><time>2026-04-25T12:33:34.266Z</time></trkpt><trkpt lat="45.3812205" lon="7.5722478"><ele>1050.0</ele><time>2026-04-25T12:33:35.273Z</time></trkpt><trkpt lat="45.3813006" lon="7.5722045"><ele>1050.0</ele><time>2026-04-25T12:33:36.263Z</time></trkpt><trkpt lat="45.381386" lon="7.5721794"><ele>1050.0</ele><time>2026-04-25T12:33:37.253Z</time></trkpt><trkpt lat="45.3814666" lon="7.5721979"><ele>1050.0</ele><time>2026-04-25T12:33:38.253Z</time></trkpt><trkpt lat="45.3815452" lon="7.5722151"><ele>1050.0</ele><time>2026-04-25T12:33:39.257Z</time></trkpt><trkpt lat="45.3816155" lon="7.5722319"><ele>1050.0</ele><time>2026-04-25T12:33:40.25Z</time></trkpt><trkpt lat="45.381751" lon="7.5722008"><ele>1049.6666666666667</ele><time>2026-04-25T12:33:42.254Z</time></trkpt><trkpt lat="45.3818115" lon="7.5721601"><ele>1049.3333333333333</ele><time>2026-04-25T12:33:43.259Z</time></trkpt><trkpt lat="45.3818715" lon="7.5720883"><ele>1049.0</ele><time>2026-04-25T12:33:44.251Z</time></trkpt><trkpt lat="45.3818989" lon="7.5720027"><ele>1048.6666666666665</ele><time>2026-04-25T12:33:45.254Z</time></trkpt><trkpt lat="45.3819643" lon="7.5718998"><ele>1048.3333333333333</ele><time>2026-04-25T12:33:46.252Z</time></trkpt><trkpt lat="45.3820205" lon="7.5718034"><ele>1048.0</ele><time>2026-04-25T12:33:47.251Z</time></trkpt><trkpt lat="45.3820702" lon="7.5717076"><ele>1048.0</ele><time>2026-04-25T12:33:48.252Z</time></trkpt><trkpt lat="45.3821073" lon="7.5715892"><ele>1048.0</ele><time>2026-04-25T12:33:49.256Z</time></trkpt><trkpt lat="45.3821376" lon="7.5714864"><ele>1048.0</ele><time>2026-04-25T12:33:50.254Z</time></trkpt><trkpt lat="45.3821758" lon="7.5713971"><ele>1048.0</ele><time>2026-04-25T12:33:51.256Z</time></trkpt><trkpt lat="45.382202" lon="7.5712779"><ele>1048.0</ele><time>2026-04-25T12:33:53.255Z</time></trkpt><trkpt lat="45.382267" lon="7.5713041"><ele>1048.0</ele><time>2026-04-25T12:33:56.248Z</time></trkpt><trkpt lat="45.3822458" lon="7.5713964"><ele>1048.0</ele><time>2026-04-25T12:33:58.26Z</time></trkpt><trkpt lat="45.382234" lon="7.5714953"><ele>1048.0</ele><time>2026-04-25T12:33:59.245Z</time></trkpt><trkpt lat="45.3821838" lon="7.5716236"><ele>1048.0</ele><time>2026-04-25T12:34:00.249Z</time></trkpt><trkpt lat="45.3821436" lon="7.5717051"><ele>1048.0</ele><time>2026-04-25T12:34:01.254Z</time></trkpt><trkpt lat="45.3820551" lon="7.5717584"><ele>1048.0</ele><time>2026-04-25T12:34:02.243Z</time></trkpt><trkpt lat="45.3820439" lon="7.5718613"><ele>1048.0</ele><time>2026-04-25T12:34:03.244Z</time></trkpt><trkpt lat="45.3820718" lon="7.5720074"><ele>1044.1666666666665</ele><time>2026-04-25T12:34:04.239Z</time></trkpt><trkpt lat="45.3820984" lon="7.5720955"><ele>1040.3333333333333</ele><time>2026-04-25T12:34:05.243Z</time></trkpt><trkpt lat="45.3821778" lon="7.5722398"><ele>1036.5</ele><time>2026-04-25T12:34:06.264Z</time></trkpt><trkpt lat="45.3821718" lon="7.5723554"><ele>1032.6666666666667</ele><time>2026-04-25T12:34:07.257Z</time></trkpt><trkpt lat="45.3821605" lon="7.5724658"><ele>1028.8333333333335</ele><time>2026-04-25T12:34:08.258Z</time></trkpt><trkpt lat="45.3821468" lon="7.5725599"><ele>1025.0</ele><time>2026-04-25T12:34:09.253Z</time></trkpt><trkpt lat="45.3821246" lon="7.5726675"><ele>1025.0</ele><time>2026-04-25T12:34:10.246Z</time></trkpt><trkpt lat="45.3820605" lon="7.5727544"><ele>1025.0</ele><time>2026-04-25T12:34:11.255Z</time></trkpt><trkpt lat="45.3819732" lon="7.5728618"><ele>1025.0</ele><time>2026-04-25T12:34:12.257Z</time></trkpt><trkpt lat="45.3818604" lon="7.5729932"><ele>1025.0</ele><time>2026-04-25T12:34:13.264Z</time></trkpt><trkpt lat="45.381776" lon="7.5731398"><ele>1020.2</ele><time>2026-04-25T12:34:14.262Z</time></trkpt><trkpt lat="45.3816933" lon="7.573265"><ele>1015.4</ele><time>2026-04-25T12:34:15.257Z</time></trkpt><trkpt lat="45.3816294" lon="7.5733736"><ele>1010.5999999999999</ele><time>2026-04-25T12:34:16.263Z</time></trkpt><trkpt lat="45.3815636" lon="7.5734371"><ele>1005.8</ele><time>2026-04-25T12:34:17.261Z</time></trkpt><trkpt lat="45.3814888" lon="7.5735104"><ele>1001.0</ele><time>2026-04-25T12:34:18.26Z</time></trkpt><trkpt lat="45.3814285" lon="7.573597"><ele>1001.75</ele><time>2026-04-25T12:34:19.258Z</time></trkpt><trkpt lat="45.3813578" lon="7.5737053"><ele>1002.5</ele><time>2026-04-25T12:34:20.258Z</time></trkpt><trkpt lat="45.3812819" lon="7.5738534"><ele>1003.25</ele><time>2026-04-25T12:34:21.263Z</time></trkpt><trkpt lat="45.3812046" lon="7.574002"><ele>1004.0</ele><time>2026-04-25T12:34:22.275Z</time></trkpt><trkpt lat="45.3811289" lon="7.5741503"><ele>1004.0</ele><time>2026-04-25T12:34:23.272Z</time></trkpt><trkpt lat="45.3810683" lon="7.574269"><ele>1004.0000000000001</ele><time>2026-04-25T12:34:24.275Z</time></trkpt><trkpt lat="45.381026" lon="7.5744127"><ele>1004.0000000000001</ele><time>2026-04-25T12:34:25.272Z</time></trkpt><trkpt lat="45.38099" lon="7.5745571"><ele>1004.0</ele><time>2026-04-25T12:34:26.269Z</time></trkpt><trkpt lat="45.3809421" lon="7.5747022"><ele>1004.0</ele><time>2026-04-25T12:34:27.27Z</time></trkpt><trkpt lat="45.3809001" lon="7.5748432"><ele>999.5</ele><time>2026-04-25T12:34:28.273Z</time></trkpt><trkpt lat="45.380874" lon="7.5749905"><ele>995.0</ele><time>2026-04-25T12:34:29.273Z</time></trkpt><trkpt lat="45.3808513" lon="7.5751577"><ele>990.5</ele><time>2026-04-25T12:34:30.279Z</time></trkpt><trkpt lat="45.3808454" lon="7.5753275"><ele>986.0</ele><time>2026-04-25T12:34:31.269Z</time></trkpt><trkpt lat="45.380832" lon="7.575476"><ele>987.1999999999999</ele><time>2026-04-25T12:34:32.274Z</time></trkpt><trkpt lat="45.3808062" lon="7.5755937"><ele>988.3999999999999</ele><time>2026-04-25T12:34:33.268Z</time></trkpt><trkpt lat="45.3807545" lon="7.5757196"><ele>989.6</ele><time>2026-04-25T12:34:34.265Z</time></trkpt><trkpt lat="45.3806641" lon="7.5758467"><ele>990.8</ele><time>2026-04-25T12:34:35.263Z</time></trkpt><trkpt lat="45.3805755" lon="7.5759371"><ele>992.0</ele><time>2026-04-25T12:34:36.268Z</time></trkpt><trkpt lat="45.3805076" lon="7.5759978"><ele>992.0000000000001</ele><time>2026-04-25T12:34:37.268Z</time></trkpt><trkpt lat="45.3804428" lon="7.5760426"><ele>992.0</ele><time>2026-04-25T12:34:38.262Z</time></trkpt><trkpt lat="45.3803827" lon="7.5760754"><ele>992.0</ele><time>2026-04-25T12:34:39.263Z</time></trkpt><trkpt lat="45.3803354" lon="7.5761437"><ele>992.0</ele><time>2026-04-25T12:34:41.27Z</time></trkpt><trkpt lat="45.3804212" lon="7.5761573"><ele>992.0000000000001</ele><time>2026-04-25T12:34:43.269Z</time></trkpt><trkpt lat="45.3805212" lon="7.576109"><ele>992.0</ele><time>2026-04-25T12:34:45.275Z</time></trkpt><trkpt lat="45.3805981" lon="7.576056"><ele>988.8333333333334</ele><time>2026-04-25T12:34:48.272Z</time></trkpt><trkpt lat="45.3806688" lon="7.5759886"><ele>985.6666666666667</ele><time>2026-04-25T12:35:19.286Z</time></trkpt><trkpt lat="45.3807283" lon="7.5759582"><ele>982.5</ele><time>2026-04-25T12:35:21.287Z</time></trkpt><trkpt lat="45.3808357" lon="7.575933"><ele>979.3333333333333</ele><time>2026-04-25T12:35:23.293Z</time></trkpt><trkpt lat="45.3808946" lon="7.5758882"><ele>976.1666666666666</ele><time>2026-04-25T12:35:24.294Z</time></trkpt><trkpt lat="45.3809659" lon="7.5758157"><ele>973.0</ele><time>2026-04-25T12:35:25.276Z</time></trkpt><trkpt lat="45.3810342" lon="7.5757263"><ele>973.0</ele><time>2026-04-25T12:35:26.279Z</time></trkpt><trkpt lat="45.3811163" lon="7.5756629"><ele>973.0</ele><time>2026-04-25T12:35:27.274Z</time></trkpt><trkpt lat="45.3811906" lon="7.5756488"><ele>973.0</ele><time>2026-04-25T12:35:28.273Z</time></trkpt><trkpt lat="45.3813018" lon="7.5756684"><ele>973.0</ele><time>2026-04-25T12:35:30.268Z</time></trkpt><trkpt lat="45.3812955" lon="7.5758157"><ele>973.0</ele><time>2026-04-25T12:35:32.278Z</time></trkpt><trkpt lat="45.3812304" lon="7.5759054"><ele>973.0</ele><time>2026-04-25T12:35:33.272Z</time></trkpt><trkpt lat="45.3811616" lon="7.5760154"><ele>973.0</ele><time>2026-04-25T12:35:34.278Z</time></trkpt><trkpt lat="45.3810893" lon="7.5761795"><ele>973.0</ele><time>2026-04-25T12:35:35.276Z</time></trkpt><trkpt lat="45.3810278" lon="7.5763654"><ele>973.0</ele><time>2026-04-25T12:35:36.272Z</time></trkpt><trkpt lat="45.3809918" lon="7.5765585"><ele>967.75</ele><time>2026-04-25T12:35:37.273Z</time></trkpt><trkpt lat="45.3809561" lon="7.5767364"><ele>962.5</ele><time>2026-04-25T12:35:38.273Z</time></trkpt><trkpt lat="45.3809166" lon="7.576907"><ele>957.25</ele><time>2026-04-25T12:35:39.286Z</time></trkpt><trkpt lat="45.3808684" lon="7.5770584"><ele>952.0</ele><time>2026-04-25T12:35:40.266Z</time></trkpt><trkpt lat="45.3807973" lon="7.5772148"><ele>947.6</ele><time>2026-04-25T12:35:41.264Z</time></trkpt><trkpt lat="45.3807224" lon="7.5773532"><ele>943.2</ele><time>2026-04-25T12:35:42.267Z</time></trkpt><trkpt lat="45.3806339" lon="7.5774423"><ele>938.8</ele><time>2026-04-25T12:35:43.263Z</time></trkpt><trkpt lat="45.3805537" lon="7.5774746"><ele>934.4</ele><time>2026-04-25T12:35:44.269Z</time></trkpt><trkpt lat="45.3804793" lon="7.5774779"><ele>930.0</ele><time>2026-04-25T12:35:45.273Z</time></trkpt><trkpt lat="45.3804247" lon="7.5775515"><ele>929.8333333333334</ele><time>2026-04-25T12:35:47.268Z</time></trkpt><trkpt lat="45.3805261" lon="7.5776232"><ele>929.6666666666667</ele><time>2026-04-25T12:35:49.27Z</time></trkpt><trkpt lat="45.3805984" lon="7.5776464"><ele>929.5</ele><time>2026-04-25T12:35:50.271Z</time></trkpt><trkpt lat="45.3806744" lon="7.5776567"><ele>929.3333333333334</ele><time>2026-04-25T12:35:51.265Z</time></trkpt><trkpt lat="45.3807409" lon="7.577678"><ele>929.1666666666667</ele><time>2026-04-25T12:35:52.27Z</time></trkpt><trkpt lat="45.3807827" lon="7.5777451"><ele>929.0</ele><time>2026-04-25T12:35:55.264Z</time></trkpt><trkpt lat="45.3807253" lon="7.5778667"><ele>924.2</ele><time>2026-04-25T12:35:57.264Z</time></trkpt><trkpt lat="45.380647" lon="7.577866"><ele>919.4000000000001</ele><time>2026-04-25T12:35:58.255Z</time></trkpt><trkpt lat="45.3805706" lon="7.5778835"><ele>914.6</ele><time>2026-04-25T12:35:59.26Z</time></trkpt><trkpt lat="45.3804625" lon="7.5779188"><ele>909.8</ele><time>2026-04-25T12:36:00.256Z</time></trkpt><trkpt lat="45.3803158" lon="7.5779596"><ele>905.0</ele><time>2026-04-25T12:36:01.255Z</time></trkpt><trkpt lat="45.3801504" lon="7.5779945"><ele>904.0</ele><time>2026-04-25T12:36:02.244Z</time></trkpt><trkpt lat="45.379947" lon="7.5780262"><ele>903.0</ele><time>2026-04-25T12:36:03.257Z</time></trkpt><trkpt lat="45.3798111" lon="7.578094"><ele>902.0</ele><time>2026-04-25T12:36:04.257Z</time></trkpt><trkpt lat="45.3796946" lon="7.578143"><ele>899.5</ele><time>2026-04-25T12:36:05.267Z</time></trkpt><trkpt lat="45.3795992" lon="7.578178"><ele>897.0</ele><time>2026-04-25T12:36:06.261Z</time></trkpt><trkpt lat="45.3794999" lon="7.5781892"><ele>894.5</ele><time>2026-04-25T12:36:07.26Z</time></trkpt><trkpt lat="45.379366" lon="7.5781704"><ele>892.0</ele><time>2026-04-25T12:36:08.259Z</time></trkpt><trkpt lat="45.3792239" lon="7.5781174"><ele>892.0</ele><time>2026-04-25T12:36:09.262Z</time></trkpt><trkpt lat="45.3790901" lon="7.5780865"><ele>892.0</ele><time>2026-04-25T12:36:10.272Z</time></trkpt><trkpt lat="45.3789586" lon="7.5780817"><ele>892.0</ele><time>2026-04-25T12:36:11.276Z</time></trkpt><trkpt lat="45.3788194" lon="7.5781266"><ele>892.0</ele><time>2026-04-25T12:36:12.268Z</time></trkpt><trkpt lat="45.3786974" lon="7.5782065"><ele>891.6</ele><time>2026-04-25T12:36:13.272Z</time></trkpt><trkpt lat="45.3785862" lon="7.578267"><ele>891.2</ele><time>2026-04-25T12:36:14.267Z</time></trkpt><trkpt lat="45.3784892" lon="7.5783161"><ele>890.8</ele><time>2026-04-25T12:36:15.275Z</time></trkpt><trkpt lat="45.3783914" lon="7.5782933"><ele>890.4</ele><time>2026-04-25T12:36:16.269Z</time></trkpt><trkpt lat="45.3782968" lon="7.5782672"><ele>890.0</ele><time>2026-04-25T12:36:17.272Z</time></trkpt><trkpt lat="45.3782174" lon="7.5782688"><ele>890.0000000000001</ele><time>2026-04-25T12:36:18.267Z</time></trkpt><trkpt lat="45.3781635" lon="7.5783156"><ele>890.0</ele><time>2026-04-25T12:36:19.267Z</time></trkpt><trkpt lat="45.378108" lon="7.5784253"><ele>890.0</ele><time>2026-04-25T12:36:21.257Z</time></trkpt><trkpt lat="45.3780644" lon="7.5784985"><ele>890.0</ele><time>2026-04-25T12:36:23.274Z</time></trkpt><trkpt lat="45.3779574" lon="7.5785118"><ele>890.0000000000001</ele><time>2026-04-25T12:36:25.264Z</time></trkpt><trkpt lat="45.3778781" lon="7.5785174"><ele>890.0</ele><time>2026-04-25T12:36:26.268Z</time></trkpt><trkpt lat="45.377782" lon="7.5785273"><ele>890.25</ele><time>2026-04-25T12:36:27.269Z</time></trkpt><trkpt lat="45.3776658" lon="7.5785448"><ele>890.5</ele><time>2026-04-25T12:36:28.265Z</time></trkpt><trkpt lat="45.3775332" lon="7.5785736"><ele>890.75</ele><time>2026-04-25T12:36:29.261Z</time></trkpt><trkpt lat="45.377394" lon="7.5786287"><ele>891.0</ele><time>2026-04-25T12:36:30.267Z</time></trkpt><trkpt lat="45.377247" lon="7.5786941"><ele>885.0</ele><time>2026-04-25T12:36:31.266Z</time></trkpt><trkpt lat="45.3771275" lon="7.5788323"><ele>879.0</ele><time>2026-04-25T12:36:32.255Z</time></trkpt><trkpt lat="45.3769996" lon="7.578938"><ele>873.0</ele><time>2026-04-25T12:36:33.259Z</time></trkpt><trkpt lat="45.3769154" lon="7.5790547"><ele>867.0</ele><time>2026-04-25T12:36:34.26Z</time></trkpt><trkpt lat="45.3768065" lon="7.5790482"><ele>867.0</ele><time>2026-04-25T12:36:35.256Z</time></trkpt><trkpt lat="45.3766872" lon="7.5790785"><ele>867.0</ele><time>2026-04-25T12:36:36.26Z</time></trkpt><trkpt lat="45.3765202" lon="7.5792014"><ele>867.0</ele><time>2026-04-25T12:36:37.265Z</time></trkpt><trkpt lat="45.3763754" lon="7.5793435"><ele>865.75</ele><time>2026-04-25T12:36:38.265Z</time></trkpt><trkpt lat="45.3762261" lon="7.5794576"><ele>864.5</ele><time>2026-04-25T12:36:39.265Z</time></trkpt><trkpt lat="45.3761003" lon="7.579486"><ele>863.25</ele><time>2026-04-25T12:36:40.255Z</time></trkpt><trkpt lat="45.3760431" lon="7.579571"><ele>862.0</ele><time>2026-04-25T12:36:41.267Z</time></trkpt><trkpt lat="45.3759505" lon="7.5796238"><ele>857.5</ele><time>2026-04-25T12:36:42.261Z</time></trkpt><trkpt lat="45.375838" lon="7.5796099"><ele>853.0</ele><time>2026-04-25T12:36:43.26Z</time></trkpt><trkpt lat="45.375703" lon="7.5796145"><ele>848.5</ele><time>2026-04-25T12:36:44.279Z</time></trkpt><trkpt lat="45.3755732" lon="7.5796885"><ele>844.0</ele><time>2026-04-25T12:36:45.269Z</time></trkpt><trkpt lat="45.3754533" lon="7.5797927"><ele>841.75</ele><time>2026-04-25T12:36:46.272Z</time></trkpt><trkpt lat="45.3753476" lon="7.5799097"><ele>839.5</ele><time>2026-04-25T12:36:47.273Z</time></trkpt><trkpt lat="45.3752381" lon="7.5800135"><ele>837.25</ele><time>2026-04-25T12:36:48.269Z</time></trkpt><trkpt lat="45.3751383" lon="7.5800963"><ele>835.0</ele><time>2026-04-25T12:36:49.273Z</time></trkpt><trkpt lat="45.3750486" lon="7.580156"><ele>835.0</ele><time>2026-04-25T12:36:50.264Z</time></trkpt><trkpt lat="45.3749672" lon="7.5802357"><ele>835.0</ele><time>2026-04-25T12:36:51.266Z</time></trkpt><trkpt lat="45.3749115" lon="7.5803647"><ele>835.0</ele><time>2026-04-25T12:36:52.28Z</time></trkpt><trkpt lat="45.3748544" lon="7.5805412"><ele>835.0</ele><time>2026-04-25T12:36:53.287Z</time></trkpt><trkpt lat="45.3748012" lon="7.5807449"><ele>833.3333333333333</ele><time>2026-04-25T12:36:54.28Z</time></trkpt><trkpt lat="45.3747593" lon="7.5809768"><ele>831.6666666666667</ele><time>2026-04-25T12:36:55.277Z</time></trkpt><trkpt lat="45.374707" lon="7.5811941"><ele>830.0</ele><time>2026-04-25T12:36:56.272Z</time></trkpt><trkpt lat="45.3746509" lon="7.581362"><ele>826.1666666666667</ele><time>2026-04-25T12:36:57.281Z</time></trkpt><trkpt lat="45.3745795" lon="7.5814544"><ele>822.3333333333334</ele><time>2026-04-25T12:36:58.273Z</time></trkpt><trkpt lat="45.3745289" lon="7.5815368"><ele>818.5</ele><time>2026-04-25T12:36:59.272Z</time></trkpt><trkpt lat="45.3744835" lon="7.5816246"><ele>814.6666666666667</ele><time>2026-04-25T12:37:00.274Z</time></trkpt><trkpt lat="45.3743921" lon="7.5816191"><ele>810.8333333333334</ele><time>2026-04-25T12:37:01.272Z</time></trkpt><trkpt lat="45.3743081" lon="7.5816174"><ele>807.0</ele><time>2026-04-25T12:37:02.272Z</time></trkpt><trkpt lat="45.3741975" lon="7.5816473"><ele>807.0</ele><time>2026-04-25T12:37:04.286Z</time></trkpt><trkpt lat="45.3741618" lon="7.5817793"><ele>807.0</ele><time>2026-04-25T12:37:06.294Z</time></trkpt><trkpt lat="45.3742144" lon="7.5818713"><ele>807.0</ele><time>2026-04-25T12:37:07.285Z</time></trkpt><trkpt lat="45.3742896" lon="7.581944"><ele>807.0</ele><time>2026-04-25T12:37:08.279Z</time></trkpt><trkpt lat="45.3743533" lon="7.5820025"><ele>807.0</ele><time>2026-04-25T12:37:09.279Z</time></trkpt><trkpt lat="45.3744031" lon="7.5820671"><ele>807.0</ele><time>2026-04-25T12:37:10.28Z</time></trkpt><trkpt lat="45.3744758" lon="7.5822345"><ele>805.3333333333334</ele><time>2026-04-25T12:37:12.275Z</time></trkpt><trkpt lat="45.3744086" lon="7.5822813"><ele>803.6666666666667</ele><time>2026-04-25T12:37:17.277Z</time></trkpt><trkpt lat="45.3743937" lon="7.5824293"><ele>802.0</ele><time>2026-04-25T12:37:19.278Z</time></trkpt><trkpt lat="45.3744033" lon="7.5825466"><ele>800.3333333333334</ele><time>2026-04-25T12:37:20.278Z</time></trkpt><trkpt lat="45.3744303" lon="7.5826677"><ele>798.6666666666667</ele><time>2026-04-25T12:37:21.267Z</time></trkpt><trkpt lat="45.3744525" lon="7.5827803"><ele>797.0</ele><time>2026-04-25T12:37:22.279Z</time></trkpt><trkpt lat="45.3744596" lon="7.582879"><ele>794.75</ele><time>2026-04-25T12:37:23.272Z</time></trkpt><trkpt lat="45.374462" lon="7.5829838"><ele>792.5</ele><time>2026-04-25T12:37:24.265Z</time></trkpt><trkpt lat="45.3744118" lon="7.5830877"><ele>790.25</ele><time>2026-04-25T12:37:26.262Z</time></trkpt><trkpt lat="45.3742515" lon="7.5830951"><ele>788.0</ele><time>2026-04-25T12:37:28.269Z</time></trkpt><trkpt lat="45.3741178" lon="7.5830407"><ele>788.0</ele><time>2026-04-25T12:37:29.261Z</time></trkpt><trkpt lat="45.3739828" lon="7.5830144"><ele>788.0</ele><time>2026-04-25T12:37:30.267Z</time></trkpt><trkpt lat="45.3738663" lon="7.582973"><ele>788.0</ele><time>2026-04-25T12:37:31.274Z</time></trkpt><trkpt lat="45.3737476" lon="7.5829605"><ele>788.0</ele><time>2026-04-25T12:37:32.271Z</time></trkpt><trkpt lat="45.3736591" lon="7.5830277"><ele>785.0</ele><time>2026-04-25T12:37:33.275Z</time></trkpt><trkpt lat="45.3735737" lon="7.5830975"><ele>782.0</ele><time>2026-04-25T12:37:34.282Z</time></trkpt><trkpt lat="45.3734841" lon="7.5831628"><ele>779.0</ele><time>2026-04-25T12:37:35.281Z</time></trkpt><trkpt lat="45.3733806" lon="7.5831993"><ele>776.0</ele><time>2026-04-25T12:37:36.272Z</time></trkpt><trkpt lat="45.3732754" lon="7.5832098"><ele>773.0</ele><time>2026-04-25T12:37:37.285Z</time></trkpt><trkpt lat="45.3731932" lon="7.5832056"><ele>773.0</ele><time>2026-04-25T12:37:38.291Z</time></trkpt><trkpt lat="45.3730811" lon="7.5832204"><ele>773.0</ele><time>2026-04-25T12:37:39.28Z</time></trkpt><trkpt lat="45.3730225" lon="7.5832603"><ele>773.0</ele><time>2026-04-25T12:37:40.294Z</time></trkpt><trkpt lat="45.3730588" lon="7.5833819"><ele>773.0</ele><time>2026-04-25T12:37:42.295Z</time></trkpt><trkpt lat="45.373137" lon="7.5834779"><ele>773.0</ele><time>2026-04-25T12:37:43.301Z</time></trkpt><trkpt lat="45.3732448" lon="7.5835952"><ele>771.8</ele><time>2026-04-25T12:37:44.284Z</time></trkpt><trkpt lat="45.3733327" lon="7.5837061"><ele>770.5999999999999</ele><time>2026-04-25T12:37:45.286Z</time></trkpt><trkpt lat="45.373413" lon="7.5838032"><ele>769.4000000000001</ele><time>2026-04-25T12:37:46.282Z</time></trkpt><trkpt lat="45.3734755" lon="7.5838862"><ele>768.2</ele><time>2026-04-25T12:37:47.274Z</time></trkpt><trkpt lat="45.3734999" lon="7.5839692"><ele>767.0</ele><time>2026-04-25T12:37:48.267Z</time></trkpt><trkpt lat="45.3734969" lon="7.5840981"><ele>767.0</ele><time>2026-04-25T12:37:50.274Z</time></trkpt><trkpt lat="45.3734235" lon="7.5841524"><ele>767.0</ele><time>2026-04-25T12:37:52.292Z</time></trkpt><trkpt lat="45.373334" lon="7.5840645"><ele>767.0</ele><time>2026-04-25T12:37:53.299Z</time></trkpt><trkpt lat="45.3732494" lon="7.5839721"><ele>767.0</ele><time>2026-04-25T12:37:54.281Z</time></trkpt><trkpt lat="45.37317" lon="7.5839333"><ele>767.0</ele><time>2026-04-25T12:37:55.276Z</time></trkpt><trkpt lat="45.3730923" lon="7.5839496"><ele>765.2</ele><time>2026-04-25T12:37:56.292Z</time></trkpt><trkpt lat="45.372997" lon="7.5840055"><ele>763.4000000000001</ele><time>2026-04-25T12:37:57.275Z</time></trkpt><trkpt lat="45.3729303" lon="7.5840975"><ele>761.5999999999999</ele><time>2026-04-25T12:37:58.277Z</time></trkpt><trkpt lat="45.3728713" lon="7.5841996"><ele>759.8</ele><time>2026-04-25T12:37:59.268Z</time></trkpt><trkpt lat="45.3728117" lon="7.5843143"><ele>758.0</ele><time>2026-04-25T12:38:00.272Z</time></trkpt><trkpt lat="45.3727402" lon="7.584396"><ele>758.0</ele><time>2026-04-25T12:38:01.272Z</time></trkpt><trkpt lat="45.3726281" lon="7.5844285"><ele>758.0</ele><time>2026-04-25T12:38:02.281Z</time></trkpt><trkpt lat="45.3725042" lon="7.5844621"><ele>758.0</ele><time>2026-04-25T12:38:03.281Z</time></trkpt><trkpt lat="45.3723722" lon="7.5844836"><ele>758.0</ele><time>2026-04-25T12:38:04.285Z</time></trkpt><trkpt lat="45.3722193" lon="7.584495"><ele>754.5</ele><time>2026-04-25T12:38:05.284Z</time></trkpt><trkpt lat="45.3720938" lon="7.5844926"><ele>751.0</ele><time>2026-04-25T12:38:06.278Z</time></trkpt><trkpt lat="45.3719833" lon="7.5844724"><ele>747.5</ele><time>2026-04-25T12:38:07.282Z</time></trkpt><trkpt lat="45.3718864" lon="7.5844122"><ele>744.0</ele><time>2026-04-25T12:38:08.286Z</time></trkpt><trkpt lat="45.3717827" lon="7.5843266"><ele>744.0</ele><time>2026-04-25T12:38:09.293Z</time></trkpt><trkpt lat="45.3716921" lon="7.5842366"><ele>744.0</ele><time>2026-04-25T12:38:10.282Z</time></trkpt><trkpt lat="45.3716231" lon="7.5841482"><ele>744.0</ele><time>2026-04-25T12:38:11.293Z</time></trkpt><trkpt lat="45.3715007" lon="7.58417"><ele>744.0</ele><time>2026-04-25T12:38:13.301Z</time></trkpt><trkpt lat="45.3714381" lon="7.5842675"><ele>744.0</ele><time>2026-04-25T12:38:14.294Z</time></trkpt><trkpt lat="45.3713891" lon="7.5843687"><ele>744.0</ele><time>2026-04-25T12:38:15.289Z</time></trkpt><trkpt lat="45.3713593" lon="7.5844677"><ele>744.0</ele><time>2026-04-25T12:38:16.283Z</time></trkpt><trkpt lat="45.3713555" lon="7.584558"><ele>744.0</ele><time>2026-04-25T12:38:17.282Z</time></trkpt><trkpt lat="45.3713923" lon="7.5846334"><ele>744.0</ele><time>2026-04-25T12:38:18.3Z</time></trkpt><trkpt lat="45.3714707" lon="7.5846834"><ele>744.0</ele><time>2026-04-25T12:38:19.293Z</time></trkpt><trkpt lat="45.3715938" lon="7.5847264"><ele>744.0</ele><time>2026-04-25T12:38:20.287Z</time></trkpt><trkpt lat="45.3717592" lon="7.5847911"><ele>743.0</ele><time>2026-04-25T12:38:21.273Z</time></trkpt><trkpt lat="45.3719378" lon="7.5848538"><ele>742.0</ele><time>2026-04-25T12:38:22.277Z</time></trkpt><trkpt lat="45.3721648" lon="7.5848859"><ele>741.0</ele><time>2026-04-25T12:38:23.271Z</time></trkpt><trkpt lat="45.3723272" lon="7.584933"><ele>741.0</ele><time>2026-04-25T12:38:24.266Z</time></trkpt><trkpt lat="45.3724691" lon="7.5850235"><ele>741.0</ele><time>2026-04-25T12:38:25.258Z</time></trkpt><trkpt lat="45.3725454" lon="7.5851097"><ele>741.0</ele><time>2026-04-25T12:38:26.256Z</time></trkpt><trkpt lat="45.3725918" lon="7.5851861"><ele>741.0</ele><time>2026-04-25T12:38:27.257Z</time></trkpt><trkpt lat="45.3726955" lon="7.5851912"><ele>741.0</ele><time>2026-04-25T12:38:28.266Z</time></trkpt><trkpt lat="45.3727719" lon="7.5851438"><ele>741.0</ele><time>2026-04-25T12:38:29.26Z</time></trkpt><trkpt lat="45.372833" lon="7.5850856"><ele>741.0</ele><time>2026-04-25T12:38:30.265Z</time></trkpt><trkpt lat="45.3729187" lon="7.5851397"><ele>741.0</ele><time>2026-04-25T12:38:32.264Z</time></trkpt><trkpt lat="45.3729194" lon="7.5852401"><ele>741.0</ele><time>2026-04-25T12:38:33.262Z</time></trkpt><trkpt lat="45.3729316" lon="7.5853734"><ele>741.0</ele><time>2026-04-25T12:38:34.26Z</time></trkpt><trkpt lat="45.372962" lon="7.5854915"><ele>741.0</ele><time>2026-04-25T12:38:35.254Z</time></trkpt><trkpt lat="45.3730027" lon="7.5856025"><ele>742.1999999999999</ele><time>2026-04-25T12:38:36.251Z</time></trkpt><trkpt lat="45.3730644" lon="7.5856813"><ele>743.4</ele><time>2026-04-25T12:38:37.264Z</time></trkpt><trkpt lat="45.3730858" lon="7.5857718"><ele>744.6</ele><time>2026-04-25T12:38:38.264Z</time></trkpt><trkpt lat="45.3730316" lon="7.5858737"><ele>745.8</ele><time>2026-04-25T12:38:39.266Z</time></trkpt><trkpt lat="45.3729787" lon="7.5860188"><ele>747.0</ele><time>2026-04-25T12:38:40.259Z</time></trkpt><trkpt lat="45.3728479" lon="7.5861483"><ele>740.25</ele><time>2026-04-25T12:38:41.249Z</time></trkpt><trkpt lat="45.3727499" lon="7.5862575"><ele>733.5</ele><time>2026-04-25T12:38:42.256Z</time></trkpt><trkpt lat="45.3727288" lon="7.5863992"><ele>726.75</ele><time>2026-04-25T12:38:43.255Z</time></trkpt><trkpt lat="45.3727383" lon="7.5865995"><ele>720.0</ele><time>2026-04-25T12:38:44.267Z</time></trkpt><trkpt lat="45.3727725" lon="7.5868139"><ele>719.5</ele><time>2026-04-25T12:38:45.277Z</time></trkpt><trkpt lat="45.3728232" lon="7.5870394"><ele>719.0</ele><time>2026-04-25T12:38:46.265Z</time></trkpt><trkpt lat="45.372828" lon="7.5871959"><ele>718.5</ele><time>2026-04-25T12:38:47.271Z</time></trkpt><trkpt lat="45.3728696" lon="7.5873494"><ele>718.0</ele><time>2026-04-25T12:38:48.27Z</time></trkpt><trkpt lat="45.3729203" lon="7.5874531"><ele>718.0</ele><time>2026-04-25T12:38:49.268Z</time></trkpt><trkpt lat="45.3729681" lon="7.5875674"><ele>718.0</ele><time>2026-04-25T12:38:50.27Z</time></trkpt><trkpt lat="45.3730263" lon="7.5876325"><ele>718.0</ele><time>2026-04-25T12:38:51.285Z</time></trkpt><trkpt lat="45.3729831" lon="7.5877515"><ele>718.0</ele><time>2026-04-25T12:38:53.286Z</time></trkpt><trkpt lat="45.3728699" lon="7.5878828"><ele>718.0</ele><time>2026-04-25T12:38:55.277Z</time></trkpt><trkpt lat="45.3727998" lon="7.5879829"><ele>717.5</ele><time>2026-04-25T12:38:56.286Z</time></trkpt><trkpt lat="45.3726949" lon="7.588104"><ele>717.0</ele><time>2026-04-25T12:38:57.272Z</time></trkpt><trkpt lat="45.3725837" lon="7.5882356"><ele>716.5</ele><time>2026-04-25T12:38:58.276Z</time></trkpt><trkpt lat="45.3724874" lon="7.5883877"><ele>716.0</ele><time>2026-04-25T12:38:59.278Z</time></trkpt><trkpt lat="45.3724178" lon="7.5885451"><ele>713.75</ele><time>2026-04-25T12:39:00.274Z</time></trkpt><trkpt lat="45.3723657" lon="7.5887019"><ele>711.5</ele><time>2026-04-25T12:39:01.263Z</time></trkpt><trkpt lat="45.3723323" lon="7.5889029"><ele>709.25</ele><time>2026-04-25T12:39:02.268Z</time></trkpt><trkpt lat="45.372327" lon="7.5891237"><ele>707.0</ele><time>2026-04-25T12:39:03.281Z</time></trkpt><trkpt lat="45.3723175" lon="7.5893481"><ele>704.75</ele><time>2026-04-25T12:39:04.27Z</time></trkpt><trkpt lat="45.3723578" lon="7.5895963"><ele>702.5</ele><time>2026-04-25T12:39:05.281Z</time></trkpt><trkpt lat="45.3723851" lon="7.5898055"><ele>700.25</ele><time>2026-04-25T12:39:06.281Z</time></trkpt><trkpt lat="45.3723748" lon="7.589958"><ele>698.0</ele><time>2026-04-25T12:39:07.287Z</time></trkpt><trkpt lat="45.3723343" lon="7.590121"><ele>698.0</ele><time>2026-04-25T12:39:08.302Z</time></trkpt><trkpt lat="45.3722624" lon="7.5902795"><ele>698.0</ele><time>2026-04-25T12:39:09.298Z</time></trkpt><trkpt lat="45.3722009" lon="7.5904349"><ele>698.0</ele><time>2026-04-25T12:39:10.298Z</time></trkpt><trkpt lat="45.3721397" lon="7.5905895"><ele>698.0</ele><time>2026-04-25T12:39:11.303Z</time></trkpt><trkpt lat="45.3720719" lon="7.590729"><ele>696.0</ele><time>2026-04-25T12:39:12.296Z</time></trkpt><trkpt lat="45.3720033" lon="7.5908566"><ele>694.0</ele><time>2026-04-25T12:39:13.295Z</time></trkpt><trkpt lat="45.3719267" lon="7.5909839"><ele>692.0</ele><time>2026-04-25T12:39:14.287Z</time></trkpt><trkpt lat="45.3718675" lon="7.5911139"><ele>690.0</ele><time>2026-04-25T12:39:15.286Z</time></trkpt><trkpt lat="45.3718247" lon="7.5912559"><ele>688.0</ele><time>2026-04-25T12:39:16.303Z</time></trkpt><trkpt lat="45.3717687" lon="7.591415"><ele>686.5</ele><time>2026-04-25T12:39:17.297Z</time></trkpt><trkpt lat="45.371719" lon="7.5915789"><ele>685.0</ele><time>2026-04-25T12:39:18.294Z</time></trkpt><trkpt lat="45.3716624" lon="7.5917297"><ele>683.5</ele><time>2026-04-25T12:39:19.289Z</time></trkpt><trkpt lat="45.371591" lon="7.5918609"><ele>682.0</ele><time>2026-04-25T12:39:20.296Z</time></trkpt><trkpt lat="45.3715123" lon="7.5919954"><ele>680.75</ele><time>2026-04-25T12:39:21.294Z</time></trkpt><trkpt lat="45.3714226" lon="7.592151"><ele>679.5</ele><time>2026-04-25T12:39:22.298Z</time></trkpt><trkpt lat="45.3713365" lon="7.5922976"><ele>678.25</ele><time>2026-04-25T12:39:23.297Z</time></trkpt><trkpt lat="45.3712641" lon="7.5924335"><ele>677.0</ele><time>2026-04-25T12:39:24.307Z</time></trkpt><trkpt lat="45.3711917" lon="7.5925652"><ele>673.25</ele><time>2026-04-25T12:39:25.309Z</time></trkpt><trkpt lat="45.3711269" lon="7.5927002"><ele>669.5</ele><time>2026-04-25T12:39:26.303Z</time></trkpt><trkpt lat="45.3710799" lon="7.5928557"><ele>665.75</ele><time>2026-04-25T12:39:27.302Z</time></trkpt><trkpt lat="45.3710412" lon="7.5930287"><ele>662.0</ele><time>2026-04-25T12:39:28.308Z</time></trkpt><trkpt lat="45.3709977" lon="7.593198"><ele>661.5</ele><time>2026-04-25T12:39:29.292Z</time></trkpt><trkpt lat="45.3709538" lon="7.5933241"><ele>661.0</ele><time>2026-04-25T12:39:30.297Z</time></trkpt><trkpt lat="45.3709218" lon="7.5934135"><ele>660.5</ele><time>2026-04-25T12:39:31.294Z</time></trkpt><trkpt lat="45.3708924" lon="7.5935022"><ele>660.0</ele><time>2026-04-25T12:39:32.293Z</time></trkpt><trkpt lat="45.37085" lon="7.5935793"><ele>659.5</ele><time>2026-04-25T12:39:34.291Z</time></trkpt><trkpt lat="45.3708447" lon="7.5937214"><ele>659.0</ele><time>2026-04-25T12:39:37.305Z</time></trkpt><trkpt lat="45.3709652" lon="7.5937485"><ele>659.0</ele><time>2026-04-25T12:39:39.298Z</time></trkpt><trkpt lat="45.3710554" lon="7.5936779"><ele>659.0</ele><time>2026-04-25T12:39:40.302Z</time></trkpt><trkpt lat="45.3711554" lon="7.5935899"><ele>659.0</ele><time>2026-04-25T12:39:41.28Z</time></trkpt><trkpt lat="45.3712654" lon="7.5934914"><ele>659.0</ele><time>2026-04-25T12:39:42.28Z</time></trkpt><trkpt lat="45.3713644" lon="7.5933892"><ele>660.0</ele><time>2026-04-25T12:39:43.273Z</time></trkpt><trkpt lat="45.3714648" lon="7.5932882"><ele>661.0</ele><time>2026-04-25T12:39:44.267Z</time></trkpt><trkpt lat="45.3715757" lon="7.5932153"><ele>662.0</ele><time>2026-04-25T12:39:45.274Z</time></trkpt><trkpt lat="45.3716876" lon="7.5931502"><ele>663.0</ele><time>2026-04-25T12:39:46.269Z</time></trkpt><trkpt lat="45.3717868" lon="7.5931018"><ele>663.0</ele><time>2026-04-25T12:39:47.269Z</time></trkpt><trkpt lat="45.3718661" lon="7.593053"><ele>663.0</ele><time>2026-04-25T12:39:48.267Z</time></trkpt><trkpt lat="45.3719385" lon="7.5930057"><ele>663.0</ele><time>2026-04-25T12:39:49.264Z</time></trkpt><trkpt lat="45.3720009" lon="7.5929506"><ele>663.0</ele><time>2026-04-25T12:39:50.252Z</time></trkpt><trkpt lat="45.3720655" lon="7.5929008"><ele>663.0</ele><time>2026-04-25T12:39:51.261Z</time></trkpt><trkpt lat="45.3721343" lon="7.5928569"><ele>663.0</ele><time>2026-04-25T12:39:52.26Z</time></trkpt><trkpt lat="45.3722105" lon="7.5928311"><ele>663.2</ele><time>2026-04-25T12:39:53.254Z</time></trkpt><trkpt lat="45.3722935" lon="7.5928261"><ele>663.4</ele><time>2026-04-25T12:39:54.259Z</time></trkpt><trkpt lat="45.3723758" lon="7.5928357"><ele>663.6</ele><time>2026-04-25T12:39:55.255Z</time></trkpt><trkpt lat="45.3724682" lon="7.5928798"><ele>663.8000000000001</ele><time>2026-04-25T12:39:56.249Z</time></trkpt><trkpt lat="45.3725671" lon="7.592969"><ele>664.0</ele><time>2026-04-25T12:39:57.267Z</time></trkpt><trkpt lat="45.3726618" lon="7.593073"><ele>660.75</ele><time>2026-04-25T12:39:58.275Z</time></trkpt><trkpt lat="45.3727647" lon="7.5931807"><ele>657.5</ele><time>2026-04-25T12:39:59.27Z</time></trkpt><trkpt lat="45.3728467" lon="7.5932827"><ele>654.25</ele><time>2026-04-25T12:40:00.272Z</time></trkpt><trkpt lat="45.3729162" lon="7.5934033"><ele>651.0</ele><time>2026-04-25T12:40:01.266Z</time></trkpt><trkpt lat="45.372987" lon="7.5935197"><ele>651.6666666666666</ele><time>2026-04-25T12:40:02.292Z</time></trkpt><trkpt lat="45.3730366" lon="7.5936338"><ele>652.3333333333334</ele><time>2026-04-25T12:40:03.294Z</time></trkpt><trkpt lat="45.3730637" lon="7.5937457"><ele>653.0</ele><time>2026-04-25T12:40:04.287Z</time></trkpt><trkpt lat="45.3730673" lon="7.5938691"><ele>653.6666666666667</ele><time>2026-04-25T12:40:05.276Z</time></trkpt><trkpt lat="45.3730431" lon="7.5939742"><ele>654.3333333333334</ele><time>2026-04-25T12:40:06.281Z</time></trkpt><trkpt lat="45.3730235" lon="7.5940686"><ele>655.0</ele><time>2026-04-25T12:40:07.274Z</time></trkpt><trkpt lat="45.373037" lon="7.5941947"><ele>655.0</ele><time>2026-04-25T12:40:08.271Z</time></trkpt><trkpt lat="45.3730716" lon="7.5943342"><ele>655.0</ele><time>2026-04-25T12:40:09.28Z</time></trkpt><trkpt lat="45.3731189" lon="7.5944864"><ele>655.0</ele><time>2026-04-25T12:40:10.283Z</time></trkpt><trkpt lat="45.3731588" lon="7.594653"><ele>655.0</ele><time>2026-04-25T12:40:11.28Z</time></trkpt><trkpt lat="45.3731749" lon="7.5948368"><ele>654.25</ele><time>2026-04-25T12:40:12.292Z</time></trkpt><trkpt lat="45.3731592" lon="7.5950481"><ele>653.5</ele><time>2026-04-25T12:40:13.284Z</time></trkpt><trkpt lat="45.3731528" lon="7.5952644"><ele>652.75</ele><time>2026-04-25T12:40:14.289Z</time></trkpt><trkpt lat="45.3731349" lon="7.5954563"><ele>652.0</ele><time>2026-04-25T12:40:15.29Z</time></trkpt><trkpt lat="45.3731178" lon="7.5956695"><ele>651.8333333333334</ele><time>2026-04-25T12:40:16.281Z</time></trkpt><trkpt lat="45.3731181" lon="7.5958407"><ele>651.6666666666667</ele><time>2026-04-25T12:40:17.282Z</time></trkpt><trkpt lat="45.3731323" lon="7.5959749"><ele>651.5</ele><time>2026-04-25T12:40:18.288Z</time></trkpt><trkpt lat="45.3731673" lon="7.5960615"><ele>651.3333333333334</ele><time>2026-04-25T12:40:19.283Z</time></trkpt><trkpt lat="45.3731876" lon="7.5961773"><ele>651.1666666666666</ele><time>2026-04-25T12:40:20.279Z</time></trkpt><trkpt lat="45.3732119" lon="7.5962639"><ele>651.0</ele><time>2026-04-25T12:40:21.283Z</time></trkpt><trkpt lat="45.3732675" lon="7.5963453"><ele>650.5999999999999</ele><time>2026-04-25T12:40:23.293Z</time></trkpt><trkpt lat="45.3732931" lon="7.5964675"><ele>650.2</ele><time>2026-04-25T12:40:25.283Z</time></trkpt><trkpt lat="45.3732891" lon="7.5965844"><ele>649.8</ele><time>2026-04-25T12:40:26.278Z</time></trkpt><trkpt lat="45.3732553" lon="7.5967255"><ele>649.4000000000001</ele><time>2026-04-25T12:40:27.277Z</time></trkpt><trkpt lat="45.3732293" lon="7.5968968"><ele>649.0</ele><time>2026-04-25T12:40:28.275Z</time></trkpt><trkpt lat="45.3732034" lon="7.5970854"><ele>648.5</ele><time>2026-04-25T12:40:29.28Z</time></trkpt><trkpt lat="45.3731983" lon="7.5972757"><ele>648.0</ele><time>2026-04-25T12:40:30.291Z</time></trkpt><trkpt lat="45.3732165" lon="7.5974705"><ele>647.5</ele><time>2026-04-25T12:40:31.29Z</time></trkpt><trkpt lat="45.3732864" lon="7.5976792"><ele>647.0</ele><time>2026-04-25T12:40:32.286Z</time></trkpt><trkpt lat="45.3733079" lon="7.5978746"><ele>645.25</ele><time>2026-04-25T12:40:33.287Z</time></trkpt><trkpt lat="45.3732734" lon="7.5980839"><ele>643.5</ele><time>2026-04-25T12:40:34.286Z</time></trkpt><trkpt lat="45.3732148" lon="7.5982719"><ele>641.75</ele><time>2026-04-25T12:40:35.288Z</time></trkpt><trkpt lat="45.3731655" lon="7.5984393"><ele>640.0</ele><time>2026-04-25T12:40:36.303Z</time></trkpt><trkpt lat="45.3731318" lon="7.5986154"><ele>638.5</ele><time>2026-04-25T12:40:37.297Z</time></trkpt><trkpt lat="45.3731418" lon="7.5988046"><ele>637.0</ele><time>2026-04-25T12:40:38.296Z</time></trkpt><trkpt lat="45.373162" lon="7.5989853"><ele>635.5</ele><time>2026-04-25T12:40:39.295Z</time></trkpt><trkpt lat="45.3731954" lon="7.5991759"><ele>634.0</ele><time>2026-04-25T12:40:40.294Z</time></trkpt><trkpt lat="45.3732152" lon="7.5993644"><ele>633.25</ele><time>2026-04-25T12:40:41.291Z</time></trkpt><trkpt lat="45.3732211" lon="7.5995478"><ele>632.5</ele><time>2026-04-25T12:40:42.29Z</time></trkpt><trkpt lat="45.3732215" lon="7.599714"><ele>631.75</ele><time>2026-04-25T12:40:43.286Z</time></trkpt><trkpt lat="45.3731986" lon="7.5998666"><ele>631.0</ele><time>2026-04-25T12:40:44.293Z</time></trkpt><trkpt lat="45.3731725" lon="7.6000064"><ele>631.0</ele><time>2026-04-25T12:40:45.298Z</time></trkpt><trkpt lat="45.3731291" lon="7.6001126"><ele>631.0</ele><time>2026-04-25T12:40:46.287Z</time></trkpt><trkpt lat="45.3730734" lon="7.6001672"><ele>631.0</ele><time>2026-04-25T12:40:47.296Z</time></trkpt><trkpt lat="45.3731291" lon="7.6002493"><ele>631.0</ele><time>2026-04-25T12:40:50.304Z</time></trkpt><trkpt lat="45.3731943" lon="7.6001871"><ele>631.0</ele><time>2026-04-25T12:40:51.306Z</time></trkpt><trkpt lat="45.3732567" lon="7.6000787"><ele>631.0</ele><time>2026-04-25T12:40:52.294Z</time></trkpt><trkpt lat="45.3733029" lon="7.5998812"><ele>631.0</ele><time>2026-04-25T12:40:53.289Z</time></trkpt><trkpt lat="45.3733507" lon="7.5996482"><ele>631.0</ele><time>2026-04-25T12:40:54.28Z</time></trkpt><trkpt lat="45.3734082" lon="7.5993671"><ele>631.0</ele><time>2026-04-25T12:40:55.283Z</time></trkpt><trkpt lat="45.3734536" lon="7.5991589"><ele>631.75</ele><time>2026-04-25T12:40:56.278Z</time></trkpt><trkpt lat="45.3735371" lon="7.5989968"><ele>632.5</ele><time>2026-04-25T12:40:57.287Z</time></trkpt><trkpt lat="45.3736491" lon="7.5988555"><ele>633.25</ele><time>2026-04-25T12:40:58.281Z</time></trkpt><trkpt lat="45.3737651" lon="7.5987303"><ele>634.0</ele><time>2026-04-25T12:40:59.284Z</time></trkpt><trkpt lat="45.3738552" lon="7.5986062"><ele>634.6</ele><time>2026-04-25T12:41:00.286Z</time></trkpt><trkpt lat="45.3739448" lon="7.5984979"><ele>635.2</ele><time>2026-04-25T12:41:01.279Z</time></trkpt><trkpt lat="45.3740196" lon="7.5983779"><ele>635.8000000000001</ele><time>2026-04-25T12:41:02.282Z</time></trkpt><trkpt lat="45.374102" lon="7.5984086"><ele>636.4</ele><time>2026-04-25T12:41:03.281Z</time></trkpt><trkpt lat="45.3741635" lon="7.5984656"><ele>637.0</ele><time>2026-04-25T12:41:04.279Z</time></trkpt><trkpt lat="45.3741708" lon="7.5986592"><ele>633.6666666666667</ele><time>2026-04-25T12:41:06.265Z</time></trkpt><trkpt lat="45.3741803" lon="7.5988674"><ele>630.3333333333334</ele><time>2026-04-25T12:41:07.274Z</time></trkpt><trkpt lat="45.3741996" lon="7.5990888"><ele>627.0</ele><time>2026-04-25T12:41:08.269Z</time></trkpt><trkpt lat="45.3741976" lon="7.5992987"><ele>626.3333333333334</ele><time>2026-04-25T12:41:09.286Z</time></trkpt><trkpt lat="45.3741635" lon="7.599521"><ele>625.6666666666667</ele><time>2026-04-25T12:41:10.279Z</time></trkpt><trkpt lat="45.3741412" lon="7.5997452"><ele>625.0</ele><time>2026-04-25T12:41:11.277Z</time></trkpt><trkpt lat="45.3741759" lon="7.6000069"><ele>625.0</ele><time>2026-04-25T12:41:12.292Z</time></trkpt><trkpt lat="45.374253" lon="7.6002459"><ele>625.0</ele><time>2026-04-25T12:41:13.281Z</time></trkpt><trkpt lat="45.374298" lon="7.6004656"><ele>625.0</ele><time>2026-04-25T12:41:14.284Z</time></trkpt><trkpt lat="45.3742652" lon="7.600656"><ele>624.0</ele><time>2026-04-25T12:41:15.271Z</time></trkpt><trkpt lat="45.3742511" lon="7.6008505"><ele>623.0</ele><time>2026-04-25T12:41:16.274Z</time></trkpt><trkpt lat="45.3742271" lon="7.601057"><ele>622.0</ele><time>2026-04-25T12:41:17.277Z</time></trkpt><trkpt lat="45.3742296" lon="7.6012707"><ele>621.0</ele><time>2026-04-25T12:41:18.282Z</time></trkpt><trkpt lat="45.3742382" lon="7.6014984"><ele>619.5</ele><time>2026-04-25T12:41:19.285Z</time></trkpt><trkpt lat="45.374225" lon="7.601691"><ele>618.0</ele><time>2026-04-25T12:41:20.289Z</time></trkpt><trkpt lat="45.3742387" lon="7.6018901"><ele>616.5</ele><time>2026-04-25T12:41:21.283Z</time></trkpt><trkpt lat="45.3742904" lon="7.602086"><ele>615.0</ele><time>2026-04-25T12:41:22.293Z</time></trkpt><trkpt lat="45.374337" lon="7.6023"><ele>613.0</ele><time>2026-04-25T12:41:23.292Z</time></trkpt><trkpt lat="45.3743897" lon="7.6025147"><ele>611.0</ele><time>2026-04-25T12:41:24.29Z</time></trkpt><trkpt lat="45.3744535" lon="7.6027133"><ele>609.0</ele><time>2026-04-25T12:41:25.289Z</time></trkpt><trkpt lat="45.374536" lon="7.6029179"><ele>609.0</ele><time>2026-04-25T12:41:26.291Z</time></trkpt><trkpt lat="45.374627" lon="7.603107"><ele>609.0</ele><time>2026-04-25T12:41:27.301Z</time></trkpt><trkpt lat="45.374721" lon="7.6032789"><ele>609.0</ele><time>2026-04-25T12:41:28.297Z</time></trkpt><trkpt lat="45.3748107" lon="7.6034761"><ele>609.0</ele><time>2026-04-25T12:41:29.3Z</time></trkpt><trkpt lat="45.3748916" lon="7.6036406"><ele>609.0</ele><time>2026-04-25T12:41:30.298Z</time></trkpt><trkpt lat="45.3749711" lon="7.6037676"><ele>609.0</ele><time>2026-04-25T12:41:31.283Z</time></trkpt><trkpt lat="45.3750005" lon="7.6038849"><ele>609.0</ele><time>2026-04-25T12:41:32.287Z</time></trkpt><trkpt lat="45.375065" lon="7.6039916"><ele>609.0</ele><time>2026-04-25T12:41:33.289Z</time></trkpt><trkpt lat="45.3751569" lon="7.604036"><ele>609.0</ele><time>2026-04-25T12:41:34.294Z</time></trkpt><trkpt lat="45.3752377" lon="7.6040538"><ele>609.0</ele><time>2026-04-25T12:41:35.291Z</time></trkpt><trkpt lat="45.3752988" lon="7.6040185"><ele>609.0</ele><time>2026-04-25T12:41:36.287Z</time></trkpt><trkpt lat="45.3753326" lon="7.603895"><ele>609.0</ele><time>2026-04-25T12:41:37.287Z</time></trkpt><trkpt lat="45.3753494" lon="7.6037475"><ele>609.0</ele><time>2026-04-25T12:41:38.278Z</time></trkpt><trkpt lat="45.3753688" lon="7.6036164"><ele>609.0</ele><time>2026-04-25T12:41:39.285Z</time></trkpt><trkpt lat="45.375435" lon="7.603504"><ele>609.0</ele><time>2026-04-25T12:41:41.267Z</time></trkpt><trkpt lat="45.3754974" lon="7.6035293"><ele>609.0</ele><time>2026-04-25T12:41:42.256Z</time></trkpt><trkpt lat="45.3755456" lon="7.6036459"><ele>609.0</ele><time>2026-04-25T12:41:44.269Z</time></trkpt><trkpt lat="45.3755149" lon="7.6037488"><ele>609.0</ele><time>2026-04-25T12:41:45.272Z</time></trkpt><trkpt lat="45.3754862" lon="7.603919"><ele>609.0</ele><time>2026-04-25T12:41:46.265Z</time></trkpt><trkpt lat="45.3754275" lon="7.6040968"><ele>607.25</ele><time>2026-04-25T12:41:47.249Z</time></trkpt><trkpt lat="45.3753488" lon="7.6043043"><ele>605.5</ele><time>2026-04-25T12:41:48.266Z</time></trkpt><trkpt lat="45.3752842" lon="7.6044619"><ele>603.75</ele><time>2026-04-25T12:41:49.269Z</time></trkpt><trkpt lat="45.3752285" lon="7.6046413"><ele>602.0</ele><time>2026-04-25T12:41:50.265Z</time></trkpt><trkpt lat="45.3751583" lon="7.604828"><ele>600.0</ele><time>2026-04-25T12:41:51.268Z</time></trkpt><trkpt lat="45.3750888" lon="7.6050135"><ele>598.0</ele><time>2026-04-25T12:41:52.285Z</time></trkpt><trkpt lat="45.3750473" lon="7.6052344"><ele>596.0</ele><time>2026-04-25T12:41:53.288Z</time></trkpt><trkpt lat="45.3750465" lon="7.6055351"><ele>593.6666666666666</ele><time>2026-04-25T12:41:54.284Z</time></trkpt><trkpt lat="45.3750991" lon="7.6057853"><ele>591.3333333333334</ele><time>2026-04-25T12:41:55.28Z</time></trkpt><trkpt lat="45.3751421" lon="7.6060185"><ele>589.0</ele><time>2026-04-25T12:41:56.271Z</time></trkpt><trkpt lat="45.3752338" lon="7.6062587"><ele>585.3333333333334</ele><time>2026-04-25T12:41:57.277Z</time></trkpt><trkpt lat="45.3753286" lon="7.6064837"><ele>581.6666666666666</ele><time>2026-04-25T12:41:58.284Z</time></trkpt><trkpt lat="45.375421" lon="7.6066992"><ele>578.0</ele><time>2026-04-25T12:41:59.278Z</time></trkpt><trkpt lat="45.3754599" lon="7.6068785"><ele>577.5</ele><time>2026-04-25T12:42:00.281Z</time></trkpt><trkpt lat="45.3755074" lon="7.6070458"><ele>577.0</ele><time>2026-04-25T12:42:01.272Z</time></trkpt><trkpt lat="45.3755628" lon="7.6071748"><ele>576.5</ele><time>2026-04-25T12:42:02.266Z</time></trkpt><trkpt lat="45.3756315" lon="7.6072746"><ele>576.0</ele><time>2026-04-25T12:42:03.288Z</time></trkpt><trkpt lat="45.3757596" lon="7.6073593"><ele>576.0</ele><time>2026-04-25T12:42:04.269Z</time></trkpt><trkpt lat="45.3758803" lon="7.6073992"><ele>576.0</ele><time>2026-04-25T12:42:05.274Z</time></trkpt><trkpt lat="45.3759889" lon="7.6073691"><ele>576.0</ele><time>2026-04-25T12:42:06.275Z</time></trkpt><trkpt lat="45.3760905" lon="7.6072699"><ele>576.0</ele><time>2026-04-25T12:42:07.283Z</time></trkpt><trkpt lat="45.3761724" lon="7.6071148"><ele>578.4</ele><time>2026-04-25T12:42:08.271Z</time></trkpt><trkpt lat="45.3762073" lon="7.6069544"><ele>580.8</ele><time>2026-04-25T12:42:09.28Z</time></trkpt><trkpt lat="45.3762217" lon="7.6068104"><ele>583.1999999999999</ele><time>2026-04-25T12:42:10.288Z</time></trkpt><trkpt lat="45.3762471" lon="7.6067268"><ele>585.6</ele><time>2026-04-25T12:42:11.284Z</time></trkpt><trkpt lat="45.3763403" lon="7.6067231"><ele>588.0</ele><time>2026-04-25T12:42:13.269Z</time></trkpt><trkpt lat="45.3763928" lon="7.6068133"><ele>588.5</ele><time>2026-04-25T12:42:14.269Z</time></trkpt><trkpt lat="45.3764313" lon="7.606957"><ele>589.0</ele><time>2026-04-25T12:42:15.261Z</time></trkpt><trkpt lat="45.376447" lon="7.6071916"><ele>589.5</ele><time>2026-04-25T12:42:16.268Z</time></trkpt><trkpt lat="45.376444" lon="7.6074255"><ele>590.0</ele><time>2026-04-25T12:42:17.259Z</time></trkpt><trkpt lat="45.3764548" lon="7.6076307"><ele>587.0</ele><time>2026-04-25T12:42:18.26Z</time></trkpt><trkpt lat="45.3764383" lon="7.6078276"><ele>584.0</ele><time>2026-04-25T12:42:19.266Z</time></trkpt><trkpt lat="45.376406" lon="7.6079768"><ele>581.0</ele><time>2026-04-25T12:42:20.274Z</time></trkpt><trkpt lat="45.3763954" lon="7.6081294"><ele>578.0</ele><time>2026-04-25T12:42:21.267Z</time></trkpt><trkpt lat="45.3763934" lon="7.608286"><ele>578.0</ele><time>2026-04-25T12:42:22.285Z</time></trkpt><trkpt lat="45.3764489" lon="7.6084616"><ele>578.0</ele><time>2026-04-25T12:42:23.273Z</time></trkpt><trkpt lat="45.3764905" lon="7.6086341"><ele>578.0</ele><time>2026-04-25T12:42:24.271Z</time></trkpt><trkpt lat="45.3765185" lon="7.6088345"><ele>578.0</ele><time>2026-04-25T12:42:25.266Z</time></trkpt><trkpt lat="45.3765329" lon="7.6090591"><ele>574.6666666666666</ele><time>2026-04-25T12:42:26.274Z</time></trkpt><trkpt lat="45.3765767" lon="7.6092998"><ele>571.3333333333334</ele><time>2026-04-25T12:42:27.272Z</time></trkpt><trkpt lat="45.3766356" lon="7.6095202"><ele>568.0</ele><time>2026-04-25T12:42:28.275Z</time></trkpt><trkpt lat="45.3766816" lon="7.6097478"><ele>565.6666666666667</ele><time>2026-04-25T12:42:29.271Z</time></trkpt><trkpt lat="45.3766975" lon="7.6099729"><ele>563.3333333333334</ele><time>2026-04-25T12:42:30.28Z</time></trkpt><trkpt lat="45.3767475" lon="7.6102076"><ele>561.0</ele><time>2026-04-25T12:42:31.277Z</time></trkpt><trkpt lat="45.3768101" lon="7.6104195"><ele>558.6666666666666</ele><time>2026-04-25T12:42:32.293Z</time></trkpt><trkpt lat="45.3768696" lon="7.6106535"><ele>556.3333333333333</ele><time>2026-04-25T12:42:33.292Z</time></trkpt><trkpt lat="45.376924" lon="7.6109103"><ele>554.0</ele><time>2026-04-25T12:42:34.285Z</time></trkpt><trkpt lat="45.3769621" lon="7.6111471"><ele>554.0</ele><time>2026-04-25T12:42:35.286Z</time></trkpt><trkpt lat="45.3769936" lon="7.6113678"><ele>554.0</ele><time>2026-04-25T12:42:36.29Z</time></trkpt><trkpt lat="45.377023" lon="7.6115863"><ele>554.0</ele><time>2026-04-25T12:42:37.292Z</time></trkpt><trkpt lat="45.3770391" lon="7.6118378"><ele>552.6666666666666</ele><time>2026-04-25T12:42:38.293Z</time></trkpt><trkpt lat="45.3770319" lon="7.6120654"><ele>551.3333333333334</ele><time>2026-04-25T12:42:39.283Z</time></trkpt><trkpt lat="45.377059" lon="7.6123165"><ele>550.0</ele><time>2026-04-25T12:42:40.278Z</time></trkpt><trkpt lat="45.3770681" lon="7.6125457"><ele>550.0</ele><time>2026-04-25T12:42:41.282Z</time></trkpt><trkpt lat="45.3770694" lon="7.6127585"><ele>550.0</ele><time>2026-04-25T12:42:42.296Z</time></trkpt><trkpt lat="45.3770949" lon="7.6128984"><ele>550.0</ele><time>2026-04-25T12:42:43.286Z</time></trkpt><trkpt lat="45.3771708" lon="7.6130317"><ele>550.0</ele><time>2026-04-25T12:42:44.287Z</time></trkpt><trkpt lat="45.3772722" lon="7.6131726"><ele>549.5</ele><time>2026-04-25T12:42:45.282Z</time></trkpt><trkpt lat="45.3774117" lon="7.6133117"><ele>549.0</ele><time>2026-04-25T12:42:46.284Z</time></trkpt><trkpt lat="45.3775168" lon="7.6134311"><ele>548.5</ele><time>2026-04-25T12:42:47.29Z</time></trkpt><trkpt lat="45.3776305" lon="7.6134833"><ele>548.0</ele><time>2026-04-25T12:42:48.288Z</time></trkpt><trkpt lat="45.3777433" lon="7.6134894"><ele>548.0</ele><time>2026-04-25T12:42:49.28Z</time></trkpt><trkpt lat="45.3778402" lon="7.6135036"><ele>548.0</ele><time>2026-04-25T12:42:50.279Z</time></trkpt><trkpt lat="45.3779168" lon="7.6135213"><ele>548.0</ele><time>2026-04-25T12:42:51.273Z</time></trkpt><trkpt lat="45.3779682" lon="7.6135948"><ele>548.0</ele><time>2026-04-25T12:42:52.282Z</time></trkpt><trkpt lat="45.3779893" lon="7.6137385"><ele>548.0</ele><time>2026-04-25T12:42:53.277Z</time></trkpt><trkpt lat="45.3779859" lon="7.613906"><ele>546.6666666666666</ele><time>2026-04-25T12:42:54.274Z</time></trkpt><trkpt lat="45.3779377" lon="7.6141077"><ele>545.3333333333334</ele><time>2026-04-25T12:42:55.266Z</time></trkpt><trkpt lat="45.3778718" lon="7.6143084"><ele>544.0</ele><time>2026-04-25T12:42:56.274Z</time></trkpt><trkpt lat="45.3777226" lon="7.6145805"><ele>543.75</ele><time>2026-04-25T12:42:57.276Z</time></trkpt><trkpt lat="45.3776975" lon="7.6147954"><ele>543.5</ele><time>2026-04-25T12:42:58.271Z</time></trkpt><trkpt lat="45.3777181" lon="7.615024"><ele>543.25</ele><time>2026-04-25T12:42:59.282Z</time></trkpt><trkpt lat="45.3777339" lon="7.6152119"><ele>543.0</ele><time>2026-04-25T12:43:00.297Z</time></trkpt><trkpt lat="45.3777554" lon="7.6153513"><ele>543.0</ele><time>2026-04-25T12:43:01.297Z</time></trkpt><trkpt lat="45.377837" lon="7.6154836"><ele>543.0</ele><time>2026-04-25T12:43:02.281Z</time></trkpt><trkpt lat="45.3779354" lon="7.6156182"><ele>543.0</ele><time>2026-04-25T12:43:03.279Z</time></trkpt><trkpt lat="45.378041" lon="7.6157828"><ele>543.0</ele><time>2026-04-25T12:43:04.283Z</time></trkpt><trkpt lat="45.3781587" lon="7.6159551"><ele>544.5</ele><time>2026-04-25T12:43:05.282Z</time></trkpt><trkpt lat="45.3782914" lon="7.6161372"><ele>546.0</ele><time>2026-04-25T12:43:06.279Z</time></trkpt><trkpt lat="45.3783743" lon="7.6162944"><ele>547.5</ele><time>2026-04-25T12:43:07.282Z</time></trkpt><trkpt lat="45.378412" lon="7.6164578"><ele>549.0</ele><time>2026-04-25T12:43:08.278Z</time></trkpt><trkpt lat="45.3784743" lon="7.6167007"><ele>545.5</ele><time>2026-04-25T12:43:09.266Z</time></trkpt><trkpt lat="45.3785541" lon="7.6169037"><ele>542.0</ele><time>2026-04-25T12:43:10.276Z</time></trkpt><trkpt lat="45.3786351" lon="7.6170272"><ele>538.5</ele><time>2026-04-25T12:43:11.282Z</time></trkpt><trkpt lat="45.3787215" lon="7.6171345"><ele>535.0</ele><time>2026-04-25T12:43:12.273Z</time></trkpt><trkpt lat="45.3788231" lon="7.6171881"><ele>536.2</ele><time>2026-04-25T12:43:13.278Z</time></trkpt><trkpt lat="45.3789336" lon="7.6172068"><ele>537.4</ele><time>2026-04-25T12:43:14.275Z</time></trkpt><trkpt lat="45.379043" lon="7.6172154"><ele>538.6</ele><time>2026-04-25T12:43:15.277Z</time></trkpt><trkpt lat="45.3791075" lon="7.6172505"><ele>539.8</ele><time>2026-04-25T12:43:16.282Z</time></trkpt><trkpt lat="45.3791519" lon="7.6173363"><ele>541.0</ele><time>2026-04-25T12:43:17.28Z</time></trkpt><trkpt lat="45.3791721" lon="7.6175036"><ele>541.0</ele><time>2026-04-25T12:43:18.291Z</time></trkpt><trkpt lat="45.3791733" lon="7.617716"><ele>541.0</ele><time>2026-04-25T12:43:19.28Z</time></trkpt><trkpt lat="45.3792053" lon="7.6179515"><ele>541.0</ele><time>2026-04-25T12:43:20.29Z</time></trkpt><trkpt lat="45.3792893" lon="7.6181666"><ele>540.6666666666667</ele><time>2026-04-25T12:43:21.281Z</time></trkpt><trkpt lat="45.3794439" lon="7.6184078"><ele>540.3333333333334</ele><time>2026-04-25T12:43:22.279Z</time></trkpt><trkpt lat="45.3795831" lon="7.6185967"><ele>540.0</ele><time>2026-04-25T12:43:23.289Z</time></trkpt><trkpt lat="45.379724" lon="7.6187466"><ele>540.0</ele><time>2026-04-25T12:43:24.28Z</time></trkpt><trkpt lat="45.3798518" lon="7.618823"><ele>540.0</ele><time>2026-04-25T12:43:25.266Z</time></trkpt><trkpt lat="45.3799705" lon="7.6188797"><ele>540.0</ele><time>2026-04-25T12:43:26.276Z</time></trkpt><trkpt lat="45.3800584" lon="7.6190408"><ele>540.0</ele><time>2026-04-25T12:43:27.276Z</time></trkpt><trkpt lat="45.3801265" lon="7.6193079"><ele>533.0</ele><time>2026-04-25T12:43:28.266Z</time></trkpt><trkpt lat="45.3801865" lon="7.6195684"><ele>526.0</ele><time>2026-04-25T12:43:29.271Z</time></trkpt><trkpt lat="45.3802568" lon="7.6197722"><ele>519.0</ele><time>2026-04-25T12:43:30.279Z</time></trkpt><trkpt lat="45.3803297" lon="7.6199434"><ele>519.0</ele><time>2026-04-25T12:43:31.28Z</time></trkpt><trkpt lat="45.3804201" lon="7.6200566"><ele>519.0</ele><time>2026-04-25T12:43:32.279Z</time></trkpt><trkpt lat="45.3805161" lon="7.6201466"><ele>519.0</ele><time>2026-04-25T12:43:33.273Z</time></trkpt><trkpt lat="45.3805789" lon="7.6202102"><ele>519.0</ele><time>2026-04-25T12:43:34.282Z</time></trkpt><trkpt lat="45.3806392" lon="7.6202381"><ele>519.0</ele><time>2026-04-25T12:43:35.287Z</time></trkpt><trkpt lat="45.3807305" lon="7.6202298"><ele>523.25</ele><time>2026-04-25T12:43:36.284Z</time></trkpt><trkpt lat="45.3808408" lon="7.6202002"><ele>527.5</ele><time>2026-04-25T12:43:37.281Z</time></trkpt><trkpt lat="45.3809541" lon="7.6200982"><ele>531.75</ele><time>2026-04-25T12:43:38.293Z</time></trkpt><trkpt lat="45.3810724" lon="7.6199474"><ele>536.0</ele><time>2026-04-25T12:43:39.284Z</time></trkpt><trkpt lat="45.3811723" lon="7.6198277"><ele>536.0</ele><time>2026-04-25T12:43:40.285Z</time></trkpt><trkpt lat="45.3812626" lon="7.6197302"><ele>536.0</ele><time>2026-04-25T12:43:41.28Z</time></trkpt><trkpt lat="45.3813342" lon="7.619671"><ele>536.0</ele><time>2026-04-25T12:43:42.289Z</time></trkpt><trkpt lat="45.3814461" lon="7.6197362"><ele>536.0</ele><time>2026-04-25T12:43:44.275Z</time></trkpt><trkpt lat="45.3814953" lon="7.6198664"><ele>536.0</ele><time>2026-04-25T12:43:45.266Z</time></trkpt><trkpt lat="45.3815398" lon="7.6200171"><ele>536.2</ele><time>2026-04-25T12:43:46.278Z</time></trkpt><trkpt lat="45.3815893" lon="7.6201417"><ele>536.4000000000001</ele><time>2026-04-25T12:43:47.283Z</time></trkpt><trkpt lat="45.3816708" lon="7.6202379"><ele>536.6</ele><time>2026-04-25T12:43:48.273Z</time></trkpt><trkpt lat="45.3817557" lon="7.6203263"><ele>536.8000000000001</ele><time>2026-04-25T12:43:49.285Z</time></trkpt><trkpt lat="45.3818393" lon="7.6204383"><ele>537.0</ele><time>2026-04-25T12:43:50.274Z</time></trkpt><trkpt lat="45.3819038" lon="7.6205706"><ele>536.0</ele><time>2026-04-25T12:43:51.259Z</time></trkpt><trkpt lat="45.3819603" lon="7.6207238"><ele>535.0</ele><time>2026-04-25T12:43:52.276Z</time></trkpt><trkpt lat="45.3820316" lon="7.6208404"><ele>534.0</ele><time>2026-04-25T12:43:53.279Z</time></trkpt><trkpt lat="45.3820736" lon="7.6209093"><ele>533.0</ele><time>2026-04-25T12:43:54.293Z</time></trkpt><trkpt lat="45.3821136" lon="7.6210076"><ele>532.0</ele><time>2026-04-25T12:44:18.298Z</time></trkpt><trkpt lat="45.3821409" lon="7.6211432"><ele>531.5</ele><time>2026-04-25T12:44:21.29Z</time></trkpt><trkpt lat="45.3821391" lon="7.6212847"><ele>531.0</ele><time>2026-04-25T12:44:22.293Z</time></trkpt><trkpt lat="45.3821389" lon="7.6214658"><ele>530.5</ele><time>2026-04-25T12:44:23.29Z</time></trkpt><trkpt lat="45.3821436" lon="7.6216514"><ele>530.0</ele><time>2026-04-25T12:44:24.288Z</time></trkpt><trkpt lat="45.3821527" lon="7.6218372"><ele>528.75</ele><time>2026-04-25T12:44:25.307Z</time></trkpt><trkpt lat="45.3821454" lon="7.6220038"><ele>527.5</ele><time>2026-04-25T12:44:26.309Z</time></trkpt><trkpt lat="45.3821229" lon="7.6221661"><ele>526.25</ele><time>2026-04-25T12:44:27.302Z</time></trkpt><trkpt lat="45.3820722" lon="7.6223296"><ele>525.0</ele><time>2026-04-25T12:44:28.31Z</time></trkpt><trkpt lat="45.3820009" lon="7.6225268"><ele>525.0</ele><time>2026-04-25T12:44:29.295Z</time></trkpt><trkpt lat="45.3819016" lon="7.6227573"><ele>525.0</ele><time>2026-04-25T12:44:30.298Z</time></trkpt><trkpt lat="45.3818407" lon="7.6230002"><ele>525.0</ele><time>2026-04-25T12:44:31.307Z</time></trkpt><trkpt lat="45.3817937" lon="7.6232434"><ele>524.5</ele><time>2026-04-25T12:44:32.299Z</time></trkpt><trkpt lat="45.3817843" lon="7.6234859"><ele>524.0</ele><time>2026-04-25T12:44:33.307Z</time></trkpt><trkpt lat="45.3817501" lon="7.6236828"><ele>523.5</ele><time>2026-04-25T12:44:34.298Z</time></trkpt><trkpt lat="45.3817169" lon="7.6238683"><ele>523.0</ele><time>2026-04-25T12:44:35.294Z</time></trkpt><trkpt lat="45.3816791" lon="7.6240172"><ele>521.75</ele><time>2026-04-25T12:44:36.292Z</time></trkpt><trkpt lat="45.3816024" lon="7.6241629"><ele>520.5</ele><time>2026-04-25T12:44:37.289Z</time></trkpt><trkpt lat="45.3815083" lon="7.6242869"><ele>519.25</ele><time>2026-04-25T12:44:38.285Z</time></trkpt><trkpt lat="45.3814434" lon="7.6243963"><ele>518.0</ele><time>2026-04-25T12:44:39.286Z</time></trkpt><trkpt lat="45.3813479" lon="7.6244774"><ele>515.0</ele><time>2026-04-25T12:44:40.287Z</time></trkpt><trkpt lat="45.3812497" lon="7.6245449"><ele>511.99999999999994</ele><time>2026-04-25T12:44:41.299Z</time></trkpt><trkpt lat="45.3811485" lon="7.6245822"><ele>508.99999999999994</ele><time>2026-04-25T12:44:42.299Z</time></trkpt><trkpt lat="45.3810418" lon="7.6245886"><ele>506.0</ele><time>2026-04-25T12:44:43.292Z</time></trkpt><trkpt lat="45.3809369" lon="7.624587"><ele>503.0</ele><time>2026-04-25T12:44:44.292Z</time></trkpt><trkpt lat="45.3808401" lon="7.6245624"><ele>502.99999999999994</ele><time>2026-04-25T12:44:45.286Z</time></trkpt><trkpt lat="45.3807697" lon="7.6245013"><ele>503.0</ele><time>2026-04-25T12:44:46.288Z</time></trkpt><trkpt lat="45.3807326" lon="7.6244013"><ele>503.0</ele><time>2026-04-25T12:44:47.281Z</time></trkpt><trkpt lat="45.3806978" lon="7.6242999"><ele>503.0</ele><time>2026-04-25T12:44:48.282Z</time></trkpt><trkpt lat="45.3806619" lon="7.6242039"><ele>502.99999999999994</ele><time>2026-04-25T12:44:49.287Z</time></trkpt><trkpt lat="45.3806146" lon="7.62413"><ele>503.0</ele><time>2026-04-25T12:44:50.277Z</time></trkpt><trkpt lat="45.3805514" lon="7.6241188"><ele>503.0</ele><time>2026-04-25T12:44:51.293Z</time></trkpt><trkpt lat="45.3805036" lon="7.6242402"><ele>502.99999999999994</ele><time>2026-04-25T12:44:53.287Z</time></trkpt><trkpt lat="45.3805415" lon="7.6243597"><ele>502.99999999999994</ele><time>2026-04-25T12:44:54.286Z</time></trkpt><trkpt lat="45.3805908" lon="7.6244682"><ele>503.0</ele><time>2026-04-25T12:44:55.282Z</time></trkpt><trkpt lat="45.3806521" lon="7.6245816"><ele>503.0</ele><time>2026-04-25T12:44:56.299Z</time></trkpt><trkpt lat="45.3807181" lon="7.6246879"><ele>502.99999999999994</ele><time>2026-04-25T12:44:57.294Z</time></trkpt><trkpt lat="45.3807586" lon="7.6247697"><ele>503.0</ele><time>2026-04-25T12:44:58.289Z</time></trkpt><trkpt lat="45.3807904" lon="7.6248504"><ele>503.0</ele><time>2026-04-25T12:44:59.289Z</time></trkpt><trkpt lat="45.3808165" lon="7.6249419"><ele>503.0</ele><time>2026-04-25T12:45:36.31Z</time></trkpt><trkpt lat="45.3808636" lon="7.6250203"><ele>502.99999999999994</ele><time>2026-04-25T12:50:29.302Z</time></trkpt><trkpt lat="45.3809434" lon="7.6249847"><ele>503.0</ele><time>2026-04-25T12:50:54.303Z</time></trkpt><trkpt lat="45.3810358" lon="7.6250531"><ele>502.99999999999994</ele><time>2026-04-25T12:50:56.296Z</time></trkpt><trkpt lat="45.3811094" lon="7.6250973"><ele>503.0</ele><time>2026-04-25T12:50:57.296Z</time></trkpt><trkpt lat="45.3811986" lon="7.625129"><ele>503.0</ele><time>2026-04-25T12:50:58.303Z</time></trkpt><trkpt lat="45.3812877" lon="7.6251382"><ele>503.0</ele><time>2026-04-25T12:50:59.3Z</time></trkpt><trkpt lat="45.3813779" lon="7.6251443"><ele>502.99999999999994</ele><time>2026-04-25T12:51:00.304Z</time></trkpt><trkpt lat="45.3814697" lon="7.6251487"><ele>503.0</ele><time>2026-04-25T12:51:01.292Z</time></trkpt><trkpt lat="45.3815628" lon="7.6251347"><ele>502.75</ele><time>2026-04-25T12:51:02.287Z</time></trkpt><trkpt lat="45.3816547" lon="7.6250823"><ele>502.5</ele><time>2026-04-25T12:51:03.294Z</time></trkpt><trkpt lat="45.3817455" lon="7.6249964"><ele>502.25</ele><time>2026-04-25T12:51:04.278Z</time></trkpt><trkpt lat="45.3818427" lon="7.6248747"><ele>502.0</ele><time>2026-04-25T12:51:05.28Z</time></trkpt><trkpt lat="45.3819415" lon="7.6247611"><ele>502.0</ele><time>2026-04-25T12:51:06.28Z</time></trkpt><trkpt lat="45.3820501" lon="7.6246961"><ele>502.0</ele><time>2026-04-25T12:51:07.278Z</time></trkpt><trkpt lat="45.3821568" lon="7.6246246"><ele>502.0</ele><time>2026-04-25T12:51:08.281Z</time></trkpt><trkpt lat="45.3822588" lon="7.6245209"><ele>502.0</ele><time>2026-04-25T12:51:09.279Z</time></trkpt><trkpt lat="45.3823394" lon="7.6244161"><ele>502.20000000000005</ele><time>2026-04-25T12:51:10.268Z</time></trkpt><trkpt lat="45.3823861" lon="7.62431"><ele>502.40000000000003</ele><time>2026-04-25T12:51:11.275Z</time></trkpt><trkpt lat="45.3824134" lon="7.6242114"><ele>502.59999999999997</ele><time>2026-04-25T12:51:12.268Z</time></trkpt><trkpt lat="45.3824789" lon="7.6241747"><ele>502.79999999999995</ele><time>2026-04-25T12:51:14.274Z</time></trkpt><trkpt lat="45.3824813" lon="7.6243591"><ele>503.0</ele><time>2026-04-25T12:51:16.269Z</time></trkpt><trkpt lat="45.3824191" lon="7.6244761"><ele>502.75</ele><time>2026-04-25T12:51:17.276Z</time></trkpt><trkpt lat="45.3823113" lon="7.6245931"><ele>502.5</ele><time>2026-04-25T12:51:18.266Z</time></trkpt><trkpt lat="45.3822139" lon="7.6247109"><ele>502.25</ele><time>2026-04-25T12:51:19.263Z</time></trkpt><trkpt lat="45.382128" lon="7.6248744"><ele>502.0</ele><time>2026-04-25T12:51:20.264Z</time></trkpt><trkpt lat="45.3820506" lon="7.6250612"><ele>502.0</ele><time>2026-04-25T12:51:21.273Z</time></trkpt><trkpt lat="45.3819869" lon="7.6252531"><ele>502.0</ele><time>2026-04-25T12:51:22.278Z</time></trkpt><trkpt lat="45.3819428" lon="7.62547"><ele>502.0</ele><time>2026-04-25T12:51:23.279Z</time></trkpt><trkpt lat="45.3819013" lon="7.6256537"><ele>502.0</ele><time>2026-04-25T12:51:24.279Z</time></trkpt><trkpt lat="45.3818369" lon="7.6257763"><ele>498.40000000000003</ele><time>2026-04-25T12:51:25.278Z</time></trkpt><trkpt lat="45.3817766" lon="7.6259036"><ele>494.80000000000007</ele><time>2026-04-25T12:51:26.279Z</time></trkpt><trkpt lat="45.3816994" lon="7.6260169"><ele>491.2</ele><time>2026-04-25T12:51:27.283Z</time></trkpt><trkpt lat="45.381609" lon="7.6260986"><ele>487.6</ele><time>2026-04-25T12:51:28.287Z</time></trkpt><trkpt lat="45.3815376" lon="7.6261929"><ele>484.0</ele><time>2026-04-25T12:51:29.284Z</time></trkpt><trkpt lat="45.381418" lon="7.6262592"><ele>480.0</ele><time>2026-04-25T12:51:30.288Z</time></trkpt><trkpt lat="45.3812806" lon="7.6263223"><ele>476.0</ele><time>2026-04-25T12:51:31.294Z</time></trkpt><trkpt lat="45.381148" lon="7.6263495"><ele>472.0</ele><time>2026-04-25T12:51:32.29Z</time></trkpt><trkpt lat="45.3810502" lon="7.6263853"><ele>468.0</ele><time>2026-04-25T12:51:33.295Z</time></trkpt><trkpt lat="45.3809742" lon="7.6264578"><ele>468.0</ele><time>2026-04-25T12:51:34.302Z</time></trkpt><trkpt lat="45.3809083" lon="7.6264992"><ele>467.99999999999994</ele><time>2026-04-25T12:51:35.295Z</time></trkpt><trkpt lat="45.3809262" lon="7.6266492"><ele>467.99999999999994</ele><time>2026-04-25T12:51:37.303Z</time></trkpt><trkpt lat="45.3810162" lon="7.6266868"><ele>468.0</ele><time>2026-04-25T12:51:38.304Z</time></trkpt><trkpt lat="45.381118" lon="7.6266817"><ele>468.0</ele><time>2026-04-25T12:51:39.303Z</time></trkpt><trkpt lat="45.3812418" lon="7.6266497"><ele>468.33333333333337</ele><time>2026-04-25T12:51:40.29Z</time></trkpt><trkpt lat="45.3813916" lon="7.6265718"><ele>468.6666666666667</ele><time>2026-04-25T12:51:41.277Z</time></trkpt><trkpt lat="45.3815482" lon="7.62647"><ele>469.0</ele><time>2026-04-25T12:51:42.27Z</time></trkpt><trkpt lat="45.3816975" lon="7.6263599"><ele>469.0</ele><time>2026-04-25T12:51:43.268Z</time></trkpt><trkpt lat="45.3818237" lon="7.6262684"><ele>469.0</ele><time>2026-04-25T12:51:44.264Z</time></trkpt><trkpt lat="45.381919" lon="7.6261987"><ele>469.0</ele><time>2026-04-25T12:51:45.264Z</time></trkpt><trkpt lat="45.3820063" lon="7.6261654"><ele>469.0</ele><time>2026-04-25T12:51:46.264Z</time></trkpt><trkpt lat="45.3820757" lon="7.6261796"><ele>469.0</ele><time>2026-04-25T12:51:47.269Z</time></trkpt><trkpt lat="45.3821252" lon="7.6262462"><ele>469.0</ele><time>2026-04-25T12:51:48.274Z</time></trkpt><trkpt lat="45.3821567" lon="7.6263525"><ele>469.0</ele><time>2026-04-25T12:51:49.265Z</time></trkpt><trkpt lat="45.3821696" lon="7.6264634"><ele>469.0</ele><time>2026-04-25T12:51:50.268Z</time></trkpt><trkpt lat="45.3821556" lon="7.6265879"><ele>469.0</ele><time>2026-04-25T12:51:51.266Z</time></trkpt><trkpt lat="45.3821162" lon="7.6267578"><ele>469.0</ele><time>2026-04-25T12:51:52.258Z</time></trkpt><trkpt lat="45.3820887" lon="7.626931"><ele>467.6666666666667</ele><time>2026-04-25T12:51:53.287Z</time></trkpt><trkpt lat="45.3820539" lon="7.6271555"><ele>466.33333333333337</ele><time>2026-04-25T12:51:54.275Z</time></trkpt><trkpt lat="45.3820088" lon="7.6273777"><ele>465.0</ele><time>2026-04-25T12:51:55.289Z</time></trkpt><trkpt lat="45.381926" lon="7.6275598"><ele>465.0</ele><time>2026-04-25T12:51:56.279Z</time></trkpt><trkpt lat="45.3818205" lon="7.6277197"><ele>465.0</ele><time>2026-04-25T12:51:57.284Z</time></trkpt><trkpt lat="45.3817041" lon="7.6278643"><ele>465.0</ele><time>2026-04-25T12:51:58.288Z</time></trkpt><trkpt lat="45.3816191" lon="7.6279981"><ele>465.0</ele><time>2026-04-25T12:51:59.29Z</time></trkpt><trkpt lat="45.3815522" lon="7.6281279"><ele>464.5</ele><time>2026-04-25T12:52:00.283Z</time></trkpt><trkpt lat="45.3815353" lon="7.6282744"><ele>464.0</ele><time>2026-04-25T12:52:01.292Z</time></trkpt><trkpt lat="45.3815352" lon="7.6284209"><ele>463.5</ele><time>2026-04-25T12:52:02.292Z</time></trkpt><trkpt lat="45.3815613" lon="7.628585"><ele>463.0</ele><time>2026-04-25T12:52:03.279Z</time></trkpt><trkpt lat="45.3816234" lon="7.6287897"><ele>462.33333333333337</ele><time>2026-04-25T12:52:04.265Z</time></trkpt><trkpt lat="45.3816909" lon="7.6290037"><ele>461.66666666666663</ele><time>2026-04-25T12:52:05.279Z</time></trkpt><trkpt lat="45.3817578" lon="7.6292454"><ele>461.0</ele><time>2026-04-25T12:52:06.275Z</time></trkpt><trkpt lat="45.3818038" lon="7.6294849"><ele>459.5</ele><time>2026-04-25T12:52:07.276Z</time></trkpt><trkpt lat="45.3818505" lon="7.6297078"><ele>458.0</ele><time>2026-04-25T12:52:08.269Z</time></trkpt><trkpt lat="45.3818841" lon="7.6299085"><ele>456.5</ele><time>2026-04-25T12:52:09.274Z</time></trkpt><trkpt lat="45.3818727" lon="7.6300993"><ele>455.0</ele><time>2026-04-25T12:52:10.282Z</time></trkpt><trkpt lat="45.3818869" lon="7.6302885"><ele>454.0</ele><time>2026-04-25T12:52:11.277Z</time></trkpt><trkpt lat="45.3818825" lon="7.6304535"><ele>453.0</ele><time>2026-04-25T12:52:12.274Z</time></trkpt><trkpt lat="45.3819078" lon="7.6305852"><ele>452.0</ele><time>2026-04-25T12:52:13.285Z</time></trkpt><trkpt lat="45.3819251" lon="7.6307261"><ele>451.0</ele><time>2026-04-25T12:52:15.278Z</time></trkpt><trkpt lat="45.3818971" lon="7.6308341"><ele>450.0</ele><time>2026-04-25T12:52:20.295Z</time></trkpt><trkpt lat="45.3819362" lon="7.6310088"><ele>450.0</ele><time>2026-04-25T12:52:22.281Z</time></trkpt><trkpt lat="45.3819984" lon="7.6311054"><ele>450.0</ele><time>2026-04-25T12:52:23.283Z</time></trkpt><trkpt lat="45.3820849" lon="7.6312272"><ele>450.0</ele><time>2026-04-25T12:52:24.277Z</time></trkpt><trkpt lat="45.3821777" lon="7.6313594"><ele>450.0</ele><time>2026-04-25T12:52:25.272Z</time></trkpt><trkpt lat="45.3822584" lon="7.631504"><ele>449.5</ele><time>2026-04-25T12:52:26.271Z</time></trkpt><trkpt lat="45.3823461" lon="7.6316661"><ele>449.0</ele><time>2026-04-25T12:52:27.271Z</time></trkpt><trkpt lat="45.3824242" lon="7.6318255"><ele>448.5</ele><time>2026-04-25T12:52:28.277Z</time></trkpt><trkpt lat="45.382495" lon="7.6319931"><ele>448.0</ele><time>2026-04-25T12:52:29.276Z</time></trkpt><trkpt lat="45.382553" lon="7.6321704"><ele>447.25</ele><time>2026-04-25T12:52:30.285Z</time></trkpt><trkpt lat="45.3826206" lon="7.6323268"><ele>446.5</ele><time>2026-04-25T12:52:31.284Z</time></trkpt><trkpt lat="45.3826923" lon="7.6324852"><ele>445.75</ele><time>2026-04-25T12:52:32.286Z</time></trkpt><trkpt lat="45.3827672" lon="7.6326432"><ele>445.0</ele><time>2026-04-25T12:52:33.285Z</time></trkpt><trkpt lat="45.3828414" lon="7.6328171"><ele>445.0</ele><time>2026-04-25T12:52:34.281Z</time></trkpt><trkpt lat="45.3829266" lon="7.6330068"><ele>445.0</ele><time>2026-04-25T12:52:35.282Z</time></trkpt><trkpt lat="45.3829867" lon="7.6331997"><ele>445.0</ele><time>2026-04-25T12:52:36.289Z</time></trkpt><trkpt lat="45.3830433" lon="7.633414"><ele>445.0</ele><time>2026-04-25T12:52:37.268Z</time></trkpt><trkpt lat="45.3830628" lon="7.6336298"><ele>445.0</ele><time>2026-04-25T12:52:38.278Z</time></trkpt><trkpt lat="45.3831007" lon="7.6338451"><ele>445.0</ele><time>2026-04-25T12:52:39.287Z</time></trkpt><trkpt lat="45.3831275" lon="7.6340415"><ele>445.0</ele><time>2026-04-25T12:52:40.281Z</time></trkpt><trkpt lat="45.383195" lon="7.6342348"><ele>444.0</ele><time>2026-04-25T12:52:41.277Z</time></trkpt><trkpt lat="45.3833011" lon="7.6344276"><ele>443.0</ele><time>2026-04-25T12:52:42.294Z</time></trkpt><trkpt lat="45.3834182" lon="7.634571"><ele>442.0</ele><time>2026-04-25T12:52:43.278Z</time></trkpt><trkpt lat="45.3835675" lon="7.6346841"><ele>440.33333333333337</ele><time>2026-04-25T12:52:44.296Z</time></trkpt><trkpt lat="45.383722" lon="7.6347598"><ele>438.66666666666663</ele><time>2026-04-25T12:52:45.278Z</time></trkpt><trkpt lat="45.3838844" lon="7.6348208"><ele>437.0</ele><time>2026-04-25T12:52:46.268Z</time></trkpt><trkpt lat="45.3840289" lon="7.6349238"><ele>436.66666666666663</ele><time>2026-04-25T12:52:47.271Z</time></trkpt><trkpt lat="45.3841694" lon="7.6350505"><ele>436.33333333333337</ele><time>2026-04-25T12:52:48.265Z</time></trkpt><trkpt lat="45.3842869" lon="7.6352087"><ele>436.0</ele><time>2026-04-25T12:52:49.262Z</time></trkpt><trkpt lat="45.3844013" lon="7.6354006"><ele>433.6666666666667</ele><time>2026-04-25T12:52:50.263Z</time></trkpt><trkpt lat="45.384518" lon="7.6355649"><ele>431.33333333333337</ele><time>2026-04-25T12:52:51.263Z</time></trkpt><trkpt lat="45.384666" lon="7.635709"><ele>429.0</ele><time>2026-04-25T12:52:52.274Z</time></trkpt><trkpt lat="45.384815" lon="7.6358726"><ele>430.33333333333337</ele><time>2026-04-25T12:52:53.278Z</time></trkpt><trkpt lat="45.3849526" lon="7.6360309"><ele>431.6666666666667</ele><time>2026-04-25T12:52:54.271Z</time></trkpt><trkpt lat="45.3850368" lon="7.6361965"><ele>433.0</ele><time>2026-04-25T12:52:55.262Z</time></trkpt><trkpt lat="45.385098" lon="7.6363807"><ele>433.0</ele><time>2026-04-25T12:52:56.269Z</time></trkpt><trkpt lat="45.3851751" lon="7.6365334"><ele>433.0</ele><time>2026-04-25T12:52:57.275Z</time></trkpt><trkpt lat="45.3852534" lon="7.6366969"><ele>433.0</ele><time>2026-04-25T12:52:58.277Z</time></trkpt><trkpt lat="45.3853666" lon="7.6367718"><ele>433.0</ele><time>2026-04-25T12:52:59.28Z</time></trkpt><trkpt lat="45.3855113" lon="7.6367967"><ele>434.33333333333337</ele><time>2026-04-25T12:53:00.277Z</time></trkpt><trkpt lat="45.3856814" lon="7.6367914"><ele>435.66666666666663</ele><time>2026-04-25T12:53:01.276Z</time></trkpt><trkpt lat="45.3858467" lon="7.6368025"><ele>437.0</ele><time>2026-04-25T12:53:02.269Z</time></trkpt><trkpt lat="45.3860246" lon="7.6368274"><ele>437.0</ele><time>2026-04-25T12:53:03.27Z</time></trkpt><trkpt lat="45.3861763" lon="7.6368267"><ele>437.0</ele><time>2026-04-25T12:53:04.271Z</time></trkpt><trkpt lat="45.3863633" lon="7.6368391"><ele>437.0</ele><time>2026-04-25T12:53:05.276Z</time></trkpt><trkpt lat="45.3865228" lon="7.6368204"><ele>437.3333333333333</ele><time>2026-04-25T12:53:06.274Z</time></trkpt><trkpt lat="45.3866741" lon="7.6367551"><ele>437.66666666666663</ele><time>2026-04-25T12:53:07.273Z</time></trkpt><trkpt lat="45.3868294" lon="7.6366981"><ele>438.0</ele><time>2026-04-25T12:53:08.265Z</time></trkpt><trkpt lat="45.3869747" lon="7.6366468"><ele>438.0</ele><time>2026-04-25T12:53:09.278Z</time></trkpt><trkpt lat="45.3871548" lon="7.636642"><ele>438.0</ele><time>2026-04-25T12:53:10.276Z</time></trkpt><trkpt lat="45.3873132" lon="7.6366561"><ele>438.0</ele><time>2026-04-25T12:53:11.282Z</time></trkpt><trkpt lat="45.3874667" lon="7.6367269"><ele>438.33333333333337</ele><time>2026-04-25T12:53:12.283Z</time></trkpt><trkpt lat="45.3876591" lon="7.6367814"><ele>438.6666666666667</ele><time>2026-04-25T12:53:13.271Z</time></trkpt><trkpt lat="45.3878311" lon="7.6368328"><ele>439.0</ele><time>2026-04-25T12:53:14.276Z</time></trkpt><trkpt lat="45.3879948" lon="7.6369089"><ele>439.33333333333337</ele><time>2026-04-25T12:53:15.279Z</time></trkpt><trkpt lat="45.3881349" lon="7.6370158"><ele>439.66666666666663</ele><time>2026-04-25T12:53:16.283Z</time></trkpt><trkpt lat="45.388252" lon="7.63711"><ele>440.0</ele><time>2026-04-25T12:53:17.29Z</time></trkpt><trkpt lat="45.3883652" lon="7.6372879"><ele>440.0</ele><time>2026-04-25T12:53:18.278Z</time></trkpt><trkpt lat="45.3884704" lon="7.6374713"><ele>440.0</ele><time>2026-04-25T12:53:19.275Z</time></trkpt><trkpt lat="45.3885727" lon="7.6376635"><ele>440.0</ele><time>2026-04-25T12:53:20.275Z</time></trkpt><trkpt lat="45.3886996" lon="7.6377935"><ele>440.0</ele><time>2026-04-25T12:53:21.286Z</time></trkpt><trkpt lat="45.3888282" lon="7.637966"><ele>440.0</ele><time>2026-04-25T12:53:22.291Z</time></trkpt><trkpt lat="45.3889693" lon="7.6381275"><ele>440.0</ele><time>2026-04-25T12:53:23.296Z</time></trkpt><trkpt lat="45.3890929" lon="7.6382765"><ele>441.0</ele><time>2026-04-25T12:53:24.284Z</time></trkpt><trkpt lat="45.3891785" lon="7.6384322"><ele>442.0</ele><time>2026-04-25T12:53:25.276Z</time></trkpt><trkpt lat="45.3892784" lon="7.6386179"><ele>443.0</ele><time>2026-04-25T12:53:26.287Z</time></trkpt><trkpt lat="45.3894052" lon="7.6387972"><ele>443.0</ele><time>2026-04-25T12:53:27.288Z</time></trkpt><trkpt lat="45.3895052" lon="7.6390143"><ele>443.0</ele><time>2026-04-25T12:53:28.277Z</time></trkpt><trkpt lat="45.3895978" lon="7.6391868"><ele>443.0</ele><time>2026-04-25T12:53:29.284Z</time></trkpt><trkpt lat="45.3896802" lon="7.6393866"><ele>442.66666666666663</ele><time>2026-04-25T12:53:30.279Z</time></trkpt><trkpt lat="45.3897861" lon="7.6395802"><ele>442.33333333333337</ele><time>2026-04-25T12:53:31.283Z</time></trkpt><trkpt lat="45.3899123" lon="7.6397718"><ele>442.0</ele><time>2026-04-25T12:53:32.275Z</time></trkpt><trkpt lat="45.3900281" lon="7.6399414"><ele>442.0</ele><time>2026-04-25T12:53:33.277Z</time></trkpt><trkpt lat="45.3901431" lon="7.6401009"><ele>442.0</ele><time>2026-04-25T12:53:34.274Z</time></trkpt><trkpt lat="45.3902967" lon="7.6402271"><ele>442.0</ele><time>2026-04-25T12:53:35.28Z</time></trkpt><trkpt lat="45.3904247" lon="7.6403497"><ele>441.33333333333337</ele><time>2026-04-25T12:53:36.274Z</time></trkpt><trkpt lat="45.3906079" lon="7.6404247"><ele>440.66666666666663</ele><time>2026-04-25T12:53:37.272Z</time></trkpt><trkpt lat="45.390754" lon="7.6405421"><ele>440.0</ele><time>2026-04-25T12:53:38.28Z</time></trkpt><trkpt lat="45.3908382" lon="7.640631"><ele>440.0</ele><time>2026-04-25T12:53:39.267Z</time></trkpt><trkpt lat="45.3909679" lon="7.6407178"><ele>440.0</ele><time>2026-04-25T12:53:40.268Z</time></trkpt><trkpt lat="45.3910686" lon="7.6407782"><ele>440.0</ele><time>2026-04-25T12:53:41.271Z</time></trkpt><trkpt lat="45.3911171" lon="7.6408784"><ele>440.0</ele><time>2026-04-25T12:53:42.269Z</time></trkpt><trkpt lat="45.391156" lon="7.6410191"><ele>440.0</ele><time>2026-04-25T12:53:43.283Z</time></trkpt><trkpt lat="45.3911587" lon="7.6411562"><ele>439.25</ele><time>2026-04-25T12:53:44.284Z</time></trkpt><trkpt lat="45.3911103" lon="7.6413108"><ele>438.5</ele><time>2026-04-25T12:53:45.281Z</time></trkpt><trkpt lat="45.3910355" lon="7.6414661"><ele>437.75</ele><time>2026-04-25T12:53:46.292Z</time></trkpt><trkpt lat="45.3909226" lon="7.6416149"><ele>437.0</ele><time>2026-04-25T12:53:47.289Z</time></trkpt><trkpt lat="45.3908043" lon="7.6417685"><ele>437.0</ele><time>2026-04-25T12:53:48.283Z</time></trkpt><trkpt lat="45.3906916" lon="7.6419182"><ele>437.0</ele><time>2026-04-25T12:53:49.287Z</time></trkpt><trkpt lat="45.3905988" lon="7.6420708"><ele>437.0</ele><time>2026-04-25T12:53:50.29Z</time></trkpt><trkpt lat="45.3905086" lon="7.6422176"><ele>437.0</ele><time>2026-04-25T12:53:51.29Z</time></trkpt><trkpt lat="45.3904291" lon="7.6423906"><ele>437.5</ele><time>2026-04-25T12:53:52.297Z</time></trkpt><trkpt lat="45.3903474" lon="7.6425742"><ele>438.0</ele><time>2026-04-25T12:53:53.3Z</time></trkpt><trkpt lat="45.3902784" lon="7.6427566"><ele>438.5</ele><time>2026-04-25T12:53:54.288Z</time></trkpt><trkpt lat="45.3902085" lon="7.6429341"><ele>439.0</ele><time>2026-04-25T12:53:55.283Z</time></trkpt><trkpt lat="45.3901451" lon="7.6430289"><ele>437.79999999999995</ele><time>2026-04-25T12:53:56.283Z</time></trkpt><trkpt lat="45.3901" lon="7.6431507"><ele>436.59999999999997</ele><time>2026-04-25T12:53:57.286Z</time></trkpt><trkpt lat="45.3900293" lon="7.6432692"><ele>435.4</ele><time>2026-04-25T12:53:58.296Z</time></trkpt><trkpt lat="45.3899671" lon="7.6433779"><ele>434.2</ele><time>2026-04-25T12:53:59.296Z</time></trkpt><trkpt lat="45.3898951" lon="7.6434667"><ele>433.0</ele><time>2026-04-25T12:54:00.302Z</time></trkpt><trkpt lat="45.3898245" lon="7.6435591"><ele>431.5</ele><time>2026-04-25T12:54:01.297Z</time></trkpt><trkpt lat="45.3897451" lon="7.6436548"><ele>430.0</ele><time>2026-04-25T12:54:02.291Z</time></trkpt><trkpt lat="45.3896465" lon="7.6437724"><ele>428.5</ele><time>2026-04-25T12:54:03.295Z</time></trkpt><trkpt lat="45.3895302" lon="7.6438944"><ele>427.0</ele><time>2026-04-25T12:54:04.286Z</time></trkpt><trkpt lat="45.3894087" lon="7.6440098"><ele>427.0</ele><time>2026-04-25T12:54:05.294Z</time></trkpt><trkpt lat="45.3892505" lon="7.6441188"><ele>427.0</ele><time>2026-04-25T12:54:06.291Z</time></trkpt><trkpt lat="45.389109" lon="7.6442507"><ele>427.0</ele><time>2026-04-25T12:54:07.292Z</time></trkpt><trkpt lat="45.3889793" lon="7.6443871"><ele>425.6666666666667</ele><time>2026-04-25T12:54:08.299Z</time></trkpt><trkpt lat="45.3888244" lon="7.6445115"><ele>424.33333333333337</ele><time>2026-04-25T12:54:09.308Z</time></trkpt><trkpt lat="45.3886879" lon="7.6446357"><ele>423.0</ele><time>2026-04-25T12:54:10.293Z</time></trkpt><trkpt lat="45.3885507" lon="7.644784"><ele>423.0</ele><time>2026-04-25T12:54:11.299Z</time></trkpt><trkpt lat="45.3884285" lon="7.6449331"><ele>423.0</ele><time>2026-04-25T12:54:12.303Z</time></trkpt><trkpt lat="45.3882981" lon="7.6450652"><ele>423.0</ele><time>2026-04-25T12:54:13.308Z</time></trkpt><trkpt lat="45.3881697" lon="7.6452073"><ele>422.33333333333337</ele><time>2026-04-25T12:54:14.313Z</time></trkpt><trkpt lat="45.3880464" lon="7.6453582"><ele>421.6666666666667</ele><time>2026-04-25T12:54:15.306Z</time></trkpt><trkpt lat="45.3879166" lon="7.6454774"><ele>421.0</ele><time>2026-04-25T12:54:16.309Z</time></trkpt><trkpt lat="45.3878029" lon="7.6455968"><ele>420.8</ele><time>2026-04-25T12:54:17.311Z</time></trkpt><trkpt lat="45.3877054" lon="7.6457051"><ele>420.6</ele><time>2026-04-25T12:54:18.311Z</time></trkpt><trkpt lat="45.3875987" lon="7.6457931"><ele>420.4</ele><time>2026-04-25T12:54:19.301Z</time></trkpt><trkpt lat="45.3875374" lon="7.6458755"><ele>420.2</ele><time>2026-04-25T12:54:20.306Z</time></trkpt><trkpt lat="45.3874717" lon="7.6459505"><ele>420.0</ele><time>2026-04-25T12:54:21.309Z</time></trkpt><trkpt lat="45.3874183" lon="7.6460103"><ele>420.0</ele><time>2026-04-25T12:54:22.303Z</time></trkpt><trkpt lat="45.3873954" lon="7.6460962"><ele>420.0</ele><time>2026-04-25T12:54:23.305Z</time></trkpt><trkpt lat="45.3873824" lon="7.6461893"><ele>420.0</ele><time>2026-04-25T12:54:25.305Z</time></trkpt><trkpt lat="45.3874905" lon="7.646248"><ele>420.0</ele><time>2026-04-25T12:54:27.305Z</time></trkpt><trkpt lat="45.387568" lon="7.6462271"><ele>420.0</ele><time>2026-04-25T12:54:28.305Z</time></trkpt><trkpt lat="45.3876483" lon="7.646243"><ele>420.0</ele><time>2026-04-25T12:54:29.298Z</time></trkpt><trkpt lat="45.3877368" lon="7.646308"><ele>420.0</ele><time>2026-04-25T12:54:30.296Z</time></trkpt><trkpt lat="45.3878395" lon="7.6464088"><ele>420.0</ele><time>2026-04-25T12:54:31.298Z</time></trkpt><trkpt lat="45.3879852" lon="7.6465644"><ele>420.0</ele><time>2026-04-25T12:54:32.277Z</time></trkpt><trkpt lat="45.3881579" lon="7.6467581"><ele>420.0</ele><time>2026-04-25T12:54:33.28Z</time></trkpt><trkpt lat="45.388289" lon="7.6469024"><ele>420.0</ele><time>2026-04-25T12:54:34.274Z</time></trkpt><trkpt lat="45.388424" lon="7.647049"><ele>420.0</ele><time>2026-04-25T12:54:35.281Z</time></trkpt><trkpt lat="45.3885349" lon="7.6471886"><ele>419.75</ele><time>2026-04-25T12:54:36.279Z</time></trkpt><trkpt lat="45.38865" lon="7.6473191"><ele>419.5</ele><time>2026-04-25T12:54:37.293Z</time></trkpt><trkpt lat="45.3887656" lon="7.64745"><ele>419.25</ele><time>2026-04-25T12:54:38.29Z</time></trkpt><trkpt lat="45.388874" lon="7.647571"><ele>419.0</ele><time>2026-04-25T12:54:39.295Z</time></trkpt><trkpt lat="45.3889765" lon="7.6476993"><ele>419.0</ele><time>2026-04-25T12:54:40.296Z</time></trkpt><trkpt lat="45.3890602" lon="7.6478017"><ele>419.0</ele><time>2026-04-25T12:54:41.29Z</time></trkpt><trkpt lat="45.3891656" lon="7.6478724"><ele>419.0</ele><time>2026-04-25T12:54:42.286Z</time></trkpt><trkpt lat="45.3892611" lon="7.6479889"><ele>419.0</ele><time>2026-04-25T12:54:43.291Z</time></trkpt><trkpt lat="45.3893593" lon="7.6480859"><ele>419.0</ele><time>2026-04-25T12:54:44.29Z</time></trkpt><trkpt lat="45.3894677" lon="7.6482064"><ele>419.0</ele><time>2026-04-25T12:54:45.297Z</time></trkpt><trkpt lat="45.3895681" lon="7.6483148"><ele>419.0</ele><time>2026-04-25T12:54:46.282Z</time></trkpt><trkpt lat="45.3896641" lon="7.6484292"><ele>419.0</ele><time>2026-04-25T12:54:47.286Z</time></trkpt><trkpt lat="45.3897529" lon="7.6485361"><ele>418.66666666666663</ele><time>2026-04-25T12:54:48.277Z</time></trkpt><trkpt lat="45.3898364" lon="7.6486216"><ele>418.3333333333333</ele><time>2026-04-25T12:54:49.272Z</time></trkpt><trkpt lat="45.389887" lon="7.6486929"><ele>418.0</ele><time>2026-04-25T12:54:50.275Z</time></trkpt><trkpt lat="45.3899705" lon="7.6487673"><ele>417.66666666666663</ele><time>2026-04-25T12:54:52.289Z</time></trkpt><trkpt lat="45.3899514" lon="7.6488677"><ele>417.3333333333333</ele><time>2026-04-25T12:54:54.281Z</time></trkpt><trkpt lat="45.389898" lon="7.6489326"><ele>417.0</ele><time>2026-04-25T12:54:55.266Z</time></trkpt><trkpt lat="45.3898075" lon="7.6490112"><ele>417.20000000000005</ele><time>2026-04-25T12:54:56.268Z</time></trkpt><trkpt lat="45.3897223" lon="7.6491025"><ele>417.4</ele><time>2026-04-25T12:54:57.27Z</time></trkpt><trkpt lat="45.389641" lon="7.6491936"><ele>417.6</ele><time>2026-04-25T12:54:58.272Z</time></trkpt><trkpt lat="45.3895478" lon="7.6492854"><ele>417.79999999999995</ele><time>2026-04-25T12:54:59.27Z</time></trkpt><trkpt lat="45.389479" lon="7.6493839"><ele>418.0</ele><time>2026-04-25T12:55:00.282Z</time></trkpt><trkpt lat="45.3894238" lon="7.6494811"><ele>418.0</ele><time>2026-04-25T12:55:01.282Z</time></trkpt><trkpt lat="45.3893789" lon="7.6495511"><ele>418.0</ele><time>2026-04-25T12:55:02.282Z</time></trkpt><trkpt lat="45.3893211" lon="7.6496308"><ele>418.0</ele><time>2026-04-25T12:55:04.278Z</time></trkpt><trkpt lat="45.3892743" lon="7.649465"><ele>418.0</ele><time>2026-04-25T12:55:07.262Z</time></trkpt><trkpt lat="45.3892466" lon="7.6493377"><ele>418.0</ele><time>2026-04-25T12:55:08.266Z</time></trkpt><trkpt lat="45.3891991" lon="7.6492252"><ele>418.0</ele><time>2026-04-25T12:55:09.264Z</time></trkpt><trkpt lat="45.3891304" lon="7.6491319"><ele>418.0</ele><time>2026-04-25T12:55:10.271Z</time></trkpt><trkpt lat="45.3890763" lon="7.6490289"><ele>418.0</ele><time>2026-04-25T12:55:11.267Z</time></trkpt><trkpt lat="45.389015" lon="7.6489284"><ele>418.0</ele><time>2026-04-25T12:55:12.273Z</time></trkpt><trkpt lat="45.3889806" lon="7.6488295"><ele>418.0</ele><time>2026-04-25T12:55:13.288Z</time></trkpt><trkpt lat="45.3889244" lon="7.6486759"><ele>418.2</ele><time>2026-04-25T12:55:15.295Z</time></trkpt><trkpt lat="45.3888488" lon="7.6486153"><ele>418.4</ele><time>2026-04-25T12:55:20.291Z</time></trkpt><trkpt lat="45.3887561" lon="7.6486427"><ele>418.59999999999997</ele><time>2026-04-25T12:55:22.305Z</time></trkpt><trkpt lat="45.3886941" lon="7.6487083"><ele>418.79999999999995</ele><time>2026-04-25T12:55:23.305Z</time></trkpt><trkpt lat="45.3885996" lon="7.6488185"><ele>419.0</ele><time>2026-04-25T12:55:24.303Z</time></trkpt><trkpt lat="45.3884881" lon="7.6489727"><ele>418.5</ele><time>2026-04-25T12:55:25.291Z</time></trkpt><trkpt lat="45.3883803" lon="7.6491244"><ele>418.0</ele><time>2026-04-25T12:55:26.304Z</time></trkpt><trkpt lat="45.3882821" lon="7.6492849"><ele>417.5</ele><time>2026-04-25T12:55:27.304Z</time></trkpt><trkpt lat="45.3881927" lon="7.649427"><ele>417.0</ele><time>2026-04-25T12:55:28.293Z</time></trkpt><trkpt lat="45.3881105" lon="7.6495477"><ele>416.8333333333333</ele><time>2026-04-25T12:55:29.297Z</time></trkpt><trkpt lat="45.3880611" lon="7.6496458"><ele>416.66666666666663</ele><time>2026-04-25T12:55:30.298Z</time></trkpt><trkpt lat="45.3880264" lon="7.6497207"><ele>416.5</ele><time>2026-04-25T12:55:31.297Z</time></trkpt><trkpt lat="45.3879809" lon="7.6498157"><ele>416.3333333333333</ele><time>2026-04-25T12:55:33.292Z</time></trkpt><trkpt lat="45.3880667" lon="7.6499245"><ele>416.16666666666663</ele><time>2026-04-25T12:55:35.279Z</time></trkpt><trkpt lat="45.3881413" lon="7.6500102"><ele>416.0</ele><time>2026-04-25T12:55:36.277Z</time></trkpt><trkpt lat="45.388222" lon="7.6501104"><ele>416.0</ele><time>2026-04-25T12:55:37.273Z</time></trkpt><trkpt lat="45.3882796" lon="7.6502282"><ele>416.0</ele><time>2026-04-25T12:55:38.274Z</time></trkpt><trkpt lat="45.3883672" lon="7.650334"><ele>416.0</ele><time>2026-04-25T12:55:39.272Z</time></trkpt><trkpt lat="45.3884486" lon="7.6504314"><ele>416.0</ele><time>2026-04-25T12:55:40.267Z</time></trkpt><trkpt lat="45.3885177" lon="7.6504771"><ele>416.0</ele><time>2026-04-25T12:55:41.262Z</time></trkpt><trkpt lat="45.3885818" lon="7.6505104"><ele>416.0</ele><time>2026-04-25T12:55:42.27Z</time></trkpt><trkpt lat="45.3886743" lon="7.6505473"><ele>416.0</ele><time>2026-04-25T12:55:44.26Z</time></trkpt><trkpt lat="45.3887375" lon="7.6505452"><ele>416.0</ele><time>2026-04-25T12:55:47.279Z</time></trkpt><trkpt lat="45.3888377" lon="7.6505154"><ele>416.0</ele><time>2026-04-25T12:55:49.265Z</time></trkpt><trkpt lat="45.3889168" lon="7.6504356"><ele>416.0</ele><time>2026-04-25T12:55:50.261Z</time></trkpt><trkpt lat="45.3890115" lon="7.6503193"><ele>415.20000000000005</ele><time>2026-04-25T12:55:51.268Z</time></trkpt><trkpt lat="45.3891046" lon="7.6502141"><ele>414.40000000000003</ele><time>2026-04-25T12:55:52.276Z</time></trkpt><trkpt lat="45.3891926" lon="7.6501294"><ele>413.6</ele><time>2026-04-25T12:55:53.268Z</time></trkpt><trkpt lat="45.3892659" lon="7.6500584"><ele>412.8</ele><time>2026-04-25T12:55:54.278Z</time></trkpt><trkpt lat="45.3893325" lon="7.6500139"><ele>412.0</ele><time>2026-04-25T12:55:55.277Z</time></trkpt><trkpt lat="45.3893963" lon="7.6500046"><ele>412.0</ele><time>2026-04-25T12:55:56.272Z</time></trkpt><trkpt lat="45.389468" lon="7.6500351"><ele>412.0</ele><time>2026-04-25T12:55:57.288Z</time></trkpt><trkpt lat="45.3895548" lon="7.6501216"><ele>412.0</ele><time>2026-04-25T12:55:58.283Z</time></trkpt><trkpt lat="45.3896404" lon="7.6502477"><ele>412.0</ele><time>2026-04-25T12:55:59.275Z</time></trkpt><trkpt lat="45.389724" lon="7.6503771"><ele>412.0</ele><time>2026-04-25T12:56:00.277Z</time></trkpt><trkpt lat="45.3898166" lon="7.6505103"><ele>410.75</ele><time>2026-04-25T12:56:01.287Z</time></trkpt><trkpt lat="45.3899125" lon="7.6506312"><ele>409.5</ele><time>2026-04-25T12:56:02.291Z</time></trkpt><trkpt lat="45.3900091" lon="7.6507457"><ele>408.25</ele><time>2026-04-25T12:56:03.298Z</time></trkpt><trkpt lat="45.3900948" lon="7.650838"><ele>407.0</ele><time>2026-04-25T12:56:04.291Z</time></trkpt><trkpt lat="45.3901739" lon="7.6508976"><ele>406.99999999999994</ele><time>2026-04-25T12:56:05.292Z</time></trkpt><trkpt lat="45.3902428" lon="7.6509652"><ele>407.0</ele><time>2026-04-25T12:56:06.291Z</time></trkpt><trkpt lat="45.3903112" lon="7.6510327"><ele>407.0</ele><time>2026-04-25T12:56:07.291Z</time></trkpt><trkpt lat="45.3903742" lon="7.6510831"><ele>407.0</ele><time>2026-04-25T12:56:08.292Z</time></trkpt><trkpt lat="45.3904323" lon="7.6511242"><ele>406.99999999999994</ele><time>2026-04-25T12:56:09.29Z</time></trkpt><trkpt lat="45.3905298" lon="7.6512077"><ele>407.0</ele><time>2026-04-25T12:56:11.28Z</time></trkpt><trkpt lat="45.3905933" lon="7.6512437"><ele>407.20000000000005</ele><time>2026-04-25T12:56:13.267Z</time></trkpt><trkpt lat="45.3906408" lon="7.6513064"><ele>407.4</ele><time>2026-04-25T12:56:27.295Z</time></trkpt><trkpt lat="45.3907206" lon="7.6514104"><ele>407.6</ele><time>2026-04-25T12:56:29.295Z</time></trkpt><trkpt lat="45.3907888" lon="7.6514866"><ele>407.79999999999995</ele><time>2026-04-25T12:56:30.281Z</time></trkpt><trkpt lat="45.3909111" lon="7.6516118"><ele>408.0</ele><time>2026-04-25T12:56:31.267Z</time></trkpt><trkpt lat="45.3910376" lon="7.6517605"><ele>408.0</ele><time>2026-04-25T12:56:32.265Z</time></trkpt><trkpt lat="45.391177" lon="7.6519147"><ele>408.0</ele><time>2026-04-25T12:56:33.277Z</time></trkpt><trkpt lat="45.3913069" lon="7.6520448"><ele>408.0</ele><time>2026-04-25T12:56:34.28Z</time></trkpt><trkpt lat="45.3914314" lon="7.6521773"><ele>406.79999999999995</ele><time>2026-04-25T12:56:35.275Z</time></trkpt><trkpt lat="45.3915294" lon="7.652298"><ele>405.6</ele><time>2026-04-25T12:56:36.282Z</time></trkpt><trkpt lat="45.3916287" lon="7.6524209"><ele>404.4</ele><time>2026-04-25T12:56:37.288Z</time></trkpt><trkpt lat="45.3917068" lon="7.6525168"><ele>403.20000000000005</ele><time>2026-04-25T12:56:38.288Z</time></trkpt><trkpt lat="45.3917659" lon="7.6525819"><ele>402.0</ele><time>2026-04-25T12:56:39.287Z</time></trkpt><trkpt lat="45.39181" lon="7.652646"><ele>402.0</ele><time>2026-04-25T12:56:42.295Z</time></trkpt><trkpt lat="45.3919069" lon="7.6525318"><ele>402.0</ele><time>2026-04-25T12:56:45.303Z</time></trkpt><trkpt lat="45.3919855" lon="7.6524268"><ele>402.0</ele><time>2026-04-25T12:56:46.289Z</time></trkpt><trkpt lat="45.3920734" lon="7.652304"><ele>402.0</ele><time>2026-04-25T12:56:47.285Z</time></trkpt><trkpt lat="45.3921545" lon="7.6521812"><ele>402.0</ele><time>2026-04-25T12:56:48.284Z</time></trkpt><trkpt lat="45.3922442" lon="7.6520838"><ele>402.0</ele><time>2026-04-25T12:56:49.289Z</time></trkpt><trkpt lat="45.3923092" lon="7.6519673"><ele>402.0</ele><time>2026-04-25T12:56:50.29Z</time></trkpt><trkpt lat="45.3923605" lon="7.6518182"><ele>402.0</ele><time>2026-04-25T12:56:51.292Z</time></trkpt><trkpt lat="45.392407" lon="7.6516726"><ele>402.0</ele><time>2026-04-25T12:56:52.287Z</time></trkpt><trkpt lat="45.3924596" lon="7.65157"><ele>402.0</ele><time>2026-04-25T12:56:53.278Z</time></trkpt><trkpt lat="45.3925351" lon="7.6514893"><ele>402.0</ele><time>2026-04-25T12:56:55.284Z</time></trkpt><trkpt lat="45.3926097" lon="7.6515407"><ele>402.0</ele><time>2026-04-25T12:56:58.284Z</time></trkpt><trkpt lat="45.3926657" lon="7.6515946"><ele>402.0</ele><time>2026-04-25T12:56:59.306Z</time></trkpt><trkpt lat="45.3927391" lon="7.651685"><ele>402.0</ele><time>2026-04-25T12:57:00.292Z</time></trkpt><trkpt lat="45.3928338" lon="7.6518169"><ele>402.0</ele><time>2026-04-25T12:57:01.308Z</time></trkpt><trkpt lat="45.3929379" lon="7.6519484"><ele>402.0</ele><time>2026-04-25T12:57:02.299Z</time></trkpt><trkpt lat="45.3930483" lon="7.6520826"><ele>402.0</ele><time>2026-04-25T12:57:03.292Z</time></trkpt><trkpt lat="45.3931676" lon="7.652223"><ele>402.0</ele><time>2026-04-25T12:57:04.296Z</time></trkpt><trkpt lat="45.3932969" lon="7.6523533"><ele>398.66666666666663</ele><time>2026-04-25T12:57:05.307Z</time></trkpt><trkpt lat="45.393425" lon="7.652481"><ele>395.3333333333333</ele><time>2026-04-25T12:57:06.301Z</time></trkpt><trkpt lat="45.3935421" lon="7.6526144"><ele>392.0</ele><time>2026-04-25T12:57:07.304Z</time></trkpt><trkpt lat="45.3936569" lon="7.652737"><ele>390.5</ele><time>2026-04-25T12:57:08.302Z</time></trkpt><trkpt lat="45.3937657" lon="7.6528509"><ele>389.0</ele><time>2026-04-25T12:57:09.305Z</time></trkpt><trkpt lat="45.3938846" lon="7.6529803"><ele>387.5</ele><time>2026-04-25T12:57:10.308Z</time></trkpt><trkpt lat="45.3940078" lon="7.6531073"><ele>386.0</ele><time>2026-04-25T12:57:11.308Z</time></trkpt><trkpt lat="45.3941372" lon="7.6532288"><ele>385.3333333333333</ele><time>2026-04-25T12:57:12.311Z</time></trkpt><trkpt lat="45.394265" lon="7.6533561"><ele>384.66666666666663</ele><time>2026-04-25T12:57:13.314Z</time></trkpt><trkpt lat="45.394398" lon="7.6534767"><ele>384.0</ele><time>2026-04-25T12:57:14.316Z</time></trkpt><trkpt lat="45.394526" lon="7.6536201"><ele>382.5</ele><time>2026-04-25T12:57:15.319Z</time></trkpt><trkpt lat="45.3946374" lon="7.653743"><ele>381.0</ele><time>2026-04-25T12:57:16.314Z</time></trkpt><trkpt lat="45.394759" lon="7.653854"><ele>379.5</ele><time>2026-04-25T12:57:17.312Z</time></trkpt><trkpt lat="45.3948582" lon="7.6539718"><ele>378.0</ele><time>2026-04-25T12:57:18.316Z</time></trkpt><trkpt lat="45.3949673" lon="7.654086"><ele>377.75</ele><time>2026-04-25T12:57:19.313Z</time></trkpt><trkpt lat="45.3950839" lon="7.6542077"><ele>377.5</ele><time>2026-04-25T12:57:20.317Z</time></trkpt><trkpt lat="45.3951982" lon="7.6543272"><ele>377.25</ele><time>2026-04-25T12:57:21.309Z</time></trkpt><trkpt lat="45.3952981" lon="7.6544419"><ele>377.0</ele><time>2026-04-25T12:57:22.314Z</time></trkpt><trkpt lat="45.3954044" lon="7.6545567"><ele>379.0</ele><time>2026-04-25T12:57:23.311Z</time></trkpt><trkpt lat="45.3955203" lon="7.6546822"><ele>381.0</ele><time>2026-04-25T12:57:24.31Z</time></trkpt><trkpt lat="45.3956535" lon="7.6548054"><ele>383.0</ele><time>2026-04-25T12:57:25.317Z</time></trkpt><trkpt lat="45.3957644" lon="7.6549431"><ele>383.0</ele><time>2026-04-25T12:57:26.312Z</time></trkpt><trkpt lat="45.3958802" lon="7.6550723"><ele>383.0</ele><time>2026-04-25T12:57:27.311Z</time></trkpt><trkpt lat="45.3959966" lon="7.6551808"><ele>383.0</ele><time>2026-04-25T12:57:28.307Z</time></trkpt><trkpt lat="45.3960672" lon="7.6552779"><ele>383.0</ele><time>2026-04-25T12:57:29.302Z</time></trkpt><trkpt lat="45.3961388" lon="7.6553557"><ele>383.0</ele><time>2026-04-25T12:57:30.302Z</time></trkpt><trkpt lat="45.3962127" lon="7.6554326"><ele>383.0</ele><time>2026-04-25T12:57:31.295Z</time></trkpt><trkpt lat="45.3962684" lon="7.6555011"><ele>383.0</ele><time>2026-04-25T12:57:32.3Z</time></trkpt><trkpt lat="45.3963388" lon="7.6556397"><ele>383.0</ele><time>2026-04-25T12:57:34.3Z</time></trkpt><trkpt lat="45.3963506" lon="7.6557489"><ele>383.0</ele><time>2026-04-25T12:57:35.308Z</time></trkpt><trkpt lat="45.3963475" lon="7.6558894"><ele>383.0</ele><time>2026-04-25T12:57:36.311Z</time></trkpt><trkpt lat="45.3963055" lon="7.6560596"><ele>383.0</ele><time>2026-04-25T12:57:37.3Z</time></trkpt><trkpt lat="45.3962508" lon="7.6562532"><ele>383.0</ele><time>2026-04-25T12:57:38.283Z</time></trkpt><trkpt lat="45.396203" lon="7.6564642"><ele>383.0</ele><time>2026-04-25T12:57:39.297Z</time></trkpt><trkpt lat="45.3961439" lon="7.6566719"><ele>382.33333333333337</ele><time>2026-04-25T12:57:40.295Z</time></trkpt><trkpt lat="45.3961332" lon="7.6568892"><ele>381.6666666666667</ele><time>2026-04-25T12:57:41.291Z</time></trkpt><trkpt lat="45.3960996" lon="7.6571086"><ele>381.0</ele><time>2026-04-25T12:57:42.311Z</time></trkpt><trkpt lat="45.3960737" lon="7.6573245"><ele>380.6666666666667</ele><time>2026-04-25T12:57:43.307Z</time></trkpt><trkpt lat="45.3960184" lon="7.6575277"><ele>380.33333333333337</ele><time>2026-04-25T12:57:44.308Z</time></trkpt><trkpt lat="45.395968" lon="7.6577351"><ele>380.0</ele><time>2026-04-25T12:57:45.31Z</time></trkpt><trkpt lat="45.3959127" lon="7.6579572"><ele>380.0</ele><time>2026-04-25T12:57:46.303Z</time></trkpt><trkpt lat="45.3958816" lon="7.6581931"><ele>380.0</ele><time>2026-04-25T12:57:47.287Z</time></trkpt><trkpt lat="45.395856" lon="7.6584344"><ele>380.0</ele><time>2026-04-25T12:57:48.304Z</time></trkpt><trkpt lat="45.3958248" lon="7.6586498"><ele>380.0</ele><time>2026-04-25T12:57:49.304Z</time></trkpt><trkpt lat="45.3957834" lon="7.6588536"><ele>380.0</ele><time>2026-04-25T12:57:50.303Z</time></trkpt><trkpt lat="45.3957454" lon="7.6590686"><ele>380.0</ele><time>2026-04-25T12:57:51.313Z</time></trkpt><trkpt lat="45.3956976" lon="7.6592583"><ele>380.0</ele><time>2026-04-25T12:57:52.319Z</time></trkpt><trkpt lat="45.3956795" lon="7.6594552"><ele>379.8</ele><time>2026-04-25T12:57:53.31Z</time></trkpt><trkpt lat="45.3956383" lon="7.6596372"><ele>379.6</ele><time>2026-04-25T12:57:54.31Z</time></trkpt><trkpt lat="45.3956239" lon="7.6598133"><ele>379.4</ele><time>2026-04-25T12:57:55.3Z</time></trkpt><trkpt lat="45.3955817" lon="7.6599368"><ele>379.2</ele><time>2026-04-25T12:57:56.302Z</time></trkpt><trkpt lat="45.3955267" lon="7.660039"><ele>379.0</ele><time>2026-04-25T12:57:57.305Z</time></trkpt><trkpt lat="45.3954551" lon="7.660127"><ele>379.0</ele><time>2026-04-25T12:57:58.308Z</time></trkpt><trkpt lat="45.3953879" lon="7.6602479"><ele>379.0</ele><time>2026-04-25T12:57:59.292Z</time></trkpt><trkpt lat="45.3953436" lon="7.6603993"><ele>379.0</ele><time>2026-04-25T12:58:00.295Z</time></trkpt><trkpt lat="45.3953289" lon="7.6605252"><ele>379.0</ele><time>2026-04-25T12:58:01.287Z</time></trkpt><trkpt lat="45.3953259" lon="7.6606461"><ele>379.0</ele><time>2026-04-25T12:58:02.293Z</time></trkpt><trkpt lat="45.395296" lon="7.6607571"><ele>379.0</ele><time>2026-04-25T12:58:03.288Z</time></trkpt><trkpt lat="45.395239" lon="7.6608521"><ele>379.0</ele><time>2026-04-25T12:58:04.303Z</time></trkpt><trkpt lat="45.3951479" lon="7.6609308"><ele>379.0</ele><time>2026-04-25T12:58:05.284Z</time></trkpt><trkpt lat="45.3950231" lon="7.6610024"><ele>379.0</ele><time>2026-04-25T12:58:06.288Z</time></trkpt><trkpt lat="45.3948919" lon="7.661085"><ele>381.3333333333333</ele><time>2026-04-25T12:58:07.284Z</time></trkpt><trkpt lat="45.3947413" lon="7.6611722"><ele>383.66666666666663</ele><time>2026-04-25T12:58:08.281Z</time></trkpt><trkpt lat="45.3945785" lon="7.6612848"><ele>386.0</ele><time>2026-04-25T12:58:09.283Z</time></trkpt><trkpt lat="45.3944376" lon="7.6613839"><ele>386.0</ele><time>2026-04-25T12:58:10.28Z</time></trkpt><trkpt lat="45.3942824" lon="7.6614477"><ele>386.0</ele><time>2026-04-25T12:58:11.293Z</time></trkpt><trkpt lat="45.3941702" lon="7.6615507"><ele>386.0</ele><time>2026-04-25T12:58:12.29Z</time></trkpt><trkpt lat="45.3940423" lon="7.6616574"><ele>386.0</ele><time>2026-04-25T12:58:13.293Z</time></trkpt><trkpt lat="45.3939137" lon="7.6617593"><ele>384.0</ele><time>2026-04-25T12:58:14.29Z</time></trkpt><trkpt lat="45.3937745" lon="7.6618777"><ele>382.0</ele><time>2026-04-25T12:58:15.293Z</time></trkpt><trkpt lat="45.3936396" lon="7.6619805"><ele>380.0</ele><time>2026-04-25T12:58:16.309Z</time></trkpt><trkpt lat="45.3935208" lon="7.6621264"><ele>380.0</ele><time>2026-04-25T12:58:17.293Z</time></trkpt><trkpt lat="45.3933882" lon="7.6622726"><ele>380.0</ele><time>2026-04-25T12:58:18.298Z</time></trkpt><trkpt lat="45.3932499" lon="7.6624294"><ele>380.0</ele><time>2026-04-25T12:58:19.302Z</time></trkpt><trkpt lat="45.3931177" lon="7.6625784"><ele>378.6666666666667</ele><time>2026-04-25T12:58:20.299Z</time></trkpt><trkpt lat="45.3929532" lon="7.6627064"><ele>377.3333333333333</ele><time>2026-04-25T12:58:21.296Z</time></trkpt><trkpt lat="45.3928202" lon="7.662868"><ele>376.0</ele><time>2026-04-25T12:58:22.311Z</time></trkpt><trkpt lat="45.3926943" lon="7.6630134"><ele>376.0</ele><time>2026-04-25T12:58:23.294Z</time></trkpt><trkpt lat="45.392595" lon="7.663183"><ele>376.0</ele><time>2026-04-25T12:58:24.291Z</time></trkpt><trkpt lat="45.3924626" lon="7.6632998"><ele>376.0</ele><time>2026-04-25T12:58:25.29Z</time></trkpt><trkpt lat="45.3923248" lon="7.6634448"><ele>373.66666666666663</ele><time>2026-04-25T12:58:26.296Z</time></trkpt><trkpt lat="45.3922002" lon="7.6636291"><ele>371.3333333333333</ele><time>2026-04-25T12:58:27.297Z</time></trkpt><trkpt lat="45.392111" lon="7.6638414"><ele>369.0</ele><time>2026-04-25T12:58:28.29Z</time></trkpt><trkpt lat="45.3920296" lon="7.6640707"><ele>369.0</ele><time>2026-04-25T12:58:29.298Z</time></trkpt><trkpt lat="45.3919795" lon="7.6643324"><ele>369.0</ele><time>2026-04-25T12:58:30.294Z</time></trkpt><trkpt lat="45.3919524" lon="7.6646141"><ele>369.0</ele><time>2026-04-25T12:58:31.301Z</time></trkpt><trkpt lat="45.3919097" lon="7.6648879"><ele>369.3333333333333</ele><time>2026-04-25T12:58:32.298Z</time></trkpt><trkpt lat="45.3918353" lon="7.6651208"><ele>369.66666666666663</ele><time>2026-04-25T12:58:33.299Z</time></trkpt><trkpt lat="45.3917916" lon="7.6653588"><ele>370.0</ele><time>2026-04-25T12:58:34.295Z</time></trkpt><trkpt lat="45.391738" lon="7.6655755"><ele>370.66666666666663</ele><time>2026-04-25T12:58:35.307Z</time></trkpt><trkpt lat="45.3916817" lon="7.6657884"><ele>371.3333333333333</ele><time>2026-04-25T12:58:36.294Z</time></trkpt><trkpt lat="45.391599" lon="7.6659781"><ele>372.0</ele><time>2026-04-25T12:58:37.307Z</time></trkpt><trkpt lat="45.3915101" lon="7.6661777"><ele>371.0</ele><time>2026-04-25T12:58:38.298Z</time></trkpt><trkpt lat="45.3914247" lon="7.6663763"><ele>370.0</ele><time>2026-04-25T12:58:39.297Z</time></trkpt><trkpt lat="45.391345" lon="7.6665777"><ele>369.0</ele><time>2026-04-25T12:58:40.294Z</time></trkpt><trkpt lat="45.3912529" lon="7.6667851"><ele>371.6666666666667</ele><time>2026-04-25T12:58:41.293Z</time></trkpt><trkpt lat="45.391169" lon="7.6669747"><ele>374.33333333333337</ele><time>2026-04-25T12:58:42.291Z</time></trkpt><trkpt lat="45.3910548" lon="7.6671632"><ele>377.0</ele><time>2026-04-25T12:58:43.292Z</time></trkpt><trkpt lat="45.3909174" lon="7.6673467"><ele>377.0</ele><time>2026-04-25T12:58:44.286Z</time></trkpt><trkpt lat="45.3907985" lon="7.6675554"><ele>377.0</ele><time>2026-04-25T12:58:45.293Z</time></trkpt><trkpt lat="45.3906704" lon="7.6677646"><ele>377.0</ele><time>2026-04-25T12:58:46.289Z</time></trkpt><trkpt lat="45.3905436" lon="7.6679757"><ele>374.0</ele><time>2026-04-25T12:58:47.293Z</time></trkpt><trkpt lat="45.3904156" lon="7.6681939"><ele>371.0</ele><time>2026-04-25T12:58:48.295Z</time></trkpt><trkpt lat="45.3902927" lon="7.6684099"><ele>368.0</ele><time>2026-04-25T12:58:49.301Z</time></trkpt><trkpt lat="45.390145" lon="7.6685977"><ele>372.33333333333337</ele><time>2026-04-25T12:58:50.296Z</time></trkpt><trkpt lat="45.390022" lon="7.6688122"><ele>376.6666666666667</ele><time>2026-04-25T12:58:51.299Z</time></trkpt><trkpt lat="45.3899363" lon="7.6690677"><ele>381.0</ele><time>2026-04-25T12:58:52.295Z</time></trkpt><trkpt lat="45.389809" lon="7.6692894"><ele>376.0</ele><time>2026-04-25T12:58:53.303Z</time></trkpt><trkpt lat="45.3896859" lon="7.6695082"><ele>371.0</ele><time>2026-04-25T12:58:54.293Z</time></trkpt><trkpt lat="45.3895811" lon="7.669749"><ele>366.0</ele><time>2026-04-25T12:58:55.308Z</time></trkpt><trkpt lat="45.3894564" lon="7.6699723"><ele>366.0</ele><time>2026-04-25T12:58:56.309Z</time></trkpt><trkpt lat="45.3893355" lon="7.6701875"><ele>366.0</ele><time>2026-04-25T12:58:57.308Z</time></trkpt><trkpt lat="45.3892308" lon="7.670425"><ele>366.0</ele><time>2026-04-25T12:58:58.317Z</time></trkpt><trkpt lat="45.3890984" lon="7.670651"><ele>366.3333333333333</ele><time>2026-04-25T12:58:59.304Z</time></trkpt><trkpt lat="45.3889885" lon="7.6709126"><ele>366.66666666666663</ele><time>2026-04-25T12:59:00.303Z</time></trkpt><trkpt lat="45.3888682" lon="7.6711787"><ele>367.0</ele><time>2026-04-25T12:59:01.306Z</time></trkpt><trkpt lat="45.3887566" lon="7.6714517"><ele>367.0</ele><time>2026-04-25T12:59:02.3Z</time></trkpt><trkpt lat="45.3886436" lon="7.6717106"><ele>367.0</ele><time>2026-04-25T12:59:03.304Z</time></trkpt><trkpt lat="45.388542" lon="7.6719801"><ele>367.0</ele><time>2026-04-25T12:59:04.301Z</time></trkpt><trkpt lat="45.3884371" lon="7.6722404"><ele>368.0</ele><time>2026-04-25T12:59:05.305Z</time></trkpt><trkpt lat="45.3883324" lon="7.6725005"><ele>369.0</ele><time>2026-04-25T12:59:06.303Z</time></trkpt><trkpt lat="45.3882202" lon="7.6727565"><ele>370.0</ele><time>2026-04-25T12:59:07.304Z</time></trkpt><trkpt lat="45.3881083" lon="7.6730074"><ele>369.66666666666663</ele><time>2026-04-25T12:59:08.307Z</time></trkpt><trkpt lat="45.387998" lon="7.6732561"><ele>369.3333333333333</ele><time>2026-04-25T12:59:09.307Z</time></trkpt><trkpt lat="45.3878924" lon="7.6735108"><ele>369.0</ele><time>2026-04-25T12:59:10.305Z</time></trkpt><trkpt lat="45.3877733" lon="7.6737598"><ele>369.0</ele><time>2026-04-25T12:59:11.307Z</time></trkpt><trkpt lat="45.3876499" lon="7.6739922"><ele>369.0</ele><time>2026-04-25T12:59:12.306Z</time></trkpt><trkpt lat="45.3875221" lon="7.6742162"><ele>369.0</ele><time>2026-04-25T12:59:13.301Z</time></trkpt><trkpt lat="45.3874027" lon="7.6744462"><ele>369.6666666666667</ele><time>2026-04-25T12:59:14.301Z</time></trkpt><trkpt lat="45.3873034" lon="7.6746921"><ele>370.33333333333337</ele><time>2026-04-25T12:59:15.302Z</time></trkpt><trkpt lat="45.3872153" lon="7.6749493"><ele>371.0</ele><time>2026-04-25T12:59:16.312Z</time></trkpt><trkpt lat="45.3871403" lon="7.6752261"><ele>369.33333333333337</ele><time>2026-04-25T12:59:17.305Z</time></trkpt><trkpt lat="45.38706" lon="7.6754877"><ele>367.6666666666667</ele><time>2026-04-25T12:59:18.311Z</time></trkpt><trkpt lat="45.386984" lon="7.6757447"><ele>366.0</ele><time>2026-04-25T12:59:19.309Z</time></trkpt><trkpt lat="45.3869235" lon="7.6759999"><ele>365.6666666666667</ele><time>2026-04-25T12:59:20.302Z</time></trkpt><trkpt lat="45.3868557" lon="7.6762275"><ele>365.33333333333337</ele><time>2026-04-25T12:59:21.305Z</time></trkpt><trkpt lat="45.386775" lon="7.6764506"><ele>365.0</ele><time>2026-04-25T12:59:22.321Z</time></trkpt><trkpt lat="45.386685" lon="7.6766774"><ele>365.0</ele><time>2026-04-25T12:59:23.314Z</time></trkpt><trkpt lat="45.3865779" lon="7.6769015"><ele>365.0</ele><time>2026-04-25T12:59:24.328Z</time></trkpt><trkpt lat="45.3864577" lon="7.6771341"><ele>365.0</ele><time>2026-04-25T12:59:25.312Z</time></trkpt><trkpt lat="45.3863399" lon="7.6773567"><ele>362.6666666666667</ele><time>2026-04-25T12:59:26.319Z</time></trkpt><trkpt lat="45.3862136" lon="7.6775931"><ele>360.3333333333333</ele><time>2026-04-25T12:59:27.314Z</time></trkpt><trkpt lat="45.3860917" lon="7.677834"><ele>358.0</ele><time>2026-04-25T12:59:28.325Z</time></trkpt><trkpt lat="45.3859705" lon="7.6780985"><ele>357.66666666666663</ele><time>2026-04-25T12:59:29.322Z</time></trkpt><trkpt lat="45.3858409" lon="7.6783449"><ele>357.3333333333333</ele><time>2026-04-25T12:59:30.321Z</time></trkpt><trkpt lat="45.3857142" lon="7.6785954"><ele>357.0</ele><time>2026-04-25T12:59:31.318Z</time></trkpt><trkpt lat="45.3855911" lon="7.6788558"><ele>356.6666666666667</ele><time>2026-04-25T12:59:32.323Z</time></trkpt><trkpt lat="45.3854615" lon="7.6790976"><ele>356.33333333333337</ele><time>2026-04-25T12:59:33.314Z</time></trkpt><trkpt lat="45.3853384" lon="7.6793352"><ele>356.0</ele><time>2026-04-25T12:59:34.319Z</time></trkpt><trkpt lat="45.3852222" lon="7.6795815"><ele>356.6666666666667</ele><time>2026-04-25T12:59:35.317Z</time></trkpt><trkpt lat="45.3851073" lon="7.6798203"><ele>357.3333333333333</ele><time>2026-04-25T12:59:36.321Z</time></trkpt><trkpt lat="45.3849913" lon="7.6800638"><ele>358.0</ele><time>2026-04-25T12:59:37.316Z</time></trkpt><trkpt lat="45.3848812" lon="7.6802964"><ele>358.0</ele><time>2026-04-25T12:59:38.315Z</time></trkpt><trkpt lat="45.3847643" lon="7.6805378"><ele>358.0</ele><time>2026-04-25T12:59:39.323Z</time></trkpt><trkpt lat="45.3846534" lon="7.6807794"><ele>358.0</ele><time>2026-04-25T12:59:40.323Z</time></trkpt><trkpt lat="45.3845244" lon="7.6810153"><ele>357.0</ele><time>2026-04-25T12:59:41.32Z</time></trkpt><trkpt lat="45.3844046" lon="7.6812645"><ele>356.0</ele><time>2026-04-25T12:59:42.319Z</time></trkpt><trkpt lat="45.3842857" lon="7.681511"><ele>355.0</ele><time>2026-04-25T12:59:43.32Z</time></trkpt><trkpt lat="45.3841593" lon="7.681752"><ele>355.0</ele><time>2026-04-25T12:59:44.32Z</time></trkpt><trkpt lat="45.3840587" lon="7.6820132"><ele>355.0</ele><time>2026-04-25T12:59:45.325Z</time></trkpt><trkpt lat="45.3839399" lon="7.6822706"><ele>355.0</ele><time>2026-04-25T12:59:46.319Z</time></trkpt><trkpt lat="45.3838355" lon="7.6825535"><ele>354.3333333333333</ele><time>2026-04-25T12:59:47.325Z</time></trkpt><trkpt lat="45.3837447" lon="7.6828378"><ele>353.6666666666667</ele><time>2026-04-25T12:59:48.32Z</time></trkpt><trkpt lat="45.3836652" lon="7.6831188"><ele>353.0</ele><time>2026-04-25T12:59:49.325Z</time></trkpt><trkpt lat="45.3835888" lon="7.6833991"><ele>352.33333333333337</ele><time>2026-04-25T12:59:50.308Z</time></trkpt><trkpt lat="45.3835283" lon="7.6836949"><ele>351.6666666666667</ele><time>2026-04-25T12:59:51.322Z</time></trkpt><trkpt lat="45.3834861" lon="7.6839974"><ele>351.0</ele><time>2026-04-25T12:59:52.309Z</time></trkpt><trkpt lat="45.3834469" lon="7.6842819"><ele>351.0</ele><time>2026-04-25T12:59:53.319Z</time></trkpt><trkpt lat="45.3834068" lon="7.6845821"><ele>351.0</ele><time>2026-04-25T12:59:54.317Z</time></trkpt><trkpt lat="45.3833859" lon="7.6848595"><ele>351.0</ele><time>2026-04-25T12:59:55.321Z</time></trkpt><trkpt lat="45.3833788" lon="7.6851484"><ele>351.3333333333333</ele><time>2026-04-25T12:59:56.321Z</time></trkpt><trkpt lat="45.3833685" lon="7.6853926"><ele>351.66666666666663</ele><time>2026-04-25T12:59:57.317Z</time></trkpt><trkpt lat="45.3833846" lon="7.6856361"><ele>352.0</ele><time>2026-04-25T12:59:58.314Z</time></trkpt><trkpt lat="45.3833861" lon="7.6858554"><ele>352.0</ele><time>2026-04-25T12:59:59.312Z</time></trkpt><trkpt lat="45.3833918" lon="7.6860693"><ele>352.0</ele><time>2026-04-25T13:00:00.321Z</time></trkpt><trkpt lat="45.3833938" lon="7.6862826"><ele>352.0</ele><time>2026-04-25T13:00:01.309Z</time></trkpt><trkpt lat="45.3834037" lon="7.6864705"><ele>352.0</ele><time>2026-04-25T13:00:02.309Z</time></trkpt><trkpt lat="45.3834024" lon="7.686617"><ele>352.3333333333333</ele><time>2026-04-25T13:00:03.313Z</time></trkpt><trkpt lat="45.3833836" lon="7.6867502"><ele>352.66666666666663</ele><time>2026-04-25T13:00:04.303Z</time></trkpt><trkpt lat="45.3833925" lon="7.6868607"><ele>353.0</ele><time>2026-04-25T13:00:05.3Z</time></trkpt><trkpt lat="45.3834099" lon="7.6869986"><ele>353.3333333333333</ele><time>2026-04-25T13:00:06.301Z</time></trkpt><trkpt lat="45.3834067" lon="7.6870941"><ele>353.6666666666667</ele><time>2026-04-25T13:00:07.309Z</time></trkpt><trkpt lat="45.3834086" lon="7.6872405"><ele>354.0</ele><time>2026-04-25T13:00:09.311Z</time></trkpt><trkpt lat="45.3833997" lon="7.6873493"><ele>354.75</ele><time>2026-04-25T13:00:12.312Z</time></trkpt><trkpt lat="45.3834198" lon="7.6875211"><ele>355.5</ele><time>2026-04-25T13:01:27.304Z</time></trkpt><trkpt lat="45.3834272" lon="7.687647"><ele>356.25</ele><time>2026-04-25T13:01:28.338Z</time></trkpt><trkpt lat="45.3834347" lon="7.6878066"><ele>357.0</ele><time>2026-04-25T13:01:29.308Z</time></trkpt><trkpt lat="45.3834282" lon="7.6880029"><ele>357.0</ele><time>2026-04-25T13:01:30.308Z</time></trkpt><trkpt lat="45.3834232" lon="7.6882051"><ele>357.0</ele><time>2026-04-25T13:01:31.322Z</time></trkpt><trkpt lat="45.3834166" lon="7.6884076"><ele>357.0</ele><time>2026-04-25T13:01:32.317Z</time></trkpt><trkpt lat="45.3834121" lon="7.6886257"><ele>357.0</ele><time>2026-04-25T13:01:33.32Z</time></trkpt><trkpt lat="45.3833793" lon="7.6888267"><ele>357.3333333333333</ele><time>2026-04-25T13:01:34.312Z</time></trkpt><trkpt lat="45.3833756" lon="7.6890393"><ele>357.66666666666663</ele><time>2026-04-25T13:01:35.303Z</time></trkpt><trkpt lat="45.3833931" lon="7.6892566"><ele>358.0</ele><time>2026-04-25T13:01:36.314Z</time></trkpt><trkpt lat="45.3834" lon="7.6894821"><ele>358.0</ele><time>2026-04-25T13:01:37.308Z</time></trkpt><trkpt lat="45.383397" lon="7.6897"><ele>358.0</ele><time>2026-04-25T13:01:38.304Z</time></trkpt><trkpt lat="45.3834114" lon="7.689943"><ele>358.0</ele><time>2026-04-25T13:01:39.311Z</time></trkpt><trkpt lat="45.3834494" lon="7.69018"><ele>357.66666666666663</ele><time>2026-04-25T13:01:40.312Z</time></trkpt><trkpt lat="45.383484" lon="7.6904065"><ele>357.3333333333333</ele><time>2026-04-25T13:01:41.317Z</time></trkpt><trkpt lat="45.3835221" lon="7.6906434"><ele>357.0</ele><time>2026-04-25T13:01:42.319Z</time></trkpt><trkpt lat="45.3835529" lon="7.6908734"><ele>356.6666666666667</ele><time>2026-04-25T13:01:43.325Z</time></trkpt><trkpt lat="45.3835931" lon="7.6911361"><ele>356.33333333333337</ele><time>2026-04-25T13:01:44.321Z</time></trkpt><trkpt lat="45.3836214" lon="7.6913849"><ele>356.0</ele><time>2026-04-25T13:01:45.314Z</time></trkpt><trkpt lat="45.3836657" lon="7.6916432"><ele>356.0</ele><time>2026-04-25T13:01:46.319Z</time></trkpt><trkpt lat="45.3836931" lon="7.6919"><ele>356.0</ele><time>2026-04-25T13:01:47.32Z</time></trkpt><trkpt lat="45.3837236" lon="7.692148"><ele>356.0</ele><time>2026-04-25T13:01:48.311Z</time></trkpt><trkpt lat="45.3837553" lon="7.6924082"><ele>356.0</ele><time>2026-04-25T13:01:49.32Z</time></trkpt><trkpt lat="45.3837869" lon="7.6926743"><ele>356.0</ele><time>2026-04-25T13:01:50.317Z</time></trkpt><trkpt lat="45.38382" lon="7.6929258"><ele>356.0</ele><time>2026-04-25T13:01:51.323Z</time></trkpt><trkpt lat="45.3838635" lon="7.6931868"><ele>356.0</ele><time>2026-04-25T13:01:52.316Z</time></trkpt><trkpt lat="45.3839079" lon="7.6934528"><ele>356.0</ele><time>2026-04-25T13:01:53.332Z</time></trkpt><trkpt lat="45.3839346" lon="7.6937214"><ele>356.0</ele><time>2026-04-25T13:01:54.316Z</time></trkpt><trkpt lat="45.3839536" lon="7.6939847"><ele>355.6666666666667</ele><time>2026-04-25T13:01:55.318Z</time></trkpt><trkpt lat="45.3839785" lon="7.694262"><ele>355.3333333333333</ele><time>2026-04-25T13:01:56.32Z</time></trkpt><trkpt lat="45.3840226" lon="7.6945408"><ele>355.0</ele><time>2026-04-25T13:01:57.326Z</time></trkpt><trkpt lat="45.3840648" lon="7.6948199"><ele>354.3333333333333</ele><time>2026-04-25T13:01:58.319Z</time></trkpt><trkpt lat="45.3841051" lon="7.6950898"><ele>353.6666666666667</ele><time>2026-04-25T13:01:59.322Z</time></trkpt><trkpt lat="45.3841372" lon="7.695339"><ele>353.0</ele><time>2026-04-25T13:02:00.316Z</time></trkpt><trkpt lat="45.3841598" lon="7.6955927"><ele>353.0</ele><time>2026-04-25T13:02:01.312Z</time></trkpt><trkpt lat="45.3841629" lon="7.6958619"><ele>353.0</ele><time>2026-04-25T13:02:02.315Z</time></trkpt><trkpt lat="45.3841425" lon="7.6961329"><ele>353.0</ele><time>2026-04-25T13:02:03.314Z</time></trkpt><trkpt lat="45.3840847" lon="7.6963586"><ele>353.0</ele><time>2026-04-25T13:02:04.307Z</time></trkpt><trkpt lat="45.3839891" lon="7.6965697"><ele>353.0</ele><time>2026-04-25T13:02:05.3Z</time></trkpt><trkpt lat="45.3838608" lon="7.6967647"><ele>353.0</ele><time>2026-04-25T13:02:06.296Z</time></trkpt><trkpt lat="45.3837645" lon="7.6969797"><ele>353.0</ele><time>2026-04-25T13:02:07.303Z</time></trkpt><trkpt lat="45.3836543" lon="7.6971848"><ele>353.0</ele><time>2026-04-25T13:02:08.305Z</time></trkpt><trkpt lat="45.3835494" lon="7.6973919"><ele>353.0</ele><time>2026-04-25T13:02:09.304Z</time></trkpt><trkpt lat="45.3834452" lon="7.6975961"><ele>352.33333333333337</ele><time>2026-04-25T13:02:10.302Z</time></trkpt><trkpt lat="45.3833466" lon="7.6978094"><ele>351.6666666666667</ele><time>2026-04-25T13:02:11.306Z</time></trkpt><trkpt lat="45.3832392" lon="7.6980395"><ele>351.0</ele><time>2026-04-25T13:02:12.31Z</time></trkpt><trkpt lat="45.3831447" lon="7.6982769"><ele>351.0</ele><time>2026-04-25T13:02:13.314Z</time></trkpt><trkpt lat="45.3830397" lon="7.698481"><ele>351.0</ele><time>2026-04-25T13:02:14.315Z</time></trkpt><trkpt lat="45.3829401" lon="7.6987084"><ele>351.0</ele><time>2026-04-25T13:02:15.33Z</time></trkpt><trkpt lat="45.3828374" lon="7.6988931"><ele>351.0</ele><time>2026-04-25T13:02:16.307Z</time></trkpt><trkpt lat="45.3827412" lon="7.6990835"><ele>351.0</ele><time>2026-04-25T13:02:17.326Z</time></trkpt><trkpt lat="45.3826197" lon="7.6992674"><ele>351.0</ele><time>2026-04-25T13:02:18.326Z</time></trkpt><trkpt lat="45.3825264" lon="7.6994863"><ele>350.6666666666667</ele><time>2026-04-25T13:02:19.326Z</time></trkpt><trkpt lat="45.3824478" lon="7.6997116"><ele>350.33333333333337</ele><time>2026-04-25T13:02:20.327Z</time></trkpt><trkpt lat="45.382353" lon="7.6999318"><ele>350.0</ele><time>2026-04-25T13:02:21.326Z</time></trkpt><trkpt lat="45.382283" lon="7.7001515"><ele>350.0</ele><time>2026-04-25T13:02:22.331Z</time></trkpt><trkpt lat="45.3822165" lon="7.700349"><ele>350.0</ele><time>2026-04-25T13:02:23.329Z</time></trkpt><trkpt lat="45.3821447" lon="7.700566"><ele>350.0</ele><time>2026-04-25T13:02:24.328Z</time></trkpt><trkpt lat="45.3820644" lon="7.7007765"><ele>350.33333333333337</ele><time>2026-04-25T13:02:25.324Z</time></trkpt><trkpt lat="45.3820006" lon="7.7009832"><ele>350.6666666666667</ele><time>2026-04-25T13:02:26.326Z</time></trkpt><trkpt lat="45.3819277" lon="7.7011879"><ele>351.0</ele><time>2026-04-25T13:02:27.326Z</time></trkpt><trkpt lat="45.3818679" lon="7.7013848"><ele>350.5</ele><time>2026-04-25T13:02:28.324Z</time></trkpt><trkpt lat="45.3818203" lon="7.701571"><ele>350.0</ele><time>2026-04-25T13:02:29.323Z</time></trkpt><trkpt lat="45.3817647" lon="7.7017326"><ele>349.5</ele><time>2026-04-25T13:02:30.331Z</time></trkpt><trkpt lat="45.3816979" lon="7.7018982"><ele>349.0</ele><time>2026-04-25T13:02:31.326Z</time></trkpt><trkpt lat="45.3816269" lon="7.7020507"><ele>348.25</ele><time>2026-04-25T13:02:32.321Z</time></trkpt><trkpt lat="45.3815842" lon="7.702234"><ele>347.5</ele><time>2026-04-25T13:02:33.327Z</time></trkpt><trkpt lat="45.3815134" lon="7.7024007"><ele>346.75</ele><time>2026-04-25T13:02:34.328Z</time></trkpt><trkpt lat="45.3814543" lon="7.7025686"><ele>346.0</ele><time>2026-04-25T13:02:35.324Z</time></trkpt><trkpt lat="45.3814297" lon="7.7027561"><ele>346.0</ele><time>2026-04-25T13:02:36.328Z</time></trkpt><trkpt lat="45.381398" lon="7.7029409"><ele>346.0</ele><time>2026-04-25T13:02:37.32Z</time></trkpt><trkpt lat="45.3813745" lon="7.7031418"><ele>346.0</ele><time>2026-04-25T13:02:38.329Z</time></trkpt><trkpt lat="45.3813802" lon="7.703364"><ele>346.0</ele><time>2026-04-25T13:02:39.32Z</time></trkpt><trkpt lat="45.3813589" lon="7.7035683"><ele>345.75</ele><time>2026-04-25T13:02:40.314Z</time></trkpt><trkpt lat="45.3813272" lon="7.7037653"><ele>345.5</ele><time>2026-04-25T13:02:41.327Z</time></trkpt><trkpt lat="45.3813194" lon="7.7039659"><ele>345.25</ele><time>2026-04-25T13:02:42.32Z</time></trkpt><trkpt lat="45.381293" lon="7.7041762"><ele>345.0</ele><time>2026-04-25T13:02:43.316Z</time></trkpt><trkpt lat="45.3812783" lon="7.7043709"><ele>345.0</ele><time>2026-04-25T13:02:44.317Z</time></trkpt><trkpt lat="45.3812684" lon="7.7045615"><ele>345.0</ele><time>2026-04-25T13:02:45.321Z</time></trkpt><trkpt lat="45.3812471" lon="7.7047745"><ele>345.0</ele><time>2026-04-25T13:02:46.322Z</time></trkpt><trkpt lat="45.3812135" lon="7.7049756"><ele>345.0</ele><time>2026-04-25T13:02:47.316Z</time></trkpt><trkpt lat="45.3811838" lon="7.7051588"><ele>345.25</ele><time>2026-04-25T13:02:48.318Z</time></trkpt><trkpt lat="45.3811742" lon="7.7053507"><ele>345.5</ele><time>2026-04-25T13:02:49.324Z</time></trkpt><trkpt lat="45.3811532" lon="7.705523"><ele>345.75</ele><time>2026-04-25T13:02:50.316Z</time></trkpt><trkpt lat="45.381134" lon="7.7056984"><ele>346.0</ele><time>2026-04-25T13:02:51.322Z</time></trkpt><trkpt lat="45.3811418" lon="7.7058835"><ele>346.0</ele><time>2026-04-25T13:02:52.32Z</time></trkpt><trkpt lat="45.3811726" lon="7.7060646"><ele>346.0</ele><time>2026-04-25T13:02:53.315Z</time></trkpt><trkpt lat="45.3812171" lon="7.7062378"><ele>346.0</ele><time>2026-04-25T13:02:54.32Z</time></trkpt><trkpt lat="45.3812789" lon="7.7064142"><ele>346.0</ele><time>2026-04-25T13:02:55.317Z</time></trkpt><trkpt lat="45.3813543" lon="7.7065891"><ele>345.6</ele><time>2026-04-25T13:02:56.319Z</time></trkpt><trkpt lat="45.3814195" lon="7.7067453"><ele>345.20000000000005</ele><time>2026-04-25T13:02:57.317Z</time></trkpt><trkpt lat="45.3814649" lon="7.7068876"><ele>344.79999999999995</ele><time>2026-04-25T13:02:58.319Z</time></trkpt><trkpt lat="45.3814933" lon="7.7070003"><ele>344.4</ele><time>2026-04-25T13:02:59.31Z</time></trkpt><trkpt lat="45.3815152" lon="7.7070866"><ele>344.0</ele><time>2026-04-25T13:03:00.324Z</time></trkpt><trkpt lat="45.3815423" lon="7.707186"><ele>343.83333333333337</ele><time>2026-04-25T13:03:03.314Z</time></trkpt><trkpt lat="45.381505" lon="7.7073254"><ele>343.6666666666667</ele><time>2026-04-25T13:03:06.323Z</time></trkpt><trkpt lat="45.3815159" lon="7.7074266"><ele>343.5</ele><time>2026-04-25T13:03:07.313Z</time></trkpt><trkpt lat="45.3815543" lon="7.7075165"><ele>343.3333333333333</ele><time>2026-04-25T13:03:08.31Z</time></trkpt><trkpt lat="45.3816154" lon="7.707592"><ele>343.16666666666663</ele><time>2026-04-25T13:03:09.313Z</time></trkpt><trkpt lat="45.381703" lon="7.7076478"><ele>343.0</ele><time>2026-04-25T13:03:10.31Z</time></trkpt><trkpt lat="45.3817756" lon="7.7077154"><ele>343.2</ele><time>2026-04-25T13:03:11.308Z</time></trkpt><trkpt lat="45.3818303" lon="7.7077942"><ele>343.4</ele><time>2026-04-25T13:03:12.304Z</time></trkpt><trkpt lat="45.3818747" lon="7.7078582"><ele>343.59999999999997</ele><time>2026-04-25T13:03:13.31Z</time></trkpt><trkpt lat="45.3819217" lon="7.7080045"><ele>343.79999999999995</ele><time>2026-04-25T13:03:15.315Z</time></trkpt><trkpt lat="45.3819895" lon="7.708197"><ele>344.0</ele><time>2026-04-25T13:03:17.3Z</time></trkpt><trkpt lat="45.382036" lon="7.7083327"><ele>344.0</ele><time>2026-04-25T13:03:18.321Z</time></trkpt><trkpt lat="45.382087" lon="7.7084595"><ele>344.0</ele><time>2026-04-25T13:03:19.312Z</time></trkpt><trkpt lat="45.3821385" lon="7.7085777"><ele>344.0</ele><time>2026-04-25T13:03:20.314Z</time></trkpt><trkpt lat="45.3821728" lon="7.708691"><ele>344.0</ele><time>2026-04-25T13:03:21.303Z</time></trkpt><trkpt lat="45.3822063" lon="7.7087881"><ele>344.0</ele><time>2026-04-25T13:03:22.304Z</time></trkpt><trkpt lat="45.3822264" lon="7.7088753"><ele>344.0</ele><time>2026-04-25T13:03:23.306Z</time></trkpt><trkpt lat="45.3822181" lon="7.7090248"><ele>344.79999999999995</ele><time>2026-04-25T13:03:25.301Z</time></trkpt><trkpt lat="45.3822442" lon="7.7091396"><ele>345.59999999999997</ele><time>2026-04-25T13:03:27.301Z</time></trkpt><trkpt lat="45.3823383" lon="7.7091944"><ele>346.4</ele><time>2026-04-25T13:03:29.297Z</time></trkpt><trkpt lat="45.382443" lon="7.7092282"><ele>347.2</ele><time>2026-04-25T13:03:31.31Z</time></trkpt><trkpt lat="45.3825213" lon="7.7092755"><ele>348.0</ele><time>2026-04-25T13:03:33.287Z</time></trkpt><trkpt lat="45.3826241" lon="7.7093679"><ele>348.0</ele><time>2026-04-25T13:03:35.286Z</time></trkpt><trkpt lat="45.3827086" lon="7.7094553"><ele>348.0</ele><time>2026-04-25T13:03:37.275Z</time></trkpt><trkpt lat="45.3827964" lon="7.7095133"><ele>348.0</ele><time>2026-04-25T13:03:39.274Z</time></trkpt><trkpt lat="45.3829006" lon="7.7095927"><ele>348.0</ele><time>2026-04-25T13:03:41.281Z</time></trkpt><trkpt lat="45.3829616" lon="7.7097121"><ele>348.0</ele><time>2026-04-25T13:03:43.292Z</time></trkpt><trkpt lat="45.3830008" lon="7.7098363"><ele>348.1666666666667</ele><time>2026-04-25T13:03:45.295Z</time></trkpt><trkpt lat="45.3830225" lon="7.7099732"><ele>348.3333333333333</ele><time>2026-04-25T13:03:47.296Z</time></trkpt><trkpt lat="45.3830371" lon="7.7100646"><ele>348.5</ele><time>2026-04-25T13:03:49.296Z</time></trkpt><trkpt lat="45.3830335" lon="7.7101655"><ele>348.66666666666663</ele><time>2026-04-25T13:03:51.291Z</time></trkpt><trkpt lat="45.383027" lon="7.7102827"><ele>348.8333333333333</ele><time>2026-04-25T13:03:53.279Z</time></trkpt><trkpt lat="45.383003" lon="7.7103946"><ele>349.0</ele><time>2026-04-25T13:03:55.282Z</time></trkpt><trkpt lat="45.3829777" lon="7.7104967"><ele>348.5</ele><time>2026-04-25T13:03:57.286Z</time></trkpt><trkpt lat="45.3829506" lon="7.7105931"><ele>348.0</ele><time>2026-04-25T13:03:59.282Z</time></trkpt><trkpt lat="45.3829279" lon="7.7107025"><ele>347.5</ele><time>2026-04-25T13:04:02.284Z</time></trkpt><trkpt lat="45.3829195" lon="7.7108024"><ele>347.0</ele><time>2026-04-25T13:04:04.273Z</time></trkpt><trkpt lat="45.3829217" lon="7.7109314"><ele>346.5</ele><time>2026-04-25T13:04:06.272Z</time></trkpt><trkpt lat="45.3829065" lon="7.7110674"><ele>346.0</ele><time>2026-04-25T13:04:08.273Z</time></trkpt><trkpt lat="45.3829359" lon="7.7112252"><ele>345.4</ele><time>2026-04-25T13:04:10.281Z</time></trkpt><trkpt lat="45.3829625" lon="7.711362"><ele>344.8</ele><time>2026-04-25T13:04:12.289Z</time></trkpt><trkpt lat="45.3829689" lon="7.71152"><ele>344.2</ele><time>2026-04-25T13:04:14.287Z</time></trkpt><trkpt lat="45.3829606" lon="7.7117002"><ele>343.59999999999997</ele><time>2026-04-25T13:04:16.284Z</time></trkpt><trkpt lat="45.3829652" lon="7.7117969"><ele>343.0</ele><time>2026-04-25T13:04:17.275Z</time></trkpt><trkpt lat="45.3829533" lon="7.7119671"><ele>343.0</ele><time>2026-04-25T13:04:19.282Z</time></trkpt><trkpt lat="45.3829599" lon="7.7121369"><ele>343.0</ele><time>2026-04-25T13:04:21.283Z</time></trkpt><trkpt lat="45.3829696" lon="7.7122362"><ele>343.0</ele><time>2026-04-25T13:04:22.294Z</time></trkpt><trkpt lat="45.3829708" lon="7.7123352"><ele>343.0</ele><time>2026-04-25T13:04:23.291Z</time></trkpt><trkpt lat="45.3829606" lon="7.7125037"><ele>343.0</ele><time>2026-04-25T13:04:25.288Z</time></trkpt><trkpt lat="45.3829816" lon="7.7126533"><ele>343.2</ele><time>2026-04-25T13:04:27.287Z</time></trkpt><trkpt lat="45.3829867" lon="7.7127634"><ele>343.4</ele><time>2026-04-25T13:04:29.283Z</time></trkpt><trkpt lat="45.3829762" lon="7.7128813"><ele>343.59999999999997</ele><time>2026-04-25T13:04:31.285Z</time></trkpt><trkpt lat="45.382924" lon="7.7130031"><ele>343.79999999999995</ele><time>2026-04-25T13:04:33.29Z</time></trkpt><trkpt lat="45.3828727" lon="7.7131538"><ele>344.0</ele><time>2026-04-25T13:04:35.293Z</time></trkpt><trkpt lat="45.382871" lon="7.713316"><ele>344.0</ele><time>2026-04-25T13:04:37.297Z</time></trkpt><trkpt lat="45.382887" lon="7.7134155"><ele>344.0</ele><time>2026-04-25T13:04:38.303Z</time></trkpt><trkpt lat="45.3829099" lon="7.7135129"><ele>344.0</ele><time>2026-04-25T13:04:39.302Z</time></trkpt><trkpt lat="45.3829147" lon="7.7136197"><ele>344.0</ele><time>2026-04-25T13:04:40.312Z</time></trkpt><trkpt lat="45.3829093" lon="7.7137248"><ele>344.0</ele><time>2026-04-25T13:04:41.305Z</time></trkpt><trkpt lat="45.3829056" lon="7.7138519"><ele>344.0</ele><time>2026-04-25T13:04:42.308Z</time></trkpt><trkpt lat="45.3829074" lon="7.7139733"><ele>343.83333333333337</ele><time>2026-04-25T13:04:43.297Z</time></trkpt><trkpt lat="45.3829093" lon="7.7140955"><ele>343.6666666666667</ele><time>2026-04-25T13:04:44.288Z</time></trkpt><trkpt lat="45.3829059" lon="7.7142146"><ele>343.5</ele><time>2026-04-25T13:04:45.302Z</time></trkpt><trkpt lat="45.3829073" lon="7.7143256"><ele>343.3333333333333</ele><time>2026-04-25T13:04:46.3Z</time></trkpt><trkpt lat="45.3829022" lon="7.7144547"><ele>343.16666666666663</ele><time>2026-04-25T13:04:47.295Z</time></trkpt><trkpt lat="45.382901" lon="7.7145844"><ele>343.0</ele><time>2026-04-25T13:04:48.295Z</time></trkpt><trkpt lat="45.3829017" lon="7.7147133"><ele>342.8333333333333</ele><time>2026-04-25T13:04:49.298Z</time></trkpt><trkpt lat="45.3829054" lon="7.7148601"><ele>342.66666666666663</ele><time>2026-04-25T13:04:50.296Z</time></trkpt><trkpt lat="45.3829025" lon="7.7149861"><ele>342.5</ele><time>2026-04-25T13:04:51.291Z</time></trkpt><trkpt lat="45.3828996" lon="7.715105"><ele>342.3333333333333</ele><time>2026-04-25T13:04:52.299Z</time></trkpt><trkpt lat="45.3829024" lon="7.7152115"><ele>342.1666666666667</ele><time>2026-04-25T13:04:53.299Z</time></trkpt><trkpt lat="45.3828951" lon="7.7153149"><ele>342.0</ele><time>2026-04-25T13:04:54.296Z</time></trkpt><trkpt lat="45.3828956" lon="7.7154093"><ele>341.99999999999994</ele><time>2026-04-25T13:04:55.292Z</time></trkpt><trkpt lat="45.382898" lon="7.7155092"><ele>342.0</ele><time>2026-04-25T13:04:56.288Z</time></trkpt><trkpt lat="45.3829044" lon="7.7156087"><ele>342.0</ele><time>2026-04-25T13:04:57.303Z</time></trkpt><trkpt lat="45.3829035" lon="7.7157166"><ele>342.0</ele><time>2026-04-25T13:04:58.294Z</time></trkpt><trkpt lat="45.3828963" lon="7.7158183"><ele>342.0</ele><time>2026-04-25T13:04:59.301Z</time></trkpt><trkpt lat="45.3828864" lon="7.7159145"><ele>341.99999999999994</ele><time>2026-04-25T13:05:00.292Z</time></trkpt><trkpt lat="45.3828842" lon="7.7160127"><ele>342.0</ele><time>2026-04-25T13:05:01.299Z</time></trkpt><trkpt lat="45.3828593" lon="7.7161832"><ele>342.0</ele><time>2026-04-25T13:05:03.298Z</time></trkpt><trkpt lat="45.3828478" lon="7.716339"><ele>342.0</ele><time>2026-04-25T13:05:05.292Z</time></trkpt><trkpt lat="45.3828377" lon="7.7164712"><ele>342.0</ele><time>2026-04-25T13:05:07.288Z</time></trkpt><trkpt lat="45.3828334" lon="7.7165746"><ele>342.0</ele><time>2026-04-25T13:05:13.306Z</time></trkpt><trkpt lat="45.3828147" lon="7.7167001"><ele>342.0</ele><time>2026-04-25T13:05:17.296Z</time></trkpt><trkpt lat="45.3828058" lon="7.7168796"><ele>341.5</ele><time>2026-04-25T13:05:19.294Z</time></trkpt><trkpt lat="45.3828059" lon="7.7169717"><ele>341.0</ele><time>2026-04-25T13:05:20.292Z</time></trkpt><trkpt lat="45.3827985" lon="7.7170644"><ele>340.5</ele><time>2026-04-25T13:05:21.298Z</time></trkpt><trkpt lat="45.3827948" lon="7.7171575"><ele>340.0</ele><time>2026-04-25T13:05:22.29Z</time></trkpt><trkpt lat="45.3827738" lon="7.7173127"><ele>339.5</ele><time>2026-04-25T13:05:24.289Z</time></trkpt><trkpt lat="45.3828416" lon="7.7174484"><ele>339.0</ele><time>2026-04-25T13:05:26.286Z</time></trkpt><trkpt lat="45.3829039" lon="7.7174867"><ele>339.0</ele><time>2026-04-25T13:05:27.298Z</time></trkpt><trkpt lat="45.382996" lon="7.7174932"><ele>339.0</ele><time>2026-04-25T13:05:28.3Z</time></trkpt><trkpt lat="45.3830863" lon="7.7175034"><ele>339.0</ele><time>2026-04-25T13:05:29.301Z</time></trkpt><trkpt lat="45.3831713" lon="7.7175019"><ele>339.0</ele><time>2026-04-25T13:05:30.317Z</time></trkpt><trkpt lat="45.3832511" lon="7.7174973"><ele>339.0</ele><time>2026-04-25T13:05:31.312Z</time></trkpt><trkpt lat="45.383336" lon="7.7174851"><ele>339.0</ele><time>2026-04-25T13:05:32.303Z</time></trkpt><trkpt lat="45.3834338" lon="7.7174842"><ele>339.0</ele><time>2026-04-25T13:05:33.308Z</time></trkpt><trkpt lat="45.3835443" lon="7.7174871"><ele>339.0</ele><time>2026-04-25T13:05:34.313Z</time></trkpt><trkpt lat="45.3836654" lon="7.717476"><ele>339.0</ele><time>2026-04-25T13:05:35.309Z</time></trkpt><trkpt lat="45.3837975" lon="7.7174636"><ele>339.0</ele><time>2026-04-25T13:05:36.307Z</time></trkpt><trkpt lat="45.3839496" lon="7.717452"><ele>339.25</ele><time>2026-04-25T13:05:37.304Z</time></trkpt><trkpt lat="45.3841094" lon="7.7174503"><ele>339.5</ele><time>2026-04-25T13:05:38.304Z</time></trkpt><trkpt lat="45.3842698" lon="7.7174575"><ele>339.75</ele><time>2026-04-25T13:05:39.306Z</time></trkpt><trkpt lat="45.3843988" lon="7.7174574"><ele>340.0</ele><time>2026-04-25T13:05:40.309Z</time></trkpt><trkpt lat="45.384523" lon="7.7174568"><ele>340.0</ele><time>2026-04-25T13:05:41.303Z</time></trkpt><trkpt lat="45.3846243" lon="7.7174387"><ele>340.0</ele><time>2026-04-25T13:05:42.303Z</time></trkpt><trkpt lat="45.3847086" lon="7.7174169"><ele>340.0</ele><time>2026-04-25T13:05:43.304Z</time></trkpt><trkpt lat="45.3847952" lon="7.7173977"><ele>340.0</ele><time>2026-04-25T13:05:44.304Z</time></trkpt><trkpt lat="45.3848869" lon="7.7173674"><ele>340.0</ele><time>2026-04-25T13:05:45.301Z</time></trkpt><trkpt lat="45.3849778" lon="7.7173356"><ele>340.5</ele><time>2026-04-25T13:05:46.308Z</time></trkpt><trkpt lat="45.3850665" lon="7.7173135"><ele>341.0</ele><time>2026-04-25T13:05:47.317Z</time></trkpt><trkpt lat="45.3851481" lon="7.7172833"><ele>341.5</ele><time>2026-04-25T13:05:48.311Z</time></trkpt><trkpt lat="45.3852149" lon="7.7172568"><ele>342.0</ele><time>2026-04-25T13:05:49.308Z</time></trkpt><trkpt lat="45.3852751" lon="7.7172251"><ele>342.5</ele><time>2026-04-25T13:05:50.306Z</time></trkpt><trkpt lat="45.3853826" lon="7.7171738"><ele>343.0</ele><time>2026-04-25T13:05:52.309Z</time></trkpt><trkpt lat="45.3854592" lon="7.7171683"><ele>343.0</ele><time>2026-04-25T13:05:54.292Z</time></trkpt><trkpt lat="45.3855501" lon="7.7172736"><ele>343.0</ele><time>2026-04-25T13:05:56.291Z</time></trkpt><trkpt lat="45.385582" lon="7.7174424"><ele>343.0</ele><time>2026-04-25T13:05:58.295Z</time></trkpt><trkpt lat="45.3855765" lon="7.7175349"><ele>343.0</ele><time>2026-04-25T13:05:59.293Z</time></trkpt><trkpt lat="45.3855778" lon="7.7176258"><ele>343.0</ele><time>2026-04-25T13:06:00.293Z</time></trkpt><trkpt lat="45.3855886" lon="7.7177221"><ele>343.0</ele><time>2026-04-25T13:06:01.296Z</time></trkpt><trkpt lat="45.3855861" lon="7.717895"><ele>343.0</ele><time>2026-04-25T13:06:03.302Z</time></trkpt><trkpt lat="45.385599" lon="7.7179996"><ele>343.0</ele><time>2026-04-25T13:06:04.29Z</time></trkpt><trkpt lat="45.3856121" lon="7.7181276"><ele>343.0</ele><time>2026-04-25T13:06:05.299Z</time></trkpt><trkpt lat="45.3856286" lon="7.7182817"><ele>343.0</ele><time>2026-04-25T13:06:06.295Z</time></trkpt><trkpt lat="45.3856563" lon="7.7184586"><ele>343.0</ele><time>2026-04-25T13:06:07.29Z</time></trkpt><trkpt lat="45.3856832" lon="7.7186593"><ele>342.25</ele><time>2026-04-25T13:06:08.285Z</time></trkpt><trkpt lat="45.3857075" lon="7.718856"><ele>341.5</ele><time>2026-04-25T13:06:09.287Z</time></trkpt><trkpt lat="45.3857315" lon="7.7190562"><ele>340.75</ele><time>2026-04-25T13:06:10.292Z</time></trkpt><trkpt lat="45.3857461" lon="7.7192563"><ele>340.0</ele><time>2026-04-25T13:06:11.3Z</time></trkpt><trkpt lat="45.3857687" lon="7.7194517"><ele>340.0</ele><time>2026-04-25T13:06:12.299Z</time></trkpt><trkpt lat="45.3857959" lon="7.7196446"><ele>340.0</ele><time>2026-04-25T13:06:13.302Z</time></trkpt><trkpt lat="45.3858089" lon="7.7198301"><ele>340.0</ele><time>2026-04-25T13:06:14.3Z</time></trkpt><trkpt lat="45.3858169" lon="7.7200121"><ele>340.0</ele><time>2026-04-25T13:06:15.301Z</time></trkpt><trkpt lat="45.3858473" lon="7.7201801"><ele>340.0</ele><time>2026-04-25T13:06:16.305Z</time></trkpt><trkpt lat="45.3858572" lon="7.7203396"><ele>340.0</ele><time>2026-04-25T13:06:17.304Z</time></trkpt><trkpt lat="45.3858807" lon="7.7205147"><ele>340.0</ele><time>2026-04-25T13:06:18.315Z</time></trkpt><trkpt lat="45.3858992" lon="7.7206817"><ele>340.0</ele><time>2026-04-25T13:06:19.305Z</time></trkpt><trkpt lat="45.3859168" lon="7.7208457"><ele>340.0</ele><time>2026-04-25T13:06:20.3Z</time></trkpt><trkpt lat="45.3859431" lon="7.7210111"><ele>340.0</ele><time>2026-04-25T13:06:21.303Z</time></trkpt><trkpt lat="45.3859762" lon="7.7211761"><ele>340.0</ele><time>2026-04-25T13:06:22.306Z</time></trkpt><trkpt lat="45.3860195" lon="7.7213374"><ele>340.0</ele><time>2026-04-25T13:06:23.302Z</time></trkpt><trkpt lat="45.3860672" lon="7.7214899"><ele>339.75</ele><time>2026-04-25T13:06:24.29Z</time></trkpt><trkpt lat="45.3861313" lon="7.7216353"><ele>339.5</ele><time>2026-04-25T13:06:25.29Z</time></trkpt><trkpt lat="45.3862069" lon="7.7217602"><ele>339.25</ele><time>2026-04-25T13:06:26.297Z</time></trkpt><trkpt lat="45.3862956" lon="7.7218793"><ele>339.0</ele><time>2026-04-25T13:06:27.3Z</time></trkpt><trkpt lat="45.3863829" lon="7.7219861"><ele>339.0</ele><time>2026-04-25T13:06:28.303Z</time></trkpt><trkpt lat="45.3864832" lon="7.7221159"><ele>339.0</ele><time>2026-04-25T13:06:29.308Z</time></trkpt><trkpt lat="45.3865766" lon="7.7222265"><ele>339.0</ele><time>2026-04-25T13:06:30.295Z</time></trkpt><trkpt lat="45.3866714" lon="7.7223485"><ele>339.0</ele><time>2026-04-25T13:06:31.304Z</time></trkpt><trkpt lat="45.3867662" lon="7.7224725"><ele>339.0</ele><time>2026-04-25T13:06:32.31Z</time></trkpt><trkpt lat="45.3868598" lon="7.7225839"><ele>339.0</ele><time>2026-04-25T13:06:33.306Z</time></trkpt><trkpt lat="45.3869472" lon="7.722694"><ele>339.0</ele><time>2026-04-25T13:06:34.298Z</time></trkpt><trkpt lat="45.3870324" lon="7.7227936"><ele>339.0</ele><time>2026-04-25T13:06:35.303Z</time></trkpt><trkpt lat="45.3871143" lon="7.7228719"><ele>339.0</ele><time>2026-04-25T13:06:36.296Z</time></trkpt><trkpt lat="45.3872102" lon="7.7229484"><ele>340.5</ele><time>2026-04-25T13:06:37.3Z</time></trkpt><trkpt lat="45.3873132" lon="7.7230186"><ele>342.0</ele><time>2026-04-25T13:06:38.299Z</time></trkpt><trkpt lat="45.3874217" lon="7.7230687"><ele>343.5</ele><time>2026-04-25T13:06:39.298Z</time></trkpt><trkpt lat="45.387527" lon="7.7231383"><ele>345.0</ele><time>2026-04-25T13:06:40.304Z</time></trkpt><trkpt lat="45.3876336" lon="7.7232273"><ele>345.0</ele><time>2026-04-25T13:06:41.291Z</time></trkpt><trkpt lat="45.3877369" lon="7.7233125"><ele>345.0</ele><time>2026-04-25T13:06:42.297Z</time></trkpt><trkpt lat="45.3878319" lon="7.723391"><ele>345.0</ele><time>2026-04-25T13:06:43.287Z</time></trkpt><trkpt lat="45.3879125" lon="7.7235007"><ele>345.0</ele><time>2026-04-25T13:06:44.289Z</time></trkpt><trkpt lat="45.3879818" lon="7.7236348"><ele>343.5</ele><time>2026-04-25T13:06:45.295Z</time></trkpt><trkpt lat="45.3880439" lon="7.7237785"><ele>342.0</ele><time>2026-04-25T13:06:46.301Z</time></trkpt><trkpt lat="45.3881016" lon="7.7239166"><ele>340.5</ele><time>2026-04-25T13:06:47.308Z</time></trkpt><trkpt lat="45.3881643" lon="7.724051"><ele>339.0</ele><time>2026-04-25T13:06:48.312Z</time></trkpt><trkpt lat="45.3882415" lon="7.7241848"><ele>339.0</ele><time>2026-04-25T13:06:49.312Z</time></trkpt><trkpt lat="45.3883198" lon="7.7243266"><ele>339.0</ele><time>2026-04-25T13:06:50.316Z</time></trkpt><trkpt lat="45.3884005" lon="7.7244674"><ele>339.0</ele><time>2026-04-25T13:06:51.315Z</time></trkpt><trkpt lat="45.3884831" lon="7.7246258"><ele>339.0</ele><time>2026-04-25T13:06:52.319Z</time></trkpt><trkpt lat="45.3885485" lon="7.7247865"><ele>339.25</ele><time>2026-04-25T13:06:53.321Z</time></trkpt><trkpt lat="45.3886255" lon="7.7249294"><ele>339.5</ele><time>2026-04-25T13:06:54.313Z</time></trkpt><trkpt lat="45.3887005" lon="7.7250681"><ele>339.75</ele><time>2026-04-25T13:06:55.318Z</time></trkpt><trkpt lat="45.3887656" lon="7.725208"><ele>340.0</ele><time>2026-04-25T13:06:56.318Z</time></trkpt><trkpt lat="45.3888379" lon="7.7253448"><ele>340.0</ele><time>2026-04-25T13:06:57.315Z</time></trkpt><trkpt lat="45.3889241" lon="7.7254977"><ele>340.0</ele><time>2026-04-25T13:06:58.319Z</time></trkpt><trkpt lat="45.3890059" lon="7.7256489"><ele>340.0</ele><time>2026-04-25T13:06:59.321Z</time></trkpt><trkpt lat="45.3890935" lon="7.7258088"><ele>340.0</ele><time>2026-04-25T13:07:00.318Z</time></trkpt><trkpt lat="45.3891825" lon="7.7259669"><ele>339.66666666666663</ele><time>2026-04-25T13:07:01.317Z</time></trkpt><trkpt lat="45.389275" lon="7.726127"><ele>339.3333333333333</ele><time>2026-04-25T13:07:02.322Z</time></trkpt><trkpt lat="45.3893657" lon="7.7262922"><ele>339.0</ele><time>2026-04-25T13:07:03.326Z</time></trkpt><trkpt lat="45.3894802" lon="7.7264962"><ele>339.0</ele><time>2026-04-25T13:07:04.312Z</time></trkpt><trkpt lat="45.3896126" lon="7.7267197"><ele>339.0</ele><time>2026-04-25T13:07:05.321Z</time></trkpt><trkpt lat="45.3897447" lon="7.7269797"><ele>339.0</ele><time>2026-04-25T13:07:06.314Z</time></trkpt><trkpt lat="45.389888" lon="7.7272338"><ele>339.5</ele><time>2026-04-25T13:07:07.319Z</time></trkpt><trkpt lat="45.3900457" lon="7.7275126"><ele>340.0</ele><time>2026-04-25T13:07:08.332Z</time></trkpt><trkpt lat="45.3901872" lon="7.7278203"><ele>340.0</ele><time>2026-04-25T13:07:09.318Z</time></trkpt><trkpt lat="45.3903272" lon="7.7280719"><ele>340.0</ele><time>2026-04-25T13:07:10.316Z</time></trkpt><trkpt lat="45.3904542" lon="7.728355"><ele>340.66666666666663</ele><time>2026-04-25T13:07:11.319Z</time></trkpt><trkpt lat="45.3905807" lon="7.7286135"><ele>341.3333333333333</ele><time>2026-04-25T13:07:12.319Z</time></trkpt><trkpt lat="45.3907257" lon="7.7288552"><ele>342.0</ele><time>2026-04-25T13:07:13.318Z</time></trkpt><trkpt lat="45.3908534" lon="7.7291284"><ele>342.0</ele><time>2026-04-25T13:07:14.324Z</time></trkpt><trkpt lat="45.3909847" lon="7.7293909"><ele>342.0</ele><time>2026-04-25T13:07:15.324Z</time></trkpt><trkpt lat="45.3911261" lon="7.7296552"><ele>342.3333333333333</ele><time>2026-04-25T13:07:16.327Z</time></trkpt><trkpt lat="45.3912709" lon="7.7299106"><ele>342.66666666666663</ele><time>2026-04-25T13:07:17.322Z</time></trkpt><trkpt lat="45.3914105" lon="7.7301479"><ele>343.0</ele><time>2026-04-25T13:07:18.324Z</time></trkpt><trkpt lat="45.3915343" lon="7.7304152"><ele>343.0</ele><time>2026-04-25T13:07:19.314Z</time></trkpt><trkpt lat="45.3916711" lon="7.7306698"><ele>343.0</ele><time>2026-04-25T13:07:20.315Z</time></trkpt><trkpt lat="45.3917997" lon="7.730876"><ele>343.0</ele><time>2026-04-25T13:07:21.312Z</time></trkpt><trkpt lat="45.3919172" lon="7.7310674"><ele>343.0</ele><time>2026-04-25T13:07:22.306Z</time></trkpt><trkpt lat="45.3920736" lon="7.7312371"><ele>343.0</ele><time>2026-04-25T13:07:23.309Z</time></trkpt><trkpt lat="45.3922421" lon="7.7314075"><ele>343.0</ele><time>2026-04-25T13:07:24.313Z</time></trkpt><trkpt lat="45.392404" lon="7.7315448"><ele>343.3333333333333</ele><time>2026-04-25T13:07:25.305Z</time></trkpt><trkpt lat="45.3925828" lon="7.7316893"><ele>343.6666666666667</ele><time>2026-04-25T13:07:26.31Z</time></trkpt><trkpt lat="45.3927564" lon="7.7318196"><ele>344.0</ele><time>2026-04-25T13:07:27.315Z</time></trkpt><trkpt lat="45.3929232" lon="7.7319624"><ele>344.6666666666667</ele><time>2026-04-25T13:07:28.32Z</time></trkpt><trkpt lat="45.3930908" lon="7.7321141"><ele>345.3333333333333</ele><time>2026-04-25T13:07:29.316Z</time></trkpt><trkpt lat="45.3932721" lon="7.7322769"><ele>346.0</ele><time>2026-04-25T13:07:30.322Z</time></trkpt><trkpt lat="45.393447" lon="7.7324227"><ele>346.0</ele><time>2026-04-25T13:07:31.321Z</time></trkpt><trkpt lat="45.3936061" lon="7.7325567"><ele>346.0</ele><time>2026-04-25T13:07:32.321Z</time></trkpt><trkpt lat="45.3937578" lon="7.7326981"><ele>346.0</ele><time>2026-04-25T13:07:33.323Z</time></trkpt><trkpt lat="45.3939238" lon="7.7328547"><ele>346.3333333333333</ele><time>2026-04-25T13:07:34.327Z</time></trkpt><trkpt lat="45.3940902" lon="7.7329987"><ele>346.6666666666667</ele><time>2026-04-25T13:07:35.32Z</time></trkpt><trkpt lat="45.394262" lon="7.7331497"><ele>347.0</ele><time>2026-04-25T13:07:36.318Z</time></trkpt><trkpt lat="45.394426" lon="7.7332873"><ele>347.0</ele><time>2026-04-25T13:07:37.32Z</time></trkpt><trkpt lat="45.394582" lon="7.733447"><ele>347.0</ele><time>2026-04-25T13:07:38.314Z</time></trkpt><trkpt lat="45.394735" lon="7.7335872"><ele>347.0</ele><time>2026-04-25T13:07:39.322Z</time></trkpt><trkpt lat="45.3949028" lon="7.7337222"><ele>348.6666666666667</ele><time>2026-04-25T13:07:40.319Z</time></trkpt><trkpt lat="45.3950565" lon="7.7338722"><ele>350.3333333333333</ele><time>2026-04-25T13:07:41.316Z</time></trkpt><trkpt lat="45.3952039" lon="7.7340131"><ele>352.0</ele><time>2026-04-25T13:07:42.311Z</time></trkpt><trkpt lat="45.3953762" lon="7.7341366"><ele>351.66666666666663</ele><time>2026-04-25T13:07:43.309Z</time></trkpt><trkpt lat="45.3955422" lon="7.7342943"><ele>351.3333333333333</ele><time>2026-04-25T13:07:44.314Z</time></trkpt><trkpt lat="45.3957006" lon="7.7344538"><ele>351.0</ele><time>2026-04-25T13:07:45.313Z</time></trkpt><trkpt lat="45.3958587" lon="7.7346084"><ele>351.0</ele><time>2026-04-25T13:07:46.312Z</time></trkpt><trkpt lat="45.3960267" lon="7.734749"><ele>351.0</ele><time>2026-04-25T13:07:47.313Z</time></trkpt><trkpt lat="45.3962002" lon="7.7349079"><ele>351.0</ele><time>2026-04-25T13:07:48.315Z</time></trkpt><trkpt lat="45.3963667" lon="7.735058"><ele>351.0</ele><time>2026-04-25T13:07:49.321Z</time></trkpt><trkpt lat="45.3965339" lon="7.7352159"><ele>351.0</ele><time>2026-04-25T13:07:50.313Z</time></trkpt><trkpt lat="45.3967049" lon="7.735357"><ele>351.0</ele><time>2026-04-25T13:07:51.321Z</time></trkpt><trkpt lat="45.3968585" lon="7.7355017"><ele>351.0</ele><time>2026-04-25T13:07:52.319Z</time></trkpt><trkpt lat="45.3970424" lon="7.7356681"><ele>351.0</ele><time>2026-04-25T13:07:53.324Z</time></trkpt><trkpt lat="45.3972208" lon="7.7358263"><ele>351.0</ele><time>2026-04-25T13:07:54.327Z</time></trkpt><trkpt lat="45.3974022" lon="7.7359771"><ele>352.3333333333333</ele><time>2026-04-25T13:07:55.318Z</time></trkpt><trkpt lat="45.3975668" lon="7.7361132"><ele>353.66666666666663</ele><time>2026-04-25T13:07:56.319Z</time></trkpt><trkpt lat="45.3977446" lon="7.7362783"><ele>355.0</ele><time>2026-04-25T13:07:57.323Z</time></trkpt><trkpt lat="45.3979101" lon="7.7364199"><ele>356.3333333333333</ele><time>2026-04-25T13:07:58.321Z</time></trkpt><trkpt lat="45.3980958" lon="7.7365948"><ele>357.6666666666667</ele><time>2026-04-25T13:07:59.316Z</time></trkpt><trkpt lat="45.3982761" lon="7.7367516"><ele>359.0</ele><time>2026-04-25T13:08:00.313Z</time></trkpt><trkpt lat="45.3984536" lon="7.7369126"><ele>359.0</ele><time>2026-04-25T13:08:01.321Z</time></trkpt><trkpt lat="45.3986332" lon="7.7370729"><ele>359.0</ele><time>2026-04-25T13:08:02.315Z</time></trkpt><trkpt lat="45.3988175" lon="7.737227"><ele>359.0</ele><time>2026-04-25T13:08:03.324Z</time></trkpt><trkpt lat="45.3989967" lon="7.7374013"><ele>360.0</ele><time>2026-04-25T13:08:04.321Z</time></trkpt><trkpt lat="45.3991821" lon="7.737562"><ele>361.0</ele><time>2026-04-25T13:08:05.328Z</time></trkpt><trkpt lat="45.3993589" lon="7.7377093"><ele>362.0</ele><time>2026-04-25T13:08:06.321Z</time></trkpt><trkpt lat="45.3995179" lon="7.7378594"><ele>362.0</ele><time>2026-04-25T13:08:07.321Z</time></trkpt><trkpt lat="45.3996598" lon="7.7379762"><ele>362.0</ele><time>2026-04-25T13:08:08.309Z</time></trkpt><trkpt lat="45.3997703" lon="7.7380884"><ele>362.0</ele><time>2026-04-25T13:08:09.309Z</time></trkpt><trkpt lat="45.3998545" lon="7.7381459"><ele>362.0</ele><time>2026-04-25T13:08:10.321Z</time></trkpt><trkpt lat="45.399965" lon="7.7380924"><ele>362.5</ele><time>2026-04-25T13:08:12.32Z</time></trkpt><trkpt lat="45.4000154" lon="7.7379924"><ele>363.0</ele><time>2026-04-25T13:08:13.308Z</time></trkpt><trkpt lat="45.400061" lon="7.7378441"><ele>363.5</ele><time>2026-04-25T13:08:14.321Z</time></trkpt><trkpt lat="45.4000927" lon="7.7376561"><ele>364.0</ele><time>2026-04-25T13:08:15.316Z</time></trkpt><trkpt lat="45.4001261" lon="7.7374663"><ele>364.0</ele><time>2026-04-25T13:08:16.308Z</time></trkpt><trkpt lat="45.4001847" lon="7.7372859"><ele>364.0</ele><time>2026-04-25T13:08:17.319Z</time></trkpt><trkpt lat="45.4002816" lon="7.7370783"><ele>364.0</ele><time>2026-04-25T13:08:18.315Z</time></trkpt><trkpt lat="45.4003836" lon="7.7368599"><ele>363.66666666666663</ele><time>2026-04-25T13:08:19.319Z</time></trkpt><trkpt lat="45.4004849" lon="7.7366597"><ele>363.3333333333333</ele><time>2026-04-25T13:08:20.321Z</time></trkpt><trkpt lat="45.4005775" lon="7.7364506"><ele>363.0</ele><time>2026-04-25T13:08:21.323Z</time></trkpt><trkpt lat="45.4006737" lon="7.7362482"><ele>363.3333333333333</ele><time>2026-04-25T13:08:22.316Z</time></trkpt><trkpt lat="45.4007532" lon="7.7360595"><ele>363.66666666666663</ele><time>2026-04-25T13:08:23.313Z</time></trkpt><trkpt lat="45.4008509" lon="7.7358952"><ele>364.0</ele><time>2026-04-25T13:08:24.312Z</time></trkpt><trkpt lat="45.4009566" lon="7.7357367"><ele>364.0</ele><time>2026-04-25T13:08:25.31Z</time></trkpt><trkpt lat="45.4011038" lon="7.7356065"><ele>364.0</ele><time>2026-04-25T13:08:26.31Z</time></trkpt><trkpt lat="45.4012626" lon="7.7355136"><ele>364.0</ele><time>2026-04-25T13:08:27.292Z</time></trkpt><trkpt lat="45.4014375" lon="7.7354379"><ele>364.3333333333333</ele><time>2026-04-25T13:08:28.297Z</time></trkpt><trkpt lat="45.4016255" lon="7.7353655"><ele>364.6666666666667</ele><time>2026-04-25T13:08:29.309Z</time></trkpt><trkpt lat="45.4018158" lon="7.7352822"><ele>365.0</ele><time>2026-04-25T13:08:30.309Z</time></trkpt><trkpt lat="45.4020085" lon="7.7351809"><ele>365.33333333333337</ele><time>2026-04-25T13:08:31.308Z</time></trkpt><trkpt lat="45.4021991" lon="7.7350598"><ele>365.6666666666667</ele><time>2026-04-25T13:08:32.305Z</time></trkpt><trkpt lat="45.4023594" lon="7.734898"><ele>366.0</ele><time>2026-04-25T13:08:33.307Z</time></trkpt><trkpt lat="45.4025116" lon="7.7346723"><ele>366.0</ele><time>2026-04-25T13:08:34.313Z</time></trkpt><trkpt lat="45.4026763" lon="7.7344791"><ele>366.0</ele><time>2026-04-25T13:08:35.31Z</time></trkpt><trkpt lat="45.4028239" lon="7.7342862"><ele>366.0</ele><time>2026-04-25T13:08:36.313Z</time></trkpt><trkpt lat="45.4030011" lon="7.7341199"><ele>367.0</ele><time>2026-04-25T13:08:37.306Z</time></trkpt><trkpt lat="45.4031677" lon="7.7339604"><ele>368.0</ele><time>2026-04-25T13:08:38.308Z</time></trkpt><trkpt lat="45.4033593" lon="7.7337905"><ele>369.0</ele><time>2026-04-25T13:08:39.309Z</time></trkpt><trkpt lat="45.4035561" lon="7.733626"><ele>369.0</ele><time>2026-04-25T13:08:40.309Z</time></trkpt><trkpt lat="45.4037477" lon="7.7334536"><ele>369.0</ele><time>2026-04-25T13:08:41.316Z</time></trkpt><trkpt lat="45.4039344" lon="7.7332962"><ele>369.0</ele><time>2026-04-25T13:08:42.304Z</time></trkpt><trkpt lat="45.4040966" lon="7.7331513"><ele>369.0</ele><time>2026-04-25T13:08:43.311Z</time></trkpt><trkpt lat="45.4042578" lon="7.7330173"><ele>369.0</ele><time>2026-04-25T13:08:44.31Z</time></trkpt><trkpt lat="45.404386" lon="7.7328889"><ele>369.0</ele><time>2026-04-25T13:08:45.309Z</time></trkpt><trkpt lat="45.4045008" lon="7.7327733"><ele>368.75</ele><time>2026-04-25T13:08:46.31Z</time></trkpt><trkpt lat="45.4046099" lon="7.732654"><ele>368.5</ele><time>2026-04-25T13:08:47.295Z</time></trkpt><trkpt lat="45.4047099" lon="7.7325755"><ele>368.25</ele><time>2026-04-25T13:08:48.299Z</time></trkpt><trkpt lat="45.4047691" lon="7.7324476"><ele>368.0</ele><time>2026-04-25T13:08:49.302Z</time></trkpt><trkpt lat="45.4047805" lon="7.7322933"><ele>368.25</ele><time>2026-04-25T13:08:50.295Z</time></trkpt><trkpt lat="45.4047614" lon="7.7320923"><ele>368.5</ele><time>2026-04-25T13:08:51.292Z</time></trkpt><trkpt lat="45.4047288" lon="7.7318984"><ele>368.75</ele><time>2026-04-25T13:08:52.29Z</time></trkpt><trkpt lat="45.4046846" lon="7.731733"><ele>369.0</ele><time>2026-04-25T13:08:53.287Z</time></trkpt><trkpt lat="45.4046539" lon="7.7315991"><ele>369.0</ele><time>2026-04-25T13:08:54.295Z</time></trkpt><trkpt lat="45.4046383" lon="7.7314983"><ele>369.0</ele><time>2026-04-25T13:08:55.285Z</time></trkpt><trkpt lat="45.404638" lon="7.731351"><ele>369.0</ele><time>2026-04-25T13:08:57.274Z</time></trkpt><trkpt lat="45.4047221" lon="7.7313274"><ele>369.0</ele><time>2026-04-25T13:08:59.29Z</time></trkpt><trkpt lat="45.4047901" lon="7.7314096"><ele>369.0</ele><time>2026-04-25T13:09:00.269Z</time></trkpt><trkpt lat="45.4048869" lon="7.7315216"><ele>372.0</ele><time>2026-04-25T13:09:01.284Z</time></trkpt><trkpt lat="45.4050061" lon="7.7316763"><ele>375.0</ele><time>2026-04-25T13:09:02.281Z</time></trkpt><trkpt lat="45.4051218" lon="7.7318589"><ele>378.0</ele><time>2026-04-25T13:09:03.281Z</time></trkpt><trkpt lat="45.4052548" lon="7.7320591"><ele>378.0</ele><time>2026-04-25T13:09:04.275Z</time></trkpt><trkpt lat="45.4054258" lon="7.7322816"><ele>378.0</ele><time>2026-04-25T13:09:05.277Z</time></trkpt><trkpt lat="45.4055883" lon="7.7324259"><ele>378.0</ele><time>2026-04-25T13:09:06.272Z</time></trkpt><trkpt lat="45.4057666" lon="7.7325051"><ele>382.33333333333337</ele><time>2026-04-25T13:09:07.284Z</time></trkpt><trkpt lat="45.4059326" lon="7.7325815"><ele>386.6666666666667</ele><time>2026-04-25T13:09:08.269Z</time></trkpt><trkpt lat="45.4060913" lon="7.7326598"><ele>391.0</ele><time>2026-04-25T13:09:09.263Z</time></trkpt><trkpt lat="45.4062487" lon="7.7326879"><ele>393.5</ele><time>2026-04-25T13:09:10.266Z</time></trkpt><trkpt lat="45.4064004" lon="7.7326604"><ele>396.0</ele><time>2026-04-25T13:09:11.264Z</time></trkpt><trkpt lat="45.4065474" lon="7.7326058"><ele>398.5</ele><time>2026-04-25T13:09:12.268Z</time></trkpt><trkpt lat="45.4066846" lon="7.7325622"><ele>401.0</ele><time>2026-04-25T13:09:13.258Z</time></trkpt><trkpt lat="45.4068156" lon="7.7325534"><ele>401.0</ele><time>2026-04-25T13:09:14.26Z</time></trkpt><trkpt lat="45.406917" lon="7.7325857"><ele>401.0</ele><time>2026-04-25T13:09:15.266Z</time></trkpt><trkpt lat="45.4070154" lon="7.7325605"><ele>401.0</ele><time>2026-04-25T13:09:16.277Z</time></trkpt><trkpt lat="45.4070733" lon="7.7324017"><ele>401.0</ele><time>2026-04-25T13:09:17.282Z</time></trkpt><trkpt lat="45.4071356" lon="7.7322238"><ele>402.0</ele><time>2026-04-25T13:09:18.277Z</time></trkpt><trkpt lat="45.4071947" lon="7.7320528"><ele>403.0</ele><time>2026-04-25T13:09:19.277Z</time></trkpt><trkpt lat="45.407263" lon="7.7319199"><ele>404.0</ele><time>2026-04-25T13:09:20.281Z</time></trkpt><trkpt lat="45.4073649" lon="7.7318406"><ele>405.0</ele><time>2026-04-25T13:09:21.267Z</time></trkpt><trkpt lat="45.4074909" lon="7.7317951"><ele>405.5</ele><time>2026-04-25T13:09:22.27Z</time></trkpt><trkpt lat="45.4076189" lon="7.7317555"><ele>406.0</ele><time>2026-04-25T13:09:23.277Z</time></trkpt><trkpt lat="45.4077088" lon="7.731674"><ele>406.5</ele><time>2026-04-25T13:09:24.274Z</time></trkpt><trkpt lat="45.4077764" lon="7.7315375"><ele>407.0</ele><time>2026-04-25T13:09:25.289Z</time></trkpt><trkpt lat="45.4078454" lon="7.7313389"><ele>407.0</ele><time>2026-04-25T13:09:26.289Z</time></trkpt><trkpt lat="45.4079273" lon="7.7311154"><ele>407.0</ele><time>2026-04-25T13:09:27.286Z</time></trkpt><trkpt lat="45.4080436" lon="7.7308663"><ele>407.0</ele><time>2026-04-25T13:09:28.279Z</time></trkpt><trkpt lat="45.4081698" lon="7.7306678"><ele>407.66666666666663</ele><time>2026-04-25T13:09:29.282Z</time></trkpt><trkpt lat="45.4083401" lon="7.7305537"><ele>408.33333333333337</ele><time>2026-04-25T13:09:30.276Z</time></trkpt><trkpt lat="45.4085282" lon="7.7304458"><ele>409.0</ele><time>2026-04-25T13:09:31.279Z</time></trkpt><trkpt lat="45.4087172" lon="7.7304223"><ele>409.0</ele><time>2026-04-25T13:09:32.283Z</time></trkpt><trkpt lat="45.4089234" lon="7.730439"><ele>409.0</ele><time>2026-04-25T13:09:33.276Z</time></trkpt><trkpt lat="45.4091229" lon="7.7304212"><ele>409.0</ele><time>2026-04-25T13:09:34.279Z</time></trkpt><trkpt lat="45.4093534" lon="7.7304356"><ele>409.0</ele><time>2026-04-25T13:09:35.289Z</time></trkpt><trkpt lat="45.4095788" lon="7.7304256"><ele>409.0</ele><time>2026-04-25T13:09:36.284Z</time></trkpt><trkpt lat="45.4098072" lon="7.7304077"><ele>409.6666666666667</ele><time>2026-04-25T13:09:37.293Z</time></trkpt><trkpt lat="45.4100349" lon="7.7303709"><ele>410.33333333333337</ele><time>2026-04-25T13:09:38.299Z</time></trkpt><trkpt lat="45.410231" lon="7.7303378"><ele>411.0</ele><time>2026-04-25T13:09:39.294Z</time></trkpt><trkpt lat="45.410436" lon="7.7302924"><ele>411.66666666666663</ele><time>2026-04-25T13:09:40.296Z</time></trkpt><trkpt lat="45.4106428" lon="7.7302346"><ele>412.3333333333333</ele><time>2026-04-25T13:09:41.294Z</time></trkpt><trkpt lat="45.4108334" lon="7.7302003"><ele>413.0</ele><time>2026-04-25T13:09:42.29Z</time></trkpt><trkpt lat="45.4110256" lon="7.7301616"><ele>413.0</ele><time>2026-04-25T13:09:43.294Z</time></trkpt><trkpt lat="45.4112419" lon="7.7300954"><ele>413.0</ele><time>2026-04-25T13:09:44.284Z</time></trkpt><trkpt lat="45.411454" lon="7.7300613"><ele>413.0</ele><time>2026-04-25T13:09:45.289Z</time></trkpt><trkpt lat="45.4116632" lon="7.730051"><ele>414.3333333333333</ele><time>2026-04-25T13:09:46.293Z</time></trkpt><trkpt lat="45.4118564" lon="7.7300152"><ele>415.66666666666663</ele><time>2026-04-25T13:09:47.293Z</time></trkpt><trkpt lat="45.4120669" lon="7.7299987"><ele>417.0</ele><time>2026-04-25T13:09:48.295Z</time></trkpt><trkpt lat="45.412284" lon="7.7299944"><ele>419.0</ele><time>2026-04-25T13:09:49.294Z</time></trkpt><trkpt lat="45.4125028" lon="7.7299579"><ele>421.0</ele><time>2026-04-25T13:09:50.296Z</time></trkpt><trkpt lat="45.4126979" lon="7.7299117"><ele>423.0</ele><time>2026-04-25T13:09:51.303Z</time></trkpt><trkpt lat="45.4129043" lon="7.7298897"><ele>426.0</ele><time>2026-04-25T13:09:52.298Z</time></trkpt><trkpt lat="45.4131059" lon="7.7298313"><ele>429.0</ele><time>2026-04-25T13:09:53.299Z</time></trkpt><trkpt lat="45.4133227" lon="7.7297894"><ele>432.0</ele><time>2026-04-25T13:09:54.297Z</time></trkpt><trkpt lat="45.4135293" lon="7.7297731"><ele>432.0</ele><time>2026-04-25T13:09:55.291Z</time></trkpt><trkpt lat="45.4137101" lon="7.7297375"><ele>432.0</ele><time>2026-04-25T13:09:56.293Z</time></trkpt><trkpt lat="45.4139085" lon="7.7296744"><ele>432.0</ele><time>2026-04-25T13:09:57.297Z</time></trkpt><trkpt lat="45.414118" lon="7.7295939"><ele>432.0</ele><time>2026-04-25T13:09:58.295Z</time></trkpt><trkpt lat="45.4142848" lon="7.7294248"><ele>432.0</ele><time>2026-04-25T13:09:59.293Z</time></trkpt><trkpt lat="45.4144834" lon="7.7292835"><ele>432.0</ele><time>2026-04-25T13:10:00.294Z</time></trkpt><trkpt lat="45.414665" lon="7.7291402"><ele>430.0</ele><time>2026-04-25T13:10:01.298Z</time></trkpt><trkpt lat="45.4148393" lon="7.7289876"><ele>428.0</ele><time>2026-04-25T13:10:02.298Z</time></trkpt><trkpt lat="45.415022" lon="7.7288554"><ele>426.0</ele><time>2026-04-25T13:10:03.299Z</time></trkpt><trkpt lat="45.4151952" lon="7.728711"><ele>426.0</ele><time>2026-04-25T13:10:04.299Z</time></trkpt><trkpt lat="45.415375" lon="7.7285799"><ele>426.0</ele><time>2026-04-25T13:10:05.297Z</time></trkpt><trkpt lat="45.4155733" lon="7.7284787"><ele>426.0</ele><time>2026-04-25T13:10:06.299Z</time></trkpt><trkpt lat="45.4157626" lon="7.728378"><ele>426.0</ele><time>2026-04-25T13:10:07.295Z</time></trkpt><trkpt lat="45.415951" lon="7.7283169"><ele>426.0</ele><time>2026-04-25T13:10:08.287Z</time></trkpt><trkpt lat="45.4161646" lon="7.728221"><ele>426.0</ele><time>2026-04-25T13:10:09.297Z</time></trkpt><trkpt lat="45.4163844" lon="7.7281569"><ele>426.66666666666663</ele><time>2026-04-25T13:10:10.298Z</time></trkpt><trkpt lat="45.416597" lon="7.7280963"><ele>427.3333333333333</ele><time>2026-04-25T13:10:11.295Z</time></trkpt><trkpt lat="45.4168016" lon="7.7280351"><ele>428.0</ele><time>2026-04-25T13:10:12.295Z</time></trkpt><trkpt lat="45.4170227" lon="7.7279751"><ele>429.5</ele><time>2026-04-25T13:10:13.294Z</time></trkpt><trkpt lat="45.4172467" lon="7.7279141"><ele>431.0</ele><time>2026-04-25T13:10:14.298Z</time></trkpt><trkpt lat="45.4174715" lon="7.7278645"><ele>431.0</ele><time>2026-04-25T13:10:15.29Z</time></trkpt><trkpt lat="45.417672" lon="7.7278178"><ele>431.0</ele><time>2026-04-25T13:10:16.293Z</time></trkpt><trkpt lat="45.4178856" lon="7.7277618"><ele>431.0</ele><time>2026-04-25T13:10:17.291Z</time></trkpt><trkpt lat="45.4180727" lon="7.7276959"><ele>431.3333333333333</ele><time>2026-04-25T13:10:18.294Z</time></trkpt><trkpt lat="45.4182533" lon="7.7276366"><ele>431.66666666666663</ele><time>2026-04-25T13:10:19.289Z</time></trkpt><trkpt lat="45.4184361" lon="7.7275842"><ele>432.0</ele><time>2026-04-25T13:10:20.291Z</time></trkpt><trkpt lat="45.4186235" lon="7.7275363"><ele>432.0</ele><time>2026-04-25T13:10:21.288Z</time></trkpt><trkpt lat="45.4187845" lon="7.7274832"><ele>432.0</ele><time>2026-04-25T13:10:22.29Z</time></trkpt><trkpt lat="45.4189483" lon="7.7274453"><ele>432.0</ele><time>2026-04-25T13:10:23.295Z</time></trkpt><trkpt lat="45.419116" lon="7.7273946"><ele>434.0</ele><time>2026-04-25T13:10:24.285Z</time></trkpt><trkpt lat="45.4192626" lon="7.727333"><ele>436.0</ele><time>2026-04-25T13:10:25.285Z</time></trkpt><trkpt lat="45.41939" lon="7.7273164"><ele>438.0</ele><time>2026-04-25T13:10:26.285Z</time></trkpt><trkpt lat="45.4194963" lon="7.7272713"><ele>440.0</ele><time>2026-04-25T13:10:27.28Z</time></trkpt><trkpt lat="45.4195767" lon="7.7272438"><ele>440.66666666666663</ele><time>2026-04-25T13:10:28.282Z</time></trkpt><trkpt lat="45.4196737" lon="7.7272664"><ele>441.3333333333333</ele><time>2026-04-25T13:10:29.283Z</time></trkpt><trkpt lat="45.4197606" lon="7.7272985"><ele>442.0</ele><time>2026-04-25T13:10:30.283Z</time></trkpt><trkpt lat="45.4198472" lon="7.7273216"><ele>442.66666666666663</ele><time>2026-04-25T13:10:31.287Z</time></trkpt><trkpt lat="45.4199344" lon="7.7273337"><ele>443.3333333333333</ele><time>2026-04-25T13:10:32.285Z</time></trkpt><trkpt lat="45.4200057" lon="7.7273378"><ele>444.0</ele><time>2026-04-25T13:10:33.293Z</time></trkpt><trkpt lat="45.4201029" lon="7.7273288"><ele>444.0</ele><time>2026-04-25T13:10:35.283Z</time></trkpt><trkpt lat="45.4199817" lon="7.727333"><ele>444.0</ele><time>2026-04-25T13:10:45.287Z</time></trkpt><trkpt lat="45.4198668" lon="7.7272902"><ele>444.0</ele><time>2026-04-25T13:10:46.277Z</time></trkpt><trkpt lat="45.4197512" lon="7.7272491"><ele>444.0</ele><time>2026-04-25T13:10:47.278Z</time></trkpt><trkpt lat="45.4196438" lon="7.7272235"><ele>443.3333333333333</ele><time>2026-04-25T13:10:48.288Z</time></trkpt><trkpt lat="45.4195533" lon="7.7272279"><ele>442.66666666666663</ele><time>2026-04-25T13:10:49.291Z</time></trkpt><trkpt lat="45.4194701" lon="7.7272407"><ele>442.0</ele><time>2026-04-25T13:10:50.294Z</time></trkpt><trkpt lat="45.419395" lon="7.7272529"><ele>441.3333333333333</ele><time>2026-04-25T13:10:51.292Z</time></trkpt><trkpt lat="45.4193167" lon="7.7272626"><ele>440.66666666666663</ele><time>2026-04-25T13:10:52.29Z</time></trkpt><trkpt lat="45.4192484" lon="7.7272813"><ele>440.0</ele><time>2026-04-25T13:10:53.287Z</time></trkpt><trkpt lat="45.4191922" lon="7.7273673"><ele>439.99999999999994</ele><time>2026-04-25T13:10:55.285Z</time></trkpt><trkpt lat="45.4192245" lon="7.7274846"><ele>440.0</ele><time>2026-04-25T13:10:57.287Z</time></trkpt><trkpt lat="45.4192821" lon="7.7276141"><ele>440.0</ele><time>2026-04-25T13:10:59.282Z</time></trkpt><trkpt lat="45.4193127" lon="7.7276932"><ele>440.0</ele><time>2026-04-25T13:11:00.282Z</time></trkpt><trkpt lat="45.4193488" lon="7.7278071"><ele>439.99999999999994</ele><time>2026-04-25T13:11:01.288Z</time></trkpt><trkpt lat="45.4193843" lon="7.7279264"><ele>440.0</ele><time>2026-04-25T13:11:02.28Z</time></trkpt><trkpt lat="45.4194292" lon="7.7280594"><ele>441.2</ele><time>2026-04-25T13:11:03.283Z</time></trkpt><trkpt lat="45.4194657" lon="7.7282154"><ele>442.4</ele><time>2026-04-25T13:11:04.29Z</time></trkpt><trkpt lat="45.4195035" lon="7.7283585"><ele>443.6</ele><time>2026-04-25T13:11:05.29Z</time></trkpt><trkpt lat="45.4195233" lon="7.7285086"><ele>444.8</ele><time>2026-04-25T13:11:06.287Z</time></trkpt><trkpt lat="45.4195274" lon="7.7286616"><ele>446.0</ele><time>2026-04-25T13:11:07.282Z</time></trkpt><trkpt lat="45.4195066" lon="7.7288285"><ele>447.5</ele><time>2026-04-25T13:11:08.277Z</time></trkpt><trkpt lat="45.4194563" lon="7.7289807"><ele>449.0</ele><time>2026-04-25T13:11:09.277Z</time></trkpt><trkpt lat="45.4193953" lon="7.7291254"><ele>450.5</ele><time>2026-04-25T13:11:10.277Z</time></trkpt><trkpt lat="45.419335" lon="7.729274"><ele>452.0</ele><time>2026-04-25T13:11:11.274Z</time></trkpt><trkpt lat="45.4193105" lon="7.7294384"><ele>452.25</ele><time>2026-04-25T13:11:12.28Z</time></trkpt><trkpt lat="45.4193048" lon="7.7296066"><ele>452.5</ele><time>2026-04-25T13:11:13.275Z</time></trkpt><trkpt lat="45.4192837" lon="7.7297622"><ele>452.75</ele><time>2026-04-25T13:11:14.279Z</time></trkpt><trkpt lat="45.4192597" lon="7.7299178"><ele>453.0</ele><time>2026-04-25T13:11:15.277Z</time></trkpt><trkpt lat="45.4192315" lon="7.7300756"><ele>454.25</ele><time>2026-04-25T13:11:16.284Z</time></trkpt><trkpt lat="45.4191872" lon="7.7302373"><ele>455.5</ele><time>2026-04-25T13:11:17.281Z</time></trkpt><trkpt lat="45.4191628" lon="7.7303963"><ele>456.75</ele><time>2026-04-25T13:11:18.285Z</time></trkpt><trkpt lat="45.4191518" lon="7.7305543"><ele>458.0</ele><time>2026-04-25T13:11:19.281Z</time></trkpt><trkpt lat="45.4191538" lon="7.7307287"><ele>458.0</ele><time>2026-04-25T13:11:20.292Z</time></trkpt><trkpt lat="45.4191598" lon="7.7309152"><ele>458.0</ele><time>2026-04-25T13:11:21.295Z</time></trkpt><trkpt lat="45.4191633" lon="7.7310967"><ele>458.0</ele><time>2026-04-25T13:11:22.288Z</time></trkpt><trkpt lat="45.4191486" lon="7.731264"><ele>458.0</ele><time>2026-04-25T13:11:23.298Z</time></trkpt><trkpt lat="45.4191229" lon="7.731418"><ele>460.0</ele><time>2026-04-25T13:11:24.293Z</time></trkpt><trkpt lat="45.4190874" lon="7.7315695"><ele>461.99999999999994</ele><time>2026-04-25T13:11:25.292Z</time></trkpt><trkpt lat="45.4190328" lon="7.7317017"><ele>463.99999999999994</ele><time>2026-04-25T13:11:26.293Z</time></trkpt><trkpt lat="45.4189831" lon="7.731836"><ele>466.0</ele><time>2026-04-25T13:11:27.289Z</time></trkpt><trkpt lat="45.4189522" lon="7.7319567"><ele>468.0</ele><time>2026-04-25T13:11:28.285Z</time></trkpt><trkpt lat="45.4189488" lon="7.7320468"><ele>470.4</ele><time>2026-04-25T13:11:29.283Z</time></trkpt><trkpt lat="45.418975" lon="7.732141"><ele>472.79999999999995</ele><time>2026-04-25T13:11:30.3Z</time></trkpt><trkpt lat="45.419033" lon="7.7322626"><ele>475.2</ele><time>2026-04-25T13:11:31.285Z</time></trkpt><trkpt lat="45.4191004" lon="7.7324081"><ele>477.6</ele><time>2026-04-25T13:11:32.283Z</time></trkpt><trkpt lat="45.4191718" lon="7.7325651"><ele>480.0</ele><time>2026-04-25T13:11:33.282Z</time></trkpt><trkpt lat="45.4192371" lon="7.7327601"><ele>481.25</ele><time>2026-04-25T13:11:34.273Z</time></trkpt><trkpt lat="45.4192981" lon="7.7329575"><ele>482.5</ele><time>2026-04-25T13:11:35.267Z</time></trkpt><trkpt lat="45.4193602" lon="7.7331307"><ele>483.75</ele><time>2026-04-25T13:11:36.27Z</time></trkpt><trkpt lat="45.419372" lon="7.733282"><ele>485.0</ele><time>2026-04-25T13:11:37.267Z</time></trkpt><trkpt lat="45.4194378" lon="7.7334022"><ele>485.0</ele><time>2026-04-25T13:11:39.288Z</time></trkpt><trkpt lat="45.4195022" lon="7.7334031"><ele>485.0</ele><time>2026-04-25T13:11:40.284Z</time></trkpt><trkpt lat="45.4196" lon="7.7333408"><ele>485.0</ele><time>2026-04-25T13:11:41.279Z</time></trkpt><trkpt lat="45.4196756" lon="7.7332378"><ele>485.0</ele><time>2026-04-25T13:11:43.28Z</time></trkpt><trkpt lat="45.4197163" lon="7.7333228"><ele>485.0</ele><time>2026-04-25T13:11:46.299Z</time></trkpt><trkpt lat="45.4196554" lon="7.733464"><ele>485.00000000000006</ele><time>2026-04-25T13:11:48.295Z</time></trkpt><trkpt lat="45.4196283" lon="7.7335452"><ele>485.0</ele><time>2026-04-25T13:11:49.293Z</time></trkpt><trkpt lat="45.4195947" lon="7.7336458"><ele>485.00000000000006</ele><time>2026-04-25T13:11:50.292Z</time></trkpt><trkpt lat="45.4195619" lon="7.7337245"><ele>485.00000000000006</ele><time>2026-04-25T13:11:51.291Z</time></trkpt><trkpt lat="45.4195247" lon="7.7338425"><ele>485.0</ele><time>2026-04-25T13:11:53.304Z</time></trkpt><trkpt lat="45.4195738" lon="7.7337801"><ele>485.00000000000006</ele><time>2026-04-25T13:12:42.302Z</time></trkpt><trkpt lat="45.4196093" lon="7.7336866"><ele>485.00000000000006</ele><time>2026-04-25T13:12:44.304Z</time></trkpt><trkpt lat="45.4196376" lon="7.733588"><ele>485.0</ele><time>2026-04-25T13:12:45.305Z</time></trkpt><trkpt lat="45.4196502" lon="7.7334658"><ele>485.0</ele><time>2026-04-25T13:12:46.299Z</time></trkpt><trkpt lat="45.4196719" lon="7.7333264"><ele>485.0</ele><time>2026-04-25T13:12:48.309Z</time></trkpt><trkpt lat="45.4196621" lon="7.7332007"><ele>485.0</ele><time>2026-04-25T13:12:50.3Z</time></trkpt><trkpt lat="45.419717" lon="7.7330295"><ele>485.0</ele><time>2026-04-25T13:12:52.293Z</time></trkpt><trkpt lat="45.4197819" lon="7.7329483"><ele>484.3333333333333</ele><time>2026-04-25T13:12:53.298Z</time></trkpt><trkpt lat="45.4198422" lon="7.7328769"><ele>483.66666666666663</ele><time>2026-04-25T13:12:54.29Z</time></trkpt><trkpt lat="45.4199055" lon="7.7328299"><ele>483.0</ele><time>2026-04-25T13:12:55.292Z</time></trkpt><trkpt lat="45.4199808" lon="7.7328203"><ele>482.33333333333337</ele><time>2026-04-25T13:12:56.275Z</time></trkpt><trkpt lat="45.4200703" lon="7.7328544"><ele>481.6666666666667</ele><time>2026-04-25T13:12:57.274Z</time></trkpt><trkpt lat="45.4201487" lon="7.7329079"><ele>481.0</ele><time>2026-04-25T13:12:58.272Z</time></trkpt><trkpt lat="45.4202504" lon="7.7329702"><ele>481.0</ele><time>2026-04-25T13:12:59.281Z</time></trkpt><trkpt lat="45.4203569" lon="7.7330236"><ele>481.0</ele><time>2026-04-25T13:13:00.284Z</time></trkpt><trkpt lat="45.4204723" lon="7.7330995"><ele>481.0</ele><time>2026-04-25T13:13:01.284Z</time></trkpt><trkpt lat="45.4205779" lon="7.7331698"><ele>481.0</ele><time>2026-04-25T13:13:02.282Z</time></trkpt><trkpt lat="45.420668" lon="7.7332055"><ele>482.5</ele><time>2026-04-25T13:13:03.284Z</time></trkpt><trkpt lat="45.4207787" lon="7.733236"><ele>484.0</ele><time>2026-04-25T13:13:04.288Z</time></trkpt><trkpt lat="45.4208873" lon="7.7332457"><ele>485.5</ele><time>2026-04-25T13:13:05.287Z</time></trkpt><trkpt lat="45.4210065" lon="7.733246"><ele>487.0</ele><time>2026-04-25T13:13:06.282Z</time></trkpt><trkpt lat="45.4211148" lon="7.7332694"><ele>487.0</ele><time>2026-04-25T13:13:07.28Z</time></trkpt><trkpt lat="45.4212084" lon="7.733338"><ele>487.0</ele><time>2026-04-25T13:13:08.298Z</time></trkpt><trkpt lat="45.4212979" lon="7.7334412"><ele>487.0</ele><time>2026-04-25T13:13:09.291Z</time></trkpt><trkpt lat="45.4213894" lon="7.7335578"><ele>487.0</ele><time>2026-04-25T13:13:10.289Z</time></trkpt><trkpt lat="45.4214784" lon="7.7336878"><ele>488.0</ele><time>2026-04-25T13:13:11.291Z</time></trkpt><trkpt lat="45.4215512" lon="7.7338121"><ele>489.00000000000006</ele><time>2026-04-25T13:13:12.293Z</time></trkpt><trkpt lat="45.421615" lon="7.7339092"><ele>490.00000000000006</ele><time>2026-04-25T13:13:13.282Z</time></trkpt><trkpt lat="45.4216781" lon="7.7339818"><ele>491.0</ele><time>2026-04-25T13:13:14.283Z</time></trkpt><trkpt lat="45.4217504" lon="7.7340754"><ele>492.0</ele><time>2026-04-25T13:13:15.286Z</time></trkpt><trkpt lat="45.4218292" lon="7.7341318"><ele>492.0</ele><time>2026-04-25T13:13:16.287Z</time></trkpt><trkpt lat="45.4219105" lon="7.7342005"><ele>492.0</ele><time>2026-04-25T13:13:17.285Z</time></trkpt><trkpt lat="45.4220092" lon="7.734244"><ele>492.0</ele><time>2026-04-25T13:13:18.28Z</time></trkpt><trkpt lat="45.422128" lon="7.7342934"><ele>492.0</ele><time>2026-04-25T13:13:19.287Z</time></trkpt><trkpt lat="45.4222522" lon="7.7343648"><ele>493.8</ele><time>2026-04-25T13:13:20.281Z</time></trkpt><trkpt lat="45.4223603" lon="7.7344055"><ele>495.6</ele><time>2026-04-25T13:13:21.28Z</time></trkpt><trkpt lat="45.4224525" lon="7.7344358"><ele>497.40000000000003</ele><time>2026-04-25T13:13:22.27Z</time></trkpt><trkpt lat="45.4225349" lon="7.7344637"><ele>499.20000000000005</ele><time>2026-04-25T13:13:23.285Z</time></trkpt><trkpt lat="45.4226494" lon="7.7345284"><ele>501.0</ele><time>2026-04-25T13:13:25.274Z</time></trkpt><trkpt lat="45.4226988" lon="7.7346299"><ele>501.0</ele><time>2026-04-25T13:13:26.271Z</time></trkpt><trkpt lat="45.4227562" lon="7.7347891"><ele>501.0</ele><time>2026-04-25T13:13:27.285Z</time></trkpt><trkpt lat="45.4228443" lon="7.7349617"><ele>501.0</ele><time>2026-04-25T13:13:28.277Z</time></trkpt><trkpt lat="45.4229427" lon="7.7351128"><ele>501.0</ele><time>2026-04-25T13:13:29.273Z</time></trkpt><trkpt lat="45.4230332" lon="7.7352422"><ele>502.4</ele><time>2026-04-25T13:13:30.274Z</time></trkpt><trkpt lat="45.4231091" lon="7.7353696"><ele>503.8</ele><time>2026-04-25T13:13:31.277Z</time></trkpt><trkpt lat="45.4231996" lon="7.7354582"><ele>505.19999999999993</ele><time>2026-04-25T13:13:32.273Z</time></trkpt><trkpt lat="45.4232957" lon="7.7355036"><ele>506.59999999999997</ele><time>2026-04-25T13:13:33.275Z</time></trkpt><trkpt lat="45.4233857" lon="7.7355439"><ele>508.0</ele><time>2026-04-25T13:13:34.266Z</time></trkpt><trkpt lat="45.4234889" lon="7.7355883"><ele>508.00000000000006</ele><time>2026-04-25T13:13:35.279Z</time></trkpt><trkpt lat="45.4235667" lon="7.7356157"><ele>508.0</ele><time>2026-04-25T13:13:36.275Z</time></trkpt><trkpt lat="45.4236502" lon="7.7355955"><ele>508.0</ele><time>2026-04-25T13:13:37.271Z</time></trkpt><trkpt lat="45.4237185" lon="7.7355598"><ele>508.0</ele><time>2026-04-25T13:13:38.272Z</time></trkpt><trkpt lat="45.4237569" lon="7.7354758"><ele>508.00000000000006</ele><time>2026-04-25T13:13:39.275Z</time></trkpt><trkpt lat="45.4237951" lon="7.7353747"><ele>508.0</ele><time>2026-04-25T13:13:40.278Z</time></trkpt><trkpt lat="45.4238216" lon="7.7352528"><ele>513.0</ele><time>2026-04-25T13:13:41.277Z</time></trkpt><trkpt lat="45.4238604" lon="7.735096"><ele>518.0</ele><time>2026-04-25T13:13:42.284Z</time></trkpt><trkpt lat="45.4239034" lon="7.7349302"><ele>523.0</ele><time>2026-04-25T13:13:43.282Z</time></trkpt><trkpt lat="45.4239579" lon="7.7347819"><ele>528.0</ele><time>2026-04-25T13:13:44.281Z</time></trkpt><trkpt lat="45.4240292" lon="7.7346464"><ele>528.0</ele><time>2026-04-25T13:13:45.281Z</time></trkpt><trkpt lat="45.4240995" lon="7.7345241"><ele>528.0</ele><time>2026-04-25T13:13:46.272Z</time></trkpt><trkpt lat="45.4241601" lon="7.7344054"><ele>528.0</ele><time>2026-04-25T13:13:47.264Z</time></trkpt><trkpt lat="45.4242368" lon="7.7343528"><ele>528.0</ele><time>2026-04-25T13:13:48.274Z</time></trkpt><trkpt lat="45.4243158" lon="7.7343077"><ele>528.0</ele><time>2026-04-25T13:13:49.274Z</time></trkpt><trkpt lat="45.424398" lon="7.7342936"><ele>528.5</ele><time>2026-04-25T13:13:50.278Z</time></trkpt><trkpt lat="45.424473" lon="7.7342706"><ele>529.0</ele><time>2026-04-25T13:13:51.276Z</time></trkpt><trkpt lat="45.4245539" lon="7.7341897"><ele>529.5</ele><time>2026-04-25T13:13:52.286Z</time></trkpt><trkpt lat="45.4246312" lon="7.7340928"><ele>530.0</ele><time>2026-04-25T13:13:53.295Z</time></trkpt><trkpt lat="45.4246998" lon="7.7340008"><ele>530.5</ele><time>2026-04-25T13:13:54.292Z</time></trkpt><trkpt lat="45.4247529" lon="7.7339315"><ele>531.0</ele><time>2026-04-25T13:13:55.286Z</time></trkpt><trkpt lat="45.4248518" lon="7.733966"><ele>532.1666666666666</ele><time>2026-04-25T13:13:57.285Z</time></trkpt><trkpt lat="45.4248758" lon="7.7340679"><ele>533.3333333333334</ele><time>2026-04-25T13:13:58.273Z</time></trkpt><trkpt lat="45.4248693" lon="7.7341665"><ele>534.5</ele><time>2026-04-25T13:13:59.275Z</time></trkpt><trkpt lat="45.4248884" lon="7.7343128"><ele>535.6666666666667</ele><time>2026-04-25T13:14:01.29Z</time></trkpt><trkpt lat="45.4249444" lon="7.734392"><ele>536.8333333333334</ele><time>2026-04-25T13:14:03.294Z</time></trkpt><trkpt lat="45.4250435" lon="7.7343568"><ele>538.0</ele><time>2026-04-25T13:14:45.291Z</time></trkpt><trkpt lat="45.4251574" lon="7.7343458"><ele>538.0</ele><time>2026-04-25T13:14:47.285Z</time></trkpt><trkpt lat="45.4252206" lon="7.734378"><ele>538.0</ele><time>2026-04-25T13:14:48.281Z</time></trkpt><trkpt lat="45.4252809" lon="7.7344082"><ele>538.0</ele><time>2026-04-25T13:14:49.282Z</time></trkpt><trkpt lat="45.4253731" lon="7.7343386"><ele>538.0</ele><time>2026-04-25T13:14:51.292Z</time></trkpt><trkpt lat="45.4254218" lon="7.7341838"><ele>538.0</ele><time>2026-04-25T13:14:53.282Z</time></trkpt><trkpt lat="45.4254294" lon="7.7340799"><ele>538.0</ele><time>2026-04-25T13:14:54.273Z</time></trkpt><trkpt lat="45.4254279" lon="7.7339628"><ele>538.0</ele><time>2026-04-25T13:14:55.271Z</time></trkpt><trkpt lat="45.4254099" lon="7.7338249"><ele>538.0</ele><time>2026-04-25T13:14:56.271Z</time></trkpt><trkpt lat="45.4253911" lon="7.7336822"><ele>538.0</ele><time>2026-04-25T13:14:57.278Z</time></trkpt><trkpt lat="45.4253869" lon="7.7335435"><ele>538.0</ele><time>2026-04-25T13:14:58.275Z</time></trkpt><trkpt lat="45.4253755" lon="7.7334306"><ele>538.0</ele><time>2026-04-25T13:14:59.276Z</time></trkpt><trkpt lat="45.4253662" lon="7.7333181"><ele>538.0</ele><time>2026-04-25T13:15:00.272Z</time></trkpt><trkpt lat="45.4253524" lon="7.7332249"><ele>538.0</ele><time>2026-04-25T13:15:01.288Z</time></trkpt><trkpt lat="45.4253683" lon="7.7330936"><ele>538.0</ele><time>2026-04-25T13:15:03.282Z</time></trkpt><trkpt lat="45.4254299" lon="7.7330609"><ele>538.0</ele><time>2026-04-25T13:15:04.278Z</time></trkpt><trkpt lat="45.4255105" lon="7.7329917"><ele>538.0</ele><time>2026-04-25T13:15:05.272Z</time></trkpt><trkpt lat="45.4255802" lon="7.732931"><ele>538.0</ele><time>2026-04-25T13:15:06.283Z</time></trkpt><trkpt lat="45.4256603" lon="7.7328776"><ele>541.8</ele><time>2026-04-25T13:15:07.273Z</time></trkpt><trkpt lat="45.4257475" lon="7.7328391"><ele>545.5999999999999</ele><time>2026-04-25T13:15:08.275Z</time></trkpt><trkpt lat="45.4258282" lon="7.7328124"><ele>549.4000000000001</ele><time>2026-04-25T13:15:09.266Z</time></trkpt><trkpt lat="45.42591" lon="7.7327406"><ele>553.2</ele><time>2026-04-25T13:15:11.267Z</time></trkpt><trkpt lat="45.4259257" lon="7.7326322"><ele>557.0</ele><time>2026-04-25T13:15:13.26Z</time></trkpt><trkpt lat="45.4258691" lon="7.7324859"><ele>557.0</ele><time>2026-04-25T13:15:15.259Z</time></trkpt><trkpt lat="45.4258345" lon="7.7323744"><ele>557.0</ele><time>2026-04-25T13:15:16.251Z</time></trkpt><trkpt lat="45.4257914" lon="7.7322641"><ele>557.0</ele><time>2026-04-25T13:15:17.253Z</time></trkpt><trkpt lat="45.4257643" lon="7.7321432"><ele>557.0</ele><time>2026-04-25T13:15:18.265Z</time></trkpt><trkpt lat="45.4257608" lon="7.7320116"><ele>557.0</ele><time>2026-04-25T13:15:19.266Z</time></trkpt><trkpt lat="45.4257293" lon="7.7318744"><ele>556.1666666666666</ele><time>2026-04-25T13:15:20.271Z</time></trkpt><trkpt lat="45.4257019" lon="7.7317528"><ele>555.3333333333333</ele><time>2026-04-25T13:15:21.273Z</time></trkpt><trkpt lat="45.4256894" lon="7.7316388"><ele>554.5</ele><time>2026-04-25T13:15:22.275Z</time></trkpt><trkpt lat="45.4257632" lon="7.7315169"><ele>553.6666666666666</ele><time>2026-04-25T13:15:24.29Z</time></trkpt><trkpt lat="45.4258271" lon="7.7314811"><ele>552.8333333333334</ele><time>2026-04-25T13:15:25.282Z</time></trkpt><trkpt lat="45.4259085" lon="7.7314481"><ele>552.0</ele><time>2026-04-25T13:15:26.276Z</time></trkpt><trkpt lat="45.4260236" lon="7.7314333"><ele>552.0</ele><time>2026-04-25T13:15:27.291Z</time></trkpt><trkpt lat="45.4261395" lon="7.7313542"><ele>552.0</ele><time>2026-04-25T13:15:28.292Z</time></trkpt><trkpt lat="45.4262359" lon="7.731255"><ele>552.0</ele><time>2026-04-25T13:15:29.282Z</time></trkpt><trkpt lat="45.4263337" lon="7.7311801"><ele>552.0</ele><time>2026-04-25T13:15:30.281Z</time></trkpt><trkpt lat="45.4264037" lon="7.7311082"><ele>552.0</ele><time>2026-04-25T13:15:31.289Z</time></trkpt><trkpt lat="45.426457" lon="7.7310493"><ele>551.8333333333334</ele><time>2026-04-25T13:15:32.288Z</time></trkpt><trkpt lat="45.4265459" lon="7.7310413"><ele>551.6666666666666</ele><time>2026-04-25T13:15:34.284Z</time></trkpt><trkpt lat="45.4266116" lon="7.7310461"><ele>551.5</ele><time>2026-04-25T13:15:35.289Z</time></trkpt><trkpt lat="45.4266904" lon="7.731045"><ele>551.3333333333333</ele><time>2026-04-25T13:15:36.279Z</time></trkpt><trkpt lat="45.4267684" lon="7.7310312"><ele>551.1666666666666</ele><time>2026-04-25T13:15:37.279Z</time></trkpt><trkpt lat="45.4268442" lon="7.7310435"><ele>551.0</ele><time>2026-04-25T13:15:38.286Z</time></trkpt><trkpt lat="45.4269259" lon="7.7310672"><ele>551.0</ele><time>2026-04-25T13:15:39.283Z</time></trkpt><trkpt lat="45.4269927" lon="7.7310739"><ele>551.0</ele><time>2026-04-25T13:15:40.282Z</time></trkpt><trkpt lat="45.4270683" lon="7.7310361"><ele>551.0</ele><time>2026-04-25T13:15:42.265Z</time></trkpt><trkpt lat="45.4270702" lon="7.7308372"><ele>551.0</ele><time>2026-04-25T13:15:45.246Z</time></trkpt><trkpt lat="45.427058" lon="7.7306986"><ele>551.0</ele><time>2026-04-25T13:15:46.249Z</time></trkpt><trkpt lat="45.4270152" lon="7.7305377"><ele>551.0</ele><time>2026-04-25T13:15:47.261Z</time></trkpt><trkpt lat="45.4269858" lon="7.7303663"><ele>551.0</ele><time>2026-04-25T13:15:48.267Z</time></trkpt><trkpt lat="45.4269529" lon="7.7302181"><ele>551.0</ele><time>2026-04-25T13:15:49.281Z</time></trkpt><trkpt lat="45.4269587" lon="7.7300833"><ele>551.0</ele><time>2026-04-25T13:15:50.286Z</time></trkpt><trkpt lat="45.4269952" lon="7.7299526"><ele>551.0</ele><time>2026-04-25T13:15:51.287Z</time></trkpt><trkpt lat="45.4270506" lon="7.7298024"><ele>549.4</ele><time>2026-04-25T13:15:52.279Z</time></trkpt><trkpt lat="45.4271051" lon="7.7296402"><ele>547.8</ele><time>2026-04-25T13:15:53.284Z</time></trkpt><trkpt lat="45.4271476" lon="7.729502"><ele>546.1999999999999</ele><time>2026-04-25T13:15:54.274Z</time></trkpt><trkpt lat="45.4271647" lon="7.7293664"><ele>544.6</ele><time>2026-04-25T13:15:55.274Z</time></trkpt><trkpt lat="45.4271751" lon="7.7292234"><ele>543.0</ele><time>2026-04-25T13:15:56.272Z</time></trkpt><trkpt lat="45.4272087" lon="7.7290921"><ele>544.8333333333334</ele><time>2026-04-25T13:15:57.276Z</time></trkpt><trkpt lat="45.4272419" lon="7.728961"><ele>546.6666666666666</ele><time>2026-04-25T13:15:58.275Z</time></trkpt><trkpt lat="45.4272766" lon="7.7288287"><ele>548.5</ele><time>2026-04-25T13:15:59.274Z</time></trkpt><trkpt lat="45.4273229" lon="7.7287144"><ele>550.3333333333333</ele><time>2026-04-25T13:16:00.268Z</time></trkpt><trkpt lat="45.4273517" lon="7.728627"><ele>552.1666666666666</ele><time>2026-04-25T13:16:01.268Z</time></trkpt><trkpt lat="45.4273623" lon="7.7285026"><ele>554.0</ele><time>2026-04-25T13:16:03.266Z</time></trkpt><trkpt lat="45.4273459" lon="7.7283582"><ele>554.0</ele><time>2026-04-25T13:16:05.275Z</time></trkpt><trkpt lat="45.4273528" lon="7.7282341"><ele>554.0</ele><time>2026-04-25T13:16:07.28Z</time></trkpt><trkpt lat="45.4274347" lon="7.7281123"><ele>554.0</ele><time>2026-04-25T13:16:09.277Z</time></trkpt><trkpt lat="45.4274957" lon="7.7280624"><ele>554.0</ele><time>2026-04-25T13:16:10.288Z</time></trkpt><trkpt lat="45.42757" lon="7.7280292"><ele>554.0</ele><time>2026-04-25T13:16:11.279Z</time></trkpt><trkpt lat="45.4276748" lon="7.7280095"><ele>554.0</ele><time>2026-04-25T13:16:12.284Z</time></trkpt><trkpt lat="45.4277795" lon="7.72799"><ele>554.0</ele><time>2026-04-25T13:16:13.279Z</time></trkpt><trkpt lat="45.4278949" lon="7.7279693"><ele>554.0</ele><time>2026-04-25T13:16:14.279Z</time></trkpt><trkpt lat="45.4279665" lon="7.7279011"><ele>554.0</ele><time>2026-04-25T13:16:15.286Z</time></trkpt><trkpt lat="45.428051" lon="7.7278572"><ele>554.0</ele><time>2026-04-25T13:16:16.285Z</time></trkpt><trkpt lat="45.4281432" lon="7.7278254"><ele>554.2</ele><time>2026-04-25T13:16:17.285Z</time></trkpt><trkpt lat="45.4282218" lon="7.7278091"><ele>554.4</ele><time>2026-04-25T13:16:18.283Z</time></trkpt><trkpt lat="45.4283375" lon="7.7277999"><ele>554.6</ele><time>2026-04-25T13:16:20.291Z</time></trkpt><trkpt lat="45.4284561" lon="7.7278741"><ele>554.8</ele><time>2026-04-25T13:16:22.279Z</time></trkpt><trkpt lat="45.428547" lon="7.7279454"><ele>555.0</ele><time>2026-04-25T13:16:23.277Z</time></trkpt><trkpt lat="45.4286354" lon="7.7279971"><ele>555.0</ele><time>2026-04-25T13:16:24.28Z</time></trkpt><trkpt lat="45.4287129" lon="7.7280742"><ele>555.0</ele><time>2026-04-25T13:16:25.283Z</time></trkpt><trkpt lat="45.428783" lon="7.7281766"><ele>555.0</ele><time>2026-04-25T13:16:26.272Z</time></trkpt><trkpt lat="45.4288438" lon="7.7282898"><ele>555.0</ele><time>2026-04-25T13:16:27.279Z</time></trkpt><trkpt lat="45.4288953" lon="7.7284276"><ele>555.0</ele><time>2026-04-25T13:16:28.285Z</time></trkpt><trkpt lat="45.4289379" lon="7.7285583"><ele>555.8333333333334</ele><time>2026-04-25T13:16:29.277Z</time></trkpt><trkpt lat="45.4289849" lon="7.7286424"><ele>556.6666666666666</ele><time>2026-04-25T13:16:30.274Z</time></trkpt><trkpt lat="45.429049" lon="7.7287185"><ele>557.5</ele><time>2026-04-25T13:16:31.278Z</time></trkpt><trkpt lat="45.4290967" lon="7.7288034"><ele>558.3333333333333</ele><time>2026-04-25T13:16:32.273Z</time></trkpt><trkpt lat="45.4291346" lon="7.7288811"><ele>559.1666666666666</ele><time>2026-04-25T13:16:33.267Z</time></trkpt><trkpt lat="45.4292481" lon="7.7289479"><ele>560.0</ele><time>2026-04-25T13:16:35.26Z</time></trkpt><trkpt lat="45.4293273" lon="7.7289327"><ele>560.0</ele><time>2026-04-25T13:16:36.267Z</time></trkpt><trkpt lat="45.4294249" lon="7.7289417"><ele>560.0</ele><time>2026-04-25T13:16:37.262Z</time></trkpt><trkpt lat="45.4294985" lon="7.7289763"><ele>560.0</ele><time>2026-04-25T13:16:38.261Z</time></trkpt><trkpt lat="45.4296117" lon="7.7289495"><ele>560.0</ele><time>2026-04-25T13:16:40.253Z</time></trkpt><trkpt lat="45.429619" lon="7.7288543"><ele>560.0</ele><time>2026-04-25T13:16:42.26Z</time></trkpt><trkpt lat="45.429512" lon="7.7287319"><ele>560.0</ele><time>2026-04-25T13:16:44.247Z</time></trkpt><trkpt lat="45.4294353" lon="7.7286485"><ele>560.0</ele><time>2026-04-25T13:16:45.257Z</time></trkpt><trkpt lat="45.429344" lon="7.7285025"><ele>560.0</ele><time>2026-04-25T13:16:46.271Z</time></trkpt><trkpt lat="45.4292628" lon="7.7283098"><ele>560.0</ele><time>2026-04-25T13:16:47.263Z</time></trkpt><trkpt lat="45.4291579" lon="7.728103"><ele>556.0</ele><time>2026-04-25T13:16:48.269Z</time></trkpt><trkpt lat="45.4290846" lon="7.7279019"><ele>552.0</ele><time>2026-04-25T13:16:49.264Z</time></trkpt><trkpt lat="45.4290453" lon="7.7276983"><ele>548.0</ele><time>2026-04-25T13:16:50.268Z</time></trkpt><trkpt lat="45.4290246" lon="7.7275033"><ele>544.0</ele><time>2026-04-25T13:16:51.28Z</time></trkpt><trkpt lat="45.4289948" lon="7.7273221"><ele>544.0</ele><time>2026-04-25T13:16:52.268Z</time></trkpt><trkpt lat="45.4289547" lon="7.7271687"><ele>544.0</ele><time>2026-04-25T13:16:53.262Z</time></trkpt><trkpt lat="45.4288981" lon="7.7270742"><ele>544.0</ele><time>2026-04-25T13:16:54.272Z</time></trkpt><trkpt lat="45.4288914" lon="7.7269479"><ele>544.0</ele><time>2026-04-25T13:16:57.281Z</time></trkpt><trkpt lat="45.4288768" lon="7.7267925"><ele>544.0</ele><time>2026-04-25T13:16:59.287Z</time></trkpt><trkpt lat="45.4288594" lon="7.726659"><ele>544.1666666666667</ele><time>2026-04-25T13:17:01.286Z</time></trkpt><trkpt lat="45.4289013" lon="7.726588"><ele>544.3333333333334</ele><time>2026-04-25T13:17:03.275Z</time></trkpt><trkpt lat="45.4289889" lon="7.7265919"><ele>544.5</ele><time>2026-04-25T13:17:05.269Z</time></trkpt><trkpt lat="45.4290572" lon="7.7265988"><ele>544.6666666666666</ele><time>2026-04-25T13:17:06.268Z</time></trkpt><trkpt lat="45.4291388" lon="7.7265955"><ele>544.8333333333333</ele><time>2026-04-25T13:17:07.274Z</time></trkpt><trkpt lat="45.4292226" lon="7.7265976"><ele>545.0</ele><time>2026-04-25T13:17:08.277Z</time></trkpt><trkpt lat="45.4293105" lon="7.7266126"><ele>545.0</ele><time>2026-04-25T13:17:09.273Z</time></trkpt><trkpt lat="45.4293922" lon="7.7266476"><ele>545.0</ele><time>2026-04-25T13:17:10.266Z</time></trkpt><trkpt lat="45.429486" lon="7.7266662"><ele>545.0</ele><time>2026-04-25T13:17:11.262Z</time></trkpt><trkpt lat="45.4295637" lon="7.7266773"><ele>545.0</ele><time>2026-04-25T13:17:12.266Z</time></trkpt><trkpt lat="45.4296351" lon="7.7266871"><ele>545.0</ele><time>2026-04-25T13:17:13.265Z</time></trkpt><trkpt lat="45.4297182" lon="7.7266891"><ele>545.0</ele><time>2026-04-25T13:17:14.267Z</time></trkpt><trkpt lat="45.4298093" lon="7.7266898"><ele>547.2</ele><time>2026-04-25T13:17:15.264Z</time></trkpt><trkpt lat="45.4299153" lon="7.7266706"><ele>549.4</ele><time>2026-04-25T13:17:16.261Z</time></trkpt><trkpt lat="45.4300196" lon="7.726651"><ele>551.6</ele><time>2026-04-25T13:17:17.267Z</time></trkpt><trkpt lat="45.4301198" lon="7.7266471"><ele>553.8</ele><time>2026-04-25T13:17:18.267Z</time></trkpt><trkpt lat="45.4302095" lon="7.7266465"><ele>556.0</ele><time>2026-04-25T13:17:19.262Z</time></trkpt><trkpt lat="45.430282" lon="7.7266114"><ele>556.0</ele><time>2026-04-25T13:17:20.281Z</time></trkpt><trkpt lat="45.4303746" lon="7.7265131"><ele>556.0</ele><time>2026-04-25T13:17:22.28Z</time></trkpt><trkpt lat="45.4303923" lon="7.7264258"><ele>556.0</ele><time>2026-04-25T13:17:23.278Z</time></trkpt><trkpt lat="45.4303355" lon="7.726319"><ele>556.0</ele><time>2026-04-25T13:17:24.271Z</time></trkpt><trkpt lat="45.4302722" lon="7.7261939"><ele>556.0</ele><time>2026-04-25T13:17:25.273Z</time></trkpt><trkpt lat="45.4302225" lon="7.7260726"><ele>555.8</ele><time>2026-04-25T13:17:26.275Z</time></trkpt><trkpt lat="45.4301701" lon="7.7259431"><ele>555.6</ele><time>2026-04-25T13:17:27.288Z</time></trkpt><trkpt lat="45.4301112" lon="7.7258197"><ele>555.4</ele><time>2026-04-25T13:17:28.281Z</time></trkpt><trkpt lat="45.4300677" lon="7.7257115"><ele>555.2</ele><time>2026-04-25T13:17:29.286Z</time></trkpt><trkpt lat="45.4300601" lon="7.7256204"><ele>555.0</ele><time>2026-04-25T13:17:30.288Z</time></trkpt><trkpt lat="45.4300678" lon="7.7254466"><ele>555.0</ele><time>2026-04-25T13:17:32.294Z</time></trkpt><trkpt lat="45.4300936" lon="7.7253548"><ele>555.0</ele><time>2026-04-25T13:17:33.287Z</time></trkpt><trkpt lat="45.4301305" lon="7.7252347"><ele>555.0</ele><time>2026-04-25T13:17:34.293Z</time></trkpt><trkpt lat="45.4301693" lon="7.72508"><ele>555.0</ele><time>2026-04-25T13:17:35.287Z</time></trkpt><trkpt lat="45.4302095" lon="7.7249137"><ele>555.0</ele><time>2026-04-25T13:17:36.288Z</time></trkpt><trkpt lat="45.4302413" lon="7.7247816"><ele>554.5</ele><time>2026-04-25T13:17:37.28Z</time></trkpt><trkpt lat="45.4302782" lon="7.7246599"><ele>554.0</ele><time>2026-04-25T13:17:38.283Z</time></trkpt><trkpt lat="45.4303195" lon="7.7245365"><ele>553.5</ele><time>2026-04-25T13:17:39.281Z</time></trkpt><trkpt lat="45.4303621" lon="7.7244212"><ele>553.0</ele><time>2026-04-25T13:17:40.276Z</time></trkpt><trkpt lat="45.4303979" lon="7.7243145"><ele>552.5</ele><time>2026-04-25T13:17:41.275Z</time></trkpt><trkpt lat="45.4304359" lon="7.7242263"><ele>552.0</ele><time>2026-04-25T13:17:42.277Z</time></trkpt><trkpt lat="45.430474" lon="7.7241106"><ele>551.6</ele><time>2026-04-25T13:17:43.277Z</time></trkpt><trkpt lat="45.4304972" lon="7.7240012"><ele>551.2</ele><time>2026-04-25T13:17:44.271Z</time></trkpt><trkpt lat="45.4304914" lon="7.7238469"><ele>550.8</ele><time>2026-04-25T13:17:46.272Z</time></trkpt><trkpt lat="45.4304473" lon="7.7237458"><ele>550.4</ele><time>2026-04-25T13:17:47.277Z</time></trkpt><trkpt lat="45.4303859" lon="7.7236153"><ele>550.0</ele><time>2026-04-25T13:17:48.286Z</time></trkpt><trkpt lat="45.4303328" lon="7.7235017"><ele>549.3333333333334</ele><time>2026-04-25T13:17:49.279Z</time></trkpt><trkpt lat="45.4302864" lon="7.7234073"><ele>548.6666666666667</ele><time>2026-04-25T13:17:50.286Z</time></trkpt><trkpt lat="45.4302531" lon="7.7233237"><ele>548.0</ele><time>2026-04-25T13:17:51.285Z</time></trkpt><trkpt lat="45.4302334" lon="7.7231698"><ele>547.3333333333334</ele><time>2026-04-25T13:17:53.292Z</time></trkpt><trkpt lat="45.4302681" lon="7.723069"><ele>546.6666666666666</ele><time>2026-04-25T13:17:54.281Z</time></trkpt><trkpt lat="45.4302951" lon="7.7229756"><ele>546.0</ele><time>2026-04-25T13:17:55.284Z</time></trkpt><trkpt lat="45.4303156" lon="7.7228646"><ele>546.0</ele><time>2026-04-25T13:17:56.278Z</time></trkpt><trkpt lat="45.4303231" lon="7.7227583"><ele>546.0</ele><time>2026-04-25T13:17:57.279Z</time></trkpt><trkpt lat="45.4303225" lon="7.722666"><ele>546.0</ele><time>2026-04-25T13:17:58.291Z</time></trkpt><trkpt lat="45.4303232" lon="7.7225653"><ele>546.0</ele><time>2026-04-25T13:17:59.287Z</time></trkpt><trkpt lat="45.4303638" lon="7.7224731"><ele>546.0</ele><time>2026-04-25T13:18:00.28Z</time></trkpt><trkpt lat="45.430394" lon="7.7223702"><ele>546.0</ele><time>2026-04-25T13:18:01.288Z</time></trkpt><trkpt lat="45.4304432" lon="7.7222714"><ele>547.8</ele><time>2026-04-25T13:18:02.29Z</time></trkpt><trkpt lat="45.4304866" lon="7.7221525"><ele>549.6</ele><time>2026-04-25T13:18:03.291Z</time></trkpt><trkpt lat="45.4305456" lon="7.7220367"><ele>551.4</ele><time>2026-04-25T13:18:04.282Z</time></trkpt><trkpt lat="45.4305947" lon="7.7219337"><ele>553.2</ele><time>2026-04-25T13:18:05.29Z</time></trkpt><trkpt lat="45.4306222" lon="7.7217852"><ele>555.0</ele><time>2026-04-25T13:18:07.285Z</time></trkpt><trkpt lat="45.4305552" lon="7.7217288"><ele>555.0</ele><time>2026-04-25T13:18:09.271Z</time></trkpt><trkpt lat="45.4304883" lon="7.7217451"><ele>555.0</ele><time>2026-04-25T13:18:10.271Z</time></trkpt><trkpt lat="45.4303963" lon="7.7217697"><ele>555.0</ele><time>2026-04-25T13:18:11.272Z</time></trkpt><trkpt lat="45.4302992" lon="7.7217976"><ele>555.0</ele><time>2026-04-25T13:18:12.269Z</time></trkpt><trkpt lat="45.4301934" lon="7.7218188"><ele>555.0</ele><time>2026-04-25T13:18:13.276Z</time></trkpt><trkpt lat="45.4300918" lon="7.7218222"><ele>553.8</ele><time>2026-04-25T13:18:14.269Z</time></trkpt><trkpt lat="45.4299913" lon="7.7217948"><ele>552.6</ele><time>2026-04-25T13:18:15.264Z</time></trkpt><trkpt lat="45.4298899" lon="7.7217446"><ele>551.4</ele><time>2026-04-25T13:18:16.27Z</time></trkpt><trkpt lat="45.4297978" lon="7.7216725"><ele>550.2</ele><time>2026-04-25T13:18:17.27Z</time></trkpt><trkpt lat="45.4297057" lon="7.7216068"><ele>549.0</ele><time>2026-04-25T13:18:18.272Z</time></trkpt><trkpt lat="45.4296054" lon="7.7215756"><ele>549.0</ele><time>2026-04-25T13:18:19.264Z</time></trkpt><trkpt lat="45.4295085" lon="7.7215508"><ele>549.0</ele><time>2026-04-25T13:18:20.268Z</time></trkpt><trkpt lat="45.4294205" lon="7.7215179"><ele>549.0</ele><time>2026-04-25T13:18:21.27Z</time></trkpt><trkpt lat="45.429319" lon="7.7214864"><ele>549.0</ele><time>2026-04-25T13:18:22.264Z</time></trkpt><trkpt lat="45.4292384" lon="7.7214688"><ele>549.0</ele><time>2026-04-25T13:18:23.261Z</time></trkpt><trkpt lat="45.4291697" lon="7.7214568"><ele>549.0</ele><time>2026-04-25T13:18:24.276Z</time></trkpt><trkpt lat="45.4290683" lon="7.7213607"><ele>549.0</ele><time>2026-04-25T13:18:26.258Z</time></trkpt><trkpt lat="45.4290182" lon="7.7212604"><ele>549.0</ele><time>2026-04-25T13:18:27.255Z</time></trkpt><trkpt lat="45.4289687" lon="7.7211299"><ele>549.0</ele><time>2026-04-25T13:18:28.244Z</time></trkpt><trkpt lat="45.4289352" lon="7.721004"><ele>549.0</ele><time>2026-04-25T13:18:29.25Z</time></trkpt><trkpt lat="45.4288929" lon="7.7208953"><ele>549.0</ele><time>2026-04-25T13:18:30.253Z</time></trkpt><trkpt lat="45.4288443" lon="7.7207222"><ele>549.0</ele><time>2026-04-25T13:18:32.266Z</time></trkpt><trkpt lat="45.4288063" lon="7.7206181"><ele>549.0</ele><time>2026-04-25T13:18:33.261Z</time></trkpt><trkpt lat="45.428748" lon="7.7205205"><ele>549.0</ele><time>2026-04-25T13:18:34.262Z</time></trkpt><trkpt lat="45.4286993" lon="7.7204234"><ele>549.0</ele><time>2026-04-25T13:18:35.272Z</time></trkpt><trkpt lat="45.4286853" lon="7.7203266"><ele>549.0</ele><time>2026-04-25T13:18:36.273Z</time></trkpt><trkpt lat="45.4286826" lon="7.7202349"><ele>549.0</ele><time>2026-04-25T13:18:37.283Z</time></trkpt><trkpt lat="45.4286831" lon="7.720101"><ele>549.6666666666666</ele><time>2026-04-25T13:18:39.275Z</time></trkpt><trkpt lat="45.4287749" lon="7.7200239"><ele>550.3333333333334</ele><time>2026-04-25T13:18:43.274Z</time></trkpt><trkpt lat="45.4288863" lon="7.7199855"><ele>551.0</ele><time>2026-04-25T13:18:45.265Z</time></trkpt><trkpt lat="45.4289612" lon="7.7199741"><ele>551.6666666666667</ele><time>2026-04-25T13:18:46.26Z</time></trkpt><trkpt lat="45.429038" lon="7.7199734"><ele>552.3333333333334</ele><time>2026-04-25T13:18:47.261Z</time></trkpt><trkpt lat="45.4291075" lon="7.7199717"><ele>553.0</ele><time>2026-04-25T13:18:48.258Z</time></trkpt><trkpt lat="45.4291892" lon="7.7200265"><ele>554.1999999999999</ele><time>2026-04-25T13:18:49.267Z</time></trkpt><trkpt lat="45.4292841" lon="7.7201472"><ele>555.4</ele><time>2026-04-25T13:18:50.263Z</time></trkpt><trkpt lat="45.4293526" lon="7.7202592"><ele>556.5999999999999</ele><time>2026-04-25T13:18:51.262Z</time></trkpt><trkpt lat="45.4294051" lon="7.7203567"><ele>557.8</ele><time>2026-04-25T13:18:52.265Z</time></trkpt><trkpt lat="45.4294654" lon="7.720442"><ele>559.0</ele><time>2026-04-25T13:18:53.254Z</time></trkpt><trkpt lat="45.4295283" lon="7.7205075"><ele>559.0</ele><time>2026-04-25T13:18:54.253Z</time></trkpt><trkpt lat="45.4296199" lon="7.720576"><ele>559.0</ele><time>2026-04-25T13:18:56.259Z</time></trkpt><trkpt lat="45.429671" lon="7.7207148"><ele>559.0</ele><time>2026-04-25T13:18:58.26Z</time></trkpt><trkpt lat="45.4297321" lon="7.7207959"><ele>559.0</ele><time>2026-04-25T13:19:00.266Z</time></trkpt><trkpt lat="45.4298301" lon="7.7207766"><ele>559.0</ele><time>2026-04-25T13:19:02.259Z</time></trkpt><trkpt lat="45.4299059" lon="7.7207066"><ele>560.5</ele><time>2026-04-25T13:19:03.272Z</time></trkpt><trkpt lat="45.4300016" lon="7.7206141"><ele>562.0</ele><time>2026-04-25T13:19:04.267Z</time></trkpt><trkpt lat="45.4301092" lon="7.7205599"><ele>563.5</ele><time>2026-04-25T13:19:05.274Z</time></trkpt><trkpt lat="45.4302439" lon="7.7205235"><ele>565.0</ele><time>2026-04-25T13:19:06.269Z</time></trkpt><trkpt lat="45.4303952" lon="7.7204838"><ele>566.5</ele><time>2026-04-25T13:19:07.27Z</time></trkpt><trkpt lat="45.4305346" lon="7.7204585"><ele>568.0</ele><time>2026-04-25T13:19:08.265Z</time></trkpt><trkpt lat="45.4306538" lon="7.7204202"><ele>569.5</ele><time>2026-04-25T13:19:09.258Z</time></trkpt><trkpt lat="45.4307575" lon="7.7203957"><ele>571.0</ele><time>2026-04-25T13:19:10.263Z</time></trkpt><trkpt lat="45.4308608" lon="7.7203783"><ele>571.0</ele><time>2026-04-25T13:19:11.262Z</time></trkpt><trkpt lat="45.4309631" lon="7.7203704"><ele>571.0</ele><time>2026-04-25T13:19:12.258Z</time></trkpt><trkpt lat="45.4310557" lon="7.7203596"><ele>571.0</ele><time>2026-04-25T13:19:13.263Z</time></trkpt><trkpt lat="45.4311517" lon="7.7203499"><ele>571.0</ele><time>2026-04-25T13:19:14.264Z</time></trkpt><trkpt lat="45.4312454" lon="7.7203845"><ele>571.0</ele><time>2026-04-25T13:19:15.266Z</time></trkpt><trkpt lat="45.431335" lon="7.7203977"><ele>573.8</ele><time>2026-04-25T13:19:16.263Z</time></trkpt><trkpt lat="45.431402" lon="7.7204213"><ele>576.6</ele><time>2026-04-25T13:19:17.264Z</time></trkpt><trkpt lat="45.4315196" lon="7.7203563"><ele>579.4</ele><time>2026-04-25T13:19:19.261Z</time></trkpt><trkpt lat="45.4315893" lon="7.7202674"><ele>582.2</ele><time>2026-04-25T13:19:20.269Z</time></trkpt><trkpt lat="45.4316656" lon="7.7201514"><ele>585.0</ele><time>2026-04-25T13:19:21.277Z</time></trkpt><trkpt lat="45.4317446" lon="7.7200276"><ele>587.2</ele><time>2026-04-25T13:19:22.283Z</time></trkpt><trkpt lat="45.4318139" lon="7.7198961"><ele>589.4</ele><time>2026-04-25T13:19:23.282Z</time></trkpt><trkpt lat="45.4318708" lon="7.7197819"><ele>591.6</ele><time>2026-04-25T13:19:24.285Z</time></trkpt><trkpt lat="45.4319201" lon="7.7196661"><ele>593.8</ele><time>2026-04-25T13:19:25.276Z</time></trkpt><trkpt lat="45.4319818" lon="7.7195701"><ele>596.0</ele><time>2026-04-25T13:19:26.277Z</time></trkpt><trkpt lat="45.4320419" lon="7.7195045"><ele>596.0</ele><time>2026-04-25T13:19:27.276Z</time></trkpt><trkpt lat="45.4321097" lon="7.71944"><ele>596.0</ele><time>2026-04-25T13:19:28.272Z</time></trkpt><trkpt lat="45.4321831" lon="7.7193628"><ele>596.0</ele><time>2026-04-25T13:19:29.281Z</time></trkpt><trkpt lat="45.4322539" lon="7.7192822"><ele>596.0</ele><time>2026-04-25T13:19:30.277Z</time></trkpt><trkpt lat="45.4323382" lon="7.7192365"><ele>596.0</ele><time>2026-04-25T13:19:31.285Z</time></trkpt><trkpt lat="45.4324163" lon="7.7192153"><ele>596.0</ele><time>2026-04-25T13:19:32.281Z</time></trkpt><trkpt lat="45.4324937" lon="7.7191979"><ele>596.6666666666666</ele><time>2026-04-25T13:19:33.284Z</time></trkpt><trkpt lat="45.4325772" lon="7.7191937"><ele>597.3333333333333</ele><time>2026-04-25T13:19:34.271Z</time></trkpt><trkpt lat="45.4326528" lon="7.7191884"><ele>598.0</ele><time>2026-04-25T13:19:35.262Z</time></trkpt><trkpt lat="45.4327165" lon="7.7192368"><ele>598.6666666666666</ele><time>2026-04-25T13:19:36.279Z</time></trkpt><trkpt lat="45.4327759" lon="7.719327"><ele>599.3333333333334</ele><time>2026-04-25T13:19:37.272Z</time></trkpt><trkpt lat="45.4328226" lon="7.719485"><ele>600.0</ele><time>2026-04-25T13:19:38.26Z</time></trkpt><trkpt lat="45.4328623" lon="7.7196299"><ele>602.0</ele><time>2026-04-25T13:19:39.265Z</time></trkpt><trkpt lat="45.432926" lon="7.7197551"><ele>604.0</ele><time>2026-04-25T13:19:40.261Z</time></trkpt><trkpt lat="45.4329721" lon="7.7198364"><ele>606.0</ele><time>2026-04-25T13:19:41.266Z</time></trkpt><trkpt lat="45.4331022" lon="7.7198672"><ele>608.0</ele><time>2026-04-25T13:19:43.255Z</time></trkpt><trkpt lat="45.4332007" lon="7.7198494"><ele>610.0</ele><time>2026-04-25T13:19:44.257Z</time></trkpt><trkpt lat="45.4332931" lon="7.7198366"><ele>610.2</ele><time>2026-04-25T13:19:45.265Z</time></trkpt><trkpt lat="45.4334028" lon="7.7198505"><ele>610.4</ele><time>2026-04-25T13:19:46.267Z</time></trkpt><trkpt lat="45.4334934" lon="7.7198781"><ele>610.6</ele><time>2026-04-25T13:19:47.259Z</time></trkpt><trkpt lat="45.4336122" lon="7.7199224"><ele>610.8</ele><time>2026-04-25T13:19:48.269Z</time></trkpt><trkpt lat="45.4336886" lon="7.7200277"><ele>611.0</ele><time>2026-04-25T13:19:49.268Z</time></trkpt><trkpt lat="45.433741" lon="7.7201332"><ele>614.8</ele><time>2026-04-25T13:19:50.258Z</time></trkpt><trkpt lat="45.43377" lon="7.7202436"><ele>618.6</ele><time>2026-04-25T13:19:51.266Z</time></trkpt><trkpt lat="45.4337719" lon="7.7203738"><ele>622.4</ele><time>2026-04-25T13:19:52.262Z</time></trkpt><trkpt lat="45.4337513" lon="7.7205299"><ele>626.2</ele><time>2026-04-25T13:19:53.267Z</time></trkpt><trkpt lat="45.4337327" lon="7.7206761"><ele>630.0</ele><time>2026-04-25T13:19:54.276Z</time></trkpt><trkpt lat="45.4337099" lon="7.7208089"><ele>630.0</ele><time>2026-04-25T13:19:55.272Z</time></trkpt><trkpt lat="45.4337029" lon="7.7209516"><ele>630.0</ele><time>2026-04-25T13:19:56.269Z</time></trkpt><trkpt lat="45.4337024" lon="7.7210596"><ele>630.0</ele><time>2026-04-25T13:19:57.272Z</time></trkpt><trkpt lat="45.4337499" lon="7.7211337"><ele>630.0</ele><time>2026-04-25T13:19:58.268Z</time></trkpt><trkpt lat="45.433817" lon="7.721243"><ele>630.0</ele><time>2026-04-25T13:19:59.272Z</time></trkpt><trkpt lat="45.433899" lon="7.7213492"><ele>631.25</ele><time>2026-04-25T13:20:00.272Z</time></trkpt><trkpt lat="45.4339804" lon="7.7214787"><ele>632.5</ele><time>2026-04-25T13:20:01.276Z</time></trkpt><trkpt lat="45.4340665" lon="7.721591"><ele>633.75</ele><time>2026-04-25T13:20:02.269Z</time></trkpt><trkpt lat="45.4342022" lon="7.721732"><ele>635.0</ele><time>2026-04-25T13:20:03.264Z</time></trkpt><trkpt lat="45.4343198" lon="7.7218232"><ele>636.75</ele><time>2026-04-25T13:20:04.265Z</time></trkpt><trkpt lat="45.4344365" lon="7.7219048"><ele>638.5</ele><time>2026-04-25T13:20:05.258Z</time></trkpt><trkpt lat="45.4345559" lon="7.7219675"><ele>640.25</ele><time>2026-04-25T13:20:06.262Z</time></trkpt><trkpt lat="45.4346583" lon="7.7220308"><ele>642.0</ele><time>2026-04-25T13:20:07.263Z</time></trkpt><trkpt lat="45.4347491" lon="7.7220942"><ele>642.0</ele><time>2026-04-25T13:20:08.265Z</time></trkpt><trkpt lat="45.434825" lon="7.7221567"><ele>642.0</ele><time>2026-04-25T13:20:09.27Z</time></trkpt><trkpt lat="45.4348882" lon="7.7222361"><ele>642.0</ele><time>2026-04-25T13:20:10.266Z</time></trkpt><trkpt lat="45.4349415" lon="7.7223097"><ele>642.0</ele><time>2026-04-25T13:20:11.275Z</time></trkpt><trkpt lat="45.4349888" lon="7.7224186"><ele>642.0</ele><time>2026-04-25T13:20:12.272Z</time></trkpt><trkpt lat="45.4350407" lon="7.7225327"><ele>642.0</ele><time>2026-04-25T13:20:13.27Z</time></trkpt><trkpt lat="45.4350927" lon="7.7226314"><ele>642.0</ele><time>2026-04-25T13:20:14.278Z</time></trkpt><trkpt lat="45.4351405" lon="7.7227012"><ele>642.0</ele><time>2026-04-25T13:20:15.267Z</time></trkpt><trkpt lat="45.4352" lon="7.7227562"><ele>642.0</ele><time>2026-04-25T13:20:16.272Z</time></trkpt><trkpt lat="45.4352716" lon="7.7227813"><ele>642.0</ele><time>2026-04-25T13:20:17.279Z</time></trkpt><trkpt lat="45.4353597" lon="7.7227672"><ele>642.0</ele><time>2026-04-25T13:20:18.264Z</time></trkpt><trkpt lat="45.4354559" lon="7.7227821"><ele>642.0</ele><time>2026-04-25T13:20:19.26Z</time></trkpt><trkpt lat="45.4355497" lon="7.7228045"><ele>643.2</ele><time>2026-04-25T13:20:20.26Z</time></trkpt><trkpt lat="45.4356189" lon="7.7228789"><ele>644.4000000000001</ele><time>2026-04-25T13:20:21.268Z</time></trkpt><trkpt lat="45.435681" lon="7.7230069"><ele>645.5999999999999</ele><time>2026-04-25T13:20:22.258Z</time></trkpt><trkpt lat="45.4357364" lon="7.7231355"><ele>646.8</ele><time>2026-04-25T13:20:23.259Z</time></trkpt><trkpt lat="45.4357906" lon="7.7231831"><ele>648.0</ele><time>2026-04-25T13:20:24.26Z</time></trkpt><trkpt lat="45.4358201" lon="7.7233205"><ele>648.0</ele><time>2026-04-25T13:20:26.268Z</time></trkpt><trkpt lat="45.4358716" lon="7.7233854"><ele>648.0</ele><time>2026-04-25T13:25:45.277Z</time></trkpt><trkpt lat="45.4359673" lon="7.7234066"><ele>648.0</ele><time>2026-04-25T13:26:22.275Z</time></trkpt><trkpt lat="45.4360906" lon="7.7233275"><ele>648.0</ele><time>2026-04-25T13:26:24.255Z</time></trkpt><trkpt lat="45.4361663" lon="7.723274"><ele>648.0</ele><time>2026-04-25T13:26:25.255Z</time></trkpt><trkpt lat="45.4362452" lon="7.723244"><ele>649.0</ele><time>2026-04-25T13:26:26.255Z</time></trkpt><trkpt lat="45.4363283" lon="7.7232317"><ele>650.0</ele><time>2026-04-25T13:26:27.257Z</time></trkpt><trkpt lat="45.4364258" lon="7.7232293"><ele>651.0</ele><time>2026-04-25T13:26:28.255Z</time></trkpt><trkpt lat="45.4365244" lon="7.7232515"><ele>652.0</ele><time>2026-04-25T13:26:29.263Z</time></trkpt><trkpt lat="45.4366118" lon="7.7232514"><ele>653.0</ele><time>2026-04-25T13:26:30.249Z</time></trkpt><trkpt lat="45.4367036" lon="7.7232758"><ele>653.0</ele><time>2026-04-25T13:26:31.255Z</time></trkpt><trkpt lat="45.4367733" lon="7.723272"><ele>653.0</ele><time>2026-04-25T13:26:32.252Z</time></trkpt><trkpt lat="45.4368358" lon="7.7232594"><ele>653.0</ele><time>2026-04-25T13:26:34.249Z</time></trkpt><trkpt lat="45.4368826" lon="7.7231789"><ele>653.0</ele><time>2026-04-25T13:26:36.253Z</time></trkpt><trkpt lat="45.4369681" lon="7.7231341"><ele>653.0</ele><time>2026-04-25T13:26:38.251Z</time></trkpt><trkpt lat="45.4370393" lon="7.7230542"><ele>653.0</ele><time>2026-04-25T13:26:40.248Z</time></trkpt><trkpt lat="45.4371331" lon="7.7229627"><ele>651.3333333333333</ele><time>2026-04-25T13:26:42.244Z</time></trkpt><trkpt lat="45.4372342" lon="7.722913"><ele>649.6666666666666</ele><time>2026-04-25T13:26:44.257Z</time></trkpt><trkpt lat="45.4373062" lon="7.7229103"><ele>648.0</ele><time>2026-04-25T13:26:46.25Z</time></trkpt><trkpt lat="45.4359673" lon="7.7234066"><ele>648.0</ele><time>2026-04-25T13:26:22.275Z</time></trkpt><trkpt lat="45.4360906" lon="7.7233275"><ele>648.0</ele><time>2026-04-25T13:26:24.255Z</time></trkpt><trkpt lat="45.4361663" lon="7.723274"><ele>648.0</ele><time>2026-04-25T13:26:25.255Z</time></trkpt><trkpt lat="45.4362452" lon="7.723244"><ele>648.0</ele><time>2026-04-25T13:26:26.255Z</time></trkpt><trkpt lat="45.4363283" lon="7.7232317"><ele>648.0</ele><time>2026-04-25T13:26:27.257Z</time></trkpt><trkpt lat="45.4364258" lon="7.7232293"><ele>648.8333333333334</ele><time>2026-04-25T13:26:28.255Z</time></trkpt><trkpt lat="45.4365244" lon="7.7232515"><ele>649.6666666666666</ele><time>2026-04-25T13:26:29.263Z</time></trkpt><trkpt lat="45.4366118" lon="7.7232514"><ele>650.5</ele><time>2026-04-25T13:26:30.249Z</time></trkpt><trkpt lat="45.4367036" lon="7.7232758"><ele>651.3333333333333</ele><time>2026-04-25T13:26:31.255Z</time></trkpt><trkpt lat="45.4367733" lon="7.723272"><ele>652.1666666666666</ele><time>2026-04-25T13:26:32.252Z</time></trkpt><trkpt lat="45.4368358" lon="7.7232594"><ele>653.0</ele><time>2026-04-25T13:26:34.249Z</time></trkpt><trkpt lat="45.4368826" lon="7.7231789"><ele>653.0</ele><time>2026-04-25T13:26:36.253Z</time></trkpt><trkpt lat="45.4369681" lon="7.7231341"><ele>653.0</ele><time>2026-04-25T13:26:38.251Z</time></trkpt><trkpt lat="45.4370393" lon="7.7230542"><ele>653.0</ele><time>2026-04-25T13:26:40.248Z</time></trkpt><trkpt lat="45.4371331" lon="7.7229627"><ele>653.0</ele><time>2026-04-25T13:26:42.244Z</time></trkpt><trkpt lat="45.4372342" lon="7.722913"><ele>653.0</ele><time>2026-04-25T13:26:44.257Z</time></trkpt><trkpt lat="45.4373062" lon="7.7229103"><ele>655.5</ele><time>2026-04-25T13:26:46.25Z</time></trkpt><trkpt lat="45.4374197" lon="7.7230115"><ele>658.0</ele><time>2026-04-25T13:26:48.249Z</time></trkpt><trkpt lat="45.4375288" lon="7.7230597"><ele>660.5</ele><time>2026-04-25T13:26:50.258Z</time></trkpt><trkpt lat="45.4375971" lon="7.7231786"><ele>663.0</ele><time>2026-04-25T13:26:51.256Z</time></trkpt><trkpt lat="45.4376698" lon="7.7232974"><ele>663.0</ele><time>2026-04-25T13:26:52.253Z</time></trkpt><trkpt lat="45.4377515" lon="7.7233913"><ele>663.0</ele><time>2026-04-25T13:26:53.249Z</time></trkpt><trkpt lat="45.4378407" lon="7.7234539"><ele>663.0</ele><time>2026-04-25T13:26:54.252Z</time></trkpt><trkpt lat="45.4379405" lon="7.7234926"><ele>663.0</ele><time>2026-04-25T13:26:55.251Z</time></trkpt><trkpt lat="45.4380182" lon="7.7234963"><ele>663.0</ele><time>2026-04-25T13:26:56.253Z</time></trkpt><trkpt lat="45.4380978" lon="7.7234412"><ele>665.8333333333334</ele><time>2026-04-25T13:26:57.25Z</time></trkpt><trkpt lat="45.4381636" lon="7.7233775"><ele>668.6666666666666</ele><time>2026-04-25T13:26:58.254Z</time></trkpt><trkpt lat="45.4382732" lon="7.7233419"><ele>671.5</ele><time>2026-04-25T13:27:00.264Z</time></trkpt><trkpt lat="45.4383532" lon="7.7233456"><ele>674.3333333333333</ele><time>2026-04-25T13:27:01.263Z</time></trkpt><trkpt lat="45.438443" lon="7.7233902"><ele>677.1666666666666</ele><time>2026-04-25T13:27:02.256Z</time></trkpt><trkpt lat="45.438519" lon="7.7234064"><ele>680.0</ele><time>2026-04-25T13:27:03.26Z</time></trkpt><trkpt lat="45.4385778" lon="7.7234523"><ele>680.0</ele><time>2026-04-25T13:27:04.261Z</time></trkpt><trkpt lat="45.4386266" lon="7.7235581"><ele>680.0</ele><time>2026-04-25T13:27:05.248Z</time></trkpt><trkpt lat="45.4387057" lon="7.7237501"><ele>680.0</ele><time>2026-04-25T13:27:07.252Z</time></trkpt><trkpt lat="45.438703" lon="7.7238862"><ele>680.0</ele><time>2026-04-25T13:27:08.251Z</time></trkpt><trkpt lat="45.4386924" lon="7.7241287"><ele>678.5</ele><time>2026-04-25T13:27:09.262Z</time></trkpt><trkpt lat="45.4386872" lon="7.724297"><ele>677.0</ele><time>2026-04-25T13:27:10.26Z</time></trkpt><trkpt lat="45.4386847" lon="7.7244372"><ele>675.5</ele><time>2026-04-25T13:27:11.264Z</time></trkpt><trkpt lat="45.4386745" lon="7.7245288"><ele>674.0</ele><time>2026-04-25T13:27:12.263Z</time></trkpt><trkpt lat="45.4387447" lon="7.7245997"><ele>672.5</ele><time>2026-04-25T13:27:14.258Z</time></trkpt><trkpt lat="45.4388088" lon="7.7246172"><ele>671.0</ele><time>2026-04-25T13:27:15.264Z</time></trkpt><trkpt lat="45.4388885" lon="7.7246509"><ele>671.0</ele><time>2026-04-25T13:27:16.257Z</time></trkpt><trkpt lat="45.4389584" lon="7.724683"><ele>671.0</ele><time>2026-04-25T13:27:17.263Z</time></trkpt><trkpt lat="45.43903" lon="7.7246625"><ele>671.0</ele><time>2026-04-25T13:27:18.263Z</time></trkpt><trkpt lat="45.4391041" lon="7.7246313"><ele>671.0</ele><time>2026-04-25T13:27:19.255Z</time></trkpt><trkpt lat="45.439179" lon="7.7245876"><ele>671.0</ele><time>2026-04-25T13:27:20.257Z</time></trkpt><trkpt lat="45.4392691" lon="7.7245357"><ele>671.0</ele><time>2026-04-25T13:27:21.258Z</time></trkpt><trkpt lat="45.4393711" lon="7.7244771"><ele>671.0</ele><time>2026-04-25T13:27:22.256Z</time></trkpt><trkpt lat="45.4394732" lon="7.7244425"><ele>671.0</ele><time>2026-04-25T13:27:23.26Z</time></trkpt><trkpt lat="45.4395521" lon="7.7244472"><ele>671.0</ele><time>2026-04-25T13:27:24.246Z</time></trkpt><trkpt lat="45.4396221" lon="7.724467"><ele>671.0</ele><time>2026-04-25T13:27:25.246Z</time></trkpt><trkpt lat="45.4396928" lon="7.7244731"><ele>671.0</ele><time>2026-04-25T13:27:26.256Z</time></trkpt><trkpt lat="45.4396069" lon="7.7243307"><ele>674.8</ele><time>2026-04-25T13:27:32.249Z</time></trkpt><trkpt lat="45.4395281" lon="7.7243226"><ele>678.5999999999999</ele><time>2026-04-25T13:27:33.25Z</time></trkpt><trkpt lat="45.4394409" lon="7.7243292"><ele>682.4</ele><time>2026-04-25T13:27:34.249Z</time></trkpt><trkpt lat="45.4393351" lon="7.7243178"><ele>686.2</ele><time>2026-04-25T13:27:35.248Z</time></trkpt><trkpt lat="45.4392218" lon="7.7242979"><ele>690.0</ele><time>2026-04-25T13:27:36.246Z</time></trkpt><trkpt lat="45.4391229" lon="7.724281"><ele>690.0</ele><time>2026-04-25T13:27:37.249Z</time></trkpt><trkpt lat="45.4390247" lon="7.7242302"><ele>690.0</ele><time>2026-04-25T13:27:38.25Z</time></trkpt><trkpt lat="45.4389268" lon="7.724182"><ele>690.0</ele><time>2026-04-25T13:27:39.256Z</time></trkpt><trkpt lat="45.4388762" lon="7.7241012"><ele>690.0</ele><time>2026-04-25T13:27:40.248Z</time></trkpt><trkpt lat="45.4388489" lon="7.7240032"><ele>690.0</ele><time>2026-04-25T13:27:41.251Z</time></trkpt><trkpt lat="45.438865" lon="7.7238771"><ele>690.0</ele><time>2026-04-25T13:27:42.24Z</time></trkpt><trkpt lat="45.4389022" lon="7.7237178"><ele>692.4</ele><time>2026-04-25T13:27:43.261Z</time></trkpt><trkpt lat="45.4389354" lon="7.7235624"><ele>694.8</ele><time>2026-04-25T13:27:44.254Z</time></trkpt><trkpt lat="45.438971" lon="7.7234037"><ele>697.2</ele><time>2026-04-25T13:27:45.263Z</time></trkpt><trkpt lat="45.4389824" lon="7.7232763"><ele>699.6</ele><time>2026-04-25T13:27:46.265Z</time></trkpt><trkpt lat="45.4389772" lon="7.7231332"><ele>702.0</ele><time>2026-04-25T13:27:47.262Z</time></trkpt><trkpt lat="45.4389611" lon="7.7229885"><ele>702.0</ele><time>2026-04-25T13:27:48.271Z</time></trkpt><trkpt lat="45.4389631" lon="7.7228729"><ele>702.0</ele><time>2026-04-25T13:27:49.276Z</time></trkpt><trkpt lat="45.4389647" lon="7.7227646"><ele>702.0</ele><time>2026-04-25T13:27:50.272Z</time></trkpt><trkpt lat="45.4389501" lon="7.7226655"><ele>702.0</ele><time>2026-04-25T13:27:51.27Z</time></trkpt><trkpt lat="45.4390066" lon="7.7225629"><ele>702.0</ele><time>2026-04-25T13:27:53.27Z</time></trkpt><trkpt lat="45.4391165" lon="7.7225263"><ele>702.0</ele><time>2026-04-25T13:27:55.267Z</time></trkpt><trkpt lat="45.4391928" lon="7.722599"><ele>702.0</ele><time>2026-04-25T13:27:57.264Z</time></trkpt><trkpt lat="45.4391859" lon="7.7227679"><ele>702.0</ele><time>2026-04-25T13:27:59.277Z</time></trkpt><trkpt lat="45.4392042" lon="7.722871"><ele>702.0</ele><time>2026-04-25T13:28:00.267Z</time></trkpt><trkpt lat="45.4392299" lon="7.7229753"><ele>702.0</ele><time>2026-04-25T13:28:01.275Z</time></trkpt><trkpt lat="45.4392707" lon="7.7230678"><ele>702.0</ele><time>2026-04-25T13:28:02.271Z</time></trkpt><trkpt lat="45.4393037" lon="7.7231882"><ele>702.0</ele><time>2026-04-25T13:28:03.277Z</time></trkpt><trkpt lat="45.439325" lon="7.723292"><ele>702.0</ele><time>2026-04-25T13:28:04.28Z</time></trkpt><trkpt lat="45.4393449" lon="7.7233852"><ele>702.0</ele><time>2026-04-25T13:28:05.275Z</time></trkpt><trkpt lat="45.4393814" lon="7.723467"><ele>702.0</ele><time>2026-04-25T13:28:06.274Z</time></trkpt><trkpt lat="45.4394778" lon="7.7235593"><ele>702.0</ele><time>2026-04-25T13:28:08.281Z</time></trkpt><trkpt lat="45.4395964" lon="7.7235413"><ele>702.0</ele><time>2026-04-25T13:28:10.271Z</time></trkpt><trkpt lat="45.4396586" lon="7.7235031"><ele>702.0</ele><time>2026-04-25T13:28:11.271Z</time></trkpt><trkpt lat="45.4397214" lon="7.7234408"><ele>703.8</ele><time>2026-04-25T13:28:12.272Z</time></trkpt><trkpt lat="45.4397837" lon="7.7233413"><ele>705.6</ele><time>2026-04-25T13:28:13.272Z</time></trkpt><trkpt lat="45.4398356" lon="7.7232416"><ele>707.4</ele><time>2026-04-25T13:28:14.259Z</time></trkpt><trkpt lat="45.4398925" lon="7.7231495"><ele>709.1999999999999</ele><time>2026-04-25T13:28:15.261Z</time></trkpt><trkpt lat="45.4399792" lon="7.723065"><ele>711.0</ele><time>2026-04-25T13:28:16.27Z</time></trkpt><trkpt lat="45.4400658" lon="7.7229826"><ele>711.0</ele><time>2026-04-25T13:28:17.279Z</time></trkpt><trkpt lat="45.440141" lon="7.7229025"><ele>711.0</ele><time>2026-04-25T13:28:18.269Z</time></trkpt><trkpt lat="45.440179" lon="7.72282"><ele>711.0</ele><time>2026-04-25T13:28:19.27Z</time></trkpt><trkpt lat="45.4402197" lon="7.7227348"><ele>711.0</ele><time>2026-04-25T13:28:20.268Z</time></trkpt><trkpt lat="45.4402704" lon="7.7226697"><ele>711.0</ele><time>2026-04-25T13:28:21.27Z</time></trkpt><trkpt lat="45.4403149" lon="7.7225911"><ele>711.0</ele><time>2026-04-25T13:28:22.272Z</time></trkpt><trkpt lat="45.4403537" lon="7.7224999"><ele>711.0</ele><time>2026-04-25T13:28:23.271Z</time></trkpt><trkpt lat="45.4403868" lon="7.7224169"><ele>712.4</ele><time>2026-04-25T13:28:24.261Z</time></trkpt><trkpt lat="45.4404152" lon="7.7223226"><ele>713.8</ele><time>2026-04-25T13:28:25.265Z</time></trkpt><trkpt lat="45.4404671" lon="7.7221853"><ele>715.1999999999999</ele><time>2026-04-25T13:28:27.268Z</time></trkpt><trkpt lat="45.44054" lon="7.7221166"><ele>716.5999999999999</ele><time>2026-04-25T13:28:29.264Z</time></trkpt><trkpt lat="45.4406296" lon="7.7221277"><ele>718.0</ele><time>2026-04-25T13:28:31.258Z</time></trkpt><trkpt lat="45.4406691" lon="7.7222635"><ele>721.0</ele><time>2026-04-25T13:28:33.258Z</time></trkpt><trkpt lat="45.4406499" lon="7.7223548"><ele>724.0</ele><time>2026-04-25T13:28:34.261Z</time></trkpt><trkpt lat="45.4406778" lon="7.7224689"><ele>727.0</ele><time>2026-04-25T13:28:36.264Z</time></trkpt><trkpt lat="45.4407668" lon="7.7225598"><ele>730.0</ele><time>2026-04-25T13:28:38.277Z</time></trkpt><trkpt lat="45.4408803" lon="7.722642"><ele>733.0</ele><time>2026-04-25T13:28:40.269Z</time></trkpt><trkpt lat="45.4409542" lon="7.7226894"><ele>733.0</ele><time>2026-04-25T13:28:41.268Z</time></trkpt><trkpt lat="45.4410179" lon="7.7227264"><ele>733.0</ele><time>2026-04-25T13:28:42.265Z</time></trkpt><trkpt lat="45.441134" lon="7.7227799"><ele>733.0</ele><time>2026-04-25T13:28:44.257Z</time></trkpt><trkpt lat="45.4411915" lon="7.7228326"><ele>733.0</ele><time>2026-04-25T13:28:45.258Z</time></trkpt><trkpt lat="45.441253" lon="7.7228815"><ele>733.0</ele><time>2026-04-25T13:28:46.26Z</time></trkpt><trkpt lat="45.4413755" lon="7.7229226"><ele>733.8333333333334</ele><time>2026-04-25T13:28:48.272Z</time></trkpt><trkpt lat="45.4414466" lon="7.7229294"><ele>734.6666666666667</ele><time>2026-04-25T13:28:49.267Z</time></trkpt><trkpt lat="45.4415246" lon="7.7228975"><ele>735.5</ele><time>2026-04-25T13:28:50.268Z</time></trkpt><trkpt lat="45.4416084" lon="7.7228487"><ele>736.3333333333334</ele><time>2026-04-25T13:28:51.263Z</time></trkpt><trkpt lat="45.4416894" lon="7.722836"><ele>737.1666666666666</ele><time>2026-04-25T13:28:52.264Z</time></trkpt><trkpt lat="45.4417634" lon="7.7227999"><ele>738.0</ele><time>2026-04-25T13:28:54.256Z</time></trkpt><trkpt lat="45.4417891" lon="7.7229189"><ele>738.0</ele><time>2026-04-25T13:28:57.245Z</time></trkpt><trkpt lat="45.4418544" lon="7.7230928"><ele>738.0</ele><time>2026-04-25T13:28:59.248Z</time></trkpt><trkpt lat="45.4418843" lon="7.7231795"><ele>738.0</ele><time>2026-04-25T13:29:00.247Z</time></trkpt><trkpt lat="45.4418906" lon="7.7232794"><ele>738.0</ele><time>2026-04-25T13:29:01.254Z</time></trkpt><trkpt lat="45.4418981" lon="7.723377"><ele>738.0</ele><time>2026-04-25T13:29:02.249Z</time></trkpt><trkpt lat="45.4419245" lon="7.7234692"><ele>738.0</ele><time>2026-04-25T13:29:03.255Z</time></trkpt><trkpt lat="45.4419896" lon="7.7235995"><ele>737.2</ele><time>2026-04-25T13:29:05.258Z</time></trkpt><trkpt lat="45.4420626" lon="7.7237131"><ele>736.4</ele><time>2026-04-25T13:29:07.259Z</time></trkpt><trkpt lat="45.4421015" lon="7.7238989"><ele>735.6</ele><time>2026-04-25T13:29:09.257Z</time></trkpt><trkpt lat="45.4421044" lon="7.7240122"><ele>734.8000000000001</ele><time>2026-04-25T13:29:10.254Z</time></trkpt><trkpt lat="45.4421055" lon="7.7241102"><ele>734.0</ele><time>2026-04-25T13:29:11.265Z</time></trkpt><trkpt lat="45.4421709" lon="7.7242069"><ele>735.0</ele><time>2026-04-25T13:29:14.268Z</time></trkpt><trkpt lat="45.4422443" lon="7.7242798"><ele>736.0</ele><time>2026-04-25T13:29:16.271Z</time></trkpt><trkpt lat="45.442326" lon="7.7243398"><ele>737.0</ele><time>2026-04-25T13:29:18.263Z</time></trkpt><trkpt lat="45.4424163" lon="7.7244017"><ele>738.0</ele><time>2026-04-25T13:29:20.265Z</time></trkpt><trkpt lat="45.4425255" lon="7.724436"><ele>739.0</ele><time>2026-04-25T13:29:22.262Z</time></trkpt><trkpt lat="45.4426029" lon="7.7244832"><ele>739.0</ele><time>2026-04-25T13:29:24.268Z</time></trkpt><trkpt lat="45.4426884" lon="7.7245083"><ele>739.0</ele><time>2026-04-25T13:29:26.263Z</time></trkpt><trkpt lat="45.4427816" lon="7.7245239"><ele>739.0</ele><time>2026-04-25T13:29:28.264Z</time></trkpt><trkpt lat="45.4428642" lon="7.7245383"><ele>739.0</ele><time>2026-04-25T13:29:30.265Z</time></trkpt><trkpt lat="45.4429671" lon="7.7245815"><ele>739.0</ele><time>2026-04-25T13:29:32.268Z</time></trkpt><trkpt lat="45.443039" lon="7.7246436"><ele>742.6666666666667</ele><time>2026-04-25T13:29:34.271Z</time></trkpt><trkpt lat="45.4431189" lon="7.7246922"><ele>746.3333333333334</ele><time>2026-04-25T13:29:36.261Z</time></trkpt><trkpt lat="45.443208" lon="7.7247651"><ele>750.0</ele><time>2026-04-25T13:29:38.257Z</time></trkpt><trkpt lat="45.4432584" lon="7.7248672"><ele>753.6666666666666</ele><time>2026-04-25T13:29:40.253Z</time></trkpt><trkpt lat="45.4433118" lon="7.72499"><ele>757.3333333333333</ele><time>2026-04-25T13:29:42.262Z</time></trkpt><trkpt lat="45.4433622" lon="7.7250543"><ele>761.0</ele><time>2026-04-25T13:29:43.261Z</time></trkpt><trkpt lat="45.443465" lon="7.7251409"><ele>761.0</ele><time>2026-04-25T13:29:45.268Z</time></trkpt><trkpt lat="45.4435358" lon="7.7251658"><ele>761.0</ele><time>2026-04-25T13:29:46.263Z</time></trkpt><trkpt lat="45.4436714" lon="7.7251761"><ele>761.0</ele><time>2026-04-25T13:29:48.263Z</time></trkpt><trkpt lat="45.4437509" lon="7.7251212"><ele>761.0</ele><time>2026-04-25T13:29:49.265Z</time></trkpt><trkpt lat="45.4438147" lon="7.7250466"><ele>761.0</ele><time>2026-04-25T13:29:50.269Z</time></trkpt><trkpt lat="45.443869" lon="7.7249804"><ele>761.1666666666666</ele><time>2026-04-25T13:29:51.252Z</time></trkpt><trkpt lat="45.4439129" lon="7.7248853"><ele>761.3333333333333</ele><time>2026-04-25T13:29:52.254Z</time></trkpt><trkpt lat="45.4439707" lon="7.7248029"><ele>761.5</ele><time>2026-04-25T13:29:53.255Z</time></trkpt><trkpt lat="45.4440426" lon="7.7247303"><ele>761.6666666666666</ele><time>2026-04-25T13:29:54.255Z</time></trkpt><trkpt lat="45.4440962" lon="7.7246611"><ele>761.8333333333334</ele><time>2026-04-25T13:29:55.263Z</time></trkpt><trkpt lat="45.4441569" lon="7.7246214"><ele>762.0</ele><time>2026-04-25T13:29:56.258Z</time></trkpt><trkpt lat="45.4442136" lon="7.7245643"><ele>762.0</ele><time>2026-04-25T13:29:57.258Z</time></trkpt><trkpt lat="45.4442697" lon="7.7244985"><ele>762.0</ele><time>2026-04-25T13:29:58.256Z</time></trkpt><trkpt lat="45.4443231" lon="7.724424"><ele>762.0</ele><time>2026-04-25T13:29:59.261Z</time></trkpt><trkpt lat="45.4443559" lon="7.7243299"><ele>762.0</ele><time>2026-04-25T13:30:00.262Z</time></trkpt><trkpt lat="45.4444089" lon="7.724235"><ele>762.0</ele><time>2026-04-25T13:30:01.267Z</time></trkpt><trkpt lat="45.4444679" lon="7.7241375"><ele>762.0</ele><time>2026-04-25T13:30:02.268Z</time></trkpt><trkpt lat="45.4445309" lon="7.7240411"><ele>763.3333333333334</ele><time>2026-04-25T13:30:03.261Z</time></trkpt><trkpt lat="45.4445825" lon="7.7239454"><ele>764.6666666666667</ele><time>2026-04-25T13:30:04.256Z</time></trkpt><trkpt lat="45.4446279" lon="7.7238653"><ele>766.0</ele><time>2026-04-25T13:30:05.264Z</time></trkpt><trkpt lat="45.444646" lon="7.7237681"><ele>767.3333333333334</ele><time>2026-04-25T13:30:06.262Z</time></trkpt><trkpt lat="45.4446534" lon="7.723676"><ele>768.6666666666667</ele><time>2026-04-25T13:30:07.261Z</time></trkpt><trkpt lat="45.444641" lon="7.7235044"><ele>770.0</ele><time>2026-04-25T13:30:09.264Z</time></trkpt><trkpt lat="45.4446568" lon="7.7233849"><ele>771.8333333333334</ele><time>2026-04-25T13:30:11.263Z</time></trkpt><trkpt lat="45.444733" lon="7.7232936"><ele>773.6666666666667</ele><time>2026-04-25T13:30:14.263Z</time></trkpt><trkpt lat="45.4447936" lon="7.7232614"><ele>775.5</ele><time>2026-04-25T13:30:15.264Z</time></trkpt><trkpt lat="45.4448582" lon="7.7232398"><ele>777.3333333333333</ele><time>2026-04-25T13:30:16.272Z</time></trkpt><trkpt lat="45.4449218" lon="7.7232254"><ele>779.1666666666666</ele><time>2026-04-25T13:30:17.271Z</time></trkpt><trkpt lat="45.4450111" lon="7.7231868"><ele>781.0</ele><time>2026-04-25T13:30:19.277Z</time></trkpt><trkpt lat="45.4450745" lon="7.723132"><ele>781.0</ele><time>2026-04-25T13:30:38.267Z</time></trkpt><trkpt lat="45.4451293" lon="7.7230768"><ele>781.0</ele><time>2026-04-25T13:30:40.274Z</time></trkpt><trkpt lat="45.4451398" lon="7.72283"><ele>781.0</ele><time>2026-04-25T13:30:42.274Z</time></trkpt><trkpt lat="45.4451364" lon="7.7226307"><ele>781.0</ele><time>2026-04-25T13:30:43.269Z</time></trkpt><trkpt lat="45.4451309" lon="7.7223982"><ele>784.3333333333333</ele><time>2026-04-25T13:30:44.272Z</time></trkpt><trkpt lat="45.4451101" lon="7.7221439"><ele>787.6666666666667</ele><time>2026-04-25T13:30:45.264Z</time></trkpt><trkpt lat="45.4450822" lon="7.7217908"><ele>791.0</ele><time>2026-04-25T13:30:46.263Z</time></trkpt><trkpt lat="45.4450892" lon="7.721506"><ele>793.3333333333334</ele><time>2026-04-25T13:30:47.253Z</time></trkpt><trkpt lat="45.4450865" lon="7.7212531"><ele>795.6666666666667</ele><time>2026-04-25T13:30:48.256Z</time></trkpt><trkpt lat="45.4451379" lon="7.7210545"><ele>798.0</ele><time>2026-04-25T13:30:49.252Z</time></trkpt><trkpt lat="45.4451985" lon="7.7208669"><ele>800.2</ele><time>2026-04-25T13:30:50.255Z</time></trkpt><trkpt lat="45.4452711" lon="7.7206835"><ele>802.4</ele><time>2026-04-25T13:30:51.259Z</time></trkpt><trkpt lat="45.4452854" lon="7.7205533"><ele>804.6</ele><time>2026-04-25T13:30:52.27Z</time></trkpt><trkpt lat="45.4453283" lon="7.7204509"><ele>806.8000000000001</ele><time>2026-04-25T13:30:53.26Z</time></trkpt><trkpt lat="45.4453633" lon="7.7203648"><ele>809.0</ele><time>2026-04-25T13:30:54.258Z</time></trkpt><trkpt lat="45.4453394" lon="7.7202592"><ele>809.0</ele><time>2026-04-25T13:30:56.264Z</time></trkpt><trkpt lat="45.4452681" lon="7.7202304"><ele>809.0</ele><time>2026-04-25T13:30:57.258Z</time></trkpt><trkpt lat="45.4451689" lon="7.7202178"><ele>809.0</ele><time>2026-04-25T13:30:58.262Z</time></trkpt><trkpt lat="45.4450678" lon="7.7202592"><ele>809.0</ele><time>2026-04-25T13:30:59.266Z</time></trkpt><trkpt lat="45.4449572" lon="7.7203618"><ele>809.0</ele><time>2026-04-25T13:31:00.265Z</time></trkpt><trkpt lat="45.4448264" lon="7.720533"><ele>809.0</ele><time>2026-04-25T13:31:01.26Z</time></trkpt><trkpt lat="45.4446939" lon="7.7207343"><ele>809.0</ele><time>2026-04-25T13:31:02.249Z</time></trkpt><trkpt lat="45.4445497" lon="7.7210187"><ele>809.0</ele><time>2026-04-25T13:31:03.25Z</time></trkpt><trkpt lat="45.4444052" lon="7.7212645"><ele>813.0</ele><time>2026-04-25T13:31:04.247Z</time></trkpt><trkpt lat="45.4442939" lon="7.721476"><ele>817.0</ele><time>2026-04-25T13:31:05.256Z</time></trkpt><trkpt lat="45.444179" lon="7.7216583"><ele>821.0</ele><time>2026-04-25T13:31:06.248Z</time></trkpt><trkpt lat="45.4440587" lon="7.7217819"><ele>821.0</ele><time>2026-04-25T13:31:07.254Z</time></trkpt><trkpt lat="45.4439198" lon="7.7217849"><ele>821.0</ele><time>2026-04-25T13:31:08.253Z</time></trkpt><trkpt lat="45.4437978" lon="7.7217138"><ele>821.0</ele><time>2026-04-25T13:31:09.248Z</time></trkpt><trkpt lat="45.4437047" lon="7.7216454"><ele>821.0</ele><time>2026-04-25T13:31:10.254Z</time></trkpt><trkpt lat="45.4436775" lon="7.7215263"><ele>820.5</ele><time>2026-04-25T13:31:11.251Z</time></trkpt><trkpt lat="45.4436559" lon="7.7213533"><ele>820.0</ele><time>2026-04-25T13:31:12.263Z</time></trkpt><trkpt lat="45.4436049" lon="7.7211521"><ele>819.5</ele><time>2026-04-25T13:31:13.273Z</time></trkpt><trkpt lat="45.4435619" lon="7.7209716"><ele>819.0</ele><time>2026-04-25T13:31:14.261Z</time></trkpt><trkpt lat="45.4434664" lon="7.7208034"><ele>819.0</ele><time>2026-04-25T13:31:15.267Z</time></trkpt><trkpt lat="45.4433298" lon="7.7206562"><ele>819.0</ele><time>2026-04-25T13:31:16.265Z</time></trkpt><trkpt lat="45.4431647" lon="7.7205194"><ele>819.0</ele><time>2026-04-25T13:31:17.273Z</time></trkpt><trkpt lat="45.4430158" lon="7.720357"><ele>819.6666666666667</ele><time>2026-04-25T13:31:18.27Z</time></trkpt><trkpt lat="45.4428133" lon="7.7202108"><ele>820.3333333333334</ele><time>2026-04-25T13:31:19.264Z</time></trkpt><trkpt lat="45.4426207" lon="7.7201193"><ele>821.0</ele><time>2026-04-25T13:31:20.263Z</time></trkpt><trkpt lat="45.4424454" lon="7.7200341"><ele>821.0</ele><time>2026-04-25T13:31:21.264Z</time></trkpt><trkpt lat="45.442326" lon="7.7200438"><ele>821.0</ele><time>2026-04-25T13:31:22.265Z</time></trkpt><trkpt lat="45.4422625" lon="7.7199959"><ele>821.0</ele><time>2026-04-25T13:31:23.276Z</time></trkpt><trkpt lat="45.4422136" lon="7.719806"><ele>821.0</ele><time>2026-04-25T13:31:25.278Z</time></trkpt><trkpt lat="45.4422259" lon="7.7195945"><ele>823.6666666666667</ele><time>2026-04-25T13:31:26.281Z</time></trkpt><trkpt lat="45.4422505" lon="7.7193678"><ele>826.3333333333333</ele><time>2026-04-25T13:31:27.279Z</time></trkpt><trkpt lat="45.4423157" lon="7.7190936"><ele>829.0</ele><time>2026-04-25T13:31:28.277Z</time></trkpt><trkpt lat="45.4423352" lon="7.7188834"><ele>829.0</ele><time>2026-04-25T13:31:29.282Z</time></trkpt><trkpt lat="45.4424097" lon="7.7186722"><ele>829.0</ele><time>2026-04-25T13:31:30.276Z</time></trkpt><trkpt lat="45.442514" lon="7.7184527"><ele>829.0</ele><time>2026-04-25T13:31:31.269Z</time></trkpt><trkpt lat="45.4426326" lon="7.7182376"><ele>826.25</ele><time>2026-04-25T13:31:32.266Z</time></trkpt><trkpt lat="45.4427477" lon="7.7181422"><ele>823.5</ele><time>2026-04-25T13:31:33.275Z</time></trkpt><trkpt lat="45.4428743" lon="7.7180641"><ele>820.75</ele><time>2026-04-25T13:31:34.262Z</time></trkpt><trkpt lat="45.4429696" lon="7.7179965"><ele>818.0</ele><time>2026-04-25T13:31:35.268Z</time></trkpt><trkpt lat="45.4430023" lon="7.7178131"><ele>814.6666666666667</ele><time>2026-04-25T13:31:36.264Z</time></trkpt><trkpt lat="45.4430173" lon="7.7175695"><ele>811.3333333333333</ele><time>2026-04-25T13:31:37.253Z</time></trkpt><trkpt lat="45.4430239" lon="7.7173342"><ele>808.0</ele><time>2026-04-25T13:31:38.255Z</time></trkpt><trkpt lat="45.4429603" lon="7.7171594"><ele>808.0</ele><time>2026-04-25T13:31:39.257Z</time></trkpt><trkpt lat="45.4428585" lon="7.7169028"><ele>808.0</ele><time>2026-04-25T13:31:40.261Z</time></trkpt><trkpt lat="45.4427912" lon="7.7166882"><ele>808.0</ele><time>2026-04-25T13:31:41.257Z</time></trkpt><trkpt lat="45.4426908" lon="7.7164475"><ele>809.75</ele><time>2026-04-25T13:31:42.257Z</time></trkpt><trkpt lat="45.442598" lon="7.7162951"><ele>811.5</ele><time>2026-04-25T13:31:43.258Z</time></trkpt><trkpt lat="45.4425088" lon="7.7161557"><ele>813.25</ele><time>2026-04-25T13:31:44.262Z</time></trkpt><trkpt lat="45.4424433" lon="7.7160104"><ele>815.0</ele><time>2026-04-25T13:31:45.256Z</time></trkpt><trkpt lat="45.4423823" lon="7.7158087"><ele>822.0</ele><time>2026-04-25T13:31:46.264Z</time></trkpt><trkpt lat="45.4423238" lon="7.715506"><ele>829.0</ele><time>2026-04-25T13:31:47.255Z</time></trkpt><trkpt lat="45.442312" lon="7.7151789"><ele>832.0</ele><time>2026-04-25T13:31:48.278Z</time></trkpt><trkpt lat="45.4423418" lon="7.7148262"><ele>835.0</ele><time>2026-04-25T13:31:49.266Z</time></trkpt><trkpt lat="45.4424376" lon="7.7144103"><ele>834.6666666666666</ele><time>2026-04-25T13:31:50.267Z</time></trkpt><trkpt lat="45.4424875" lon="7.7141082"><ele>834.3333333333333</ele><time>2026-04-25T13:31:51.278Z</time></trkpt><trkpt lat="45.4424855" lon="7.7139337"><ele>834.0</ele><time>2026-04-25T13:31:52.27Z</time></trkpt><trkpt lat="45.4425572" lon="7.7137087"><ele>836.3333333333333</ele><time>2026-04-25T13:31:53.267Z</time></trkpt><trkpt lat="45.442582" lon="7.7134691"><ele>838.6666666666666</ele><time>2026-04-25T13:31:54.28Z</time></trkpt><trkpt lat="45.4426106" lon="7.7132476"><ele>841.0</ele><time>2026-04-25T13:31:55.271Z</time></trkpt><trkpt lat="45.4425512" lon="7.712999"><ele>841.0</ele><time>2026-04-25T13:31:56.263Z</time></trkpt><trkpt lat="45.4424707" lon="7.7127566"><ele>841.0</ele><time>2026-04-25T13:31:57.254Z</time></trkpt><trkpt lat="45.4423723" lon="7.7125423"><ele>841.0</ele><time>2026-04-25T13:31:58.254Z</time></trkpt><trkpt lat="45.4422825" lon="7.7123562"><ele>844.6666666666666</ele><time>2026-04-25T13:31:59.252Z</time></trkpt><trkpt lat="45.4421785" lon="7.712156"><ele>848.3333333333333</ele><time>2026-04-25T13:32:00.247Z</time></trkpt><trkpt lat="45.4420187" lon="7.7118632"><ele>852.0</ele><time>2026-04-25T13:32:01.258Z</time></trkpt><trkpt lat="45.4420308" lon="7.7116185"><ele>844.3333333333333</ele><time>2026-04-25T13:32:02.251Z</time></trkpt><trkpt lat="45.4420348" lon="7.7113506"><ele>836.6666666666666</ele><time>2026-04-25T13:32:03.258Z</time></trkpt><trkpt lat="45.4420328" lon="7.7111048"><ele>829.0</ele><time>2026-04-25T13:32:04.257Z</time></trkpt><trkpt lat="45.4420523" lon="7.7108511"><ele>829.0</ele><time>2026-04-25T13:32:05.257Z</time></trkpt><trkpt lat="45.4421038" lon="7.7106777"><ele>829.0</ele><time>2026-04-25T13:32:06.259Z</time></trkpt><trkpt lat="45.4421286" lon="7.7104992"><ele>829.0</ele><time>2026-04-25T13:32:07.255Z</time></trkpt><trkpt lat="45.4421618" lon="7.7102929"><ele>829.0</ele><time>2026-04-25T13:32:08.265Z</time></trkpt><trkpt lat="45.4422138" lon="7.71007"><ele>843.3333333333333</ele><time>2026-04-25T13:32:09.253Z</time></trkpt><trkpt lat="45.4422174" lon="7.7098369"><ele>857.6666666666667</ele><time>2026-04-25T13:32:10.255Z</time></trkpt><trkpt lat="45.4421836" lon="7.7095679"><ele>872.0</ele><time>2026-04-25T13:32:11.258Z</time></trkpt><trkpt lat="45.4421358" lon="7.7092909"><ele>865.75</ele><time>2026-04-25T13:32:12.253Z</time></trkpt><trkpt lat="45.4420682" lon="7.7090828"><ele>859.5</ele><time>2026-04-25T13:32:13.253Z</time></trkpt><trkpt lat="45.4420188" lon="7.7089046"><ele>853.25</ele><time>2026-04-25T13:32:14.25Z</time></trkpt><trkpt lat="45.4419666" lon="7.7087414"><ele>847.0</ele><time>2026-04-25T13:32:15.253Z</time></trkpt><trkpt lat="45.4419002" lon="7.7086441"><ele>847.0</ele><time>2026-04-25T13:32:16.253Z</time></trkpt><trkpt lat="45.4417997" lon="7.7085767"><ele>847.0</ele><time>2026-04-25T13:32:17.252Z</time></trkpt><trkpt lat="45.441645" lon="7.7085143"><ele>847.0</ele><time>2026-04-25T13:32:18.257Z</time></trkpt><trkpt lat="45.4414629" lon="7.7085084"><ele>845.6666666666666</ele><time>2026-04-25T13:32:19.262Z</time></trkpt><trkpt lat="45.4413434" lon="7.7083871"><ele>844.3333333333333</ele><time>2026-04-25T13:32:20.255Z</time></trkpt><trkpt lat="45.4411864" lon="7.7083707"><ele>843.0</ele><time>2026-04-25T13:32:21.254Z</time></trkpt><trkpt lat="45.4410191" lon="7.708145"><ele>843.0</ele><time>2026-04-25T13:32:22.249Z</time></trkpt><trkpt lat="45.4408668" lon="7.7079748"><ele>843.0</ele><time>2026-04-25T13:32:23.253Z</time></trkpt><trkpt lat="45.4407313" lon="7.7078058"><ele>843.0</ele><time>2026-04-25T13:32:24.265Z</time></trkpt><trkpt lat="45.4406641" lon="7.7076363"><ele>838.0</ele><time>2026-04-25T13:32:25.263Z</time></trkpt><trkpt lat="45.4405784" lon="7.7074657"><ele>833.0</ele><time>2026-04-25T13:32:26.272Z</time></trkpt><trkpt lat="45.4404688" lon="7.707254"><ele>828.0</ele><time>2026-04-25T13:32:27.269Z</time></trkpt><trkpt lat="45.440382" lon="7.7070773"><ele>830.3333333333333</ele><time>2026-04-25T13:32:28.266Z</time></trkpt><trkpt lat="45.440344" lon="7.7068573"><ele>832.6666666666666</ele><time>2026-04-25T13:32:29.267Z</time></trkpt><trkpt lat="45.44037" lon="7.7066834"><ele>835.0</ele><time>2026-04-25T13:32:30.267Z</time></trkpt><trkpt lat="45.4404449" lon="7.7064684"><ele>837.0</ele><time>2026-04-25T13:32:31.271Z</time></trkpt><trkpt lat="45.4404848" lon="7.7062673"><ele>839.0</ele><time>2026-04-25T13:32:32.269Z</time></trkpt><trkpt lat="45.4405296" lon="7.7061746"><ele>841.0</ele><time>2026-04-25T13:32:33.264Z</time></trkpt><trkpt lat="45.4404693" lon="7.7060625"><ele>843.0</ele><time>2026-04-25T13:32:34.265Z</time></trkpt><trkpt lat="45.4403816" lon="7.7059591"><ele>845.0</ele><time>2026-04-25T13:32:35.259Z</time></trkpt><trkpt lat="45.440297" lon="7.7058759"><ele>845.0000000000001</ele><time>2026-04-25T13:32:36.263Z</time></trkpt><trkpt lat="45.440224" lon="7.7058205"><ele>845.0</ele><time>2026-04-25T13:32:37.273Z</time></trkpt><trkpt lat="45.4401595" lon="7.7057575"><ele>845.0</ele><time>2026-04-25T13:32:39.266Z</time></trkpt><trkpt lat="45.4402374" lon="7.705793"><ele>845.0</ele><time>2026-04-25T13:32:52.293Z</time></trkpt><trkpt lat="45.4403037" lon="7.705896"><ele>845.0000000000001</ele><time>2026-04-25T13:32:55.298Z</time></trkpt><trkpt lat="45.4403973" lon="7.7059612"><ele>845.0</ele><time>2026-04-25T13:32:57.288Z</time></trkpt><trkpt lat="45.4404767" lon="7.7059652"><ele>848.8333333333334</ele><time>2026-04-25T13:32:59.28Z</time></trkpt><trkpt lat="45.4405805" lon="7.7059587"><ele>852.6666666666667</ele><time>2026-04-25T13:33:01.268Z</time></trkpt><trkpt lat="45.4406451" lon="7.7059552"><ele>856.5</ele><time>2026-04-25T13:33:02.27Z</time></trkpt><trkpt lat="45.4407522" lon="7.7060491"><ele>860.3333333333333</ele><time>2026-04-25T13:33:04.261Z</time></trkpt><trkpt lat="45.4407945" lon="7.7061231"><ele>864.1666666666666</ele><time>2026-04-25T13:33:05.272Z</time></trkpt><trkpt lat="45.4408407" lon="7.7062123"><ele>868.0</ele><time>2026-04-25T13:33:06.268Z</time></trkpt><trkpt lat="45.440873" lon="7.7063325"><ele>868.0</ele><time>2026-04-25T13:33:07.267Z</time></trkpt><trkpt lat="45.4409029" lon="7.7064513"><ele>868.0</ele><time>2026-04-25T13:33:08.272Z</time></trkpt><trkpt lat="45.4409165" lon="7.7065822"><ele>868.0</ele><time>2026-04-25T13:33:09.273Z</time></trkpt><trkpt lat="45.4409289" lon="7.7067247"><ele>868.0</ele><time>2026-04-25T13:33:10.284Z</time></trkpt><trkpt lat="45.4409596" lon="7.7068546"><ele>868.0</ele><time>2026-04-25T13:33:11.287Z</time></trkpt><trkpt lat="45.4409813" lon="7.7069851"><ele>867.2</ele><time>2026-04-25T13:33:12.276Z</time></trkpt><trkpt lat="45.4410254" lon="7.7071082"><ele>866.4</ele><time>2026-04-25T13:33:13.276Z</time></trkpt><trkpt lat="45.4410822" lon="7.7072261"><ele>865.6000000000001</ele><time>2026-04-25T13:33:14.281Z</time></trkpt><trkpt lat="45.4411453" lon="7.707342"><ele>864.8000000000001</ele><time>2026-04-25T13:33:15.286Z</time></trkpt><trkpt lat="45.4412092" lon="7.7074368"><ele>864.0</ele><time>2026-04-25T13:33:16.287Z</time></trkpt><trkpt lat="45.4412762" lon="7.7075382"><ele>865.6</ele><time>2026-04-25T13:33:17.278Z</time></trkpt><trkpt lat="45.4413493" lon="7.7076379"><ele>867.2</ele><time>2026-04-25T13:33:18.283Z</time></trkpt><trkpt lat="45.4414306" lon="7.7077406"><ele>868.8000000000001</ele><time>2026-04-25T13:33:19.277Z</time></trkpt><trkpt lat="45.4415273" lon="7.7078299"><ele>870.4000000000001</ele><time>2026-04-25T13:33:20.275Z</time></trkpt><trkpt lat="45.4416254" lon="7.7079079"><ele>872.0</ele><time>2026-04-25T13:33:21.278Z</time></trkpt><trkpt lat="45.4417367" lon="7.7079395"><ele>872.0</ele><time>2026-04-25T13:33:22.27Z</time></trkpt><trkpt lat="45.4418465" lon="7.7079435"><ele>872.0</ele><time>2026-04-25T13:33:23.273Z</time></trkpt><trkpt lat="45.4419518" lon="7.7079341"><ele>872.0</ele><time>2026-04-25T13:33:24.271Z</time></trkpt><trkpt lat="45.4420543" lon="7.7079537"><ele>872.0</ele><time>2026-04-25T13:33:25.272Z</time></trkpt><trkpt lat="45.4421663" lon="7.7079562"><ele>872.0</ele><time>2026-04-25T13:33:26.277Z</time></trkpt><trkpt lat="45.4422678" lon="7.7079866"><ele>877.8</ele><time>2026-04-25T13:33:27.273Z</time></trkpt><trkpt lat="45.4423577" lon="7.707998"><ele>883.6</ele><time>2026-04-25T13:33:28.265Z</time></trkpt><trkpt lat="45.4424537" lon="7.7080122"><ele>889.3999999999999</ele><time>2026-04-25T13:33:29.271Z</time></trkpt><trkpt lat="45.4425469" lon="7.7080302"><ele>895.1999999999999</ele><time>2026-04-25T13:33:30.264Z</time></trkpt><trkpt lat="45.4426377" lon="7.7080665"><ele>901.0</ele><time>2026-04-25T13:33:31.265Z</time></trkpt><trkpt lat="45.4426915" lon="7.7081533"><ele>901.0</ele><time>2026-04-25T13:33:32.281Z</time></trkpt><trkpt lat="45.442756" lon="7.7082563"><ele>901.0</ele><time>2026-04-25T13:33:33.268Z</time></trkpt><trkpt lat="45.4428144" lon="7.7084102"><ele>901.0</ele><time>2026-04-25T13:33:34.279Z</time></trkpt><trkpt lat="45.4428522" lon="7.7085811"><ele>901.0</ele><time>2026-04-25T13:33:35.268Z</time></trkpt><trkpt lat="45.4428978" lon="7.7087341"><ele>898.6666666666666</ele><time>2026-04-25T13:33:36.261Z</time></trkpt><trkpt lat="45.442938" lon="7.7088824"><ele>896.3333333333333</ele><time>2026-04-25T13:33:37.267Z</time></trkpt><trkpt lat="45.442994" lon="7.7089955"><ele>894.0</ele><time>2026-04-25T13:33:38.268Z</time></trkpt><trkpt lat="45.4430345" lon="7.709069"><ele>891.6666666666667</ele><time>2026-04-25T13:33:39.263Z</time></trkpt><trkpt lat="45.4430758" lon="7.7091416"><ele>889.3333333333334</ele><time>2026-04-25T13:33:40.264Z</time></trkpt><trkpt lat="45.4431316" lon="7.7092444"><ele>887.0</ele><time>2026-04-25T13:33:41.265Z</time></trkpt><trkpt lat="45.4431822" lon="7.7093531"><ele>890.8</ele><time>2026-04-25T13:33:42.264Z</time></trkpt><trkpt lat="45.4432471" lon="7.7094726"><ele>894.6</ele><time>2026-04-25T13:33:43.265Z</time></trkpt><trkpt lat="45.4433131" lon="7.7095961"><ele>898.3999999999999</ele><time>2026-04-25T13:33:44.268Z</time></trkpt><trkpt lat="45.443391" lon="7.709697"><ele>902.1999999999999</ele><time>2026-04-25T13:33:45.268Z</time></trkpt><trkpt lat="45.4434672" lon="7.7097912"><ele>906.0</ele><time>2026-04-25T13:33:46.264Z</time></trkpt><trkpt lat="45.4435353" lon="7.7099108"><ele>906.0</ele><time>2026-04-25T13:33:47.264Z</time></trkpt><trkpt lat="45.4435922" lon="7.710063"><ele>905.9999999999999</ele><time>2026-04-25T13:33:48.268Z</time></trkpt><trkpt lat="45.4436469" lon="7.7102399"><ele>905.9999999999999</ele><time>2026-04-25T13:33:49.26Z</time></trkpt><trkpt lat="45.4436693" lon="7.7103592"><ele>906.0</ele><time>2026-04-25T13:33:50.266Z</time></trkpt><trkpt lat="45.4437267" lon="7.7104454"><ele>906.0</ele><time>2026-04-25T13:33:52.28Z</time></trkpt><trkpt lat="45.4437906" lon="7.7104408"><ele>910.1666666666666</ele><time>2026-04-25T13:33:53.268Z</time></trkpt><trkpt lat="45.4438568" lon="7.7103965"><ele>914.3333333333333</ele><time>2026-04-25T13:33:54.269Z</time></trkpt><trkpt lat="45.4439469" lon="7.7103439"><ele>918.5</ele><time>2026-04-25T13:33:55.268Z</time></trkpt><trkpt lat="45.4440277" lon="7.7102672"><ele>922.6666666666666</ele><time>2026-04-25T13:33:56.268Z</time></trkpt><trkpt lat="45.444101" lon="7.7101873"><ele>926.8333333333333</ele><time>2026-04-25T13:33:57.266Z</time></trkpt><trkpt lat="45.4441509" lon="7.7101206"><ele>931.0</ele><time>2026-04-25T13:33:58.26Z</time></trkpt><trkpt lat="45.4441965" lon="7.7100478"><ele>931.0</ele><time>2026-04-25T13:33:59.261Z</time></trkpt><trkpt lat="45.444269" lon="7.7099585"><ele>930.9999999999999</ele><time>2026-04-25T13:34:00.26Z</time></trkpt><trkpt lat="45.4443496" lon="7.7098792"><ele>930.9999999999999</ele><time>2026-04-25T13:34:01.274Z</time></trkpt><trkpt lat="45.4444071" lon="7.7097498"><ele>931.0</ele><time>2026-04-25T13:34:02.281Z</time></trkpt><trkpt lat="45.4444359" lon="7.7096216"><ele>931.0</ele><time>2026-04-25T13:34:03.272Z</time></trkpt><trkpt lat="45.4444614" lon="7.7094958"><ele>932.1666666666666</ele><time>2026-04-25T13:34:04.267Z</time></trkpt><trkpt lat="45.4444753" lon="7.7093826"><ele>933.3333333333333</ele><time>2026-04-25T13:34:05.263Z</time></trkpt><trkpt lat="45.444504" lon="7.7092697"><ele>934.5</ele><time>2026-04-25T13:34:06.264Z</time></trkpt><trkpt lat="45.444533" lon="7.7091681"><ele>935.6666666666667</ele><time>2026-04-25T13:34:07.267Z</time></trkpt><trkpt lat="45.4445726" lon="7.7090825"><ele>936.8333333333334</ele><time>2026-04-25T13:34:08.264Z</time></trkpt><trkpt lat="45.4446149" lon="7.7090068"><ele>938.0</ele><time>2026-04-25T13:34:09.265Z</time></trkpt><trkpt lat="45.4446354" lon="7.708914"><ele>936.8333333333334</ele><time>2026-04-25T13:34:10.264Z</time></trkpt><trkpt lat="45.444651" lon="7.7088261"><ele>935.6666666666667</ele><time>2026-04-25T13:34:11.263Z</time></trkpt><trkpt lat="45.4446828" lon="7.7086482"><ele>934.5</ele><time>2026-04-25T13:34:13.263Z</time></trkpt><trkpt lat="45.4447093" lon="7.7085595"><ele>933.3333333333333</ele><time>2026-04-25T13:34:14.262Z</time></trkpt><trkpt lat="45.4447416" lon="7.7084804"><ele>932.1666666666666</ele><time>2026-04-25T13:34:15.259Z</time></trkpt><trkpt lat="45.4447919" lon="7.7083787"><ele>931.0</ele><time>2026-04-25T13:34:17.268Z</time></trkpt><trkpt lat="45.4448176" lon="7.7082391"><ele>931.0</ele><time>2026-04-25T13:34:20.269Z</time></trkpt><trkpt lat="45.4448535" lon="7.7081298"><ele>930.9999999999999</ele><time>2026-04-25T13:34:22.281Z</time></trkpt><trkpt lat="45.4449223" lon="7.7079803"><ele>930.9999999999999</ele><time>2026-04-25T13:34:24.268Z</time></trkpt><trkpt lat="45.444972" lon="7.7078748"><ele>931.0</ele><time>2026-04-25T13:34:25.274Z</time></trkpt><trkpt lat="45.4450309" lon="7.7077618"><ele>931.0</ele><time>2026-04-25T13:34:26.273Z</time></trkpt><trkpt lat="45.4450984" lon="7.7076709"><ele>932.1666666666666</ele><time>2026-04-25T13:34:27.277Z</time></trkpt><trkpt lat="45.4451451" lon="7.7075717"><ele>933.3333333333333</ele><time>2026-04-25T13:34:28.284Z</time></trkpt><trkpt lat="45.445185" lon="7.7074809"><ele>934.5</ele><time>2026-04-25T13:34:29.281Z</time></trkpt><trkpt lat="45.4452178" lon="7.7073845"><ele>935.6666666666667</ele><time>2026-04-25T13:34:30.27Z</time></trkpt><trkpt lat="45.4452847" lon="7.7073008"><ele>936.8333333333334</ele><time>2026-04-25T13:34:31.274Z</time></trkpt><trkpt lat="45.4453646" lon="7.7072207"><ele>938.0</ele><time>2026-04-25T13:34:32.276Z</time></trkpt><trkpt lat="45.4454493" lon="7.7071513"><ele>936.8333333333334</ele><time>2026-04-25T13:34:33.273Z</time></trkpt><trkpt lat="45.4455442" lon="7.7070974"><ele>935.6666666666667</ele><time>2026-04-25T13:34:34.262Z</time></trkpt><trkpt lat="45.4456137" lon="7.7070638"><ele>934.5</ele><time>2026-04-25T13:34:35.256Z</time></trkpt><trkpt lat="45.4457042" lon="7.707048"><ele>933.3333333333333</ele><time>2026-04-25T13:34:36.259Z</time></trkpt><trkpt lat="45.445797" lon="7.7070546"><ele>932.1666666666666</ele><time>2026-04-25T13:34:37.26Z</time></trkpt><trkpt lat="45.4458767" lon="7.7070524"><ele>931.0</ele><time>2026-04-25T13:34:38.263Z</time></trkpt><trkpt lat="45.4459526" lon="7.7070413"><ele>931.0</ele><time>2026-04-25T13:34:39.257Z</time></trkpt><trkpt lat="45.4460215" lon="7.7070135"><ele>930.9999999999999</ele><time>2026-04-25T13:34:40.269Z</time></trkpt><trkpt lat="45.4460681" lon="7.7069292"><ele>930.9999999999999</ele><time>2026-04-25T13:34:41.269Z</time></trkpt><trkpt lat="45.4461037" lon="7.706812"><ele>931.0</ele><time>2026-04-25T13:34:42.276Z</time></trkpt><trkpt lat="45.4461326" lon="7.7066562"><ele>931.0</ele><time>2026-04-25T13:34:43.283Z</time></trkpt><trkpt lat="45.4461588" lon="7.7064661"><ele>934.5</ele><time>2026-04-25T13:34:44.277Z</time></trkpt><trkpt lat="45.4462138" lon="7.7062821"><ele>938.0</ele><time>2026-04-25T13:34:45.273Z</time></trkpt><trkpt lat="45.4462761" lon="7.706108"><ele>941.5</ele><time>2026-04-25T13:34:46.276Z</time></trkpt><trkpt lat="45.4463526" lon="7.7059352"><ele>945.0</ele><time>2026-04-25T13:34:47.275Z</time></trkpt><trkpt lat="45.4464302" lon="7.7057638"><ele>945.0</ele><time>2026-04-25T13:34:48.265Z</time></trkpt><trkpt lat="45.4465009" lon="7.7056218"><ele>945.0</ele><time>2026-04-25T13:34:49.264Z</time></trkpt><trkpt lat="45.4465576" lon="7.7055168"><ele>945.0</ele><time>2026-04-25T13:34:50.272Z</time></trkpt><trkpt lat="45.4466122" lon="7.7054165"><ele>945.0</ele><time>2026-04-25T13:34:51.274Z</time></trkpt><trkpt lat="45.4466547" lon="7.7053117"><ele>945.0</ele><time>2026-04-25T13:34:52.267Z</time></trkpt><trkpt lat="45.4467147" lon="7.7051812"><ele>945.8</ele><time>2026-04-25T13:34:54.275Z</time></trkpt><trkpt lat="45.44683" lon="7.70511"><ele>946.6</ele><time>2026-04-25T13:34:56.274Z</time></trkpt><trkpt lat="45.446935" lon="7.7051384"><ele>947.4000000000001</ele><time>2026-04-25T13:34:57.271Z</time></trkpt><trkpt lat="45.4470439" lon="7.70515"><ele>948.2</ele><time>2026-04-25T13:34:58.276Z</time></trkpt><trkpt lat="45.447141" lon="7.7051542"><ele>949.0</ele><time>2026-04-25T13:34:59.276Z</time></trkpt><trkpt lat="45.447222" lon="7.7051321"><ele>949.0</ele><time>2026-04-25T13:35:00.281Z</time></trkpt><trkpt lat="45.4472968" lon="7.7050646"><ele>949.0000000000001</ele><time>2026-04-25T13:35:01.271Z</time></trkpt><trkpt lat="45.4473682" lon="7.7049763"><ele>949.0000000000001</ele><time>2026-04-25T13:35:02.28Z</time></trkpt><trkpt lat="45.447414" lon="7.7048533"><ele>949.0</ele><time>2026-04-25T13:35:03.272Z</time></trkpt><trkpt lat="45.4474537" lon="7.7047276"><ele>949.0</ele><time>2026-04-25T13:35:04.271Z</time></trkpt><trkpt lat="45.4474678" lon="7.704616"><ele>949.0</ele><time>2026-04-25T13:35:05.269Z</time></trkpt><trkpt lat="45.4474854" lon="7.7045202"><ele>949.0000000000001</ele><time>2026-04-25T13:35:06.267Z</time></trkpt><trkpt lat="45.4475658" lon="7.704377"><ele>949.0000000000001</ele><time>2026-04-25T13:35:08.266Z</time></trkpt><trkpt lat="45.447643" lon="7.7043248"><ele>949.0</ele><time>2026-04-25T13:35:09.262Z</time></trkpt><trkpt lat="45.4477184" lon="7.7042722"><ele>949.0</ele><time>2026-04-25T13:35:10.261Z</time></trkpt><trkpt lat="45.447799" lon="7.7042419"><ele>949.8000000000001</ele><time>2026-04-25T13:35:11.26Z</time></trkpt><trkpt lat="45.4478646" lon="7.7042439"><ele>950.6000000000001</ele><time>2026-04-25T13:35:12.261Z</time></trkpt><trkpt lat="45.4479563" lon="7.704327"><ele>951.4</ele><time>2026-04-25T13:35:14.262Z</time></trkpt><trkpt lat="45.4480467" lon="7.7043321"><ele>952.2</ele><time>2026-04-25T13:35:17.253Z</time></trkpt><trkpt lat="45.4481275" lon="7.704179"><ele>953.0</ele><time>2026-04-25T13:35:19.252Z</time></trkpt><trkpt lat="45.4481566" lon="7.7040679"><ele>953.0000000000001</ele><time>2026-04-25T13:35:20.255Z</time></trkpt><trkpt lat="45.4481893" lon="7.7039846"><ele>953.0</ele><time>2026-04-25T13:35:21.258Z</time></trkpt><trkpt lat="45.4482631" lon="7.7038934"><ele>953.0</ele><time>2026-04-25T13:35:23.254Z</time></trkpt><trkpt lat="45.4483612" lon="7.7038733"><ele>953.0</ele><time>2026-04-25T13:35:25.265Z</time></trkpt><trkpt lat="45.4484206" lon="7.7039054"><ele>953.0000000000001</ele><time>2026-04-25T13:35:26.26Z</time></trkpt><trkpt lat="45.4484802" lon="7.7039476"><ele>953.0</ele><time>2026-04-25T13:35:27.259Z</time></trkpt><trkpt lat="45.4485766" lon="7.7040441"><ele>953.0</ele><time>2026-04-25T13:35:29.265Z</time></trkpt><trkpt lat="45.4486388" lon="7.7041969"><ele>953.0</ele><time>2026-04-25T13:35:31.269Z</time></trkpt><trkpt lat="45.4486696" lon="7.7043116"><ele>953.0</ele><time>2026-04-25T13:35:32.258Z</time></trkpt><trkpt lat="45.4487022" lon="7.7044266"><ele>953.0</ele><time>2026-04-25T13:35:33.261Z</time></trkpt><trkpt lat="45.4487592" lon="7.7045599"><ele>953.0</ele><time>2026-04-25T13:35:35.263Z</time></trkpt><trkpt lat="45.4488439" lon="7.7046895"><ele>954.0</ele><time>2026-04-25T13:35:37.267Z</time></trkpt><trkpt lat="45.4489052" lon="7.7047852"><ele>955.0</ele><time>2026-04-25T13:35:38.273Z</time></trkpt><trkpt lat="45.4489745" lon="7.704876"><ele>956.0</ele><time>2026-04-25T13:35:39.268Z</time></trkpt><trkpt lat="45.4490243" lon="7.704945"><ele>957.0</ele><time>2026-04-25T13:35:40.267Z</time></trkpt><trkpt lat="45.4491084" lon="7.7050259"><ele>958.0</ele><time>2026-04-25T13:35:42.271Z</time></trkpt><trkpt lat="45.4492132" lon="7.7050764"><ele>958.0</ele><time>2026-04-25T13:35:44.266Z</time></trkpt><trkpt lat="45.4492899" lon="7.7050931"><ele>958.0</ele><time>2026-04-25T13:35:45.267Z</time></trkpt><trkpt lat="45.4493372" lon="7.7051558"><ele>958.0</ele><time>2026-04-25T13:35:46.256Z</time></trkpt><trkpt lat="45.4493777" lon="7.7052326"><ele>958.0</ele><time>2026-04-25T13:35:47.258Z</time></trkpt><trkpt lat="45.4494178" lon="7.7053089"><ele>958.0</ele><time>2026-04-25T13:35:48.264Z</time></trkpt><trkpt lat="45.4494577" lon="7.7053887"><ele>958.0</ele><time>2026-04-25T13:35:49.267Z</time></trkpt><trkpt lat="45.4495082" lon="7.7054741"><ele>958.0</ele><time>2026-04-25T13:35:50.27Z</time></trkpt><trkpt lat="45.4495577" lon="7.7055492"><ele>957.4285714285713</ele><time>2026-04-25T13:35:51.274Z</time></trkpt><trkpt lat="45.4496133" lon="7.7056189"><ele>956.8571428571429</ele><time>2026-04-25T13:35:52.264Z</time></trkpt><trkpt lat="45.4496761" lon="7.7056444"><ele>956.2857142857142</ele><time>2026-04-25T13:35:53.268Z</time></trkpt><trkpt lat="45.4497653" lon="7.7056431"><ele>955.7142857142857</ele><time>2026-04-25T13:35:54.265Z</time></trkpt><trkpt lat="45.4498542" lon="7.7056549"><ele>955.1428571428571</ele><time>2026-04-25T13:35:55.266Z</time></trkpt><trkpt lat="45.4499182" lon="7.7056737"><ele>954.5714285714286</ele><time>2026-04-25T13:35:56.268Z</time></trkpt><trkpt lat="45.4499836" lon="7.7056864"><ele>954.0</ele><time>2026-04-25T13:35:57.25Z</time></trkpt><trkpt lat="45.4500625" lon="7.7057765"><ele>954.0</ele><time>2026-04-25T13:35:59.26Z</time></trkpt><trkpt lat="45.4500637" lon="7.7059084"><ele>954.0000000000001</ele><time>2026-04-25T13:36:01.26Z</time></trkpt><trkpt lat="45.4500151" lon="7.7060168"><ele>954.0000000000001</ele><time>2026-04-25T13:36:03.266Z</time></trkpt><trkpt lat="45.4500696" lon="7.706132"><ele>954.0</ele><time>2026-04-25T13:36:05.26Z</time></trkpt><trkpt lat="45.4501577" lon="7.706244"><ele>954.0</ele><time>2026-04-25T13:36:07.258Z</time></trkpt><trkpt lat="45.4501783" lon="7.7063876"><ele>954.8333333333334</ele><time>2026-04-25T13:36:09.26Z</time></trkpt><trkpt lat="45.4502002" lon="7.7065027"><ele>955.6666666666667</ele><time>2026-04-25T13:36:10.268Z</time></trkpt><trkpt lat="45.4502404" lon="7.7066028"><ele>956.5</ele><time>2026-04-25T13:36:11.258Z</time></trkpt><trkpt lat="45.4503025" lon="7.706693"><ele>957.3333333333334</ele><time>2026-04-25T13:36:12.269Z</time></trkpt><trkpt lat="45.4503706" lon="7.7067735"><ele>958.1666666666667</ele><time>2026-04-25T13:36:13.264Z</time></trkpt><trkpt lat="45.450434" lon="7.7068438"><ele>959.0</ele><time>2026-04-25T13:36:14.267Z</time></trkpt><trkpt lat="45.4505264" lon="7.7069005"><ele>955.6</ele><time>2026-04-25T13:36:16.267Z</time></trkpt><trkpt lat="45.4506605" lon="7.706918"><ele>952.2</ele><time>2026-04-25T13:36:18.264Z</time></trkpt><trkpt lat="45.450732" lon="7.7069415"><ele>948.8000000000001</ele><time>2026-04-25T13:36:19.26Z</time></trkpt><trkpt lat="45.450805" lon="7.7069857"><ele>945.4000000000001</ele><time>2026-04-25T13:36:20.261Z</time></trkpt><trkpt lat="45.4508749" lon="7.7070446"><ele>942.0</ele><time>2026-04-25T13:36:21.263Z</time></trkpt><trkpt lat="45.4509407" lon="7.7071218"><ele>942.0</ele><time>2026-04-25T13:36:22.266Z</time></trkpt><trkpt lat="45.4510156" lon="7.7072233"><ele>942.0</ele><time>2026-04-25T13:36:23.261Z</time></trkpt><trkpt lat="45.4510976" lon="7.7073487"><ele>942.0</ele><time>2026-04-25T13:36:24.259Z</time></trkpt><trkpt lat="45.4511875" lon="7.7074547"><ele>942.0</ele><time>2026-04-25T13:36:25.259Z</time></trkpt><trkpt lat="45.4512785" lon="7.7075223"><ele>942.0</ele><time>2026-04-25T13:36:26.255Z</time></trkpt><trkpt lat="45.4513489" lon="7.7076073"><ele>942.8333333333334</ele><time>2026-04-25T13:36:27.26Z</time></trkpt><trkpt lat="45.4514256" lon="7.7077125"><ele>943.6666666666667</ele><time>2026-04-25T13:36:28.264Z</time></trkpt><trkpt lat="45.4514617" lon="7.7078253"><ele>944.5</ele><time>2026-04-25T13:36:29.267Z</time></trkpt><trkpt lat="45.4514988" lon="7.7079208"><ele>945.3333333333334</ele><time>2026-04-25T13:36:30.262Z</time></trkpt><trkpt lat="45.4515262" lon="7.708003"><ele>946.1666666666667</ele><time>2026-04-25T13:36:31.262Z</time></trkpt><trkpt lat="45.45158" lon="7.7080909"><ele>947.0</ele><time>2026-04-25T13:36:32.258Z</time></trkpt><trkpt lat="45.4516428" lon="7.7081616"><ele>947.0000000000001</ele><time>2026-04-25T13:36:33.269Z</time></trkpt><trkpt lat="45.4517156" lon="7.7081851"><ele>947.0</ele><time>2026-04-25T13:36:34.265Z</time></trkpt><trkpt lat="45.4518016" lon="7.7081896"><ele>947.0</ele><time>2026-04-25T13:36:35.267Z</time></trkpt><trkpt lat="45.4518831" lon="7.7081869"><ele>947.0</ele><time>2026-04-25T13:36:36.264Z</time></trkpt><trkpt lat="45.4519651" lon="7.7081537"><ele>947.0000000000001</ele><time>2026-04-25T13:36:37.268Z</time></trkpt><trkpt lat="45.4520659" lon="7.7081118"><ele>947.0</ele><time>2026-04-25T13:36:38.263Z</time></trkpt><trkpt lat="45.4521617" lon="7.7080625"><ele>948.0000000000001</ele><time>2026-04-25T13:36:39.263Z</time></trkpt><trkpt lat="45.4522418" lon="7.7080374"><ele>949.0</ele><time>2026-04-25T13:36:40.263Z</time></trkpt><trkpt lat="45.452317" lon="7.7080251"><ele>950.0</ele><time>2026-04-25T13:36:41.262Z</time></trkpt><trkpt lat="45.4524" lon="7.7080015"><ele>951.0</ele><time>2026-04-25T13:36:43.261Z</time></trkpt><trkpt lat="45.4524153" lon="7.7081064"><ele>952.0000000000001</ele><time>2026-04-25T13:36:45.267Z</time></trkpt><trkpt lat="45.4524189" lon="7.7082063"><ele>953.0</ele><time>2026-04-25T13:36:46.26Z</time></trkpt><trkpt lat="45.4524257" lon="7.7083048"><ele>953.0</ele><time>2026-04-25T13:36:47.263Z</time></trkpt><trkpt lat="45.4524566" lon="7.7083898"><ele>953.0</ele><time>2026-04-25T13:36:48.258Z</time></trkpt><trkpt lat="45.4525626" lon="7.7084501"><ele>953.0</ele><time>2026-04-25T13:36:50.258Z</time></trkpt><trkpt lat="45.4526406" lon="7.7084487"><ele>953.0</ele><time>2026-04-25T13:36:51.262Z</time></trkpt><trkpt lat="45.4527349" lon="7.7084016"><ele>953.0</ele><time>2026-04-25T13:36:52.259Z</time></trkpt><trkpt lat="45.4528222" lon="7.7083361"><ele>953.0</ele><time>2026-04-25T13:36:53.256Z</time></trkpt><trkpt lat="45.4529247" lon="7.7082646"><ele>953.0</ele><time>2026-04-25T13:36:54.261Z</time></trkpt><trkpt lat="45.4530129" lon="7.7082526"><ele>953.0</ele><time>2026-04-25T13:36:55.258Z</time></trkpt><trkpt lat="45.4530924" lon="7.7082593"><ele>953.0</ele><time>2026-04-25T13:36:56.251Z</time></trkpt><trkpt lat="45.4531869" lon="7.708266"><ele>953.0</ele><time>2026-04-25T13:36:58.263Z</time></trkpt><trkpt lat="45.4532404" lon="7.7084394"><ele>952.8</ele><time>2026-04-25T13:37:00.257Z</time></trkpt><trkpt lat="45.453291" lon="7.708563"><ele>952.5999999999999</ele><time>2026-04-25T13:37:01.263Z</time></trkpt><trkpt lat="45.4533314" lon="7.7087115"><ele>952.4000000000001</ele><time>2026-04-25T13:37:02.264Z</time></trkpt><trkpt lat="45.4533719" lon="7.7088501"><ele>952.2</ele><time>2026-04-25T13:37:03.278Z</time></trkpt><trkpt lat="45.4534083" lon="7.7089598"><ele>952.0</ele><time>2026-04-25T13:37:04.262Z</time></trkpt><trkpt lat="45.453444" lon="7.70905"><ele>952.0</ele><time>2026-04-25T13:37:05.258Z</time></trkpt><trkpt lat="45.453508" lon="7.7091913"><ele>952.0</ele><time>2026-04-25T13:37:07.28Z</time></trkpt><trkpt lat="45.4535617" lon="7.7093736"><ele>952.0</ele><time>2026-04-25T13:37:09.283Z</time></trkpt><trkpt lat="45.4535814" lon="7.7094835"><ele>952.0</ele><time>2026-04-25T13:37:10.292Z</time></trkpt><trkpt lat="45.4536009" lon="7.7095901"><ele>952.0</ele><time>2026-04-25T13:37:11.289Z</time></trkpt><trkpt lat="45.4536365" lon="7.7096902"><ele>952.4285714285714</ele><time>2026-04-25T13:37:12.296Z</time></trkpt><trkpt lat="45.4536774" lon="7.7097816"><ele>952.8571428571429</ele><time>2026-04-25T13:37:13.29Z</time></trkpt><trkpt lat="45.4537286" lon="7.709854"><ele>953.2857142857142</ele><time>2026-04-25T13:37:14.283Z</time></trkpt><trkpt lat="45.4537769" lon="7.7099266"><ele>953.7142857142857</ele><time>2026-04-25T13:37:15.287Z</time></trkpt><trkpt lat="45.4538305" lon="7.7099741"><ele>954.1428571428571</ele><time>2026-04-25T13:37:16.294Z</time></trkpt><trkpt lat="45.4538978" lon="7.710011"><ele>954.5714285714284</ele><time>2026-04-25T13:37:17.292Z</time></trkpt><trkpt lat="45.4539793" lon="7.7100495"><ele>954.9999999999999</ele><time>2026-04-25T13:37:18.296Z</time></trkpt><trkpt lat="45.4540464" lon="7.7101007"><ele>955.0</ele><time>2026-04-25T13:37:19.286Z</time></trkpt><trkpt lat="45.4540853" lon="7.7101718"><ele>955.0</ele><time>2026-04-25T13:37:20.28Z</time></trkpt><trkpt lat="45.4541622" lon="7.710359"><ele>955.0</ele><time>2026-04-25T13:37:22.29Z</time></trkpt><trkpt lat="45.4542032" lon="7.7105032"><ele>955.0</ele><time>2026-04-25T13:37:23.288Z</time></trkpt><trkpt lat="45.4542485" lon="7.7106211"><ele>955.0</ele><time>2026-04-25T13:37:24.285Z</time></trkpt><trkpt lat="45.4542796" lon="7.7107187"><ele>954.2</ele><time>2026-04-25T13:37:25.284Z</time></trkpt><trkpt lat="45.454346" lon="7.7108611"><ele>953.4</ele><time>2026-04-25T13:37:27.274Z</time></trkpt><trkpt lat="45.4543716" lon="7.7109747"><ele>952.5999999999999</ele><time>2026-04-25T13:37:31.275Z</time></trkpt><trkpt lat="45.4544059" lon="7.7110776"><ele>951.8</ele><time>2026-04-25T13:37:36.298Z</time></trkpt><trkpt lat="45.4544204" lon="7.7112293"><ele>951.0</ele><time>2026-04-25T13:37:38.286Z</time></trkpt><trkpt lat="45.4544159" lon="7.7113746"><ele>950.0</ele><time>2026-04-25T13:37:40.282Z</time></trkpt><trkpt lat="45.4544602" lon="7.7114917"><ele>948.9999999999999</ele><time>2026-04-25T13:37:42.282Z</time></trkpt><trkpt lat="45.454554" lon="7.7115454"><ele>947.9999999999999</ele><time>2026-04-25T13:37:44.29Z</time></trkpt><trkpt lat="45.454658" lon="7.711546"><ele>947.0</ele><time>2026-04-25T13:37:46.289Z</time></trkpt><trkpt lat="45.4547638" lon="7.7115222"><ele>946.0</ele><time>2026-04-25T13:37:48.287Z</time></trkpt><trkpt lat="45.4548429" lon="7.7114711"><ele>948.0</ele><time>2026-04-25T13:37:50.288Z</time></trkpt><trkpt lat="45.4549088" lon="7.7113589"><ele>949.9999999999999</ele><time>2026-04-25T13:37:52.283Z</time></trkpt><trkpt lat="45.454965" lon="7.7112396"><ele>951.9999999999999</ele><time>2026-04-25T13:37:54.277Z</time></trkpt><trkpt lat="45.4550384" lon="7.7112298"><ele>954.0</ele><time>2026-04-25T13:37:56.279Z</time></trkpt><trkpt lat="45.4551477" lon="7.7113049"><ele>956.0</ele><time>2026-04-25T13:37:58.275Z</time></trkpt><trkpt lat="45.4552025" lon="7.7113594"><ele>956.0000000000001</ele><time>2026-04-25T13:37:59.276Z</time></trkpt><trkpt lat="45.4552593" lon="7.7114206"><ele>956.0</ele><time>2026-04-25T13:38:00.281Z</time></trkpt><trkpt lat="45.4553083" lon="7.7114793"><ele>956.0</ele><time>2026-04-25T13:38:01.271Z</time></trkpt><trkpt lat="45.4553576" lon="7.7115779"><ele>956.0</ele><time>2026-04-25T13:38:03.279Z</time></trkpt><trkpt lat="45.4553638" lon="7.7116984"><ele>956.0000000000001</ele><time>2026-04-25T13:38:06.282Z</time></trkpt><trkpt lat="45.4554213" lon="7.7117681"><ele>956.0</ele><time>2026-04-25T13:38:09.281Z</time></trkpt><trkpt lat="45.4554848" lon="7.7118157"><ele>955.8333333333334</ele><time>2026-04-25T13:38:11.284Z</time></trkpt><trkpt lat="45.4555495" lon="7.7118728"><ele>955.6666666666667</ele><time>2026-04-25T13:38:13.283Z</time></trkpt><trkpt lat="45.4556077" lon="7.7119358"><ele>955.5</ele><time>2026-04-25T13:38:15.272Z</time></trkpt><trkpt lat="45.4556907" lon="7.7119752"><ele>955.3333333333333</ele><time>2026-04-25T13:38:17.284Z</time></trkpt><trkpt lat="45.4557755" lon="7.7119937"><ele>955.1666666666666</ele><time>2026-04-25T13:38:19.28Z</time></trkpt><trkpt lat="45.4558563" lon="7.7120105"><ele>955.0</ele><time>2026-04-25T13:38:21.275Z</time></trkpt><trkpt lat="45.4559266" lon="7.711898"><ele>954.9999999999999</ele><time>2026-04-25T13:38:24.284Z</time></trkpt><trkpt lat="45.4559858" lon="7.7118259"><ele>955.0</ele><time>2026-04-25T13:38:26.277Z</time></trkpt><trkpt lat="45.4560416" lon="7.7118953"><ele>955.0</ele><time>2026-04-25T13:38:51.294Z</time></trkpt><trkpt lat="45.456052" lon="7.7120263"><ele>955.0</ele><time>2026-04-25T13:38:54.296Z</time></trkpt><trkpt lat="45.4560383" lon="7.7121372"><ele>954.9999999999999</ele><time>2026-04-25T13:38:57.295Z</time></trkpt><trkpt lat="45.4559624" lon="7.7121616"><ele>955.0</ele><time>2026-04-25T13:39:00.299Z</time></trkpt><trkpt lat="45.4558813" lon="7.7121884"><ele>953.6666666666666</ele><time>2026-04-25T13:39:03.288Z</time></trkpt><trkpt lat="45.4558153" lon="7.7122465"><ele>952.3333333333333</ele><time>2026-04-25T13:39:07.291Z</time></trkpt><trkpt lat="45.455788" lon="7.7123504"><ele>951.0</ele><time>2026-04-25T13:39:10.289Z</time></trkpt><trkpt lat="45.4557884" lon="7.7124703"><ele>949.6666666666667</ele><time>2026-04-25T13:39:12.29Z</time></trkpt><trkpt lat="45.4557956" lon="7.7125806"><ele>948.3333333333334</ele><time>2026-04-25T13:39:14.287Z</time></trkpt><trkpt lat="45.4557924" lon="7.7126957"><ele>947.0</ele><time>2026-04-25T13:39:16.287Z</time></trkpt><trkpt lat="45.4557542" lon="7.7128117"><ele>946.2</ele><time>2026-04-25T13:39:18.286Z</time></trkpt><trkpt lat="45.4557149" lon="7.7129172"><ele>945.4000000000001</ele><time>2026-04-25T13:39:20.291Z</time></trkpt><trkpt lat="45.4556602" lon="7.7130279"><ele>944.5999999999999</ele><time>2026-04-25T13:39:22.296Z</time></trkpt><trkpt lat="45.4555964" lon="7.7131506"><ele>943.8</ele><time>2026-04-25T13:39:24.287Z</time></trkpt><trkpt lat="45.4555666" lon="7.7133152"><ele>943.0</ele><time>2026-04-25T13:39:26.284Z</time></trkpt><trkpt lat="45.4555737" lon="7.713405"><ele>942.9999999999999</ele><time>2026-04-25T13:39:27.276Z</time></trkpt><trkpt lat="45.4555954" lon="7.7134952"><ele>943.0</ele><time>2026-04-25T13:39:28.286Z</time></trkpt><trkpt lat="45.4556365" lon="7.7135777"><ele>943.0</ele><time>2026-04-25T13:39:29.283Z</time></trkpt><trkpt lat="45.4556828" lon="7.7136613"><ele>943.0</ele><time>2026-04-25T13:39:30.278Z</time></trkpt><trkpt lat="45.4557332" lon="7.7137558"><ele>942.9999999999999</ele><time>2026-04-25T13:39:31.279Z</time></trkpt><trkpt lat="45.4558074" lon="7.7138716"><ele>943.0</ele><time>2026-04-25T13:39:32.278Z</time></trkpt><trkpt lat="45.4558771" lon="7.7139839"><ele>942.6666666666666</ele><time>2026-04-25T13:39:33.28Z</time></trkpt><trkpt lat="45.4559287" lon="7.7140859"><ele>942.3333333333333</ele><time>2026-04-25T13:39:34.274Z</time></trkpt><trkpt lat="45.4559694" lon="7.7141869"><ele>942.0</ele><time>2026-04-25T13:39:35.282Z</time></trkpt><trkpt lat="45.4560153" lon="7.7142961"><ele>941.6666666666667</ele><time>2026-04-25T13:39:36.283Z</time></trkpt><trkpt lat="45.4560621" lon="7.7143934"><ele>941.3333333333334</ele><time>2026-04-25T13:39:37.279Z</time></trkpt><trkpt lat="45.456115" lon="7.7144838"><ele>941.0</ele><time>2026-04-25T13:39:38.287Z</time></trkpt><trkpt lat="45.4561681" lon="7.7145622"><ele>940.1666666666667</ele><time>2026-04-25T13:39:39.28Z</time></trkpt><trkpt lat="45.4562261" lon="7.7146346"><ele>939.3333333333334</ele><time>2026-04-25T13:39:40.285Z</time></trkpt><trkpt lat="45.4562711" lon="7.7147015"><ele>938.5</ele><time>2026-04-25T13:39:41.276Z</time></trkpt><trkpt lat="45.4563473" lon="7.7147737"><ele>937.6666666666667</ele><time>2026-04-25T13:39:43.281Z</time></trkpt><trkpt lat="45.4564675" lon="7.7147651"><ele>936.8333333333334</ele><time>2026-04-25T13:39:45.289Z</time></trkpt><trkpt lat="45.4565304" lon="7.7147447"><ele>936.0</ele><time>2026-04-25T13:39:46.28Z</time></trkpt><trkpt lat="45.456625" lon="7.7147112"><ele>935.5999999999999</ele><time>2026-04-25T13:39:48.279Z</time></trkpt><trkpt lat="45.456751" lon="7.7147411"><ele>935.1999999999999</ele><time>2026-04-25T13:39:50.283Z</time></trkpt><trkpt lat="45.4568644" lon="7.7146784"><ele>934.8000000000001</ele><time>2026-04-25T13:39:52.281Z</time></trkpt><trkpt lat="45.4569255" lon="7.7146279"><ele>934.4000000000001</ele><time>2026-04-25T13:39:53.282Z</time></trkpt><trkpt lat="45.4570217" lon="7.7146228"><ele>934.0</ele><time>2026-04-25T13:39:55.275Z</time></trkpt><trkpt lat="45.4570977" lon="7.7146945"><ele>933.1666666666666</ele><time>2026-04-25T13:39:57.28Z</time></trkpt><trkpt lat="45.4571288" lon="7.7147824"><ele>932.3333333333333</ele><time>2026-04-25T13:40:48.286Z</time></trkpt><trkpt lat="45.4571845" lon="7.7148507"><ele>931.5</ele><time>2026-04-25T13:40:50.28Z</time></trkpt><trkpt lat="45.4573035" lon="7.7149546"><ele>930.6666666666667</ele><time>2026-04-25T13:40:52.288Z</time></trkpt><trkpt lat="45.4573641" lon="7.7149867"><ele>929.8333333333334</ele><time>2026-04-25T13:40:53.289Z</time></trkpt><trkpt lat="45.457432" lon="7.7150932"><ele>929.0</ele><time>2026-04-25T13:40:55.288Z</time></trkpt><trkpt lat="45.4574767" lon="7.7152502"><ele>929.0</ele><time>2026-04-25T13:40:57.272Z</time></trkpt><trkpt lat="45.4575524" lon="7.7153247"><ele>929.0</ele><time>2026-04-25T13:40:59.274Z</time></trkpt><trkpt lat="45.4577129" lon="7.7153011"><ele>929.0</ele><time>2026-04-25T13:41:01.285Z</time></trkpt><trkpt lat="45.4578365" lon="7.7153042"><ele>929.0</ele><time>2026-04-25T13:41:02.27Z</time></trkpt><trkpt lat="45.4579601" lon="7.7153137"><ele>926.3333333333334</ele><time>2026-04-25T13:41:03.277Z</time></trkpt><trkpt lat="45.4580619" lon="7.71534"><ele>923.6666666666667</ele><time>2026-04-25T13:41:04.276Z</time></trkpt><trkpt lat="45.4581586" lon="7.7153608"><ele>921.0</ele><time>2026-04-25T13:41:05.28Z</time></trkpt><trkpt lat="45.4582281" lon="7.7154193"><ele>918.3333333333333</ele><time>2026-04-25T13:41:06.281Z</time></trkpt><trkpt lat="45.4582653" lon="7.7154959"><ele>915.6666666666666</ele><time>2026-04-25T13:41:07.285Z</time></trkpt><trkpt lat="45.4582877" lon="7.7156072"><ele>913.0</ele><time>2026-04-25T13:41:08.281Z</time></trkpt><trkpt lat="45.4582929" lon="7.7157131"><ele>913.0</ele><time>2026-04-25T13:41:09.284Z</time></trkpt><trkpt lat="45.4582842" lon="7.7158191"><ele>913.0</ele><time>2026-04-25T13:41:10.287Z</time></trkpt><trkpt lat="45.4582533" lon="7.7159367"><ele>913.0</ele><time>2026-04-25T13:41:11.293Z</time></trkpt><trkpt lat="45.4582132" lon="7.716083"><ele>913.0</ele><time>2026-04-25T13:41:12.278Z</time></trkpt><trkpt lat="45.4581408" lon="7.7162519"><ele>913.0</ele><time>2026-04-25T13:41:13.279Z</time></trkpt><trkpt lat="45.458103" lon="7.7164452"><ele>912.0</ele><time>2026-04-25T13:41:14.279Z</time></trkpt><trkpt lat="45.4580625" lon="7.7166089"><ele>911.0</ele><time>2026-04-25T13:41:15.274Z</time></trkpt><trkpt lat="45.4580391" lon="7.7167762"><ele>910.0</ele><time>2026-04-25T13:41:16.271Z</time></trkpt><trkpt lat="45.4580436" lon="7.7169276"><ele>909.0</ele><time>2026-04-25T13:41:17.271Z</time></trkpt><trkpt lat="45.4580539" lon="7.7170579"><ele>908.0</ele><time>2026-04-25T13:41:18.273Z</time></trkpt><trkpt lat="45.4580965" lon="7.7171738"><ele>907.6666666666667</ele><time>2026-04-25T13:41:19.273Z</time></trkpt><trkpt lat="45.4581633" lon="7.7172813"><ele>907.3333333333334</ele><time>2026-04-25T13:41:20.275Z</time></trkpt><trkpt lat="45.4582213" lon="7.7173651"><ele>907.0</ele><time>2026-04-25T13:41:21.278Z</time></trkpt><trkpt lat="45.458282" lon="7.7174588"><ele>906.6666666666667</ele><time>2026-04-25T13:41:22.268Z</time></trkpt><trkpt lat="45.4582977" lon="7.7175474"><ele>906.3333333333334</ele><time>2026-04-25T13:41:23.27Z</time></trkpt><trkpt lat="45.4582992" lon="7.7176451"><ele>906.0</ele><time>2026-04-25T13:41:24.269Z</time></trkpt><trkpt lat="45.4582882" lon="7.7177681"><ele>903.75</ele><time>2026-04-25T13:41:25.286Z</time></trkpt><trkpt lat="45.4582727" lon="7.7179232"><ele>901.5</ele><time>2026-04-25T13:41:26.273Z</time></trkpt><trkpt lat="45.4582579" lon="7.7180795"><ele>899.25</ele><time>2026-04-25T13:41:27.278Z</time></trkpt><trkpt lat="45.4582141" lon="7.7182294"><ele>897.0</ele><time>2026-04-25T13:41:28.279Z</time></trkpt><trkpt lat="45.4581546" lon="7.7183828"><ele>897.0</ele><time>2026-04-25T13:41:29.275Z</time></trkpt><trkpt lat="45.4580891" lon="7.718528"><ele>897.0</ele><time>2026-04-25T13:41:30.273Z</time></trkpt><trkpt lat="45.4580143" lon="7.7186626"><ele>897.0</ele><time>2026-04-25T13:41:31.273Z</time></trkpt><trkpt lat="45.4579276" lon="7.718758"><ele>897.0</ele><time>2026-04-25T13:41:32.277Z</time></trkpt><trkpt lat="45.4578435" lon="7.7188234"><ele>897.0</ele><time>2026-04-25T13:41:33.269Z</time></trkpt><trkpt lat="45.4577794" lon="7.7188639"><ele>897.3333333333334</ele><time>2026-04-25T13:41:34.272Z</time></trkpt><trkpt lat="45.4577151" lon="7.7188668"><ele>897.6666666666667</ele><time>2026-04-25T13:41:35.267Z</time></trkpt><trkpt lat="45.4576416" lon="7.7188402"><ele>898.0</ele><time>2026-04-25T13:41:36.265Z</time></trkpt><trkpt lat="45.4575565" lon="7.7188045"><ele>898.3333333333334</ele><time>2026-04-25T13:41:37.256Z</time></trkpt><trkpt lat="45.4574678" lon="7.7187374"><ele>898.6666666666667</ele><time>2026-04-25T13:41:38.26Z</time></trkpt><trkpt lat="45.4573865" lon="7.7186928"><ele>899.0</ele><time>2026-04-25T13:41:39.259Z</time></trkpt><trkpt lat="45.4573144" lon="7.7186609"><ele>899.0</ele><time>2026-04-25T13:41:40.262Z</time></trkpt><trkpt lat="45.4572427" lon="7.7186491"><ele>899.0000000000001</ele><time>2026-04-25T13:41:41.258Z</time></trkpt><trkpt lat="45.4571657" lon="7.718696"><ele>899.0000000000001</ele><time>2026-04-25T13:41:42.271Z</time></trkpt><trkpt lat="45.457085" lon="7.7187765"><ele>899.0</ele><time>2026-04-25T13:41:43.263Z</time></trkpt><trkpt lat="45.4570033" lon="7.7188895"><ele>899.0</ele><time>2026-04-25T13:41:44.261Z</time></trkpt><trkpt lat="45.4569126" lon="7.7190024"><ele>901.25</ele><time>2026-04-25T13:41:45.258Z</time></trkpt><trkpt lat="45.4568113" lon="7.7191208"><ele>903.5</ele><time>2026-04-25T13:41:46.262Z</time></trkpt><trkpt lat="45.456713" lon="7.7192503"><ele>905.75</ele><time>2026-04-25T13:41:47.27Z</time></trkpt><trkpt lat="45.4566525" lon="7.719379"><ele>908.0</ele><time>2026-04-25T13:41:48.262Z</time></trkpt><trkpt lat="45.4566062" lon="7.7195138"><ele>908.0</ele><time>2026-04-25T13:41:49.267Z</time></trkpt><trkpt lat="45.4565559" lon="7.719675"><ele>908.0</ele><time>2026-04-25T13:41:50.266Z</time></trkpt><trkpt lat="45.4565071" lon="7.7198405"><ele>908.0</ele><time>2026-04-25T13:41:51.27Z</time></trkpt><trkpt lat="45.4564806" lon="7.7199867"><ele>908.0</ele><time>2026-04-25T13:41:52.277Z</time></trkpt><trkpt lat="45.4564375" lon="7.7201251"><ele>906.2</ele><time>2026-04-25T13:41:53.275Z</time></trkpt><trkpt lat="45.4563871" lon="7.7202575"><ele>904.4</ele><time>2026-04-25T13:41:54.274Z</time></trkpt><trkpt lat="45.4563277" lon="7.7203827"><ele>902.6000000000001</ele><time>2026-04-25T13:41:55.276Z</time></trkpt><trkpt lat="45.4562613" lon="7.7204918"><ele>900.8000000000001</ele><time>2026-04-25T13:41:56.273Z</time></trkpt><trkpt lat="45.4561647" lon="7.720563"><ele>899.0</ele><time>2026-04-25T13:41:57.266Z</time></trkpt><trkpt lat="45.4560597" lon="7.7206054"><ele>899.0</ele><time>2026-04-25T13:41:58.266Z</time></trkpt><trkpt lat="45.4559478" lon="7.7206507"><ele>899.0</ele><time>2026-04-25T13:41:59.271Z</time></trkpt><trkpt lat="45.4558311" lon="7.7206854"><ele>899.0</ele><time>2026-04-25T13:42:00.268Z</time></trkpt><trkpt lat="45.4557107" lon="7.7207139"><ele>899.0</ele><time>2026-04-25T13:42:01.269Z</time></trkpt><trkpt lat="45.455584" lon="7.7207682"><ele>899.0</ele><time>2026-04-25T13:42:02.265Z</time></trkpt><trkpt lat="45.4554542" lon="7.7207912"><ele>899.0000000000001</ele><time>2026-04-25T13:42:03.269Z</time></trkpt><trkpt lat="45.4553415" lon="7.7208359"><ele>899.0000000000001</ele><time>2026-04-25T13:42:04.267Z</time></trkpt><trkpt lat="45.4552645" lon="7.7208721"><ele>899.0</ele><time>2026-04-25T13:42:05.266Z</time></trkpt><trkpt lat="45.4551789" lon="7.7209046"><ele>899.0</ele><time>2026-04-25T13:42:06.263Z</time></trkpt><trkpt lat="45.4550732" lon="7.7209217"><ele>900.2</ele><time>2026-04-25T13:42:07.27Z</time></trkpt><trkpt lat="45.4549467" lon="7.7209185"><ele>901.4000000000001</ele><time>2026-04-25T13:42:08.272Z</time></trkpt><trkpt lat="45.4548446" lon="7.7209211"><ele>902.6</ele><time>2026-04-25T13:42:09.268Z</time></trkpt><trkpt lat="45.4547409" lon="7.7209236"><ele>903.8</ele><time>2026-04-25T13:42:10.264Z</time></trkpt><trkpt lat="45.4546318" lon="7.7209027"><ele>905.0</ele><time>2026-04-25T13:42:11.268Z</time></trkpt><trkpt lat="45.4545358" lon="7.7208622"><ele>902.5000000000001</ele><time>2026-04-25T13:42:12.28Z</time></trkpt><trkpt lat="45.4544425" lon="7.7208188"><ele>900.0</ele><time>2026-04-25T13:42:13.275Z</time></trkpt><trkpt lat="45.4543764" lon="7.7207855"><ele>897.5</ele><time>2026-04-25T13:42:14.268Z</time></trkpt><trkpt lat="45.4543233" lon="7.7207337"><ele>895.0</ele><time>2026-04-25T13:42:15.27Z</time></trkpt><trkpt lat="45.4542699" lon="7.7206678"><ele>892.5000000000001</ele><time>2026-04-25T13:42:16.263Z</time></trkpt><trkpt lat="45.4542389" lon="7.7205209"><ele>890.0</ele><time>2026-04-25T13:42:18.269Z</time></trkpt><trkpt lat="45.4542461" lon="7.7204097"><ele>890.0</ele><time>2026-04-25T13:42:19.265Z</time></trkpt><trkpt lat="45.4542192" lon="7.7202856"><ele>890.0</ele><time>2026-04-25T13:42:20.267Z</time></trkpt><trkpt lat="45.454197" lon="7.7201625"><ele>890.0</ele><time>2026-04-25T13:42:21.268Z</time></trkpt><trkpt lat="45.4541225" lon="7.7200542"><ele>890.0</ele><time>2026-04-25T13:42:23.254Z</time></trkpt><trkpt lat="45.4539732" lon="7.7200607"><ele>890.0</ele><time>2026-04-25T13:42:25.252Z</time></trkpt><trkpt lat="45.4538776" lon="7.7200525"><ele>889.75</ele><time>2026-04-25T13:42:26.26Z</time></trkpt><trkpt lat="45.4537684" lon="7.7200153"><ele>889.5</ele><time>2026-04-25T13:42:27.256Z</time></trkpt><trkpt lat="45.4536553" lon="7.7199931"><ele>889.25</ele><time>2026-04-25T13:42:28.267Z</time></trkpt><trkpt lat="45.453537" lon="7.7199589"><ele>889.0</ele><time>2026-04-25T13:42:29.256Z</time></trkpt><trkpt lat="45.453427" lon="7.7199349"><ele>888.9999999999999</ele><time>2026-04-25T13:42:30.258Z</time></trkpt><trkpt lat="45.4533373" lon="7.7198735"><ele>889.0</ele><time>2026-04-25T13:42:31.265Z</time></trkpt><trkpt lat="45.453283" lon="7.7198278"><ele>889.0</ele><time>2026-04-25T13:42:32.262Z</time></trkpt><trkpt lat="45.4532148" lon="7.7198392"><ele>889.0</ele><time>2026-04-25T13:42:34.265Z</time></trkpt><trkpt lat="45.4532285" lon="7.7199932"><ele>888.9999999999999</ele><time>2026-04-25T13:42:36.262Z</time></trkpt><trkpt lat="45.4532607" lon="7.7200916"><ele>889.0</ele><time>2026-04-25T13:42:37.261Z</time></trkpt><trkpt lat="45.4533049" lon="7.7202037"><ele>885.0</ele><time>2026-04-25T13:42:38.27Z</time></trkpt><trkpt lat="45.4533705" lon="7.7203055"><ele>881.0000000000001</ele><time>2026-04-25T13:42:39.262Z</time></trkpt><trkpt lat="45.4534429" lon="7.7203847"><ele>877.0000000000001</ele><time>2026-04-25T13:42:40.267Z</time></trkpt><trkpt lat="45.453508" lon="7.7204552"><ele>873.0</ele><time>2026-04-25T13:42:41.264Z</time></trkpt><trkpt lat="45.4535793" lon="7.720511"><ele>869.0</ele><time>2026-04-25T13:42:42.26Z</time></trkpt><trkpt lat="45.4536421" lon="7.7206279"><ele>869.0</ele><time>2026-04-25T13:42:44.263Z</time></trkpt><trkpt lat="45.4536819" lon="7.7207322"><ele>869.0000000000001</ele><time>2026-04-25T13:42:46.254Z</time></trkpt><trkpt lat="45.4536737" lon="7.7208319"><ele>869.0000000000001</ele><time>2026-04-25T13:42:48.261Z</time></trkpt><trkpt lat="45.4535747" lon="7.7209517"><ele>869.0</ele><time>2026-04-25T13:42:50.25Z</time></trkpt><trkpt lat="45.4535217" lon="7.7210107"><ele>869.0</ele><time>2026-04-25T13:42:51.26Z</time></trkpt><trkpt lat="45.4533857" lon="7.72112"><ele>868.5</ele><time>2026-04-25T13:42:53.257Z</time></trkpt><trkpt lat="45.4533121" lon="7.7212165"><ele>868.0</ele><time>2026-04-25T13:42:54.254Z</time></trkpt><trkpt lat="45.4532567" lon="7.7213419"><ele>867.5</ele><time>2026-04-25T13:42:55.251Z</time></trkpt><trkpt lat="45.4531875" lon="7.7214948"><ele>867.0</ele><time>2026-04-25T13:42:56.253Z</time></trkpt><trkpt lat="45.4531049" lon="7.7216215"><ele>867.0</ele><time>2026-04-25T13:42:57.258Z</time></trkpt><trkpt lat="45.4530266" lon="7.7217291"><ele>867.0</ele><time>2026-04-25T13:42:58.257Z</time></trkpt><trkpt lat="45.4529681" lon="7.7218473"><ele>867.0</ele><time>2026-04-25T13:42:59.269Z</time></trkpt><trkpt lat="45.4529194" lon="7.7219794"><ele>867.0</ele><time>2026-04-25T13:43:00.263Z</time></trkpt><trkpt lat="45.4528779" lon="7.7220961"><ele>867.0</ele><time>2026-04-25T13:43:01.257Z</time></trkpt><trkpt lat="45.4528527" lon="7.7221903"><ele>862.6666666666666</ele><time>2026-04-25T13:43:02.253Z</time></trkpt><trkpt lat="45.4528144" lon="7.7222753"><ele>858.3333333333333</ele><time>2026-04-25T13:43:04.259Z</time></trkpt><trkpt lat="45.452748" lon="7.7221876"><ele>854.0</ele><time>2026-04-25T13:43:06.258Z</time></trkpt><trkpt lat="45.4527061" lon="7.7220506"><ele>849.6666666666666</ele><time>2026-04-25T13:43:08.262Z</time></trkpt><trkpt lat="45.4526673" lon="7.7219629"><ele>845.3333333333333</ele><time>2026-04-25T13:43:39.275Z</time></trkpt><trkpt lat="45.4526326" lon="7.7218821"><ele>841.0</ele><time>2026-04-25T13:44:39.293Z</time></trkpt><trkpt lat="45.4526696" lon="7.7217943"><ele>840.9999999999999</ele><time>2026-04-25T13:44:54.283Z</time></trkpt><trkpt lat="45.4526281" lon="7.7217134"><ele>841.0</ele><time>2026-04-25T13:46:40.262Z</time></trkpt><trkpt lat="45.4525618" lon="7.7217302"><ele>841.0</ele><time>2026-04-25T13:49:05.254Z</time></trkpt><trkpt lat="45.4524939" lon="7.7218032"><ele>841.0</ele><time>2026-04-25T13:50:10.254Z</time></trkpt><trkpt lat="45.4524299" lon="7.7219197"><ele>840.9999999999999</ele><time>2026-04-25T13:50:12.252Z</time></trkpt><trkpt lat="45.4523809" lon="7.7219992"><ele>841.0</ele><time>2026-04-25T13:50:13.255Z</time></trkpt><trkpt lat="45.4523309" lon="7.7220639"><ele>841.0</ele><time>2026-04-25T13:50:14.251Z</time></trkpt><trkpt lat="45.4522432" lon="7.7222242"><ele>841.0</ele><time>2026-04-25T13:50:16.251Z</time></trkpt><trkpt lat="45.4521939" lon="7.7223463"><ele>841.0</ele><time>2026-04-25T13:50:17.245Z</time></trkpt><trkpt lat="45.4521477" lon="7.7224575"><ele>841.0</ele><time>2026-04-25T13:50:18.245Z</time></trkpt><trkpt lat="45.4521205" lon="7.7225721"><ele>841.0</ele><time>2026-04-25T13:50:19.246Z</time></trkpt><trkpt lat="45.4521223" lon="7.722694"><ele>838.0</ele><time>2026-04-25T13:50:20.253Z</time></trkpt><trkpt lat="45.4521848" lon="7.7228118"><ele>835.0</ele><time>2026-04-25T13:50:22.243Z</time></trkpt><trkpt lat="45.4522434" lon="7.7228732"><ele>832.0</ele><time>2026-04-25T13:50:23.26Z</time></trkpt><trkpt lat="45.4523073" lon="7.7229223"><ele>829.0</ele><time>2026-04-25T13:50:24.248Z</time></trkpt><trkpt lat="45.4524038" lon="7.7230291"><ele>826.0</ele><time>2026-04-25T13:50:26.241Z</time></trkpt><trkpt lat="45.4524575" lon="7.7232225"><ele>825.9999999999999</ele><time>2026-04-25T13:50:28.247Z</time></trkpt><trkpt lat="45.4524635" lon="7.7233646"><ele>826.0</ele><time>2026-04-25T13:50:29.244Z</time></trkpt><trkpt lat="45.452467" lon="7.723475"><ele>826.0</ele><time>2026-04-25T13:50:30.243Z</time></trkpt><trkpt lat="45.4524786" lon="7.7236138"><ele>826.0</ele><time>2026-04-25T13:50:31.248Z</time></trkpt><trkpt lat="45.4524983" lon="7.7237365"><ele>825.9999999999999</ele><time>2026-04-25T13:50:32.245Z</time></trkpt><trkpt lat="45.4525027" lon="7.7238401"><ele>826.0</ele><time>2026-04-25T13:50:33.245Z</time></trkpt><trkpt lat="45.452508" lon="7.7239572"><ele>823.3333333333333</ele><time>2026-04-25T13:50:34.243Z</time></trkpt><trkpt lat="45.4525156" lon="7.7240577"><ele>820.6666666666666</ele><time>2026-04-25T13:50:35.245Z</time></trkpt><trkpt lat="45.452531" lon="7.7241467"><ele>818.0</ele><time>2026-04-25T13:50:36.249Z</time></trkpt><trkpt lat="45.4525586" lon="7.7242477"><ele>815.3333333333333</ele><time>2026-04-25T13:50:37.253Z</time></trkpt><trkpt lat="45.4526216" lon="7.7243633"><ele>812.6666666666666</ele><time>2026-04-25T13:50:38.243Z</time></trkpt><trkpt lat="45.4526862" lon="7.7244892"><ele>810.0</ele><time>2026-04-25T13:50:39.25Z</time></trkpt><trkpt lat="45.4527495" lon="7.7246263"><ele>807.2</ele><time>2026-04-25T13:50:40.254Z</time></trkpt><trkpt lat="45.4527973" lon="7.724755"><ele>804.4</ele><time>2026-04-25T13:50:41.256Z</time></trkpt><trkpt lat="45.4528532" lon="7.7248567"><ele>801.5999999999999</ele><time>2026-04-25T13:50:42.249Z</time></trkpt><trkpt lat="45.4529173" lon="7.7249444"><ele>798.8</ele><time>2026-04-25T13:50:43.255Z</time></trkpt><trkpt lat="45.4529886" lon="7.7250259"><ele>796.0</ele><time>2026-04-25T13:50:44.261Z</time></trkpt><trkpt lat="45.4530599" lon="7.7251081"><ele>795.8</ele><time>2026-04-25T13:50:45.256Z</time></trkpt><trkpt lat="45.4531168" lon="7.7251947"><ele>795.5999999999999</ele><time>2026-04-25T13:50:46.255Z</time></trkpt><trkpt lat="45.4531683" lon="7.7253196"><ele>795.4</ele><time>2026-04-25T13:50:48.264Z</time></trkpt><trkpt lat="45.4531038" lon="7.725434"><ele>795.2</ele><time>2026-04-25T13:50:50.251Z</time></trkpt><trkpt lat="45.4530351" lon="7.7254513"><ele>795.0</ele><time>2026-04-25T13:50:51.255Z</time></trkpt><trkpt lat="45.4529174" lon="7.7254071"><ele>789.6666666666667</ele><time>2026-04-25T13:50:52.252Z</time></trkpt><trkpt lat="45.4527663" lon="7.7253441"><ele>784.3333333333334</ele><time>2026-04-25T13:50:53.244Z</time></trkpt><trkpt lat="45.4525955" lon="7.7253024"><ele>779.0</ele><time>2026-04-25T13:50:54.267Z</time></trkpt><trkpt lat="45.4524399" lon="7.7252804"><ele>779.0</ele><time>2026-04-25T13:50:55.261Z</time></trkpt><trkpt lat="45.4522888" lon="7.725236"><ele>779.0</ele><time>2026-04-25T13:50:56.262Z</time></trkpt><trkpt lat="45.4521644" lon="7.7251873"><ele>779.0</ele><time>2026-04-25T13:50:57.257Z</time></trkpt><trkpt lat="45.4520472" lon="7.725122"><ele>779.0</ele><time>2026-04-25T13:50:58.264Z</time></trkpt><trkpt lat="45.4519301" lon="7.7250605"><ele>778.5</ele><time>2026-04-25T13:50:59.263Z</time></trkpt><trkpt lat="45.4518198" lon="7.7250214"><ele>778.0</ele><time>2026-04-25T13:51:00.254Z</time></trkpt><trkpt lat="45.4517039" lon="7.72499"><ele>777.5</ele><time>2026-04-25T13:51:01.254Z</time></trkpt><trkpt lat="45.4515896" lon="7.7249896"><ele>777.0</ele><time>2026-04-25T13:51:02.254Z</time></trkpt><trkpt lat="45.4514795" lon="7.7249934"><ele>777.0</ele><time>2026-04-25T13:51:03.253Z</time></trkpt><trkpt lat="45.4513907" lon="7.724985"><ele>777.0</ele><time>2026-04-25T13:51:04.251Z</time></trkpt><trkpt lat="45.4512919" lon="7.7249826"><ele>777.0</ele><time>2026-04-25T13:51:05.244Z</time></trkpt><trkpt lat="45.4512256" lon="7.7249752"><ele>777.0</ele><time>2026-04-25T13:51:06.231Z</time></trkpt><trkpt lat="45.4511663" lon="7.7250193"><ele>777.0</ele><time>2026-04-25T13:51:08.239Z</time></trkpt><trkpt lat="45.4512202" lon="7.7251311"><ele>777.0</ele><time>2026-04-25T13:51:10.238Z</time></trkpt><trkpt lat="45.4513612" lon="7.7252269"><ele>774.4000000000001</ele><time>2026-04-25T13:51:12.24Z</time></trkpt><trkpt lat="45.4515068" lon="7.7253183"><ele>771.8000000000001</ele><time>2026-04-25T13:51:14.24Z</time></trkpt><trkpt lat="45.4516075" lon="7.7253702"><ele>769.2</ele><time>2026-04-25T13:51:15.25Z</time></trkpt><trkpt lat="45.451682" lon="7.7254345"><ele>766.6</ele><time>2026-04-25T13:51:16.248Z</time></trkpt><trkpt lat="45.4517361" lon="7.7255159"><ele>764.0</ele><time>2026-04-25T13:51:17.24Z</time></trkpt><trkpt lat="45.4517853" lon="7.725634"><ele>764.0</ele><time>2026-04-25T13:51:18.238Z</time></trkpt><trkpt lat="45.451843" lon="7.7257563"><ele>764.0</ele><time>2026-04-25T13:51:19.242Z</time></trkpt><trkpt lat="45.4518846" lon="7.7258741"><ele>764.0</ele><time>2026-04-25T13:51:20.249Z</time></trkpt><trkpt lat="45.4519396" lon="7.7260209"><ele>764.0</ele><time>2026-04-25T13:51:21.247Z</time></trkpt><trkpt lat="45.4520183" lon="7.7261515"><ele>764.0</ele><time>2026-04-25T13:51:22.254Z</time></trkpt><trkpt lat="45.4520848" lon="7.7262539"><ele>764.8333333333333</ele><time>2026-04-25T13:51:23.25Z</time></trkpt><trkpt lat="45.4521558" lon="7.7263361"><ele>765.6666666666666</ele><time>2026-04-25T13:51:24.249Z</time></trkpt><trkpt lat="45.4522251" lon="7.726392"><ele>766.5</ele><time>2026-04-25T13:51:25.251Z</time></trkpt><trkpt lat="45.4522937" lon="7.7264511"><ele>767.3333333333333</ele><time>2026-04-25T13:51:26.245Z</time></trkpt><trkpt lat="45.452352" lon="7.7265383"><ele>768.1666666666666</ele><time>2026-04-25T13:51:27.244Z</time></trkpt><trkpt lat="45.452386" lon="7.7266344"><ele>769.0</ele><time>2026-04-25T13:51:28.249Z</time></trkpt><trkpt lat="45.4523599" lon="7.7268018"><ele>766.9999999999999</ele><time>2026-04-25T13:51:30.264Z</time></trkpt><trkpt lat="45.4523061" lon="7.726912"><ele>765.0</ele><time>2026-04-25T13:51:31.256Z</time></trkpt><trkpt lat="45.4522655" lon="7.7270117"><ele>763.0</ele><time>2026-04-25T13:51:32.255Z</time></trkpt><trkpt lat="45.4522501" lon="7.727102"><ele>761.0</ele><time>2026-04-25T13:51:33.251Z</time></trkpt><trkpt lat="45.452264" lon="7.7271976"><ele>759.0</ele><time>2026-04-25T13:51:34.254Z</time></trkpt><trkpt lat="45.4523135" lon="7.7272755"><ele>757.0</ele><time>2026-04-25T13:51:35.257Z</time></trkpt><trkpt lat="45.4523905" lon="7.7273372"><ele>757.0</ele><time>2026-04-25T13:51:36.252Z</time></trkpt><trkpt lat="45.4524985" lon="7.727397"><ele>757.0</ele><time>2026-04-25T13:51:37.255Z</time></trkpt><trkpt lat="45.4525942" lon="7.7274679"><ele>757.0</ele><time>2026-04-25T13:51:38.255Z</time></trkpt><trkpt lat="45.4526692" lon="7.7275433"><ele>757.0</ele><time>2026-04-25T13:51:39.255Z</time></trkpt><trkpt lat="45.4527184" lon="7.7276313"><ele>757.0</ele><time>2026-04-25T13:51:40.252Z</time></trkpt><trkpt lat="45.4527514" lon="7.7277537"><ele>753.25</ele><time>2026-04-25T13:51:41.251Z</time></trkpt><trkpt lat="45.4527714" lon="7.7279328"><ele>749.5</ele><time>2026-04-25T13:51:42.24Z</time></trkpt><trkpt lat="45.4527857" lon="7.7281087"><ele>745.75</ele><time>2026-04-25T13:51:43.239Z</time></trkpt><trkpt lat="45.4528139" lon="7.7282815"><ele>742.0</ele><time>2026-04-25T13:51:44.244Z</time></trkpt><trkpt lat="45.4528658" lon="7.7284107"><ele>742.0</ele><time>2026-04-25T13:51:45.25Z</time></trkpt><trkpt lat="45.4529128" lon="7.728496"><ele>742.0</ele><time>2026-04-25T13:51:46.245Z</time></trkpt><trkpt lat="45.4528207" lon="7.7285529"><ele>742.0</ele><time>2026-04-25T13:51:50.238Z</time></trkpt><trkpt lat="45.4527474" lon="7.7285087"><ele>742.0</ele><time>2026-04-25T13:51:51.248Z</time></trkpt><trkpt lat="45.4526685" lon="7.7284087"><ele>742.0</ele><time>2026-04-25T13:51:52.245Z</time></trkpt><trkpt lat="45.4525805" lon="7.7282578"><ele>742.0</ele><time>2026-04-25T13:51:53.252Z</time></trkpt><trkpt lat="45.4524902" lon="7.7280816"><ele>742.0</ele><time>2026-04-25T13:51:54.241Z</time></trkpt><trkpt lat="45.4524025" lon="7.7279402"><ele>742.0</ele><time>2026-04-25T13:51:55.24Z</time></trkpt><trkpt lat="45.452334" lon="7.7278354"><ele>742.0</ele><time>2026-04-25T13:51:56.236Z</time></trkpt><trkpt lat="45.4522585" lon="7.727754"><ele>742.8</ele><time>2026-04-25T13:51:57.235Z</time></trkpt><trkpt lat="45.4521707" lon="7.7277016"><ele>743.6</ele><time>2026-04-25T13:51:58.228Z</time></trkpt><trkpt lat="45.4520637" lon="7.7276806"><ele>744.4</ele><time>2026-04-25T13:51:59.241Z</time></trkpt><trkpt lat="45.4519503" lon="7.7277022"><ele>745.1999999999999</ele><time>2026-04-25T13:52:00.23Z</time></trkpt><trkpt lat="45.4518384" lon="7.7277525"><ele>746.0</ele><time>2026-04-25T13:52:01.242Z</time></trkpt><trkpt lat="45.4517466" lon="7.7277787"><ele>742.8</ele><time>2026-04-25T13:52:02.223Z</time></trkpt><trkpt lat="45.4516798" lon="7.727831"><ele>739.5999999999999</ele><time>2026-04-25T13:52:03.227Z</time></trkpt><trkpt lat="45.451687" lon="7.7279219"><ele>736.4</ele><time>2026-04-25T13:52:05.239Z</time></trkpt><trkpt lat="45.4516118" lon="7.7278951"><ele>733.2</ele><time>2026-04-25T13:52:07.229Z</time></trkpt><trkpt lat="45.4517927" lon="7.7279375"><ele>730.0</ele><time>2026-04-25T13:52:10.225Z</time></trkpt><trkpt lat="45.4518699" lon="7.7280012"><ele>730.0</ele><time>2026-04-25T13:52:11.227Z</time></trkpt><trkpt lat="45.4520167" lon="7.7281235"><ele>730.0</ele><time>2026-04-25T13:52:12.228Z</time></trkpt><trkpt lat="45.4521417" lon="7.7283062"><ele>730.0</ele><time>2026-04-25T13:52:13.235Z</time></trkpt><trkpt lat="45.4522604" lon="7.7285296"><ele>728.0</ele><time>2026-04-25T13:52:14.241Z</time></trkpt><trkpt lat="45.4523949" lon="7.7287268"><ele>726.0</ele><time>2026-04-25T13:52:15.232Z</time></trkpt><trkpt lat="45.4525883" lon="7.7290285"><ele>726.0</ele><time>2026-04-25T13:52:16.242Z</time></trkpt><trkpt lat="45.4527474" lon="7.72927"><ele>726.0</ele><time>2026-04-25T13:52:17.238Z</time></trkpt><trkpt lat="45.4528599" lon="7.7294121"><ele>726.0</ele><time>2026-04-25T13:52:18.234Z</time></trkpt><trkpt lat="45.4529279" lon="7.7295085"><ele>720.6666666666666</ele><time>2026-04-25T13:52:19.234Z</time></trkpt><trkpt lat="45.453027" lon="7.7295864"><ele>715.3333333333333</ele><time>2026-04-25T13:52:20.232Z</time></trkpt><trkpt lat="45.4531767" lon="7.7296453"><ele>710.0</ele><time>2026-04-25T13:52:21.229Z</time></trkpt><trkpt lat="45.453361" lon="7.7296765"><ele>710.0</ele><time>2026-04-25T13:52:22.23Z</time></trkpt><trkpt lat="45.4535203" lon="7.7297539"><ele>710.0</ele><time>2026-04-25T13:52:23.23Z</time></trkpt><trkpt lat="45.4536696" lon="7.7298157"><ele>710.0</ele><time>2026-04-25T13:52:24.226Z</time></trkpt><trkpt lat="45.4538017" lon="7.7298812"><ele>710.0</ele><time>2026-04-25T13:52:25.227Z</time></trkpt><trkpt lat="45.453912" lon="7.7299237"><ele>710.0</ele><time>2026-04-25T13:52:26.229Z</time></trkpt><trkpt lat="45.453954" lon="7.730021"><ele>710.0</ele><time>2026-04-25T13:52:27.234Z</time></trkpt><trkpt lat="45.4539994" lon="7.7301128"><ele>710.0</ele><time>2026-04-25T13:52:28.232Z</time></trkpt><trkpt lat="45.4540483" lon="7.7302135"><ele>710.0</ele><time>2026-04-25T13:52:29.231Z</time></trkpt><trkpt lat="45.4540418" lon="7.7304022"><ele>708.0</ele><time>2026-04-25T13:52:30.225Z</time></trkpt><trkpt lat="45.4540413" lon="7.7306225"><ele>706.0</ele><time>2026-04-25T13:52:31.236Z</time></trkpt><trkpt lat="45.4540286" lon="7.730799"><ele>704.0</ele><time>2026-04-25T13:52:32.243Z</time></trkpt><trkpt lat="45.4540218" lon="7.7309185"><ele>702.0</ele><time>2026-04-25T13:52:33.241Z</time></trkpt><trkpt lat="45.4539996" lon="7.7310241"><ele>700.0</ele><time>2026-04-25T13:52:34.237Z</time></trkpt><trkpt lat="45.4539881" lon="7.7311622"><ele>697.4</ele><time>2026-04-25T13:52:36.231Z</time></trkpt><trkpt lat="45.4540502" lon="7.7311907"><ele>694.8</ele><time>2026-04-25T13:52:38.232Z</time></trkpt><trkpt lat="45.4540414" lon="7.7313297"><ele>692.2</ele><time>2026-04-25T13:52:43.23Z</time></trkpt><trkpt lat="45.4539725" lon="7.731417"><ele>689.6</ele><time>2026-04-25T13:52:44.226Z</time></trkpt><trkpt lat="45.4538954" lon="7.7314834"><ele>687.0</ele><time>2026-04-25T13:52:45.225Z</time></trkpt><trkpt lat="45.4537871" lon="7.7315429"><ele>684.0</ele><time>2026-04-25T13:52:46.229Z</time></trkpt><trkpt lat="45.4537096" lon="7.7316139"><ele>681.0</ele><time>2026-04-25T13:52:47.233Z</time></trkpt><trkpt lat="45.453605" lon="7.7315357"><ele>678.0</ele><time>2026-04-25T13:52:48.225Z</time></trkpt><trkpt lat="45.4535245" lon="7.7314175"><ele>675.0</ele><time>2026-04-25T13:52:49.234Z</time></trkpt><trkpt lat="45.4534397" lon="7.7312756"><ele>675.0</ele><time>2026-04-25T13:52:50.232Z</time></trkpt><trkpt lat="45.4533592" lon="7.7311208"><ele>675.0</ele><time>2026-04-25T13:52:51.238Z</time></trkpt><trkpt lat="45.4532609" lon="7.7309882"><ele>675.0</ele><time>2026-04-25T13:52:52.237Z</time></trkpt><trkpt lat="45.4531775" lon="7.7308884"><ele>675.0</ele><time>2026-04-25T13:52:53.245Z</time></trkpt><trkpt lat="45.4530645" lon="7.7308778"><ele>673.25</ele><time>2026-04-25T13:52:54.246Z</time></trkpt><trkpt lat="45.4529676" lon="7.730971"><ele>671.5</ele><time>2026-04-25T13:52:55.23Z</time></trkpt><trkpt lat="45.4528829" lon="7.731097"><ele>669.75</ele><time>2026-04-25T13:52:56.23Z</time></trkpt><trkpt lat="45.4527995" lon="7.7312082"><ele>668.0</ele><time>2026-04-25T13:52:57.225Z</time></trkpt><trkpt lat="45.4527083" lon="7.7313116"><ele>668.0</ele><time>2026-04-25T13:52:58.237Z</time></trkpt><trkpt lat="45.4526134" lon="7.7313944"><ele>668.0</ele><time>2026-04-25T13:52:59.227Z</time></trkpt><trkpt lat="45.4525106" lon="7.7315004"><ele>668.0</ele><time>2026-04-25T13:53:00.225Z</time></trkpt><trkpt lat="45.4524068" lon="7.7315746"><ele>668.0</ele><time>2026-04-25T13:53:01.229Z</time></trkpt><trkpt lat="45.4522919" lon="7.7315998"><ele>668.0</ele><time>2026-04-25T13:53:02.221Z</time></trkpt><trkpt lat="45.4521638" lon="7.731586"><ele>668.0</ele><time>2026-04-25T13:53:03.225Z</time></trkpt><trkpt lat="45.4520217" lon="7.7315151"><ele>668.0</ele><time>2026-04-25T13:53:04.235Z</time></trkpt><trkpt lat="45.4519012" lon="7.7313983"><ele>668.0</ele><time>2026-04-25T13:53:05.237Z</time></trkpt><trkpt lat="45.4517945" lon="7.7312405"><ele>668.5999999999999</ele><time>2026-04-25T13:53:06.227Z</time></trkpt><trkpt lat="45.4516992" lon="7.7310863"><ele>669.1999999999999</ele><time>2026-04-25T13:53:07.22Z</time></trkpt><trkpt lat="45.4516465" lon="7.7309661"><ele>669.8</ele><time>2026-04-25T13:53:08.228Z</time></trkpt><trkpt lat="45.4516092" lon="7.7308481"><ele>670.4</ele><time>2026-04-25T13:53:09.232Z</time></trkpt><trkpt lat="45.4515623" lon="7.730779"><ele>671.0</ele><time>2026-04-25T13:53:10.227Z</time></trkpt><trkpt lat="45.4515057" lon="7.7307131"><ele>671.0</ele><time>2026-04-25T13:53:11.226Z</time></trkpt><trkpt lat="45.4514173" lon="7.7307178"><ele>671.0</ele><time>2026-04-25T13:53:13.221Z</time></trkpt><trkpt lat="45.4513678" lon="7.7308595"><ele>671.0</ele><time>2026-04-25T13:53:15.214Z</time></trkpt><trkpt lat="45.4513653" lon="7.7310351"><ele>671.0</ele><time>2026-04-25T13:53:16.224Z</time></trkpt><trkpt lat="45.4514391" lon="7.7312283"><ele>671.0</ele><time>2026-04-25T13:53:17.201Z</time></trkpt><trkpt lat="45.4516336" lon="7.7315405"><ele>671.0</ele><time>2026-04-25T13:53:18.207Z</time></trkpt><trkpt lat="45.4518547" lon="7.7321022"><ele>681.0</ele><time>2026-04-25T13:53:19.214Z</time></trkpt><trkpt lat="45.4520426" lon="7.732422"><ele>691.0</ele><time>2026-04-25T13:53:20.219Z</time></trkpt><trkpt lat="45.4521229" lon="7.7326836"><ele>687.4</ele><time>2026-04-25T13:53:21.228Z</time></trkpt><trkpt lat="45.4521933" lon="7.7328114"><ele>683.8</ele><time>2026-04-25T13:53:22.229Z</time></trkpt><trkpt lat="45.4522536" lon="7.7329447"><ele>680.1999999999999</ele><time>2026-04-25T13:53:23.234Z</time></trkpt><trkpt lat="45.4522761" lon="7.7330646"><ele>676.5999999999999</ele><time>2026-04-25T13:53:24.236Z</time></trkpt><trkpt lat="45.4522966" lon="7.7332285"><ele>673.0</ele><time>2026-04-25T13:53:25.234Z</time></trkpt><trkpt lat="45.4523235" lon="7.7333762"><ele>671.75</ele><time>2026-04-25T13:53:26.229Z</time></trkpt><trkpt lat="45.4522992" lon="7.7335647"><ele>670.5</ele><time>2026-04-25T13:53:27.241Z</time></trkpt><trkpt lat="45.452291" lon="7.7337219"><ele>669.25</ele><time>2026-04-25T13:53:28.244Z</time></trkpt><trkpt lat="45.4522941" lon="7.7338669"><ele>668.0</ele><time>2026-04-25T13:53:29.247Z</time></trkpt><trkpt lat="45.4522876" lon="7.7340389"><ele>668.0</ele><time>2026-04-25T13:53:30.235Z</time></trkpt><trkpt lat="45.4522489" lon="7.7342091"><ele>668.0</ele><time>2026-04-25T13:53:31.241Z</time></trkpt><trkpt lat="45.4521753" lon="7.7343974"><ele>668.0</ele><time>2026-04-25T13:53:32.239Z</time></trkpt><trkpt lat="45.4521006" lon="7.734586"><ele>668.0</ele><time>2026-04-25T13:53:33.232Z</time></trkpt><trkpt lat="45.4520304" lon="7.7347447"><ele>672.6666666666666</ele><time>2026-04-25T13:53:34.236Z</time></trkpt><trkpt lat="45.4519" lon="7.7349181"><ele>677.3333333333334</ele><time>2026-04-25T13:53:35.226Z</time></trkpt><trkpt lat="45.4517666" lon="7.7351117"><ele>682.0</ele><time>2026-04-25T13:53:36.228Z</time></trkpt><trkpt lat="45.4516358" lon="7.7353254"><ele>682.0</ele><time>2026-04-25T13:53:37.225Z</time></trkpt><trkpt lat="45.4515055" lon="7.7354774"><ele>682.0</ele><time>2026-04-25T13:53:38.228Z</time></trkpt><trkpt lat="45.4514059" lon="7.7355964"><ele>682.0</ele><time>2026-04-25T13:53:39.223Z</time></trkpt><trkpt lat="45.4513235" lon="7.7357119"><ele>682.0</ele><time>2026-04-25T13:53:40.234Z</time></trkpt><trkpt lat="45.451238" lon="7.7357973"><ele>687.3333333333334</ele><time>2026-04-25T13:53:41.238Z</time></trkpt><trkpt lat="45.451121" lon="7.7358697"><ele>692.6666666666666</ele><time>2026-04-25T13:53:42.23Z</time></trkpt><trkpt lat="45.4509362" lon="7.735896"><ele>698.0</ele><time>2026-04-25T13:53:43.227Z</time></trkpt><trkpt lat="45.450738" lon="7.7360051"><ele>698.0</ele><time>2026-04-25T13:53:44.224Z</time></trkpt><trkpt lat="45.4506149" lon="7.7360424"><ele>698.0</ele><time>2026-04-25T13:53:45.224Z</time></trkpt><trkpt lat="45.4504972" lon="7.736077"><ele>698.0</ele><time>2026-04-25T13:53:46.226Z</time></trkpt><trkpt lat="45.4504182" lon="7.7361899"><ele>698.0</ele><time>2026-04-25T13:53:47.23Z</time></trkpt><trkpt lat="45.4503307" lon="7.736317"><ele>693.5</ele><time>2026-04-25T13:53:48.233Z</time></trkpt><trkpt lat="45.4502451" lon="7.7364473"><ele>689.0</ele><time>2026-04-25T13:53:49.23Z</time></trkpt><trkpt lat="45.4501679" lon="7.7365899"><ele>684.5</ele><time>2026-04-25T13:53:50.222Z</time></trkpt><trkpt lat="45.4501101" lon="7.7367162"><ele>680.0</ele><time>2026-04-25T13:53:51.228Z</time></trkpt><trkpt lat="45.4500684" lon="7.7368522"><ele>676.2</ele><time>2026-04-25T13:53:52.234Z</time></trkpt><trkpt lat="45.450018" lon="7.7369736"><ele>672.4</ele><time>2026-04-25T13:53:53.233Z</time></trkpt><trkpt lat="45.4499555" lon="7.7370796"><ele>668.5999999999999</ele><time>2026-04-25T13:53:54.232Z</time></trkpt><trkpt lat="45.4499054" lon="7.737137"><ele>664.8</ele><time>2026-04-25T13:53:55.22Z</time></trkpt><trkpt lat="45.4498159" lon="7.7371367"><ele>661.0</ele><time>2026-04-25T13:53:56.229Z</time></trkpt><trkpt lat="45.44966" lon="7.737124"><ele>660.1999999999999</ele><time>2026-04-25T13:53:58.233Z</time></trkpt><trkpt lat="45.4495549" lon="7.7370711"><ele>659.4</ele><time>2026-04-25T13:53:59.235Z</time></trkpt><trkpt lat="45.4494299" lon="7.7370236"><ele>658.6</ele><time>2026-04-25T13:54:00.235Z</time></trkpt><trkpt lat="45.4493611" lon="7.7369385"><ele>657.8</ele><time>2026-04-25T13:54:01.232Z</time></trkpt><trkpt lat="45.4492912" lon="7.7368246"><ele>657.0</ele><time>2026-04-25T13:54:02.233Z</time></trkpt><trkpt lat="45.4492307" lon="7.7367839"><ele>657.0</ele><time>2026-04-25T13:54:03.232Z</time></trkpt><trkpt lat="45.449178" lon="7.7368358"><ele>657.0</ele><time>2026-04-25T13:54:04.242Z</time></trkpt><trkpt lat="45.4491367" lon="7.7369345"><ele>657.0</ele><time>2026-04-25T13:54:05.237Z</time></trkpt><trkpt lat="45.4490968" lon="7.7370567"><ele>657.0</ele><time>2026-04-25T13:54:06.231Z</time></trkpt><trkpt lat="45.4490481" lon="7.7371399"><ele>657.0</ele><time>2026-04-25T13:54:07.232Z</time></trkpt><trkpt lat="45.4489865" lon="7.737185"><ele>657.0</ele><time>2026-04-25T13:54:08.228Z</time></trkpt><trkpt lat="45.4489149" lon="7.7372176"><ele>657.0</ele><time>2026-04-25T13:54:09.232Z</time></trkpt><trkpt lat="45.4488175" lon="7.7372342"><ele>657.0</ele><time>2026-04-25T13:54:10.232Z</time></trkpt><trkpt lat="45.4487316" lon="7.7371945"><ele>657.0</ele><time>2026-04-25T13:54:11.221Z</time></trkpt><trkpt lat="45.4486432" lon="7.73714"><ele>657.0</ele><time>2026-04-25T13:54:12.227Z</time></trkpt><trkpt lat="45.4485649" lon="7.7371111"><ele>657.0</ele><time>2026-04-25T13:54:13.231Z</time></trkpt><trkpt lat="45.4484859" lon="7.7371527"><ele>660.2</ele><time>2026-04-25T13:54:14.235Z</time></trkpt><trkpt lat="45.4484909" lon="7.7373387"><ele>663.4000000000001</ele><time>2026-04-25T13:54:16.229Z</time></trkpt><trkpt lat="45.4485369" lon="7.7374757"><ele>666.5999999999999</ele><time>2026-04-25T13:54:17.227Z</time></trkpt><trkpt lat="45.448572" lon="7.7376091"><ele>669.8</ele><time>2026-04-25T13:54:18.224Z</time></trkpt><trkpt lat="45.4485777" lon="7.7377192"><ele>673.0</ele><time>2026-04-25T13:54:19.231Z</time></trkpt><trkpt lat="45.4485826" lon="7.7378488"><ele>673.0</ele><time>2026-04-25T13:54:20.234Z</time></trkpt><trkpt lat="45.4485586" lon="7.7379955"><ele>673.0</ele><time>2026-04-25T13:54:21.23Z</time></trkpt><trkpt lat="45.4485381" lon="7.7381396"><ele>673.0</ele><time>2026-04-25T13:54:22.238Z</time></trkpt><trkpt lat="45.4485347" lon="7.7382968"><ele>673.0</ele><time>2026-04-25T13:54:23.24Z</time></trkpt><trkpt lat="45.4485367" lon="7.7384667"><ele>673.0</ele><time>2026-04-25T13:54:24.239Z</time></trkpt><trkpt lat="45.4485498" lon="7.7386636"><ele>673.0</ele><time>2026-04-25T13:54:25.235Z</time></trkpt><trkpt lat="45.4485602" lon="7.738873"><ele>673.0</ele><time>2026-04-25T13:54:26.234Z</time></trkpt><trkpt lat="45.4485431" lon="7.739108"><ele>673.0</ele><time>2026-04-25T13:54:27.237Z</time></trkpt><trkpt lat="45.4485675" lon="7.7393799"><ele>670.75</ele><time>2026-04-25T13:54:28.242Z</time></trkpt><trkpt lat="45.4486306" lon="7.7395732"><ele>668.5</ele><time>2026-04-25T13:54:29.244Z</time></trkpt><trkpt lat="45.4485961" lon="7.7397164"><ele>666.25</ele><time>2026-04-25T13:54:30.237Z</time></trkpt><trkpt lat="45.4485697" lon="7.7398612"><ele>664.0</ele><time>2026-04-25T13:54:31.247Z</time></trkpt><trkpt lat="45.4484803" lon="7.7399671"><ele>664.0</ele><time>2026-04-25T13:54:32.245Z</time></trkpt><trkpt lat="45.4483526" lon="7.740048"><ele>664.0</ele><time>2026-04-25T13:54:33.239Z</time></trkpt><trkpt lat="45.4482116" lon="7.7401174"><ele>664.0</ele><time>2026-04-25T13:54:34.248Z</time></trkpt><trkpt lat="45.4480885" lon="7.7401842"><ele>664.0</ele><time>2026-04-25T13:54:35.238Z</time></trkpt><trkpt lat="45.4479704" lon="7.7402568"><ele>663.5</ele><time>2026-04-25T13:54:36.246Z</time></trkpt><trkpt lat="45.4478717" lon="7.7403427"><ele>663.0</ele><time>2026-04-25T13:54:37.244Z</time></trkpt><trkpt lat="45.4477835" lon="7.7404118"><ele>662.5</ele><time>2026-04-25T13:54:38.241Z</time></trkpt><trkpt lat="45.4477247" lon="7.7404533"><ele>662.0</ele><time>2026-04-25T13:54:39.241Z</time></trkpt><trkpt lat="45.4476544" lon="7.7404599"><ele>661.5</ele><time>2026-04-25T13:54:46.255Z</time></trkpt><trkpt lat="45.4475868" lon="7.7404785"><ele>661.0</ele><time>2026-04-25T13:56:40.254Z</time></trkpt><trkpt lat="45.447515" lon="7.7405432"><ele>661.0</ele><time>2026-04-25T14:18:01.262Z</time></trkpt><trkpt lat="45.4474275" lon="7.7406833"><ele>661.0</ele><time>2026-04-25T14:18:03.258Z</time></trkpt><trkpt lat="45.447326" lon="7.7408143"><ele>661.0</ele><time>2026-04-25T14:18:04.248Z</time></trkpt><trkpt lat="45.4472292" lon="7.7409677"><ele>661.0</ele><time>2026-04-25T14:18:05.241Z</time></trkpt><trkpt lat="45.4471404" lon="7.7411142"><ele>658.25</ele><time>2026-04-25T14:18:06.245Z</time></trkpt><trkpt lat="45.4470384" lon="7.7412542"><ele>655.5</ele><time>2026-04-25T14:18:07.247Z</time></trkpt><trkpt lat="45.4469383" lon="7.7413938"><ele>652.75</ele><time>2026-04-25T14:18:08.25Z</time></trkpt><trkpt lat="45.4468543" lon="7.7415817"><ele>650.0</ele><time>2026-04-25T14:18:09.246Z</time></trkpt><trkpt lat="45.4467755" lon="7.7417827"><ele>650.6666666666666</ele><time>2026-04-25T14:18:10.252Z</time></trkpt><trkpt lat="45.446666" lon="7.7419955"><ele>651.3333333333334</ele><time>2026-04-25T14:18:11.253Z</time></trkpt><trkpt lat="45.4465547" lon="7.742169"><ele>652.0</ele><time>2026-04-25T14:18:12.256Z</time></trkpt><trkpt lat="45.446458" lon="7.742297"><ele>652.0</ele><time>2026-04-25T14:18:13.259Z</time></trkpt><trkpt lat="45.4463553" lon="7.7424319"><ele>652.0</ele><time>2026-04-25T14:18:14.249Z</time></trkpt><trkpt lat="45.4462833" lon="7.7425908"><ele>652.0</ele><time>2026-04-25T14:18:15.255Z</time></trkpt><trkpt lat="45.4462173" lon="7.7427363"><ele>652.0</ele><time>2026-04-25T14:18:16.246Z</time></trkpt><trkpt lat="45.4461741" lon="7.7428766"><ele>647.25</ele><time>2026-04-25T14:18:17.247Z</time></trkpt><trkpt lat="45.4461404" lon="7.7430455"><ele>642.5</ele><time>2026-04-25T14:18:18.246Z</time></trkpt><trkpt lat="45.4461397" lon="7.7432412"><ele>637.75</ele><time>2026-04-25T14:18:19.247Z</time></trkpt><trkpt lat="45.4461664" lon="7.7434345"><ele>633.0</ele><time>2026-04-25T14:18:20.251Z</time></trkpt><trkpt lat="45.4462217" lon="7.7436149"><ele>633.5</ele><time>2026-04-25T14:18:21.258Z</time></trkpt><trkpt lat="45.4463123" lon="7.7437953"><ele>634.0</ele><time>2026-04-25T14:18:22.263Z</time></trkpt><trkpt lat="45.4464453" lon="7.7439057"><ele>634.5</ele><time>2026-04-25T14:18:23.253Z</time></trkpt><trkpt lat="45.4465145" lon="7.7440141"><ele>635.0</ele><time>2026-04-25T14:18:24.252Z</time></trkpt><trkpt lat="45.4465627" lon="7.744086"><ele>635.0</ele><time>2026-04-25T14:18:25.246Z</time></trkpt><trkpt lat="45.4464966" lon="7.7442137"><ele>635.0</ele><time>2026-04-25T14:18:27.253Z</time></trkpt><trkpt lat="45.4464048" lon="7.744224"><ele>635.0</ele><time>2026-04-25T14:18:29.249Z</time></trkpt><trkpt lat="45.4463364" lon="7.7441604"><ele>635.0</ele><time>2026-04-25T14:18:30.241Z</time></trkpt><trkpt lat="45.4462517" lon="7.7440489"><ele>635.0</ele><time>2026-04-25T14:18:31.239Z</time></trkpt><trkpt lat="45.4461635" lon="7.7439613"><ele>631.25</ele><time>2026-04-25T14:18:32.233Z</time></trkpt><trkpt lat="45.4460462" lon="7.7438895"><ele>627.5</ele><time>2026-04-25T14:18:33.229Z</time></trkpt><trkpt lat="45.4459034" lon="7.7438474"><ele>623.75</ele><time>2026-04-25T14:18:34.232Z</time></trkpt><trkpt lat="45.4457569" lon="7.7437954"><ele>620.0</ele><time>2026-04-25T14:18:35.234Z</time></trkpt><trkpt lat="45.4456205" lon="7.7437376"><ele>620.0</ele><time>2026-04-25T14:18:36.236Z</time></trkpt><trkpt lat="45.445492" lon="7.7436057"><ele>620.0</ele><time>2026-04-25T14:18:37.239Z</time></trkpt><trkpt lat="45.4453976" lon="7.7433772"><ele>620.0</ele><time>2026-04-25T14:18:38.242Z</time></trkpt><trkpt lat="45.4453216" lon="7.7431984"><ele>616.25</ele><time>2026-04-25T14:18:39.233Z</time></trkpt><trkpt lat="45.4452689" lon="7.7430252"><ele>612.5</ele><time>2026-04-25T14:18:40.234Z</time></trkpt><trkpt lat="45.4452095" lon="7.7428406"><ele>608.75</ele><time>2026-04-25T14:18:41.229Z</time></trkpt><trkpt lat="45.4452285" lon="7.7426497"><ele>605.0</ele><time>2026-04-25T14:18:42.228Z</time></trkpt><trkpt lat="45.4452427" lon="7.7424694"><ele>605.0</ele><time>2026-04-25T14:18:43.231Z</time></trkpt><trkpt lat="45.4453239" lon="7.7422744"><ele>605.0</ele><time>2026-04-25T14:18:44.23Z</time></trkpt><trkpt lat="45.4453993" lon="7.7421266"><ele>605.0</ele><time>2026-04-25T14:18:45.231Z</time></trkpt><trkpt lat="45.4454698" lon="7.7419746"><ele>605.0</ele><time>2026-04-25T14:18:46.237Z</time></trkpt><trkpt lat="45.4455322" lon="7.741863"><ele>605.0</ele><time>2026-04-25T14:18:47.232Z</time></trkpt><trkpt lat="45.4455271" lon="7.7417511"><ele>605.0</ele><time>2026-04-25T14:18:49.243Z</time></trkpt><trkpt lat="45.4454475" lon="7.7418512"><ele>605.0</ele><time>2026-04-25T14:18:51.225Z</time></trkpt><trkpt lat="45.4454779" lon="7.7419566"><ele>605.0</ele><time>2026-04-25T14:18:54.219Z</time></trkpt><trkpt lat="45.445322" lon="7.7420907"><ele>605.0</ele><time>2026-04-25T14:18:58.224Z</time></trkpt><trkpt lat="45.4451157" lon="7.7424223"><ele>605.0</ele><time>2026-04-25T14:18:59.237Z</time></trkpt><trkpt lat="45.4450228" lon="7.7425614"><ele>605.0</ele><time>2026-04-25T14:19:00.228Z</time></trkpt><trkpt lat="45.4448221" lon="7.7429972"><ele>605.0</ele><time>2026-04-25T14:19:01.244Z</time></trkpt><trkpt lat="45.4447291" lon="7.7432474"><ele>605.0</ele><time>2026-04-25T14:19:02.232Z</time></trkpt><trkpt lat="45.4446601" lon="7.7435206"><ele>605.0</ele><time>2026-04-25T14:19:03.232Z</time></trkpt><trkpt lat="45.4444655" lon="7.7441304"><ele>592.0</ele><time>2026-04-25T14:19:04.257Z</time></trkpt><trkpt lat="45.4443607" lon="7.7445736"><ele>579.0</ele><time>2026-04-25T14:19:05.268Z</time></trkpt><trkpt lat="45.4443638" lon="7.7449074"><ele>578.6666666666666</ele><time>2026-04-25T14:19:06.26Z</time></trkpt><trkpt lat="45.444402" lon="7.7452327"><ele>578.3333333333333</ele><time>2026-04-25T14:19:07.249Z</time></trkpt><trkpt lat="45.4444671" lon="7.7455125"><ele>578.0</ele><time>2026-04-25T14:19:08.261Z</time></trkpt><trkpt lat="45.4445407" lon="7.7457446"><ele>578.0</ele><time>2026-04-25T14:19:09.262Z</time></trkpt><trkpt lat="45.4445991" lon="7.7459606"><ele>578.0</ele><time>2026-04-25T14:19:10.248Z</time></trkpt><trkpt lat="45.4446176" lon="7.7461361"><ele>578.0</ele><time>2026-04-25T14:19:11.255Z</time></trkpt><trkpt lat="45.4446483" lon="7.7462878"><ele>578.0</ele><time>2026-04-25T14:19:12.25Z</time></trkpt><trkpt lat="45.4446527" lon="7.7465269"><ele>575.5</ele><time>2026-04-25T14:19:13.245Z</time></trkpt><trkpt lat="45.4446981" lon="7.7467426"><ele>573.0</ele><time>2026-04-25T14:19:14.254Z</time></trkpt><trkpt lat="45.4447289" lon="7.7469184"><ele>570.5</ele><time>2026-04-25T14:19:15.252Z</time></trkpt><trkpt lat="45.4447535" lon="7.747086"><ele>568.0</ele><time>2026-04-25T14:19:16.245Z</time></trkpt><trkpt lat="45.4447868" lon="7.7472506"><ele>565.0</ele><time>2026-04-25T14:19:17.251Z</time></trkpt><trkpt lat="45.4448324" lon="7.7473932"><ele>562.0</ele><time>2026-04-25T14:19:18.248Z</time></trkpt><trkpt lat="45.4448518" lon="7.7475878"><ele>559.0</ele><time>2026-04-25T14:19:19.249Z</time></trkpt><trkpt lat="45.4448441" lon="7.7478094"><ele>556.0</ele><time>2026-04-25T14:19:20.25Z</time></trkpt><trkpt lat="45.4448431" lon="7.7480045"><ele>551.6666666666667</ele><time>2026-04-25T14:19:21.245Z</time></trkpt><trkpt lat="45.4448456" lon="7.7482681"><ele>547.3333333333334</ele><time>2026-04-25T14:19:22.248Z</time></trkpt><trkpt lat="45.4448884" lon="7.7484949"><ele>543.0</ele><time>2026-04-25T14:19:23.246Z</time></trkpt><trkpt lat="45.4449728" lon="7.7487509"><ele>539.0</ele><time>2026-04-25T14:19:24.247Z</time></trkpt><trkpt lat="45.4450593" lon="7.7489528"><ele>535.0</ele><time>2026-04-25T14:19:25.255Z</time></trkpt><trkpt lat="45.4451447" lon="7.7491009"><ele>531.0</ele><time>2026-04-25T14:19:26.268Z</time></trkpt><trkpt lat="45.4452653" lon="7.7491743"><ele>527.0</ele><time>2026-04-25T14:19:27.259Z</time></trkpt><trkpt lat="45.4453819" lon="7.7492708"><ele>521.0</ele><time>2026-04-25T14:19:28.249Z</time></trkpt><trkpt lat="45.4455415" lon="7.7494243"><ele>515.0</ele><time>2026-04-25T14:19:29.25Z</time></trkpt><trkpt lat="45.4456982" lon="7.7495687"><ele>509.0</ele><time>2026-04-25T14:19:30.256Z</time></trkpt><trkpt lat="45.4458462" lon="7.7496559"><ele>509.0</ele><time>2026-04-25T14:19:31.26Z</time></trkpt><trkpt lat="45.4459641" lon="7.7497504"><ele>509.0</ele><time>2026-04-25T14:19:32.259Z</time></trkpt><trkpt lat="45.4461093" lon="7.7497564"><ele>509.0</ele><time>2026-04-25T14:19:33.248Z</time></trkpt><trkpt lat="45.4462875" lon="7.7497639"><ele>512.3333333333333</ele><time>2026-04-25T14:19:34.263Z</time></trkpt><trkpt lat="45.4464327" lon="7.7498214"><ele>515.6666666666666</ele><time>2026-04-25T14:19:35.269Z</time></trkpt><trkpt lat="45.446587" lon="7.7498913"><ele>519.0</ele><time>2026-04-25T14:19:36.25Z</time></trkpt><trkpt lat="45.446732" lon="7.7500198"><ele>519.0</ele><time>2026-04-25T14:19:37.247Z</time></trkpt><trkpt lat="45.4468554" lon="7.7501057"><ele>519.0</ele><time>2026-04-25T14:19:38.255Z</time></trkpt><trkpt lat="45.4469595" lon="7.750172"><ele>519.0</ele><time>2026-04-25T14:19:39.247Z</time></trkpt><trkpt lat="45.4470488" lon="7.7501885"><ele>519.0</ele><time>2026-04-25T14:19:40.243Z</time></trkpt><trkpt lat="45.4471059" lon="7.7502686"><ele>519.0</ele><time>2026-04-25T14:19:41.233Z</time></trkpt><trkpt lat="45.447113" lon="7.7503968"><ele>514.25</ele><time>2026-04-25T14:19:43.245Z</time></trkpt><trkpt lat="45.4470235" lon="7.7504588"><ele>509.5</ele><time>2026-04-25T14:19:44.244Z</time></trkpt><trkpt lat="45.4468866" lon="7.7505062"><ele>504.75</ele><time>2026-04-25T14:19:45.237Z</time></trkpt><trkpt lat="45.4467542" lon="7.7505698"><ele>500.0</ele><time>2026-04-25T14:19:46.251Z</time></trkpt><trkpt lat="45.4466166" lon="7.7506488"><ele>500.0</ele><time>2026-04-25T14:19:47.242Z</time></trkpt><trkpt lat="45.4464357" lon="7.7507253"><ele>500.0</ele><time>2026-04-25T14:19:48.25Z</time></trkpt><trkpt lat="45.4462645" lon="7.750836"><ele>500.0</ele><time>2026-04-25T14:19:49.256Z</time></trkpt><trkpt lat="45.4460474" lon="7.7509556"><ele>497.3333333333333</ele><time>2026-04-25T14:19:50.257Z</time></trkpt><trkpt lat="45.4458307" lon="7.7510454"><ele>494.66666666666663</ele><time>2026-04-25T14:19:51.264Z</time></trkpt><trkpt lat="45.4456875" lon="7.7511857"><ele>492.0</ele><time>2026-04-25T14:19:52.252Z</time></trkpt><trkpt lat="45.4455556" lon="7.7513322"><ele>491.0</ele><time>2026-04-25T14:19:53.256Z</time></trkpt><trkpt lat="45.4454401" lon="7.7514935"><ele>490.0</ele><time>2026-04-25T14:19:54.264Z</time></trkpt><trkpt lat="45.4453474" lon="7.7517493"><ele>489.0</ele><time>2026-04-25T14:19:55.254Z</time></trkpt><trkpt lat="45.4452612" lon="7.7520579"><ele>489.33333333333337</ele><time>2026-04-25T14:19:56.267Z</time></trkpt><trkpt lat="45.4451837" lon="7.7523482"><ele>489.6666666666667</ele><time>2026-04-25T14:19:57.256Z</time></trkpt><trkpt lat="45.4451006" lon="7.7526222"><ele>490.0</ele><time>2026-04-25T14:19:58.254Z</time></trkpt><trkpt lat="45.4450198" lon="7.7529174"><ele>490.0</ele><time>2026-04-25T14:19:59.259Z</time></trkpt><trkpt lat="45.4449456" lon="7.7531955"><ele>490.0</ele><time>2026-04-25T14:20:00.265Z</time></trkpt><trkpt lat="45.4448674" lon="7.753508"><ele>490.0</ele><time>2026-04-25T14:20:01.259Z</time></trkpt><trkpt lat="45.4447786" lon="7.7537753"><ele>490.6666666666667</ele><time>2026-04-25T14:20:02.267Z</time></trkpt><trkpt lat="45.4446616" lon="7.7539417"><ele>491.33333333333337</ele><time>2026-04-25T14:20:03.258Z</time></trkpt><trkpt lat="45.444532" lon="7.7540225"><ele>492.0</ele><time>2026-04-25T14:20:04.259Z</time></trkpt><trkpt lat="45.4443259" lon="7.7541248"><ele>492.0</ele><time>2026-04-25T14:20:05.261Z</time></trkpt><trkpt lat="45.444146" lon="7.7542667"><ele>492.0</ele><time>2026-04-25T14:20:06.258Z</time></trkpt><trkpt lat="45.443973" lon="7.7544205"><ele>492.0</ele><time>2026-04-25T14:20:07.259Z</time></trkpt><trkpt lat="45.4437942" lon="7.7545665"><ele>489.33333333333337</ele><time>2026-04-25T14:20:08.253Z</time></trkpt><trkpt lat="45.4436104" lon="7.7547082"><ele>486.6666666666667</ele><time>2026-04-25T14:20:09.254Z</time></trkpt><trkpt lat="45.4434272" lon="7.7548696"><ele>484.0</ele><time>2026-04-25T14:20:10.266Z</time></trkpt><trkpt lat="45.4432523" lon="7.7550146"><ele>482.6666666666667</ele><time>2026-04-25T14:20:11.259Z</time></trkpt><trkpt lat="45.4431135" lon="7.7552241"><ele>481.33333333333337</ele><time>2026-04-25T14:20:12.256Z</time></trkpt><trkpt lat="45.4429673" lon="7.7554519"><ele>480.0</ele><time>2026-04-25T14:20:13.258Z</time></trkpt><trkpt lat="45.4428273" lon="7.7557299"><ele>475.0</ele><time>2026-04-25T14:20:14.262Z</time></trkpt><trkpt lat="45.4426933" lon="7.7560456"><ele>470.0</ele><time>2026-04-25T14:20:15.263Z</time></trkpt><trkpt lat="45.4425693" lon="7.7563609"><ele>470.0</ele><time>2026-04-25T14:20:16.264Z</time></trkpt><trkpt lat="45.4424431" lon="7.7566395"><ele>470.0</ele><time>2026-04-25T14:20:17.263Z</time></trkpt><trkpt lat="45.442339" lon="7.7568892"><ele>470.0</ele><time>2026-04-25T14:20:18.255Z</time></trkpt><trkpt lat="45.4422551" lon="7.7570806"><ele>469.0</ele><time>2026-04-25T14:20:19.263Z</time></trkpt><trkpt lat="45.4422149" lon="7.7572115"><ele>468.0</ele><time>2026-04-25T14:20:20.256Z</time></trkpt><trkpt lat="45.4421594" lon="7.7573683"><ele>467.0</ele><time>2026-04-25T14:20:22.247Z</time></trkpt><trkpt lat="45.4422114" lon="7.7574913"><ele>466.0</ele><time>2026-04-25T14:20:24.24Z</time></trkpt><trkpt lat="45.4422951" lon="7.7575095"><ele>465.0</ele><time>2026-04-25T14:20:28.245Z</time></trkpt><trkpt lat="45.4423453" lon="7.7574377"><ele>465.0</ele><time>2026-04-25T14:20:38.25Z</time></trkpt><trkpt lat="45.4422712" lon="7.7573796"><ele>465.0</ele><time>2026-04-25T14:20:41.242Z</time></trkpt><trkpt lat="45.4422095" lon="7.7574155"><ele>465.0</ele><time>2026-04-25T14:20:42.249Z</time></trkpt><trkpt lat="45.4421389" lon="7.7574933"><ele>465.0</ele><time>2026-04-25T14:20:43.244Z</time></trkpt><trkpt lat="45.4420501" lon="7.757656"><ele>465.0</ele><time>2026-04-25T14:20:44.246Z</time></trkpt><trkpt lat="45.4419515" lon="7.7578578"><ele>463.33333333333337</ele><time>2026-04-25T14:20:45.243Z</time></trkpt><trkpt lat="45.441832" lon="7.758089"><ele>461.6666666666667</ele><time>2026-04-25T14:20:46.235Z</time></trkpt><trkpt lat="45.4417117" lon="7.7583916"><ele>460.0</ele><time>2026-04-25T14:20:47.238Z</time></trkpt><trkpt lat="45.441605" lon="7.7586815"><ele>460.0</ele><time>2026-04-25T14:20:48.24Z</time></trkpt><trkpt lat="45.4414679" lon="7.7588674"><ele>460.0</ele><time>2026-04-25T14:20:49.244Z</time></trkpt><trkpt lat="45.4413134" lon="7.7590019"><ele>460.0</ele><time>2026-04-25T14:20:50.247Z</time></trkpt><trkpt lat="45.4411632" lon="7.7590942"><ele>461.2</ele><time>2026-04-25T14:20:51.24Z</time></trkpt><trkpt lat="45.4410935" lon="7.7592209"><ele>462.4</ele><time>2026-04-25T14:20:52.234Z</time></trkpt><trkpt lat="45.4410437" lon="7.7593861"><ele>463.6</ele><time>2026-04-25T14:20:53.243Z</time></trkpt><trkpt lat="45.4410326" lon="7.7595368"><ele>464.8</ele><time>2026-04-25T14:20:54.236Z</time></trkpt><trkpt lat="45.4409919" lon="7.7596646"><ele>466.0</ele><time>2026-04-25T14:20:56.236Z</time></trkpt><trkpt lat="45.4409951" lon="7.7597908"><ele>466.0</ele><time>2026-04-25T14:20:59.242Z</time></trkpt><trkpt lat="45.4410285" lon="7.7599428"><ele>466.0</ele><time>2026-04-25T14:21:01.245Z</time></trkpt><trkpt lat="45.4410627" lon="7.7600437"><ele>466.0</ele><time>2026-04-25T14:21:02.251Z</time></trkpt><trkpt lat="45.4411209" lon="7.7601584"><ele>466.0</ele><time>2026-04-25T14:21:03.251Z</time></trkpt><trkpt lat="45.4411978" lon="7.7603059"><ele>466.0</ele><time>2026-04-25T14:21:04.25Z</time></trkpt><trkpt lat="45.4412665" lon="7.760475"><ele>465.25</ele><time>2026-04-25T14:21:05.256Z</time></trkpt><trkpt lat="45.4413455" lon="7.7606504"><ele>464.5</ele><time>2026-04-25T14:21:06.257Z</time></trkpt><trkpt lat="45.4414214" lon="7.7608132"><ele>463.75</ele><time>2026-04-25T14:21:07.256Z</time></trkpt><trkpt lat="45.4415005" lon="7.7609899"><ele>463.0</ele><time>2026-04-25T14:21:08.251Z</time></trkpt><trkpt lat="45.4415826" lon="7.7611716"><ele>463.0</ele><time>2026-04-25T14:21:09.252Z</time></trkpt><trkpt lat="45.4416902" lon="7.7613705"><ele>463.0</ele><time>2026-04-25T14:21:10.253Z</time></trkpt><trkpt lat="45.4417735" lon="7.7615717"><ele>463.0</ele><time>2026-04-25T14:21:11.256Z</time></trkpt><trkpt lat="45.4418357" lon="7.7617475"><ele>463.25</ele><time>2026-04-25T14:21:12.258Z</time></trkpt><trkpt lat="45.4419331" lon="7.7619157"><ele>463.5</ele><time>2026-04-25T14:21:13.255Z</time></trkpt><trkpt lat="45.4420089" lon="7.7620813"><ele>463.75</ele><time>2026-04-25T14:21:14.257Z</time></trkpt><trkpt lat="45.4420715" lon="7.7622166"><ele>464.0</ele><time>2026-04-25T14:21:15.262Z</time></trkpt><trkpt lat="45.4421487" lon="7.7623931"><ele>464.2</ele><time>2026-04-25T14:21:16.266Z</time></trkpt><trkpt lat="45.4422151" lon="7.7625327"><ele>464.4</ele><time>2026-04-25T14:21:17.272Z</time></trkpt><trkpt lat="45.4422441" lon="7.7626946"><ele>464.6</ele><time>2026-04-25T14:21:18.263Z</time></trkpt><trkpt lat="45.4422914" lon="7.7628087"><ele>464.8</ele><time>2026-04-25T14:21:19.271Z</time></trkpt><trkpt lat="45.4423077" lon="7.7629483"><ele>465.0</ele><time>2026-04-25T14:21:20.266Z</time></trkpt><trkpt lat="45.4422839" lon="7.7631026"><ele>465.33333333333337</ele><time>2026-04-25T14:21:21.261Z</time></trkpt><trkpt lat="45.4422506" lon="7.7632955"><ele>465.6666666666667</ele><time>2026-04-25T14:21:22.264Z</time></trkpt><trkpt lat="45.442205" lon="7.7634839"><ele>466.0</ele><time>2026-04-25T14:21:23.259Z</time></trkpt><trkpt lat="45.4421059" lon="7.7637024"><ele>465.33333333333337</ele><time>2026-04-25T14:21:24.256Z</time></trkpt><trkpt lat="45.4420412" lon="7.76393"><ele>464.66666666666663</ele><time>2026-04-25T14:21:25.26Z</time></trkpt><trkpt lat="45.4419253" lon="7.7641439"><ele>464.0</ele><time>2026-04-25T14:21:26.26Z</time></trkpt><trkpt lat="45.4418489" lon="7.7644092"><ele>464.0</ele><time>2026-04-25T14:21:27.269Z</time></trkpt><trkpt lat="45.4417721" lon="7.7646298"><ele>464.0</ele><time>2026-04-25T14:21:28.271Z</time></trkpt><trkpt lat="45.4416774" lon="7.7648441"><ele>464.0</ele><time>2026-04-25T14:21:29.272Z</time></trkpt><trkpt lat="45.4416156" lon="7.7650663"><ele>464.75</ele><time>2026-04-25T14:21:30.273Z</time></trkpt><trkpt lat="45.4415395" lon="7.7652463"><ele>465.5</ele><time>2026-04-25T14:21:31.276Z</time></trkpt><trkpt lat="45.4414753" lon="7.7654176"><ele>466.25</ele><time>2026-04-25T14:21:32.274Z</time></trkpt><trkpt lat="45.4414322" lon="7.7655368"><ele>467.0</ele><time>2026-04-25T14:21:33.263Z</time></trkpt><trkpt lat="45.4413899" lon="7.7656373"><ele>466.99999999999994</ele><time>2026-04-25T14:21:34.26Z</time></trkpt><trkpt lat="45.4413557" lon="7.765735"><ele>467.0</ele><time>2026-04-25T14:21:35.264Z</time></trkpt><trkpt lat="45.4412905" lon="7.7658423"><ele>467.0</ele><time>2026-04-25T14:21:37.262Z</time></trkpt><trkpt lat="45.4412142" lon="7.7659536"><ele>467.0</ele><time>2026-04-25T14:21:39.271Z</time></trkpt><trkpt lat="45.4411724" lon="7.7660325"><ele>466.99999999999994</ele><time>2026-04-25T14:21:40.268Z</time></trkpt><trkpt lat="45.4411681" lon="7.7661307"><ele>467.0</ele><time>2026-04-25T14:21:41.27Z</time></trkpt><trkpt lat="45.4412128" lon="7.7662285"><ele>468.25</ele><time>2026-04-25T14:21:42.271Z</time></trkpt><trkpt lat="45.4412869" lon="7.7663084"><ele>469.5</ele><time>2026-04-25T14:21:43.26Z</time></trkpt><trkpt lat="45.4413876" lon="7.7663977"><ele>470.75</ele><time>2026-04-25T14:21:44.252Z</time></trkpt><trkpt lat="45.4414863" lon="7.7665255"><ele>472.0</ele><time>2026-04-25T14:21:45.248Z</time></trkpt><trkpt lat="45.4415675" lon="7.7666846"><ele>472.0</ele><time>2026-04-25T14:21:46.247Z</time></trkpt><trkpt lat="45.4416348" lon="7.7668499"><ele>472.0</ele><time>2026-04-25T14:21:47.257Z</time></trkpt><trkpt lat="45.4416998" lon="7.7670241"><ele>472.0</ele><time>2026-04-25T14:21:48.262Z</time></trkpt><trkpt lat="45.4417699" lon="7.7672061"><ele>472.0</ele><time>2026-04-25T14:21:49.255Z</time></trkpt><trkpt lat="45.4418615" lon="7.76738"><ele>473.5</ele><time>2026-04-25T14:21:50.266Z</time></trkpt><trkpt lat="45.4419614" lon="7.7675158"><ele>475.0</ele><time>2026-04-25T14:21:51.257Z</time></trkpt><trkpt lat="45.4420603" lon="7.7676425"><ele>476.5</ele><time>2026-04-25T14:21:52.259Z</time></trkpt><trkpt lat="45.4421605" lon="7.7677445"><ele>478.0</ele><time>2026-04-25T14:21:53.252Z</time></trkpt><trkpt lat="45.4422797" lon="7.7678387"><ele>479.0</ele><time>2026-04-25T14:21:54.254Z</time></trkpt><trkpt lat="45.4423812" lon="7.7679493"><ele>480.0</ele><time>2026-04-25T14:21:55.264Z</time></trkpt><trkpt lat="45.442462" lon="7.768079"><ele>481.0</ele><time>2026-04-25T14:21:56.251Z</time></trkpt><trkpt lat="45.4425679" lon="7.7681826"><ele>482.0</ele><time>2026-04-25T14:21:57.248Z</time></trkpt><trkpt lat="45.4426705" lon="7.7682955"><ele>482.0</ele><time>2026-04-25T14:21:58.254Z</time></trkpt><trkpt lat="45.4428109" lon="7.7683798"><ele>482.0</ele><time>2026-04-25T14:21:59.254Z</time></trkpt><trkpt lat="45.4429161" lon="7.7684585"><ele>482.0</ele><time>2026-04-25T14:22:00.248Z</time></trkpt><trkpt lat="45.4429941" lon="7.7684982"><ele>482.0</ele><time>2026-04-25T14:22:01.252Z</time></trkpt><trkpt lat="45.4430924" lon="7.7684788"><ele>483.5</ele><time>2026-04-25T14:22:02.252Z</time></trkpt><trkpt lat="45.4431808" lon="7.7684016"><ele>485.0</ele><time>2026-04-25T14:22:03.245Z</time></trkpt><trkpt lat="45.4432493" lon="7.7683082"><ele>486.5</ele><time>2026-04-25T14:22:04.245Z</time></trkpt><trkpt lat="45.4433665" lon="7.7681878"><ele>488.0</ele><time>2026-04-25T14:22:05.241Z</time></trkpt><trkpt lat="45.4434756" lon="7.7680696"><ele>488.0</ele><time>2026-04-25T14:22:06.239Z</time></trkpt><trkpt lat="45.443588" lon="7.767959"><ele>488.0</ele><time>2026-04-25T14:22:07.243Z</time></trkpt><trkpt lat="45.4437097" lon="7.7678444"><ele>488.0</ele><time>2026-04-25T14:22:08.245Z</time></trkpt><trkpt lat="45.4438242" lon="7.7676899"><ele>488.0</ele><time>2026-04-25T14:22:09.237Z</time></trkpt><trkpt lat="45.443944" lon="7.76753"><ele>490.0</ele><time>2026-04-25T14:22:10.241Z</time></trkpt><trkpt lat="45.4440704" lon="7.7673689"><ele>492.0</ele><time>2026-04-25T14:22:11.24Z</time></trkpt><trkpt lat="45.4442045" lon="7.7672076"><ele>494.0</ele><time>2026-04-25T14:22:12.247Z</time></trkpt><trkpt lat="45.4443559" lon="7.7671168"><ele>494.0</ele><time>2026-04-25T14:22:13.24Z</time></trkpt><trkpt lat="45.4445163" lon="7.7670309"><ele>494.0</ele><time>2026-04-25T14:22:14.242Z</time></trkpt><trkpt lat="45.4446596" lon="7.7670081"><ele>494.0</ele><time>2026-04-25T14:22:15.237Z</time></trkpt><trkpt lat="45.4448526" lon="7.7669808"><ele>499.66666666666663</ele><time>2026-04-25T14:22:16.242Z</time></trkpt><trkpt lat="45.4450263" lon="7.7669498"><ele>505.33333333333337</ele><time>2026-04-25T14:22:17.243Z</time></trkpt><trkpt lat="45.4452054" lon="7.7669134"><ele>511.0</ele><time>2026-04-25T14:22:18.229Z</time></trkpt><trkpt lat="45.4453842" lon="7.7668836"><ele>511.6666666666667</ele><time>2026-04-25T14:22:19.235Z</time></trkpt><trkpt lat="45.4455547" lon="7.7667821"><ele>512.3333333333334</ele><time>2026-04-25T14:22:20.232Z</time></trkpt><trkpt lat="45.4457317" lon="7.7666693"><ele>513.0</ele><time>2026-04-25T14:22:21.247Z</time></trkpt><trkpt lat="45.4459171" lon="7.7664929"><ele>513.0</ele><time>2026-04-25T14:22:22.241Z</time></trkpt><trkpt lat="45.4460982" lon="7.7663232"><ele>513.0</ele><time>2026-04-25T14:22:23.253Z</time></trkpt><trkpt lat="45.4462677" lon="7.7661372"><ele>513.0</ele><time>2026-04-25T14:22:24.25Z</time></trkpt><trkpt lat="45.4464377" lon="7.76597"><ele>514.3333333333334</ele><time>2026-04-25T14:22:25.253Z</time></trkpt><trkpt lat="45.4466167" lon="7.7658067"><ele>515.6666666666667</ele><time>2026-04-25T14:22:26.252Z</time></trkpt><trkpt lat="45.4468043" lon="7.7656511"><ele>517.0</ele><time>2026-04-25T14:22:27.248Z</time></trkpt><trkpt lat="45.4469993" lon="7.7655119"><ele>518.0</ele><time>2026-04-25T14:22:28.248Z</time></trkpt><trkpt lat="45.4471829" lon="7.7654286"><ele>519.0</ele><time>2026-04-25T14:22:29.248Z</time></trkpt><trkpt lat="45.4473458" lon="7.7653251"><ele>520.0</ele><time>2026-04-25T14:22:30.25Z</time></trkpt><trkpt lat="45.4475087" lon="7.7651559"><ele>520.0</ele><time>2026-04-25T14:22:31.26Z</time></trkpt><trkpt lat="45.4476518" lon="7.7649602"><ele>520.0</ele><time>2026-04-25T14:22:32.246Z</time></trkpt><trkpt lat="45.4477626" lon="7.7647698"><ele>520.0</ele><time>2026-04-25T14:22:33.24Z</time></trkpt><trkpt lat="45.4478843" lon="7.7645585"><ele>519.0</ele><time>2026-04-25T14:22:34.26Z</time></trkpt><trkpt lat="45.4479393" lon="7.7643037"><ele>518.0</ele><time>2026-04-25T14:22:35.248Z</time></trkpt><trkpt lat="45.4479712" lon="7.7640275"><ele>517.0</ele><time>2026-04-25T14:22:36.256Z</time></trkpt><trkpt lat="45.4480384" lon="7.7637999"><ele>519.75</ele><time>2026-04-25T14:22:37.245Z</time></trkpt><trkpt lat="45.4480643" lon="7.7635971"><ele>522.5</ele><time>2026-04-25T14:22:38.249Z</time></trkpt><trkpt lat="45.4480708" lon="7.7633854"><ele>525.25</ele><time>2026-04-25T14:22:39.256Z</time></trkpt><trkpt lat="45.4480712" lon="7.7631968"><ele>528.0</ele><time>2026-04-25T14:22:40.254Z</time></trkpt><trkpt lat="45.4480794" lon="7.7630388"><ele>528.0</ele><time>2026-04-25T14:22:41.252Z</time></trkpt><trkpt lat="45.4481301" lon="7.7629386"><ele>528.0</ele><time>2026-04-25T14:22:42.266Z</time></trkpt><trkpt lat="45.448203" lon="7.7629148"><ele>528.0</ele><time>2026-04-25T14:22:43.248Z</time></trkpt><trkpt lat="45.4482922" lon="7.7629764"><ele>528.0</ele><time>2026-04-25T14:22:44.255Z</time></trkpt><trkpt lat="45.448333" lon="7.7630777"><ele>528.0</ele><time>2026-04-25T14:22:45.256Z</time></trkpt><trkpt lat="45.4483931" lon="7.7631704"><ele>528.0</ele><time>2026-04-25T14:22:46.241Z</time></trkpt><trkpt lat="45.4484594" lon="7.7633957"><ele>529.25</ele><time>2026-04-25T14:22:47.233Z</time></trkpt><trkpt lat="45.4485605" lon="7.7635418"><ele>530.5</ele><time>2026-04-25T14:22:48.23Z</time></trkpt><trkpt lat="45.4486416" lon="7.7637026"><ele>531.75</ele><time>2026-04-25T14:22:49.232Z</time></trkpt><trkpt lat="45.4487116" lon="7.7638887"><ele>533.0</ele><time>2026-04-25T14:22:50.255Z</time></trkpt><trkpt lat="45.4487907" lon="7.7640682"><ele>532.1999999999999</ele><time>2026-04-25T14:22:51.249Z</time></trkpt><trkpt lat="45.4488479" lon="7.7642067"><ele>531.4</ele><time>2026-04-25T14:22:52.249Z</time></trkpt><trkpt lat="45.4489197" lon="7.7643342"><ele>530.5999999999999</ele><time>2026-04-25T14:22:53.261Z</time></trkpt><trkpt lat="45.4489668" lon="7.7644593"><ele>529.8</ele><time>2026-04-25T14:22:54.265Z</time></trkpt><trkpt lat="45.4490109" lon="7.7646158"><ele>529.0</ele><time>2026-04-25T14:22:55.258Z</time></trkpt><trkpt lat="45.44909" lon="7.7647322"><ele>531.6</ele><time>2026-04-25T14:22:56.249Z</time></trkpt><trkpt lat="45.4491608" lon="7.764864"><ele>534.2</ele><time>2026-04-25T14:22:57.259Z</time></trkpt><trkpt lat="45.4492116" lon="7.7650173"><ele>536.8000000000001</ele><time>2026-04-25T14:22:58.245Z</time></trkpt><trkpt lat="45.4492712" lon="7.765143"><ele>539.4</ele><time>2026-04-25T14:22:59.245Z</time></trkpt><trkpt lat="45.4493315" lon="7.7652694"><ele>542.0</ele><time>2026-04-25T14:23:00.244Z</time></trkpt><trkpt lat="45.4493896" lon="7.7653918"><ele>541.2</ele><time>2026-04-25T14:23:01.253Z</time></trkpt><trkpt lat="45.4494457" lon="7.7655137"><ele>540.4000000000001</ele><time>2026-04-25T14:23:02.249Z</time></trkpt><trkpt lat="45.4495071" lon="7.7656368"><ele>539.5999999999999</ele><time>2026-04-25T14:23:03.245Z</time></trkpt><trkpt lat="45.4495715" lon="7.7657592"><ele>538.8</ele><time>2026-04-25T14:23:04.247Z</time></trkpt><trkpt lat="45.4496379" lon="7.7659096"><ele>538.0</ele><time>2026-04-25T14:23:05.244Z</time></trkpt><trkpt lat="45.4497129" lon="7.7660496"><ele>541.25</ele><time>2026-04-25T14:23:06.24Z</time></trkpt><trkpt lat="45.4497791" lon="7.7662032"><ele>544.5</ele><time>2026-04-25T14:23:07.242Z</time></trkpt><trkpt lat="45.4498493" lon="7.7663484"><ele>547.75</ele><time>2026-04-25T14:23:08.238Z</time></trkpt><trkpt lat="45.4499301" lon="7.7665109"><ele>551.0</ele><time>2026-04-25T14:23:09.24Z</time></trkpt><trkpt lat="45.4500201" lon="7.7666725"><ele>553.0</ele><time>2026-04-25T14:23:10.245Z</time></trkpt><trkpt lat="45.4500943" lon="7.7668717"><ele>555.0</ele><time>2026-04-25T14:23:11.245Z</time></trkpt><trkpt lat="45.4501917" lon="7.7670453"><ele>557.0</ele><time>2026-04-25T14:23:12.248Z</time></trkpt><trkpt lat="45.4502954" lon="7.7672234"><ele>557.0</ele><time>2026-04-25T14:23:13.242Z</time></trkpt><trkpt lat="45.4503772" lon="7.7674075"><ele>557.0</ele><time>2026-04-25T14:23:14.246Z</time></trkpt><trkpt lat="45.4505015" lon="7.7675668"><ele>557.0</ele><time>2026-04-25T14:23:15.247Z</time></trkpt><trkpt lat="45.4506223" lon="7.767709"><ele>558.25</ele><time>2026-04-25T14:23:16.244Z</time></trkpt><trkpt lat="45.4507117" lon="7.7678801"><ele>559.5</ele><time>2026-04-25T14:23:17.24Z</time></trkpt><trkpt lat="45.4508016" lon="7.7680342"><ele>560.75</ele><time>2026-04-25T14:23:18.24Z</time></trkpt><trkpt lat="45.4508703" lon="7.7681577"><ele>562.0</ele><time>2026-04-25T14:23:19.242Z</time></trkpt><trkpt lat="45.450942" lon="7.7682804"><ele>562.0</ele><time>2026-04-25T14:23:20.238Z</time></trkpt><trkpt lat="45.4509952" lon="7.7684193"><ele>562.0</ele><time>2026-04-25T14:23:21.239Z</time></trkpt><trkpt lat="45.4510154" lon="7.7685475"><ele>562.0</ele><time>2026-04-25T14:23:22.239Z</time></trkpt><trkpt lat="45.4510712" lon="7.7686556"><ele>562.0</ele><time>2026-04-25T14:23:23.24Z</time></trkpt><trkpt lat="45.4511293" lon="7.768772"><ele>562.0</ele><time>2026-04-25T14:23:24.239Z</time></trkpt><trkpt lat="45.4512081" lon="7.7688346"><ele>564.0</ele><time>2026-04-25T14:23:25.242Z</time></trkpt><trkpt lat="45.4512994" lon="7.7688826"><ele>566.0</ele><time>2026-04-25T14:23:26.239Z</time></trkpt><trkpt lat="45.4513975" lon="7.7688954"><ele>568.0</ele><time>2026-04-25T14:23:27.244Z</time></trkpt><trkpt lat="45.4515138" lon="7.7688586"><ele>570.0</ele><time>2026-04-25T14:23:28.249Z</time></trkpt><trkpt lat="45.4516087" lon="7.7687652"><ele>572.0</ele><time>2026-04-25T14:23:29.23Z</time></trkpt><trkpt lat="45.4516938" lon="7.7686372"><ele>569.75</ele><time>2026-04-25T14:23:30.231Z</time></trkpt><trkpt lat="45.4517404" lon="7.7684925"><ele>567.5</ele><time>2026-04-25T14:23:31.225Z</time></trkpt><trkpt lat="45.4517671" lon="7.7683333"><ele>565.25</ele><time>2026-04-25T14:23:32.218Z</time></trkpt><trkpt lat="45.4517736" lon="7.7681723"><ele>563.0</ele><time>2026-04-25T14:23:33.224Z</time></trkpt><trkpt lat="45.4517491" lon="7.7680118"><ele>563.0</ele><time>2026-04-25T14:23:34.225Z</time></trkpt><trkpt lat="45.4516994" lon="7.7678517"><ele>563.0</ele><time>2026-04-25T14:23:35.219Z</time></trkpt><trkpt lat="45.4516532" lon="7.7677087"><ele>563.0</ele><time>2026-04-25T14:23:36.222Z</time></trkpt><trkpt lat="45.4516128" lon="7.7675895"><ele>563.0</ele><time>2026-04-25T14:23:37.235Z</time></trkpt><trkpt lat="45.4516064" lon="7.7674811"><ele>563.0</ele><time>2026-04-25T14:23:38.237Z</time></trkpt><trkpt lat="45.4516086" lon="7.7673907"><ele>562.6</ele><time>2026-04-25T14:23:39.234Z</time></trkpt><trkpt lat="45.4516156" lon="7.7672908"><ele>562.1999999999999</ele><time>2026-04-25T14:23:40.248Z</time></trkpt><trkpt lat="45.4516537" lon="7.7671889"><ele>561.8</ele><time>2026-04-25T14:23:41.254Z</time></trkpt><trkpt lat="45.451736" lon="7.7670821"><ele>561.4</ele><time>2026-04-25T14:23:42.25Z</time></trkpt><trkpt lat="45.4518142" lon="7.766973"><ele>561.0</ele><time>2026-04-25T14:23:43.255Z</time></trkpt><trkpt lat="45.4518838" lon="7.7668709"><ele>561.6</ele><time>2026-04-25T14:23:44.252Z</time></trkpt><trkpt lat="45.4519333" lon="7.7667851"><ele>562.2</ele><time>2026-04-25T14:23:45.248Z</time></trkpt><trkpt lat="45.4519994" lon="7.7666564"><ele>562.8</ele><time>2026-04-25T14:23:47.244Z</time></trkpt><trkpt lat="45.4521254" lon="7.7667082"><ele>563.4</ele><time>2026-04-25T14:23:49.258Z</time></trkpt><trkpt lat="45.4521862" lon="7.7668076"><ele>564.0</ele><time>2026-04-25T14:23:50.257Z</time></trkpt><trkpt lat="45.4522479" lon="7.7669231"><ele>564.8333333333334</ele><time>2026-04-25T14:23:51.252Z</time></trkpt><trkpt lat="45.4523086" lon="7.7670376"><ele>565.6666666666666</ele><time>2026-04-25T14:23:52.25Z</time></trkpt><trkpt lat="45.4523549" lon="7.7671246"><ele>566.5</ele><time>2026-04-25T14:23:53.254Z</time></trkpt><trkpt lat="45.4524011" lon="7.7672197"><ele>567.3333333333333</ele><time>2026-04-25T14:23:54.248Z</time></trkpt><trkpt lat="45.4524466" lon="7.7673089"><ele>568.1666666666666</ele><time>2026-04-25T14:23:55.249Z</time></trkpt><trkpt lat="45.4524869" lon="7.767391"><ele>569.0</ele><time>2026-04-25T14:23:56.262Z</time></trkpt><trkpt lat="45.4525544" lon="7.7674395"><ele>569.0</ele><time>2026-04-25T14:23:57.25Z</time></trkpt><trkpt lat="45.4526296" lon="7.7674884"><ele>569.0</ele><time>2026-04-25T14:23:58.258Z</time></trkpt><trkpt lat="45.4527125" lon="7.7675121"><ele>569.0</ele><time>2026-04-25T14:23:59.257Z</time></trkpt><trkpt lat="45.4528068" lon="7.7675249"><ele>569.0</ele><time>2026-04-25T14:24:00.251Z</time></trkpt><trkpt lat="45.4529053" lon="7.767554"><ele>569.0</ele><time>2026-04-25T14:24:01.254Z</time></trkpt><trkpt lat="45.4530199" lon="7.7675678"><ele>567.75</ele><time>2026-04-25T14:24:02.248Z</time></trkpt><trkpt lat="45.4531142" lon="7.7675254"><ele>566.5</ele><time>2026-04-25T14:24:03.254Z</time></trkpt><trkpt lat="45.4532363" lon="7.7674459"><ele>565.25</ele><time>2026-04-25T14:24:04.261Z</time></trkpt><trkpt lat="45.4533549" lon="7.7673995"><ele>564.0</ele><time>2026-04-25T14:24:05.248Z</time></trkpt><trkpt lat="45.4534659" lon="7.7673305"><ele>564.0</ele><time>2026-04-25T14:24:06.26Z</time></trkpt><trkpt lat="45.4535642" lon="7.7672671"><ele>564.0</ele><time>2026-04-25T14:24:07.26Z</time></trkpt><trkpt lat="45.4536696" lon="7.7671809"><ele>564.0</ele><time>2026-04-25T14:24:08.265Z</time></trkpt><trkpt lat="45.453788" lon="7.7670766"><ele>564.0</ele><time>2026-04-25T14:24:09.265Z</time></trkpt><trkpt lat="45.4538956" lon="7.7669774"><ele>564.0</ele><time>2026-04-25T14:24:10.263Z</time></trkpt><trkpt lat="45.4540132" lon="7.7668855"><ele>564.0</ele><time>2026-04-25T14:24:11.254Z</time></trkpt><trkpt lat="45.4541522" lon="7.7668181"><ele>564.0</ele><time>2026-04-25T14:24:12.258Z</time></trkpt><trkpt lat="45.4542937" lon="7.7667556"><ele>564.0</ele><time>2026-04-25T14:24:13.266Z</time></trkpt><trkpt lat="45.4544178" lon="7.766711"><ele>564.5</ele><time>2026-04-25T14:24:14.256Z</time></trkpt><trkpt lat="45.4545481" lon="7.7666607"><ele>565.0</ele><time>2026-04-25T14:24:15.252Z</time></trkpt><trkpt lat="45.4546751" lon="7.7666314"><ele>565.5</ele><time>2026-04-25T14:24:16.255Z</time></trkpt><trkpt lat="45.4547969" lon="7.7666046"><ele>566.0</ele><time>2026-04-25T14:24:17.251Z</time></trkpt><trkpt lat="45.4549111" lon="7.7665647"><ele>566.2</ele><time>2026-04-25T14:24:18.254Z</time></trkpt><trkpt lat="45.4550067" lon="7.7665066"><ele>566.4000000000001</ele><time>2026-04-25T14:24:19.254Z</time></trkpt><trkpt lat="45.4551197" lon="7.7664755"><ele>566.6</ele><time>2026-04-25T14:24:20.251Z</time></trkpt><trkpt lat="45.4552285" lon="7.7664684"><ele>566.8000000000001</ele><time>2026-04-25T14:24:21.252Z</time></trkpt><trkpt lat="45.4553319" lon="7.7664473"><ele>567.0</ele><time>2026-04-25T14:24:22.251Z</time></trkpt><trkpt lat="45.4554363" lon="7.766458"><ele>567.0</ele><time>2026-04-25T14:24:23.242Z</time></trkpt><trkpt lat="45.4555326" lon="7.7664788"><ele>567.0</ele><time>2026-04-25T14:24:24.243Z</time></trkpt><trkpt lat="45.4556081" lon="7.7665591"><ele>567.0</ele><time>2026-04-25T14:24:25.256Z</time></trkpt><trkpt lat="45.4556901" lon="7.7666451"><ele>567.0</ele><time>2026-04-25T14:24:26.249Z</time></trkpt><trkpt lat="45.4557534" lon="7.7667352"><ele>567.0</ele><time>2026-04-25T14:24:27.254Z</time></trkpt><trkpt lat="45.4558429" lon="7.7668125"><ele>568.5</ele><time>2026-04-25T14:24:28.244Z</time></trkpt><trkpt lat="45.4559306" lon="7.7668642"><ele>570.0</ele><time>2026-04-25T14:24:29.242Z</time></trkpt><trkpt lat="45.4560307" lon="7.7668927"><ele>571.5</ele><time>2026-04-25T14:24:30.254Z</time></trkpt><trkpt lat="45.4561198" lon="7.7669283"><ele>573.0</ele><time>2026-04-25T14:24:31.256Z</time></trkpt><trkpt lat="45.4561964" lon="7.7669524"><ele>574.5</ele><time>2026-04-25T14:24:32.245Z</time></trkpt><trkpt lat="45.4562683" lon="7.7669582"><ele>576.0</ele><time>2026-04-25T14:24:33.238Z</time></trkpt><trkpt lat="45.4563747" lon="7.7669206"><ele>576.0</ele><time>2026-04-25T14:24:34.237Z</time></trkpt><trkpt lat="45.4564876" lon="7.7668782"><ele>576.0</ele><time>2026-04-25T14:24:35.235Z</time></trkpt><trkpt lat="45.456605" lon="7.7668564"><ele>576.0</ele><time>2026-04-25T14:24:36.239Z</time></trkpt><trkpt lat="45.4567293" lon="7.7668374"><ele>576.0</ele><time>2026-04-25T14:24:37.24Z</time></trkpt><trkpt lat="45.4568553" lon="7.7668319"><ele>576.5</ele><time>2026-04-25T14:24:38.237Z</time></trkpt><trkpt lat="45.4569757" lon="7.7668288"><ele>577.0</ele><time>2026-04-25T14:24:39.234Z</time></trkpt><trkpt lat="45.4570823" lon="7.7668375"><ele>577.5</ele><time>2026-04-25T14:24:40.237Z</time></trkpt><trkpt lat="45.4571976" lon="7.7668524"><ele>578.0</ele><time>2026-04-25T14:24:41.237Z</time></trkpt><trkpt lat="45.4573383" lon="7.7668866"><ele>578.0</ele><time>2026-04-25T14:24:42.246Z</time></trkpt><trkpt lat="45.4575903" lon="7.7669503"><ele>578.0</ele><time>2026-04-25T14:24:44.242Z</time></trkpt><trkpt lat="45.4577253" lon="7.7670292"><ele>578.0</ele><time>2026-04-25T14:24:45.253Z</time></trkpt><trkpt lat="45.4578614" lon="7.7670879"><ele>577.5</ele><time>2026-04-25T14:24:46.256Z</time></trkpt><trkpt lat="45.4579801" lon="7.7671475"><ele>577.0</ele><time>2026-04-25T14:24:47.259Z</time></trkpt><trkpt lat="45.4581008" lon="7.7671949"><ele>576.5</ele><time>2026-04-25T14:24:48.264Z</time></trkpt><trkpt lat="45.4582265" lon="7.7672231"><ele>576.0</ele><time>2026-04-25T14:24:49.268Z</time></trkpt><trkpt lat="45.4583568" lon="7.7672371"><ele>576.0</ele><time>2026-04-25T14:24:50.263Z</time></trkpt><trkpt lat="45.4584897" lon="7.7672411"><ele>576.0</ele><time>2026-04-25T14:24:51.261Z</time></trkpt><trkpt lat="45.4586249" lon="7.7672486"><ele>576.0</ele><time>2026-04-25T14:24:52.266Z</time></trkpt><trkpt lat="45.4587678" lon="7.7672498"><ele>576.0</ele><time>2026-04-25T14:24:53.267Z</time></trkpt><trkpt lat="45.4589092" lon="7.767224"><ele>576.5</ele><time>2026-04-25T14:24:54.255Z</time></trkpt><trkpt lat="45.4590083" lon="7.7672332"><ele>577.0</ele><time>2026-04-25T14:24:55.252Z</time></trkpt><trkpt lat="45.4591009" lon="7.7672988"><ele>577.5</ele><time>2026-04-25T14:24:56.249Z</time></trkpt><trkpt lat="45.4591589" lon="7.7673424"><ele>578.0</ele><time>2026-04-25T14:24:57.26Z</time></trkpt><trkpt lat="45.4592336" lon="7.7673655"><ele>578.5</ele><time>2026-04-25T14:24:58.272Z</time></trkpt><trkpt lat="45.4593206" lon="7.7673472"><ele>579.0</ele><time>2026-04-25T14:24:59.262Z</time></trkpt><trkpt lat="45.4594319" lon="7.7672988"><ele>579.0</ele><time>2026-04-25T14:25:00.264Z</time></trkpt><trkpt lat="45.4595525" lon="7.7672441"><ele>579.0</ele><time>2026-04-25T14:25:01.269Z</time></trkpt><trkpt lat="45.4597105" lon="7.7671664"><ele>579.0</ele><time>2026-04-25T14:25:02.258Z</time></trkpt><trkpt lat="45.4598901" lon="7.7670625"><ele>580.3333333333334</ele><time>2026-04-25T14:25:03.248Z</time></trkpt><trkpt lat="45.4600862" lon="7.7669372"><ele>581.6666666666667</ele><time>2026-04-25T14:25:04.248Z</time></trkpt><trkpt lat="45.4602702" lon="7.7668289"><ele>583.0</ele><time>2026-04-25T14:25:05.24Z</time></trkpt><trkpt lat="45.4604428" lon="7.766703"><ele>585.0</ele><time>2026-04-25T14:25:06.245Z</time></trkpt><trkpt lat="45.4606245" lon="7.7665713"><ele>587.0</ele><time>2026-04-25T14:25:07.238Z</time></trkpt><trkpt lat="45.4607968" lon="7.7664477"><ele>589.0</ele><time>2026-04-25T14:25:08.244Z</time></trkpt><trkpt lat="45.460998" lon="7.7663012"><ele>589.0</ele><time>2026-04-25T14:25:09.243Z</time></trkpt><trkpt lat="45.4611917" lon="7.7662086"><ele>589.0</ele><time>2026-04-25T14:25:10.245Z</time></trkpt><trkpt lat="45.4613955" lon="7.7661354"><ele>589.0</ele><time>2026-04-25T14:25:11.259Z</time></trkpt><trkpt lat="45.4616137" lon="7.7661291"><ele>585.5</ele><time>2026-04-25T14:25:12.264Z</time></trkpt><trkpt lat="45.4618443" lon="7.766039"><ele>582.0</ele><time>2026-04-25T14:25:13.261Z</time></trkpt><trkpt lat="45.4620891" lon="7.7659794"><ele>568.5</ele><time>2026-04-25T14:25:14.256Z</time></trkpt><trkpt lat="45.4623246" lon="7.7659216"><ele>555.0</ele><time>2026-04-25T14:25:15.262Z</time></trkpt><trkpt lat="45.4625792" lon="7.7658689"><ele>555.0</ele><time>2026-04-25T14:25:16.27Z</time></trkpt><trkpt lat="45.4628163" lon="7.7658162"><ele>555.0</ele><time>2026-04-25T14:25:17.26Z</time></trkpt><trkpt lat="45.4630609" lon="7.7657552"><ele>559.0</ele><time>2026-04-25T14:25:18.267Z</time></trkpt><trkpt lat="45.4633038" lon="7.7657199"><ele>563.0</ele><time>2026-04-25T14:25:19.262Z</time></trkpt><trkpt lat="45.4635345" lon="7.7656267"><ele>563.0</ele><time>2026-04-25T14:25:20.256Z</time></trkpt><trkpt lat="45.4637364" lon="7.7655882"><ele>563.0</ele><time>2026-04-25T14:25:21.267Z</time></trkpt><trkpt lat="45.4639513" lon="7.7655268"><ele>563.0</ele><time>2026-04-25T14:25:22.254Z</time></trkpt><trkpt lat="45.4641191" lon="7.765464"><ele>568.0</ele><time>2026-04-25T14:25:23.26Z</time></trkpt><trkpt lat="45.4642825" lon="7.7654026"><ele>573.0</ele><time>2026-04-25T14:25:24.253Z</time></trkpt><trkpt lat="45.4644707" lon="7.7653647"><ele>578.0</ele><time>2026-04-25T14:25:25.243Z</time></trkpt><trkpt lat="45.4646428" lon="7.7653322"><ele>580.0</ele><time>2026-04-25T14:25:26.255Z</time></trkpt><trkpt lat="45.4647709" lon="7.7652374"><ele>582.0</ele><time>2026-04-25T14:25:27.249Z</time></trkpt><trkpt lat="45.4648931" lon="7.7651042"><ele>584.0</ele><time>2026-04-25T14:25:28.245Z</time></trkpt><trkpt lat="45.4649864" lon="7.7649668"><ele>586.0</ele><time>2026-04-25T14:25:29.254Z</time></trkpt><trkpt lat="45.4650226" lon="7.7648185"><ele>587.5</ele><time>2026-04-25T14:25:30.256Z</time></trkpt><trkpt lat="45.4650189" lon="7.764643"><ele>589.0</ele><time>2026-04-25T14:25:31.249Z</time></trkpt><trkpt lat="45.464991" lon="7.7644635"><ele>590.5</ele><time>2026-04-25T14:25:32.249Z</time></trkpt><trkpt lat="45.4649551" lon="7.7642306"><ele>592.0</ele><time>2026-04-25T14:25:33.236Z</time></trkpt><trkpt lat="45.4648617" lon="7.7640184"><ele>595.0</ele><time>2026-04-25T14:25:34.244Z</time></trkpt><trkpt lat="45.4647983" lon="7.763789"><ele>598.0</ele><time>2026-04-25T14:25:35.237Z</time></trkpt><trkpt lat="45.4646527" lon="7.763674"><ele>601.0</ele><time>2026-04-25T14:25:36.234Z</time></trkpt><trkpt lat="45.4645376" lon="7.7635611"><ele>599.25</ele><time>2026-04-25T14:25:37.238Z</time></trkpt><trkpt lat="45.4644499" lon="7.7634109"><ele>597.5</ele><time>2026-04-25T14:25:38.236Z</time></trkpt><trkpt lat="45.4643565" lon="7.7632997"><ele>595.75</ele><time>2026-04-25T14:25:39.239Z</time></trkpt><trkpt lat="45.4643379" lon="7.7630394"><ele>594.0</ele><time>2026-04-25T14:25:40.232Z</time></trkpt><trkpt lat="45.4643091" lon="7.762845"><ele>597.0</ele><time>2026-04-25T14:25:41.23Z</time></trkpt><trkpt lat="45.4643327" lon="7.7626194"><ele>600.0</ele><time>2026-04-25T14:25:42.235Z</time></trkpt><trkpt lat="45.4616137" lon="7.7661291"><ele>591.0</ele><time>2026-04-25T14:25:12.264Z</time></trkpt><trkpt lat="45.4618443" lon="7.766039"><ele>582.0</ele><time>2026-04-25T14:25:13.261Z</time></trkpt><trkpt lat="45.4620891" lon="7.7659794"><ele>568.5</ele><time>2026-04-25T14:25:14.256Z</time></trkpt><trkpt lat="45.4623246" lon="7.7659216"><ele>555.0</ele><time>2026-04-25T14:25:15.262Z</time></trkpt><trkpt lat="45.4625792" lon="7.7658689"><ele>555.0</ele><time>2026-04-25T14:25:16.27Z</time></trkpt><trkpt lat="45.4628163" lon="7.7658162"><ele>555.0</ele><time>2026-04-25T14:25:17.26Z</time></trkpt><trkpt lat="45.4630609" lon="7.7657552"><ele>559.0</ele><time>2026-04-25T14:25:18.267Z</time></trkpt><trkpt lat="45.4633038" lon="7.7657199"><ele>563.0</ele><time>2026-04-25T14:25:19.262Z</time></trkpt><trkpt lat="45.4635345" lon="7.7656267"><ele>563.0</ele><time>2026-04-25T14:25:20.256Z</time></trkpt><trkpt lat="45.4637364" lon="7.7655882"><ele>563.0</ele><time>2026-04-25T14:25:21.267Z</time></trkpt><trkpt lat="45.4639513" lon="7.7655268"><ele>563.0</ele><time>2026-04-25T14:25:22.254Z</time></trkpt><trkpt lat="45.4641191" lon="7.765464"><ele>568.0</ele><time>2026-04-25T14:25:23.26Z</time></trkpt><trkpt lat="45.4642825" lon="7.7654026"><ele>573.0</ele><time>2026-04-25T14:25:24.253Z</time></trkpt><trkpt lat="45.4644707" lon="7.7653647"><ele>578.0</ele><time>2026-04-25T14:25:25.243Z</time></trkpt><trkpt lat="45.4646428" lon="7.7653322"><ele>580.0</ele><time>2026-04-25T14:25:26.255Z</time></trkpt><trkpt lat="45.4647709" lon="7.7652374"><ele>582.0</ele><time>2026-04-25T14:25:27.249Z</time></trkpt><trkpt lat="45.4648931" lon="7.7651042"><ele>584.0</ele><time>2026-04-25T14:25:28.245Z</time></trkpt><trkpt lat="45.4649864" lon="7.7649668"><ele>586.0</ele><time>2026-04-25T14:25:29.254Z</time></trkpt><trkpt lat="45.4650226" lon="7.7648185"><ele>587.5</ele><time>2026-04-25T14:25:30.256Z</time></trkpt><trkpt lat="45.4650189" lon="7.764643"><ele>589.0</ele><time>2026-04-25T14:25:31.249Z</time></trkpt><trkpt lat="45.464991" lon="7.7644635"><ele>590.5</ele><time>2026-04-25T14:25:32.249Z</time></trkpt><trkpt lat="45.4649551" lon="7.7642306"><ele>592.0</ele><time>2026-04-25T14:25:33.236Z</time></trkpt><trkpt lat="45.4648617" lon="7.7640184"><ele>595.0</ele><time>2026-04-25T14:25:34.244Z</time></trkpt><trkpt lat="45.4647983" lon="7.763789"><ele>598.0</ele><time>2026-04-25T14:25:35.237Z</time></trkpt><trkpt lat="45.4646527" lon="7.763674"><ele>601.0</ele><time>2026-04-25T14:25:36.234Z</time></trkpt><trkpt lat="45.4645376" lon="7.7635611"><ele>599.25</ele><time>2026-04-25T14:25:37.238Z</time></trkpt><trkpt lat="45.4644499" lon="7.7634109"><ele>597.5</ele><time>2026-04-25T14:25:38.236Z</time></trkpt><trkpt lat="45.4643565" lon="7.7632997"><ele>595.75</ele><time>2026-04-25T14:25:39.239Z</time></trkpt><trkpt lat="45.4643379" lon="7.7630394"><ele>594.0</ele><time>2026-04-25T14:25:40.232Z</time></trkpt><trkpt lat="45.4643091" lon="7.762845"><ele>596.0</ele><time>2026-04-25T14:25:41.23Z</time></trkpt><trkpt lat="45.4643327" lon="7.7626194"><ele>598.0</ele><time>2026-04-25T14:25:42.235Z</time></trkpt><trkpt lat="45.4643944" lon="7.7623785"><ele>600.0</ele><time>2026-04-25T14:25:43.235Z</time></trkpt><trkpt lat="45.4644407" lon="7.7621465"><ele>600.3333333333334</ele><time>2026-04-25T14:25:44.245Z</time></trkpt><trkpt lat="45.4644604" lon="7.7618314"><ele>600.6666666666667</ele><time>2026-04-25T14:25:45.244Z</time></trkpt><trkpt lat="45.464497" lon="7.761585"><ele>601.0</ele><time>2026-04-25T14:25:46.243Z</time></trkpt><trkpt lat="45.4645767" lon="7.7613691"><ele>601.0</ele><time>2026-04-25T14:25:47.243Z</time></trkpt><trkpt lat="45.4645944" lon="7.761201"><ele>601.0</ele><time>2026-04-25T14:25:48.244Z</time></trkpt><trkpt lat="45.4645564" lon="7.7610055"><ele>601.0</ele><time>2026-04-25T14:25:49.242Z</time></trkpt><trkpt lat="45.4645266" lon="7.760812"><ele>601.0</ele><time>2026-04-25T14:25:50.251Z</time></trkpt><trkpt lat="45.4645301" lon="7.7606638"><ele>603.25</ele><time>2026-04-25T14:25:51.255Z</time></trkpt><trkpt lat="45.4645154" lon="7.7605517"><ele>605.5</ele><time>2026-04-25T14:25:52.254Z</time></trkpt><trkpt lat="45.4645794" lon="7.760389"><ele>607.75</ele><time>2026-04-25T14:25:54.261Z</time></trkpt><trkpt lat="45.4647032" lon="7.7605428"><ele>610.0</ele><time>2026-04-25T14:25:56.241Z</time></trkpt><trkpt lat="45.4647654" lon="7.7607003"><ele>613.3333333333334</ele><time>2026-04-25T14:25:57.266Z</time></trkpt><trkpt lat="45.4648467" lon="7.760891"><ele>616.6666666666666</ele><time>2026-04-25T14:25:58.251Z</time></trkpt><trkpt lat="45.464945" lon="7.7610989"><ele>620.0</ele><time>2026-04-25T14:25:59.238Z</time></trkpt><trkpt lat="45.4650258" lon="7.7613082"><ele>620.0</ele><time>2026-04-25T14:26:00.244Z</time></trkpt><trkpt lat="45.4651395" lon="7.7614774"><ele>620.0</ele><time>2026-04-25T14:26:01.253Z</time></trkpt><trkpt lat="45.4652531" lon="7.761608"><ele>620.0</ele><time>2026-04-25T14:26:02.251Z</time></trkpt><trkpt lat="45.4653622" lon="7.76171"><ele>620.0</ele><time>2026-04-25T14:26:03.267Z</time></trkpt><trkpt lat="45.4654634" lon="7.7617219"><ele>621.75</ele><time>2026-04-25T14:26:04.26Z</time></trkpt><trkpt lat="45.4655557" lon="7.7617021"><ele>623.5</ele><time>2026-04-25T14:26:05.251Z</time></trkpt><trkpt lat="45.4656591" lon="7.7615979"><ele>625.25</ele><time>2026-04-25T14:26:06.239Z</time></trkpt><trkpt lat="45.4657769" lon="7.7614503"><ele>627.0</ele><time>2026-04-25T14:26:07.241Z</time></trkpt><trkpt lat="45.4659044" lon="7.7613259"><ele>627.0</ele><time>2026-04-25T14:26:08.25Z</time></trkpt><trkpt lat="45.4660334" lon="7.7612382"><ele>627.0</ele><time>2026-04-25T14:26:09.259Z</time></trkpt><trkpt lat="45.466184" lon="7.7612279"><ele>627.0</ele><time>2026-04-25T14:26:10.257Z</time></trkpt><trkpt lat="45.466353" lon="7.7612771"><ele>629.0</ele><time>2026-04-25T14:26:11.251Z</time></trkpt><trkpt lat="45.4665395" lon="7.76131"><ele>631.0</ele><time>2026-04-25T14:26:12.255Z</time></trkpt><trkpt lat="45.4667254" lon="7.7613245"><ele>633.0</ele><time>2026-04-25T14:26:13.251Z</time></trkpt><trkpt lat="45.466902" lon="7.7613473"><ele>633.0</ele><time>2026-04-25T14:26:14.262Z</time></trkpt><trkpt lat="45.4670701" lon="7.7613826"><ele>633.0</ele><time>2026-04-25T14:26:15.259Z</time></trkpt><trkpt lat="45.4672267" lon="7.7613979"><ele>633.0</ele><time>2026-04-25T14:26:16.265Z</time></trkpt><trkpt lat="45.4673913" lon="7.7614457"><ele>635.0</ele><time>2026-04-25T14:26:17.259Z</time></trkpt><trkpt lat="45.4675546" lon="7.7614978"><ele>637.0</ele><time>2026-04-25T14:26:18.266Z</time></trkpt><trkpt lat="45.4677054" lon="7.7615576"><ele>639.0</ele><time>2026-04-25T14:26:19.272Z</time></trkpt><trkpt lat="45.4678618" lon="7.7615667"><ele>640.5</ele><time>2026-04-25T14:26:20.273Z</time></trkpt><trkpt lat="45.4680068" lon="7.7615939"><ele>642.0</ele><time>2026-04-25T14:26:21.271Z</time></trkpt><trkpt lat="45.4681711" lon="7.7616116"><ele>643.5</ele><time>2026-04-25T14:26:22.268Z</time></trkpt><trkpt lat="45.4683079" lon="7.7616284"><ele>645.0</ele><time>2026-04-25T14:26:23.272Z</time></trkpt><trkpt lat="45.4684832" lon="7.7616524"><ele>645.0</ele><time>2026-04-25T14:26:24.26Z</time></trkpt><trkpt lat="45.4686642" lon="7.7616988"><ele>645.0</ele><time>2026-04-25T14:26:25.257Z</time></trkpt><trkpt lat="45.4688503" lon="7.7617308"><ele>645.0</ele><time>2026-04-25T14:26:26.258Z</time></trkpt><trkpt lat="45.468968" lon="7.7617867"><ele>645.0</ele><time>2026-04-25T14:26:27.264Z</time></trkpt><trkpt lat="45.4691352" lon="7.7618147"><ele>645.0</ele><time>2026-04-25T14:26:28.262Z</time></trkpt><trkpt lat="45.4692876" lon="7.7619112"><ele>645.0</ele><time>2026-04-25T14:26:29.259Z</time></trkpt><trkpt lat="45.4694477" lon="7.7619627"><ele>649.0</ele><time>2026-04-25T14:26:30.26Z</time></trkpt><trkpt lat="45.4696281" lon="7.7620868"><ele>653.0</ele><time>2026-04-25T14:26:31.269Z</time></trkpt><trkpt lat="45.4697341" lon="7.762301"><ele>657.0</ele><time>2026-04-25T14:26:32.254Z</time></trkpt><trkpt lat="45.4698743" lon="7.7624987"><ele>657.0</ele><time>2026-04-25T14:26:33.266Z</time></trkpt><trkpt lat="45.4699953" lon="7.7626413"><ele>657.0</ele><time>2026-04-25T14:26:34.26Z</time></trkpt><trkpt lat="45.4701285" lon="7.7628032"><ele>657.0</ele><time>2026-04-25T14:26:35.256Z</time></trkpt><trkpt lat="45.4702448" lon="7.7629446"><ele>656.0</ele><time>2026-04-25T14:26:36.259Z</time></trkpt><trkpt lat="45.4704065" lon="7.7630444"><ele>655.0</ele><time>2026-04-25T14:26:37.263Z</time></trkpt><trkpt lat="45.4705572" lon="7.7631521"><ele>654.0</ele><time>2026-04-25T14:26:38.277Z</time></trkpt><trkpt lat="45.4707209" lon="7.7631993"><ele>656.0</ele><time>2026-04-25T14:26:39.266Z</time></trkpt><trkpt lat="45.4708789" lon="7.7632607"><ele>658.0</ele><time>2026-04-25T14:26:40.267Z</time></trkpt><trkpt lat="45.4710407" lon="7.7633"><ele>660.0</ele><time>2026-04-25T14:26:41.271Z</time></trkpt><trkpt lat="45.4712029" lon="7.7633577"><ele>662.6666666666666</ele><time>2026-04-25T14:26:42.265Z</time></trkpt><trkpt lat="45.4713712" lon="7.7633902"><ele>665.3333333333333</ele><time>2026-04-25T14:26:43.263Z</time></trkpt><trkpt lat="45.4715212" lon="7.7634448"><ele>668.0</ele><time>2026-04-25T14:26:44.262Z</time></trkpt><trkpt lat="45.4716586" lon="7.763556"><ele>668.2</ele><time>2026-04-25T14:26:45.263Z</time></trkpt><trkpt lat="45.4717785" lon="7.7636398"><ele>668.4</ele><time>2026-04-25T14:26:46.263Z</time></trkpt><trkpt lat="45.471856" lon="7.7636816"><ele>668.6</ele><time>2026-04-25T14:26:47.247Z</time></trkpt><trkpt lat="45.4719284" lon="7.7637079"><ele>668.8000000000001</ele><time>2026-04-25T14:26:48.247Z</time></trkpt><trkpt lat="45.4719343" lon="7.763826"><ele>669.0</ele><time>2026-04-25T14:26:50.255Z</time></trkpt><trkpt lat="45.4720025" lon="7.763775"><ele>669.0</ele><time>2026-04-25T14:26:52.25Z</time></trkpt><trkpt lat="45.4720581" lon="7.7636103"><ele>669.0</ele><time>2026-04-25T14:26:54.242Z</time></trkpt><trkpt lat="45.4720962" lon="7.7635386"><ele>669.0</ele><time>2026-04-25T14:26:55.243Z</time></trkpt><trkpt lat="45.4721615" lon="7.7634963"><ele>669.0</ele><time>2026-04-25T14:26:56.237Z</time></trkpt><trkpt lat="45.4722528" lon="7.7634673"><ele>669.0</ele><time>2026-04-25T14:26:58.251Z</time></trkpt><trkpt lat="45.4723235" lon="7.7635432"><ele>669.0</ele><time>2026-04-25T14:26:59.252Z</time></trkpt><trkpt lat="45.4724097" lon="7.7636535"><ele>669.0</ele><time>2026-04-25T14:27:00.246Z</time></trkpt><trkpt lat="45.472503" lon="7.7637434"><ele>669.0</ele><time>2026-04-25T14:27:01.238Z</time></trkpt><trkpt lat="45.4726118" lon="7.7638014"><ele>669.0</ele><time>2026-04-25T14:27:02.24Z</time></trkpt><trkpt lat="45.4727092" lon="7.7638369"><ele>669.0</ele><time>2026-04-25T14:27:03.236Z</time></trkpt><trkpt lat="45.4728086" lon="7.7638507"><ele>669.0</ele><time>2026-04-25T14:27:04.245Z</time></trkpt><trkpt lat="45.4728993" lon="7.7638538"><ele>672.2</ele><time>2026-04-25T14:27:05.243Z</time></trkpt><trkpt lat="45.4729782" lon="7.7638921"><ele>675.4000000000001</ele><time>2026-04-25T14:27:06.244Z</time></trkpt><trkpt lat="45.4730565" lon="7.7639184"><ele>678.6</ele><time>2026-04-25T14:27:07.257Z</time></trkpt><trkpt lat="45.4731531" lon="7.7639852"><ele>681.8</ele><time>2026-04-25T14:27:08.252Z</time></trkpt><trkpt lat="45.4732403" lon="7.7640681"><ele>685.0</ele><time>2026-04-25T14:27:09.244Z</time></trkpt><trkpt lat="45.4733195" lon="7.7641354"><ele>685.0</ele><time>2026-04-25T14:27:10.253Z</time></trkpt><trkpt lat="45.4733923" lon="7.7641963"><ele>685.0</ele><time>2026-04-25T14:27:11.242Z</time></trkpt><trkpt lat="45.4734472" lon="7.7642845"><ele>685.0</ele><time>2026-04-25T14:27:12.24Z</time></trkpt><trkpt lat="45.4735085" lon="7.7643851"><ele>685.0</ele><time>2026-04-25T14:27:13.242Z</time></trkpt><trkpt lat="45.4735842" lon="7.7644903"><ele>685.0</ele><time>2026-04-25T14:27:14.242Z</time></trkpt><trkpt lat="45.4736739" lon="7.7645999"><ele>682.75</ele><time>2026-04-25T14:27:15.244Z</time></trkpt><trkpt lat="45.4737643" lon="7.7647109"><ele>680.5</ele><time>2026-04-25T14:27:16.238Z</time></trkpt><trkpt lat="45.4738564" lon="7.7648253"><ele>678.25</ele><time>2026-04-25T14:27:17.234Z</time></trkpt><trkpt lat="45.4739406" lon="7.7649311"><ele>676.0</ele><time>2026-04-25T14:27:18.238Z</time></trkpt><trkpt lat="45.4740416" lon="7.7650321"><ele>678.0</ele><time>2026-04-25T14:27:19.238Z</time></trkpt><trkpt lat="45.4741564" lon="7.7651322"><ele>680.0</ele><time>2026-04-25T14:27:20.235Z</time></trkpt><trkpt lat="45.4742541" lon="7.765215"><ele>682.0</ele><time>2026-04-25T14:27:21.242Z</time></trkpt><trkpt lat="45.4743702" lon="7.7652916"><ele>684.0</ele><time>2026-04-25T14:27:22.241Z</time></trkpt><trkpt lat="45.4744724" lon="7.7653612"><ele>684.0</ele><time>2026-04-25T14:27:23.237Z</time></trkpt><trkpt lat="45.4745285" lon="7.7654352"><ele>684.0</ele><time>2026-04-25T14:27:24.235Z</time></trkpt><trkpt lat="45.4746267" lon="7.7655157"><ele>684.0</ele><time>2026-04-25T14:27:25.235Z</time></trkpt><trkpt lat="45.4747243" lon="7.7655727"><ele>684.0</ele><time>2026-04-25T14:27:26.235Z</time></trkpt><trkpt lat="45.4747964" lon="7.7656041"><ele>684.0</ele><time>2026-04-25T14:27:27.236Z</time></trkpt><trkpt lat="45.4748784" lon="7.7656297"><ele>688.0</ele><time>2026-04-25T14:27:28.233Z</time></trkpt><trkpt lat="45.4749408" lon="7.7656883"><ele>692.0</ele><time>2026-04-25T14:27:29.233Z</time></trkpt><trkpt lat="45.4749955" lon="7.7658184"><ele>696.0</ele><time>2026-04-25T14:27:30.238Z</time></trkpt><trkpt lat="45.4750468" lon="7.7659085"><ele>700.0</ele><time>2026-04-25T14:27:31.238Z</time></trkpt><trkpt lat="45.4750842" lon="7.7660151"><ele>704.0</ele><time>2026-04-25T14:27:32.231Z</time></trkpt><trkpt lat="45.4750717" lon="7.7661499"><ele>708.0</ele><time>2026-04-25T14:27:33.241Z</time></trkpt><trkpt lat="45.4751384" lon="7.7663089"><ele>708.0</ele><time>2026-04-25T14:27:34.228Z</time></trkpt><trkpt lat="45.4751359" lon="7.7665276"><ele>708.0</ele><time>2026-04-25T14:27:35.242Z</time></trkpt><trkpt lat="45.4751509" lon="7.766746"><ele>708.0</ele><time>2026-04-25T14:27:36.235Z</time></trkpt><trkpt lat="45.4751997" lon="7.7669381"><ele>705.25</ele><time>2026-04-25T14:27:37.236Z</time></trkpt><trkpt lat="45.4752239" lon="7.7671394"><ele>702.5</ele><time>2026-04-25T14:27:38.234Z</time></trkpt><trkpt lat="45.4752473" lon="7.7672953"><ele>699.75</ele><time>2026-04-25T14:27:39.236Z</time></trkpt><trkpt lat="45.4752937" lon="7.7674558"><ele>697.0</ele><time>2026-04-25T14:27:40.24Z</time></trkpt><trkpt lat="45.4753521" lon="7.7675882"><ele>696.6</ele><time>2026-04-25T14:27:41.244Z</time></trkpt><trkpt lat="45.4754028" lon="7.7677196"><ele>696.2</ele><time>2026-04-25T14:27:42.244Z</time></trkpt><trkpt lat="45.4754462" lon="7.767849"><ele>695.8</ele><time>2026-04-25T14:27:43.24Z</time></trkpt><trkpt lat="45.4755077" lon="7.7679689"><ele>695.4</ele><time>2026-04-25T14:27:44.237Z</time></trkpt><trkpt lat="45.4755622" lon="7.7681173"><ele>695.0</ele><time>2026-04-25T14:27:45.238Z</time></trkpt><trkpt lat="45.4756148" lon="7.768234"><ele>700.6</ele><time>2026-04-25T14:27:46.233Z</time></trkpt><trkpt lat="45.4756427" lon="7.7683329"><ele>706.2</ele><time>2026-04-25T14:27:47.227Z</time></trkpt><trkpt lat="45.4756714" lon="7.7684807"><ele>711.8</ele><time>2026-04-25T14:27:48.228Z</time></trkpt><trkpt lat="45.4756843" lon="7.7686131"><ele>717.4</ele><time>2026-04-25T14:27:49.236Z</time></trkpt><trkpt lat="45.4757022" lon="7.7687678"><ele>723.0</ele><time>2026-04-25T14:27:50.235Z</time></trkpt><trkpt lat="45.4757324" lon="7.7689202"><ele>723.0</ele><time>2026-04-25T14:27:51.239Z</time></trkpt><trkpt lat="45.4757681" lon="7.7690908"><ele>723.0</ele><time>2026-04-25T14:27:52.236Z</time></trkpt><trkpt lat="45.4758113" lon="7.7692465"><ele>723.0</ele><time>2026-04-25T14:27:53.239Z</time></trkpt><trkpt lat="45.4758484" lon="7.769385"><ele>723.0</ele><time>2026-04-25T14:27:54.241Z</time></trkpt><trkpt lat="45.4758855" lon="7.7695147"><ele>723.0</ele><time>2026-04-25T14:27:55.241Z</time></trkpt><trkpt lat="45.4759182" lon="7.7696578"><ele>724.8</ele><time>2026-04-25T14:27:56.236Z</time></trkpt><trkpt lat="45.4759129" lon="7.7697702"><ele>726.5999999999999</ele><time>2026-04-25T14:27:57.24Z</time></trkpt><trkpt lat="45.4758976" lon="7.7698981"><ele>728.4000000000001</ele><time>2026-04-25T14:27:58.235Z</time></trkpt><trkpt lat="45.4758706" lon="7.7700166"><ele>730.2</ele><time>2026-04-25T14:27:59.24Z</time></trkpt><trkpt lat="45.4758406" lon="7.7701589"><ele>732.0</ele><time>2026-04-25T14:28:00.241Z</time></trkpt><trkpt lat="45.4758135" lon="7.7703059"><ele>733.6</ele><time>2026-04-25T14:28:01.254Z</time></trkpt><trkpt lat="45.4758112" lon="7.7704706"><ele>735.2</ele><time>2026-04-25T14:28:02.24Z</time></trkpt><trkpt lat="45.4758085" lon="7.7706236"><ele>736.8</ele><time>2026-04-25T14:28:03.238Z</time></trkpt><trkpt lat="45.475804" lon="7.7707819"><ele>738.4</ele><time>2026-04-25T14:28:04.243Z</time></trkpt><trkpt lat="45.475789" lon="7.7709396"><ele>740.0</ele><time>2026-04-25T14:28:05.244Z</time></trkpt><trkpt lat="45.4757746" lon="7.7710999"><ele>742.0</ele><time>2026-04-25T14:28:06.245Z</time></trkpt><trkpt lat="45.4757481" lon="7.7712701"><ele>744.0</ele><time>2026-04-25T14:28:07.233Z</time></trkpt><trkpt lat="45.475715" lon="7.7714312"><ele>746.0</ele><time>2026-04-25T14:28:08.24Z</time></trkpt><trkpt lat="45.4756728" lon="7.7715919"><ele>748.0</ele><time>2026-04-25T14:28:09.241Z</time></trkpt><trkpt lat="45.475665" lon="7.7717409"><ele>750.4</ele><time>2026-04-25T14:28:10.239Z</time></trkpt><trkpt lat="45.4756597" lon="7.7718838"><ele>752.8</ele><time>2026-04-25T14:28:11.249Z</time></trkpt><trkpt lat="45.475668" lon="7.7720225"><ele>755.2</ele><time>2026-04-25T14:28:12.25Z</time></trkpt><trkpt lat="45.4756649" lon="7.7721669"><ele>757.6</ele><time>2026-04-25T14:28:13.246Z</time></trkpt><trkpt lat="45.4756407" lon="7.7722913"><ele>760.0</ele><time>2026-04-25T14:28:14.244Z</time></trkpt><trkpt lat="45.475604" lon="7.772413"><ele>760.0</ele><time>2026-04-25T14:28:15.246Z</time></trkpt><trkpt lat="45.4755677" lon="7.772536"><ele>760.0</ele><time>2026-04-25T14:28:16.242Z</time></trkpt><trkpt lat="45.4755452" lon="7.7726438"><ele>760.0</ele><time>2026-04-25T14:28:17.24Z</time></trkpt><trkpt lat="45.4755027" lon="7.7727819"><ele>760.0</ele><time>2026-04-25T14:28:19.237Z</time></trkpt><trkpt lat="45.4755644" lon="7.7728319"><ele>760.0</ele><time>2026-04-25T14:28:21.249Z</time></trkpt><trkpt lat="45.4756488" lon="7.7727811"><ele>760.0</ele><time>2026-04-25T14:28:23.244Z</time></trkpt><trkpt lat="45.475724" lon="7.7726383"><ele>760.0</ele><time>2026-04-25T14:28:25.247Z</time></trkpt><trkpt lat="45.475747" lon="7.772521"><ele>760.0</ele><time>2026-04-25T14:28:26.24Z</time></trkpt><trkpt lat="45.475787" lon="7.7723869"><ele>760.0</ele><time>2026-04-25T14:28:27.235Z</time></trkpt><trkpt lat="45.4758423" lon="7.7722268"><ele>760.0</ele><time>2026-04-25T14:28:28.227Z</time></trkpt><trkpt lat="45.4758723" lon="7.7720668"><ele>760.0</ele><time>2026-04-25T14:28:29.234Z</time></trkpt><trkpt lat="45.4759251" lon="7.7719045"><ele>757.0</ele><time>2026-04-25T14:28:30.237Z</time></trkpt><trkpt lat="45.4759916" lon="7.7717456"><ele>754.0</ele><time>2026-04-25T14:28:31.239Z</time></trkpt><trkpt lat="45.4760522" lon="7.7715772"><ele>751.0</ele><time>2026-04-25T14:28:32.236Z</time></trkpt><trkpt lat="45.4761166" lon="7.7714134"><ele>748.0</ele><time>2026-04-25T14:28:33.232Z</time></trkpt><trkpt lat="45.4761812" lon="7.7712512"><ele>748.0</ele><time>2026-04-25T14:28:34.237Z</time></trkpt><trkpt lat="45.476234" lon="7.7710697"><ele>748.0</ele><time>2026-04-25T14:28:35.239Z</time></trkpt><trkpt lat="45.4762751" lon="7.7708997"><ele>748.0</ele><time>2026-04-25T14:28:36.234Z</time></trkpt><trkpt lat="45.4763137" lon="7.7707465"><ele>748.0</ele><time>2026-04-25T14:28:37.238Z</time></trkpt><trkpt lat="45.4763548" lon="7.7705897"><ele>755.5</ele><time>2026-04-25T14:28:38.232Z</time></trkpt><trkpt lat="45.4764036" lon="7.770435"><ele>763.0</ele><time>2026-04-25T14:28:39.236Z</time></trkpt><trkpt lat="45.4764548" lon="7.7702451"><ele>770.5</ele><time>2026-04-25T14:28:40.234Z</time></trkpt><trkpt lat="45.4764869" lon="7.7700624"><ele>778.0</ele><time>2026-04-25T14:28:41.241Z</time></trkpt><trkpt lat="45.4765196" lon="7.7698991"><ele>778.0</ele><time>2026-04-25T14:28:42.242Z</time></trkpt><trkpt lat="45.4765529" lon="7.7697518"><ele>778.0</ele><time>2026-04-25T14:28:43.236Z</time></trkpt><trkpt lat="45.4765848" lon="7.7695912"><ele>778.0</ele><time>2026-04-25T14:28:44.234Z</time></trkpt><trkpt lat="45.4766153" lon="7.7694453"><ele>778.0</ele><time>2026-04-25T14:28:45.229Z</time></trkpt><trkpt lat="45.4766445" lon="7.7692887"><ele>778.0</ele><time>2026-04-25T14:28:46.228Z</time></trkpt><trkpt lat="45.4766719" lon="7.7691137"><ele>776.5</ele><time>2026-04-25T14:28:47.227Z</time></trkpt><trkpt lat="45.476702" lon="7.7689373"><ele>775.0</ele><time>2026-04-25T14:28:48.232Z</time></trkpt><trkpt lat="45.4767408" lon="7.7687637"><ele>773.5</ele><time>2026-04-25T14:28:49.235Z</time></trkpt><trkpt lat="45.476787" lon="7.7685752"><ele>772.0</ele><time>2026-04-25T14:28:50.229Z</time></trkpt><trkpt lat="45.4768075" lon="7.7683486"><ele>770.25</ele><time>2026-04-25T14:28:51.229Z</time></trkpt><trkpt lat="45.4768313" lon="7.7681253"><ele>768.5</ele><time>2026-04-25T14:28:52.235Z</time></trkpt><trkpt lat="45.476847" lon="7.7679489"><ele>766.75</ele><time>2026-04-25T14:28:53.239Z</time></trkpt><trkpt lat="45.476872" lon="7.767823"><ele>765.0</ele><time>2026-04-25T14:28:54.239Z</time></trkpt><trkpt lat="45.4768697" lon="7.7676802"><ele>765.0</ele><time>2026-04-25T14:28:55.236Z</time></trkpt><trkpt lat="45.4768584" lon="7.767505"><ele>765.0</ele><time>2026-04-25T14:28:56.244Z</time></trkpt><trkpt lat="45.4768258" lon="7.76732"><ele>765.0</ele><time>2026-04-25T14:28:57.235Z</time></trkpt><trkpt lat="45.4768455" lon="7.7671268"><ele>765.0</ele><time>2026-04-25T14:28:58.239Z</time></trkpt><trkpt lat="45.476862" lon="7.766883"><ele>766.75</ele><time>2026-04-25T14:28:59.238Z</time></trkpt><trkpt lat="45.4768909" lon="7.766667"><ele>768.5</ele><time>2026-04-25T14:29:00.237Z</time></trkpt><trkpt lat="45.4768754" lon="7.7664903"><ele>770.25</ele><time>2026-04-25T14:29:01.242Z</time></trkpt><trkpt lat="45.4768678" lon="7.7663637"><ele>772.0</ele><time>2026-04-25T14:29:02.239Z</time></trkpt><trkpt lat="45.4768225" lon="7.7661717"><ele>774.25</ele><time>2026-04-25T14:29:03.236Z</time></trkpt><trkpt lat="45.4767596" lon="7.7659295"><ele>776.5</ele><time>2026-04-25T14:29:04.243Z</time></trkpt><trkpt lat="45.4767057" lon="7.7657869"><ele>778.75</ele><time>2026-04-25T14:29:05.233Z</time></trkpt><trkpt lat="45.4767033" lon="7.7656163"><ele>781.0</ele><time>2026-04-25T14:29:06.242Z</time></trkpt><trkpt lat="45.4766903" lon="7.765418"><ele>781.0</ele><time>2026-04-25T14:29:07.241Z</time></trkpt><trkpt lat="45.4766862" lon="7.7652583"><ele>781.0</ele><time>2026-04-25T14:29:08.242Z</time></trkpt><trkpt lat="45.4766236" lon="7.765043"><ele>781.0</ele><time>2026-04-25T14:29:09.238Z</time></trkpt><trkpt lat="45.476634" lon="7.7648582"><ele>781.0</ele><time>2026-04-25T14:29:10.236Z</time></trkpt><trkpt lat="45.4766248" lon="7.764677"><ele>783.0</ele><time>2026-04-25T14:29:11.235Z</time></trkpt><trkpt lat="45.4765626" lon="7.7645164"><ele>785.0</ele><time>2026-04-25T14:29:12.237Z</time></trkpt><trkpt lat="45.4765159" lon="7.7643597"><ele>787.0</ele><time>2026-04-25T14:29:13.236Z</time></trkpt><trkpt lat="45.4764964" lon="7.764195"><ele>789.0</ele><time>2026-04-25T14:29:14.231Z</time></trkpt><trkpt lat="45.4764114" lon="7.7640644"><ele>787.0</ele><time>2026-04-25T14:29:15.233Z</time></trkpt><trkpt lat="45.4763443" lon="7.7639146"><ele>785.0</ele><time>2026-04-25T14:29:16.229Z</time></trkpt><trkpt lat="45.4762855" lon="7.7637452"><ele>783.0</ele><time>2026-04-25T14:29:17.226Z</time></trkpt><trkpt lat="45.4761951" lon="7.7635821"><ele>781.0</ele><time>2026-04-25T14:29:18.235Z</time></trkpt><trkpt lat="45.4761373" lon="7.7634176"><ele>781.0</ele><time>2026-04-25T14:29:19.239Z</time></trkpt><trkpt lat="45.4760576" lon="7.7633189"><ele>781.0</ele><time>2026-04-25T14:29:20.238Z</time></trkpt><trkpt lat="45.4760309" lon="7.7632163"><ele>781.0</ele><time>2026-04-25T14:29:21.236Z</time></trkpt><trkpt lat="45.4761229" lon="7.7631314"><ele>781.0</ele><time>2026-04-25T14:29:23.244Z</time></trkpt><trkpt lat="45.4762439" lon="7.7630285"><ele>781.0</ele><time>2026-04-25T14:29:25.248Z</time></trkpt><trkpt lat="45.4763262" lon="7.7629919"><ele>785.9999999999999</ele><time>2026-04-25T14:29:26.242Z</time></trkpt><trkpt lat="45.4763977" lon="7.7629274"><ele>791.0</ele><time>2026-04-25T14:29:27.24Z</time></trkpt><trkpt lat="45.4764606" lon="7.7628459"><ele>796.0</ele><time>2026-04-25T14:29:28.235Z</time></trkpt><trkpt lat="45.4764958" lon="7.7627504"><ele>801.0</ele><time>2026-04-25T14:29:29.241Z</time></trkpt><trkpt lat="45.4765037" lon="7.7626424"><ele>805.9999999999999</ele><time>2026-04-25T14:29:30.234Z</time></trkpt><trkpt lat="45.4765054" lon="7.7625441"><ele>811.0</ele><time>2026-04-25T14:29:31.243Z</time></trkpt><trkpt lat="45.4764812" lon="7.7624482"><ele>811.4</ele><time>2026-04-25T14:29:32.235Z</time></trkpt><trkpt lat="45.4764465" lon="7.7623457"><ele>811.8</ele><time>2026-04-25T14:29:33.241Z</time></trkpt><trkpt lat="45.476425" lon="7.7622362"><ele>812.1999999999999</ele><time>2026-04-25T14:29:34.241Z</time></trkpt><trkpt lat="45.4763675" lon="7.7621014"><ele>812.5999999999999</ele><time>2026-04-25T14:29:35.238Z</time></trkpt><trkpt lat="45.4763255" lon="7.7619506"><ele>813.0</ele><time>2026-04-25T14:29:36.241Z</time></trkpt><trkpt lat="45.4762979" lon="7.7617925"><ele>813.0</ele><time>2026-04-25T14:29:37.25Z</time></trkpt><trkpt lat="45.4763189" lon="7.7616548"><ele>813.0</ele><time>2026-04-25T14:29:38.241Z</time></trkpt><trkpt lat="45.4763874" lon="7.761535"><ele>813.0</ele><time>2026-04-25T14:29:39.249Z</time></trkpt><trkpt lat="45.4764545" lon="7.7614037"><ele>813.0</ele><time>2026-04-25T14:29:40.253Z</time></trkpt><trkpt lat="45.4765117" lon="7.7613265"><ele>813.0</ele><time>2026-04-25T14:29:41.245Z</time></trkpt><trkpt lat="45.4765803" lon="7.7612687"><ele>813.0</ele><time>2026-04-25T14:29:42.247Z</time></trkpt><trkpt lat="45.4766623" lon="7.7612338"><ele>813.0</ele><time>2026-04-25T14:29:44.245Z</time></trkpt><trkpt lat="45.476728" lon="7.7611919"><ele>813.0</ele><time>2026-04-25T14:30:23.256Z</time></trkpt><trkpt lat="45.4767912" lon="7.7611556"><ele>813.0</ele><time>2026-04-25T14:30:42.265Z</time></trkpt><trkpt lat="45.4768448" lon="7.7611043"><ele>813.0</ele><time>2026-04-25T14:31:08.257Z</time></trkpt><trkpt lat="45.4769116" lon="7.7610577"><ele>813.0</ele><time>2026-04-25T14:35:03.252Z</time></trkpt><trkpt lat="45.4770171" lon="7.7609778"><ele>813.0</ele><time>2026-04-25T14:36:35.237Z</time></trkpt><trkpt lat="45.4769213" lon="7.7610744"><ele>813.0</ele><time>2026-04-25T14:36:40.235Z</time></trkpt><trkpt lat="45.4770013" lon="7.7610321"><ele>813.0</ele><time>2026-04-25T14:38:05.254Z</time></trkpt><trkpt lat="45.476965" lon="7.7611477"><ele>813.0</ele><time>2026-04-25T14:38:09.25Z</time></trkpt><trkpt lat="45.4769244" lon="7.7612626"><ele>813.0</ele><time>2026-04-25T14:38:10.244Z</time></trkpt><trkpt lat="45.4768945" lon="7.7613816"><ele>813.0</ele><time>2026-04-25T14:38:11.239Z</time></trkpt><trkpt lat="45.4768731" lon="7.7615125"><ele>813.0</ele><time>2026-04-25T14:38:12.244Z</time></trkpt><trkpt lat="45.4768618" lon="7.7616476"><ele>813.0</ele><time>2026-04-25T14:38:13.242Z</time></trkpt><trkpt lat="45.4768749" lon="7.7617787"><ele>813.0</ele><time>2026-04-25T14:38:14.245Z</time></trkpt><trkpt lat="45.4769304" lon="7.7618956"><ele>813.0</ele><time>2026-04-25T14:38:15.251Z</time></trkpt><trkpt lat="45.4769682" lon="7.7620254"><ele>813.2</ele><time>2026-04-25T14:38:16.246Z</time></trkpt><trkpt lat="45.4769897" lon="7.7621712"><ele>813.4</ele><time>2026-04-25T14:38:17.246Z</time></trkpt><trkpt lat="45.4770132" lon="7.7623155"><ele>813.6</ele><time>2026-04-25T14:38:18.245Z</time></trkpt><trkpt lat="45.4770101" lon="7.7624698"><ele>813.8000000000001</ele><time>2026-04-25T14:38:19.245Z</time></trkpt><trkpt lat="45.477005" lon="7.7626369"><ele>814.0</ele><time>2026-04-25T14:38:20.241Z</time></trkpt><trkpt lat="45.4770078" lon="7.7628145"><ele>813.25</ele><time>2026-04-25T14:38:21.248Z</time></trkpt><trkpt lat="45.4770358" lon="7.762996"><ele>812.5</ele><time>2026-04-25T14:38:22.244Z</time></trkpt><trkpt lat="45.4770711" lon="7.763165"><ele>811.75</ele><time>2026-04-25T14:38:23.247Z</time></trkpt><trkpt lat="45.4771132" lon="7.7633214"><ele>811.0</ele><time>2026-04-25T14:38:24.247Z</time></trkpt><trkpt lat="45.4771631" lon="7.7634519"><ele>815.0</ele><time>2026-04-25T14:38:25.25Z</time></trkpt><trkpt lat="45.477236" lon="7.7635532"><ele>819.0</ele><time>2026-04-25T14:38:26.238Z</time></trkpt><trkpt lat="45.4773143" lon="7.7636618"><ele>823.0</ele><time>2026-04-25T14:38:27.246Z</time></trkpt><trkpt lat="45.4773954" lon="7.7637843"><ele>827.0</ele><time>2026-04-25T14:38:28.24Z</time></trkpt><trkpt lat="45.477465" lon="7.763902"><ele>831.0</ele><time>2026-04-25T14:38:29.252Z</time></trkpt><trkpt lat="45.4775179" lon="7.7640257"><ele>831.0</ele><time>2026-04-25T14:38:30.255Z</time></trkpt><trkpt lat="45.477591" lon="7.7641523"><ele>831.0</ele><time>2026-04-25T14:38:31.26Z</time></trkpt><trkpt lat="45.4776468" lon="7.764259"><ele>831.0</ele><time>2026-04-25T14:38:32.247Z</time></trkpt><trkpt lat="45.4776767" lon="7.7643814"><ele>831.0</ele><time>2026-04-25T14:38:33.244Z</time></trkpt><trkpt lat="45.4776799" lon="7.7645079"><ele>831.0</ele><time>2026-04-25T14:38:34.245Z</time></trkpt><trkpt lat="45.4777035" lon="7.7646243"><ele>831.3333333333334</ele><time>2026-04-25T14:38:35.249Z</time></trkpt><trkpt lat="45.4777525" lon="7.7647466"><ele>831.6666666666667</ele><time>2026-04-25T14:38:36.243Z</time></trkpt><trkpt lat="45.4777991" lon="7.7648386"><ele>832.0</ele><time>2026-04-25T14:38:37.248Z</time></trkpt><trkpt lat="45.4778548" lon="7.7648987"><ele>832.3333333333334</ele><time>2026-04-25T14:38:38.242Z</time></trkpt><trkpt lat="45.4779238" lon="7.76492"><ele>832.6666666666667</ele><time>2026-04-25T14:38:39.24Z</time></trkpt><trkpt lat="45.4779964" lon="7.7648725"><ele>833.0</ele><time>2026-04-25T14:38:40.249Z</time></trkpt><trkpt lat="45.4780636" lon="7.7647896"><ele>833.0</ele><time>2026-04-25T14:38:41.244Z</time></trkpt><trkpt lat="45.4781277" lon="7.764685"><ele>833.0</ele><time>2026-04-25T14:38:42.249Z</time></trkpt><trkpt lat="45.4781694" lon="7.7645669"><ele>833.0</ele><time>2026-04-25T14:38:43.255Z</time></trkpt><trkpt lat="45.4781929" lon="7.764444"><ele>833.0</ele><time>2026-04-25T14:38:44.254Z</time></trkpt><trkpt lat="45.478198" lon="7.7643029"><ele>833.0</ele><time>2026-04-25T14:38:45.252Z</time></trkpt><trkpt lat="45.4781866" lon="7.7641531"><ele>836.0</ele><time>2026-04-25T14:38:46.247Z</time></trkpt><trkpt lat="45.4781603" lon="7.7639912"><ele>839.0</ele><time>2026-04-25T14:38:47.244Z</time></trkpt><trkpt lat="45.4781286" lon="7.7638346"><ele>842.0</ele><time>2026-04-25T14:38:48.243Z</time></trkpt><trkpt lat="45.4781105" lon="7.7636801"><ele>845.0</ele><time>2026-04-25T14:38:49.244Z</time></trkpt><trkpt lat="45.4781048" lon="7.7635176"><ele>846.5000000000001</ele><time>2026-04-25T14:38:50.235Z</time></trkpt><trkpt lat="45.4781016" lon="7.7633838"><ele>848.0</ele><time>2026-04-25T14:38:51.242Z</time></trkpt><trkpt lat="45.478099" lon="7.7632643"><ele>849.5</ele><time>2026-04-25T14:38:52.236Z</time></trkpt><trkpt lat="45.478119" lon="7.7631608"><ele>851.0</ele><time>2026-04-25T14:38:53.245Z</time></trkpt><trkpt lat="45.478154" lon="7.763068"><ele>852.5000000000001</ele><time>2026-04-25T14:38:54.241Z</time></trkpt><trkpt lat="45.4782097" lon="7.7629809"><ele>854.0</ele><time>2026-04-25T14:38:55.243Z</time></trkpt><trkpt lat="45.4782757" lon="7.7628831"><ele>854.0</ele><time>2026-04-25T14:38:56.247Z</time></trkpt><trkpt lat="45.4783361" lon="7.762773"><ele>854.0000000000001</ele><time>2026-04-25T14:38:57.25Z</time></trkpt><trkpt lat="45.4783834" lon="7.7626408"><ele>854.0000000000001</ele><time>2026-04-25T14:38:58.246Z</time></trkpt><trkpt lat="45.4784222" lon="7.7624929"><ele>854.0</ele><time>2026-04-25T14:38:59.252Z</time></trkpt><trkpt lat="45.4784567" lon="7.7623468"><ele>854.0</ele><time>2026-04-25T14:39:00.241Z</time></trkpt><trkpt lat="45.4784788" lon="7.7621971"><ele>854.8000000000001</ele><time>2026-04-25T14:39:01.247Z</time></trkpt><trkpt lat="45.4784889" lon="7.7620619"><ele>855.6000000000001</ele><time>2026-04-25T14:39:02.238Z</time></trkpt><trkpt lat="45.4784964" lon="7.7619294"><ele>856.4</ele><time>2026-04-25T14:39:03.237Z</time></trkpt><trkpt lat="45.4785228" lon="7.7617991"><ele>857.2</ele><time>2026-04-25T14:39:04.234Z</time></trkpt><trkpt lat="45.4785549" lon="7.7616746"><ele>858.0</ele><time>2026-04-25T14:39:05.235Z</time></trkpt><trkpt lat="45.4785857" lon="7.7615442"><ele>858.5999999999999</ele><time>2026-04-25T14:39:06.234Z</time></trkpt><trkpt lat="45.4786245" lon="7.7614102"><ele>859.1999999999999</ele><time>2026-04-25T14:39:07.242Z</time></trkpt><trkpt lat="45.4786561" lon="7.7612777"><ele>859.8</ele><time>2026-04-25T14:39:08.241Z</time></trkpt><trkpt lat="45.4786796" lon="7.7611546"><ele>860.4</ele><time>2026-04-25T14:39:09.239Z</time></trkpt><trkpt lat="45.4786944" lon="7.7610291"><ele>861.0</ele><time>2026-04-25T14:39:10.238Z</time></trkpt><trkpt lat="45.4787122" lon="7.760896"><ele>861.5</ele><time>2026-04-25T14:39:11.243Z</time></trkpt><trkpt lat="45.4787368" lon="7.7607711"><ele>862.0</ele><time>2026-04-25T14:39:12.244Z</time></trkpt><trkpt lat="45.4787764" lon="7.7606491"><ele>862.5</ele><time>2026-04-25T14:39:13.237Z</time></trkpt><trkpt lat="45.4788223" lon="7.7605522"><ele>863.0</ele><time>2026-04-25T14:39:14.238Z</time></trkpt><trkpt lat="45.4788697" lon="7.7604684"><ele>863.5</ele><time>2026-04-25T14:39:15.231Z</time></trkpt><trkpt lat="45.4789162" lon="7.7603659"><ele>864.0</ele><time>2026-04-25T14:39:16.234Z</time></trkpt><trkpt lat="45.4789656" lon="7.7602797"><ele>867.1666666666666</ele><time>2026-04-25T14:39:17.238Z</time></trkpt><trkpt lat="45.4790181" lon="7.7602041"><ele>870.3333333333333</ele><time>2026-04-25T14:39:18.238Z</time></trkpt><trkpt lat="45.4790804" lon="7.7601772"><ele>873.5</ele><time>2026-04-25T14:39:19.248Z</time></trkpt><trkpt lat="45.4791689" lon="7.7602247"><ele>876.6666666666666</ele><time>2026-04-25T14:39:21.241Z</time></trkpt><trkpt lat="45.4792528" lon="7.7601788"><ele>879.8333333333333</ele><time>2026-04-25T14:39:23.242Z</time></trkpt><trkpt lat="45.4792915" lon="7.7602865"><ele>883.0</ele><time>2026-04-25T14:39:27.253Z</time></trkpt><trkpt lat="45.4793516" lon="7.7601959"><ele>884.4</ele><time>2026-04-25T14:39:32.257Z</time></trkpt><trkpt lat="45.4793868" lon="7.7600321"><ele>885.8</ele><time>2026-04-25T14:39:34.246Z</time></trkpt><trkpt lat="45.4794057" lon="7.7599271"><ele>887.2</ele><time>2026-04-25T14:39:35.255Z</time></trkpt><trkpt lat="45.4794365" lon="7.7598164"><ele>888.6</ele><time>2026-04-25T14:39:36.25Z</time></trkpt><trkpt lat="45.47947" lon="7.7597024"><ele>890.0</ele><time>2026-04-25T14:39:37.254Z</time></trkpt><trkpt lat="45.4795193" lon="7.7595877"><ele>890.0000000000001</ele><time>2026-04-25T14:39:38.257Z</time></trkpt><trkpt lat="45.4795581" lon="7.7594672"><ele>890.0</ele><time>2026-04-25T14:39:39.26Z</time></trkpt><trkpt lat="45.4796097" lon="7.7593512"><ele>890.0</ele><time>2026-04-25T14:39:40.26Z</time></trkpt><trkpt lat="45.4796656" lon="7.7592442"><ele>890.0</ele><time>2026-04-25T14:39:41.254Z</time></trkpt><trkpt lat="45.4797116" lon="7.7591411"><ele>890.0000000000001</ele><time>2026-04-25T14:39:42.249Z</time></trkpt><trkpt lat="45.4797489" lon="7.7590537"><ele>890.0</ele><time>2026-04-25T14:39:43.244Z</time></trkpt><trkpt lat="45.4797739" lon="7.7589301"><ele>893.6666666666667</ele><time>2026-04-25T14:39:44.251Z</time></trkpt><trkpt lat="45.4797938" lon="7.7588033"><ele>897.3333333333334</ele><time>2026-04-25T14:39:45.248Z</time></trkpt><trkpt lat="45.4798063" lon="7.7586732"><ele>901.0</ele><time>2026-04-25T14:39:46.244Z</time></trkpt><trkpt lat="45.4798257" lon="7.75855"><ele>904.6666666666667</ele><time>2026-04-25T14:39:47.243Z</time></trkpt><trkpt lat="45.4798532" lon="7.7584355"><ele>908.3333333333334</ele><time>2026-04-25T14:39:48.244Z</time></trkpt><trkpt lat="45.4798826" lon="7.7583124"><ele>912.0</ele><time>2026-04-25T14:39:49.241Z</time></trkpt><trkpt lat="45.4799288" lon="7.7581958"><ele>913.3333333333334</ele><time>2026-04-25T14:39:50.239Z</time></trkpt><trkpt lat="45.479956" lon="7.7580657"><ele>914.6666666666667</ele><time>2026-04-25T14:39:51.239Z</time></trkpt><trkpt lat="45.4799754" lon="7.7579287"><ele>916.0</ele><time>2026-04-25T14:39:52.235Z</time></trkpt><trkpt lat="45.4799886" lon="7.757819"><ele>917.3333333333334</ele><time>2026-04-25T14:39:53.24Z</time></trkpt><trkpt lat="45.4800084" lon="7.7577021"><ele>918.6666666666667</ele><time>2026-04-25T14:39:54.24Z</time></trkpt><trkpt lat="45.4800248" lon="7.7575844"><ele>920.0</ele><time>2026-04-25T14:39:55.241Z</time></trkpt><trkpt lat="45.4800534" lon="7.7574746"><ele>920.2</ele><time>2026-04-25T14:39:56.246Z</time></trkpt><trkpt lat="45.4800989" lon="7.7573817"><ele>920.4</ele><time>2026-04-25T14:39:57.241Z</time></trkpt><trkpt lat="45.4801532" lon="7.7572791"><ele>920.5999999999999</ele><time>2026-04-25T14:39:59.241Z</time></trkpt><trkpt lat="45.4801809" lon="7.7573803"><ele>920.8</ele><time>2026-04-25T14:40:02.233Z</time></trkpt><trkpt lat="45.4801808" lon="7.75753"><ele>921.0</ele><time>2026-04-25T14:40:03.244Z</time></trkpt><trkpt lat="45.480145" lon="7.7576846"><ele>920.8</ele><time>2026-04-25T14:40:04.242Z</time></trkpt><trkpt lat="45.4801237" lon="7.7578284"><ele>920.5999999999999</ele><time>2026-04-25T14:40:05.233Z</time></trkpt><trkpt lat="45.480142" lon="7.7579854"><ele>920.4</ele><time>2026-04-25T14:40:06.239Z</time></trkpt><trkpt lat="45.4801756" lon="7.758131"><ele>920.2</ele><time>2026-04-25T14:40:07.237Z</time></trkpt><trkpt lat="45.48021" lon="7.7582905"><ele>920.0</ele><time>2026-04-25T14:40:08.236Z</time></trkpt><trkpt lat="45.4802539" lon="7.7584124"><ele>920.0000000000001</ele><time>2026-04-25T14:40:09.241Z</time></trkpt><trkpt lat="45.4802984" lon="7.7585142"><ele>920.0</ele><time>2026-04-25T14:40:10.24Z</time></trkpt><trkpt lat="45.4803451" lon="7.7586085"><ele>920.0</ele><time>2026-04-25T14:40:11.23Z</time></trkpt><trkpt lat="45.4804098" lon="7.758686"><ele>920.0</ele><time>2026-04-25T14:40:12.238Z</time></trkpt><trkpt lat="45.4804813" lon="7.7587578"><ele>920.0000000000001</ele><time>2026-04-25T14:40:13.237Z</time></trkpt><trkpt lat="45.4805633" lon="7.7587925"><ele>920.0</ele><time>2026-04-25T14:40:14.236Z</time></trkpt><trkpt lat="45.480635" lon="7.7587111"><ele>922.6</ele><time>2026-04-25T14:40:17.227Z</time></trkpt><trkpt lat="45.4806091" lon="7.7586003"><ele>925.2</ele><time>2026-04-25T14:40:18.223Z</time></trkpt><trkpt lat="45.4805735" lon="7.7584739"><ele>927.8</ele><time>2026-04-25T14:40:19.226Z</time></trkpt><trkpt lat="45.4805577" lon="7.7583296"><ele>930.4</ele><time>2026-04-25T14:40:20.225Z</time></trkpt><trkpt lat="45.480538" lon="7.7581679"><ele>933.0</ele><time>2026-04-25T14:40:21.225Z</time></trkpt><trkpt lat="45.4805466" lon="7.7579875"><ele>936.5999999999999</ele><time>2026-04-25T14:40:22.233Z</time></trkpt><trkpt lat="45.4805826" lon="7.7578296"><ele>940.1999999999999</ele><time>2026-04-25T14:40:23.239Z</time></trkpt><trkpt lat="45.4806235" lon="7.7576715"><ele>943.8</ele><time>2026-04-25T14:40:24.232Z</time></trkpt><trkpt lat="45.4806398" lon="7.7575414"><ele>947.4</ele><time>2026-04-25T14:40:25.232Z</time></trkpt><trkpt lat="45.4806885" lon="7.7574382"><ele>951.0</ele><time>2026-04-25T14:40:26.238Z</time></trkpt><trkpt lat="45.4807389" lon="7.7573407"><ele>951.0</ele><time>2026-04-25T14:40:27.239Z</time></trkpt><trkpt lat="45.4807964" lon="7.7572981"><ele>951.0</ele><time>2026-04-25T14:40:28.233Z</time></trkpt><trkpt lat="45.4808569" lon="7.7572521"><ele>951.0</ele><time>2026-04-25T14:40:29.244Z</time></trkpt><trkpt lat="45.4809165" lon="7.7572227"><ele>951.0</ele><time>2026-04-25T14:40:30.235Z</time></trkpt><trkpt lat="45.4809818" lon="7.7571099"><ele>951.0</ele><time>2026-04-25T14:40:32.249Z</time></trkpt><trkpt lat="45.481006" lon="7.7569638"><ele>951.0</ele><time>2026-04-25T14:40:34.243Z</time></trkpt><trkpt lat="45.481027" lon="7.7568553"><ele>951.0</ele><time>2026-04-25T14:40:36.246Z</time></trkpt><trkpt lat="45.4810924" lon="7.7568831"><ele>951.0</ele><time>2026-04-25T14:40:39.238Z</time></trkpt><trkpt lat="45.4811368" lon="7.7570018"><ele>951.0</ele><time>2026-04-25T14:40:41.231Z</time></trkpt><trkpt lat="45.4811387" lon="7.7571135"><ele>951.0</ele><time>2026-04-25T14:40:42.229Z</time></trkpt><trkpt lat="45.4811313" lon="7.7572294"><ele>951.0</ele><time>2026-04-25T14:40:43.237Z</time></trkpt><trkpt lat="45.4811177" lon="7.7573677"><ele>951.0</ele><time>2026-04-25T14:40:44.234Z</time></trkpt><trkpt lat="45.4811107" lon="7.7575142"><ele>951.0</ele><time>2026-04-25T14:40:45.244Z</time></trkpt><trkpt lat="45.4810824" lon="7.7576756"><ele>950.9999999999999</ele><time>2026-04-25T14:40:46.24Z</time></trkpt><trkpt lat="45.4810502" lon="7.7578209"><ele>950.9999999999999</ele><time>2026-04-25T14:40:47.24Z</time></trkpt><trkpt lat="45.481034" lon="7.7579672"><ele>951.0</ele><time>2026-04-25T14:40:48.242Z</time></trkpt><trkpt lat="45.4810183" lon="7.7581014"><ele>951.0</ele><time>2026-04-25T14:40:49.241Z</time></trkpt><trkpt lat="45.4810167" lon="7.7581996"><ele>951.0</ele><time>2026-04-25T14:40:50.238Z</time></trkpt><trkpt lat="45.4810906" lon="7.7582886"><ele>950.9999999999999</ele><time>2026-04-25T14:40:52.247Z</time></trkpt><trkpt lat="45.4811788" lon="7.758224"><ele>950.9999999999999</ele><time>2026-04-25T14:40:54.241Z</time></trkpt><trkpt lat="45.4812793" lon="7.7581015"><ele>951.0</ele><time>2026-04-25T14:40:56.238Z</time></trkpt><trkpt lat="45.4813343" lon="7.7580102"><ele>951.0</ele><time>2026-04-25T14:40:57.233Z</time></trkpt><trkpt lat="45.4813677" lon="7.7579167"><ele>953.4285714285713</ele><time>2026-04-25T14:40:58.232Z</time></trkpt><trkpt lat="45.4814185" lon="7.7578479"><ele>955.8571428571429</ele><time>2026-04-25T14:40:59.236Z</time></trkpt><trkpt lat="45.4814621" lon="7.7577778"><ele>958.2857142857142</ele><time>2026-04-25T14:41:00.239Z</time></trkpt><trkpt lat="45.4815291" lon="7.7577309"><ele>960.7142857142857</ele><time>2026-04-25T14:41:01.243Z</time></trkpt><trkpt lat="45.481604" lon="7.7577337"><ele>963.1428571428571</ele><time>2026-04-25T14:41:02.239Z</time></trkpt><trkpt lat="45.4816698" lon="7.7577751"><ele>965.5714285714286</ele><time>2026-04-25T14:41:03.239Z</time></trkpt><trkpt lat="45.4817393" lon="7.757784"><ele>968.0</ele><time>2026-04-25T14:41:04.232Z</time></trkpt><trkpt lat="45.4818618" lon="7.7576848"><ele>969.0</ele><time>2026-04-25T14:41:06.235Z</time></trkpt><trkpt lat="45.4819216" lon="7.7575923"><ele>970.0</ele><time>2026-04-25T14:41:07.235Z</time></trkpt><trkpt lat="45.4819824" lon="7.7574864"><ele>971.0</ele><time>2026-04-25T14:41:08.236Z</time></trkpt><trkpt lat="45.4820301" lon="7.7573615"><ele>972.0</ele><time>2026-04-25T14:41:09.237Z</time></trkpt><trkpt lat="45.4820511" lon="7.7572255"><ele>973.0</ele><time>2026-04-25T14:41:10.234Z</time></trkpt><trkpt lat="45.4820666" lon="7.757092"><ele>973.0</ele><time>2026-04-25T14:41:11.24Z</time></trkpt><trkpt lat="45.4820682" lon="7.7569461"><ele>973.0</ele><time>2026-04-25T14:41:12.238Z</time></trkpt><trkpt lat="45.4820648" lon="7.7568162"><ele>973.0</ele><time>2026-04-25T14:41:13.235Z</time></trkpt><trkpt lat="45.4820819" lon="7.756677"><ele>973.0</ele><time>2026-04-25T14:41:14.233Z</time></trkpt><trkpt lat="45.4821094" lon="7.7565202"><ele>973.0</ele><time>2026-04-25T14:41:15.235Z</time></trkpt><trkpt lat="45.4821529" lon="7.7563649"><ele>978.2</ele><time>2026-04-25T14:41:16.236Z</time></trkpt><trkpt lat="45.4822075" lon="7.7562313"><ele>983.4</ele><time>2026-04-25T14:41:17.238Z</time></trkpt><trkpt lat="45.4822499" lon="7.7561155"><ele>988.6000000000001</ele><time>2026-04-25T14:41:18.238Z</time></trkpt><trkpt lat="45.4823028" lon="7.7559989"><ele>993.8000000000001</ele><time>2026-04-25T14:41:19.237Z</time></trkpt><trkpt lat="45.4823529" lon="7.7558798"><ele>999.0</ele><time>2026-04-25T14:41:20.24Z</time></trkpt><trkpt lat="45.4824056" lon="7.7557388"><ele>999.0</ele><time>2026-04-25T14:41:21.245Z</time></trkpt><trkpt lat="45.4824496" lon="7.7555987"><ele>999.0000000000001</ele><time>2026-04-25T14:41:22.241Z</time></trkpt><trkpt lat="45.4824901" lon="7.7554585"><ele>999.0000000000001</ele><time>2026-04-25T14:41:23.245Z</time></trkpt><trkpt lat="45.4825396" lon="7.7553227"><ele>999.0</ele><time>2026-04-25T14:41:24.241Z</time></trkpt><trkpt lat="45.4825891" lon="7.755177"><ele>999.0</ele><time>2026-04-25T14:41:25.24Z</time></trkpt><trkpt lat="45.4826439" lon="7.755024"><ele>997.6</ele><time>2026-04-25T14:41:26.243Z</time></trkpt><trkpt lat="45.482697" lon="7.754875"><ele>996.2</ele><time>2026-04-25T14:41:27.241Z</time></trkpt><trkpt lat="45.4827487" lon="7.7547222"><ele>994.8000000000001</ele><time>2026-04-25T14:41:28.24Z</time></trkpt><trkpt lat="45.4827937" lon="7.7545864"><ele>993.4000000000001</ele><time>2026-04-25T14:41:29.247Z</time></trkpt><trkpt lat="45.4828286" lon="7.7544511"><ele>992.0</ele><time>2026-04-25T14:41:30.241Z</time></trkpt><trkpt lat="45.4828622" lon="7.7543241"><ele>991.3333333333334</ele><time>2026-04-25T14:41:31.249Z</time></trkpt><trkpt lat="45.4828941" lon="7.7542025"><ele>990.6666666666667</ele><time>2026-04-25T14:41:32.234Z</time></trkpt><trkpt lat="45.4829184" lon="7.7540784"><ele>990.0</ele><time>2026-04-25T14:41:33.238Z</time></trkpt><trkpt lat="45.4829456" lon="7.7539695"><ele>989.3333333333333</ele><time>2026-04-25T14:41:34.236Z</time></trkpt><trkpt lat="45.4829671" lon="7.7538418"><ele>988.6666666666666</ele><time>2026-04-25T14:41:35.236Z</time></trkpt><trkpt lat="45.4829829" lon="7.7537136"><ele>988.0</ele><time>2026-04-25T14:41:36.237Z</time></trkpt><trkpt lat="45.4830033" lon="7.7535981"><ele>994.3333333333333</ele><time>2026-04-25T14:41:37.239Z</time></trkpt><trkpt lat="45.4830223" lon="7.7534824"><ele>1000.6666666666666</ele><time>2026-04-25T14:41:38.227Z</time></trkpt><trkpt lat="45.4830488" lon="7.753373"><ele>1007.0</ele><time>2026-04-25T14:41:39.235Z</time></trkpt><trkpt lat="45.4830684" lon="7.7532511"><ele>1013.3333333333333</ele><time>2026-04-25T14:41:40.238Z</time></trkpt><trkpt lat="45.4830999" lon="7.7531428"><ele>1019.6666666666666</ele><time>2026-04-25T14:41:41.248Z</time></trkpt><trkpt lat="45.4831463" lon="7.7530244"><ele>1026.0</ele><time>2026-04-25T14:41:42.254Z</time></trkpt><trkpt lat="45.4831957" lon="7.7529079"><ele>1026.0</ele><time>2026-04-25T14:41:43.253Z</time></trkpt><trkpt lat="45.4832457" lon="7.7528003"><ele>1026.0</ele><time>2026-04-25T14:41:44.253Z</time></trkpt><trkpt lat="45.483293" lon="7.752708"><ele>1026.0</ele><time>2026-04-25T14:41:45.252Z</time></trkpt><trkpt lat="45.4833244" lon="7.752618"><ele>1026.0</ele><time>2026-04-25T14:41:46.256Z</time></trkpt><trkpt lat="45.4833469" lon="7.7524975"><ele>1026.0</ele><time>2026-04-25T14:41:47.254Z</time></trkpt><trkpt lat="45.4833805" lon="7.7523691"><ele>1026.0</ele><time>2026-04-25T14:41:48.255Z</time></trkpt><trkpt lat="45.4834427" lon="7.7522562"><ele>1025.2</ele><time>2026-04-25T14:41:49.255Z</time></trkpt><trkpt lat="45.4834927" lon="7.7521368"><ele>1024.3999999999999</ele><time>2026-04-25T14:41:50.251Z</time></trkpt><trkpt lat="45.4835545" lon="7.7520098"><ele>1023.6</ele><time>2026-04-25T14:41:51.252Z</time></trkpt><trkpt lat="45.4836052" lon="7.7518998"><ele>1022.8</ele><time>2026-04-25T14:41:52.247Z</time></trkpt><trkpt lat="45.4836601" lon="7.7517905"><ele>1022.0</ele><time>2026-04-25T14:41:53.253Z</time></trkpt><trkpt lat="45.4837258" lon="7.7516745"><ele>1028.5</ele><time>2026-04-25T14:41:54.248Z</time></trkpt><trkpt lat="45.4837735" lon="7.7515395"><ele>1035.0</ele><time>2026-04-25T14:41:55.249Z</time></trkpt><trkpt lat="45.4838334" lon="7.7513957"><ele>1041.5</ele><time>2026-04-25T14:41:56.25Z</time></trkpt><trkpt lat="45.4838865" lon="7.7512608"><ele>1048.0</ele><time>2026-04-25T14:41:57.263Z</time></trkpt><trkpt lat="45.4839449" lon="7.7511136"><ele>1045.6</ele><time>2026-04-25T14:41:58.257Z</time></trkpt><trkpt lat="45.4840183" lon="7.7509827"><ele>1043.1999999999998</ele><time>2026-04-25T14:41:59.253Z</time></trkpt><trkpt lat="45.4840971" lon="7.7508773"><ele>1040.8</ele><time>2026-04-25T14:42:00.258Z</time></trkpt><trkpt lat="45.4841857" lon="7.7507754"><ele>1038.3999999999999</ele><time>2026-04-25T14:42:01.261Z</time></trkpt><trkpt lat="45.484263" lon="7.7506656"><ele>1036.0</ele><time>2026-04-25T14:42:02.257Z</time></trkpt><trkpt lat="45.4843458" lon="7.7505734"><ele>1036.0</ele><time>2026-04-25T14:42:03.251Z</time></trkpt><trkpt lat="45.484407" lon="7.750504"><ele>1036.0</ele><time>2026-04-25T14:42:04.252Z</time></trkpt><trkpt lat="45.484475" lon="7.750416"><ele>1036.0</ele><time>2026-04-25T14:42:05.25Z</time></trkpt><trkpt lat="45.484531" lon="7.750332"><ele>1036.0</ele><time>2026-04-25T14:42:06.252Z</time></trkpt><trkpt lat="45.4846044" lon="7.750256"><ele>1036.0</ele><time>2026-04-25T14:42:07.252Z</time></trkpt><trkpt lat="45.4846779" lon="7.7501723"><ele>1036.0</ele><time>2026-04-25T14:42:08.256Z</time></trkpt><trkpt lat="45.4847692" lon="7.7501093"><ele>1039.75</ele><time>2026-04-25T14:42:09.251Z</time></trkpt><trkpt lat="45.4848541" lon="7.7500192"><ele>1043.5</ele><time>2026-04-25T14:42:10.247Z</time></trkpt><trkpt lat="45.4849438" lon="7.7499154"><ele>1047.25</ele><time>2026-04-25T14:42:11.254Z</time></trkpt><trkpt lat="45.4850191" lon="7.7497957"><ele>1051.0</ele><time>2026-04-25T14:42:12.249Z</time></trkpt><trkpt lat="45.4850877" lon="7.749647"><ele>1051.0</ele><time>2026-04-25T14:42:13.251Z</time></trkpt><trkpt lat="45.4851598" lon="7.749503"><ele>1051.0</ele><time>2026-04-25T14:42:14.253Z</time></trkpt><trkpt lat="45.4852294" lon="7.7493511"><ele>1051.0</ele><time>2026-04-25T14:42:15.251Z</time></trkpt><trkpt lat="45.4852875" lon="7.7492173"><ele>1051.0</ele><time>2026-04-25T14:42:16.248Z</time></trkpt><trkpt lat="45.4853419" lon="7.7490989"><ele>1050.6</ele><time>2026-04-25T14:42:17.242Z</time></trkpt><trkpt lat="45.4853913" lon="7.7490019"><ele>1050.1999999999998</ele><time>2026-04-25T14:42:18.249Z</time></trkpt><trkpt lat="45.4854815" lon="7.7489245"><ele>1049.8000000000002</ele><time>2026-04-25T14:42:20.252Z</time></trkpt><trkpt lat="45.485602" lon="7.7490177"><ele>1049.4</ele><time>2026-04-25T14:42:22.248Z</time></trkpt><trkpt lat="45.4856564" lon="7.7491139"><ele>1049.0</ele><time>2026-04-25T14:42:23.254Z</time></trkpt><trkpt lat="45.4857012" lon="7.7492112"><ele>1051.1666666666667</ele><time>2026-04-25T14:42:24.252Z</time></trkpt><trkpt lat="45.485762" lon="7.7492799"><ele>1053.3333333333335</ele><time>2026-04-25T14:42:25.259Z</time></trkpt><trkpt lat="45.4858116" lon="7.7493616"><ele>1055.5</ele><time>2026-04-25T14:42:26.256Z</time></trkpt><trkpt lat="45.4858732" lon="7.7494306"><ele>1057.6666666666667</ele><time>2026-04-25T14:42:27.254Z</time></trkpt><trkpt lat="45.485934" lon="7.7494578"><ele>1059.8333333333333</ele><time>2026-04-25T14:42:28.264Z</time></trkpt><trkpt lat="45.4860097" lon="7.7493435"><ele>1062.0</ele><time>2026-04-25T14:42:30.253Z</time></trkpt><trkpt lat="45.4860403" lon="7.7491828"><ele>1062.0</ele><time>2026-04-25T14:42:32.245Z</time></trkpt><trkpt lat="45.4860475" lon="7.7490854"><ele>1062.0</ele><time>2026-04-25T14:42:33.255Z</time></trkpt><trkpt lat="45.4860682" lon="7.7489176"><ele>1062.0</ele><time>2026-04-25T14:42:35.258Z</time></trkpt><trkpt lat="45.4860713" lon="7.7487234"><ele>1062.0</ele><time>2026-04-25T14:42:37.26Z</time></trkpt><trkpt lat="45.4860854" lon="7.7485912"><ele>1062.0</ele><time>2026-04-25T14:42:38.258Z</time></trkpt><trkpt lat="45.4860989" lon="7.7484622"><ele>1062.8</ele><time>2026-04-25T14:42:39.265Z</time></trkpt><trkpt lat="45.4860989" lon="7.7483196"><ele>1063.6</ele><time>2026-04-25T14:42:40.263Z</time></trkpt><trkpt lat="45.4860942" lon="7.7481703"><ele>1064.3999999999999</ele><time>2026-04-25T14:42:41.26Z</time></trkpt><trkpt lat="45.4861024" lon="7.7480254"><ele>1065.2</ele><time>2026-04-25T14:42:42.264Z</time></trkpt><trkpt lat="45.4861053" lon="7.747896"><ele>1066.0</ele><time>2026-04-25T14:42:43.264Z</time></trkpt><trkpt lat="45.486108" lon="7.7477725"><ele>1067.3999999999999</ele><time>2026-04-25T14:42:44.255Z</time></trkpt><trkpt lat="45.486118" lon="7.7476394"><ele>1068.8</ele><time>2026-04-25T14:42:45.257Z</time></trkpt><trkpt lat="45.486135" lon="7.7475046"><ele>1070.1999999999998</ele><time>2026-04-25T14:42:46.251Z</time></trkpt><trkpt lat="45.4861421" lon="7.7473632"><ele>1071.6</ele><time>2026-04-25T14:42:47.255Z</time></trkpt><trkpt lat="45.4861575" lon="7.7472171"><ele>1073.0</ele><time>2026-04-25T14:42:48.256Z</time></trkpt><trkpt lat="45.4861903" lon="7.7470608"><ele>1073.0</ele><time>2026-04-25T14:42:49.257Z</time></trkpt><trkpt lat="45.4862454" lon="7.7469048"><ele>1073.0</ele><time>2026-04-25T14:42:50.25Z</time></trkpt><trkpt lat="45.4863005" lon="7.7467639"><ele>1073.0</ele><time>2026-04-25T14:42:51.258Z</time></trkpt><trkpt lat="45.4863676" lon="7.7466405"><ele>1073.0</ele><time>2026-04-25T14:42:52.247Z</time></trkpt><trkpt lat="45.4864207" lon="7.7465387"><ele>1073.0</ele><time>2026-04-25T14:42:53.253Z</time></trkpt><trkpt lat="45.4864851" lon="7.7464656"><ele>1071.8</ele><time>2026-04-25T14:42:54.248Z</time></trkpt><trkpt lat="45.4865608" lon="7.7463898"><ele>1070.6</ele><time>2026-04-25T14:42:55.242Z</time></trkpt><trkpt lat="45.4866388" lon="7.7463095"><ele>1069.4</ele><time>2026-04-25T14:42:56.234Z</time></trkpt><trkpt lat="45.4867375" lon="7.7462905"><ele>1068.2</ele><time>2026-04-25T14:42:57.236Z</time></trkpt><trkpt lat="45.4868462" lon="7.7462498"><ele>1067.0</ele><time>2026-04-25T14:42:58.243Z</time></trkpt><trkpt lat="45.4869303" lon="7.7461762"><ele>1067.0</ele><time>2026-04-25T14:42:59.242Z</time></trkpt><trkpt lat="45.487047" lon="7.7460977"><ele>1067.0</ele><time>2026-04-25T14:43:00.241Z</time></trkpt><trkpt lat="45.4871659" lon="7.7460002"><ele>1067.0</ele><time>2026-04-25T14:43:01.245Z</time></trkpt><trkpt lat="45.487255" lon="7.7458886"><ele>1067.0</ele><time>2026-04-25T14:43:02.246Z</time></trkpt><trkpt lat="45.4873344" lon="7.745781"><ele>1066.2</ele><time>2026-04-25T14:43:03.242Z</time></trkpt><trkpt lat="45.4874193" lon="7.7456697"><ele>1065.4</ele><time>2026-04-25T14:43:04.247Z</time></trkpt><trkpt lat="45.4874966" lon="7.7455817"><ele>1064.6</ele><time>2026-04-25T14:43:05.239Z</time></trkpt><trkpt lat="45.4875721" lon="7.7455009"><ele>1063.8</ele><time>2026-04-25T14:43:06.239Z</time></trkpt><trkpt lat="45.4876533" lon="7.7454574"><ele>1063.0</ele><time>2026-04-25T14:43:07.232Z</time></trkpt><trkpt lat="45.4877479" lon="7.7454413"><ele>1063.0</ele><time>2026-04-25T14:43:08.236Z</time></trkpt><trkpt lat="45.4878431" lon="7.745418"><ele>1063.0</ele><time>2026-04-25T14:43:09.241Z</time></trkpt><trkpt lat="45.4879364" lon="7.7453944"><ele>1063.0</ele><time>2026-04-25T14:43:10.239Z</time></trkpt><trkpt lat="45.4880263" lon="7.7453615"><ele>1063.0</ele><time>2026-04-25T14:43:11.247Z</time></trkpt><trkpt lat="45.4881033" lon="7.7453055"><ele>1063.0</ele><time>2026-04-25T14:43:12.239Z</time></trkpt><trkpt lat="45.4881661" lon="7.7452393"><ele>1063.0</ele><time>2026-04-25T14:43:13.245Z</time></trkpt><trkpt lat="45.4882267" lon="7.7451899"><ele>1062.4</ele><time>2026-04-25T14:43:14.246Z</time></trkpt><trkpt lat="45.4882934" lon="7.7451033"><ele>1061.8</ele><time>2026-04-25T14:43:15.249Z</time></trkpt><trkpt lat="45.4883487" lon="7.7450126"><ele>1061.2</ele><time>2026-04-25T14:43:16.243Z</time></trkpt><trkpt lat="45.4883942" lon="7.7448984"><ele>1060.6</ele><time>2026-04-25T14:43:17.252Z</time></trkpt><trkpt lat="45.4884368" lon="7.7447663"><ele>1060.0</ele><time>2026-04-25T14:43:18.248Z</time></trkpt><trkpt lat="45.4885052" lon="7.744668"><ele>1060.0</ele><time>2026-04-25T14:43:19.244Z</time></trkpt><trkpt lat="45.4885812" lon="7.7445646"><ele>1060.0</ele><time>2026-04-25T14:43:20.251Z</time></trkpt><trkpt lat="45.4886726" lon="7.7444666"><ele>1060.0</ele><time>2026-04-25T14:43:21.247Z</time></trkpt><trkpt lat="45.4887712" lon="7.7444058"><ele>1060.0</ele><time>2026-04-25T14:43:22.247Z</time></trkpt><trkpt lat="45.4888487" lon="7.7443304"><ele>1060.0</ele><time>2026-04-25T14:43:23.242Z</time></trkpt><trkpt lat="45.4889445" lon="7.7442686"><ele>1059.6666666666665</ele><time>2026-04-25T14:43:24.246Z</time></trkpt><trkpt lat="45.4890357" lon="7.7442171"><ele>1059.3333333333333</ele><time>2026-04-25T14:43:25.246Z</time></trkpt><trkpt lat="45.4891135" lon="7.7441674"><ele>1059.0</ele><time>2026-04-25T14:43:26.236Z</time></trkpt><trkpt lat="45.489175" lon="7.7441122"><ele>1058.6666666666667</ele><time>2026-04-25T14:43:27.248Z</time></trkpt><trkpt lat="45.4892245" lon="7.7440282"><ele>1058.3333333333335</ele><time>2026-04-25T14:43:28.251Z</time></trkpt><trkpt lat="45.4892536" lon="7.7439112"><ele>1058.0</ele><time>2026-04-25T14:43:29.257Z</time></trkpt><trkpt lat="45.4892684" lon="7.743784"><ele>1058.0</ele><time>2026-04-25T14:43:30.249Z</time></trkpt><trkpt lat="45.4892694" lon="7.7436455"><ele>1058.0</ele><time>2026-04-25T14:43:31.257Z</time></trkpt><trkpt lat="45.4892441" lon="7.7435065"><ele>1058.0</ele><time>2026-04-25T14:43:32.25Z</time></trkpt><trkpt lat="45.4891967" lon="7.7433545"><ele>1058.0</ele><time>2026-04-25T14:43:33.253Z</time></trkpt><trkpt lat="45.4891327" lon="7.7431928"><ele>1058.0</ele><time>2026-04-25T14:43:34.244Z</time></trkpt><trkpt lat="45.4890791" lon="7.7430332"><ele>1058.25</ele><time>2026-04-25T14:43:35.25Z</time></trkpt><trkpt lat="45.4890437" lon="7.7428639"><ele>1058.5</ele><time>2026-04-25T14:43:36.248Z</time></trkpt><trkpt lat="45.4890297" lon="7.7426901"><ele>1058.75</ele><time>2026-04-25T14:43:37.244Z</time></trkpt><trkpt lat="45.489021" lon="7.7425382"><ele>1059.0</ele><time>2026-04-25T14:43:38.239Z</time></trkpt><trkpt lat="45.4890152" lon="7.7423892"><ele>1059.0</ele><time>2026-04-25T14:43:39.237Z</time></trkpt><trkpt lat="45.4890328" lon="7.742255"><ele>1059.0</ele><time>2026-04-25T14:43:40.246Z</time></trkpt><trkpt lat="45.4890292" lon="7.7421172"><ele>1059.0</ele><time>2026-04-25T14:43:41.242Z</time></trkpt><trkpt lat="45.4890164" lon="7.7419899"><ele>1059.0</ele><time>2026-04-25T14:43:42.249Z</time></trkpt><trkpt lat="45.4889958" lon="7.7418672"><ele>1059.0</ele><time>2026-04-25T14:43:43.235Z</time></trkpt><trkpt lat="45.4889813" lon="7.7417236"><ele>1058.2</ele><time>2026-04-25T14:43:44.236Z</time></trkpt><trkpt lat="45.4889823" lon="7.7415816"><ele>1057.4</ele><time>2026-04-25T14:43:45.242Z</time></trkpt><trkpt lat="45.4889641" lon="7.7414384"><ele>1056.6</ele><time>2026-04-25T14:43:46.245Z</time></trkpt><trkpt lat="45.4889415" lon="7.7413013"><ele>1055.8</ele><time>2026-04-25T14:43:47.242Z</time></trkpt><trkpt lat="45.488926" lon="7.7411685"><ele>1055.0</ele><time>2026-04-25T14:43:48.239Z</time></trkpt><trkpt lat="45.4888978" lon="7.7410363"><ele>1054.2</ele><time>2026-04-25T14:43:49.241Z</time></trkpt><trkpt lat="45.4888479" lon="7.7409061"><ele>1053.4</ele><time>2026-04-25T14:43:50.246Z</time></trkpt><trkpt lat="45.4888114" lon="7.740786"><ele>1052.6</ele><time>2026-04-25T14:43:51.248Z</time></trkpt><trkpt lat="45.4888015" lon="7.7406552"><ele>1051.8</ele><time>2026-04-25T14:43:52.239Z</time></trkpt><trkpt lat="45.4888114" lon="7.7405182"><ele>1051.0</ele><time>2026-04-25T14:43:53.247Z</time></trkpt><trkpt lat="45.4888463" lon="7.7403767"><ele>1051.0</ele><time>2026-04-25T14:43:54.246Z</time></trkpt><trkpt lat="45.4888809" lon="7.7402405"><ele>1051.0</ele><time>2026-04-25T14:43:55.251Z</time></trkpt><trkpt lat="45.4889204" lon="7.7400928"><ele>1051.0</ele><time>2026-04-25T14:43:56.239Z</time></trkpt><trkpt lat="45.4889278" lon="7.7399668"><ele>1051.0</ele><time>2026-04-25T14:43:57.241Z</time></trkpt><trkpt lat="45.4889517" lon="7.7398614"><ele>1051.0</ele><time>2026-04-25T14:43:58.238Z</time></trkpt><trkpt lat="45.4889447" lon="7.7396934"><ele>1051.8</ele><time>2026-04-25T14:44:00.239Z</time></trkpt><trkpt lat="45.488955" lon="7.7395186"><ele>1052.6</ele><time>2026-04-25T14:44:02.245Z</time></trkpt><trkpt lat="45.4889667" lon="7.7394115"><ele>1053.4</ele><time>2026-04-25T14:44:03.247Z</time></trkpt><trkpt lat="45.4889806" lon="7.739298"><ele>1054.2</ele><time>2026-04-25T14:44:04.252Z</time></trkpt><trkpt lat="45.4889831" lon="7.7391741"><ele>1055.0</ele><time>2026-04-25T14:44:05.243Z</time></trkpt><trkpt lat="45.4889834" lon="7.7390432"><ele>1056.2</ele><time>2026-04-25T14:44:06.247Z</time></trkpt><trkpt lat="45.4889861" lon="7.7389046"><ele>1057.4</ele><time>2026-04-25T14:44:07.241Z</time></trkpt><trkpt lat="45.4889841" lon="7.7387629"><ele>1058.6</ele><time>2026-04-25T14:44:08.238Z</time></trkpt><trkpt lat="45.4889884" lon="7.7386217"><ele>1059.8</ele><time>2026-04-25T14:44:09.24Z</time></trkpt><trkpt lat="45.4889817" lon="7.7384733"><ele>1061.0</ele><time>2026-04-25T14:44:10.243Z</time></trkpt><trkpt lat="45.4889698" lon="7.7383165"><ele>1061.6</ele><time>2026-04-25T14:44:11.248Z</time></trkpt><trkpt lat="45.4889668" lon="7.7381732"><ele>1062.1999999999998</ele><time>2026-04-25T14:44:12.243Z</time></trkpt><trkpt lat="45.4889529" lon="7.7380275"><ele>1062.8000000000002</ele><time>2026-04-25T14:44:13.242Z</time></trkpt><trkpt lat="45.4889371" lon="7.7378859"><ele>1063.4</ele><time>2026-04-25T14:44:14.241Z</time></trkpt><trkpt lat="45.488917" lon="7.7377371"><ele>1064.0</ele><time>2026-04-25T14:44:15.236Z</time></trkpt><trkpt lat="45.4888942" lon="7.7376114"><ele>1065.2</ele><time>2026-04-25T14:44:16.242Z</time></trkpt><trkpt lat="45.4888877" lon="7.7374783"><ele>1066.4</ele><time>2026-04-25T14:44:17.242Z</time></trkpt><trkpt lat="45.4888611" lon="7.737328"><ele>1067.6</ele><time>2026-04-25T14:44:18.245Z</time></trkpt><trkpt lat="45.4888352" lon="7.7371955"><ele>1068.8</ele><time>2026-04-25T14:44:19.245Z</time></trkpt><trkpt lat="45.4888" lon="7.7370658"><ele>1070.0</ele><time>2026-04-25T14:44:20.244Z</time></trkpt><trkpt lat="45.4887559" lon="7.7369549"><ele>1074.6666666666667</ele><time>2026-04-25T14:44:21.245Z</time></trkpt><trkpt lat="45.4887104" lon="7.7368403"><ele>1079.3333333333335</ele><time>2026-04-25T14:44:22.24Z</time></trkpt><trkpt lat="45.4886662" lon="7.7367204"><ele>1084.0</ele><time>2026-04-25T14:44:23.245Z</time></trkpt><trkpt lat="45.4886365" lon="7.7366049"><ele>1088.6666666666667</ele><time>2026-04-25T14:44:24.253Z</time></trkpt><trkpt lat="45.4885973" lon="7.7364958"><ele>1093.3333333333333</ele><time>2026-04-25T14:44:25.252Z</time></trkpt><trkpt lat="45.4885495" lon="7.7363922"><ele>1098.0</ele><time>2026-04-25T14:44:26.251Z</time></trkpt><trkpt lat="45.4884978" lon="7.7362837"><ele>1098.0</ele><time>2026-04-25T14:44:27.246Z</time></trkpt><trkpt lat="45.4884521" lon="7.7361751"><ele>1098.0</ele><time>2026-04-25T14:44:28.251Z</time></trkpt><trkpt lat="45.4884135" lon="7.7360657"><ele>1098.0</ele><time>2026-04-25T14:44:29.246Z</time></trkpt><trkpt lat="45.4883874" lon="7.7359514"><ele>1098.0</ele><time>2026-04-25T14:44:30.251Z</time></trkpt><trkpt lat="45.4883722" lon="7.7358407"><ele>1098.0</ele><time>2026-04-25T14:44:31.256Z</time></trkpt><trkpt lat="45.4883474" lon="7.7357266"><ele>1098.0</ele><time>2026-04-25T14:44:32.252Z</time></trkpt><trkpt lat="45.4883371" lon="7.735611"><ele>1098.0</ele><time>2026-04-25T14:44:33.252Z</time></trkpt><trkpt lat="45.4883217" lon="7.7355031"><ele>1098.0</ele><time>2026-04-25T14:44:34.252Z</time></trkpt><trkpt lat="45.4883033" lon="7.7353968"><ele>1098.0</ele><time>2026-04-25T14:44:35.247Z</time></trkpt><trkpt lat="45.4882879" lon="7.7352911"><ele>1098.0</ele><time>2026-04-25T14:44:36.25Z</time></trkpt><trkpt lat="45.4882706" lon="7.7352041"><ele>1098.0</ele><time>2026-04-25T14:44:37.253Z</time></trkpt><trkpt lat="45.4882322" lon="7.7350446"><ele>1098.0</ele><time>2026-04-25T14:44:39.244Z</time></trkpt><trkpt lat="45.4882086" lon="7.7349607"><ele>1097.1666666666667</ele><time>2026-04-25T14:44:40.245Z</time></trkpt><trkpt lat="45.4881878" lon="7.7348148"><ele>1096.3333333333333</ele><time>2026-04-25T14:44:42.246Z</time></trkpt><trkpt lat="45.4881887" lon="7.7347204"><ele>1095.5</ele><time>2026-04-25T14:44:43.245Z</time></trkpt><trkpt lat="45.48819" lon="7.7345564"><ele>1094.6666666666665</ele><time>2026-04-25T14:44:45.244Z</time></trkpt><trkpt lat="45.488209" lon="7.7344576"><ele>1093.8333333333333</ele><time>2026-04-25T14:44:46.248Z</time></trkpt><trkpt lat="45.4882128" lon="7.7343356"><ele>1093.0</ele><time>2026-04-25T14:44:47.243Z</time></trkpt><trkpt lat="45.4882163" lon="7.7342259"><ele>1092.8</ele><time>2026-04-25T14:44:48.238Z</time></trkpt><trkpt lat="45.4882479" lon="7.7341014"><ele>1092.6</ele><time>2026-04-25T14:44:49.24Z</time></trkpt><trkpt lat="45.4882808" lon="7.7339805"><ele>1092.4</ele><time>2026-04-25T14:44:50.252Z</time></trkpt><trkpt lat="45.4883358" lon="7.7338738"><ele>1092.2</ele><time>2026-04-25T14:44:51.245Z</time></trkpt><trkpt lat="45.4883851" lon="7.7337683"><ele>1092.0</ele><time>2026-04-25T14:44:52.243Z</time></trkpt><trkpt lat="45.4884343" lon="7.7336588"><ele>1092.0</ele><time>2026-04-25T14:44:53.244Z</time></trkpt><trkpt lat="45.4884799" lon="7.7335597"><ele>1092.0</ele><time>2026-04-25T14:44:54.246Z</time></trkpt><trkpt lat="45.4884999" lon="7.7334671"><ele>1092.0</ele><time>2026-04-25T14:44:55.244Z</time></trkpt><trkpt lat="45.488541" lon="7.7333263"><ele>1092.0</ele><time>2026-04-25T14:44:57.241Z</time></trkpt><trkpt lat="45.4886318" lon="7.7333227"><ele>1092.0</ele><time>2026-04-25T14:44:59.229Z</time></trkpt><trkpt lat="45.4887518" lon="7.7334661"><ele>1087.5</ele><time>2026-04-25T14:45:01.241Z</time></trkpt><trkpt lat="45.4888207" lon="7.7335924"><ele>1083.0</ele><time>2026-04-25T14:45:02.233Z</time></trkpt><trkpt lat="45.488919" lon="7.7337361"><ele>1078.5</ele><time>2026-04-25T14:45:03.233Z</time></trkpt><trkpt lat="45.4890183" lon="7.7339076"><ele>1074.0</ele><time>2026-04-25T14:45:04.225Z</time></trkpt><trkpt lat="45.4891141" lon="7.7340545"><ele>1074.0</ele><time>2026-04-25T14:45:05.226Z</time></trkpt><trkpt lat="45.4892318" lon="7.7341888"><ele>1074.0</ele><time>2026-04-25T14:45:06.239Z</time></trkpt><trkpt lat="45.4893404" lon="7.7343108"><ele>1074.0</ele><time>2026-04-25T14:45:07.231Z</time></trkpt><trkpt lat="45.4894479" lon="7.7344191"><ele>1074.0</ele><time>2026-04-25T14:45:08.236Z</time></trkpt><trkpt lat="45.4895439" lon="7.7345424"><ele>1069.25</ele><time>2026-04-25T14:45:09.233Z</time></trkpt><trkpt lat="45.489628" lon="7.7346887"><ele>1064.5</ele><time>2026-04-25T14:45:10.233Z</time></trkpt><trkpt lat="45.48971" lon="7.7348452"><ele>1059.75</ele><time>2026-04-25T14:45:11.236Z</time></trkpt><trkpt lat="45.4897662" lon="7.7350017"><ele>1055.0</ele><time>2026-04-25T14:45:12.237Z</time></trkpt><trkpt lat="45.4898208" lon="7.7351455"><ele>1055.0</ele><time>2026-04-25T14:45:13.238Z</time></trkpt><trkpt lat="45.4898788" lon="7.7352423"><ele>1055.0</ele><time>2026-04-25T14:45:14.235Z</time></trkpt><trkpt lat="45.4899434" lon="7.7353011"><ele>1055.0</ele><time>2026-04-25T14:45:15.233Z</time></trkpt><trkpt lat="45.4900002" lon="7.735345"><ele>1055.0</ele><time>2026-04-25T14:45:16.233Z</time></trkpt><trkpt lat="45.4900653" lon="7.7353357"><ele>1055.0</ele><time>2026-04-25T14:45:17.237Z</time></trkpt><trkpt lat="45.4901195" lon="7.7352688"><ele>1055.0</ele><time>2026-04-25T14:45:18.228Z</time></trkpt><trkpt lat="45.4901627" lon="7.7351664"><ele>1055.0</ele><time>2026-04-25T14:45:19.232Z</time></trkpt><trkpt lat="45.490194" lon="7.7349935"><ele>1055.0</ele><time>2026-04-25T14:45:20.23Z</time></trkpt><trkpt lat="45.4902397" lon="7.7347842"><ele>1055.0</ele><time>2026-04-25T14:45:21.226Z</time></trkpt><trkpt lat="45.4902822" lon="7.7345516"><ele>1055.0</ele><time>2026-04-25T14:45:22.227Z</time></trkpt><trkpt lat="45.4903216" lon="7.7342234"><ele>1054.5</ele><time>2026-04-25T14:45:23.231Z</time></trkpt><trkpt lat="45.4903637" lon="7.7339601"><ele>1054.0</ele><time>2026-04-25T14:45:24.233Z</time></trkpt><trkpt lat="45.4903668" lon="7.7337726"><ele>1053.5</ele><time>2026-04-25T14:45:25.225Z</time></trkpt><trkpt lat="45.4903516" lon="7.7336041"><ele>1053.0</ele><time>2026-04-25T14:45:26.236Z</time></trkpt><trkpt lat="45.4903487" lon="7.7334563"><ele>1052.2</ele><time>2026-04-25T14:45:27.233Z</time></trkpt><trkpt lat="45.4903471" lon="7.7333138"><ele>1051.4</ele><time>2026-04-25T14:45:28.229Z</time></trkpt><trkpt lat="45.4903245" lon="7.7332132"><ele>1050.6000000000001</ele><time>2026-04-25T14:45:29.225Z</time></trkpt><trkpt lat="45.490332" lon="7.7330727"><ele>1049.8</ele><time>2026-04-25T14:45:31.243Z</time></trkpt><trkpt lat="45.4904449" lon="7.733084"><ele>1049.0</ele><time>2026-04-25T14:45:33.233Z</time></trkpt><trkpt lat="45.4905082" lon="7.7331671"><ele>1041.6666666666667</ele><time>2026-04-25T14:45:34.23Z</time></trkpt><trkpt lat="45.4905671" lon="7.7333012"><ele>1034.3333333333333</ele><time>2026-04-25T14:45:35.227Z</time></trkpt><trkpt lat="45.4906402" lon="7.7334975"><ele>1027.0</ele><time>2026-04-25T14:45:36.231Z</time></trkpt><trkpt lat="45.4907369" lon="7.7337263"><ele>1027.0</ele><time>2026-04-25T14:45:37.223Z</time></trkpt><trkpt lat="45.4908259" lon="7.7340223"><ele>1027.0</ele><time>2026-04-25T14:45:38.224Z</time></trkpt><trkpt lat="45.4908937" lon="7.7342511"><ele>1027.0</ele><time>2026-04-25T14:45:39.221Z</time></trkpt><trkpt lat="45.4909658" lon="7.7344229"><ele>1027.6</ele><time>2026-04-25T14:45:40.22Z</time></trkpt><trkpt lat="45.491056" lon="7.7345782"><ele>1028.2</ele><time>2026-04-25T14:45:41.228Z</time></trkpt><trkpt lat="45.4911549" lon="7.7346562"><ele>1028.8</ele><time>2026-04-25T14:45:42.232Z</time></trkpt><trkpt lat="45.4912009" lon="7.7347515"><ele>1029.4</ele><time>2026-04-25T14:45:43.226Z</time></trkpt><trkpt lat="45.4912254" lon="7.7348398"><ele>1030.0</ele><time>2026-04-25T14:45:44.229Z</time></trkpt><trkpt lat="45.4913047" lon="7.7348694"><ele>1022.0</ele><time>2026-04-25T14:45:48.225Z</time></trkpt><trkpt lat="45.4914423" lon="7.7347366"><ele>1014.0</ele><time>2026-04-25T14:45:50.231Z</time></trkpt><trkpt lat="45.4915441" lon="7.7345639"><ele>1006.0</ele><time>2026-04-25T14:45:51.221Z</time></trkpt><trkpt lat="45.4916372" lon="7.7343726"><ele>1006.0</ele><time>2026-04-25T14:45:52.223Z</time></trkpt><trkpt lat="45.4917133" lon="7.7341884"><ele>1006.0</ele><time>2026-04-25T14:45:53.23Z</time></trkpt><trkpt lat="45.4917688" lon="7.7340265"><ele>1006.0</ele><time>2026-04-25T14:45:54.225Z</time></trkpt><trkpt lat="45.4917906" lon="7.7338716"><ele>1006.0</ele><time>2026-04-25T14:45:55.226Z</time></trkpt><trkpt lat="45.4917976" lon="7.733711"><ele>1004.8</ele><time>2026-04-25T14:45:56.225Z</time></trkpt><trkpt lat="45.4918069" lon="7.733539"><ele>1003.5999999999999</ele><time>2026-04-25T14:45:57.229Z</time></trkpt><trkpt lat="45.4918098" lon="7.7333897"><ele>1002.4</ele><time>2026-04-25T14:45:58.228Z</time></trkpt><trkpt lat="45.4917912" lon="7.7332853"><ele>1001.2</ele><time>2026-04-25T14:45:59.229Z</time></trkpt><trkpt lat="45.4917659" lon="7.7331453"><ele>1000.0</ele><time>2026-04-25T14:46:01.239Z</time></trkpt><trkpt lat="45.4918394" lon="7.7331319"><ele>1000.0</ele><time>2026-04-25T14:46:03.23Z</time></trkpt><trkpt lat="45.4918928" lon="7.733203"><ele>1000.0</ele><time>2026-04-25T14:46:04.228Z</time></trkpt><trkpt lat="45.4919572" lon="7.7333155"><ele>1000.0</ele><time>2026-04-25T14:46:05.221Z</time></trkpt><trkpt lat="45.492045" lon="7.733432"><ele>1000.0</ele><time>2026-04-25T14:46:06.22Z</time></trkpt><trkpt lat="45.4921415" lon="7.733548"><ele>1000.0</ele><time>2026-04-25T14:46:07.233Z</time></trkpt><trkpt lat="45.4922394" lon="7.7336679"><ele>996.4</ele><time>2026-04-25T14:46:08.231Z</time></trkpt><trkpt lat="45.4923303" lon="7.7337569"><ele>992.8</ele><time>2026-04-25T14:46:09.228Z</time></trkpt><trkpt lat="45.4924095" lon="7.73381"><ele>989.2</ele><time>2026-04-25T14:46:10.225Z</time></trkpt><trkpt lat="45.492491" lon="7.7338451"><ele>985.6</ele><time>2026-04-25T14:46:11.228Z</time></trkpt><trkpt lat="45.4925687" lon="7.733883"><ele>982.0</ele><time>2026-04-25T14:46:12.229Z</time></trkpt><trkpt lat="45.4926662" lon="7.733925"><ele>982.0</ele><time>2026-04-25T14:46:13.226Z</time></trkpt><trkpt lat="45.4927585" lon="7.7340009"><ele>982.0</ele><time>2026-04-25T14:46:14.228Z</time></trkpt><trkpt lat="45.4928486" lon="7.7340837"><ele>982.0</ele><time>2026-04-25T14:46:15.23Z</time></trkpt><trkpt lat="45.4928991" lon="7.7342012"><ele>982.0</ele><time>2026-04-25T14:46:16.226Z</time></trkpt><trkpt lat="45.4929371" lon="7.7343564"><ele>982.0</ele><time>2026-04-25T14:46:17.223Z</time></trkpt><trkpt lat="45.4929592" lon="7.7345517"><ele>979.6666666666666</ele><time>2026-04-25T14:46:18.225Z</time></trkpt><trkpt lat="45.4929546" lon="7.7347899"><ele>977.3333333333333</ele><time>2026-04-25T14:46:19.217Z</time></trkpt><trkpt lat="45.4929253" lon="7.7350244"><ele>975.0</ele><time>2026-04-25T14:46:20.22Z</time></trkpt><trkpt lat="45.4928821" lon="7.7352968"><ele>975.0</ele><time>2026-04-25T14:46:21.22Z</time></trkpt><trkpt lat="45.492861" lon="7.7354878"><ele>975.0</ele><time>2026-04-25T14:46:22.22Z</time></trkpt><trkpt lat="45.4928315" lon="7.7356611"><ele>975.0</ele><time>2026-04-25T14:46:23.22Z</time></trkpt><trkpt lat="45.4927937" lon="7.7358046"><ele>975.0</ele><time>2026-04-25T14:46:24.219Z</time></trkpt><trkpt lat="45.4927791" lon="7.7359125"><ele>975.0</ele><time>2026-04-25T14:46:25.224Z</time></trkpt><trkpt lat="45.4928135" lon="7.7360119"><ele>975.0</ele><time>2026-04-25T14:46:27.229Z</time></trkpt><trkpt lat="45.4929115" lon="7.7359353"><ele>975.0</ele><time>2026-04-25T14:46:29.224Z</time></trkpt><trkpt lat="45.4929801" lon="7.7358131"><ele>975.0</ele><time>2026-04-25T14:46:30.22Z</time></trkpt><trkpt lat="45.4930516" lon="7.735671"><ele>975.0</ele><time>2026-04-25T14:46:31.224Z</time></trkpt><trkpt lat="45.4931272" lon="7.7355354"><ele>970.0</ele><time>2026-04-25T14:46:32.219Z</time></trkpt><trkpt lat="45.4932112" lon="7.7354009"><ele>965.0</ele><time>2026-04-25T14:46:33.217Z</time></trkpt><trkpt lat="45.4932829" lon="7.7352835"><ele>960.0</ele><time>2026-04-25T14:46:34.22Z</time></trkpt><trkpt lat="45.4933295" lon="7.7352052"><ele>955.0</ele><time>2026-04-25T14:46:35.216Z</time></trkpt><trkpt lat="45.4933984" lon="7.7350888"><ele>950.0</ele><time>2026-04-25T14:46:37.217Z</time></trkpt><trkpt lat="45.493439" lon="7.735203"><ele>948.6666666666667</ele><time>2026-04-25T14:46:40.226Z</time></trkpt><trkpt lat="45.4933904" lon="7.7353778"><ele>947.3333333333333</ele><time>2026-04-25T14:46:41.219Z</time></trkpt><trkpt lat="45.4933457" lon="7.7356068"><ele>946.0</ele><time>2026-04-25T14:46:42.217Z</time></trkpt><trkpt lat="45.4932891" lon="7.7358469"><ele>942.0</ele><time>2026-04-25T14:46:43.216Z</time></trkpt><trkpt lat="45.4932352" lon="7.7361247"><ele>938.0</ele><time>2026-04-25T14:46:44.222Z</time></trkpt><trkpt lat="45.493158" lon="7.7363983"><ele>934.0</ele><time>2026-04-25T14:46:45.22Z</time></trkpt><trkpt lat="45.4930983" lon="7.7366494"><ele>934.0</ele><time>2026-04-25T14:46:46.221Z</time></trkpt><trkpt lat="45.4930132" lon="7.7368287"><ele>934.0</ele><time>2026-04-25T14:46:47.217Z</time></trkpt><trkpt lat="45.4929728" lon="7.7369982"><ele>934.0</ele><time>2026-04-25T14:46:48.217Z</time></trkpt><trkpt lat="45.492968" lon="7.7371772"><ele>934.0</ele><time>2026-04-25T14:46:49.225Z</time></trkpt><trkpt lat="45.4929901" lon="7.7373624"><ele>931.3333333333333</ele><time>2026-04-25T14:46:50.222Z</time></trkpt><trkpt lat="45.4930495" lon="7.7375606"><ele>928.6666666666667</ele><time>2026-04-25T14:46:51.222Z</time></trkpt><trkpt lat="45.4931257" lon="7.7377399"><ele>926.0</ele><time>2026-04-25T14:46:52.213Z</time></trkpt><trkpt lat="45.4932047" lon="7.7379736"><ele>924.3333333333334</ele><time>2026-04-25T14:46:53.222Z</time></trkpt><trkpt lat="45.4932718" lon="7.7382295"><ele>922.6666666666667</ele><time>2026-04-25T14:46:54.218Z</time></trkpt><trkpt lat="45.4933048" lon="7.7385076"><ele>921.0</ele><time>2026-04-25T14:46:55.218Z</time></trkpt><trkpt lat="45.4932791" lon="7.7387914"><ele>916.6666666666667</ele><time>2026-04-25T14:46:56.22Z</time></trkpt><trkpt lat="45.4932708" lon="7.7390342"><ele>912.3333333333334</ele><time>2026-04-25T14:46:57.213Z</time></trkpt><trkpt lat="45.4932463" lon="7.7392199"><ele>908.0</ele><time>2026-04-25T14:46:58.213Z</time></trkpt><trkpt lat="45.4931691" lon="7.7394327"><ele>903.3333333333334</ele><time>2026-04-25T14:46:59.215Z</time></trkpt><trkpt lat="45.4930828" lon="7.7396263"><ele>898.6666666666667</ele><time>2026-04-25T14:47:00.212Z</time></trkpt><trkpt lat="45.4930029" lon="7.7398174"><ele>894.0</ele><time>2026-04-25T14:47:01.221Z</time></trkpt><trkpt lat="45.4929649" lon="7.7400691"><ele>891.0</ele><time>2026-04-25T14:47:02.227Z</time></trkpt><trkpt lat="45.4929294" lon="7.7402954"><ele>888.0</ele><time>2026-04-25T14:47:03.229Z</time></trkpt><trkpt lat="45.4929085" lon="7.7404851"><ele>885.0</ele><time>2026-04-25T14:47:04.219Z</time></trkpt><trkpt lat="45.4928851" lon="7.7406003"><ele>882.0</ele><time>2026-04-25T14:47:05.225Z</time></trkpt><trkpt lat="45.49285" lon="7.740733"><ele>883.25</ele><time>2026-04-25T14:47:06.229Z</time></trkpt><trkpt lat="45.4928547" lon="7.7408841"><ele>884.5</ele><time>2026-04-25T14:47:07.236Z</time></trkpt><trkpt lat="45.4928685" lon="7.7410903"><ele>885.75</ele><time>2026-04-25T14:47:08.239Z</time></trkpt><trkpt lat="45.492887" lon="7.7412591"><ele>887.0</ele><time>2026-04-25T14:47:09.244Z</time></trkpt><trkpt lat="45.4929232" lon="7.7414181"><ele>887.0</ele><time>2026-04-25T14:47:10.239Z</time></trkpt><trkpt lat="45.4929938" lon="7.7415546"><ele>887.0</ele><time>2026-04-25T14:47:11.236Z</time></trkpt><trkpt lat="45.4930731" lon="7.7416981"><ele>887.0</ele><time>2026-04-25T14:47:12.233Z</time></trkpt><trkpt lat="45.4931859" lon="7.7418366"><ele>887.0</ele><time>2026-04-25T14:47:13.233Z</time></trkpt><trkpt lat="45.4933075" lon="7.7419796"><ele>892.3333333333334</ele><time>2026-04-25T14:47:14.226Z</time></trkpt><trkpt lat="45.493436" lon="7.742146"><ele>897.6666666666667</ele><time>2026-04-25T14:47:15.228Z</time></trkpt><trkpt lat="45.4935689" lon="7.7423007"><ele>903.0</ele><time>2026-04-25T14:47:16.229Z</time></trkpt><trkpt lat="45.4936875" lon="7.7424556"><ele>896.75</ele><time>2026-04-25T14:47:17.237Z</time></trkpt><trkpt lat="45.493789" lon="7.742607"><ele>890.5</ele><time>2026-04-25T14:47:18.239Z</time></trkpt><trkpt lat="45.4938927" lon="7.7427382"><ele>884.25</ele><time>2026-04-25T14:47:19.234Z</time></trkpt><trkpt lat="45.4939941" lon="7.7428427"><ele>878.0</ele><time>2026-04-25T14:47:20.245Z</time></trkpt><trkpt lat="45.4941218" lon="7.7429638"><ele>878.0</ele><time>2026-04-25T14:47:21.235Z</time></trkpt><trkpt lat="45.4942582" lon="7.743064"><ele>878.0</ele><time>2026-04-25T14:47:22.237Z</time></trkpt><trkpt lat="45.4943283" lon="7.743181"><ele>878.0</ele><time>2026-04-25T14:47:23.238Z</time></trkpt><trkpt lat="45.4944108" lon="7.7432791"><ele>878.0</ele><time>2026-04-25T14:47:24.238Z</time></trkpt><trkpt lat="45.4945117" lon="7.743371"><ele>871.5</ele><time>2026-04-25T14:47:25.242Z</time></trkpt><trkpt lat="45.4945998" lon="7.7434451"><ele>865.0</ele><time>2026-04-25T14:47:26.237Z</time></trkpt><trkpt lat="45.4947035" lon="7.7434831"><ele>858.5</ele><time>2026-04-25T14:47:27.239Z</time></trkpt><trkpt lat="45.4948254" lon="7.743567"><ele>852.0</ele><time>2026-04-25T14:47:28.239Z</time></trkpt><trkpt lat="45.4949782" lon="7.7435837"><ele>851.4000000000001</ele><time>2026-04-25T14:47:29.241Z</time></trkpt><trkpt lat="45.4951032" lon="7.7436231"><ele>850.8000000000001</ele><time>2026-04-25T14:47:30.242Z</time></trkpt><trkpt lat="45.4952009" lon="7.7436584"><ele>850.2</ele><time>2026-04-25T14:47:31.234Z</time></trkpt><trkpt lat="45.4952677" lon="7.7436853"><ele>849.6</ele><time>2026-04-25T14:47:32.252Z</time></trkpt><trkpt lat="45.4953517" lon="7.7437674"><ele>849.0</ele><time>2026-04-25T14:47:34.255Z</time></trkpt><trkpt lat="45.495313" lon="7.7438629"><ele>849.0</ele><time>2026-04-25T14:47:35.25Z</time></trkpt><trkpt lat="45.4952324" lon="7.743945"><ele>849.0</ele><time>2026-04-25T14:47:36.245Z</time></trkpt><trkpt lat="45.4951361" lon="7.7439834"><ele>849.0</ele><time>2026-04-25T14:47:37.25Z</time></trkpt><trkpt lat="45.4950405" lon="7.7440208"><ele>849.0</ele><time>2026-04-25T14:47:38.246Z</time></trkpt><trkpt lat="45.4949648" lon="7.7440793"><ele>849.0</ele><time>2026-04-25T14:47:39.244Z</time></trkpt><trkpt lat="45.4949227" lon="7.7441788"><ele>849.0</ele><time>2026-04-25T14:47:40.247Z</time></trkpt><trkpt lat="45.4949648" lon="7.7443428"><ele>849.0</ele><time>2026-04-25T14:47:42.253Z</time></trkpt><trkpt lat="45.4950808" lon="7.7444487"><ele>849.0</ele><time>2026-04-25T14:47:43.246Z</time></trkpt><trkpt lat="45.4952192" lon="7.7445745"><ele>849.0</ele><time>2026-04-25T14:47:44.245Z</time></trkpt><trkpt lat="45.4953306" lon="7.7447046"><ele>844.0</ele><time>2026-04-25T14:47:45.237Z</time></trkpt><trkpt lat="45.4954459" lon="7.7448339"><ele>839.0</ele><time>2026-04-25T14:47:46.247Z</time></trkpt><trkpt lat="45.4955424" lon="7.7449478"><ele>834.0</ele><time>2026-04-25T14:47:47.243Z</time></trkpt><trkpt lat="45.4956037" lon="7.7450668"><ele>829.0</ele><time>2026-04-25T14:47:48.248Z</time></trkpt><trkpt lat="45.4956521" lon="7.7451667"><ele>829.0</ele><time>2026-04-25T14:47:49.242Z</time></trkpt><trkpt lat="45.495694" lon="7.74525"><ele>829.0</ele><time>2026-04-25T14:47:50.24Z</time></trkpt><trkpt lat="45.495793" lon="7.7452961"><ele>829.0</ele><time>2026-04-25T14:47:52.24Z</time></trkpt><trkpt lat="45.4959044" lon="7.7451592"><ele>829.0</ele><time>2026-04-25T14:47:54.244Z</time></trkpt><trkpt lat="45.4959695" lon="7.745001"><ele>829.0</ele><time>2026-04-25T14:47:55.231Z</time></trkpt><trkpt lat="45.4960478" lon="7.7448409"><ele>829.0</ele><time>2026-04-25T14:47:56.23Z</time></trkpt><trkpt lat="45.4961382" lon="7.7446718"><ele>829.0</ele><time>2026-04-25T14:47:57.23Z</time></trkpt><trkpt lat="45.4962232" lon="7.7444899"><ele>829.0</ele><time>2026-04-25T14:47:58.218Z</time></trkpt><trkpt lat="45.4963205" lon="7.7443007"><ele>821.75</ele><time>2026-04-25T14:47:59.226Z</time></trkpt><trkpt lat="45.4963579" lon="7.7441119"><ele>814.5</ele><time>2026-04-25T14:48:00.227Z</time></trkpt><trkpt lat="45.4963903" lon="7.7439158"><ele>807.25</ele><time>2026-04-25T14:48:01.229Z</time></trkpt><trkpt lat="45.4964311" lon="7.7437079"><ele>800.0</ele><time>2026-04-25T14:48:02.236Z</time></trkpt><trkpt lat="45.4964806" lon="7.7435306"><ele>800.0</ele><time>2026-04-25T14:48:03.234Z</time></trkpt><trkpt lat="45.4965331" lon="7.7433853"><ele>800.0</ele><time>2026-04-25T14:48:04.231Z</time></trkpt><trkpt lat="45.4965533" lon="7.743261"><ele>800.0</ele><time>2026-04-25T14:48:05.229Z</time></trkpt><trkpt lat="45.4965619" lon="7.743145"><ele>800.0</ele><time>2026-04-25T14:48:06.233Z</time></trkpt><trkpt lat="45.4965641" lon="7.743001"><ele>800.0</ele><time>2026-04-25T14:48:07.244Z</time></trkpt><trkpt lat="45.4965657" lon="7.7428379"><ele>798.0</ele><time>2026-04-25T14:48:08.236Z</time></trkpt><trkpt lat="45.4965535" lon="7.7426756"><ele>796.0</ele><time>2026-04-25T14:48:09.24Z</time></trkpt><trkpt lat="45.4965337" lon="7.7425149"><ele>794.0</ele><time>2026-04-25T14:48:10.242Z</time></trkpt><trkpt lat="45.4965022" lon="7.7423541"><ele>792.0</ele><time>2026-04-25T14:48:11.247Z</time></trkpt><trkpt lat="45.4964532" lon="7.7421968"><ele>792.0</ele><time>2026-04-25T14:48:12.246Z</time></trkpt><trkpt lat="45.4963897" lon="7.7420571"><ele>792.0</ele><time>2026-04-25T14:48:13.24Z</time></trkpt><trkpt lat="45.4963192" lon="7.7419154"><ele>792.0</ele><time>2026-04-25T14:48:14.239Z</time></trkpt><trkpt lat="45.4962329" lon="7.7417917"><ele>792.0</ele><time>2026-04-25T14:48:15.244Z</time></trkpt><trkpt lat="45.496155" lon="7.7417008"><ele>794.0</ele><time>2026-04-25T14:48:16.238Z</time></trkpt><trkpt lat="45.4960888" lon="7.7416394"><ele>796.0</ele><time>2026-04-25T14:48:17.236Z</time></trkpt><trkpt lat="45.4960292" lon="7.7415963"><ele>798.0</ele><time>2026-04-25T14:48:18.231Z</time></trkpt><trkpt lat="45.4959699" lon="7.7414769"><ele>800.0</ele><time>2026-04-25T14:48:20.229Z</time></trkpt><trkpt lat="45.4960282" lon="7.7413708"><ele>802.0</ele><time>2026-04-25T14:48:22.24Z</time></trkpt><trkpt lat="45.4961275" lon="7.7413036"><ele>798.0</ele><time>2026-04-25T14:48:23.236Z</time></trkpt><trkpt lat="45.4962598" lon="7.7412272"><ele>794.0</ele><time>2026-04-25T14:48:24.235Z</time></trkpt><trkpt lat="45.4963987" lon="7.74114"><ele>790.0</ele><time>2026-04-25T14:48:25.229Z</time></trkpt><trkpt lat="45.4965315" lon="7.7410268"><ele>786.0</ele><time>2026-04-25T14:48:26.228Z</time></trkpt><trkpt lat="45.4966488" lon="7.7409242"><ele>786.0</ele><time>2026-04-25T14:48:27.233Z</time></trkpt><trkpt lat="45.4967623" lon="7.7408234"><ele>786.0</ele><time>2026-04-25T14:48:28.237Z</time></trkpt><trkpt lat="45.4968507" lon="7.740737"><ele>786.0</ele><time>2026-04-25T14:48:29.244Z</time></trkpt><trkpt lat="45.4969433" lon="7.7406787"><ele>786.0</ele><time>2026-04-25T14:48:30.23Z</time></trkpt><trkpt lat="45.4970171" lon="7.7406577"><ele>786.0</ele><time>2026-04-25T14:48:31.229Z</time></trkpt><trkpt lat="45.4970868" lon="7.7407221"><ele>782.8</ele><time>2026-04-25T14:48:32.241Z</time></trkpt><trkpt lat="45.4971305" lon="7.7408444"><ele>779.5999999999999</ele><time>2026-04-25T14:48:33.234Z</time></trkpt><trkpt lat="45.4971622" lon="7.740992"><ele>776.4</ele><time>2026-04-25T14:48:34.229Z</time></trkpt><trkpt lat="45.4972284" lon="7.7411152"><ele>773.2</ele><time>2026-04-25T14:48:35.234Z</time></trkpt><trkpt lat="45.4973233" lon="7.7411864"><ele>770.0</ele><time>2026-04-25T14:48:36.235Z</time></trkpt><trkpt lat="45.4974267" lon="7.7411976"><ele>770.0</ele><time>2026-04-25T14:48:37.237Z</time></trkpt><trkpt lat="45.4975352" lon="7.7411752"><ele>770.0</ele><time>2026-04-25T14:48:38.232Z</time></trkpt><trkpt lat="45.4976819" lon="7.7411"><ele>770.0</ele><time>2026-04-25T14:48:39.233Z</time></trkpt><trkpt lat="45.4978378" lon="7.740978"><ele>770.0</ele><time>2026-04-25T14:48:40.233Z</time></trkpt><trkpt lat="45.4980191" lon="7.7408112"><ele>767.75</ele><time>2026-04-25T14:48:41.232Z</time></trkpt><trkpt lat="45.4981482" lon="7.7406742"><ele>765.5</ele><time>2026-04-25T14:48:42.239Z</time></trkpt><trkpt lat="45.4982688" lon="7.7405805"><ele>763.25</ele><time>2026-04-25T14:48:43.237Z</time></trkpt><trkpt lat="45.4983845" lon="7.7404869"><ele>761.0</ele><time>2026-04-25T14:48:44.238Z</time></trkpt><trkpt lat="45.4984937" lon="7.7404012"><ele>761.0</ele><time>2026-04-25T14:48:45.233Z</time></trkpt><trkpt lat="45.4985994" lon="7.7403139"><ele>761.0</ele><time>2026-04-25T14:48:46.232Z</time></trkpt><trkpt lat="45.4986901" lon="7.7402642"><ele>761.0</ele><time>2026-04-25T14:48:47.235Z</time></trkpt><trkpt lat="45.49878" lon="7.7402559"><ele>761.0</ele><time>2026-04-25T14:48:48.237Z</time></trkpt><trkpt lat="45.4988632" lon="7.7403063"><ele>761.0</ele><time>2026-04-25T14:48:49.233Z</time></trkpt><trkpt lat="45.4989308" lon="7.7404048"><ele>759.3333333333333</ele><time>2026-04-25T14:48:50.228Z</time></trkpt><trkpt lat="45.4990022" lon="7.7405099"><ele>757.6666666666666</ele><time>2026-04-25T14:48:51.231Z</time></trkpt><trkpt lat="45.4990681" lon="7.7405803"><ele>756.0</ele><time>2026-04-25T14:48:52.224Z</time></trkpt><trkpt lat="45.4991035" lon="7.7406587"><ele>754.3333333333334</ele><time>2026-04-25T14:48:53.232Z</time></trkpt><trkpt lat="45.4991205" lon="7.7407731"><ele>752.6666666666667</ele><time>2026-04-25T14:48:54.229Z</time></trkpt><trkpt lat="45.4991358" lon="7.740902"><ele>751.0</ele><time>2026-04-25T14:48:55.22Z</time></trkpt><trkpt lat="45.4991667" lon="7.7410397"><ele>749.75</ele><time>2026-04-25T14:48:56.217Z</time></trkpt><trkpt lat="45.4991995" lon="7.741238"><ele>748.5</ele><time>2026-04-25T14:48:57.218Z</time></trkpt><trkpt lat="45.4992431" lon="7.7414231"><ele>747.25</ele><time>2026-04-25T14:48:58.22Z</time></trkpt><trkpt lat="45.499273" lon="7.7415998"><ele>746.0</ele><time>2026-04-25T14:48:59.218Z</time></trkpt><trkpt lat="45.4992792" lon="7.7417783"><ele>744.25</ele><time>2026-04-25T14:49:00.218Z</time></trkpt><trkpt lat="45.4992783" lon="7.7419653"><ele>742.5</ele><time>2026-04-25T14:49:01.224Z</time></trkpt><trkpt lat="45.4992279" lon="7.7421182"><ele>740.75</ele><time>2026-04-25T14:49:02.229Z</time></trkpt><trkpt lat="45.4991448" lon="7.7422355"><ele>739.0</ele><time>2026-04-25T14:49:03.235Z</time></trkpt><trkpt lat="45.499037" lon="7.7423464"><ele>739.0</ele><time>2026-04-25T14:49:04.223Z</time></trkpt><trkpt lat="45.4989413" lon="7.7424636"><ele>739.0</ele><time>2026-04-25T14:49:05.234Z</time></trkpt><trkpt lat="45.4988559" lon="7.7425913"><ele>739.0</ele><time>2026-04-25T14:49:06.226Z</time></trkpt><trkpt lat="45.4988224" lon="7.742722"><ele>739.0</ele><time>2026-04-25T14:49:07.228Z</time></trkpt><trkpt lat="45.4987771" lon="7.742841"><ele>739.0</ele><time>2026-04-25T14:49:08.222Z</time></trkpt><trkpt lat="45.4987463" lon="7.7429659"><ele>741.0</ele><time>2026-04-25T14:49:09.224Z</time></trkpt><trkpt lat="45.4987266" lon="7.7431004"><ele>743.0</ele><time>2026-04-25T14:49:10.234Z</time></trkpt><trkpt lat="45.4987442" lon="7.7432293"><ele>745.0</ele><time>2026-04-25T14:49:11.233Z</time></trkpt><trkpt lat="45.4988152" lon="7.7433345"><ele>747.0</ele><time>2026-04-25T14:49:12.225Z</time></trkpt><trkpt lat="45.4989208" lon="7.7434314"><ele>749.0</ele><time>2026-04-25T14:49:13.235Z</time></trkpt><trkpt lat="45.4990512" lon="7.7435131"><ele>741.75</ele><time>2026-04-25T14:49:14.236Z</time></trkpt><trkpt lat="45.4991771" lon="7.7435807"><ele>734.5</ele><time>2026-04-25T14:49:15.239Z</time></trkpt><trkpt lat="45.4992961" lon="7.7436725"><ele>727.25</ele><time>2026-04-25T14:49:16.243Z</time></trkpt><trkpt lat="45.4994045" lon="7.7437625"><ele>720.0</ele><time>2026-04-25T14:49:17.242Z</time></trkpt><trkpt lat="45.4995069" lon="7.7438383"><ele>719.6666666666666</ele><time>2026-04-25T14:49:18.243Z</time></trkpt><trkpt lat="45.4995837" lon="7.7439317"><ele>719.3333333333334</ele><time>2026-04-25T14:49:19.253Z</time></trkpt><trkpt lat="45.4996423" lon="7.7440276"><ele>719.0</ele><time>2026-04-25T14:49:20.242Z</time></trkpt><trkpt lat="45.4997062" lon="7.7441099"><ele>718.6666666666667</ele><time>2026-04-25T14:49:21.25Z</time></trkpt><trkpt lat="45.4997497" lon="7.7441899"><ele>718.3333333333334</ele><time>2026-04-25T14:49:22.246Z</time></trkpt><trkpt lat="45.4997738" lon="7.7442859"><ele>718.0</ele><time>2026-04-25T14:49:23.25Z</time></trkpt><trkpt lat="45.4997491" lon="7.7443777"><ele>717.4</ele><time>2026-04-25T14:49:24.246Z</time></trkpt><trkpt lat="45.4996932" lon="7.7444747"><ele>716.8</ele><time>2026-04-25T14:49:25.251Z</time></trkpt><trkpt lat="45.4996296" lon="7.7445535"><ele>716.2</ele><time>2026-04-25T14:49:26.239Z</time></trkpt><trkpt lat="45.4995781" lon="7.7446076"><ele>715.6</ele><time>2026-04-25T14:49:27.244Z</time></trkpt><trkpt lat="45.4994738" lon="7.7446565"><ele>715.0</ele><time>2026-04-25T14:49:28.234Z</time></trkpt><trkpt lat="45.4993582" lon="7.7447231"><ele>714.75</ele><time>2026-04-25T14:49:29.236Z</time></trkpt><trkpt lat="45.4992587" lon="7.7448159"><ele>714.5</ele><time>2026-04-25T14:49:30.229Z</time></trkpt><trkpt lat="45.499158" lon="7.7449171"><ele>714.25</ele><time>2026-04-25T14:49:31.241Z</time></trkpt><trkpt lat="45.4990694" lon="7.7450408"><ele>714.0</ele><time>2026-04-25T14:49:32.232Z</time></trkpt><trkpt lat="45.4989966" lon="7.7451634"><ele>713.5</ele><time>2026-04-25T14:49:33.229Z</time></trkpt><trkpt lat="45.4989338" lon="7.7452721"><ele>713.0</ele><time>2026-04-25T14:49:34.238Z</time></trkpt><trkpt lat="45.4988718" lon="7.7453716"><ele>712.5</ele><time>2026-04-25T14:49:35.229Z</time></trkpt><trkpt lat="45.49881" lon="7.7454558"><ele>712.0</ele><time>2026-04-25T14:49:36.229Z</time></trkpt><trkpt lat="45.4987535" lon="7.745537"><ele>711.5</ele><time>2026-04-25T14:49:37.231Z</time></trkpt><trkpt lat="45.4986956" lon="7.745619"><ele>711.0</ele><time>2026-04-25T14:49:38.239Z</time></trkpt><trkpt lat="45.4986732" lon="7.7457915"><ele>711.0</ele><time>2026-04-25T14:49:40.236Z</time></trkpt><trkpt lat="45.4986679" lon="7.745994"><ele>711.0</ele><time>2026-04-25T14:49:42.236Z</time></trkpt><trkpt lat="45.498648" lon="7.7460912"><ele>711.0</ele><time>2026-04-25T14:49:43.242Z</time></trkpt><trkpt lat="45.4986214" lon="7.7462135"><ele>711.0</ele><time>2026-04-25T14:49:44.234Z</time></trkpt><trkpt lat="45.4985769" lon="7.746376"><ele>711.0</ele><time>2026-04-25T14:49:45.231Z</time></trkpt><trkpt lat="45.498537" lon="7.7465446"><ele>709.5</ele><time>2026-04-25T14:49:46.235Z</time></trkpt><trkpt lat="45.4985054" lon="7.7467164"><ele>708.0</ele><time>2026-04-25T14:49:47.234Z</time></trkpt><trkpt lat="45.4984589" lon="7.7469093"><ele>706.5</ele><time>2026-04-25T14:49:48.234Z</time></trkpt><trkpt lat="45.4984275" lon="7.7470935"><ele>705.0</ele><time>2026-04-25T14:49:49.237Z</time></trkpt><trkpt lat="45.4983698" lon="7.7472744"><ele>704.5</ele><time>2026-04-25T14:49:50.234Z</time></trkpt><trkpt lat="45.498321" lon="7.7474967"><ele>704.0</ele><time>2026-04-25T14:49:51.236Z</time></trkpt><trkpt lat="45.4982679" lon="7.7476726"><ele>703.5</ele><time>2026-04-25T14:49:52.23Z</time></trkpt><trkpt lat="45.4982255" lon="7.7478583"><ele>703.0</ele><time>2026-04-25T14:49:53.235Z</time></trkpt><trkpt lat="45.498171" lon="7.7480155"><ele>701.5</ele><time>2026-04-25T14:49:54.232Z</time></trkpt><trkpt lat="45.4980937" lon="7.7481648"><ele>700.0</ele><time>2026-04-25T14:49:55.236Z</time></trkpt><trkpt lat="45.4980378" lon="7.7483276"><ele>698.5</ele><time>2026-04-25T14:49:56.235Z</time></trkpt><trkpt lat="45.4980162" lon="7.7484877"><ele>697.0</ele><time>2026-04-25T14:49:57.232Z</time></trkpt><trkpt lat="45.497975" lon="7.7486559"><ele>696.5</ele><time>2026-04-25T14:49:58.232Z</time></trkpt><trkpt lat="45.4979468" lon="7.7488132"><ele>696.0</ele><time>2026-04-25T14:49:59.232Z</time></trkpt><trkpt lat="45.4978976" lon="7.7489648"><ele>695.5</ele><time>2026-04-25T14:50:00.233Z</time></trkpt><trkpt lat="45.4978277" lon="7.749098"><ele>695.0</ele><time>2026-04-25T14:50:01.237Z</time></trkpt><trkpt lat="45.4977461" lon="7.7492338"><ele>698.5</ele><time>2026-04-25T14:50:02.234Z</time></trkpt><trkpt lat="45.4976939" lon="7.7494118"><ele>702.0</ele><time>2026-04-25T14:50:03.231Z</time></trkpt><trkpt lat="45.4976609" lon="7.7495987"><ele>705.5</ele><time>2026-04-25T14:50:04.248Z</time></trkpt><trkpt lat="45.4976534" lon="7.749798"><ele>709.0</ele><time>2026-04-25T14:50:05.24Z</time></trkpt><trkpt lat="45.4976298" lon="7.7499973"><ele>706.3333333333334</ele><time>2026-04-25T14:50:06.235Z</time></trkpt><trkpt lat="45.4976556" lon="7.7502257"><ele>703.6666666666666</ele><time>2026-04-25T14:50:07.235Z</time></trkpt><trkpt lat="45.497722" lon="7.7504626"><ele>701.0</ele><time>2026-04-25T14:50:08.241Z</time></trkpt><trkpt lat="45.4977384" lon="7.7506542"><ele>701.0</ele><time>2026-04-25T14:50:09.234Z</time></trkpt><trkpt lat="45.4977366" lon="7.7508383"><ele>701.0</ele><time>2026-04-25T14:50:10.235Z</time></trkpt><trkpt lat="45.4977731" lon="7.7510354"><ele>701.0</ele><time>2026-04-25T14:50:11.243Z</time></trkpt><trkpt lat="45.4977747" lon="7.7511737"><ele>701.0</ele><time>2026-04-25T14:50:12.249Z</time></trkpt><trkpt lat="45.4976939" lon="7.751405"><ele>696.6666666666666</ele><time>2026-04-25T14:50:14.253Z</time></trkpt><trkpt lat="45.4975829" lon="7.7515207"><ele>692.3333333333334</ele><time>2026-04-25T14:50:15.237Z</time></trkpt><trkpt lat="45.4974877" lon="7.7517148"><ele>688.0</ele><time>2026-04-25T14:50:16.232Z</time></trkpt><trkpt lat="45.4973848" lon="7.7518765"><ele>687.0</ele><time>2026-04-25T14:50:17.235Z</time></trkpt><trkpt lat="45.497254" lon="7.752005"><ele>686.0</ele><time>2026-04-25T14:50:18.231Z</time></trkpt><trkpt lat="45.4970596" lon="7.7520799"><ele>685.0</ele><time>2026-04-25T14:50:19.233Z</time></trkpt><trkpt lat="45.4968684" lon="7.7521288"><ele>685.0</ele><time>2026-04-25T14:50:20.23Z</time></trkpt><trkpt lat="45.4967016" lon="7.7521254"><ele>685.0</ele><time>2026-04-25T14:50:21.233Z</time></trkpt><trkpt lat="45.4965169" lon="7.7521771"><ele>685.0</ele><time>2026-04-25T14:50:22.235Z</time></trkpt><trkpt lat="45.4963677" lon="7.7522655"><ele>686.3333333333334</ele><time>2026-04-25T14:50:23.237Z</time></trkpt><trkpt lat="45.4962465" lon="7.7524057"><ele>687.6666666666666</ele><time>2026-04-25T14:50:24.235Z</time></trkpt><trkpt lat="45.4961148" lon="7.7525703"><ele>689.0</ele><time>2026-04-25T14:50:25.241Z</time></trkpt><trkpt lat="45.4959558" lon="7.7526932"><ele>686.3333333333333</ele><time>2026-04-25T14:50:26.239Z</time></trkpt><trkpt lat="45.4958299" lon="7.7528246"><ele>683.6666666666666</ele><time>2026-04-25T14:50:27.241Z</time></trkpt><trkpt lat="45.4957029" lon="7.7529671"><ele>681.0</ele><time>2026-04-25T14:50:28.236Z</time></trkpt><trkpt lat="45.49559" lon="7.7531343"><ele>681.0</ele><time>2026-04-25T14:50:29.232Z</time></trkpt><trkpt lat="45.4954812" lon="7.7532659"><ele>681.0</ele><time>2026-04-25T14:50:30.236Z</time></trkpt><trkpt lat="45.4953816" lon="7.7534037"><ele>681.0</ele><time>2026-04-25T14:50:31.237Z</time></trkpt><trkpt lat="45.4952545" lon="7.7535411"><ele>681.0</ele><time>2026-04-25T14:50:32.237Z</time></trkpt><trkpt lat="45.4951118" lon="7.7536787"><ele>681.75</ele><time>2026-04-25T14:50:33.237Z</time></trkpt><trkpt lat="45.4950118" lon="7.753824"><ele>682.5</ele><time>2026-04-25T14:50:34.229Z</time></trkpt><trkpt lat="45.4949048" lon="7.7539694"><ele>683.25</ele><time>2026-04-25T14:50:35.233Z</time></trkpt><trkpt lat="45.4947936" lon="7.7540785"><ele>684.0</ele><time>2026-04-25T14:50:36.229Z</time></trkpt><trkpt lat="45.4947036" lon="7.7542627"><ele>683.5</ele><time>2026-04-25T14:50:37.223Z</time></trkpt><trkpt lat="45.494644" lon="7.7544351"><ele>683.0</ele><time>2026-04-25T14:50:38.231Z</time></trkpt><trkpt lat="45.4945745" lon="7.7546002"><ele>682.5</ele><time>2026-04-25T14:50:39.234Z</time></trkpt><trkpt lat="45.4945406" lon="7.7547522"><ele>682.0</ele><time>2026-04-25T14:50:40.225Z</time></trkpt><trkpt lat="45.4944726" lon="7.7549225"><ele>686.6666666666667</ele><time>2026-04-25T14:50:41.228Z</time></trkpt><trkpt lat="45.4944322" lon="7.755114"><ele>691.3333333333334</ele><time>2026-04-25T14:50:42.229Z</time></trkpt><trkpt lat="45.4943582" lon="7.7553293"><ele>696.0</ele><time>2026-04-25T14:50:43.228Z</time></trkpt><trkpt lat="45.4943032" lon="7.7555763"><ele>696.0</ele><time>2026-04-25T14:50:44.233Z</time></trkpt><trkpt lat="45.4942731" lon="7.7558195"><ele>696.0</ele><time>2026-04-25T14:50:45.24Z</time></trkpt><trkpt lat="45.4942213" lon="7.7560774"><ele>696.0</ele><time>2026-04-25T14:50:46.228Z</time></trkpt><trkpt lat="45.4941747" lon="7.7563083"><ele>692.6666666666666</ele><time>2026-04-25T14:50:47.227Z</time></trkpt><trkpt lat="45.4941152" lon="7.7565435"><ele>689.3333333333333</ele><time>2026-04-25T14:50:48.226Z</time></trkpt><trkpt lat="45.4940256" lon="7.7567866"><ele>686.0</ele><time>2026-04-25T14:50:49.22Z</time></trkpt><trkpt lat="45.4939507" lon="7.7570172"><ele>683.3333333333333</ele><time>2026-04-25T14:50:50.218Z</time></trkpt><trkpt lat="45.4939439" lon="7.7572486"><ele>680.6666666666666</ele><time>2026-04-25T14:50:51.218Z</time></trkpt><trkpt lat="45.4939057" lon="7.7574702"><ele>678.0</ele><time>2026-04-25T14:50:52.215Z</time></trkpt><trkpt lat="45.4938285" lon="7.7576315"><ele>683.0</ele><time>2026-04-25T14:50:53.216Z</time></trkpt><trkpt lat="45.4937403" lon="7.7578369"><ele>688.0</ele><time>2026-04-25T14:50:54.213Z</time></trkpt><trkpt lat="45.4936966" lon="7.7580385"><ele>693.0</ele><time>2026-04-25T14:50:55.216Z</time></trkpt><trkpt lat="45.4936151" lon="7.7582098"><ele>693.0</ele><time>2026-04-25T14:50:56.225Z</time></trkpt><trkpt lat="45.4935286" lon="7.7584004"><ele>693.0</ele><time>2026-04-25T14:50:57.221Z</time></trkpt><trkpt lat="45.4934285" lon="7.7585099"><ele>693.0</ele><time>2026-04-25T14:50:58.218Z</time></trkpt><trkpt lat="45.4933485" lon="7.7586824"><ele>693.0</ele><time>2026-04-25T14:50:59.223Z</time></trkpt><trkpt lat="45.4932164" lon="7.7588644"><ele>694.6666666666666</ele><time>2026-04-25T14:51:00.216Z</time></trkpt><trkpt lat="45.4930783" lon="7.7590271"><ele>696.3333333333333</ele><time>2026-04-25T14:51:01.233Z</time></trkpt><trkpt lat="45.4929489" lon="7.7591866"><ele>698.0</ele><time>2026-04-25T14:51:02.226Z</time></trkpt><trkpt lat="45.4927933" lon="7.7593055"><ele>692.75</ele><time>2026-04-25T14:51:03.221Z</time></trkpt><trkpt lat="45.4926844" lon="7.7594289"><ele>687.5</ele><time>2026-04-25T14:51:04.227Z</time></trkpt><trkpt lat="45.4925796" lon="7.7595778"><ele>682.25</ele><time>2026-04-25T14:51:05.239Z</time></trkpt><trkpt lat="45.4925318" lon="7.7597255"><ele>677.0</ele><time>2026-04-25T14:51:06.224Z</time></trkpt><trkpt lat="45.4924952" lon="7.7598798"><ele>677.0</ele><time>2026-04-25T14:51:07.223Z</time></trkpt><trkpt lat="45.4923894" lon="7.7600399"><ele>677.0</ele><time>2026-04-25T14:51:08.224Z</time></trkpt><trkpt lat="45.4922855" lon="7.7601985"><ele>677.0</ele><time>2026-04-25T14:51:09.223Z</time></trkpt><trkpt lat="45.4921945" lon="7.7603062"><ele>677.0</ele><time>2026-04-25T14:51:10.221Z</time></trkpt><trkpt lat="45.4921529" lon="7.760428"><ele>676.25</ele><time>2026-04-25T14:51:11.218Z</time></trkpt><trkpt lat="45.4920529" lon="7.7605172"><ele>675.5</ele><time>2026-04-25T14:51:12.218Z</time></trkpt><trkpt lat="45.4919482" lon="7.7605697"><ele>674.75</ele><time>2026-04-25T14:51:13.218Z</time></trkpt><trkpt lat="45.4918368" lon="7.7606287"><ele>674.0</ele><time>2026-04-25T14:51:14.218Z</time></trkpt><trkpt lat="45.4917181" lon="7.7606961"><ele>674.0</ele><time>2026-04-25T14:51:15.223Z</time></trkpt><trkpt lat="45.4916206" lon="7.760756"><ele>674.0</ele><time>2026-04-25T14:51:16.225Z</time></trkpt><trkpt lat="45.4915142" lon="7.7608054"><ele>674.0</ele><time>2026-04-25T14:51:17.22Z</time></trkpt><trkpt lat="45.4914324" lon="7.7609084"><ele>674.0</ele><time>2026-04-25T14:51:18.221Z</time></trkpt><trkpt lat="45.4913585" lon="7.7610113"><ele>674.0</ele><time>2026-04-25T14:51:19.222Z</time></trkpt><trkpt lat="45.4912943" lon="7.7611427"><ele>672.6</ele><time>2026-04-25T14:51:20.22Z</time></trkpt><trkpt lat="45.4912359" lon="7.761252"><ele>671.2</ele><time>2026-04-25T14:51:21.221Z</time></trkpt><trkpt lat="45.4911599" lon="7.7613389"><ele>669.8000000000001</ele><time>2026-04-25T14:51:22.218Z</time></trkpt><trkpt lat="45.4910786" lon="7.7614114"><ele>668.4000000000001</ele><time>2026-04-25T14:51:23.226Z</time></trkpt><trkpt lat="45.491005" lon="7.7614775"><ele>667.0</ele><time>2026-04-25T14:51:24.22Z</time></trkpt><trkpt lat="45.4909227" lon="7.7615146"><ele>667.0</ele><time>2026-04-25T14:51:25.221Z</time></trkpt><trkpt lat="45.4908589" lon="7.7615741"><ele>667.0</ele><time>2026-04-25T14:51:26.217Z</time></trkpt><trkpt lat="45.490795" lon="7.7616216"><ele>667.0</ele><time>2026-04-25T14:51:27.217Z</time></trkpt><trkpt lat="45.4907809" lon="7.7617621"><ele>667.0</ele><time>2026-04-25T14:51:29.225Z</time></trkpt><trkpt lat="45.4908146" lon="7.7619139"><ele>667.0</ele><time>2026-04-25T14:51:31.225Z</time></trkpt><trkpt lat="45.4908313" lon="7.7620399"><ele>667.0</ele><time>2026-04-25T14:51:33.221Z</time></trkpt><trkpt lat="45.4907601" lon="7.7621587"><ele>666.3333333333334</ele><time>2026-04-25T14:51:37.226Z</time></trkpt><trkpt lat="45.490689" lon="7.7622815"><ele>665.6666666666667</ele><time>2026-04-25T14:51:39.222Z</time></trkpt><trkpt lat="45.4906377" lon="7.7624187"><ele>665.0</ele><time>2026-04-25T14:51:41.224Z</time></trkpt><trkpt lat="45.4906449" lon="7.7625191"><ele>664.3333333333334</ele><time>2026-04-25T14:51:42.231Z</time></trkpt><trkpt lat="45.4906675" lon="7.7626131"><ele>663.6666666666666</ele><time>2026-04-25T14:51:43.227Z</time></trkpt><trkpt lat="45.4906883" lon="7.7627113"><ele>663.0</ele><time>2026-04-25T14:51:44.224Z</time></trkpt><trkpt lat="45.4906983" lon="7.762804"><ele>662.6666666666666</ele><time>2026-04-25T14:51:45.23Z</time></trkpt><trkpt lat="45.4907079" lon="7.7629007"><ele>662.3333333333334</ele><time>2026-04-25T14:51:46.229Z</time></trkpt><trkpt lat="45.4907463" lon="7.7629814"><ele>662.0</ele><time>2026-04-25T14:51:47.227Z</time></trkpt><trkpt lat="45.4908207" lon="7.7631034"><ele>661.6666666666667</ele><time>2026-04-25T14:51:49.223Z</time></trkpt><trkpt lat="45.4908843" lon="7.7632147"><ele>661.3333333333334</ele><time>2026-04-25T14:51:51.217Z</time></trkpt><trkpt lat="45.4909157" lon="7.763333"><ele>661.0</ele><time>2026-04-25T14:51:53.218Z</time></trkpt><trkpt lat="45.4908912" lon="7.7634537"><ele>659.8</ele><time>2026-04-25T14:51:55.22Z</time></trkpt><trkpt lat="45.4908403" lon="7.7635439"><ele>658.5999999999999</ele><time>2026-04-25T14:51:56.218Z</time></trkpt><trkpt lat="45.4907859" lon="7.7636546"><ele>657.4</ele><time>2026-04-25T14:51:57.23Z</time></trkpt><trkpt lat="45.4907339" lon="7.7637845"><ele>656.2</ele><time>2026-04-25T14:51:58.225Z</time></trkpt><trkpt lat="45.4906895" lon="7.7639093"><ele>655.0</ele><time>2026-04-25T14:51:59.225Z</time></trkpt><trkpt lat="45.4906538" lon="7.7640257"><ele>655.0</ele><time>2026-04-25T14:52:00.221Z</time></trkpt><trkpt lat="45.4906129" lon="7.7641218"><ele>655.0</ele><time>2026-04-25T14:52:01.229Z</time></trkpt><trkpt lat="45.4905462" lon="7.7642062"><ele>655.0</ele><time>2026-04-25T14:52:02.223Z</time></trkpt><trkpt lat="45.4904646" lon="7.7643108"><ele>655.0</ele><time>2026-04-25T14:52:03.225Z</time></trkpt><trkpt lat="45.4903899" lon="7.7644168"><ele>655.0</ele><time>2026-04-25T14:52:04.219Z</time></trkpt><trkpt lat="45.4903323" lon="7.7645326"><ele>654.6666666666667</ele><time>2026-04-25T14:52:05.225Z</time></trkpt><trkpt lat="45.4902815" lon="7.7646291"><ele>654.3333333333334</ele><time>2026-04-25T14:52:06.239Z</time></trkpt><trkpt lat="45.4902361" lon="7.7646959"><ele>654.0</ele><time>2026-04-25T14:52:07.219Z</time></trkpt><trkpt lat="45.4901824" lon="7.764769"><ele>653.6666666666666</ele><time>2026-04-25T14:52:08.221Z</time></trkpt><trkpt lat="45.4901097" lon="7.7648725"><ele>653.3333333333333</ele><time>2026-04-25T14:52:10.216Z</time></trkpt><trkpt lat="45.4900499" lon="7.7649786"><ele>653.0</ele><time>2026-04-25T14:52:12.224Z</time></trkpt><trkpt lat="45.4900349" lon="7.7651601"><ele>652.6666666666666</ele><time>2026-04-25T14:52:14.225Z</time></trkpt><trkpt lat="45.4900495" lon="7.7652608"><ele>652.3333333333333</ele><time>2026-04-25T14:52:15.215Z</time></trkpt><trkpt lat="45.4900291" lon="7.7653612"><ele>652.0</ele><time>2026-04-25T14:52:16.218Z</time></trkpt><trkpt lat="45.4899909" lon="7.7654881"><ele>651.6666666666666</ele><time>2026-04-25T14:52:17.228Z</time></trkpt><trkpt lat="45.4899332" lon="7.7655998"><ele>651.3333333333334</ele><time>2026-04-25T14:52:18.241Z</time></trkpt><trkpt lat="45.4898672" lon="7.7657186"><ele>651.0</ele><time>2026-04-25T14:52:19.225Z</time></trkpt><trkpt lat="45.4898001" lon="7.7658513"><ele>651.0</ele><time>2026-04-25T14:52:20.226Z</time></trkpt><trkpt lat="45.4897276" lon="7.7659787"><ele>651.0</ele><time>2026-04-25T14:52:21.231Z</time></trkpt><trkpt lat="45.4896267" lon="7.7661262"><ele>651.0</ele><time>2026-04-25T14:52:22.23Z</time></trkpt><trkpt lat="45.489563" lon="7.7662642"><ele>651.0</ele><time>2026-04-25T14:52:23.225Z</time></trkpt><trkpt lat="45.4894811" lon="7.7664166"><ele>650.0</ele><time>2026-04-25T14:52:24.228Z</time></trkpt><trkpt lat="45.4893992" lon="7.7665827"><ele>649.0</ele><time>2026-04-25T14:52:25.227Z</time></trkpt><trkpt lat="45.4893327" lon="7.7667297"><ele>648.0</ele><time>2026-04-25T14:52:26.226Z</time></trkpt><trkpt lat="45.489269" lon="7.7668972"><ele>647.0</ele><time>2026-04-25T14:52:27.242Z</time></trkpt><trkpt lat="45.4892214" lon="7.7670827"><ele>646.0</ele><time>2026-04-25T14:52:28.236Z</time></trkpt><trkpt lat="45.489183" lon="7.7672875"><ele>645.0</ele><time>2026-04-25T14:52:29.228Z</time></trkpt><trkpt lat="45.489133" lon="7.7674755"><ele>644.0</ele><time>2026-04-25T14:52:30.233Z</time></trkpt><trkpt lat="45.4890717" lon="7.7676351"><ele>643.0</ele><time>2026-04-25T14:52:31.225Z</time></trkpt><trkpt lat="45.4890065" lon="7.7677821"><ele>642.3333333333334</ele><time>2026-04-25T14:52:32.225Z</time></trkpt><trkpt lat="45.4889231" lon="7.7679412"><ele>641.6666666666666</ele><time>2026-04-25T14:52:33.226Z</time></trkpt><trkpt lat="45.4887973" lon="7.7680948"><ele>641.0</ele><time>2026-04-25T14:52:34.222Z</time></trkpt><trkpt lat="45.4886447" lon="7.768257"><ele>642.0</ele><time>2026-04-25T14:52:35.221Z</time></trkpt><trkpt lat="45.4884615" lon="7.7684042"><ele>643.0</ele><time>2026-04-25T14:52:36.237Z</time></trkpt><trkpt lat="45.4884172" lon="7.7686216"><ele>644.0</ele><time>2026-04-25T14:52:37.221Z</time></trkpt><trkpt lat="45.4883513" lon="7.7688448"><ele>644.0</ele><time>2026-04-25T14:52:38.23Z</time></trkpt><trkpt lat="45.4882144" lon="7.7690692"><ele>644.0</ele><time>2026-04-25T14:52:39.228Z</time></trkpt><trkpt lat="45.4881392" lon="7.7692927"><ele>644.0</ele><time>2026-04-25T14:52:40.219Z</time></trkpt><trkpt lat="45.4880644" lon="7.7695196"><ele>642.6666666666666</ele><time>2026-04-25T14:52:41.226Z</time></trkpt><trkpt lat="45.4879743" lon="7.7697451"><ele>641.3333333333334</ele><time>2026-04-25T14:52:42.228Z</time></trkpt><trkpt lat="45.4878798" lon="7.7699852"><ele>640.0</ele><time>2026-04-25T14:52:43.223Z</time></trkpt><trkpt lat="45.4877529" lon="7.7702"><ele>638.6666666666667</ele><time>2026-04-25T14:52:44.232Z</time></trkpt><trkpt lat="45.4876252" lon="7.7703938"><ele>637.3333333333334</ele><time>2026-04-25T14:52:45.226Z</time></trkpt><trkpt lat="45.4875112" lon="7.7705739"><ele>636.0</ele><time>2026-04-25T14:52:46.228Z</time></trkpt><trkpt lat="45.4873666" lon="7.7707717"><ele>636.0</ele><time>2026-04-25T14:52:47.228Z</time></trkpt><trkpt lat="45.4872364" lon="7.7710047"><ele>636.0</ele><time>2026-04-25T14:52:48.24Z</time></trkpt><trkpt lat="45.4870932" lon="7.7711637"><ele>636.0</ele><time>2026-04-25T14:52:49.231Z</time></trkpt><trkpt lat="45.4869319" lon="7.7713462"><ele>634.6666666666666</ele><time>2026-04-25T14:52:50.229Z</time></trkpt><trkpt lat="45.4868006" lon="7.7715285"><ele>633.3333333333333</ele><time>2026-04-25T14:52:51.227Z</time></trkpt><trkpt lat="45.4866423" lon="7.7716641"><ele>632.0</ele><time>2026-04-25T14:52:52.232Z</time></trkpt><trkpt lat="45.486491" lon="7.7717952"><ele>632.0</ele><time>2026-04-25T14:52:53.24Z</time></trkpt><trkpt lat="45.4863706" lon="7.7719362"><ele>632.0</ele><time>2026-04-25T14:52:54.23Z</time></trkpt><trkpt lat="45.4862521" lon="7.7721053"><ele>632.0</ele><time>2026-04-25T14:52:55.228Z</time></trkpt><trkpt lat="45.4862063" lon="7.7723306"><ele>631.0</ele><time>2026-04-25T14:52:56.219Z</time></trkpt><trkpt lat="45.4861778" lon="7.772575"><ele>630.0</ele><time>2026-04-25T14:52:57.236Z</time></trkpt><trkpt lat="45.4861071" lon="7.7728235"><ele>629.0</ele><time>2026-04-25T14:52:58.23Z</time></trkpt><trkpt lat="45.4860372" lon="7.7730222"><ele>628.6666666666666</ele><time>2026-04-25T14:52:59.239Z</time></trkpt><trkpt lat="45.4859099" lon="7.7731667"><ele>628.3333333333334</ele><time>2026-04-25T14:53:00.238Z</time></trkpt><trkpt lat="45.4857636" lon="7.7732574"><ele>628.0</ele><time>2026-04-25T14:53:01.234Z</time></trkpt><trkpt lat="45.4856324" lon="7.7733395"><ele>628.0</ele><time>2026-04-25T14:53:02.236Z</time></trkpt><trkpt lat="45.4854916" lon="7.7734384"><ele>628.0</ele><time>2026-04-25T14:53:03.235Z</time></trkpt><trkpt lat="45.4853324" lon="7.773516"><ele>628.0</ele><time>2026-04-25T14:53:04.231Z</time></trkpt><trkpt lat="45.4852069" lon="7.7736363"><ele>627.3333333333334</ele><time>2026-04-25T14:53:05.231Z</time></trkpt><trkpt lat="45.4850776" lon="7.773827"><ele>626.6666666666666</ele><time>2026-04-25T14:53:06.231Z</time></trkpt><trkpt lat="45.4849706" lon="7.7739837"><ele>626.0</ele><time>2026-04-25T14:53:07.22Z</time></trkpt><trkpt lat="45.4848039" lon="7.7740657"><ele>626.0</ele><time>2026-04-25T14:53:08.231Z</time></trkpt><trkpt lat="45.4846671" lon="7.7741947"><ele>626.0</ele><time>2026-04-25T14:53:09.221Z</time></trkpt><trkpt lat="45.4845052" lon="7.7742836"><ele>626.0</ele><time>2026-04-25T14:53:10.225Z</time></trkpt><trkpt lat="45.4843377" lon="7.7743501"><ele>625.6666666666666</ele><time>2026-04-25T14:53:11.22Z</time></trkpt><trkpt lat="45.4841807" lon="7.774379"><ele>625.3333333333334</ele><time>2026-04-25T14:53:12.218Z</time></trkpt><trkpt lat="45.4840536" lon="7.7743581"><ele>625.0</ele><time>2026-04-25T14:53:13.228Z</time></trkpt><trkpt lat="45.4838829" lon="7.7742883"><ele>636.0</ele><time>2026-04-25T14:53:14.214Z</time></trkpt><trkpt lat="45.4877529" lon="7.7702"><ele>636.0</ele><time>2026-04-25T14:52:44.232Z</time></trkpt><trkpt lat="45.4876252" lon="7.7703938"><ele>636.0</ele><time>2026-04-25T14:52:45.226Z</time></trkpt><trkpt lat="45.4875112" lon="7.7705739"><ele>636.0</ele><time>2026-04-25T14:52:46.228Z</time></trkpt><trkpt lat="45.4873666" lon="7.7707717"><ele>636.0</ele><time>2026-04-25T14:52:47.228Z</time></trkpt><trkpt lat="45.4872364" lon="7.7710047"><ele>636.0</ele><time>2026-04-25T14:52:48.24Z</time></trkpt><trkpt lat="45.4870932" lon="7.7711637"><ele>636.0</ele><time>2026-04-25T14:52:49.231Z</time></trkpt><trkpt lat="45.4869319" lon="7.7713462"><ele>634.6666666666666</ele><time>2026-04-25T14:52:50.229Z</time></trkpt><trkpt lat="45.4868006" lon="7.7715285"><ele>633.3333333333333</ele><time>2026-04-25T14:52:51.227Z</time></trkpt><trkpt lat="45.4866423" lon="7.7716641"><ele>632.0</ele><time>2026-04-25T14:52:52.232Z</time></trkpt><trkpt lat="45.486491" lon="7.7717952"><ele>632.0</ele><time>2026-04-25T14:52:53.24Z</time></trkpt><trkpt lat="45.4863706" lon="7.7719362"><ele>632.0</ele><time>2026-04-25T14:52:54.23Z</time></trkpt><trkpt lat="45.4862521" lon="7.7721053"><ele>632.0</ele><time>2026-04-25T14:52:55.228Z</time></trkpt><trkpt lat="45.4862063" lon="7.7723306"><ele>631.0</ele><time>2026-04-25T14:52:56.219Z</time></trkpt><trkpt lat="45.4861778" lon="7.772575"><ele>630.0</ele><time>2026-04-25T14:52:57.236Z</time></trkpt><trkpt lat="45.4861071" lon="7.7728235"><ele>629.0</ele><time>2026-04-25T14:52:58.23Z</time></trkpt><trkpt lat="45.4860372" lon="7.7730222"><ele>628.6666666666666</ele><time>2026-04-25T14:52:59.239Z</time></trkpt><trkpt lat="45.4859099" lon="7.7731667"><ele>628.3333333333334</ele><time>2026-04-25T14:53:00.238Z</time></trkpt><trkpt lat="45.4857636" lon="7.7732574"><ele>628.0</ele><time>2026-04-25T14:53:01.234Z</time></trkpt><trkpt lat="45.4856324" lon="7.7733395"><ele>628.0</ele><time>2026-04-25T14:53:02.236Z</time></trkpt><trkpt lat="45.4854916" lon="7.7734384"><ele>628.0</ele><time>2026-04-25T14:53:03.235Z</time></trkpt><trkpt lat="45.4853324" lon="7.773516"><ele>628.0</ele><time>2026-04-25T14:53:04.231Z</time></trkpt><trkpt lat="45.4852069" lon="7.7736363"><ele>627.3333333333334</ele><time>2026-04-25T14:53:05.231Z</time></trkpt><trkpt lat="45.4850776" lon="7.773827"><ele>626.6666666666666</ele><time>2026-04-25T14:53:06.231Z</time></trkpt><trkpt lat="45.4849706" lon="7.7739837"><ele>626.0</ele><time>2026-04-25T14:53:07.22Z</time></trkpt><trkpt lat="45.4848039" lon="7.7740657"><ele>626.0</ele><time>2026-04-25T14:53:08.231Z</time></trkpt><trkpt lat="45.4846671" lon="7.7741947"><ele>626.0</ele><time>2026-04-25T14:53:09.221Z</time></trkpt><trkpt lat="45.4845052" lon="7.7742836"><ele>626.0</ele><time>2026-04-25T14:53:10.225Z</time></trkpt><trkpt lat="45.4843377" lon="7.7743501"><ele>625.6666666666666</ele><time>2026-04-25T14:53:11.22Z</time></trkpt><trkpt lat="45.4841807" lon="7.774379"><ele>625.3333333333334</ele><time>2026-04-25T14:53:12.218Z</time></trkpt><trkpt lat="45.4840536" lon="7.7743581"><ele>625.0</ele><time>2026-04-25T14:53:13.228Z</time></trkpt><trkpt lat="45.4838829" lon="7.7742883"><ele>624.3333333333334</ele><time>2026-04-25T14:53:14.214Z</time></trkpt><trkpt lat="45.483727" lon="7.7742047"><ele>623.6666666666666</ele><time>2026-04-25T14:53:15.226Z</time></trkpt><trkpt lat="45.4835424" lon="7.7741487"><ele>623.0</ele><time>2026-04-25T14:53:16.218Z</time></trkpt><trkpt lat="45.4833579" lon="7.7740958"><ele>623.0</ele><time>2026-04-25T14:53:17.225Z</time></trkpt><trkpt lat="45.4831793" lon="7.7740454"><ele>623.0</ele><time>2026-04-25T14:53:18.229Z</time></trkpt><trkpt lat="45.4830217" lon="7.7741163"><ele>623.0</ele><time>2026-04-25T14:53:19.236Z</time></trkpt><trkpt lat="45.4828766" lon="7.7742233"><ele>621.6666666666666</ele><time>2026-04-25T14:53:20.228Z</time></trkpt><trkpt lat="45.4827378" lon="7.7744284"><ele>620.3333333333334</ele><time>2026-04-25T14:53:21.231Z</time></trkpt><trkpt lat="45.4825852" lon="7.7745973"><ele>619.0</ele><time>2026-04-25T14:53:22.224Z</time></trkpt><trkpt lat="45.482422" lon="7.77476"><ele>619.0</ele><time>2026-04-25T14:53:23.224Z</time></trkpt><trkpt lat="45.4822503" lon="7.7748792"><ele>619.0</ele><time>2026-04-25T14:53:24.22Z</time></trkpt><trkpt lat="45.4820318" lon="7.7749256"><ele>619.0</ele><time>2026-04-25T14:53:25.213Z</time></trkpt><trkpt lat="45.4818155" lon="7.7749761"><ele>618.6666666666667</ele><time>2026-04-25T14:53:26.227Z</time></trkpt><trkpt lat="45.4816525" lon="7.774998"><ele>618.3333333333334</ele><time>2026-04-25T14:53:27.233Z</time></trkpt><trkpt lat="45.4814895" lon="7.7750883"><ele>618.0</ele><time>2026-04-25T14:53:28.222Z</time></trkpt><trkpt lat="45.4813017" lon="7.7752088"><ele>618.0</ele><time>2026-04-25T14:53:29.225Z</time></trkpt><trkpt lat="45.481125" lon="7.775291"><ele>618.0</ele><time>2026-04-25T14:53:30.229Z</time></trkpt><trkpt lat="45.4809707" lon="7.7754707"><ele>618.0</ele><time>2026-04-25T14:53:31.225Z</time></trkpt><trkpt lat="45.4808296" lon="7.7756284"><ele>618.0</ele><time>2026-04-25T14:53:32.223Z</time></trkpt><trkpt lat="45.4807071" lon="7.7757068"><ele>618.0</ele><time>2026-04-25T14:53:33.228Z</time></trkpt><trkpt lat="45.4805547" lon="7.7758283"><ele>618.0</ele><time>2026-04-25T14:53:34.222Z</time></trkpt><trkpt lat="45.4803585" lon="7.7759711"><ele>617.6666666666666</ele><time>2026-04-25T14:53:35.223Z</time></trkpt><trkpt lat="45.4802013" lon="7.7762318"><ele>617.3333333333333</ele><time>2026-04-25T14:53:36.227Z</time></trkpt><trkpt lat="45.480082" lon="7.7764079"><ele>617.0</ele><time>2026-04-25T14:53:37.216Z</time></trkpt><trkpt lat="45.4799944" lon="7.7765229"><ele>617.0</ele><time>2026-04-25T14:53:38.222Z</time></trkpt><trkpt lat="45.4798633" lon="7.7765627"><ele>617.0</ele><time>2026-04-25T14:53:39.235Z</time></trkpt><trkpt lat="45.4797169" lon="7.7765259"><ele>617.0</ele><time>2026-04-25T14:53:40.224Z</time></trkpt><trkpt lat="45.4795887" lon="7.7764959"><ele>617.0</ele><time>2026-04-25T14:53:41.227Z</time></trkpt><trkpt lat="45.4794571" lon="7.7764506"><ele>619.6</ele><time>2026-04-25T14:53:42.227Z</time></trkpt><trkpt lat="45.47936" lon="7.7764473"><ele>622.2</ele><time>2026-04-25T14:53:43.225Z</time></trkpt><trkpt lat="45.4792486" lon="7.7764821"><ele>624.8</ele><time>2026-04-25T14:53:44.232Z</time></trkpt><trkpt lat="45.479161" lon="7.7765269"><ele>627.4</ele><time>2026-04-25T14:53:45.219Z</time></trkpt><trkpt lat="45.4790572" lon="7.7766134"><ele>630.0</ele><time>2026-04-25T14:53:46.227Z</time></trkpt><trkpt lat="45.4789427" lon="7.7767171"><ele>630.0</ele><time>2026-04-25T14:53:47.224Z</time></trkpt><trkpt lat="45.4788298" lon="7.7768114"><ele>630.0</ele><time>2026-04-25T14:53:48.222Z</time></trkpt><trkpt lat="45.478723" lon="7.7768981"><ele>630.0</ele><time>2026-04-25T14:53:49.235Z</time></trkpt><trkpt lat="45.4786131" lon="7.7770667"><ele>630.0</ele><time>2026-04-25T14:53:50.212Z</time></trkpt><trkpt lat="45.4784745" lon="7.7772955"><ele>628.5</ele><time>2026-04-25T14:53:51.211Z</time></trkpt><trkpt lat="45.4783079" lon="7.7775231"><ele>627.0</ele><time>2026-04-25T14:53:52.214Z</time></trkpt><trkpt lat="45.4781674" lon="7.77784"><ele>627.0</ele><time>2026-04-25T14:53:53.208Z</time></trkpt><trkpt lat="45.4780286" lon="7.7780565"><ele>627.0</ele><time>2026-04-25T14:53:54.212Z</time></trkpt><trkpt lat="45.4779328" lon="7.778246"><ele>627.0</ele><time>2026-04-25T14:53:55.214Z</time></trkpt><trkpt lat="45.4778441" lon="7.7784548"><ele>634.0</ele><time>2026-04-25T14:53:56.215Z</time></trkpt><trkpt lat="45.4777142" lon="7.7786222"><ele>641.0</ele><time>2026-04-25T14:53:57.212Z</time></trkpt><trkpt lat="45.4776197" lon="7.7787426"><ele>648.0</ele><time>2026-04-25T14:53:58.207Z</time></trkpt><trkpt lat="45.4776507" lon="7.7789772"><ele>648.0</ele><time>2026-04-25T14:53:59.222Z</time></trkpt><trkpt lat="45.4775543" lon="7.779165"><ele>648.0</ele><time>2026-04-25T14:54:00.222Z</time></trkpt><trkpt lat="45.4774786" lon="7.7793316"><ele>648.0</ele><time>2026-04-25T14:54:01.22Z</time></trkpt><trkpt lat="45.4774104" lon="7.7795356"><ele>642.5</ele><time>2026-04-25T14:54:02.207Z</time></trkpt><trkpt lat="45.4773089" lon="7.779639"><ele>637.0</ele><time>2026-04-25T14:54:03.215Z</time></trkpt><trkpt lat="45.4772566" lon="7.779804"><ele>631.5</ele><time>2026-04-25T14:54:04.211Z</time></trkpt><trkpt lat="45.4772415" lon="7.7800117"><ele>626.0</ele><time>2026-04-25T14:54:05.213Z</time></trkpt><trkpt lat="45.4771638" lon="7.7801506"><ele>625.0</ele><time>2026-04-25T14:54:06.211Z</time></trkpt><trkpt lat="45.4770021" lon="7.7802237"><ele>624.0</ele><time>2026-04-25T14:54:07.219Z</time></trkpt><trkpt lat="45.4769078" lon="7.7802534"><ele>623.0</ele><time>2026-04-25T14:54:08.216Z</time></trkpt><trkpt lat="45.476793" lon="7.780302"><ele>622.0</ele><time>2026-04-25T14:54:09.221Z</time></trkpt><trkpt lat="45.476677" lon="7.780336"><ele>622.0</ele><time>2026-04-25T14:54:10.217Z</time></trkpt><trkpt lat="45.4764871" lon="7.7802978"><ele>622.0</ele><time>2026-04-25T14:54:11.216Z</time></trkpt><trkpt lat="45.4763605" lon="7.7802715"><ele>622.0</ele><time>2026-04-25T14:54:12.211Z</time></trkpt><trkpt lat="45.4762805" lon="7.7803525"><ele>622.0</ele><time>2026-04-25T14:54:13.211Z</time></trkpt><trkpt lat="45.4761786" lon="7.7801963"><ele>622.2</ele><time>2026-04-25T14:54:15.216Z</time></trkpt><trkpt lat="45.4761476" lon="7.780098"><ele>622.4000000000001</ele><time>2026-04-25T14:54:16.218Z</time></trkpt><trkpt lat="45.4761164" lon="7.7799846"><ele>622.5999999999999</ele><time>2026-04-25T14:54:17.223Z</time></trkpt><trkpt lat="45.4760567" lon="7.7798689"><ele>622.8</ele><time>2026-04-25T14:54:18.223Z</time></trkpt><trkpt lat="45.4760254" lon="7.779736"><ele>623.0</ele><time>2026-04-25T14:54:19.22Z</time></trkpt><trkpt lat="45.4759806" lon="7.7795834"><ele>632.3333333333333</ele><time>2026-04-25T14:54:20.21Z</time></trkpt><trkpt lat="45.4759164" lon="7.7792962"><ele>641.6666666666666</ele><time>2026-04-25T14:54:21.221Z</time></trkpt><trkpt lat="45.4758677" lon="7.7790845"><ele>651.0</ele><time>2026-04-25T14:54:22.208Z</time></trkpt><trkpt lat="45.4758804" lon="7.7787772"><ele>651.0</ele><time>2026-04-25T14:54:23.218Z</time></trkpt><trkpt lat="45.4758568" lon="7.7785181"><ele>651.0</ele><time>2026-04-25T14:54:24.216Z</time></trkpt><trkpt lat="45.4758243" lon="7.7782043"><ele>651.0</ele><time>2026-04-25T14:54:25.22Z</time></trkpt><trkpt lat="45.4757592" lon="7.7779505"><ele>659.6666666666666</ele><time>2026-04-25T14:54:26.218Z</time></trkpt><trkpt lat="45.475672" lon="7.7777042"><ele>668.3333333333333</ele><time>2026-04-25T14:54:27.224Z</time></trkpt><trkpt lat="45.4755919" lon="7.7774589"><ele>677.0</ele><time>2026-04-25T14:54:28.223Z</time></trkpt><trkpt lat="45.475519" lon="7.7772095"><ele>680.5</ele><time>2026-04-25T14:54:29.216Z</time></trkpt><trkpt lat="45.4753319" lon="7.7769684"><ele>684.0</ele><time>2026-04-25T14:54:30.218Z</time></trkpt><trkpt lat="45.4752076" lon="7.776706"><ele>684.0</ele><time>2026-04-25T14:54:31.215Z</time></trkpt><trkpt lat="45.4750505" lon="7.7764963"><ele>684.0</ele><time>2026-04-25T14:54:32.222Z</time></trkpt><trkpt lat="45.4748117" lon="7.7764309"><ele>684.0</ele><time>2026-04-25T14:54:33.219Z</time></trkpt><trkpt lat="45.474676" lon="7.7763369"><ele>684.0</ele><time>2026-04-25T14:54:34.22Z</time></trkpt><trkpt lat="45.4745878" lon="7.7762077"><ele>684.0</ele><time>2026-04-25T14:54:35.219Z</time></trkpt><trkpt lat="45.474368" lon="7.7760266"><ele>679.0</ele><time>2026-04-25T14:54:36.218Z</time></trkpt><trkpt lat="45.4741912" lon="7.7759278"><ele>674.0</ele><time>2026-04-25T14:54:37.224Z</time></trkpt><trkpt lat="45.4740601" lon="7.7757707"><ele>669.0</ele><time>2026-04-25T14:54:38.209Z</time></trkpt><trkpt lat="45.4739399" lon="7.7756709"><ele>669.0</ele><time>2026-04-25T14:54:39.212Z</time></trkpt><trkpt lat="45.4738756" lon="7.7755074"><ele>669.0</ele><time>2026-04-25T14:54:40.223Z</time></trkpt><trkpt lat="45.4738162" lon="7.7753167"><ele>669.0</ele><time>2026-04-25T14:54:41.218Z</time></trkpt><trkpt lat="45.4737551" lon="7.7751282"><ele>669.0</ele><time>2026-04-25T14:54:42.213Z</time></trkpt><trkpt lat="45.4737807" lon="7.7749041"><ele>672.0</ele><time>2026-04-25T14:54:43.218Z</time></trkpt><trkpt lat="45.4738229" lon="7.7747598"><ele>675.0</ele><time>2026-04-25T14:54:44.212Z</time></trkpt><trkpt lat="45.4738221" lon="7.7745521"><ele>678.0</ele><time>2026-04-25T14:54:45.213Z</time></trkpt><trkpt lat="45.4738086" lon="7.7743471"><ele>681.0</ele><time>2026-04-25T14:54:46.22Z</time></trkpt><trkpt lat="45.4737747" lon="7.7740673"><ele>669.0</ele><time>2026-04-25T14:54:47.229Z</time></trkpt><trkpt lat="45.4737012" lon="7.7738413"><ele>657.0</ele><time>2026-04-25T14:54:48.225Z</time></trkpt><trkpt lat="45.4736992" lon="7.7735739"><ele>645.0</ele><time>2026-04-25T14:54:49.222Z</time></trkpt><trkpt lat="45.4736393" lon="7.7732087"><ele>645.0</ele><time>2026-04-25T14:54:50.227Z</time></trkpt><trkpt lat="45.4735898" lon="7.7728834"><ele>645.0</ele><time>2026-04-25T14:54:51.213Z</time></trkpt><trkpt lat="45.473492" lon="7.7725028"><ele>648.0</ele><time>2026-04-25T14:54:52.222Z</time></trkpt><trkpt lat="45.473488" lon="7.7722673"><ele>651.0</ele><time>2026-04-25T14:54:53.218Z</time></trkpt><trkpt lat="45.4735156" lon="7.7720295"><ele>654.0</ele><time>2026-04-25T14:54:54.223Z</time></trkpt><trkpt lat="45.4735091" lon="7.7717965"><ele>658.0</ele><time>2026-04-25T14:54:55.22Z</time></trkpt><trkpt lat="45.4735138" lon="7.7715324"><ele>662.0</ele><time>2026-04-25T14:54:56.22Z</time></trkpt><trkpt lat="45.473545" lon="7.7712574"><ele>666.0</ele><time>2026-04-25T14:54:57.225Z</time></trkpt><trkpt lat="45.4736164" lon="7.7709947"><ele>668.0</ele><time>2026-04-25T14:54:58.223Z</time></trkpt><trkpt lat="45.4736161" lon="7.7707555"><ele>670.0</ele><time>2026-04-25T14:54:59.222Z</time></trkpt><trkpt lat="45.47358" lon="7.7705166"><ele>672.0</ele><time>2026-04-25T14:55:00.219Z</time></trkpt><trkpt lat="45.4734807" lon="7.7702791"><ele>673.0</ele><time>2026-04-25T14:55:01.218Z</time></trkpt><trkpt lat="45.4733438" lon="7.7700706"><ele>674.0</ele><time>2026-04-25T14:55:02.218Z</time></trkpt><trkpt lat="45.4732832" lon="7.7698507"><ele>675.0</ele><time>2026-04-25T14:55:03.219Z</time></trkpt><trkpt lat="45.4732307" lon="7.7696"><ele>675.0</ele><time>2026-04-25T14:55:04.217Z</time></trkpt><trkpt lat="45.4731709" lon="7.7693664"><ele>675.0</ele><time>2026-04-25T14:55:05.217Z</time></trkpt><trkpt lat="45.4730783" lon="7.7691503"><ele>675.0</ele><time>2026-04-25T14:55:06.217Z</time></trkpt><trkpt lat="45.4729914" lon="7.7689644"><ele>675.0</ele><time>2026-04-25T14:55:07.223Z</time></trkpt><trkpt lat="45.4729401" lon="7.768751"><ele>675.0</ele><time>2026-04-25T14:55:08.214Z</time></trkpt><trkpt lat="45.4728704" lon="7.7685215"><ele>675.0</ele><time>2026-04-25T14:55:09.213Z</time></trkpt><trkpt lat="45.4728198" lon="7.768271"><ele>674.6666666666666</ele><time>2026-04-25T14:55:10.209Z</time></trkpt><trkpt lat="45.4727944" lon="7.7679519"><ele>674.3333333333333</ele><time>2026-04-25T14:55:11.214Z</time></trkpt><trkpt lat="45.4727903" lon="7.767695"><ele>674.0</ele><time>2026-04-25T14:55:12.214Z</time></trkpt><trkpt lat="45.4727661" lon="7.7674357"><ele>674.0</ele><time>2026-04-25T14:55:13.213Z</time></trkpt><trkpt lat="45.4727413" lon="7.7672103"><ele>674.0</ele><time>2026-04-25T14:55:14.22Z</time></trkpt><trkpt lat="45.4727303" lon="7.7670301"><ele>674.0</ele><time>2026-04-25T14:55:15.209Z</time></trkpt><trkpt lat="45.4727203" lon="7.7668439"><ele>674.0</ele><time>2026-04-25T14:55:16.211Z</time></trkpt><trkpt lat="45.4727141" lon="7.7666727"><ele>673.25</ele><time>2026-04-25T14:55:17.219Z</time></trkpt><trkpt lat="45.4726912" lon="7.7665115"><ele>672.5</ele><time>2026-04-25T14:55:18.217Z</time></trkpt><trkpt lat="45.4726728" lon="7.7663946"><ele>671.75</ele><time>2026-04-25T14:55:19.22Z</time></trkpt><trkpt lat="45.4725852" lon="7.7662808"><ele>671.0</ele><time>2026-04-25T14:55:20.221Z</time></trkpt><trkpt lat="45.4724951" lon="7.7660694"><ele>670.6666666666666</ele><time>2026-04-25T14:55:21.224Z</time></trkpt><trkpt lat="45.4723763" lon="7.7658656"><ele>670.3333333333334</ele><time>2026-04-25T14:55:22.217Z</time></trkpt><trkpt lat="45.4723014" lon="7.7656584"><ele>670.0</ele><time>2026-04-25T14:55:23.218Z</time></trkpt><trkpt lat="45.4722108" lon="7.7654636"><ele>670.0</ele><time>2026-04-25T14:55:24.22Z</time></trkpt><trkpt lat="45.4721639" lon="7.7652964"><ele>670.0</ele><time>2026-04-25T14:55:25.216Z</time></trkpt><trkpt lat="45.4721369" lon="7.7651151"><ele>670.0</ele><time>2026-04-25T14:55:26.229Z</time></trkpt><trkpt lat="45.47211" lon="7.7648515"><ele>670.0</ele><time>2026-04-25T14:55:27.231Z</time></trkpt><trkpt lat="45.4720993" lon="7.7646066"><ele>669.6666666666667</ele><time>2026-04-25T14:55:28.223Z</time></trkpt><trkpt lat="45.4720705" lon="7.7644213"><ele>669.3333333333334</ele><time>2026-04-25T14:55:29.228Z</time></trkpt><trkpt lat="45.472035" lon="7.76417"><ele>669.0</ele><time>2026-04-25T14:55:30.228Z</time></trkpt><trkpt lat="45.4719793" lon="7.7639534"><ele>669.0</ele><time>2026-04-25T14:55:31.247Z</time></trkpt><trkpt lat="45.4719025" lon="7.7637619"><ele>669.0</ele><time>2026-04-25T14:55:32.245Z</time></trkpt><trkpt lat="45.4718135" lon="7.7635724"><ele>669.0</ele><time>2026-04-25T14:55:33.251Z</time></trkpt><trkpt lat="45.4716996" lon="7.7634175"><ele>668.6666666666666</ele><time>2026-04-25T14:55:34.245Z</time></trkpt><trkpt lat="45.4715375" lon="7.7633084"><ele>668.3333333333333</ele><time>2026-04-25T14:55:35.246Z</time></trkpt><trkpt lat="45.4713438" lon="7.7632563"><ele>668.0</ele><time>2026-04-25T14:55:36.242Z</time></trkpt><trkpt lat="45.4711596" lon="7.7632094"><ele>664.0</ele><time>2026-04-25T14:55:37.247Z</time></trkpt><trkpt lat="45.4709518" lon="7.7631304"><ele>660.0</ele><time>2026-04-25T14:55:38.241Z</time></trkpt><trkpt lat="45.4707119" lon="7.7630413"><ele>660.0</ele><time>2026-04-25T14:55:39.249Z</time></trkpt><trkpt lat="45.4705139" lon="7.7629251"><ele>660.0</ele><time>2026-04-25T14:55:40.241Z</time></trkpt><trkpt lat="45.4703331" lon="7.7628197"><ele>660.0</ele><time>2026-04-25T14:55:41.245Z</time></trkpt><trkpt lat="45.4701546" lon="7.7626859"><ele>659.0</ele><time>2026-04-25T14:55:42.241Z</time></trkpt><trkpt lat="45.4699827" lon="7.7625511"><ele>658.0</ele><time>2026-04-25T14:55:43.239Z</time></trkpt><trkpt lat="45.4698202" lon="7.7623742"><ele>657.0</ele><time>2026-04-25T14:55:44.242Z</time></trkpt><trkpt lat="45.469632" lon="7.7622002"><ele>654.3333333333334</ele><time>2026-04-25T14:55:45.237Z</time></trkpt><trkpt lat="45.4694335" lon="7.7620171"><ele>651.6666666666667</ele><time>2026-04-25T14:55:46.24Z</time></trkpt><trkpt lat="45.4693498" lon="7.7618489"><ele>649.0</ele><time>2026-04-25T14:55:47.242Z</time></trkpt><trkpt lat="45.4691668" lon="7.7617413"><ele>649.0</ele><time>2026-04-25T14:55:48.25Z</time></trkpt><trkpt lat="45.4690104" lon="7.7616549"><ele>649.0</ele><time>2026-04-25T14:55:49.247Z</time></trkpt><trkpt lat="45.4688442" lon="7.7616161"><ele>649.0</ele><time>2026-04-25T14:55:50.245Z</time></trkpt><trkpt lat="45.4686953" lon="7.7615477"><ele>647.6666666666667</ele><time>2026-04-25T14:55:51.244Z</time></trkpt><trkpt lat="45.4685074" lon="7.7615224"><ele>646.3333333333334</ele><time>2026-04-25T14:55:52.247Z</time></trkpt><trkpt lat="45.4682986" lon="7.7615068"><ele>645.0</ele><time>2026-04-25T14:55:53.24Z</time></trkpt><trkpt lat="45.4680952" lon="7.7614681"><ele>643.0</ele><time>2026-04-25T14:55:54.237Z</time></trkpt><trkpt lat="45.4678892" lon="7.7614487"><ele>641.0</ele><time>2026-04-25T14:55:55.243Z</time></trkpt><trkpt lat="45.4676811" lon="7.7614429"><ele>639.0</ele><time>2026-04-25T14:55:56.242Z</time></trkpt><trkpt lat="45.4674705" lon="7.761397"><ele>639.0</ele><time>2026-04-25T14:55:57.243Z</time></trkpt><trkpt lat="45.4672853" lon="7.7613479"><ele>639.0</ele><time>2026-04-25T14:55:58.239Z</time></trkpt><trkpt lat="45.4670991" lon="7.7613265"><ele>639.0</ele><time>2026-04-25T14:55:59.249Z</time></trkpt><trkpt lat="45.4669395" lon="7.7612925"><ele>637.5</ele><time>2026-04-25T14:56:00.246Z</time></trkpt><trkpt lat="45.4667845" lon="7.7612846"><ele>636.0</ele><time>2026-04-25T14:56:01.246Z</time></trkpt><trkpt lat="45.4666403" lon="7.761293"><ele>634.5</ele><time>2026-04-25T14:56:02.242Z</time></trkpt><trkpt lat="45.4664987" lon="7.7612773"><ele>633.0</ele><time>2026-04-25T14:56:03.242Z</time></trkpt><trkpt lat="45.4663722" lon="7.761231"><ele>631.8</ele><time>2026-04-25T14:56:04.247Z</time></trkpt><trkpt lat="45.4662505" lon="7.7612304"><ele>630.5999999999999</ele><time>2026-04-25T14:56:05.244Z</time></trkpt><trkpt lat="45.4661194" lon="7.7612428"><ele>629.4000000000001</ele><time>2026-04-25T14:56:06.243Z</time></trkpt><trkpt lat="45.466018" lon="7.7612314"><ele>628.2</ele><time>2026-04-25T14:56:07.247Z</time></trkpt><trkpt lat="45.4659584" lon="7.7611812"><ele>627.0</ele><time>2026-04-25T14:56:08.249Z</time></trkpt><trkpt lat="45.4658903" lon="7.761149"><ele>627.0</ele><time>2026-04-25T14:56:09.247Z</time></trkpt><trkpt lat="45.4658254" lon="7.7611256"><ele>627.0</ele><time>2026-04-25T14:56:10.241Z</time></trkpt><trkpt lat="45.4657663" lon="7.7610632"><ele>627.0</ele><time>2026-04-25T14:56:19.224Z</time></trkpt><trkpt lat="45.4656958" lon="7.7610605"><ele>627.0</ele><time>2026-04-25T14:56:22.225Z</time></trkpt><trkpt lat="45.4656941" lon="7.7611521"><ele>627.0</ele><time>2026-04-25T14:56:23.236Z</time></trkpt><trkpt lat="45.4656827" lon="7.7610593"><ele>627.0</ele><time>2026-04-25T14:56:25.23Z</time></trkpt><trkpt lat="45.4656334" lon="7.7609701"><ele>627.0</ele><time>2026-04-25T14:56:26.225Z</time></trkpt><trkpt lat="45.4656051" lon="7.7608825"><ele>626.5</ele><time>2026-04-25T14:56:27.219Z</time></trkpt><trkpt lat="45.4656087" lon="7.7607314"><ele>626.0</ele><time>2026-04-25T14:56:28.231Z</time></trkpt><trkpt lat="45.465551" lon="7.7605954"><ele>625.5</ele><time>2026-04-25T14:56:29.224Z</time></trkpt><trkpt lat="45.4654773" lon="7.7605422"><ele>625.0</ele><time>2026-04-25T14:56:30.225Z</time></trkpt><trkpt lat="45.4653184" lon="7.7605753"><ele>625.0</ele><time>2026-04-25T14:56:32.228Z</time></trkpt><trkpt lat="45.4652399" lon="7.7605502"><ele>625.0</ele><time>2026-04-25T14:56:34.223Z</time></trkpt><trkpt lat="45.4652609" lon="7.7608799"><ele>625.0</ele><time>2026-04-25T14:56:38.21Z</time></trkpt><trkpt lat="45.4651679" lon="7.761207"><ele>622.5</ele><time>2026-04-25T14:56:39.231Z</time></trkpt><trkpt lat="45.4650192" lon="7.7615219"><ele>620.0</ele><time>2026-04-25T14:56:40.217Z</time></trkpt><trkpt lat="45.464894" lon="7.761771"><ele>618.6666666666666</ele><time>2026-04-25T14:56:41.235Z</time></trkpt><trkpt lat="45.4647936" lon="7.7620257"><ele>617.3333333333334</ele><time>2026-04-25T14:56:42.243Z</time></trkpt><trkpt lat="45.4646538" lon="7.7622721"><ele>616.0</ele><time>2026-04-25T14:56:43.244Z</time></trkpt><trkpt lat="45.4645001" lon="7.7625183"><ele>608.6666666666667</ele><time>2026-04-25T14:56:44.255Z</time></trkpt><trkpt lat="45.4644028" lon="7.762759"><ele>601.3333333333334</ele><time>2026-04-25T14:56:45.251Z</time></trkpt><trkpt lat="45.4643473" lon="7.7629707"><ele>594.0</ele><time>2026-04-25T14:56:46.249Z</time></trkpt><trkpt lat="45.4643482" lon="7.7631982"><ele>594.0</ele><time>2026-04-25T14:56:47.252Z</time></trkpt><trkpt lat="45.4643702" lon="7.7634163"><ele>594.0</ele><time>2026-04-25T14:56:48.241Z</time></trkpt><trkpt lat="45.4644122" lon="7.7635808"><ele>594.0</ele><time>2026-04-25T14:56:49.243Z</time></trkpt><trkpt lat="45.4644863" lon="7.7637043"><ele>594.0</ele><time>2026-04-25T14:56:50.228Z</time></trkpt><trkpt lat="45.4645743" lon="7.7638206"><ele>593.5</ele><time>2026-04-25T14:56:51.226Z</time></trkpt><trkpt lat="45.4646889" lon="7.7639196"><ele>593.0</ele><time>2026-04-25T14:56:52.233Z</time></trkpt><trkpt lat="45.4647657" lon="7.7640493"><ele>592.5</ele><time>2026-04-25T14:56:53.229Z</time></trkpt><trkpt lat="45.4648318" lon="7.7642452"><ele>592.0</ele><time>2026-04-25T14:56:54.242Z</time></trkpt><trkpt lat="45.4648922" lon="7.7644289"><ele>592.0</ele><time>2026-04-25T14:56:55.222Z</time></trkpt><trkpt lat="45.4648927" lon="7.7646056"><ele>592.0</ele><time>2026-04-25T14:56:56.223Z</time></trkpt><trkpt lat="45.4648868" lon="7.7647853"><ele>592.0</ele><time>2026-04-25T14:56:57.22Z</time></trkpt><trkpt lat="45.464885" lon="7.7648798"><ele>592.0</ele><time>2026-04-25T14:56:58.219Z</time></trkpt><trkpt lat="45.4648267" lon="7.7650336"><ele>592.0</ele><time>2026-04-25T14:56:59.228Z</time></trkpt><trkpt lat="45.4648156" lon="7.7651496"><ele>590.0</ele><time>2026-04-25T14:57:00.227Z</time></trkpt><trkpt lat="45.4646359" lon="7.765218"><ele>588.0</ele><time>2026-04-25T14:57:01.223Z</time></trkpt><trkpt lat="45.4645021" lon="7.7652704"><ele>586.0</ele><time>2026-04-25T14:57:02.218Z</time></trkpt><trkpt lat="45.4643811" lon="7.7653146"><ele>582.0</ele><time>2026-04-25T14:57:03.127Z</time></trkpt><trkpt lat="45.4642487" lon="7.7653532"><ele>578.0</ele><time>2026-04-25T14:57:04.031Z</time></trkpt><trkpt lat="45.4639404" lon="7.7654661"><ele>563.0</ele><time>2026-04-25T14:57:05.829Z</time></trkpt><trkpt lat="45.4634824" lon="7.7655858"><ele>563.0</ele><time>2026-04-25T14:57:07.621Z</time></trkpt><trkpt lat="45.4632495" lon="7.7656202"><ele>563.0</ele><time>2026-04-25T14:57:08.522Z</time></trkpt><trkpt lat="45.4630412" lon="7.7656608"><ele>563.0</ele><time>2026-04-25T14:57:09.431Z</time></trkpt><trkpt lat="45.4628425" lon="7.7657031"><ele>559.0</ele><time>2026-04-25T14:57:10.317Z</time></trkpt><trkpt lat="45.4625999" lon="7.7657255"><ele>555.0</ele><time>2026-04-25T14:57:11.22Z</time></trkpt><trkpt lat="45.4623742" lon="7.7657552"><ele>565.0</ele><time>2026-04-25T14:57:12.227Z</time></trkpt><trkpt lat="45.4621054" lon="7.7657368"><ele>575.0</ele><time>2026-04-25T14:57:13.223Z</time></trkpt><trkpt lat="45.4618972" lon="7.7657433"><ele>575.0</ele><time>2026-04-25T14:57:14.227Z</time></trkpt><trkpt lat="45.4616923" lon="7.765793"><ele>575.0</ele><time>2026-04-25T14:57:15.228Z</time></trkpt><trkpt lat="45.4614716" lon="7.7658517"><ele>575.0</ele><time>2026-04-25T14:57:16.211Z</time></trkpt><trkpt lat="45.4612731" lon="7.7659346"><ele>576.0</ele><time>2026-04-25T14:57:17.211Z</time></trkpt><trkpt lat="45.4610781" lon="7.7659781"><ele>577.0</ele><time>2026-04-25T14:57:18.215Z</time></trkpt><trkpt lat="45.4608867" lon="7.766098"><ele>578.0</ele><time>2026-04-25T14:57:19.218Z</time></trkpt><trkpt lat="45.4607015" lon="7.7661355"><ele>580.6666666666666</ele><time>2026-04-25T14:57:20.215Z</time></trkpt><trkpt lat="45.4605668" lon="7.7662215"><ele>583.3333333333334</ele><time>2026-04-25T14:57:21.219Z</time></trkpt><trkpt lat="45.4604188" lon="7.7663361"><ele>586.0</ele><time>2026-04-25T14:57:22.223Z</time></trkpt><trkpt lat="45.4602645" lon="7.7665421"><ele>586.0</ele><time>2026-04-25T14:57:23.23Z</time></trkpt><trkpt lat="45.4601278" lon="7.7666672"><ele>586.0</ele><time>2026-04-25T14:57:24.231Z</time></trkpt><trkpt lat="45.4599672" lon="7.7667685"><ele>586.0</ele><time>2026-04-25T14:57:25.228Z</time></trkpt><trkpt lat="45.4597762" lon="7.7669026"><ele>584.25</ele><time>2026-04-25T14:57:26.231Z</time></trkpt><trkpt lat="45.4596094" lon="7.7669715"><ele>582.5</ele><time>2026-04-25T14:57:27.225Z</time></trkpt><trkpt lat="45.4594414" lon="7.7670206"><ele>580.75</ele><time>2026-04-25T14:57:28.222Z</time></trkpt><trkpt lat="45.4593477" lon="7.7670752"><ele>579.0</ele><time>2026-04-25T14:57:29.233Z</time></trkpt><trkpt lat="45.4592644" lon="7.7671331"><ele>579.0</ele><time>2026-04-25T14:57:30.225Z</time></trkpt><trkpt lat="45.4591916" lon="7.7671641"><ele>579.0</ele><time>2026-04-25T14:57:31.228Z</time></trkpt><trkpt lat="45.4590538" lon="7.7671312"><ele>579.0</ele><time>2026-04-25T14:57:33.231Z</time></trkpt><trkpt lat="45.4589873" lon="7.7671826"><ele>579.0</ele><time>2026-04-25T14:57:34.227Z</time></trkpt><trkpt lat="45.4588225" lon="7.7670922"><ele>578.0</ele><time>2026-04-25T14:57:35.218Z</time></trkpt><trkpt lat="45.458686" lon="7.7670578"><ele>577.0</ele><time>2026-04-25T14:57:36.223Z</time></trkpt><trkpt lat="45.4584935" lon="7.7670339"><ele>576.0</ele><time>2026-04-25T14:57:37.229Z</time></trkpt><trkpt lat="45.4582766" lon="7.7670163"><ele>576.0</ele><time>2026-04-25T14:57:38.234Z</time></trkpt><trkpt lat="45.4580724" lon="7.7669478"><ele>576.0</ele><time>2026-04-25T14:57:39.233Z</time></trkpt><trkpt lat="45.4578753" lon="7.7668815"><ele>576.0</ele><time>2026-04-25T14:57:40.245Z</time></trkpt><trkpt lat="45.4576615" lon="7.7667984"><ele>574.3333333333334</ele><time>2026-04-25T14:57:41.236Z</time></trkpt><trkpt lat="45.4574726" lon="7.7667416"><ele>572.6666666666667</ele><time>2026-04-25T14:57:42.23Z</time></trkpt><trkpt lat="45.4572448" lon="7.7667129"><ele>571.0</ele><time>2026-04-25T14:57:43.224Z</time></trkpt><trkpt lat="45.4570375" lon="7.7666452"><ele>570.0</ele><time>2026-04-25T14:57:44.234Z</time></trkpt><trkpt lat="45.4568097" lon="7.7666041"><ele>569.0</ele><time>2026-04-25T14:57:45.235Z</time></trkpt><trkpt lat="45.4566374" lon="7.7665524"><ele>568.0</ele><time>2026-04-25T14:57:46.234Z</time></trkpt><trkpt lat="45.4564602" lon="7.7665179"><ele>568.0</ele><time>2026-04-25T14:57:47.247Z</time></trkpt><trkpt lat="45.4562871" lon="7.7665444"><ele>568.0</ele><time>2026-04-25T14:57:48.235Z</time></trkpt><trkpt lat="45.4560943" lon="7.7666139"><ele>568.0</ele><time>2026-04-25T14:57:49.226Z</time></trkpt><trkpt lat="45.4559167" lon="7.7666756"><ele>567.75</ele><time>2026-04-25T14:57:50.217Z</time></trkpt><trkpt lat="45.4557557" lon="7.7666829"><ele>567.5</ele><time>2026-04-25T14:57:51.225Z</time></trkpt><trkpt lat="45.4556568" lon="7.7666915"><ele>567.25</ele><time>2026-04-25T14:57:52.219Z</time></trkpt><trkpt lat="45.4555095" lon="7.7666102"><ele>567.0</ele><time>2026-04-25T14:57:53.224Z</time></trkpt><trkpt lat="45.455407" lon="7.7664857"><ele>567.0</ele><time>2026-04-25T14:57:54.226Z</time></trkpt><trkpt lat="45.4552133" lon="7.7664023"><ele>567.0</ele><time>2026-04-25T14:57:55.235Z</time></trkpt><trkpt lat="45.4550627" lon="7.7663579"><ele>567.0</ele><time>2026-04-25T14:57:56.224Z</time></trkpt><trkpt lat="45.4548857" lon="7.7663816"><ele>567.0</ele><time>2026-04-25T14:57:57.228Z</time></trkpt><trkpt lat="45.4547015" lon="7.7663785"><ele>567.0</ele><time>2026-04-25T14:57:58.228Z</time></trkpt><trkpt lat="45.4545175" lon="7.766417"><ele>567.0</ele><time>2026-04-25T14:57:59.221Z</time></trkpt><trkpt lat="45.4543661" lon="7.7664233"><ele>566.75</ele><time>2026-04-25T14:58:00.229Z</time></trkpt><trkpt lat="45.4542081" lon="7.7665152"><ele>566.5</ele><time>2026-04-25T14:58:01.219Z</time></trkpt><trkpt lat="45.4541137" lon="7.7665988"><ele>566.25</ele><time>2026-04-25T14:58:02.231Z</time></trkpt><trkpt lat="45.4539788" lon="7.7666716"><ele>566.0</ele><time>2026-04-25T14:58:03.236Z</time></trkpt><trkpt lat="45.4538353" lon="7.7667265"><ele>565.75</ele><time>2026-04-25T14:58:04.229Z</time></trkpt><trkpt lat="45.4537278" lon="7.766771"><ele>565.5</ele><time>2026-04-25T14:58:05.228Z</time></trkpt><trkpt lat="45.4536194" lon="7.766854"><ele>565.25</ele><time>2026-04-25T14:58:06.231Z</time></trkpt><trkpt lat="45.4535104" lon="7.7669344"><ele>565.0</ele><time>2026-04-25T14:58:07.229Z</time></trkpt><trkpt lat="45.4533816" lon="7.7670199"><ele>564.8</ele><time>2026-04-25T14:58:08.235Z</time></trkpt><trkpt lat="45.4532752" lon="7.7671053"><ele>564.6</ele><time>2026-04-25T14:58:09.236Z</time></trkpt><trkpt lat="45.4531759" lon="7.7671812"><ele>564.4</ele><time>2026-04-25T14:58:10.233Z</time></trkpt><trkpt lat="45.4530734" lon="7.7672501"><ele>564.2</ele><time>2026-04-25T14:58:11.234Z</time></trkpt><trkpt lat="45.4529839" lon="7.7673042"><ele>564.0</ele><time>2026-04-25T14:58:12.228Z</time></trkpt><trkpt lat="45.4528985" lon="7.7673288"><ele>564.8333333333334</ele><time>2026-04-25T14:58:13.226Z</time></trkpt><trkpt lat="45.4528209" lon="7.7673661"><ele>565.6666666666666</ele><time>2026-04-25T14:58:14.224Z</time></trkpt><trkpt lat="45.4527543" lon="7.7674003"><ele>566.5</ele><time>2026-04-25T14:58:15.231Z</time></trkpt><trkpt lat="45.4526766" lon="7.7674189"><ele>567.3333333333333</ele><time>2026-04-25T14:58:16.221Z</time></trkpt><trkpt lat="45.4526015" lon="7.7674163"><ele>568.1666666666666</ele><time>2026-04-25T14:58:17.226Z</time></trkpt><trkpt lat="45.4525349" lon="7.7674115"><ele>569.0</ele><time>2026-04-25T14:58:18.231Z</time></trkpt><trkpt lat="45.4524224" lon="7.7673621"><ele>569.0000000000001</ele><time>2026-04-25T14:58:20.223Z</time></trkpt><trkpt lat="45.4523672" lon="7.7673033"><ele>569.0</ele><time>2026-04-25T14:58:21.233Z</time></trkpt><trkpt lat="45.4523182" lon="7.7672399"><ele>569.0</ele><time>2026-04-25T14:58:22.226Z</time></trkpt><trkpt lat="45.4522716" lon="7.7671549"><ele>569.0</ele><time>2026-04-25T14:58:23.23Z</time></trkpt><trkpt lat="45.4522298" lon="7.7670534"><ele>569.0</ele><time>2026-04-25T14:58:24.227Z</time></trkpt><trkpt lat="45.4521801" lon="7.7669581"><ele>569.0000000000001</ele><time>2026-04-25T14:58:25.239Z</time></trkpt><trkpt lat="45.4521331" lon="7.7668799"><ele>569.0</ele><time>2026-04-25T14:58:26.25Z</time></trkpt><trkpt lat="45.4520426" lon="7.7667558"><ele>567.4</ele><time>2026-04-25T14:58:28.241Z</time></trkpt><trkpt lat="45.4519628" lon="7.7667259"><ele>565.8</ele><time>2026-04-25T14:58:29.228Z</time></trkpt><trkpt lat="45.4518831" lon="7.7666853"><ele>564.2</ele><time>2026-04-25T14:58:30.236Z</time></trkpt><trkpt lat="45.4518107" lon="7.7667239"><ele>562.6</ele><time>2026-04-25T14:58:31.229Z</time></trkpt><trkpt lat="45.4516953" lon="7.7669136"><ele>561.0</ele><time>2026-04-25T14:58:33.024Z</time></trkpt><trkpt lat="45.4516423" lon="7.7670098"><ele>561.0</ele><time>2026-04-25T14:58:33.928Z</time></trkpt><trkpt lat="45.4515356" lon="7.7672259"><ele>561.0</ele><time>2026-04-25T14:58:35.725Z</time></trkpt><trkpt lat="45.4515018" lon="7.7674591"><ele>561.0</ele><time>2026-04-25T14:58:37.536Z</time></trkpt><trkpt lat="45.4515301" lon="7.7677137"><ele>561.4</ele><time>2026-04-25T14:58:39.332Z</time></trkpt><trkpt lat="45.4515714" lon="7.7678596"><ele>561.8</ele><time>2026-04-25T14:58:40.329Z</time></trkpt><trkpt lat="45.4516068" lon="7.7679984"><ele>562.1999999999999</ele><time>2026-04-25T14:58:41.34Z</time></trkpt><trkpt lat="45.4516429" lon="7.7681326"><ele>562.6</ele><time>2026-04-25T14:58:42.331Z</time></trkpt><trkpt lat="45.4516694" lon="7.7682794"><ele>563.0</ele><time>2026-04-25T14:58:43.332Z</time></trkpt><trkpt lat="45.4516793" lon="7.768546"><ele>564.8</ele><time>2026-04-25T14:58:45.236Z</time></trkpt><trkpt lat="45.4516268" lon="7.7686638"><ele>566.5999999999999</ele><time>2026-04-25T14:58:46.239Z</time></trkpt><trkpt lat="45.4515387" lon="7.7687496"><ele>568.4000000000001</ele><time>2026-04-25T14:58:47.227Z</time></trkpt><trkpt lat="45.4514329" lon="7.768795"><ele>570.2</ele><time>2026-04-25T14:58:48.221Z</time></trkpt><trkpt lat="45.451301" lon="7.768809"><ele>572.0</ele><time>2026-04-25T14:58:49.219Z</time></trkpt><trkpt lat="45.4511961" lon="7.7688096"><ele>572.0</ele><time>2026-04-25T14:58:50.23Z</time></trkpt><trkpt lat="45.4511033" lon="7.7687636"><ele>572.0</ele><time>2026-04-25T14:58:51.231Z</time></trkpt><trkpt lat="45.4510181" lon="7.7686977"><ele>572.0</ele><time>2026-04-25T14:58:52.217Z</time></trkpt><trkpt lat="45.4509704" lon="7.7686146"><ele>572.0</ele><time>2026-04-25T14:58:53.214Z</time></trkpt><trkpt lat="45.4508979" lon="7.7684575"><ele>572.0</ele><time>2026-04-25T14:58:54.217Z</time></trkpt><trkpt lat="45.450801" lon="7.768255"><ele>567.0</ele><time>2026-04-25T14:58:55.216Z</time></trkpt><trkpt lat="45.4507068" lon="7.7679575"><ele>562.0</ele><time>2026-04-25T14:58:56.227Z</time></trkpt><trkpt lat="45.4505986" lon="7.7676137"><ele>560.3333333333334</ele><time>2026-04-25T14:58:57.226Z</time></trkpt><trkpt lat="45.4504348" lon="7.7673849"><ele>558.6666666666666</ele><time>2026-04-25T14:58:58.217Z</time></trkpt><trkpt lat="45.4503096" lon="7.767155"><ele>557.0</ele><time>2026-04-25T14:58:59.227Z</time></trkpt><trkpt lat="45.4502045" lon="7.7669525"><ele>555.0</ele><time>2026-04-25T14:59:00.218Z</time></trkpt><trkpt lat="45.4501057" lon="7.7667568"><ele>553.0</ele><time>2026-04-25T14:59:01.226Z</time></trkpt><trkpt lat="45.4500125" lon="7.7665516"><ele>551.0</ele><time>2026-04-25T14:59:02.222Z</time></trkpt><trkpt lat="45.4499492" lon="7.7663766"><ele>551.0</ele><time>2026-04-25T14:59:03.221Z</time></trkpt><trkpt lat="45.4498918" lon="7.7662013"><ele>551.0</ele><time>2026-04-25T14:59:04.225Z</time></trkpt><trkpt lat="45.4498018" lon="7.7660517"><ele>551.0</ele><time>2026-04-25T14:59:05.221Z</time></trkpt><trkpt lat="45.4497035" lon="7.7659129"><ele>551.0</ele><time>2026-04-25T14:59:06.217Z</time></trkpt><trkpt lat="45.4496004" lon="7.7657567"><ele>550.5</ele><time>2026-04-25T14:59:07.222Z</time></trkpt><trkpt lat="45.4494861" lon="7.7655823"><ele>550.0</ele><time>2026-04-25T14:59:08.218Z</time></trkpt><trkpt lat="45.4494397" lon="7.765422"><ele>549.5</ele><time>2026-04-25T14:59:09.22Z</time></trkpt><trkpt lat="45.4493562" lon="7.7652887"><ele>549.0</ele><time>2026-04-25T14:59:10.224Z</time></trkpt><trkpt lat="45.4492944" lon="7.7651692"><ele>547.6</ele><time>2026-04-25T14:59:11.221Z</time></trkpt><trkpt lat="45.4492555" lon="7.7650443"><ele>546.2</ele><time>2026-04-25T14:59:12.234Z</time></trkpt><trkpt lat="45.4492001" lon="7.7649226"><ele>544.8000000000001</ele><time>2026-04-25T14:59:13.221Z</time></trkpt><trkpt lat="45.4491513" lon="7.7648095"><ele>543.4</ele><time>2026-04-25T14:59:14.221Z</time></trkpt><trkpt lat="45.4491139" lon="7.7646919"><ele>542.0</ele><time>2026-04-25T14:59:15.222Z</time></trkpt><trkpt lat="45.4490638" lon="7.7645825"><ele>542.0</ele><time>2026-04-25T14:59:16.215Z</time></trkpt><trkpt lat="45.4490171" lon="7.7644646"><ele>542.0</ele><time>2026-04-25T14:59:17.225Z</time></trkpt><trkpt lat="45.4489714" lon="7.7643529"><ele>542.0</ele><time>2026-04-25T14:59:18.222Z</time></trkpt><trkpt lat="45.4489209" lon="7.7642424"><ele>542.0</ele><time>2026-04-25T14:59:19.224Z</time></trkpt><trkpt lat="45.4488799" lon="7.7641278"><ele>542.0</ele><time>2026-04-25T14:59:20.226Z</time></trkpt><trkpt lat="45.4488388" lon="7.7640248"><ele>540.5</ele><time>2026-04-25T14:59:21.228Z</time></trkpt><trkpt lat="45.4488017" lon="7.7639282"><ele>539.0</ele><time>2026-04-25T14:59:22.221Z</time></trkpt><trkpt lat="45.4487696" lon="7.7638379"><ele>537.5</ele><time>2026-04-25T14:59:23.216Z</time></trkpt><trkpt lat="45.4487369" lon="7.76374"><ele>536.0</ele><time>2026-04-25T14:59:24.218Z</time></trkpt><trkpt lat="45.448692" lon="7.7636352"><ele>534.5</ele><time>2026-04-25T14:59:25.215Z</time></trkpt><trkpt lat="45.4486512" lon="7.7635058"><ele>533.0</ele><time>2026-04-25T14:59:26.225Z</time></trkpt><trkpt lat="45.4485886" lon="7.7633417"><ele>531.75</ele><time>2026-04-25T14:59:27.224Z</time></trkpt><trkpt lat="45.4485214" lon="7.7631665"><ele>530.5</ele><time>2026-04-25T14:59:28.213Z</time></trkpt><trkpt lat="45.4484256" lon="7.7629902"><ele>529.25</ele><time>2026-04-25T14:59:29.221Z</time></trkpt><trkpt lat="45.4483222" lon="7.7628683"><ele>528.0</ele><time>2026-04-25T14:59:30.226Z</time></trkpt><trkpt lat="45.4482102" lon="7.7628366"><ele>528.0</ele><time>2026-04-25T14:59:31.227Z</time></trkpt><trkpt lat="45.4480679" lon="7.7628844"><ele>528.0</ele><time>2026-04-25T14:59:32.23Z</time></trkpt><trkpt lat="45.447966" lon="7.7629607"><ele>528.0</ele><time>2026-04-25T14:59:33.231Z</time></trkpt><trkpt lat="45.4479255" lon="7.7630611"><ele>528.0</ele><time>2026-04-25T14:59:34.23Z</time></trkpt><trkpt lat="45.4479348" lon="7.7631963"><ele>528.0</ele><time>2026-04-25T14:59:35.227Z</time></trkpt><trkpt lat="45.4479502" lon="7.7633735"><ele>525.25</ele><time>2026-04-25T14:59:36.236Z</time></trkpt><trkpt lat="45.4479568" lon="7.7635712"><ele>522.5</ele><time>2026-04-25T14:59:37.23Z</time></trkpt><trkpt lat="45.4479243" lon="7.7637536"><ele>519.75</ele><time>2026-04-25T14:59:38.221Z</time></trkpt><trkpt lat="45.4478781" lon="7.7639311"><ele>517.0</ele><time>2026-04-25T14:59:39.23Z</time></trkpt><trkpt lat="45.4478265" lon="7.764123"><ele>517.0</ele><time>2026-04-25T14:59:40.234Z</time></trkpt><trkpt lat="45.4477295" lon="7.764308"><ele>517.0</ele><time>2026-04-25T14:59:41.236Z</time></trkpt><trkpt lat="45.4476635" lon="7.7644679"><ele>517.0</ele><time>2026-04-25T14:59:42.236Z</time></trkpt><trkpt lat="45.4475865" lon="7.764634"><ele>517.0</ele><time>2026-04-25T14:59:43.229Z</time></trkpt><trkpt lat="45.4474798" lon="7.7647708"><ele>518.0</ele><time>2026-04-25T14:59:44.221Z</time></trkpt><trkpt lat="45.4473426" lon="7.7648702"><ele>519.0</ele><time>2026-04-25T14:59:45.218Z</time></trkpt><trkpt lat="45.4472149" lon="7.7650256"><ele>520.0</ele><time>2026-04-25T14:59:46.218Z</time></trkpt><trkpt lat="45.4470679" lon="7.7651303"><ele>519.0</ele><time>2026-04-25T14:59:47.223Z</time></trkpt><trkpt lat="45.4468907" lon="7.7652088"><ele>518.0</ele><time>2026-04-25T14:59:48.215Z</time></trkpt><trkpt lat="45.4467393" lon="7.7653161"><ele>517.0</ele><time>2026-04-25T14:59:49.22Z</time></trkpt><trkpt lat="45.4465863" lon="7.7653965"><ele>517.0</ele><time>2026-04-25T14:59:50.222Z</time></trkpt><trkpt lat="45.4463986" lon="7.7654584"><ele>517.0</ele><time>2026-04-25T14:59:51.221Z</time></trkpt><trkpt lat="45.4462592" lon="7.7655447"><ele>517.0</ele><time>2026-04-25T14:59:52.219Z</time></trkpt><trkpt lat="45.4461099" lon="7.7656666"><ele>510.33333333333337</ele><time>2026-04-25T14:59:53.223Z</time></trkpt><trkpt lat="45.4459639" lon="7.7657722"><ele>503.66666666666663</ele><time>2026-04-25T14:59:54.219Z</time></trkpt><trkpt lat="45.4457996" lon="7.7658883"><ele>497.0</ele><time>2026-04-25T14:59:55.225Z</time></trkpt><trkpt lat="45.4457043" lon="7.7660096"><ele>497.0</ele><time>2026-04-25T14:59:56.223Z</time></trkpt><trkpt lat="45.4455793" lon="7.7661198"><ele>497.0</ele><time>2026-04-25T14:59:57.21Z</time></trkpt><trkpt lat="45.4454466" lon="7.7662165"><ele>497.0</ele><time>2026-04-25T14:59:58.22Z</time></trkpt><trkpt lat="45.4453295" lon="7.7663043"><ele>497.0</ele><time>2026-04-25T14:59:59.216Z</time></trkpt><trkpt lat="45.4452105" lon="7.7663897"><ele>497.0</ele><time>2026-04-25T15:00:00.212Z</time></trkpt><trkpt lat="45.445066" lon="7.7664717"><ele>497.0</ele><time>2026-04-25T15:00:01.216Z</time></trkpt><trkpt lat="45.4449664" lon="7.7665447"><ele>497.0</ele><time>2026-04-25T15:00:02.177Z</time></trkpt><trkpt lat="45.4448594" lon="7.7666731"><ele>497.0</ele><time>2026-04-25T15:00:03.191Z</time></trkpt><trkpt lat="45.4447398" lon="7.7667433"><ele>497.0</ele><time>2026-04-25T15:00:04.201Z</time></trkpt><trkpt lat="45.4446709" lon="7.7668065"><ele>497.00000000000006</ele><time>2026-04-25T15:00:05.204Z</time></trkpt><trkpt lat="45.4445957" lon="7.766857"><ele>497.00000000000006</ele><time>2026-04-25T15:00:06.208Z</time></trkpt><trkpt lat="45.4445083" lon="7.7669273"><ele>497.0</ele><time>2026-04-25T15:00:07.203Z</time></trkpt><trkpt lat="45.4443857" lon="7.7669794"><ele>497.0</ele><time>2026-04-25T15:00:08.209Z</time></trkpt><trkpt lat="45.4442649" lon="7.7670859"><ele>496.40000000000003</ele><time>2026-04-25T15:00:09.208Z</time></trkpt><trkpt lat="45.4441664" lon="7.7671567"><ele>495.80000000000007</ele><time>2026-04-25T15:00:10.199Z</time></trkpt><trkpt lat="45.4440775" lon="7.7672359"><ele>495.2</ele><time>2026-04-25T15:00:11.201Z</time></trkpt><trkpt lat="45.4439909" lon="7.7673117"><ele>494.6</ele><time>2026-04-25T15:00:12.209Z</time></trkpt><trkpt lat="45.4439108" lon="7.7673989"><ele>494.0</ele><time>2026-04-25T15:00:13.211Z</time></trkpt><trkpt lat="45.4438384" lon="7.7675028"><ele>492.79999999999995</ele><time>2026-04-25T15:00:14.198Z</time></trkpt><trkpt lat="45.4437601" lon="7.767606"><ele>491.59999999999997</ele><time>2026-04-25T15:00:15.21Z</time></trkpt><trkpt lat="45.4436842" lon="7.7677051"><ele>490.4</ele><time>2026-04-25T15:00:16.208Z</time></trkpt><trkpt lat="45.4435986" lon="7.7677832"><ele>489.2</ele><time>2026-04-25T15:00:17.2Z</time></trkpt><trkpt lat="45.4435059" lon="7.7678312"><ele>488.0</ele><time>2026-04-25T15:00:18.204Z</time></trkpt><trkpt lat="45.4434251" lon="7.7678978"><ele>488.0</ele><time>2026-04-25T15:00:19.201Z</time></trkpt><trkpt lat="45.4433204" lon="7.7679682"><ele>488.0</ele><time>2026-04-25T15:00:20.203Z</time></trkpt><trkpt lat="45.4431957" lon="7.7680494"><ele>488.0</ele><time>2026-04-25T15:00:21.202Z</time></trkpt><trkpt lat="45.4431084" lon="7.7681143"><ele>488.0</ele><time>2026-04-25T15:00:22.195Z</time></trkpt><trkpt lat="45.4430186" lon="7.7681733"><ele>486.79999999999995</ele><time>2026-04-25T15:00:23.2Z</time></trkpt><trkpt lat="45.4429319" lon="7.7682492"><ele>485.59999999999997</ele><time>2026-04-25T15:00:24.201Z</time></trkpt><trkpt lat="45.4428709" lon="7.7683112"><ele>484.40000000000003</ele><time>2026-04-25T15:00:25.198Z</time></trkpt><trkpt lat="45.4427639" lon="7.7682613"><ele>483.20000000000005</ele><time>2026-04-25T15:00:27.202Z</time></trkpt><trkpt lat="45.4427084" lon="7.7681526"><ele>482.0</ele><time>2026-04-25T15:00:28.202Z</time></trkpt><trkpt lat="45.4426329" lon="7.7680391"><ele>482.0</ele><time>2026-04-25T15:00:29.203Z</time></trkpt><trkpt lat="45.4425451" lon="7.76794"><ele>482.00000000000006</ele><time>2026-04-25T15:00:30.209Z</time></trkpt><trkpt lat="45.4424533" lon="7.7678406"><ele>482.00000000000006</ele><time>2026-04-25T15:00:31.208Z</time></trkpt><trkpt lat="45.4423614" lon="7.7677452"><ele>482.0</ele><time>2026-04-25T15:00:32.212Z</time></trkpt><trkpt lat="45.4422884" lon="7.7676562"><ele>482.0</ele><time>2026-04-25T15:00:33.202Z</time></trkpt><trkpt lat="45.4422135" lon="7.7675731"><ele>481.49999999999994</ele><time>2026-04-25T15:00:34.21Z</time></trkpt><trkpt lat="45.4421521" lon="7.7674797"><ele>481.0</ele><time>2026-04-25T15:00:35.207Z</time></trkpt><trkpt lat="45.4420954" lon="7.7673999"><ele>480.5</ele><time>2026-04-25T15:00:36.197Z</time></trkpt><trkpt lat="45.442051" lon="7.7673151"><ele>480.0</ele><time>2026-04-25T15:00:37.2Z</time></trkpt><trkpt lat="45.4419956" lon="7.7672424"><ele>479.49999999999994</ele><time>2026-04-25T15:00:38.206Z</time></trkpt><trkpt lat="45.4419375" lon="7.7671587"><ele>479.0</ele><time>2026-04-25T15:00:39.205Z</time></trkpt><trkpt lat="45.4418899" lon="7.7670734"><ele>478.79999999999995</ele><time>2026-04-25T15:00:40.199Z</time></trkpt><trkpt lat="45.4418361" lon="7.7669719"><ele>478.59999999999997</ele><time>2026-04-25T15:00:41.2Z</time></trkpt><trkpt lat="45.441769" lon="7.7668636"><ele>478.4</ele><time>2026-04-25T15:00:42.2Z</time></trkpt><trkpt lat="45.4417027" lon="7.7667403"><ele>478.2</ele><time>2026-04-25T15:00:43.203Z</time></trkpt><trkpt lat="45.441644" lon="7.7666207"><ele>478.0</ele><time>2026-04-25T15:00:44.207Z</time></trkpt><trkpt lat="45.4415688" lon="7.7665471"><ele>478.00000000000006</ele><time>2026-04-25T15:00:46.203Z</time></trkpt><trkpt lat="45.4415946" lon="7.7666955"><ele>478.0</ele><time>2026-04-25T15:00:50.2Z</time></trkpt><trkpt lat="45.4416511" lon="7.7667464"><ele>478.0</ele><time>2026-04-25T15:00:51.198Z</time></trkpt><trkpt lat="45.4417188" lon="7.7668011"><ele>478.0</ele><time>2026-04-25T15:00:52.2Z</time></trkpt><trkpt lat="45.4417935" lon="7.7668734"><ele>478.00000000000006</ele><time>2026-04-25T15:00:53.198Z</time></trkpt><trkpt lat="45.4418661" lon="7.7669433"><ele>478.0</ele><time>2026-04-25T15:00:54.192Z</time></trkpt><trkpt lat="45.4419512" lon="7.7670347"><ele>478.0</ele><time>2026-04-25T15:00:55.199Z</time></trkpt><trkpt lat="45.4420355" lon="7.7671373"><ele>477.99999999999994</ele><time>2026-04-25T15:00:56.197Z</time></trkpt><trkpt lat="45.4421044" lon="7.7672205"><ele>477.99999999999994</ele><time>2026-04-25T15:00:57.201Z</time></trkpt><trkpt lat="45.4421634" lon="7.7673211"><ele>478.0</ele><time>2026-04-25T15:00:58.197Z</time></trkpt><trkpt lat="45.4422337" lon="7.7673747"><ele>478.0</ele><time>2026-04-25T15:01:00.194Z</time></trkpt><trkpt lat="45.4423101" lon="7.7674206"><ele>478.1428571428572</ele><time>2026-04-25T15:01:05.167Z</time></trkpt><trkpt lat="45.4423667" lon="7.7674661"><ele>478.28571428571433</ele><time>2026-04-25T15:01:07.147Z</time></trkpt><trkpt lat="45.442396" lon="7.7673527"><ele>478.42857142857144</ele><time>2026-04-25T15:01:15.179Z</time></trkpt><trkpt lat="45.4423246" lon="7.7673898"><ele>478.5714285714286</ele><time>2026-04-25T15:01:33.199Z</time></trkpt><trkpt lat="45.4423698" lon="7.7674727"><ele>478.7142857142858</ele><time>2026-04-25T15:03:34.208Z</time></trkpt><trkpt lat="45.4424372" lon="7.7675261"><ele>478.85714285714283</ele><time>2026-04-25T15:03:40.201Z</time></trkpt><trkpt lat="45.4424917" lon="7.7675789"><ele>479.0</ele><time>2026-04-25T15:03:43.18Z</time></trkpt><trkpt lat="45.4425836" lon="7.7676654"><ele>479.49999999999994</ele><time>2026-04-25T15:04:44.204Z</time></trkpt><trkpt lat="45.4426377" lon="7.7677139"><ele>480.0</ele><time>2026-04-25T15:08:48.218Z</time></trkpt><trkpt lat="45.4426987" lon="7.7677754"><ele>480.5</ele><time>2026-04-25T15:12:11.218Z</time></trkpt><trkpt lat="45.4427608" lon="7.7678304"><ele>481.0</ele><time>2026-04-25T15:18:02.188Z</time></trkpt><trkpt lat="45.4428181" lon="7.7678754"><ele>481.49999999999994</ele><time>2026-04-25T15:18:12.171Z</time></trkpt><trkpt lat="45.4428174" lon="7.7680055"><ele>482.0</ele><time>2026-04-25T15:18:14.182Z</time></trkpt><trkpt lat="45.4428532" lon="7.7681263"><ele>482.0</ele><time>2026-04-25T15:18:17.184Z</time></trkpt><trkpt lat="45.4428873" lon="7.7682022"><ele>482.00000000000006</ele><time>2026-04-25T15:18:30.177Z</time></trkpt><trkpt lat="45.4428867" lon="7.7683019"><ele>482.0</ele><time>2026-04-25T15:18:35.183Z</time></trkpt><trkpt lat="45.4428851" lon="7.7683983"><ele>482.0</ele><time>2026-04-25T15:19:22.19Z</time></trkpt><trkpt lat="45.4428793" lon="7.7684964"><ele>482.00000000000006</ele><time>2026-04-25T15:20:56.182Z</time></trkpt><trkpt lat="45.4428974" lon="7.7685964"><ele>482.0</ele><time>2026-04-25T15:22:25.19Z</time></trkpt><trkpt lat="45.4429102" lon="7.7686952"><ele>482.0</ele><time>2026-04-25T15:23:32.186Z</time></trkpt><trkpt lat="45.442926" lon="7.7687828"><ele>482.28571428571433</ele><time>2026-04-25T15:24:15.185Z</time></trkpt><trkpt lat="45.4429565" lon="7.768873"><ele>482.5714285714286</ele><time>2026-04-25T15:24:49.179Z</time></trkpt><trkpt lat="45.4429803" lon="7.7689627"><ele>482.8571428571429</ele><time>2026-04-25T15:25:32.194Z</time></trkpt><trkpt lat="45.4429641" lon="7.7688271"><ele>483.1428571428571</ele><time>2026-04-25T15:25:41.175Z</time></trkpt><trkpt lat="45.44294" lon="7.7687385"><ele>483.4285714285714</ele><time>2026-04-25T15:25:42.194Z</time></trkpt><trkpt lat="45.4429804" lon="7.7688184"><ele>483.71428571428567</ele><time>2026-04-25T15:28:58.2Z</time></trkpt><trkpt lat="45.4430094" lon="7.7689054"><ele>484.0</ele><time>2026-04-25T15:30:03.206Z</time></trkpt><trkpt lat="45.4430369" lon="7.7689949"><ele>484.85714285714283</ele><time>2026-04-25T15:31:46.197Z</time></trkpt><trkpt lat="45.4430718" lon="7.7690748"><ele>485.71428571428567</ele><time>2026-04-25T15:32:17.216Z</time></trkpt><trkpt lat="45.443103" lon="7.7691562"><ele>486.57142857142856</ele><time>2026-04-25T15:33:22.212Z</time></trkpt><trkpt lat="45.4431447" lon="7.7692518"><ele>487.42857142857144</ele><time>2026-04-25T15:33:55.2Z</time></trkpt><trkpt lat="45.4431804" lon="7.7693336"><ele>488.2857142857143</ele><time>2026-04-25T15:34:18.198Z</time></trkpt><trkpt lat="45.4432145" lon="7.7694117"><ele>489.1428571428571</ele><time>2026-04-25T15:35:02.193Z</time></trkpt><trkpt lat="45.4432463" lon="7.7694915"><ele>490.0</ele><time>2026-04-25T15:35:24.191Z</time></trkpt><trkpt lat="45.44323" lon="7.7695988"><ele>493.6</ele><time>2026-04-25T15:35:55.199Z</time></trkpt><trkpt lat="45.4432564" lon="7.7696882"><ele>497.2</ele><time>2026-04-25T15:36:01.202Z</time></trkpt><trkpt lat="45.4432842" lon="7.7697754"><ele>500.79999999999995</ele><time>2026-04-25T15:40:13.213Z</time></trkpt><trkpt lat="45.4433217" lon="7.7698585"><ele>504.4</ele><time>2026-04-25T15:41:10.191Z</time></trkpt><trkpt lat="45.4431886" lon="7.7696977"><ele>508.0</ele><time>2026-04-25T15:43:22.203Z</time></trkpt><trkpt lat="45.4431476" lon="7.7696048"><ele>508.00000000000006</ele><time>2026-04-25T15:43:35.192Z</time></trkpt><trkpt lat="45.4431035" lon="7.7695179"><ele>508.0</ele><time>2026-04-25T15:43:39.201Z</time></trkpt><trkpt lat="45.4431493" lon="7.7694552"><ele>508.0</ele><time>2026-04-25T15:45:56.193Z</time></trkpt><trkpt lat="45.4431017" lon="7.7693429"><ele>508.0</ele><time>2026-04-25T15:46:19.203Z</time></trkpt><trkpt lat="45.4430558" lon="7.7692293"><ele>508.00000000000006</ele><time>2026-04-25T15:46:23.202Z</time></trkpt><trkpt lat="45.4430124" lon="7.7691517"><ele>508.0</ele><time>2026-04-25T15:46:52.201Z</time></trkpt><trkpt lat="45.4429603" lon="7.7690333"><ele>504.00000000000006</ele><time>2026-04-25T15:46:57.204Z</time></trkpt><trkpt lat="45.4429146" lon="7.7689609"><ele>500.0</ele><time>2026-04-25T15:47:09.197Z</time></trkpt><trkpt lat="45.4428633" lon="7.768903"><ele>496.0</ele><time>2026-04-25T15:47:12.208Z</time></trkpt><trkpt lat="45.4427982" lon="7.7688294"><ele>492.0</ele><time>2026-04-25T15:47:17.191Z</time></trkpt><trkpt lat="45.4427217" lon="7.7687609"><ele>488.00000000000006</ele><time>2026-04-25T15:47:20.202Z</time></trkpt><trkpt lat="45.4426366" lon="7.7687565"><ele>484.0</ele><time>2026-04-25T15:47:25.196Z</time></trkpt><trkpt lat="45.4425699" lon="7.768737"><ele>484.0</ele><time>2026-04-25T15:47:31.189Z</time></trkpt><trkpt lat="45.4425023" lon="7.7686725"><ele>484.0</ele><time>2026-04-25T15:47:35.188Z</time></trkpt><trkpt lat="45.4424614" lon="7.7685785"><ele>484.0</ele><time>2026-04-25T15:47:42.209Z</time></trkpt><trkpt lat="45.4424197" lon="7.768484"><ele>482.0</ele><time>2026-04-25T15:48:05.217Z</time></trkpt><trkpt lat="45.4423773" lon="7.768407"><ele>482.0</ele><time>2026-04-25T15:48:11.217Z</time></trkpt></trkseg><trkseg><trkpt lat="45.4418713" lon="7.764244"><ele>463.0</ele><time>2026-04-25T15:49:05.618Z</time></trkpt><trkpt lat="45.4419802" lon="7.7639332"><ele>463.0</ele><time>2026-04-25T15:49:07.621Z</time></trkpt><trkpt lat="45.4420713" lon="7.7635998"><ele>464.5</ele><time>2026-04-25T15:49:09.609Z</time></trkpt><trkpt lat="45.442188" lon="7.7632199"><ele>466.0</ele><time>2026-04-25T15:49:11.618Z</time></trkpt><trkpt lat="45.4422886" lon="7.7628979"><ele>465.6666666666667</ele><time>2026-04-25T15:49:13.604Z</time></trkpt><trkpt lat="45.4423321" lon="7.7626461"><ele>465.33333333333337</ele><time>2026-04-25T15:49:15.511Z</time></trkpt><trkpt lat="45.4422596" lon="7.7624114"><ele>465.0</ele><time>2026-04-25T15:49:17.314Z</time></trkpt><trkpt lat="45.4421055" lon="7.7620696"><ele>464.0</ele><time>2026-04-25T15:49:19.222Z</time></trkpt><trkpt lat="45.4419049" lon="7.7616659"><ele>463.0</ele><time>2026-04-25T15:49:21.226Z</time></trkpt><trkpt lat="45.4416987" lon="7.7611694"><ele>460.5</ele><time>2026-04-25T15:49:23.243Z</time></trkpt><trkpt lat="45.4415045" lon="7.7607288"><ele>458.0</ele><time>2026-04-25T15:49:25.227Z</time></trkpt><trkpt lat="45.4413375" lon="7.7603755"><ele>460.66666666666663</ele><time>2026-04-25T15:49:27.25Z</time></trkpt><trkpt lat="45.4412146" lon="7.7600759"><ele>463.33333333333337</ele><time>2026-04-25T15:49:29.242Z</time></trkpt><trkpt lat="45.4411354" lon="7.7599064"><ele>466.0</ele><time>2026-04-25T15:49:31.237Z</time></trkpt><trkpt lat="45.441076" lon="7.7598443"><ele>466.0</ele><time>2026-04-25T15:49:33.24Z</time></trkpt><trkpt lat="45.4409362" lon="7.7599288"><ele>466.0</ele><time>2026-04-25T15:49:35.229Z</time></trkpt><trkpt lat="45.4407103" lon="7.7601411"><ele>466.0</ele><time>2026-04-25T15:49:37.228Z</time></trkpt><trkpt lat="45.4404511" lon="7.7603985"><ele>463.5</ele><time>2026-04-25T15:49:39.22Z</time></trkpt><trkpt lat="45.4401869" lon="7.7606413"><ele>461.0</ele><time>2026-04-25T15:49:41.225Z</time></trkpt><trkpt lat="45.4398317" lon="7.7607793"><ele>465.0</ele><time>2026-04-25T15:49:43.218Z</time></trkpt><trkpt lat="45.4396061" lon="7.7610203"><ele>469.0</ele><time>2026-04-25T15:49:45.222Z</time></trkpt><trkpt lat="45.4394439" lon="7.7613401"><ele>469.0</ele><time>2026-04-25T15:49:47.22Z</time></trkpt><trkpt lat="45.4391892" lon="7.7615304"><ele>469.0</ele><time>2026-04-25T15:49:49.214Z</time></trkpt><trkpt lat="45.4388907" lon="7.7617516"><ele>461.0</ele><time>2026-04-25T15:49:51.217Z</time></trkpt><trkpt lat="45.4386296" lon="7.7619794"><ele>453.0</ele><time>2026-04-25T15:49:53.228Z</time></trkpt><trkpt lat="45.4383571" lon="7.7621088"><ele>453.0</ele><time>2026-04-25T15:49:55.207Z</time></trkpt><trkpt lat="45.4380234" lon="7.7620936"><ele>453.0</ele><time>2026-04-25T15:49:57.214Z</time></trkpt><trkpt lat="45.4377209" lon="7.7621839"><ele>455.5</ele><time>2026-04-25T15:49:59.219Z</time></trkpt><trkpt lat="45.4374777" lon="7.7623038"><ele>458.0</ele><time>2026-04-25T15:50:01.217Z</time></trkpt><trkpt lat="45.4371408" lon="7.7622611"><ele>456.5</ele><time>2026-04-25T15:50:03.211Z</time></trkpt><trkpt lat="45.4367251" lon="7.7621513"><ele>455.0</ele><time>2026-04-25T15:50:05.223Z</time></trkpt><trkpt lat="45.4362563" lon="7.762014"><ele>455.5</ele><time>2026-04-25T15:50:07.221Z</time></trkpt><trkpt lat="45.4358214" lon="7.761912"><ele>456.0</ele><time>2026-04-25T15:50:09.219Z</time></trkpt><trkpt lat="45.4354391" lon="7.7617115"><ele>456.0</ele><time>2026-04-25T15:50:11.234Z</time></trkpt><trkpt lat="45.4350897" lon="7.7613121"><ele>456.0</ele><time>2026-04-25T15:50:13.224Z</time></trkpt><trkpt lat="45.4347323" lon="7.760892"><ele>456.5</ele><time>2026-04-25T15:50:15.226Z</time></trkpt><trkpt lat="45.4344166" lon="7.7605528"><ele>457.0</ele><time>2026-04-25T15:50:17.226Z</time></trkpt><trkpt lat="45.434104" lon="7.7602432"><ele>463.0</ele><time>2026-04-25T15:50:19.229Z</time></trkpt><trkpt lat="45.43378" lon="7.7600761"><ele>469.0</ele><time>2026-04-25T15:50:21.23Z</time></trkpt><trkpt lat="45.4334211" lon="7.7599626"><ele>469.0</ele><time>2026-04-25T15:50:23.258Z</time></trkpt><trkpt lat="45.4330301" lon="7.7599149"><ele>469.0</ele><time>2026-04-25T15:50:25.234Z</time></trkpt><trkpt lat="45.4326602" lon="7.7598376"><ele>469.0</ele><time>2026-04-25T15:50:27.234Z</time></trkpt><trkpt lat="45.432364" lon="7.7597981"><ele>469.0</ele><time>2026-04-25T15:50:29.238Z</time></trkpt><trkpt lat="45.432087" lon="7.7597158"><ele>467.5</ele><time>2026-04-25T15:50:31.235Z</time></trkpt><trkpt lat="45.4317489" lon="7.7596274"><ele>466.0</ele><time>2026-04-25T15:50:33.235Z</time></trkpt><trkpt lat="45.4314606" lon="7.7594435"><ele>468.0</ele><time>2026-04-25T15:50:35.235Z</time></trkpt><trkpt lat="45.431188" lon="7.7592251"><ele>470.0</ele><time>2026-04-25T15:50:37.234Z</time></trkpt><trkpt lat="45.4309126" lon="7.7589994"><ele>470.0</ele><time>2026-04-25T15:50:39.234Z</time></trkpt><trkpt lat="45.4307167" lon="7.7588061"><ele>470.0</ele><time>2026-04-25T15:50:41.243Z</time></trkpt><trkpt lat="45.4306078" lon="7.7586715"><ele>470.0</ele><time>2026-04-25T15:50:43.238Z</time></trkpt><trkpt lat="45.4304979" lon="7.7584193"><ele>470.3333333333333</ele><time>2026-04-25T15:50:51.242Z</time></trkpt><trkpt lat="45.4303765" lon="7.7581807"><ele>470.66666666666663</ele><time>2026-04-25T15:50:53.266Z</time></trkpt><trkpt lat="45.4302516" lon="7.7579331"><ele>471.0</ele><time>2026-04-25T15:50:55.253Z</time></trkpt><trkpt lat="45.4301393" lon="7.757686"><ele>471.0</ele><time>2026-04-25T15:50:57.26Z</time></trkpt><trkpt lat="45.4300004" lon="7.7573674"><ele>471.0</ele><time>2026-04-25T15:50:59.253Z</time></trkpt><trkpt lat="45.4298588" lon="7.7569926"><ele>473.5</ele><time>2026-04-25T15:51:01.241Z</time></trkpt><trkpt lat="45.4297368" lon="7.756468"><ele>476.0</ele><time>2026-04-25T15:51:03.246Z</time></trkpt><trkpt lat="45.4296518" lon="7.7559901"><ele>474.0</ele><time>2026-04-25T15:51:05.246Z</time></trkpt><trkpt lat="45.4295379" lon="7.7555611"><ele>472.0</ele><time>2026-04-25T15:51:07.243Z</time></trkpt><trkpt lat="45.4293901" lon="7.7551548"><ele>472.0</ele><time>2026-04-25T15:51:09.242Z</time></trkpt><trkpt lat="45.4292052" lon="7.754865"><ele>472.0</ele><time>2026-04-25T15:51:11.24Z</time></trkpt><trkpt lat="45.4289613" lon="7.7545742"><ele>469.5</ele><time>2026-04-25T15:51:13.243Z</time></trkpt><trkpt lat="45.4286581" lon="7.7543242"><ele>467.0</ele><time>2026-04-25T15:51:15.237Z</time></trkpt><trkpt lat="45.4283496" lon="7.7539514"><ele>467.0</ele><time>2026-04-25T15:51:17.23Z</time></trkpt><trkpt lat="45.4280626" lon="7.753589"><ele>467.0</ele><time>2026-04-25T15:51:19.235Z</time></trkpt><trkpt lat="45.427709" lon="7.7533469"><ele>465.0</ele><time>2026-04-25T15:51:21.234Z</time></trkpt><trkpt lat="45.4273139" lon="7.7531501"><ele>463.0</ele><time>2026-04-25T15:51:23.25Z</time></trkpt><trkpt lat="45.4269428" lon="7.7530083"><ele>459.5</ele><time>2026-04-25T15:51:25.219Z</time></trkpt><trkpt lat="45.4266767" lon="7.7529108"><ele>456.0</ele><time>2026-04-25T15:51:27.239Z</time></trkpt><trkpt lat="45.426391" lon="7.7530394"><ele>454.5</ele><time>2026-04-25T15:51:29.236Z</time></trkpt><trkpt lat="45.4260945" lon="7.7533296"><ele>453.0</ele><time>2026-04-25T15:51:31.228Z</time></trkpt><trkpt lat="45.4257783" lon="7.7535909"><ele>453.0</ele><time>2026-04-25T15:51:33.223Z</time></trkpt><trkpt lat="45.4255538" lon="7.7540317"><ele>453.0</ele><time>2026-04-25T15:51:35.236Z</time></trkpt><trkpt lat="45.4253655" lon="7.7544231"><ele>449.5</ele><time>2026-04-25T15:51:37.233Z</time></trkpt><trkpt lat="45.4251023" lon="7.7546819"><ele>446.0</ele><time>2026-04-25T15:51:39.242Z</time></trkpt><trkpt lat="45.4247479" lon="7.7547473"><ele>440.5</ele><time>2026-04-25T15:51:41.237Z</time></trkpt><trkpt lat="45.4243587" lon="7.7546627"><ele>435.0</ele><time>2026-04-25T15:51:43.223Z</time></trkpt><trkpt lat="45.4239775" lon="7.7545064"><ele>426.5</ele><time>2026-04-25T15:51:45.226Z</time></trkpt><trkpt lat="45.423726" lon="7.7543381"><ele>418.0</ele><time>2026-04-25T15:51:47.227Z</time></trkpt><trkpt lat="45.4236267" lon="7.7540804"><ele>418.0</ele><time>2026-04-25T15:51:49.226Z</time></trkpt><trkpt lat="45.4234989" lon="7.7537752"><ele>418.0</ele><time>2026-04-25T15:51:51.218Z</time></trkpt><trkpt lat="45.4234939" lon="7.7532486"><ele>437.0</ele><time>2026-04-25T15:51:53.235Z</time></trkpt><trkpt lat="45.4233645" lon="7.7528777"><ele>456.0</ele><time>2026-04-25T15:51:55.215Z</time></trkpt><trkpt lat="45.4230883" lon="7.7526829"><ele>427.0</ele><time>2026-04-25T15:51:57.226Z</time></trkpt><trkpt lat="45.4226263" lon="7.7527451"><ele>427.0</ele><time>2026-04-25T15:51:59.211Z</time></trkpt><trkpt lat="45.4221843" lon="7.7527298"><ele>427.0</ele><time>2026-04-25T15:52:01.205Z</time></trkpt><trkpt lat="45.4217238" lon="7.7526434"><ele>429.0</ele><time>2026-04-25T15:52:03.217Z</time></trkpt><trkpt lat="45.4214078" lon="7.7525185"><ele>431.0</ele><time>2026-04-25T15:52:05.211Z</time></trkpt><trkpt lat="45.4211951" lon="7.752391"><ele>431.0</ele><time>2026-04-25T15:52:07.212Z</time></trkpt><trkpt lat="45.4210138" lon="7.7520607"><ele>431.0</ele><time>2026-04-25T15:52:09.228Z</time></trkpt><trkpt lat="45.4207744" lon="7.7516861"><ele>429.0</ele><time>2026-04-25T15:52:11.23Z</time></trkpt><trkpt lat="45.4204926" lon="7.7513898"><ele>427.0</ele><time>2026-04-25T15:52:13.232Z</time></trkpt><trkpt lat="45.4202715" lon="7.7511807"><ele>427.0</ele><time>2026-04-25T15:52:15.23Z</time></trkpt><trkpt lat="45.4201593" lon="7.7509969"><ele>427.0</ele><time>2026-04-25T15:52:17.233Z</time></trkpt><trkpt lat="45.4200705" lon="7.7508855"><ele>427.0</ele><time>2026-04-25T15:52:19.233Z</time></trkpt><trkpt lat="45.4199995" lon="7.7509973"><ele>427.0</ele><time>2026-04-25T15:52:23.241Z</time></trkpt><trkpt lat="45.4200363" lon="7.7510862"><ele>427.0</ele><time>2026-04-25T15:52:25.231Z</time></trkpt><trkpt lat="45.4200671" lon="7.7511657"><ele>427.00000000000006</ele><time>2026-04-25T15:52:27.225Z</time></trkpt><trkpt lat="45.4201" lon="7.7512475"><ele>427.00000000000006</ele><time>2026-04-25T15:52:31.233Z</time></trkpt><trkpt lat="45.4200284" lon="7.7513874"><ele>427.0</ele><time>2026-04-25T15:52:39.226Z</time></trkpt><trkpt lat="45.4199015" lon="7.7514887"><ele>427.0</ele><time>2026-04-25T15:52:41.222Z</time></trkpt><trkpt lat="45.4197075" lon="7.7515856"><ele>419.5</ele><time>2026-04-25T15:52:43.233Z</time></trkpt><trkpt lat="45.4194695" lon="7.7515935"><ele>412.0</ele><time>2026-04-25T15:52:45.249Z</time></trkpt><trkpt lat="45.4192409" lon="7.7515151"><ele>412.0</ele><time>2026-04-25T15:52:47.232Z</time></trkpt><trkpt lat="45.4190522" lon="7.751455"><ele>412.0</ele><time>2026-04-25T15:52:49.234Z</time></trkpt><trkpt lat="45.418935" lon="7.7512797"><ele>412.0</ele><time>2026-04-25T15:52:51.249Z</time></trkpt><trkpt lat="45.4188032" lon="7.751118"><ele>414.33333333333337</ele><time>2026-04-25T15:52:53.261Z</time></trkpt><trkpt lat="45.4186573" lon="7.7510559"><ele>416.66666666666663</ele><time>2026-04-25T15:52:55.247Z</time></trkpt><trkpt lat="45.4184777" lon="7.7510006"><ele>419.0</ele><time>2026-04-25T15:52:57.252Z</time></trkpt><trkpt lat="45.4182253" lon="7.7509481"><ele>418.0</ele><time>2026-04-25T15:52:59.272Z</time></trkpt><trkpt lat="45.417977" lon="7.7509109"><ele>417.0</ele><time>2026-04-25T15:53:01.255Z</time></trkpt><trkpt lat="45.4177506" lon="7.7509064"><ele>417.0</ele><time>2026-04-25T15:53:03.255Z</time></trkpt><trkpt lat="45.4175545" lon="7.7509476"><ele>417.0</ele><time>2026-04-25T15:53:05.246Z</time></trkpt><trkpt lat="45.4173636" lon="7.7510098"><ele>417.0</ele><time>2026-04-25T15:53:07.254Z</time></trkpt><trkpt lat="45.4172061" lon="7.7510318"><ele>416.0</ele><time>2026-04-25T15:53:09.244Z</time></trkpt><trkpt lat="45.4170031" lon="7.751119"><ele>415.0</ele><time>2026-04-25T15:53:11.246Z</time></trkpt><trkpt lat="45.416791" lon="7.7513161"><ele>415.0</ele><time>2026-04-25T15:53:13.234Z</time></trkpt><trkpt lat="45.4166196" lon="7.7514774"><ele>415.0</ele><time>2026-04-25T15:53:15.243Z</time></trkpt><trkpt lat="45.4164939" lon="7.7515573"><ele>415.0</ele><time>2026-04-25T15:53:17.239Z</time></trkpt><trkpt lat="45.4163962" lon="7.7515974"><ele>415.0</ele><time>2026-04-25T15:53:19.244Z</time></trkpt><trkpt lat="45.4163117" lon="7.7516588"><ele>412.75</ele><time>2026-04-25T15:53:21.248Z</time></trkpt><trkpt lat="45.4162291" lon="7.7517528"><ele>410.5</ele><time>2026-04-25T15:53:23.276Z</time></trkpt><trkpt lat="45.4161232" lon="7.751791"><ele>408.25</ele><time>2026-04-25T15:53:25.218Z</time></trkpt><trkpt lat="45.4160035" lon="7.7517632"><ele>406.0</ele><time>2026-04-25T15:53:27.225Z</time></trkpt><trkpt lat="45.4159067" lon="7.7516736"><ele>406.0</ele><time>2026-04-25T15:53:29.225Z</time></trkpt><trkpt lat="45.4157975" lon="7.7515813"><ele>406.0</ele><time>2026-04-25T15:53:31.235Z</time></trkpt><trkpt lat="45.415703" lon="7.7515244"><ele>406.0</ele><time>2026-04-25T15:53:33.235Z</time></trkpt><trkpt lat="45.4156174" lon="7.7515181"><ele>406.0</ele><time>2026-04-25T15:53:35.228Z</time></trkpt><trkpt lat="45.415489" lon="7.7515769"><ele>406.0</ele><time>2026-04-25T15:53:37.232Z</time></trkpt><trkpt lat="45.4152992" lon="7.7515981"><ele>406.0</ele><time>2026-04-25T15:53:39.222Z</time></trkpt><trkpt lat="45.4151448" lon="7.7516608"><ele>406.0</ele><time>2026-04-25T15:53:41.226Z</time></trkpt><trkpt lat="45.4150081" lon="7.7516961"><ele>406.0</ele><time>2026-04-25T15:53:43.241Z</time></trkpt><trkpt lat="45.4148599" lon="7.7515959"><ele>406.0</ele><time>2026-04-25T15:53:45.23Z</time></trkpt><trkpt lat="45.4147039" lon="7.751433"><ele>406.0</ele><time>2026-04-25T15:53:47.233Z</time></trkpt><trkpt lat="45.414555" lon="7.7512292"><ele>406.33333333333337</ele><time>2026-04-25T15:53:49.219Z</time></trkpt><trkpt lat="45.4144053" lon="7.751055"><ele>406.66666666666663</ele><time>2026-04-25T15:53:51.224Z</time></trkpt><trkpt lat="45.4142481" lon="7.7508948"><ele>407.0</ele><time>2026-04-25T15:53:53.234Z</time></trkpt><trkpt lat="45.414112" lon="7.7507557"><ele>407.0</ele><time>2026-04-25T15:53:55.233Z</time></trkpt><trkpt lat="45.4140289" lon="7.7507143"><ele>407.0</ele><time>2026-04-25T15:53:57.232Z</time></trkpt><trkpt lat="45.4139104" lon="7.7507311"><ele>407.0</ele><time>2026-04-25T15:53:59.232Z</time></trkpt><trkpt lat="45.4137927" lon="7.7507147"><ele>407.0</ele><time>2026-04-25T15:54:01.24Z</time></trkpt><trkpt lat="45.413609" lon="7.7506111"><ele>406.3333333333333</ele><time>2026-04-25T15:54:03.226Z</time></trkpt><trkpt lat="45.4134435" lon="7.7504251"><ele>405.66666666666663</ele><time>2026-04-25T15:54:05.228Z</time></trkpt><trkpt lat="45.4132883" lon="7.750187"><ele>405.0</ele><time>2026-04-25T15:54:07.23Z</time></trkpt><trkpt lat="45.4131555" lon="7.7500174"><ele>405.0</ele><time>2026-04-25T15:54:09.224Z</time></trkpt><trkpt lat="45.4130633" lon="7.7499891"><ele>405.0</ele><time>2026-04-25T15:54:11.234Z</time></trkpt><trkpt lat="45.4129883" lon="7.7501758"><ele>405.0</ele><time>2026-04-25T15:54:13.227Z</time></trkpt><trkpt lat="45.4129885" lon="7.7505133"><ele>400.66666666666663</ele><time>2026-04-25T15:54:15.232Z</time></trkpt><trkpt lat="45.4130951" lon="7.7507723"><ele>396.3333333333333</ele><time>2026-04-25T15:54:17.221Z</time></trkpt><trkpt lat="45.4132357" lon="7.7508784"><ele>392.0</ele><time>2026-04-25T15:54:19.218Z</time></trkpt><trkpt lat="45.4133167" lon="7.7508954"><ele>392.0</ele><time>2026-04-25T15:54:21.235Z</time></trkpt><trkpt lat="45.413389" lon="7.7509179"><ele>392.0</ele><time>2026-04-25T15:54:37.243Z</time></trkpt><trkpt lat="45.4132866" lon="7.7508105"><ele>392.0</ele><time>2026-04-25T15:54:41.23Z</time></trkpt><trkpt lat="45.4132094" lon="7.7506402"><ele>392.0</ele><time>2026-04-25T15:54:43.228Z</time></trkpt><trkpt lat="45.4131477" lon="7.7503822"><ele>393.25</ele><time>2026-04-25T15:54:45.227Z</time></trkpt><trkpt lat="45.4131346" lon="7.7501785"><ele>394.5</ele><time>2026-04-25T15:54:47.232Z</time></trkpt><trkpt lat="45.4131421" lon="7.750076"><ele>395.75</ele><time>2026-04-25T15:54:49.229Z</time></trkpt><trkpt lat="45.4130412" lon="7.7499461"><ele>397.0</ele><time>2026-04-25T15:54:53.242Z</time></trkpt><trkpt lat="45.4128992" lon="7.7499292"><ele>397.0</ele><time>2026-04-25T15:54:55.223Z</time></trkpt><trkpt lat="45.4127057" lon="7.7499557"><ele>397.0</ele><time>2026-04-25T15:54:57.232Z</time></trkpt><trkpt lat="45.4125118" lon="7.7500007"><ele>397.0</ele><time>2026-04-25T15:54:59.239Z</time></trkpt><trkpt lat="45.4123588" lon="7.7500981"><ele>396.33333333333337</ele><time>2026-04-25T15:55:01.232Z</time></trkpt><trkpt lat="45.4122061" lon="7.7502471"><ele>395.66666666666663</ele><time>2026-04-25T15:55:03.249Z</time></trkpt><trkpt lat="45.4120584" lon="7.750359"><ele>395.0</ele><time>2026-04-25T15:55:05.236Z</time></trkpt><trkpt lat="45.4119051" lon="7.7505184"><ele>395.0</ele><time>2026-04-25T15:55:07.24Z</time></trkpt><trkpt lat="45.4117327" lon="7.7506855"><ele>395.0</ele><time>2026-04-25T15:55:09.238Z</time></trkpt><trkpt lat="45.411582" lon="7.7508304"><ele>395.0</ele><time>2026-04-25T15:55:11.235Z</time></trkpt><trkpt lat="45.4114611" lon="7.7510439"><ele>396.0</ele><time>2026-04-25T15:55:13.237Z</time></trkpt><trkpt lat="45.4113498" lon="7.7512742"><ele>397.0</ele><time>2026-04-25T15:55:15.237Z</time></trkpt><trkpt lat="45.4112242" lon="7.7515255"><ele>398.0</ele><time>2026-04-25T15:55:17.223Z</time></trkpt><trkpt lat="45.4111182" lon="7.7517097"><ele>395.5</ele><time>2026-04-25T15:55:19.232Z</time></trkpt><trkpt lat="45.4110161" lon="7.7518748"><ele>393.0</ele><time>2026-04-25T15:55:21.232Z</time></trkpt><trkpt lat="45.4108809" lon="7.7520115"><ele>390.5</ele><time>2026-04-25T15:55:23.255Z</time></trkpt><trkpt lat="45.4107789" lon="7.752076"><ele>388.0</ele><time>2026-04-25T15:55:25.234Z</time></trkpt><trkpt lat="45.4107106" lon="7.7520528"><ele>388.0</ele><time>2026-04-25T15:55:27.238Z</time></trkpt><trkpt lat="45.4106064" lon="7.7519575"><ele>388.0</ele><time>2026-04-25T15:55:29.242Z</time></trkpt><trkpt lat="45.4104834" lon="7.7518927"><ele>388.0</ele><time>2026-04-25T15:55:31.245Z</time></trkpt><trkpt lat="45.4103838" lon="7.7518722"><ele>388.0</ele><time>2026-04-25T15:55:33.248Z</time></trkpt><trkpt lat="45.4102849" lon="7.7519749"><ele>388.83333333333337</ele><time>2026-04-25T15:55:37.246Z</time></trkpt><trkpt lat="45.4102267" lon="7.7520624"><ele>389.6666666666667</ele><time>2026-04-25T15:55:39.25Z</time></trkpt><trkpt lat="45.4101488" lon="7.7521575"><ele>390.5</ele><time>2026-04-25T15:55:41.234Z</time></trkpt><trkpt lat="45.4100884" lon="7.7521838"><ele>391.33333333333337</ele><time>2026-04-25T15:55:42.238Z</time></trkpt><trkpt lat="45.4100157" lon="7.7522097"><ele>392.1666666666667</ele><time>2026-04-25T15:55:43.231Z</time></trkpt><trkpt lat="45.4099404" lon="7.7522073"><ele>393.0</ele><time>2026-04-25T15:55:44.228Z</time></trkpt><trkpt lat="45.4098547" lon="7.7521851"><ele>393.0</ele><time>2026-04-25T15:55:45.229Z</time></trkpt><trkpt lat="45.4097553" lon="7.7521517"><ele>393.0</ele><time>2026-04-25T15:55:47.22Z</time></trkpt><trkpt lat="45.4096761" lon="7.7521148"><ele>393.0</ele><time>2026-04-25T15:55:49.234Z</time></trkpt><trkpt lat="45.4096482" lon="7.7522425"><ele>393.0</ele><time>2026-04-25T15:55:52.229Z</time></trkpt><trkpt lat="45.4096494" lon="7.7523682"><ele>393.0</ele><time>2026-04-25T15:55:53.243Z</time></trkpt><trkpt lat="45.4096606" lon="7.7525135"><ele>393.0</ele><time>2026-04-25T15:55:54.228Z</time></trkpt><trkpt lat="45.4096873" lon="7.7526765"><ele>393.0</ele><time>2026-04-25T15:55:55.228Z</time></trkpt><trkpt lat="45.4096962" lon="7.7528125"><ele>393.0</ele><time>2026-04-25T15:55:56.225Z</time></trkpt><trkpt lat="45.4097125" lon="7.7529125"><ele>393.0</ele><time>2026-04-25T15:55:57.231Z</time></trkpt><trkpt lat="45.4097349" lon="7.753001"><ele>393.0</ele><time>2026-04-25T15:55:58.236Z</time></trkpt><trkpt lat="45.4097695" lon="7.7531164"><ele>393.0</ele><time>2026-04-25T15:56:00.23Z</time></trkpt><trkpt lat="45.4098048" lon="7.7531927"><ele>391.1666666666667</ele><time>2026-04-25T15:56:08.231Z</time></trkpt><trkpt lat="45.4098471" lon="7.7532627"><ele>389.3333333333333</ele><time>2026-04-25T15:56:09.238Z</time></trkpt><trkpt lat="45.4098972" lon="7.753355"><ele>387.5</ele><time>2026-04-25T15:56:10.247Z</time></trkpt><trkpt lat="45.4099318" lon="7.7534388"><ele>385.66666666666663</ele><time>2026-04-25T15:56:11.236Z</time></trkpt><trkpt lat="45.4098966" lon="7.753281"><ele>383.8333333333333</ele><time>2026-04-25T15:56:26.23Z</time></trkpt><trkpt lat="45.409848" lon="7.7531887"><ele>382.0</ele><time>2026-04-25T15:56:27.236Z</time></trkpt><trkpt lat="45.4097943" lon="7.753043"><ele>382.0</ele><time>2026-04-25T15:56:28.232Z</time></trkpt><trkpt lat="45.409752" lon="7.7528851"><ele>382.0</ele><time>2026-04-25T15:56:29.233Z</time></trkpt><trkpt lat="45.4097322" lon="7.7527474"><ele>382.0</ele><time>2026-04-25T15:56:30.236Z</time></trkpt><trkpt lat="45.4097244" lon="7.752631"><ele>382.0</ele><time>2026-04-25T15:56:31.24Z</time></trkpt><trkpt lat="45.4097146" lon="7.7525403"><ele>382.0</ele><time>2026-04-25T15:56:32.249Z</time></trkpt><trkpt lat="45.4097034" lon="7.7523822"><ele>383.8333333333333</ele><time>2026-04-25T15:56:34.237Z</time></trkpt><trkpt lat="45.409712" lon="7.7522685"><ele>385.66666666666663</ele><time>2026-04-25T15:56:36.239Z</time></trkpt><trkpt lat="45.4096449" lon="7.7522909"><ele>387.5</ele><time>2026-04-25T15:56:40.232Z</time></trkpt><trkpt lat="45.4095587" lon="7.7523705"><ele>389.3333333333333</ele><time>2026-04-25T15:56:42.236Z</time></trkpt><trkpt lat="45.4094686" lon="7.7524187"><ele>391.1666666666667</ele><time>2026-04-25T15:56:43.231Z</time></trkpt><trkpt lat="45.4093839" lon="7.7524668"><ele>393.0</ele><time>2026-04-25T15:56:44.232Z</time></trkpt><trkpt lat="45.4092932" lon="7.752509"><ele>393.0</ele><time>2026-04-25T15:56:45.232Z</time></trkpt><trkpt lat="45.4092063" lon="7.7525617"><ele>393.0</ele><time>2026-04-25T15:56:46.232Z</time></trkpt><trkpt lat="45.4091282" lon="7.7526235"><ele>393.0</ele><time>2026-04-25T15:56:47.229Z</time></trkpt><trkpt lat="45.4090565" lon="7.7526738"><ele>393.0</ele><time>2026-04-25T15:56:48.233Z</time></trkpt><trkpt lat="45.4089801" lon="7.7527209"><ele>393.0</ele><time>2026-04-25T15:56:49.225Z</time></trkpt><trkpt lat="45.4088975" lon="7.7527727"><ele>393.0</ele><time>2026-04-25T15:56:50.229Z</time></trkpt><trkpt lat="45.4088218" lon="7.7527911"><ele>392.8333333333333</ele><time>2026-04-25T15:56:51.23Z</time></trkpt><trkpt lat="45.4087397" lon="7.7528024"><ele>392.66666666666663</ele><time>2026-04-25T15:56:52.235Z</time></trkpt><trkpt lat="45.4086637" lon="7.7528255"><ele>392.5</ele><time>2026-04-25T15:56:53.244Z</time></trkpt><trkpt lat="45.4085949" lon="7.7528224"><ele>392.3333333333333</ele><time>2026-04-25T15:56:54.225Z</time></trkpt><trkpt lat="45.4085317" lon="7.7528309"><ele>392.16666666666663</ele><time>2026-04-25T15:56:55.236Z</time></trkpt><trkpt lat="45.4084116" lon="7.7528608"><ele>392.0</ele><time>2026-04-25T15:56:57.25Z</time></trkpt><trkpt lat="45.4083425" lon="7.7528809"><ele>392.0</ele><time>2026-04-25T15:56:58.246Z</time></trkpt><trkpt lat="45.4082746" lon="7.7528983"><ele>392.0</ele><time>2026-04-25T15:56:59.242Z</time></trkpt><trkpt lat="45.4082022" lon="7.7529101"><ele>392.0</ele><time>2026-04-25T15:57:00.247Z</time></trkpt><trkpt lat="45.4081363" lon="7.7529141"><ele>392.0</ele><time>2026-04-25T15:57:01.241Z</time></trkpt><trkpt lat="45.4080657" lon="7.752891"><ele>392.0</ele><time>2026-04-25T15:57:02.237Z</time></trkpt><trkpt lat="45.4079893" lon="7.7528445"><ele>392.0</ele><time>2026-04-25T15:57:03.243Z</time></trkpt><trkpt lat="45.4079228" lon="7.7527894"><ele>392.0</ele><time>2026-04-25T15:57:04.233Z</time></trkpt><trkpt lat="45.4078605" lon="7.7527554"><ele>392.8</ele><time>2026-04-25T15:57:05.23Z</time></trkpt><trkpt lat="45.407788" lon="7.7527178"><ele>393.6</ele><time>2026-04-25T15:57:06.24Z</time></trkpt><trkpt lat="45.4077159" lon="7.7526976"><ele>394.40000000000003</ele><time>2026-04-25T15:57:07.238Z</time></trkpt><trkpt lat="45.4076476" lon="7.7526719"><ele>395.20000000000005</ele><time>2026-04-25T15:57:08.241Z</time></trkpt><trkpt lat="45.407528" lon="7.7526807"><ele>396.0</ele><time>2026-04-25T15:57:10.245Z</time></trkpt><trkpt lat="45.4074193" lon="7.7527212"><ele>396.0</ele><time>2026-04-25T15:57:12.236Z</time></trkpt><trkpt lat="45.4073565" lon="7.7527406"><ele>396.0</ele><time>2026-04-25T15:57:13.229Z</time></trkpt><trkpt lat="45.4072934" lon="7.7527518"><ele>396.0</ele><time>2026-04-25T15:57:14.225Z</time></trkpt><trkpt lat="45.4072178" lon="7.7528023"><ele>396.0</ele><time>2026-04-25T15:57:16.22Z</time></trkpt><trkpt lat="45.4071792" lon="7.7528818"><ele>396.0</ele><time>2026-04-25T15:57:20.229Z</time></trkpt><trkpt lat="45.4071308" lon="7.7529953"><ele>396.0</ele><time>2026-04-25T15:57:25.224Z</time></trkpt><trkpt lat="45.407113" lon="7.7530909"><ele>396.0</ele><time>2026-04-25T15:57:26.234Z</time></trkpt><trkpt lat="45.4070908" lon="7.7532526"><ele>397.66666666666663</ele><time>2026-04-25T15:57:27.239Z</time></trkpt><trkpt lat="45.4070669" lon="7.7534813"><ele>399.3333333333333</ele><time>2026-04-25T15:57:28.227Z</time></trkpt><trkpt lat="45.4070199" lon="7.7537322"><ele>401.0</ele><time>2026-04-25T15:57:29.229Z</time></trkpt><trkpt lat="45.406972" lon="7.7539779"><ele>401.66666666666663</ele><time>2026-04-25T15:57:30.24Z</time></trkpt><trkpt lat="45.406937" lon="7.7542453"><ele>402.33333333333337</ele><time>2026-04-25T15:57:31.236Z</time></trkpt><trkpt lat="45.406895" lon="7.7545087"><ele>403.0</ele><time>2026-04-25T15:57:32.234Z</time></trkpt><trkpt lat="45.4068489" lon="7.7547746"><ele>403.33333333333337</ele><time>2026-04-25T15:57:33.242Z</time></trkpt><trkpt lat="45.4068083" lon="7.7550346"><ele>403.66666666666663</ele><time>2026-04-25T15:57:34.24Z</time></trkpt><trkpt lat="45.4067583" lon="7.7552506"><ele>404.0</ele><time>2026-04-25T15:57:35.238Z</time></trkpt><trkpt lat="45.4067066" lon="7.7554158"><ele>404.0</ele><time>2026-04-25T15:57:36.241Z</time></trkpt><trkpt lat="45.4066783" lon="7.7555863"><ele>404.0</ele><time>2026-04-25T15:57:37.251Z</time></trkpt><trkpt lat="45.4066183" lon="7.7557473"><ele>404.0</ele><time>2026-04-25T15:57:38.234Z</time></trkpt><trkpt lat="45.4065761" lon="7.7558658"><ele>404.0</ele><time>2026-04-25T15:57:39.24Z</time></trkpt><trkpt lat="45.4065217" lon="7.7559463"><ele>404.0</ele><time>2026-04-25T15:57:41.233Z</time></trkpt><trkpt lat="45.4064516" lon="7.7559222"><ele>403.99999999999994</ele><time>2026-04-25T15:57:43.232Z</time></trkpt><trkpt lat="45.4063653" lon="7.755952"><ele>404.0</ele><time>2026-04-25T15:57:52.234Z</time></trkpt><trkpt lat="45.4062975" lon="7.7559186"><ele>404.0</ele><time>2026-04-25T15:57:55.233Z</time></trkpt><trkpt lat="45.4062307" lon="7.7559097"><ele>404.0</ele><time>2026-04-25T15:57:57.235Z</time></trkpt><trkpt lat="45.4061232" lon="7.7559196"><ele>403.99999999999994</ele><time>2026-04-25T15:57:59.224Z</time></trkpt><trkpt lat="45.4060461" lon="7.7559192"><ele>404.0</ele><time>2026-04-25T15:58:00.23Z</time></trkpt><trkpt lat="45.4059667" lon="7.7559206"><ele>406.6</ele><time>2026-04-25T15:58:01.226Z</time></trkpt><trkpt lat="45.4058852" lon="7.7559187"><ele>409.2</ele><time>2026-04-25T15:58:02.214Z</time></trkpt><trkpt lat="45.4057801" lon="7.7559696"><ele>411.8</ele><time>2026-04-25T15:58:03.223Z</time></trkpt><trkpt lat="45.4056791" lon="7.7560138"><ele>414.40000000000003</ele><time>2026-04-25T15:58:04.222Z</time></trkpt><trkpt lat="45.4055856" lon="7.7560696"><ele>417.0</ele><time>2026-04-25T15:58:05.219Z</time></trkpt><trkpt lat="45.4054959" lon="7.7561086"><ele>417.6666666666667</ele><time>2026-04-25T15:58:06.215Z</time></trkpt><trkpt lat="45.4054219" lon="7.7561465"><ele>418.33333333333337</ele><time>2026-04-25T15:58:07.207Z</time></trkpt><trkpt lat="45.4053565" lon="7.7562028"><ele>419.0</ele><time>2026-04-25T15:58:08.223Z</time></trkpt><trkpt lat="45.4052904" lon="7.7562656"><ele>419.6666666666667</ele><time>2026-04-25T15:58:09.212Z</time></trkpt><trkpt lat="45.4052116" lon="7.75629"><ele>420.33333333333337</ele><time>2026-04-25T15:58:10.208Z</time></trkpt><trkpt lat="45.4051197" lon="7.7562884"><ele>421.0</ele><time>2026-04-25T15:58:11.203Z</time></trkpt><trkpt lat="45.4050077" lon="7.7563107"><ele>421.0</ele><time>2026-04-25T15:58:12.203Z</time></trkpt><trkpt lat="45.4049028" lon="7.756348"><ele>421.0</ele><time>2026-04-25T15:58:13.208Z</time></trkpt><trkpt lat="45.404804" lon="7.7563836"><ele>421.0</ele><time>2026-04-25T15:58:14.211Z</time></trkpt><trkpt lat="45.4047107" lon="7.7564268"><ele>421.0</ele><time>2026-04-25T15:58:15.211Z</time></trkpt><trkpt lat="45.4046288" lon="7.756492"><ele>421.0</ele><time>2026-04-25T15:58:16.211Z</time></trkpt><trkpt lat="45.4045371" lon="7.756551"><ele>420.1666666666667</ele><time>2026-04-25T15:58:17.205Z</time></trkpt><trkpt lat="45.4044602" lon="7.7566144"><ele>419.33333333333337</ele><time>2026-04-25T15:58:18.211Z</time></trkpt><trkpt lat="45.4043769" lon="7.7566677"><ele>418.5</ele><time>2026-04-25T15:58:19.211Z</time></trkpt><trkpt lat="45.4042999" lon="7.7567182"><ele>417.66666666666663</ele><time>2026-04-25T15:58:20.209Z</time></trkpt><trkpt lat="45.4042241" lon="7.7567578"><ele>416.8333333333333</ele><time>2026-04-25T15:58:21.215Z</time></trkpt><trkpt lat="45.4041366" lon="7.7567637"><ele>416.0</ele><time>2026-04-25T15:58:22.223Z</time></trkpt><trkpt lat="45.4040651" lon="7.7567535"><ele>416.0</ele><time>2026-04-25T15:58:23.248Z</time></trkpt><trkpt lat="45.4039962" lon="7.7567195"><ele>416.0</ele><time>2026-04-25T15:58:24.223Z</time></trkpt><trkpt lat="45.4039208" lon="7.7566534"><ele>416.0</ele><time>2026-04-25T15:58:25.222Z</time></trkpt><trkpt lat="45.4038424" lon="7.7565694"><ele>416.0</ele><time>2026-04-25T15:58:26.222Z</time></trkpt><trkpt lat="45.4037719" lon="7.7564817"><ele>416.0</ele><time>2026-04-25T15:58:27.229Z</time></trkpt><trkpt lat="45.4037011" lon="7.7563844"><ele>416.6</ele><time>2026-04-25T15:58:28.23Z</time></trkpt><trkpt lat="45.4036269" lon="7.7562927"><ele>417.20000000000005</ele><time>2026-04-25T15:58:29.231Z</time></trkpt><trkpt lat="45.4035696" lon="7.7562424"><ele>417.79999999999995</ele><time>2026-04-25T15:58:30.236Z</time></trkpt><trkpt lat="45.4034646" lon="7.7562265"><ele>418.4</ele><time>2026-04-25T15:58:32.237Z</time></trkpt><trkpt lat="45.4033395" lon="7.756244"><ele>419.0</ele><time>2026-04-25T15:58:34.239Z</time></trkpt><trkpt lat="45.4032667" lon="7.7562404"><ele>419.0</ele><time>2026-04-25T15:58:35.236Z</time></trkpt><trkpt lat="45.4031642" lon="7.7562908"><ele>419.0</ele><time>2026-04-25T15:58:37.238Z</time></trkpt><trkpt lat="45.4030752" lon="7.7563384"><ele>419.0</ele><time>2026-04-25T15:58:39.241Z</time></trkpt><trkpt lat="45.4029463" lon="7.7563548"><ele>419.0</ele><time>2026-04-25T15:58:41.219Z</time></trkpt><trkpt lat="45.4028573" lon="7.7563186"><ele>419.0</ele><time>2026-04-25T15:58:42.212Z</time></trkpt><trkpt lat="45.4027644" lon="7.7562894"><ele>418.79999999999995</ele><time>2026-04-25T15:58:43.217Z</time></trkpt><trkpt lat="45.4026867" lon="7.7562604"><ele>418.59999999999997</ele><time>2026-04-25T15:58:44.221Z</time></trkpt><trkpt lat="45.4025973" lon="7.7562256"><ele>418.4</ele><time>2026-04-25T15:58:45.224Z</time></trkpt><trkpt lat="45.4024997" lon="7.7562008"><ele>418.2</ele><time>2026-04-25T15:58:46.226Z</time></trkpt><trkpt lat="45.4024038" lon="7.7561681"><ele>418.0</ele><time>2026-04-25T15:58:47.224Z</time></trkpt><trkpt lat="45.4023041" lon="7.7561059"><ele>418.0</ele><time>2026-04-25T15:58:48.23Z</time></trkpt><trkpt lat="45.4022039" lon="7.7560442"><ele>418.0</ele><time>2026-04-25T15:58:49.234Z</time></trkpt><trkpt lat="45.4021063" lon="7.7559683"><ele>418.0</ele><time>2026-04-25T15:58:50.23Z</time></trkpt><trkpt lat="45.4019981" lon="7.7558984"><ele>418.0</ele><time>2026-04-25T15:58:51.227Z</time></trkpt><trkpt lat="45.4018891" lon="7.7558276"><ele>415.25</ele><time>2026-04-25T15:58:52.224Z</time></trkpt><trkpt lat="45.401768" lon="7.7557405"><ele>412.5</ele><time>2026-04-25T15:58:53.237Z</time></trkpt><trkpt lat="45.4016434" lon="7.7556719"><ele>409.75</ele><time>2026-04-25T15:58:54.229Z</time></trkpt><trkpt lat="45.4015219" lon="7.7556179"><ele>407.0</ele><time>2026-04-25T15:58:55.221Z</time></trkpt><trkpt lat="45.4014021" lon="7.755558"><ele>407.75</ele><time>2026-04-25T15:58:56.225Z</time></trkpt><trkpt lat="45.4012954" lon="7.7554595"><ele>408.5</ele><time>2026-04-25T15:58:57.221Z</time></trkpt><trkpt lat="45.4011939" lon="7.7553734"><ele>409.25</ele><time>2026-04-25T15:58:58.22Z</time></trkpt><trkpt lat="45.4011027" lon="7.7552717"><ele>410.0</ele><time>2026-04-25T15:58:59.228Z</time></trkpt><trkpt lat="45.4010188" lon="7.7551875"><ele>408.3333333333333</ele><time>2026-04-25T15:59:00.221Z</time></trkpt><trkpt lat="45.400928" lon="7.7551225"><ele>406.66666666666663</ele><time>2026-04-25T15:59:01.219Z</time></trkpt><trkpt lat="45.4008442" lon="7.7550764"><ele>405.0</ele><time>2026-04-25T15:59:02.221Z</time></trkpt><trkpt lat="45.4007679" lon="7.7550632"><ele>403.33333333333337</ele><time>2026-04-25T15:59:03.226Z</time></trkpt><trkpt lat="45.4006843" lon="7.7550593"><ele>401.6666666666667</ele><time>2026-04-25T15:59:04.227Z</time></trkpt><trkpt lat="45.4006143" lon="7.7550762"><ele>400.0</ele><time>2026-04-25T15:59:05.219Z</time></trkpt><trkpt lat="45.4005068" lon="7.755137"><ele>400.0</ele><time>2026-04-25T15:59:07.228Z</time></trkpt><trkpt lat="45.4003896" lon="7.7551525"><ele>400.0</ele><time>2026-04-25T15:59:09.222Z</time></trkpt><trkpt lat="45.4003166" lon="7.7551613"><ele>400.0</ele><time>2026-04-25T15:59:10.228Z</time></trkpt><trkpt lat="45.4002292" lon="7.7551733"><ele>400.0</ele><time>2026-04-25T15:59:11.213Z</time></trkpt><trkpt lat="45.4001207" lon="7.7551965"><ele>400.0</ele><time>2026-04-25T15:59:12.214Z</time></trkpt><trkpt lat="45.3999929" lon="7.7552107"><ele>400.0</ele><time>2026-04-25T15:59:13.217Z</time></trkpt><trkpt lat="45.3998708" lon="7.7552024"><ele>400.0</ele><time>2026-04-25T15:59:14.215Z</time></trkpt><trkpt lat="45.3997663" lon="7.7552243"><ele>400.0</ele><time>2026-04-25T15:59:15.221Z</time></trkpt><trkpt lat="45.3996636" lon="7.7552398"><ele>400.0</ele><time>2026-04-25T15:59:16.217Z</time></trkpt><trkpt lat="45.399558" lon="7.7552811"><ele>400.0</ele><time>2026-04-25T15:59:17.219Z</time></trkpt><trkpt lat="45.3994311" lon="7.7553155"><ele>399.5</ele><time>2026-04-25T15:59:18.218Z</time></trkpt><trkpt lat="45.3993214" lon="7.7553723"><ele>399.0</ele><time>2026-04-25T15:59:19.217Z</time></trkpt><trkpt lat="45.3992016" lon="7.7554051"><ele>398.5</ele><time>2026-04-25T15:59:20.215Z</time></trkpt><trkpt lat="45.3990698" lon="7.7554258"><ele>398.0</ele><time>2026-04-25T15:59:21.211Z</time></trkpt><trkpt lat="45.3989349" lon="7.7554563"><ele>399.5</ele><time>2026-04-25T15:59:22.215Z</time></trkpt><trkpt lat="45.3987936" lon="7.7554866"><ele>401.0</ele><time>2026-04-25T15:59:23.248Z</time></trkpt><trkpt lat="45.39866" lon="7.7555025"><ele>402.5</ele><time>2026-04-25T15:59:24.226Z</time></trkpt><trkpt lat="45.3985447" lon="7.7555167"><ele>404.0</ele><time>2026-04-25T15:59:25.225Z</time></trkpt><trkpt lat="45.3984314" lon="7.7555091"><ele>404.0</ele><time>2026-04-25T15:59:26.218Z</time></trkpt><trkpt lat="45.3983248" lon="7.7554915"><ele>404.0</ele><time>2026-04-25T15:59:27.214Z</time></trkpt><trkpt lat="45.3982268" lon="7.7554676"><ele>404.0</ele><time>2026-04-25T15:59:28.224Z</time></trkpt><trkpt lat="45.3981254" lon="7.7553989"><ele>404.0</ele><time>2026-04-25T15:59:29.224Z</time></trkpt><trkpt lat="45.3980185" lon="7.7553218"><ele>404.0</ele><time>2026-04-25T15:59:30.222Z</time></trkpt><trkpt lat="45.3978916" lon="7.7552345"><ele>401.2</ele><time>2026-04-25T15:59:31.229Z</time></trkpt><trkpt lat="45.3977687" lon="7.7551596"><ele>398.4</ele><time>2026-04-25T15:59:32.226Z</time></trkpt><trkpt lat="45.3976506" lon="7.7551103"><ele>395.6</ele><time>2026-04-25T15:59:33.226Z</time></trkpt><trkpt lat="45.3975625" lon="7.7550802"><ele>392.8</ele><time>2026-04-25T15:59:34.225Z</time></trkpt><trkpt lat="45.3974958" lon="7.7550656"><ele>390.0</ele><time>2026-04-25T15:59:35.226Z</time></trkpt><trkpt lat="45.3974149" lon="7.7550847"><ele>390.0</ele><time>2026-04-25T15:59:37.237Z</time></trkpt><trkpt lat="45.3973286" lon="7.7551984"><ele>390.0</ele><time>2026-04-25T15:59:39.234Z</time></trkpt><trkpt lat="45.3972683" lon="7.755277"><ele>390.0</ele><time>2026-04-25T15:59:40.233Z</time></trkpt><trkpt lat="45.3972016" lon="7.7553487"><ele>390.0</ele><time>2026-04-25T15:59:41.243Z</time></trkpt><trkpt lat="45.3971333" lon="7.7554334"><ele>390.0</ele><time>2026-04-25T15:59:42.222Z</time></trkpt><trkpt lat="45.3970621" lon="7.7555262"><ele>390.8333333333333</ele><time>2026-04-25T15:59:43.223Z</time></trkpt><trkpt lat="45.3969919" lon="7.7556096"><ele>391.66666666666663</ele><time>2026-04-25T15:59:44.216Z</time></trkpt><trkpt lat="45.3969049" lon="7.7556538"><ele>392.5</ele><time>2026-04-25T15:59:45.222Z</time></trkpt><trkpt lat="45.3968265" lon="7.7556917"><ele>393.3333333333333</ele><time>2026-04-25T15:59:46.224Z</time></trkpt><trkpt lat="45.3967473" lon="7.755746"><ele>394.16666666666663</ele><time>2026-04-25T15:59:47.231Z</time></trkpt><trkpt lat="45.3966825" lon="7.7558007"><ele>395.0</ele><time>2026-04-25T15:59:48.229Z</time></trkpt><trkpt lat="45.3966201" lon="7.7558631"><ele>394.99999999999994</ele><time>2026-04-25T15:59:49.244Z</time></trkpt><trkpt lat="45.3965732" lon="7.7559433"><ele>395.0</ele><time>2026-04-25T15:59:50.231Z</time></trkpt><trkpt lat="45.3965341" lon="7.7560307"><ele>395.0</ele><time>2026-04-25T15:59:51.237Z</time></trkpt><trkpt lat="45.3965058" lon="7.7561372"><ele>395.0</ele><time>2026-04-25T15:59:52.239Z</time></trkpt><trkpt lat="45.396483" lon="7.7562425"><ele>394.99999999999994</ele><time>2026-04-25T15:59:53.247Z</time></trkpt><trkpt lat="45.3964654" lon="7.7563499"><ele>395.0</ele><time>2026-04-25T15:59:54.237Z</time></trkpt><trkpt lat="45.3964517" lon="7.756465"><ele>395.25</ele><time>2026-04-25T15:59:55.236Z</time></trkpt><trkpt lat="45.3964584" lon="7.756614"><ele>395.5</ele><time>2026-04-25T15:59:56.233Z</time></trkpt><trkpt lat="45.3964652" lon="7.756778"><ele>395.75</ele><time>2026-04-25T15:59:57.247Z</time></trkpt><trkpt lat="45.3964759" lon="7.7569556"><ele>396.0</ele><time>2026-04-25T15:59:58.233Z</time></trkpt><trkpt lat="45.3964926" lon="7.757144"><ele>396.0</ele><time>2026-04-25T15:59:59.239Z</time></trkpt><trkpt lat="45.3964937" lon="7.7573111"><ele>396.0</ele><time>2026-04-25T16:00:00.235Z</time></trkpt><trkpt lat="45.3964909" lon="7.7574562"><ele>396.0</ele><time>2026-04-25T16:00:01.234Z</time></trkpt><trkpt lat="45.3964734" lon="7.7575817"><ele>396.0</ele><time>2026-04-25T16:00:02.237Z</time></trkpt><trkpt lat="45.3964599" lon="7.7577117"><ele>396.0</ele><time>2026-04-25T16:00:03.24Z</time></trkpt><trkpt lat="45.3964048" lon="7.7578446"><ele>397.0</ele><time>2026-04-25T16:00:04.236Z</time></trkpt><trkpt lat="45.396348" lon="7.7579976"><ele>398.0</ele><time>2026-04-25T16:00:05.234Z</time></trkpt><trkpt lat="45.3962904" lon="7.7581465"><ele>399.0</ele><time>2026-04-25T16:00:06.237Z</time></trkpt><trkpt lat="45.3962604" lon="7.7583005"><ele>400.0</ele><time>2026-04-25T16:00:07.238Z</time></trkpt><trkpt lat="45.3962427" lon="7.7584226"><ele>401.0</ele><time>2026-04-25T16:00:08.24Z</time></trkpt><trkpt lat="45.3962334" lon="7.7585411"><ele>398.8</ele><time>2026-04-25T16:00:09.246Z</time></trkpt><trkpt lat="45.3962212" lon="7.7586459"><ele>396.6</ele><time>2026-04-25T16:00:10.225Z</time></trkpt><trkpt lat="45.3962109" lon="7.7587362"><ele>394.4</ele><time>2026-04-25T16:00:11.231Z</time></trkpt><trkpt lat="45.3961612" lon="7.7588444"><ele>392.2</ele><time>2026-04-25T16:00:13.229Z</time></trkpt><trkpt lat="45.3960396" lon="7.758885"><ele>390.0</ele><time>2026-04-25T16:00:15.242Z</time></trkpt><trkpt lat="45.3959357" lon="7.7588577"><ele>390.0</ele><time>2026-04-25T16:00:16.242Z</time></trkpt><trkpt lat="45.3958205" lon="7.7588296"><ele>390.0</ele><time>2026-04-25T16:00:17.249Z</time></trkpt><trkpt lat="45.3956849" lon="7.758798"><ele>390.0</ele><time>2026-04-25T16:00:18.239Z</time></trkpt><trkpt lat="45.3955676" lon="7.758812"><ele>390.0</ele><time>2026-04-25T16:00:19.236Z</time></trkpt><trkpt lat="45.3954446" lon="7.7588388"><ele>390.2</ele><time>2026-04-25T16:00:20.248Z</time></trkpt><trkpt lat="45.3953152" lon="7.7588766"><ele>390.4</ele><time>2026-04-25T16:00:21.255Z</time></trkpt><trkpt lat="45.3951933" lon="7.7589342"><ele>390.6</ele><time>2026-04-25T16:00:22.244Z</time></trkpt><trkpt lat="45.3951035" lon="7.7589804"><ele>390.8</ele><time>2026-04-25T16:00:23.256Z</time></trkpt><trkpt lat="45.3950988" lon="7.759073"><ele>391.0</ele><time>2026-04-25T16:00:28.242Z</time></trkpt><trkpt lat="45.3951515" lon="7.7592381"><ele>391.4</ele><time>2026-04-25T16:00:30.244Z</time></trkpt><trkpt lat="45.3951865" lon="7.75938"><ele>391.8</ele><time>2026-04-25T16:00:31.246Z</time></trkpt><trkpt lat="45.395219" lon="7.7595424"><ele>392.2</ele><time>2026-04-25T16:00:32.243Z</time></trkpt><trkpt lat="45.395255" lon="7.7596951"><ele>392.59999999999997</ele><time>2026-04-25T16:00:33.251Z</time></trkpt><trkpt lat="45.3952818" lon="7.7598381"><ele>393.0</ele><time>2026-04-25T16:00:34.249Z</time></trkpt><trkpt lat="45.3953127" lon="7.7599694"><ele>393.0</ele><time>2026-04-25T16:00:35.246Z</time></trkpt><trkpt lat="45.3953358" lon="7.7600901"><ele>393.0</ele><time>2026-04-25T16:00:36.243Z</time></trkpt><trkpt lat="45.3953546" lon="7.7602004"><ele>393.0</ele><time>2026-04-25T16:00:37.246Z</time></trkpt><trkpt lat="45.3953641" lon="7.7602982"><ele>393.0</ele><time>2026-04-25T16:00:38.243Z</time></trkpt><trkpt lat="45.39535" lon="7.760467"><ele>393.0</ele><time>2026-04-25T16:00:40.247Z</time></trkpt><trkpt lat="45.3953691" lon="7.7606521"><ele>393.5</ele><time>2026-04-25T16:00:42.262Z</time></trkpt><trkpt lat="45.3953889" lon="7.7607618"><ele>394.0</ele><time>2026-04-25T16:00:43.247Z</time></trkpt><trkpt lat="45.3954061" lon="7.7608994"><ele>394.5</ele><time>2026-04-25T16:00:44.252Z</time></trkpt><trkpt lat="45.39541" lon="7.7610326"><ele>395.0</ele><time>2026-04-25T16:00:45.241Z</time></trkpt><trkpt lat="45.3954177" lon="7.7611559"><ele>395.5</ele><time>2026-04-25T16:00:46.242Z</time></trkpt><trkpt lat="45.3954244" lon="7.7612648"><ele>396.0</ele><time>2026-04-25T16:00:47.237Z</time></trkpt><trkpt lat="45.3954156" lon="7.7614141"><ele>396.8</ele><time>2026-04-25T16:00:49.232Z</time></trkpt><trkpt lat="45.3953502" lon="7.76151"><ele>397.6</ele><time>2026-04-25T16:00:51.232Z</time></trkpt><trkpt lat="45.39525" lon="7.7615925"><ele>398.4</ele><time>2026-04-25T16:00:53.249Z</time></trkpt><trkpt lat="45.395154" lon="7.761704"><ele>399.2</ele><time>2026-04-25T16:00:55.234Z</time></trkpt><trkpt lat="45.3951021" lon="7.7617926"><ele>400.0</ele><time>2026-04-25T16:00:56.236Z</time></trkpt><trkpt lat="45.3950502" lon="7.7618855"><ele>400.8</ele><time>2026-04-25T16:00:57.234Z</time></trkpt><trkpt lat="45.3949921" lon="7.7619528"><ele>401.6</ele><time>2026-04-25T16:00:58.235Z</time></trkpt><trkpt lat="45.3949275" lon="7.7619999"><ele>402.4</ele><time>2026-04-25T16:00:59.228Z</time></trkpt><trkpt lat="45.3948056" lon="7.7620297"><ele>403.2</ele><time>2026-04-25T16:01:01.244Z</time></trkpt><trkpt lat="45.394691" lon="7.762071"><ele>404.0</ele><time>2026-04-25T16:01:03.243Z</time></trkpt><trkpt lat="45.3946262" lon="7.7620598"><ele>404.49999999999994</ele><time>2026-04-25T16:01:05.232Z</time></trkpt><trkpt lat="45.3945757" lon="7.7619383"><ele>405.0</ele><time>2026-04-25T16:01:07.251Z</time></trkpt><trkpt lat="45.3944869" lon="7.7618945"><ele>405.5</ele><time>2026-04-25T16:01:09.234Z</time></trkpt><trkpt lat="45.394421" lon="7.7618986"><ele>406.0</ele><time>2026-04-25T16:01:10.232Z</time></trkpt><trkpt lat="45.3943335" lon="7.7618957"><ele>406.49999999999994</ele><time>2026-04-25T16:01:11.227Z</time></trkpt><trkpt lat="45.3942603" lon="7.7618885"><ele>407.0</ele><time>2026-04-25T16:01:12.227Z</time></trkpt><trkpt lat="45.3941969" lon="7.7619036"><ele>407.0</ele><time>2026-04-25T16:01:13.228Z</time></trkpt><trkpt lat="45.3941181" lon="7.7619492"><ele>407.0</ele><time>2026-04-25T16:01:15.221Z</time></trkpt><trkpt lat="45.3940523" lon="7.7620939"><ele>407.0</ele><time>2026-04-25T16:01:17.236Z</time></trkpt><trkpt lat="45.3940223" lon="7.7622096"><ele>407.0</ele><time>2026-04-25T16:01:18.233Z</time></trkpt><trkpt lat="45.3939692" lon="7.7623325"><ele>407.0</ele><time>2026-04-25T16:01:19.233Z</time></trkpt><trkpt lat="45.3939096" lon="7.7624561"><ele>408.25</ele><time>2026-04-25T16:01:20.226Z</time></trkpt><trkpt lat="45.3938355" lon="7.762575"><ele>409.5</ele><time>2026-04-25T16:01:21.236Z</time></trkpt><trkpt lat="45.3937495" lon="7.7627137"><ele>410.75</ele><time>2026-04-25T16:01:22.237Z</time></trkpt><trkpt lat="45.393663" lon="7.7628604"><ele>412.0</ele><time>2026-04-25T16:01:23.249Z</time></trkpt><trkpt lat="45.393577" lon="7.7629989"><ele>412.40000000000003</ele><time>2026-04-25T16:01:24.243Z</time></trkpt><trkpt lat="45.3934968" lon="7.7631339"><ele>412.8</ele><time>2026-04-25T16:01:25.239Z</time></trkpt><trkpt lat="45.3934271" lon="7.7632529"><ele>413.2</ele><time>2026-04-25T16:01:26.236Z</time></trkpt><trkpt lat="45.3933621" lon="7.763342"><ele>413.6</ele><time>2026-04-25T16:01:27.236Z</time></trkpt><trkpt lat="45.3933076" lon="7.7634052"><ele>414.0</ele><time>2026-04-25T16:01:28.242Z</time></trkpt><trkpt lat="45.3932629" lon="7.7634729"><ele>414.0</ele><time>2026-04-25T16:01:29.236Z</time></trkpt><trkpt lat="45.3932053" lon="7.7635241"><ele>414.0</ele><time>2026-04-25T16:01:30.231Z</time></trkpt><trkpt lat="45.3931296" lon="7.7635662"><ele>414.0</ele><time>2026-04-25T16:01:31.239Z</time></trkpt><trkpt lat="45.3930555" lon="7.7636132"><ele>414.0</ele><time>2026-04-25T16:01:32.241Z</time></trkpt><trkpt lat="45.3929893" lon="7.763674"><ele>414.0</ele><time>2026-04-25T16:01:33.246Z</time></trkpt><trkpt lat="45.3929006" lon="7.7638008"><ele>414.0</ele><time>2026-04-25T16:01:35.23Z</time></trkpt><trkpt lat="45.392877" lon="7.7639226"><ele>413.6</ele><time>2026-04-25T16:01:36.232Z</time></trkpt><trkpt lat="45.3928573" lon="7.7640664"><ele>413.2</ele><time>2026-04-25T16:01:37.24Z</time></trkpt><trkpt lat="45.3928089" lon="7.7642119"><ele>412.8</ele><time>2026-04-25T16:01:38.233Z</time></trkpt><trkpt lat="45.3927535" lon="7.7643238"><ele>412.40000000000003</ele><time>2026-04-25T16:01:39.237Z</time></trkpt><trkpt lat="45.3926871" lon="7.7643951"><ele>412.0</ele><time>2026-04-25T16:01:40.24Z</time></trkpt><trkpt lat="45.3926067" lon="7.7644196"><ele>412.0</ele><time>2026-04-25T16:01:41.23Z</time></trkpt><trkpt lat="45.3925106" lon="7.7644209"><ele>412.0</ele><time>2026-04-25T16:01:42.241Z</time></trkpt><trkpt lat="45.3923742" lon="7.764388"><ele>412.0</ele><time>2026-04-25T16:01:43.232Z</time></trkpt><trkpt lat="45.3922173" lon="7.7643395"><ele>412.0</ele><time>2026-04-25T16:01:44.25Z</time></trkpt><trkpt lat="45.392079" lon="7.7643053"><ele>411.40000000000003</ele><time>2026-04-25T16:01:45.238Z</time></trkpt><trkpt lat="45.3919657" lon="7.7642899"><ele>410.8</ele><time>2026-04-25T16:01:46.247Z</time></trkpt><trkpt lat="45.3918745" lon="7.7642722"><ele>410.2</ele><time>2026-04-25T16:01:47.252Z</time></trkpt><trkpt lat="45.3917778" lon="7.7642477"><ele>409.6</ele><time>2026-04-25T16:01:48.244Z</time></trkpt><trkpt lat="45.3916832" lon="7.7642279"><ele>409.0</ele><time>2026-04-25T16:01:49.251Z</time></trkpt><trkpt lat="45.3916019" lon="7.7642362"><ele>409.00000000000006</ele><time>2026-04-25T16:01:50.251Z</time></trkpt><trkpt lat="45.3915324" lon="7.76424"><ele>409.0</ele><time>2026-04-25T16:01:51.245Z</time></trkpt><trkpt lat="45.3914686" lon="7.7642585"><ele>409.0</ele><time>2026-04-25T16:01:52.238Z</time></trkpt><trkpt lat="45.3913883" lon="7.7642597"><ele>409.0</ele><time>2026-04-25T16:01:53.252Z</time></trkpt><trkpt lat="45.3912923" lon="7.7642957"><ele>409.00000000000006</ele><time>2026-04-25T16:01:54.236Z</time></trkpt><trkpt lat="45.3911923" lon="7.7643138"><ele>409.0</ele><time>2026-04-25T16:01:55.235Z</time></trkpt><trkpt lat="45.3910847" lon="7.7643477"><ele>409.79999999999995</ele><time>2026-04-25T16:01:56.238Z</time></trkpt><trkpt lat="45.3909897" lon="7.7643945"><ele>410.59999999999997</ele><time>2026-04-25T16:01:57.242Z</time></trkpt><trkpt lat="45.3908983" lon="7.7644593"><ele>411.4</ele><time>2026-04-25T16:01:58.243Z</time></trkpt><trkpt lat="45.3908049" lon="7.7644884"><ele>412.2</ele><time>2026-04-25T16:01:59.243Z</time></trkpt><trkpt lat="45.3907217" lon="7.7645095"><ele>413.0</ele><time>2026-04-25T16:02:00.24Z</time></trkpt><trkpt lat="45.3906425" lon="7.7645425"><ele>413.0</ele><time>2026-04-25T16:02:01.243Z</time></trkpt><trkpt lat="45.39057" lon="7.7645468"><ele>413.0</ele><time>2026-04-25T16:02:02.239Z</time></trkpt><trkpt lat="45.3905081" lon="7.7645286"><ele>413.0</ele><time>2026-04-25T16:02:03.247Z</time></trkpt><trkpt lat="45.390398" lon="7.764387"><ele>413.0</ele><time>2026-04-25T16:02:05.241Z</time></trkpt><trkpt lat="45.3903322" lon="7.7642942"><ele>413.0</ele><time>2026-04-25T16:02:06.252Z</time></trkpt><trkpt lat="45.3902774" lon="7.7641693"><ele>411.4</ele><time>2026-04-25T16:02:07.232Z</time></trkpt><trkpt lat="45.3902331" lon="7.7640118"><ele>409.79999999999995</ele><time>2026-04-25T16:02:08.233Z</time></trkpt><trkpt lat="45.3901939" lon="7.7638598"><ele>408.2</ele><time>2026-04-25T16:02:09.23Z</time></trkpt><trkpt lat="45.3901694" lon="7.7637248"><ele>406.6</ele><time>2026-04-25T16:02:10.214Z</time></trkpt><trkpt lat="45.3901654" lon="7.7636164"><ele>405.0</ele><time>2026-04-25T16:02:11.233Z</time></trkpt><trkpt lat="45.3901412" lon="7.7635235"><ele>405.0</ele><time>2026-04-25T16:02:12.227Z</time></trkpt><trkpt lat="45.3900927" lon="7.7634398"><ele>405.0</ele><time>2026-04-25T16:02:13.226Z</time></trkpt><trkpt lat="45.3900399" lon="7.763369"><ele>405.0</ele><time>2026-04-25T16:02:14.233Z</time></trkpt><trkpt lat="45.389973" lon="7.7633048"><ele>405.0</ele><time>2026-04-25T16:02:15.24Z</time></trkpt><trkpt lat="45.389909" lon="7.7632416"><ele>405.0</ele><time>2026-04-25T16:02:16.215Z</time></trkpt><trkpt lat="45.3898287" lon="7.7632205"><ele>405.0</ele><time>2026-04-25T16:02:17.238Z</time></trkpt><trkpt lat="45.3897557" lon="7.7632304"><ele>405.6</ele><time>2026-04-25T16:02:18.226Z</time></trkpt><trkpt lat="45.3896719" lon="7.7632464"><ele>406.2</ele><time>2026-04-25T16:02:20.234Z</time></trkpt><trkpt lat="45.3895935" lon="7.7632368"><ele>406.79999999999995</ele><time>2026-04-25T16:02:32.233Z</time></trkpt><trkpt lat="45.3894728" lon="7.7633358"><ele>407.4</ele><time>2026-04-25T16:02:35.241Z</time></trkpt><trkpt lat="45.389389" lon="7.7634608"><ele>408.0</ele><time>2026-04-25T16:02:36.231Z</time></trkpt><trkpt lat="45.3893065" lon="7.7636103"><ele>406.5</ele><time>2026-04-25T16:02:37.233Z</time></trkpt><trkpt lat="45.389205" lon="7.7637639"><ele>405.0</ele><time>2026-04-25T16:02:38.224Z</time></trkpt><trkpt lat="45.3891016" lon="7.7639195"><ele>403.5</ele><time>2026-04-25T16:02:39.226Z</time></trkpt><trkpt lat="45.3890217" lon="7.7640475"><ele>402.0</ele><time>2026-04-25T16:02:40.24Z</time></trkpt><trkpt lat="45.3889813" lon="7.7641567"><ele>402.0</ele><time>2026-04-25T16:02:41.231Z</time></trkpt><trkpt lat="45.3889611" lon="7.7642756"><ele>402.0</ele><time>2026-04-25T16:02:42.226Z</time></trkpt><trkpt lat="45.388967" lon="7.76443"><ele>402.0</ele><time>2026-04-25T16:02:43.232Z</time></trkpt><trkpt lat="45.3889951" lon="7.7646061"><ele>402.0</ele><time>2026-04-25T16:02:44.228Z</time></trkpt><trkpt lat="45.3890443" lon="7.7647978"><ele>402.25</ele><time>2026-04-25T16:02:45.224Z</time></trkpt><trkpt lat="45.3890983" lon="7.7649843"><ele>402.5</ele><time>2026-04-25T16:02:46.23Z</time></trkpt><trkpt lat="45.3891624" lon="7.7651471"><ele>402.75</ele><time>2026-04-25T16:02:47.225Z</time></trkpt><trkpt lat="45.3891895" lon="7.7652783"><ele>403.0</ele><time>2026-04-25T16:02:48.224Z</time></trkpt><trkpt lat="45.3891961" lon="7.7654371"><ele>403.4</ele><time>2026-04-25T16:02:49.231Z</time></trkpt><trkpt lat="45.3891949" lon="7.7656145"><ele>403.79999999999995</ele><time>2026-04-25T16:02:50.222Z</time></trkpt><trkpt lat="45.3891782" lon="7.7657691"><ele>404.2</ele><time>2026-04-25T16:02:51.219Z</time></trkpt><trkpt lat="45.3891527" lon="7.7659016"><ele>404.6</ele><time>2026-04-25T16:02:52.226Z</time></trkpt><trkpt lat="45.389111" lon="7.7660135"><ele>405.0</ele><time>2026-04-25T16:02:53.238Z</time></trkpt><trkpt lat="45.3890558" lon="7.7661181"><ele>405.6</ele><time>2026-04-25T16:02:54.222Z</time></trkpt><trkpt lat="45.3889862" lon="7.7662334"><ele>406.2</ele><time>2026-04-25T16:02:55.216Z</time></trkpt><trkpt lat="45.3889172" lon="7.7663495"><ele>406.79999999999995</ele><time>2026-04-25T16:02:56.222Z</time></trkpt><trkpt lat="45.3888428" lon="7.766468"><ele>407.4</ele><time>2026-04-25T16:02:57.223Z</time></trkpt><trkpt lat="45.3887722" lon="7.7665804"><ele>408.0</ele><time>2026-04-25T16:02:58.223Z</time></trkpt><trkpt lat="45.3887188" lon="7.7667296"><ele>409.8333333333333</ele><time>2026-04-25T16:02:59.229Z</time></trkpt><trkpt lat="45.3886762" lon="7.7668418"><ele>411.66666666666663</ele><time>2026-04-25T16:03:00.228Z</time></trkpt><trkpt lat="45.3886479" lon="7.7669377"><ele>413.5</ele><time>2026-04-25T16:03:01.221Z</time></trkpt><trkpt lat="45.3886233" lon="7.7670414"><ele>415.3333333333333</ele><time>2026-04-25T16:03:02.23Z</time></trkpt><trkpt lat="45.3885908" lon="7.7671437"><ele>417.16666666666663</ele><time>2026-04-25T16:03:03.223Z</time></trkpt><trkpt lat="45.3885273" lon="7.7672432"><ele>419.0</ele><time>2026-04-25T16:03:04.219Z</time></trkpt><trkpt lat="45.3884793" lon="7.7673736"><ele>419.0</ele><time>2026-04-25T16:03:05.226Z</time></trkpt><trkpt lat="45.3884406" lon="7.7675245"><ele>419.0</ele><time>2026-04-25T16:03:06.23Z</time></trkpt><trkpt lat="45.3884306" lon="7.7677194"><ele>419.0</ele><time>2026-04-25T16:03:07.228Z</time></trkpt><trkpt lat="45.3884208" lon="7.7678966"><ele>419.0</ele><time>2026-04-25T16:03:08.227Z</time></trkpt><trkpt lat="45.3883923" lon="7.768057"><ele>419.0</ele><time>2026-04-25T16:03:09.222Z</time></trkpt><trkpt lat="45.3883579" lon="7.7682126"><ele>419.0</ele><time>2026-04-25T16:03:10.223Z</time></trkpt><trkpt lat="45.3883312" lon="7.7683584"><ele>419.0</ele><time>2026-04-25T16:03:11.223Z</time></trkpt><trkpt lat="45.3882906" lon="7.7685009"><ele>419.0</ele><time>2026-04-25T16:03:12.224Z</time></trkpt><trkpt lat="45.3882578" lon="7.7686434"><ele>419.0</ele><time>2026-04-25T16:03:13.223Z</time></trkpt><trkpt lat="45.3882439" lon="7.7687891"><ele>418.66666666666663</ele><time>2026-04-25T16:03:14.229Z</time></trkpt><trkpt lat="45.3882267" lon="7.7689108"><ele>418.3333333333333</ele><time>2026-04-25T16:03:15.218Z</time></trkpt><trkpt lat="45.3882027" lon="7.7690081"><ele>418.0</ele><time>2026-04-25T16:03:16.229Z</time></trkpt><trkpt lat="45.3881688" lon="7.7691141"><ele>417.66666666666663</ele><time>2026-04-25T16:03:17.234Z</time></trkpt><trkpt lat="45.3881465" lon="7.7692268"><ele>417.3333333333333</ele><time>2026-04-25T16:03:18.223Z</time></trkpt><trkpt lat="45.388132" lon="7.7693542"><ele>417.0</ele><time>2026-04-25T16:03:19.214Z</time></trkpt><trkpt lat="45.388115" lon="7.7694715"><ele>416.6</ele><time>2026-04-25T16:03:20.225Z</time></trkpt><trkpt lat="45.3880925" lon="7.7696047"><ele>416.20000000000005</ele><time>2026-04-25T16:03:21.222Z</time></trkpt><trkpt lat="45.3880589" lon="7.7697165"><ele>415.8</ele><time>2026-04-25T16:03:22.219Z</time></trkpt><trkpt lat="45.3880261" lon="7.7698242"><ele>415.4</ele><time>2026-04-25T16:03:23.236Z</time></trkpt><trkpt lat="45.3879892" lon="7.76994"><ele>415.0</ele><time>2026-04-25T16:03:24.226Z</time></trkpt><trkpt lat="45.3879923" lon="7.7700786"><ele>416.4</ele><time>2026-04-25T16:03:25.227Z</time></trkpt><trkpt lat="45.3879826" lon="7.7702148"><ele>417.8</ele><time>2026-04-25T16:03:26.22Z</time></trkpt><trkpt lat="45.387995" lon="7.7703473"><ele>419.20000000000005</ele><time>2026-04-25T16:03:27.216Z</time></trkpt><trkpt lat="45.3880163" lon="7.770477"><ele>420.6</ele><time>2026-04-25T16:03:28.215Z</time></trkpt><trkpt lat="45.3880396" lon="7.7706059"><ele>422.0</ele><time>2026-04-25T16:03:29.211Z</time></trkpt><trkpt lat="45.3880804" lon="7.7707312"><ele>421.99999999999994</ele><time>2026-04-25T16:03:30.212Z</time></trkpt><trkpt lat="45.3881444" lon="7.7708405"><ele>422.0</ele><time>2026-04-25T16:03:31.217Z</time></trkpt><trkpt lat="45.3881819" lon="7.7709461"><ele>422.0</ele><time>2026-04-25T16:03:32.216Z</time></trkpt><trkpt lat="45.3882304" lon="7.7710074"><ele>422.0</ele><time>2026-04-25T16:03:34.218Z</time></trkpt><trkpt lat="45.3882579" lon="7.7711002"><ele>421.99999999999994</ele><time>2026-04-25T16:03:38.218Z</time></trkpt><trkpt lat="45.3882609" lon="7.7712291"><ele>422.0</ele><time>2026-04-25T16:03:42.233Z</time></trkpt><trkpt lat="45.3882683" lon="7.7713701"><ele>422.8</ele><time>2026-04-25T16:03:45.232Z</time></trkpt><trkpt lat="45.3883127" lon="7.7714402"><ele>423.6</ele><time>2026-04-25T16:03:47.233Z</time></trkpt><trkpt lat="45.388342" lon="7.7715331"><ele>424.40000000000003</ele><time>2026-04-25T16:03:49.227Z</time></trkpt><trkpt lat="45.3883673" lon="7.7716383"><ele>425.20000000000005</ele><time>2026-04-25T16:03:50.223Z</time></trkpt><trkpt lat="45.3884073" lon="7.7717603"><ele>426.0</ele><time>2026-04-25T16:03:51.226Z</time></trkpt><trkpt lat="45.3885012" lon="7.7719149"><ele>426.6666666666667</ele><time>2026-04-25T16:03:53.243Z</time></trkpt><trkpt lat="45.3885573" lon="7.7719686"><ele>427.33333333333337</ele><time>2026-04-25T16:03:54.231Z</time></trkpt><trkpt lat="45.3886043" lon="7.772038"><ele>428.0</ele><time>2026-04-25T16:03:55.228Z</time></trkpt><trkpt lat="45.3886356" lon="7.7721683"><ele>428.6666666666667</ele><time>2026-04-25T16:03:57.239Z</time></trkpt><trkpt lat="45.3886187" lon="7.7722926"><ele>429.33333333333337</ele><time>2026-04-25T16:03:59.231Z</time></trkpt><trkpt lat="45.3885095" lon="7.7723505"><ele>430.0</ele><time>2026-04-25T16:04:01.235Z</time></trkpt><trkpt lat="45.3883696" lon="7.7724637"><ele>430.00000000000006</ele><time>2026-04-25T16:04:03.238Z</time></trkpt><trkpt lat="45.3882865" lon="7.7725476"><ele>430.0</ele><time>2026-04-25T16:04:04.235Z</time></trkpt><trkpt lat="45.3882303" lon="7.7726204"><ele>430.0</ele><time>2026-04-25T16:04:05.238Z</time></trkpt><trkpt lat="45.3881753" lon="7.7726919"><ele>430.0</ele><time>2026-04-25T16:04:06.231Z</time></trkpt><trkpt lat="45.3881126" lon="7.7727487"><ele>430.00000000000006</ele><time>2026-04-25T16:04:07.231Z</time></trkpt><trkpt lat="45.3880533" lon="7.772783"><ele>430.0</ele><time>2026-04-25T16:04:08.223Z</time></trkpt><trkpt lat="45.3880045" lon="7.7728408"><ele>430.1666666666667</ele><time>2026-04-25T16:04:09.224Z</time></trkpt><trkpt lat="45.3879819" lon="7.7729294"><ele>430.33333333333337</ele><time>2026-04-25T16:04:10.231Z</time></trkpt><trkpt lat="45.3879853" lon="7.7730516"><ele>430.5</ele><time>2026-04-25T16:04:11.231Z</time></trkpt><trkpt lat="45.3879915" lon="7.7732089"><ele>430.66666666666663</ele><time>2026-04-25T16:04:12.227Z</time></trkpt><trkpt lat="45.3880106" lon="7.7733561"><ele>430.8333333333333</ele><time>2026-04-25T16:04:13.231Z</time></trkpt><trkpt lat="45.3879801" lon="7.7734502"><ele>431.0</ele><time>2026-04-25T16:04:14.223Z</time></trkpt><trkpt lat="45.3879329" lon="7.7735552"><ele>431.3333333333333</ele><time>2026-04-25T16:04:15.229Z</time></trkpt><trkpt lat="45.3878669" lon="7.7736454"><ele>431.66666666666663</ele><time>2026-04-25T16:04:16.225Z</time></trkpt><trkpt lat="45.3878086" lon="7.7737136"><ele>432.0</ele><time>2026-04-25T16:04:17.23Z</time></trkpt><trkpt lat="45.3877485" lon="7.773786"><ele>432.33333333333337</ele><time>2026-04-25T16:04:18.239Z</time></trkpt><trkpt lat="45.3876919" lon="7.7738631"><ele>432.6666666666667</ele><time>2026-04-25T16:04:19.231Z</time></trkpt><trkpt lat="45.3876152" lon="7.7739845"><ele>433.0</ele><time>2026-04-25T16:04:21.228Z</time></trkpt><trkpt lat="45.3875434" lon="7.7740577"><ele>433.00000000000006</ele><time>2026-04-25T16:04:23.236Z</time></trkpt><trkpt lat="45.3874028" lon="7.7740599"><ele>433.0</ele><time>2026-04-25T16:04:25.233Z</time></trkpt><trkpt lat="45.3873273" lon="7.7740357"><ele>433.0</ele><time>2026-04-25T16:04:26.229Z</time></trkpt><trkpt lat="45.3872542" lon="7.7740102"><ele>433.0</ele><time>2026-04-25T16:04:27.232Z</time></trkpt><trkpt lat="45.3871886" lon="7.7739953"><ele>433.00000000000006</ele><time>2026-04-25T16:04:28.237Z</time></trkpt><trkpt lat="45.387119" lon="7.7739824"><ele>433.0</ele><time>2026-04-25T16:04:29.231Z</time></trkpt><trkpt lat="45.3870026" lon="7.7739988"><ele>432.33333333333337</ele><time>2026-04-25T16:04:31.223Z</time></trkpt><trkpt lat="45.3869363" lon="7.774039"><ele>431.6666666666667</ele><time>2026-04-25T16:04:33.229Z</time></trkpt><trkpt lat="45.3868918" lon="7.7741196"><ele>431.0</ele><time>2026-04-25T16:04:46.234Z</time></trkpt><trkpt lat="45.3868215" lon="7.7741419"><ele>430.33333333333337</ele><time>2026-04-25T16:05:13.233Z</time></trkpt><trkpt lat="45.386752" lon="7.7741308"><ele>429.6666666666667</ele><time>2026-04-25T16:05:15.234Z</time></trkpt><trkpt lat="45.386607" lon="7.7740902"><ele>429.0</ele><time>2026-04-25T16:05:17.22Z</time></trkpt><trkpt lat="45.3865351" lon="7.7740809"><ele>429.0</ele><time>2026-04-25T16:05:18.229Z</time></trkpt><trkpt lat="45.3864277" lon="7.774065"><ele>429.0</ele><time>2026-04-25T16:05:20.236Z</time></trkpt><trkpt lat="45.3863597" lon="7.7740532"><ele>429.0</ele><time>2026-04-25T16:05:22.219Z</time></trkpt><trkpt lat="45.3862856" lon="7.7740247"><ele>429.0</ele><time>2026-04-25T16:05:24.224Z</time></trkpt><trkpt lat="45.3861988" lon="7.7739634"><ele>429.0</ele><time>2026-04-25T16:05:26.223Z</time></trkpt><trkpt lat="45.386134" lon="7.7739185"><ele>429.0</ele><time>2026-04-25T16:05:27.226Z</time></trkpt><trkpt lat="45.3860586" lon="7.7738935"><ele>429.6</ele><time>2026-04-25T16:05:28.226Z</time></trkpt><trkpt lat="45.3859856" lon="7.7738835"><ele>430.2</ele><time>2026-04-25T16:05:29.228Z</time></trkpt><trkpt lat="45.3858789" lon="7.7738754"><ele>430.80000000000007</ele><time>2026-04-25T16:05:31.229Z</time></trkpt><trkpt lat="45.385782" lon="7.7739726"><ele>431.40000000000003</ele><time>2026-04-25T16:05:33.23Z</time></trkpt><trkpt lat="45.3857184" lon="7.7740378"><ele>432.0</ele><time>2026-04-25T16:05:34.227Z</time></trkpt><trkpt lat="45.3856537" lon="7.774092"><ele>432.0</ele><time>2026-04-25T16:05:35.228Z</time></trkpt><trkpt lat="45.3855661" lon="7.7741635"><ele>432.0</ele><time>2026-04-25T16:05:37.222Z</time></trkpt><trkpt lat="45.3855155" lon="7.7742343"><ele>432.0</ele><time>2026-04-25T16:05:39.219Z</time></trkpt><trkpt lat="45.3855069" lon="7.7744031"><ele>432.0</ele><time>2026-04-25T16:05:41.222Z</time></trkpt><trkpt lat="45.3854937" lon="7.7744969"><ele>432.0</ele><time>2026-04-25T16:05:42.213Z</time></trkpt><trkpt lat="45.3854834" lon="7.7746157"><ele>432.0</ele><time>2026-04-25T16:05:43.213Z</time></trkpt><trkpt lat="45.3854744" lon="7.7747135"><ele>433.8333333333333</ele><time>2026-04-25T16:05:44.213Z</time></trkpt><trkpt lat="45.3854636" lon="7.7748188"><ele>435.66666666666663</ele><time>2026-04-25T16:05:45.214Z</time></trkpt><trkpt lat="45.3854464" lon="7.7749269"><ele>437.5</ele><time>2026-04-25T16:05:46.207Z</time></trkpt><trkpt lat="45.3854118" lon="7.7751113"><ele>439.3333333333333</ele><time>2026-04-25T16:05:48.204Z</time></trkpt><trkpt lat="45.3853832" lon="7.7752115"><ele>441.16666666666663</ele><time>2026-04-25T16:05:49.21Z</time></trkpt><trkpt lat="45.3853286" lon="7.7752805"><ele>443.0</ele><time>2026-04-25T16:05:50.207Z</time></trkpt><trkpt lat="45.3852916" lon="7.7753579"><ele>444.2</ele><time>2026-04-25T16:05:51.216Z</time></trkpt><trkpt lat="45.3852903" lon="7.7755384"><ele>445.4</ele><time>2026-04-25T16:05:53.219Z</time></trkpt><trkpt lat="45.3852752" lon="7.7756301"><ele>446.59999999999997</ele><time>2026-04-25T16:05:54.208Z</time></trkpt><trkpt lat="45.3852668" lon="7.7757217"><ele>447.79999999999995</ele><time>2026-04-25T16:05:55.207Z</time></trkpt><trkpt lat="45.3852564" lon="7.7758686"><ele>449.0</ele><time>2026-04-25T16:05:57.215Z</time></trkpt><trkpt lat="45.3852259" lon="7.7759942"><ele>448.66666666666663</ele><time>2026-04-25T16:05:59.216Z</time></trkpt><trkpt lat="45.3852174" lon="7.7761104"><ele>448.3333333333333</ele><time>2026-04-25T16:06:01.215Z</time></trkpt><trkpt lat="45.3851928" lon="7.7762469"><ele>448.0</ele><time>2026-04-25T16:06:03.214Z</time></trkpt><trkpt lat="45.3851628" lon="7.776336"><ele>447.66666666666663</ele><time>2026-04-25T16:06:04.209Z</time></trkpt><trkpt lat="45.3851393" lon="7.7764194"><ele>447.3333333333333</ele><time>2026-04-25T16:06:05.212Z</time></trkpt><trkpt lat="45.3851555" lon="7.7765536"><ele>447.0</ele><time>2026-04-25T16:06:07.217Z</time></trkpt><trkpt lat="45.3851579" lon="7.7766562"><ele>447.0</ele><time>2026-04-25T16:06:09.212Z</time></trkpt><trkpt lat="45.3851048" lon="7.7767912"><ele>447.00000000000006</ele><time>2026-04-25T16:06:11.208Z</time></trkpt><trkpt lat="45.3850852" lon="7.7768797"><ele>447.00000000000006</ele><time>2026-04-25T16:06:12.213Z</time></trkpt><trkpt lat="45.3850675" lon="7.7769754"><ele>447.0</ele><time>2026-04-25T16:06:13.216Z</time></trkpt><trkpt lat="45.3850407" lon="7.7771173"><ele>447.0</ele><time>2026-04-25T16:06:15.22Z</time></trkpt><trkpt lat="45.3850012" lon="7.7772612"><ele>447.0</ele><time>2026-04-25T16:06:17.212Z</time></trkpt><trkpt lat="45.3849962" lon="7.7773715"><ele>447.0</ele><time>2026-04-25T16:06:18.21Z</time></trkpt><trkpt lat="45.3849994" lon="7.7775149"><ele>447.0</ele><time>2026-04-25T16:06:19.212Z</time></trkpt><trkpt lat="45.3849801" lon="7.7776385"><ele>447.0</ele><time>2026-04-25T16:06:20.211Z</time></trkpt><trkpt lat="45.3849678" lon="7.7777662"><ele>447.0</ele><time>2026-04-25T16:06:21.215Z</time></trkpt><trkpt lat="45.3849531" lon="7.7778743"><ele>447.0</ele><time>2026-04-25T16:06:22.222Z</time></trkpt><trkpt lat="45.3849276" lon="7.7779721"><ele>447.0</ele><time>2026-04-25T16:06:23.223Z</time></trkpt><trkpt lat="45.3848798" lon="7.7780587"><ele>447.0</ele><time>2026-04-25T16:06:24.214Z</time></trkpt><trkpt lat="45.3848217" lon="7.7781373"><ele>447.0</ele><time>2026-04-25T16:06:25.22Z</time></trkpt><trkpt lat="45.3847805" lon="7.7782175"><ele>447.0</ele><time>2026-04-25T16:06:26.219Z</time></trkpt><trkpt lat="45.3847309" lon="7.7782925"><ele>447.0</ele><time>2026-04-25T16:06:28.222Z</time></trkpt><trkpt lat="45.384681" lon="7.7783715"><ele>447.0</ele><time>2026-04-25T16:06:30.22Z</time></trkpt><trkpt lat="45.3846009" lon="7.7784879"><ele>447.8333333333333</ele><time>2026-04-25T16:06:32.217Z</time></trkpt><trkpt lat="45.3845534" lon="7.7785575"><ele>448.66666666666663</ele><time>2026-04-25T16:06:33.217Z</time></trkpt><trkpt lat="45.3844865" lon="7.7786612"><ele>449.5</ele><time>2026-04-25T16:06:35.216Z</time></trkpt><trkpt lat="45.3844283" lon="7.7787303"><ele>450.3333333333333</ele><time>2026-04-25T16:06:54.226Z</time></trkpt><trkpt lat="45.3843794" lon="7.7788241"><ele>451.16666666666663</ele><time>2026-04-25T16:07:07.224Z</time></trkpt><trkpt lat="45.384355" lon="7.7789105"><ele>452.0</ele><time>2026-04-25T16:07:22.231Z</time></trkpt><trkpt lat="45.3842892" lon="7.7789462"><ele>451.99999999999994</ele><time>2026-04-25T16:07:30.206Z</time></trkpt><trkpt lat="45.3842963" lon="7.7790478"><ele>452.0</ele><time>2026-04-25T16:07:34.216Z</time></trkpt><trkpt lat="45.3842638" lon="7.779134"><ele>452.0</ele><time>2026-04-25T16:07:36.214Z</time></trkpt><trkpt lat="45.3842626" lon="7.7792383"><ele>452.0</ele><time>2026-04-25T16:07:38.211Z</time></trkpt><trkpt lat="45.3842266" lon="7.7793608"><ele>451.99999999999994</ele><time>2026-04-25T16:07:40.222Z</time></trkpt><trkpt lat="45.384209" lon="7.7794486"><ele>452.0</ele><time>2026-04-25T16:07:42.212Z</time></trkpt><trkpt lat="45.3842048" lon="7.7796524"><ele>451.8</ele><time>2026-04-25T16:07:44.213Z</time></trkpt><trkpt lat="45.384208" lon="7.779807"><ele>451.6</ele><time>2026-04-25T16:07:45.218Z</time></trkpt><trkpt lat="45.3842059" lon="7.7799625"><ele>451.40000000000003</ele><time>2026-04-25T16:07:46.206Z</time></trkpt><trkpt lat="45.3841915" lon="7.7801202"><ele>451.20000000000005</ele><time>2026-04-25T16:07:47.207Z</time></trkpt><trkpt lat="45.3841679" lon="7.7802806"><ele>451.0</ele><time>2026-04-25T16:07:48.205Z</time></trkpt><trkpt lat="45.3841524" lon="7.7804196"><ele>452.0</ele><time>2026-04-25T16:07:49.212Z</time></trkpt><trkpt lat="45.3841548" lon="7.7805553"><ele>453.0</ele><time>2026-04-25T16:07:50.211Z</time></trkpt><trkpt lat="45.3841455" lon="7.7806914"><ele>454.0</ele><time>2026-04-25T16:07:51.213Z</time></trkpt><trkpt lat="45.3841417" lon="7.780847"><ele>455.0</ele><time>2026-04-25T16:07:52.221Z</time></trkpt><trkpt lat="45.3841406" lon="7.7809676"><ele>456.0</ele><time>2026-04-25T16:07:53.227Z</time></trkpt><trkpt lat="45.3841371" lon="7.7810674"><ele>458.0</ele><time>2026-04-25T16:07:54.217Z</time></trkpt><trkpt lat="45.3841368" lon="7.781224"><ele>460.0</ele><time>2026-04-25T16:07:56.212Z</time></trkpt><trkpt lat="45.3841681" lon="7.7813301"><ele>462.0</ele><time>2026-04-25T16:07:57.215Z</time></trkpt><trkpt lat="45.3842075" lon="7.7814655"><ele>464.0</ele><time>2026-04-25T16:07:58.217Z</time></trkpt><trkpt lat="45.3842344" lon="7.7815849"><ele>466.0</ele><time>2026-04-25T16:07:59.212Z</time></trkpt><trkpt lat="45.3842728" lon="7.7817193"><ele>466.6666666666667</ele><time>2026-04-25T16:08:00.217Z</time></trkpt><trkpt lat="45.3843137" lon="7.7818526"><ele>467.33333333333337</ele><time>2026-04-25T16:08:01.219Z</time></trkpt><trkpt lat="45.3843251" lon="7.7819771"><ele>468.0</ele><time>2026-04-25T16:08:02.215Z</time></trkpt><trkpt lat="45.3843148" lon="7.7820782"><ele>468.66666666666663</ele><time>2026-04-25T16:08:03.212Z</time></trkpt><trkpt lat="45.3843099" lon="7.7821883"><ele>469.3333333333333</ele><time>2026-04-25T16:08:04.208Z</time></trkpt><trkpt lat="45.3843145" lon="7.7823026"><ele>470.0</ele><time>2026-04-25T16:08:05.208Z</time></trkpt><trkpt lat="45.384312" lon="7.7824219"><ele>469.99999999999994</ele><time>2026-04-25T16:08:06.205Z</time></trkpt><trkpt lat="45.3842954" lon="7.7825093"><ele>470.0</ele><time>2026-04-25T16:08:07.199Z</time></trkpt><trkpt lat="45.3842875" lon="7.78261"><ele>470.0</ele><time>2026-04-25T16:08:08.206Z</time></trkpt><trkpt lat="45.3842721" lon="7.7827024"><ele>470.0</ele><time>2026-04-25T16:08:09.205Z</time></trkpt><trkpt lat="45.3842421" lon="7.7828612"><ele>469.99999999999994</ele><time>2026-04-25T16:08:11.208Z</time></trkpt><trkpt lat="45.3841461" lon="7.7829769"><ele>470.0</ele><time>2026-04-25T16:08:13.207Z</time></trkpt><trkpt lat="45.3840762" lon="7.7830367"><ele>470.16666666666663</ele><time>2026-04-25T16:08:14.211Z</time></trkpt><trkpt lat="45.3840381" lon="7.783129"><ele>470.3333333333333</ele><time>2026-04-25T16:08:15.214Z</time></trkpt><trkpt lat="45.3840046" lon="7.7832056"><ele>470.5</ele><time>2026-04-25T16:08:16.212Z</time></trkpt><trkpt lat="45.3839442" lon="7.7833144"><ele>470.66666666666663</ele><time>2026-04-25T16:08:18.211Z</time></trkpt><trkpt lat="45.3839263" lon="7.783402"><ele>470.8333333333333</ele><time>2026-04-25T16:08:44.229Z</time></trkpt><trkpt lat="45.383896" lon="7.7834923"><ele>471.0</ele><time>2026-04-25T16:10:20.246Z</time></trkpt><trkpt lat="45.3838735" lon="7.783624"><ele>471.20000000000005</ele><time>2026-04-25T16:10:49.226Z</time></trkpt><trkpt lat="45.3838628" lon="7.7837199"><ele>471.40000000000003</ele><time>2026-04-25T16:10:50.22Z</time></trkpt><trkpt lat="45.3838581" lon="7.7838454"><ele>471.6</ele><time>2026-04-25T16:10:51.22Z</time></trkpt><trkpt lat="45.3838408" lon="7.7840063"><ele>471.8</ele><time>2026-04-25T16:10:52.228Z</time></trkpt><trkpt lat="45.3838223" lon="7.784144"><ele>472.0</ele><time>2026-04-25T16:10:53.237Z</time></trkpt><trkpt lat="45.3838213" lon="7.7842595"><ele>473.42857142857144</ele><time>2026-04-25T16:10:54.224Z</time></trkpt><trkpt lat="45.3838029" lon="7.7843556"><ele>474.8571428571429</ele><time>2026-04-25T16:10:55.226Z</time></trkpt><trkpt lat="45.3837863" lon="7.7844583"><ele>476.28571428571433</ele><time>2026-04-25T16:10:56.227Z</time></trkpt><trkpt lat="45.3837876" lon="7.7845537"><ele>477.7142857142857</ele><time>2026-04-25T16:10:57.226Z</time></trkpt><trkpt lat="45.3837811" lon="7.784655"><ele>479.1428571428572</ele><time>2026-04-25T16:10:58.234Z</time></trkpt><trkpt lat="45.3837731" lon="7.7847659"><ele>480.5714285714286</ele><time>2026-04-25T16:10:59.227Z</time></trkpt><trkpt lat="45.3837745" lon="7.7848817"><ele>482.0</ele><time>2026-04-25T16:11:00.241Z</time></trkpt><trkpt lat="45.383778" lon="7.7849832"><ele>481.99999999999994</ele><time>2026-04-25T16:11:01.228Z</time></trkpt><trkpt lat="45.3838014" lon="7.7850941"><ele>482.0</ele><time>2026-04-25T16:11:02.218Z</time></trkpt><trkpt lat="45.3838321" lon="7.7852102"><ele>482.0</ele><time>2026-04-25T16:11:03.234Z</time></trkpt><trkpt lat="45.3838769" lon="7.7853307"><ele>482.0</ele><time>2026-04-25T16:11:04.23Z</time></trkpt><trkpt lat="45.3839162" lon="7.7854264"><ele>481.99999999999994</ele><time>2026-04-25T16:11:05.228Z</time></trkpt><trkpt lat="45.3839485" lon="7.7855245"><ele>482.0</ele><time>2026-04-25T16:11:06.226Z</time></trkpt><trkpt lat="45.3839787" lon="7.7856318"><ele>481.8333333333333</ele><time>2026-04-25T16:11:07.224Z</time></trkpt><trkpt lat="45.3839957" lon="7.7857545"><ele>481.66666666666663</ele><time>2026-04-25T16:11:08.22Z</time></trkpt><trkpt lat="45.3839906" lon="7.7858738"><ele>481.5</ele><time>2026-04-25T16:11:09.209Z</time></trkpt><trkpt lat="45.3840045" lon="7.7859875"><ele>481.33333333333337</ele><time>2026-04-25T16:11:10.216Z</time></trkpt><trkpt lat="45.3840215" lon="7.7861035"><ele>481.1666666666667</ele><time>2026-04-25T16:11:11.207Z</time></trkpt><trkpt lat="45.3840456" lon="7.7862317"><ele>481.0</ele><time>2026-04-25T16:11:12.215Z</time></trkpt><trkpt lat="45.3840564" lon="7.7863519"><ele>481.00000000000006</ele><time>2026-04-25T16:11:13.214Z</time></trkpt><trkpt lat="45.384065" lon="7.7864575"><ele>481.0</ele><time>2026-04-25T16:11:14.215Z</time></trkpt><trkpt lat="45.3840771" lon="7.7865721"><ele>481.0</ele><time>2026-04-25T16:11:15.211Z</time></trkpt><trkpt lat="45.3840982" lon="7.7867048"><ele>481.0</ele><time>2026-04-25T16:11:16.214Z</time></trkpt><trkpt lat="45.3841093" lon="7.7868031"><ele>481.00000000000006</ele><time>2026-04-25T16:11:17.218Z</time></trkpt><trkpt lat="45.384148" lon="7.7869271"><ele>481.0</ele><time>2026-04-25T16:11:19.216Z</time></trkpt><trkpt lat="45.3842027" lon="7.7870241"><ele>483.20000000000005</ele><time>2026-04-25T16:11:21.223Z</time></trkpt><trkpt lat="45.3842404" lon="7.7871911"><ele>485.40000000000003</ele><time>2026-04-25T16:11:23.228Z</time></trkpt><trkpt lat="45.3841969" lon="7.7872852"><ele>487.6</ele><time>2026-04-25T16:11:25.214Z</time></trkpt><trkpt lat="45.3840865" lon="7.7873178"><ele>489.8</ele><time>2026-04-25T16:11:27.219Z</time></trkpt><trkpt lat="45.384019" lon="7.7873338"><ele>492.0</ele><time>2026-04-25T16:11:28.212Z</time></trkpt><trkpt lat="45.3839403" lon="7.7873606"><ele>492.0</ele><time>2026-04-25T16:11:30.219Z</time></trkpt><trkpt lat="45.3838644" lon="7.7873544"><ele>492.0</ele><time>2026-04-25T16:11:32.222Z</time></trkpt><trkpt lat="45.3838266" lon="7.7874804"><ele>492.0</ele><time>2026-04-25T16:11:34.218Z</time></trkpt><trkpt lat="45.3838099" lon="7.787573"><ele>492.0</ele><time>2026-04-25T16:11:35.222Z</time></trkpt><trkpt lat="45.3837939" lon="7.7876842"><ele>492.0</ele><time>2026-04-25T16:11:36.228Z</time></trkpt><trkpt lat="45.3837915" lon="7.787825"><ele>492.0</ele><time>2026-04-25T16:11:37.224Z</time></trkpt><trkpt lat="45.3837954" lon="7.7879658"><ele>493.0</ele><time>2026-04-25T16:11:38.227Z</time></trkpt><trkpt lat="45.3838064" lon="7.7880914"><ele>494.0</ele><time>2026-04-25T16:11:39.227Z</time></trkpt><trkpt lat="45.3838117" lon="7.7881939"><ele>495.0</ele><time>2026-04-25T16:11:40.228Z</time></trkpt><trkpt lat="45.3838299" lon="7.7882982"><ele>496.0</ele><time>2026-04-25T16:11:41.224Z</time></trkpt><trkpt lat="45.3838475" lon="7.788398"><ele>497.0</ele><time>2026-04-25T16:11:42.226Z</time></trkpt><trkpt lat="45.3838562" lon="7.7885105"><ele>498.0</ele><time>2026-04-25T16:11:43.226Z</time></trkpt><trkpt lat="45.3838539" lon="7.7886213"><ele>498.0</ele><time>2026-04-25T16:11:44.227Z</time></trkpt><trkpt lat="45.3838487" lon="7.7887278"><ele>498.0</ele><time>2026-04-25T16:11:45.233Z</time></trkpt><trkpt lat="45.3838323" lon="7.7888593"><ele>498.0</ele><time>2026-04-25T16:11:46.233Z</time></trkpt><trkpt lat="45.3838094" lon="7.7889632"><ele>498.0</ele><time>2026-04-25T16:11:47.233Z</time></trkpt><trkpt lat="45.3837966" lon="7.789062"><ele>498.0</ele><time>2026-04-25T16:11:48.238Z</time></trkpt><trkpt lat="45.3837782" lon="7.7891921"><ele>498.0</ele><time>2026-04-25T16:11:50.235Z</time></trkpt><trkpt lat="45.3838234" lon="7.789298"><ele>497.1666666666667</ele><time>2026-04-25T16:11:52.241Z</time></trkpt><trkpt lat="45.3838767" lon="7.7893457"><ele>496.33333333333337</ele><time>2026-04-25T16:11:53.241Z</time></trkpt><trkpt lat="45.3839392" lon="7.7893709"><ele>495.5</ele><time>2026-04-25T16:11:54.239Z</time></trkpt><trkpt lat="45.384016" lon="7.7893775"><ele>494.6666666666667</ele><time>2026-04-25T16:11:55.239Z</time></trkpt><trkpt lat="45.3840969" lon="7.7893792"><ele>493.83333333333337</ele><time>2026-04-25T16:11:56.239Z</time></trkpt><trkpt lat="45.3841973" lon="7.7893662"><ele>493.0</ele><time>2026-04-25T16:11:57.232Z</time></trkpt><trkpt lat="45.384293" lon="7.789345"><ele>492.6666666666667</ele><time>2026-04-25T16:11:58.231Z</time></trkpt><trkpt lat="45.384378" lon="7.7893038"><ele>492.33333333333337</ele><time>2026-04-25T16:11:59.23Z</time></trkpt><trkpt lat="45.3844611" lon="7.7892442"><ele>492.0</ele><time>2026-04-25T16:12:00.236Z</time></trkpt><trkpt lat="45.3845181" lon="7.7891546"><ele>491.66666666666663</ele><time>2026-04-25T16:12:01.235Z</time></trkpt><trkpt lat="45.3845698" lon="7.7890794"><ele>491.3333333333333</ele><time>2026-04-25T16:12:02.234Z</time></trkpt><trkpt lat="45.3846439" lon="7.7890718"><ele>491.0</ele><time>2026-04-25T16:12:04.222Z</time></trkpt><trkpt lat="45.3846893" lon="7.7892643"><ele>490.4</ele><time>2026-04-25T16:12:06.222Z</time></trkpt><trkpt lat="45.3846996" lon="7.7893828"><ele>489.8</ele><time>2026-04-25T16:12:07.223Z</time></trkpt><trkpt lat="45.3847265" lon="7.7895145"><ele>489.19999999999993</ele><time>2026-04-25T16:12:08.225Z</time></trkpt><trkpt lat="45.384744" lon="7.7896317"><ele>488.59999999999997</ele><time>2026-04-25T16:12:09.228Z</time></trkpt><trkpt lat="45.3847559" lon="7.7897403"><ele>488.0</ele><time>2026-04-25T16:12:10.234Z</time></trkpt><trkpt lat="45.3847759" lon="7.7899026"><ele>488.0</ele><time>2026-04-25T16:12:12.237Z</time></trkpt><trkpt lat="45.3847967" lon="7.7900585"><ele>487.99999999999994</ele><time>2026-04-25T16:12:14.239Z</time></trkpt><trkpt lat="45.3848319" lon="7.7901923"><ele>487.99999999999994</ele><time>2026-04-25T16:12:16.238Z</time></trkpt><trkpt lat="45.3848924" lon="7.7903331"><ele>488.0</ele><time>2026-04-25T16:12:18.23Z</time></trkpt><trkpt lat="45.3849305" lon="7.7904217"><ele>488.0</ele><time>2026-04-25T16:12:20.233Z</time></trkpt><trkpt lat="45.3849699" lon="7.7905099"><ele>487.99999999999994</ele><time>2026-04-25T16:13:06.235Z</time></trkpt><trkpt lat="45.3850237" lon="7.7906011"><ele>488.0</ele><time>2026-04-25T16:13:09.245Z</time></trkpt><trkpt lat="45.3850352" lon="7.7905003"><ele>488.0</ele><time>2026-04-25T16:13:39.241Z</time></trkpt><trkpt lat="45.3849747" lon="7.7903552"><ele>488.0</ele><time>2026-04-25T16:13:41.246Z</time></trkpt><trkpt lat="45.3849345" lon="7.7902715"><ele>487.99999999999994</ele><time>2026-04-25T16:13:42.245Z</time></trkpt><trkpt lat="45.384873" lon="7.7901579"><ele>488.0</ele><time>2026-04-25T16:13:43.24Z</time></trkpt><trkpt lat="45.3848334" lon="7.7900344"><ele>488.0</ele><time>2026-04-25T16:13:44.245Z</time></trkpt><trkpt lat="45.3848034" lon="7.7899065"><ele>487.99999999999994</ele><time>2026-04-25T16:13:45.24Z</time></trkpt><trkpt lat="45.3847887" lon="7.7897961"><ele>487.99999999999994</ele><time>2026-04-25T16:13:46.243Z</time></trkpt><trkpt lat="45.3847771" lon="7.7897065"><ele>488.0</ele><time>2026-04-25T16:13:47.243Z</time></trkpt><trkpt lat="45.3847581" lon="7.7895444"><ele>488.0</ele><time>2026-04-25T16:13:49.24Z</time></trkpt><trkpt lat="45.3847198" lon="7.7893888"><ele>488.59999999999997</ele><time>2026-04-25T16:13:51.243Z</time></trkpt><trkpt lat="45.3847006" lon="7.7893019"><ele>489.19999999999993</ele><time>2026-04-25T16:13:52.241Z</time></trkpt><trkpt lat="45.3846387" lon="7.7891449"><ele>489.8</ele><time>2026-04-25T16:13:54.234Z</time></trkpt><trkpt lat="45.3845635" lon="7.7890688"><ele>490.4</ele><time>2026-04-25T16:13:56.23Z</time></trkpt><trkpt lat="45.3844869" lon="7.7891154"><ele>491.0</ele><time>2026-04-25T16:13:58.241Z</time></trkpt><trkpt lat="45.3843671" lon="7.7892311"><ele>491.3333333333333</ele><time>2026-04-25T16:14:00.228Z</time></trkpt><trkpt lat="45.3842869" lon="7.7892914"><ele>491.66666666666663</ele><time>2026-04-25T16:14:01.237Z</time></trkpt><trkpt lat="45.3842169" lon="7.7893144"><ele>492.0</ele><time>2026-04-25T16:14:02.231Z</time></trkpt><trkpt lat="45.3841291" lon="7.7893426"><ele>492.33333333333337</ele><time>2026-04-25T16:14:03.228Z</time></trkpt><trkpt lat="45.384046" lon="7.789333"><ele>492.6666666666667</ele><time>2026-04-25T16:14:04.237Z</time></trkpt><trkpt lat="45.3839612" lon="7.7893224"><ele>493.0</ele><time>2026-04-25T16:14:05.233Z</time></trkpt><trkpt lat="45.3838828" lon="7.7893021"><ele>494.6666666666667</ele><time>2026-04-25T16:14:06.264Z</time></trkpt><trkpt lat="45.3838048" lon="7.7892999"><ele>496.33333333333337</ele><time>2026-04-25T16:14:07.238Z</time></trkpt><trkpt lat="45.3837407" lon="7.7893209"><ele>498.0</ele><time>2026-04-25T16:14:08.236Z</time></trkpt><trkpt lat="45.3836773" lon="7.7893604"><ele>499.66666666666663</ele><time>2026-04-25T16:14:09.236Z</time></trkpt><trkpt lat="45.3836216" lon="7.7894328"><ele>501.3333333333333</ele><time>2026-04-25T16:14:10.24Z</time></trkpt><trkpt lat="45.3835643" lon="7.7895275"><ele>503.0</ele><time>2026-04-25T16:14:11.241Z</time></trkpt><trkpt lat="45.3835054" lon="7.7896302"><ele>502.99999999999994</ele><time>2026-04-25T16:14:12.236Z</time></trkpt><trkpt lat="45.3834631" lon="7.7897328"><ele>503.0</ele><time>2026-04-25T16:14:13.234Z</time></trkpt><trkpt lat="45.3834378" lon="7.7898484"><ele>503.0</ele><time>2026-04-25T16:14:14.235Z</time></trkpt><trkpt lat="45.3834136" lon="7.7899525"><ele>503.0</ele><time>2026-04-25T16:14:15.234Z</time></trkpt><trkpt lat="45.3833782" lon="7.790042"><ele>502.99999999999994</ele><time>2026-04-25T16:14:16.223Z</time></trkpt><trkpt lat="45.3833386" lon="7.7901879"><ele>503.0</ele><time>2026-04-25T16:14:18.237Z</time></trkpt><trkpt lat="45.3833313" lon="7.7903733"><ele>502.4</ele><time>2026-04-25T16:14:20.247Z</time></trkpt><trkpt lat="45.3832974" lon="7.7905712"><ele>501.79999999999995</ele><time>2026-04-25T16:14:22.235Z</time></trkpt><trkpt lat="45.3832572" lon="7.7906903"><ele>501.2</ele><time>2026-04-25T16:14:23.247Z</time></trkpt><trkpt lat="45.3832153" lon="7.7908117"><ele>500.6</ele><time>2026-04-25T16:14:24.241Z</time></trkpt><trkpt lat="45.383178" lon="7.7909454"><ele>500.0</ele><time>2026-04-25T16:14:25.239Z</time></trkpt><trkpt lat="45.3831446" lon="7.791078"><ele>499.8333333333333</ele><time>2026-04-25T16:14:26.234Z</time></trkpt><trkpt lat="45.3831059" lon="7.791213"><ele>499.66666666666663</ele><time>2026-04-25T16:14:27.233Z</time></trkpt><trkpt lat="45.3830658" lon="7.7913221"><ele>499.5</ele><time>2026-04-25T16:14:28.234Z</time></trkpt><trkpt lat="45.3830306" lon="7.791426"><ele>499.33333333333337</ele><time>2026-04-25T16:14:29.222Z</time></trkpt><trkpt lat="45.3829989" lon="7.7915136"><ele>499.1666666666667</ele><time>2026-04-25T16:14:30.232Z</time></trkpt><trkpt lat="45.3829619" lon="7.7916038"><ele>499.0</ele><time>2026-04-25T16:14:31.231Z</time></trkpt><trkpt lat="45.3829259" lon="7.7917108"><ele>499.00000000000006</ele><time>2026-04-25T16:14:32.228Z</time></trkpt><trkpt lat="45.3828917" lon="7.7918232"><ele>499.0</ele><time>2026-04-25T16:14:33.232Z</time></trkpt><trkpt lat="45.3828645" lon="7.7919253"><ele>499.0</ele><time>2026-04-25T16:14:34.217Z</time></trkpt><trkpt lat="45.3828369" lon="7.7920102"><ele>499.0</ele><time>2026-04-25T16:14:35.214Z</time></trkpt><trkpt lat="45.3827852" lon="7.7921112"><ele>499.00000000000006</ele><time>2026-04-25T16:14:37.221Z</time></trkpt><trkpt lat="45.3826827" lon="7.792134"><ele>499.0</ele><time>2026-04-25T16:14:39.237Z</time></trkpt><trkpt lat="45.3826007" lon="7.7921273"><ele>498.8571428571429</ele><time>2026-04-25T16:14:40.232Z</time></trkpt><trkpt lat="45.3825257" lon="7.7921444"><ele>498.7142857142857</ele><time>2026-04-25T16:14:41.229Z</time></trkpt><trkpt lat="45.3824548" lon="7.7921681"><ele>498.57142857142856</ele><time>2026-04-25T16:14:42.238Z</time></trkpt><trkpt lat="45.3823713" lon="7.7922013"><ele>498.42857142857144</ele><time>2026-04-25T16:14:43.23Z</time></trkpt><trkpt lat="45.3823174" lon="7.7922701"><ele>498.2857142857142</ele><time>2026-04-25T16:14:44.238Z</time></trkpt><trkpt lat="45.3822601" lon="7.7923133"><ele>498.1428571428571</ele><time>2026-04-25T16:14:45.232Z</time></trkpt><trkpt lat="45.382205" lon="7.7923679"><ele>498.0</ele><time>2026-04-25T16:14:46.229Z</time></trkpt><trkpt lat="45.3821379" lon="7.7924284"><ele>497.79999999999995</ele><time>2026-04-25T16:14:47.231Z</time></trkpt><trkpt lat="45.3820786" lon="7.7925129"><ele>497.59999999999997</ele><time>2026-04-25T16:14:48.228Z</time></trkpt><trkpt lat="45.3819957" lon="7.7925617"><ele>497.40000000000003</ele><time>2026-04-25T16:14:49.228Z</time></trkpt><trkpt lat="45.3819063" lon="7.7926107"><ele>497.20000000000005</ele><time>2026-04-25T16:14:50.22Z</time></trkpt><trkpt lat="45.3818164" lon="7.7926529"><ele>497.0</ele><time>2026-04-25T16:14:51.234Z</time></trkpt><trkpt lat="45.3817321" lon="7.7926876"><ele>496.3333333333333</ele><time>2026-04-25T16:14:52.232Z</time></trkpt><trkpt lat="45.3816647" lon="7.7926866"><ele>495.66666666666663</ele><time>2026-04-25T16:14:53.23Z</time></trkpt><trkpt lat="45.3815855" lon="7.7926847"><ele>495.0</ele><time>2026-04-25T16:14:55.228Z</time></trkpt><trkpt lat="45.3815079" lon="7.7928047"><ele>494.33333333333337</ele><time>2026-04-25T16:14:58.222Z</time></trkpt><trkpt lat="45.3814472" lon="7.7928896"><ele>493.6666666666667</ele><time>2026-04-25T16:14:59.221Z</time></trkpt><trkpt lat="45.3813742" lon="7.7929784"><ele>493.0</ele><time>2026-04-25T16:15:00.215Z</time></trkpt><trkpt lat="45.3813079" lon="7.7930504"><ele>495.00000000000006</ele><time>2026-04-25T16:15:01.222Z</time></trkpt><trkpt lat="45.3812304" lon="7.7930871"><ele>497.0</ele><time>2026-04-25T16:15:02.216Z</time></trkpt><trkpt lat="45.3811658" lon="7.7931297"><ele>499.0</ele><time>2026-04-25T16:15:03.215Z</time></trkpt><trkpt lat="45.3811187" lon="7.7932035"><ele>501.0</ele><time>2026-04-25T16:15:04.207Z</time></trkpt><trkpt lat="45.3810777" lon="7.7932995"><ele>503.00000000000006</ele><time>2026-04-25T16:15:05.21Z</time></trkpt><trkpt lat="45.3810338" lon="7.7934037"><ele>505.0</ele><time>2026-04-25T16:15:06.211Z</time></trkpt><trkpt lat="45.3810105" lon="7.7935046"><ele>505.1666666666667</ele><time>2026-04-25T16:15:07.233Z</time></trkpt><trkpt lat="45.3809675" lon="7.7935957"><ele>505.33333333333337</ele><time>2026-04-25T16:15:08.215Z</time></trkpt><trkpt lat="45.3809309" lon="7.7936968"><ele>505.5</ele><time>2026-04-25T16:15:09.221Z</time></trkpt><trkpt lat="45.3809185" lon="7.7938132"><ele>505.66666666666663</ele><time>2026-04-25T16:15:10.222Z</time></trkpt><trkpt lat="45.3809157" lon="7.7939424"><ele>505.8333333333333</ele><time>2026-04-25T16:15:12.219Z</time></trkpt><trkpt lat="45.3808692" lon="7.7940083"><ele>506.0</ele><time>2026-04-25T16:15:14.226Z</time></trkpt><trkpt lat="45.3807951" lon="7.7939968"><ele>505.99999999999994</ele><time>2026-04-25T16:15:16.229Z</time></trkpt><trkpt lat="45.3807056" lon="7.7939296"><ele>506.0</ele><time>2026-04-25T16:15:18.229Z</time></trkpt><trkpt lat="45.3806521" lon="7.7938811"><ele>506.0</ele><time>2026-04-25T16:15:19.231Z</time></trkpt><trkpt lat="45.3805922" lon="7.7938535"><ele>506.0</ele><time>2026-04-25T16:15:20.224Z</time></trkpt><trkpt lat="45.3805313" lon="7.7938159"><ele>505.99999999999994</ele><time>2026-04-25T16:15:21.242Z</time></trkpt><trkpt lat="45.3804273" lon="7.7937781"><ele>506.0</ele><time>2026-04-25T16:15:23.241Z</time></trkpt><trkpt lat="45.3803162" lon="7.7937849"><ele>508.0</ele><time>2026-04-25T16:15:25.235Z</time></trkpt><trkpt lat="45.3802079" lon="7.7937792"><ele>510.0</ele><time>2026-04-25T16:15:27.236Z</time></trkpt><trkpt lat="45.3800934" lon="7.7937827"><ele>512.0</ele><time>2026-04-25T16:15:29.231Z</time></trkpt><trkpt lat="45.3800244" lon="7.7937695"><ele>514.0</ele><time>2026-04-25T16:15:30.229Z</time></trkpt><trkpt lat="45.3799475" lon="7.7937442"><ele>516.0</ele><time>2026-04-25T16:15:31.239Z</time></trkpt><trkpt lat="45.3798637" lon="7.7937456"><ele>516.0</ele><time>2026-04-25T16:15:32.233Z</time></trkpt><trkpt lat="45.3797732" lon="7.793761"><ele>516.0</ele><time>2026-04-25T16:15:33.236Z</time></trkpt><trkpt lat="45.3796836" lon="7.7937892"><ele>516.0</ele><time>2026-04-25T16:15:34.243Z</time></trkpt><trkpt lat="45.379621" lon="7.7938009"><ele>516.0</ele><time>2026-04-25T16:15:35.224Z</time></trkpt><trkpt lat="45.3795418" lon="7.7937961"><ele>516.0</ele><time>2026-04-25T16:15:37.23Z</time></trkpt><trkpt lat="45.3794725" lon="7.7938455"><ele>516.0</ele><time>2026-04-25T16:15:39.238Z</time></trkpt><trkpt lat="45.3794322" lon="7.7940348"><ele>516.0</ele><time>2026-04-25T16:15:41.23Z</time></trkpt><trkpt lat="45.3794298" lon="7.7941674"><ele>516.0</ele><time>2026-04-25T16:15:42.227Z</time></trkpt><trkpt lat="45.3794194" lon="7.7942691"><ele>516.0</ele><time>2026-04-25T16:15:43.223Z</time></trkpt><trkpt lat="45.3793792" lon="7.7943495"><ele>516.0</ele><time>2026-04-25T16:15:44.233Z</time></trkpt><trkpt lat="45.379318" lon="7.7944388"><ele>516.0</ele><time>2026-04-25T16:15:45.231Z</time></trkpt><trkpt lat="45.3792276" lon="7.7945106"><ele>516.0</ele><time>2026-04-25T16:15:46.228Z</time></trkpt><trkpt lat="45.3791254" lon="7.7945435"><ele>516.0</ele><time>2026-04-25T16:15:47.225Z</time></trkpt><trkpt lat="45.3790257" lon="7.7945762"><ele>516.0</ele><time>2026-04-25T16:15:48.224Z</time></trkpt><trkpt lat="45.3789368" lon="7.7946049"><ele>516.0</ele><time>2026-04-25T16:15:49.218Z</time></trkpt><trkpt lat="45.3788304" lon="7.7946279"><ele>516.0</ele><time>2026-04-25T16:15:50.222Z</time></trkpt><trkpt lat="45.3787273" lon="7.7946793"><ele>516.0</ele><time>2026-04-25T16:15:51.222Z</time></trkpt><trkpt lat="45.3786435" lon="7.7947547"><ele>516.0</ele><time>2026-04-25T16:15:52.221Z</time></trkpt><trkpt lat="45.3785645" lon="7.7948078"><ele>516.0</ele><time>2026-04-25T16:15:53.223Z</time></trkpt><trkpt lat="45.3784912" lon="7.7948436"><ele>516.0</ele><time>2026-04-25T16:15:54.223Z</time></trkpt><trkpt lat="45.378423" lon="7.7948718"><ele>516.0</ele><time>2026-04-25T16:15:55.222Z</time></trkpt><trkpt lat="45.3783488" lon="7.7948494"><ele>516.0</ele><time>2026-04-25T16:15:56.22Z</time></trkpt><trkpt lat="45.3782469" lon="7.7947759"><ele>516.0</ele><time>2026-04-25T16:15:58.221Z</time></trkpt><trkpt lat="45.3781582" lon="7.7947275"><ele>516.0</ele><time>2026-04-25T16:16:00.224Z</time></trkpt><trkpt lat="45.3780802" lon="7.794743"><ele>516.0</ele><time>2026-04-25T16:16:02.221Z</time></trkpt><trkpt lat="45.3780114" lon="7.7948966"><ele>516.0</ele><time>2026-04-25T16:16:04.221Z</time></trkpt><trkpt lat="45.3779824" lon="7.7950103"><ele>516.0</ele><time>2026-04-25T16:16:05.221Z</time></trkpt><trkpt lat="45.3779543" lon="7.7951289"><ele>516.0</ele><time>2026-04-25T16:16:06.225Z</time></trkpt><trkpt lat="45.3779112" lon="7.795239"><ele>514.6666666666666</ele><time>2026-04-25T16:16:07.225Z</time></trkpt><trkpt lat="45.3778657" lon="7.795342"><ele>513.3333333333334</ele><time>2026-04-25T16:16:08.221Z</time></trkpt><trkpt lat="45.3778308" lon="7.7954436"><ele>512.0</ele><time>2026-04-25T16:16:09.227Z</time></trkpt><trkpt lat="45.3777925" lon="7.7955433"><ele>510.6666666666667</ele><time>2026-04-25T16:16:10.215Z</time></trkpt><trkpt lat="45.3777519" lon="7.7956309"><ele>509.33333333333337</ele><time>2026-04-25T16:16:11.222Z</time></trkpt><trkpt lat="45.3776696" lon="7.7957468"><ele>508.0</ele><time>2026-04-25T16:16:13.216Z</time></trkpt><trkpt lat="45.3776144" lon="7.7958588"><ele>508.0</ele><time>2026-04-25T16:16:15.209Z</time></trkpt><trkpt lat="45.3775581" lon="7.7959163"><ele>507.99999999999994</ele><time>2026-04-25T16:16:17.208Z</time></trkpt><trkpt lat="45.3774637" lon="7.795857"><ele>507.99999999999994</ele><time>2026-04-25T16:16:19.22Z</time></trkpt><trkpt lat="45.3773417" lon="7.79581"><ele>508.0</ele><time>2026-04-25T16:16:21.217Z</time></trkpt><trkpt lat="45.3772825" lon="7.7958443"><ele>508.0</ele><time>2026-04-25T16:16:22.228Z</time></trkpt><trkpt lat="45.3772097" lon="7.7959184"><ele>506.59999999999997</ele><time>2026-04-25T16:16:23.229Z</time></trkpt><trkpt lat="45.377145" lon="7.7960174"><ele>505.19999999999993</ele><time>2026-04-25T16:16:24.219Z</time></trkpt><trkpt lat="45.3770742" lon="7.7961239"><ele>503.8</ele><time>2026-04-25T16:16:25.217Z</time></trkpt><trkpt lat="45.3769979" lon="7.7962225"><ele>502.4</ele><time>2026-04-25T16:16:26.22Z</time></trkpt><trkpt lat="45.3769237" lon="7.7963293"><ele>501.0</ele><time>2026-04-25T16:16:27.215Z</time></trkpt><trkpt lat="45.376848" lon="7.796427"><ele>501.0</ele><time>2026-04-25T16:16:28.22Z</time></trkpt><trkpt lat="45.3767739" lon="7.7965226"><ele>501.0</ele><time>2026-04-25T16:16:29.213Z</time></trkpt><trkpt lat="45.3767034" lon="7.7966163"><ele>501.0</ele><time>2026-04-25T16:16:30.22Z</time></trkpt><trkpt lat="45.3766459" lon="7.7966943"><ele>501.0</ele><time>2026-04-25T16:16:31.217Z</time></trkpt><trkpt lat="45.3765774" lon="7.7967572"><ele>501.0</ele><time>2026-04-25T16:16:32.216Z</time></trkpt><trkpt lat="45.3764925" lon="7.7967917"><ele>501.0</ele><time>2026-04-25T16:16:33.21Z</time></trkpt><trkpt lat="45.3763994" lon="7.7968112"><ele>500.20000000000005</ele><time>2026-04-25T16:16:34.214Z</time></trkpt><trkpt lat="45.3763148" lon="7.7967867"><ele>499.40000000000003</ele><time>2026-04-25T16:16:35.207Z</time></trkpt><trkpt lat="45.3762415" lon="7.7968127"><ele>498.6</ele><time>2026-04-25T16:16:36.203Z</time></trkpt><trkpt lat="45.3761701" lon="7.7968697"><ele>497.8</ele><time>2026-04-25T16:16:37.212Z</time></trkpt><trkpt lat="45.3760698" lon="7.7969274"><ele>497.0</ele><time>2026-04-25T16:16:38.206Z</time></trkpt><trkpt lat="45.3759691" lon="7.7970174"><ele>497.0</ele><time>2026-04-25T16:16:39.214Z</time></trkpt><trkpt lat="45.3758721" lon="7.7971382"><ele>497.0</ele><time>2026-04-25T16:16:40.23Z</time></trkpt><trkpt lat="45.3757784" lon="7.7972779"><ele>497.0</ele><time>2026-04-25T16:16:41.211Z</time></trkpt><trkpt lat="45.3756804" lon="7.7973787"><ele>497.0</ele><time>2026-04-25T16:16:42.216Z</time></trkpt><trkpt lat="45.3755906" lon="7.797466"><ele>496.3333333333333</ele><time>2026-04-25T16:16:43.215Z</time></trkpt><trkpt lat="45.3755164" lon="7.7975232"><ele>495.66666666666663</ele><time>2026-04-25T16:16:44.209Z</time></trkpt><trkpt lat="45.3754609" lon="7.7976004"><ele>495.0</ele><time>2026-04-25T16:16:45.206Z</time></trkpt><trkpt lat="45.3754136" lon="7.7977044"><ele>494.33333333333337</ele><time>2026-04-25T16:16:46.208Z</time></trkpt><trkpt lat="45.3753845" lon="7.7978289"><ele>493.6666666666667</ele><time>2026-04-25T16:16:47.213Z</time></trkpt><trkpt lat="45.3753568" lon="7.7979393"><ele>493.0</ele><time>2026-04-25T16:16:48.201Z</time></trkpt><trkpt lat="45.375338" lon="7.7980403"><ele>493.00000000000006</ele><time>2026-04-25T16:16:49.209Z</time></trkpt><trkpt lat="45.3753364" lon="7.7981873"><ele>493.0</ele><time>2026-04-25T16:16:51.214Z</time></trkpt><trkpt lat="45.3753036" lon="7.7983521"><ele>493.0</ele><time>2026-04-25T16:16:53.225Z</time></trkpt><trkpt lat="45.3752741" lon="7.7984428"><ele>493.0</ele><time>2026-04-25T16:16:54.213Z</time></trkpt><trkpt lat="45.3752407" lon="7.7985372"><ele>493.00000000000006</ele><time>2026-04-25T16:16:55.212Z</time></trkpt><trkpt lat="45.3752076" lon="7.7986318"><ele>493.0</ele><time>2026-04-25T16:16:56.219Z</time></trkpt><trkpt lat="45.3751409" lon="7.7987792"><ele>492.1666666666667</ele><time>2026-04-25T16:16:58.221Z</time></trkpt><trkpt lat="45.3750905" lon="7.7988541"><ele>491.33333333333337</ele><time>2026-04-25T16:16:59.221Z</time></trkpt><trkpt lat="45.3750423" lon="7.7989228"><ele>490.5</ele><time>2026-04-25T16:17:00.213Z</time></trkpt><trkpt lat="45.3749675" lon="7.798979"><ele>489.66666666666663</ele><time>2026-04-25T16:17:02.214Z</time></trkpt><trkpt lat="45.3749099" lon="7.7990262"><ele>488.8333333333333</ele><time>2026-04-25T16:17:46.232Z</time></trkpt><trkpt lat="45.3748709" lon="7.7991134"><ele>488.0</ele><time>2026-04-25T16:17:49.22Z</time></trkpt><trkpt lat="45.3748295" lon="7.7992672"><ele>487.75</ele><time>2026-04-25T16:17:51.207Z</time></trkpt><trkpt lat="45.3747825" lon="7.7994013"><ele>487.5</ele><time>2026-04-25T16:17:52.208Z</time></trkpt><trkpt lat="45.3747207" lon="7.7995451"><ele>487.25</ele><time>2026-04-25T16:17:53.213Z</time></trkpt><trkpt lat="45.3746552" lon="7.7997141"><ele>487.0</ele><time>2026-04-25T16:17:54.21Z</time></trkpt><trkpt lat="45.3745644" lon="7.7998677"><ele>485.5</ele><time>2026-04-25T16:17:55.213Z</time></trkpt><trkpt lat="45.3744855" lon="7.8000037"><ele>484.0</ele><time>2026-04-25T16:17:56.209Z</time></trkpt><trkpt lat="45.3744213" lon="7.8001598"><ele>482.5</ele><time>2026-04-25T16:17:57.213Z</time></trkpt><trkpt lat="45.374338" lon="7.8003278"><ele>481.0</ele><time>2026-04-25T16:17:58.211Z</time></trkpt><trkpt lat="45.3742741" lon="7.8005085"><ele>479.6</ele><time>2026-04-25T16:17:59.207Z</time></trkpt><trkpt lat="45.3742218" lon="7.8006642"><ele>478.20000000000005</ele><time>2026-04-25T16:18:00.211Z</time></trkpt><trkpt lat="45.3741743" lon="7.8007967"><ele>476.79999999999995</ele><time>2026-04-25T16:18:01.214Z</time></trkpt><trkpt lat="45.3741288" lon="7.8009133"><ele>475.4</ele><time>2026-04-25T16:18:02.206Z</time></trkpt><trkpt lat="45.3740907" lon="7.8010391"><ele>474.0</ele><time>2026-04-25T16:18:03.215Z</time></trkpt><trkpt lat="45.3740453" lon="7.8011543"><ele>473.3333333333333</ele><time>2026-04-25T16:18:04.215Z</time></trkpt><trkpt lat="45.3739986" lon="7.8012658"><ele>472.66666666666663</ele><time>2026-04-25T16:18:05.213Z</time></trkpt><trkpt lat="45.3739519" lon="7.8013661"><ele>472.0</ele><time>2026-04-25T16:18:06.214Z</time></trkpt><trkpt lat="45.373886" lon="7.8014532"><ele>471.3333333333333</ele><time>2026-04-25T16:18:07.212Z</time></trkpt><trkpt lat="45.3738101" lon="7.8015238"><ele>470.66666666666663</ele><time>2026-04-25T16:18:08.208Z</time></trkpt><trkpt lat="45.3737363" lon="7.8015909"><ele>470.0</ele><time>2026-04-25T16:18:09.208Z</time></trkpt><trkpt lat="45.3736488" lon="7.801676"><ele>467.25</ele><time>2026-04-25T16:18:10.217Z</time></trkpt><trkpt lat="45.3735547" lon="7.801761"><ele>464.5</ele><time>2026-04-25T16:18:11.206Z</time></trkpt><trkpt lat="45.3734474" lon="7.8018278"><ele>461.75</ele><time>2026-04-25T16:18:12.213Z</time></trkpt><trkpt lat="45.3733427" lon="7.8018864"><ele>459.0</ele><time>2026-04-25T16:18:13.223Z</time></trkpt><trkpt lat="45.3732381" lon="7.8019338"><ele>457.6666666666667</ele><time>2026-04-25T16:18:14.211Z</time></trkpt><trkpt lat="45.37314" lon="7.8019784"><ele>456.33333333333337</ele><time>2026-04-25T16:18:15.212Z</time></trkpt><trkpt lat="45.3730566" lon="7.802019"><ele>455.0</ele><time>2026-04-25T16:18:16.217Z</time></trkpt><trkpt lat="45.3729858" lon="7.8020464"><ele>453.6666666666667</ele><time>2026-04-25T16:18:17.216Z</time></trkpt><trkpt lat="45.3729143" lon="7.8020584"><ele>452.33333333333337</ele><time>2026-04-25T16:18:18.219Z</time></trkpt><trkpt lat="45.37285" lon="7.8020336"><ele>451.0</ele><time>2026-04-25T16:18:19.213Z</time></trkpt><trkpt lat="45.3727879" lon="7.802008"><ele>450.8</ele><time>2026-04-25T16:18:20.208Z</time></trkpt><trkpt lat="45.3727292" lon="7.8019375"><ele>450.6</ele><time>2026-04-25T16:18:21.21Z</time></trkpt><trkpt lat="45.3726643" lon="7.8018497"><ele>450.4</ele><time>2026-04-25T16:18:22.22Z</time></trkpt><trkpt lat="45.3725874" lon="7.8017705"><ele>450.2</ele><time>2026-04-25T16:18:23.227Z</time></trkpt><trkpt lat="45.3724979" lon="7.8017161"><ele>450.0</ele><time>2026-04-25T16:18:24.216Z</time></trkpt><trkpt lat="45.3724096" lon="7.8016708"><ele>450.0</ele><time>2026-04-25T16:18:25.223Z</time></trkpt><trkpt lat="45.3723015" lon="7.8016146"><ele>450.0</ele><time>2026-04-25T16:18:26.211Z</time></trkpt><trkpt lat="45.3721688" lon="7.8015489"><ele>450.0</ele><time>2026-04-25T16:18:27.216Z</time></trkpt><trkpt lat="45.3720026" lon="7.801453"><ele>450.0</ele><time>2026-04-25T16:18:28.217Z</time></trkpt><trkpt lat="45.3718265" lon="7.801362"><ele>447.66666666666663</ele><time>2026-04-25T16:18:29.212Z</time></trkpt><trkpt lat="45.3716363" lon="7.8012811"><ele>445.3333333333333</ele><time>2026-04-25T16:18:30.217Z</time></trkpt><trkpt lat="45.3714305" lon="7.8011952"><ele>443.0</ele><time>2026-04-25T16:18:31.213Z</time></trkpt><trkpt lat="45.3712677" lon="7.8011531"><ele>442.59999999999997</ele><time>2026-04-25T16:18:32.217Z</time></trkpt><trkpt lat="45.3711501" lon="7.8010891"><ele>442.19999999999993</ele><time>2026-04-25T16:18:33.214Z</time></trkpt><trkpt lat="45.371056" lon="7.8010415"><ele>441.8</ele><time>2026-04-25T16:18:34.214Z</time></trkpt><trkpt lat="45.3709732" lon="7.8009516"><ele>441.4</ele><time>2026-04-25T16:18:35.218Z</time></trkpt><trkpt lat="45.3709503" lon="7.8008131"><ele>441.0</ele><time>2026-04-25T16:18:36.213Z</time></trkpt><trkpt lat="45.3709533" lon="7.8006721"><ele>440.25</ele><time>2026-04-25T16:18:37.23Z</time></trkpt><trkpt lat="45.3709717" lon="7.8005072"><ele>439.5</ele><time>2026-04-25T16:18:38.223Z</time></trkpt><trkpt lat="45.3710037" lon="7.8003538"><ele>438.75</ele><time>2026-04-25T16:18:39.221Z</time></trkpt><trkpt lat="45.3710491" lon="7.8001797"><ele>438.0</ele><time>2026-04-25T16:18:40.218Z</time></trkpt><trkpt lat="45.3711093" lon="7.8000217"><ele>436.75</ele><time>2026-04-25T16:18:41.22Z</time></trkpt><trkpt lat="45.371175" lon="7.7998765"><ele>435.5</ele><time>2026-04-25T16:18:42.215Z</time></trkpt><trkpt lat="45.3712504" lon="7.7997613"><ele>434.25</ele><time>2026-04-25T16:18:43.215Z</time></trkpt><trkpt lat="45.3713514" lon="7.7996752"><ele>433.0</ele><time>2026-04-25T16:18:44.226Z</time></trkpt><trkpt lat="45.3714592" lon="7.799607"><ele>435.5</ele><time>2026-04-25T16:18:45.22Z</time></trkpt><trkpt lat="45.3715693" lon="7.7995777"><ele>438.0</ele><time>2026-04-25T16:18:46.22Z</time></trkpt><trkpt lat="45.3716823" lon="7.7995282"><ele>440.5</ele><time>2026-04-25T16:18:47.228Z</time></trkpt><trkpt lat="45.3717992" lon="7.7994627"><ele>443.0</ele><time>2026-04-25T16:18:48.217Z</time></trkpt><trkpt lat="45.3719125" lon="7.7993679"><ele>444.3333333333333</ele><time>2026-04-25T16:18:49.217Z</time></trkpt><trkpt lat="45.3720259" lon="7.7992294"><ele>445.66666666666663</ele><time>2026-04-25T16:18:50.215Z</time></trkpt><trkpt lat="45.3721421" lon="7.7990062"><ele>447.0</ele><time>2026-04-25T16:18:51.221Z</time></trkpt><trkpt lat="45.3722488" lon="7.7988032"><ele>447.0</ele><time>2026-04-25T16:18:52.221Z</time></trkpt><trkpt lat="45.3723427" lon="7.7985854"><ele>447.0</ele><time>2026-04-25T16:18:53.227Z</time></trkpt><trkpt lat="45.3723933" lon="7.7983569"><ele>447.0</ele><time>2026-04-25T16:18:54.219Z</time></trkpt><trkpt lat="45.372446" lon="7.7981537"><ele>443.0</ele><time>2026-04-25T16:18:55.218Z</time></trkpt><trkpt lat="45.372454" lon="7.7979603"><ele>439.0</ele><time>2026-04-25T16:18:56.218Z</time></trkpt><trkpt lat="45.3724575" lon="7.7977798"><ele>435.0</ele><time>2026-04-25T16:18:57.221Z</time></trkpt><trkpt lat="45.3725057" lon="7.7976202"><ele>431.0</ele><time>2026-04-25T16:18:58.224Z</time></trkpt><trkpt lat="45.3725338" lon="7.7974434"><ele>428.6</ele><time>2026-04-25T16:18:59.219Z</time></trkpt><trkpt lat="45.3725766" lon="7.7972903"><ele>426.20000000000005</ele><time>2026-04-25T16:19:00.234Z</time></trkpt><trkpt lat="45.3726244" lon="7.7971488"><ele>423.79999999999995</ele><time>2026-04-25T16:19:01.227Z</time></trkpt><trkpt lat="45.3726569" lon="7.7970037"><ele>421.4</ele><time>2026-04-25T16:19:02.225Z</time></trkpt><trkpt lat="45.3727028" lon="7.7968761"><ele>419.0</ele><time>2026-04-25T16:19:03.226Z</time></trkpt><trkpt lat="45.3727433" lon="7.7967631"><ele>417.2</ele><time>2026-04-25T16:19:04.226Z</time></trkpt><trkpt lat="45.372775" lon="7.7966452"><ele>415.4</ele><time>2026-04-25T16:19:05.224Z</time></trkpt><trkpt lat="45.3727873" lon="7.7965092"><ele>413.6</ele><time>2026-04-25T16:19:06.217Z</time></trkpt><trkpt lat="45.3727844" lon="7.796356"><ele>411.8</ele><time>2026-04-25T16:19:07.223Z</time></trkpt><trkpt lat="45.3727984" lon="7.7961878"><ele>410.0</ele><time>2026-04-25T16:19:08.218Z</time></trkpt><trkpt lat="45.3727813" lon="7.795979"><ele>408.2</ele><time>2026-04-25T16:19:09.232Z</time></trkpt><trkpt lat="45.3727696" lon="7.7957873"><ele>406.4</ele><time>2026-04-25T16:19:10.231Z</time></trkpt><trkpt lat="45.3727572" lon="7.7956186"><ele>404.6</ele><time>2026-04-25T16:19:11.239Z</time></trkpt><trkpt lat="45.3727476" lon="7.7954891"><ele>402.8</ele><time>2026-04-25T16:19:12.232Z</time></trkpt><trkpt lat="45.3727251" lon="7.7953871"><ele>401.0</ele><time>2026-04-25T16:19:13.243Z</time></trkpt><trkpt lat="45.3726722" lon="7.7953286"><ele>401.0</ele><time>2026-04-25T16:19:14.247Z</time></trkpt><trkpt lat="45.3726005" lon="7.7952901"><ele>401.0</ele><time>2026-04-25T16:19:15.25Z</time></trkpt><trkpt lat="45.3725088" lon="7.7952668"><ele>401.0</ele><time>2026-04-25T16:19:16.236Z</time></trkpt><trkpt lat="45.3723984" lon="7.7952387"><ele>401.0</ele><time>2026-04-25T16:19:17.23Z</time></trkpt><trkpt lat="45.3722835" lon="7.7952077"><ele>401.0</ele><time>2026-04-25T16:19:18.232Z</time></trkpt><trkpt lat="45.3721621" lon="7.7951781"><ele>399.20000000000005</ele><time>2026-04-25T16:19:19.223Z</time></trkpt><trkpt lat="45.3720441" lon="7.7951805"><ele>397.40000000000003</ele><time>2026-04-25T16:19:20.223Z</time></trkpt><trkpt lat="45.3719269" lon="7.7951922"><ele>395.6</ele><time>2026-04-25T16:19:21.232Z</time></trkpt><trkpt lat="45.3718298" lon="7.7952099"><ele>393.8</ele><time>2026-04-25T16:19:22.225Z</time></trkpt><trkpt lat="45.3717322" lon="7.7952238"><ele>392.0</ele><time>2026-04-25T16:19:23.241Z</time></trkpt><trkpt lat="45.3716255" lon="7.7952098"><ele>391.40000000000003</ele><time>2026-04-25T16:19:24.23Z</time></trkpt><trkpt lat="45.3715326" lon="7.7951693"><ele>390.8</ele><time>2026-04-25T16:19:25.233Z</time></trkpt><trkpt lat="45.3714439" lon="7.7951171"><ele>390.2</ele><time>2026-04-25T16:19:26.235Z</time></trkpt><trkpt lat="45.3713694" lon="7.7950561"><ele>389.6</ele><time>2026-04-25T16:19:27.236Z</time></trkpt><trkpt lat="45.3712822" lon="7.7949942"><ele>389.0</ele><time>2026-04-25T16:19:28.237Z</time></trkpt><trkpt lat="45.3711938" lon="7.7949221"><ele>387.75</ele><time>2026-04-25T16:19:29.231Z</time></trkpt><trkpt lat="45.3710914" lon="7.7948265"><ele>386.5</ele><time>2026-04-25T16:19:30.229Z</time></trkpt><trkpt lat="45.3709808" lon="7.7947195"><ele>385.25</ele><time>2026-04-25T16:19:31.232Z</time></trkpt><trkpt lat="45.3708688" lon="7.794639"><ele>384.0</ele><time>2026-04-25T16:19:32.226Z</time></trkpt><trkpt lat="45.3707525" lon="7.7945951"><ele>384.0</ele><time>2026-04-25T16:19:33.229Z</time></trkpt><trkpt lat="45.3706168" lon="7.7945198"><ele>384.0</ele><time>2026-04-25T16:19:34.217Z</time></trkpt><trkpt lat="45.3704554" lon="7.7944895"><ele>384.0</ele><time>2026-04-25T16:19:35.221Z</time></trkpt><trkpt lat="45.3702966" lon="7.7944644"><ele>383.0</ele><time>2026-04-25T16:19:36.226Z</time></trkpt><trkpt lat="45.3701556" lon="7.7944266"><ele>382.0</ele><time>2026-04-25T16:19:37.229Z</time></trkpt><trkpt lat="45.3700124" lon="7.7943745"><ele>381.0</ele><time>2026-04-25T16:19:38.228Z</time></trkpt><trkpt lat="45.3698892" lon="7.7943311"><ele>380.0</ele><time>2026-04-25T16:19:39.239Z</time></trkpt><trkpt lat="45.3697506" lon="7.794305"><ele>378.0</ele><time>2026-04-25T16:19:40.239Z</time></trkpt><trkpt lat="45.3695984" lon="7.7942568"><ele>376.0</ele><time>2026-04-25T16:19:41.248Z</time></trkpt><trkpt lat="45.3694447" lon="7.7942058"><ele>374.0</ele><time>2026-04-25T16:19:42.244Z</time></trkpt><trkpt lat="45.3693062" lon="7.7941766"><ele>374.0</ele><time>2026-04-25T16:19:43.233Z</time></trkpt><trkpt lat="45.3692068" lon="7.7941337"><ele>374.0</ele><time>2026-04-25T16:19:44.236Z</time></trkpt><trkpt lat="45.3691507" lon="7.7940833"><ele>374.0</ele><time>2026-04-25T16:19:45.239Z</time></trkpt><trkpt lat="45.3691196" lon="7.7939792"><ele>374.0</ele><time>2026-04-25T16:19:46.246Z</time></trkpt><trkpt lat="45.369098" lon="7.7938423"><ele>374.0</ele><time>2026-04-25T16:19:47.24Z</time></trkpt><trkpt lat="45.3690431" lon="7.7936871"><ele>374.0</ele><time>2026-04-25T16:19:48.23Z</time></trkpt><trkpt lat="45.3690083" lon="7.7935257"><ele>374.0</ele><time>2026-04-25T16:19:49.23Z</time></trkpt><trkpt lat="45.3689867" lon="7.7933724"><ele>374.0</ele><time>2026-04-25T16:19:50.228Z</time></trkpt><trkpt lat="45.3689418" lon="7.7932358"><ele>374.0</ele><time>2026-04-25T16:19:51.233Z</time></trkpt><trkpt lat="45.3689005" lon="7.7931053"><ele>374.0</ele><time>2026-04-25T16:19:52.22Z</time></trkpt><trkpt lat="45.3688481" lon="7.792975"><ele>373.0</ele><time>2026-04-25T16:19:53.232Z</time></trkpt><trkpt lat="45.3687887" lon="7.7928342"><ele>372.0</ele><time>2026-04-25T16:19:54.228Z</time></trkpt><trkpt lat="45.3687422" lon="7.79266"><ele>371.0</ele><time>2026-04-25T16:19:55.24Z</time></trkpt><trkpt lat="45.3687107" lon="7.7924665"><ele>370.0</ele><time>2026-04-25T16:19:56.239Z</time></trkpt><trkpt lat="45.3686877" lon="7.7922814"><ele>369.2</ele><time>2026-04-25T16:19:57.249Z</time></trkpt><trkpt lat="45.3686665" lon="7.7921236"><ele>368.4</ele><time>2026-04-25T16:19:58.24Z</time></trkpt><trkpt lat="45.3686479" lon="7.7919857"><ele>367.6</ele><time>2026-04-25T16:19:59.251Z</time></trkpt><trkpt lat="45.368592" lon="7.7918968"><ele>366.8</ele><time>2026-04-25T16:20:00.243Z</time></trkpt><trkpt lat="45.3685168" lon="7.7918703"><ele>366.0</ele><time>2026-04-25T16:20:01.231Z</time></trkpt><trkpt lat="45.3684214" lon="7.7918428"><ele>365.20000000000005</ele><time>2026-04-25T16:20:02.23Z</time></trkpt><trkpt lat="45.368321" lon="7.7917928"><ele>364.40000000000003</ele><time>2026-04-25T16:20:03.235Z</time></trkpt><trkpt lat="45.3682286" lon="7.7917066"><ele>363.6</ele><time>2026-04-25T16:20:04.236Z</time></trkpt><trkpt lat="45.3681674" lon="7.7915994"><ele>362.8</ele><time>2026-04-25T16:20:05.247Z</time></trkpt><trkpt lat="45.3681353" lon="7.791501"><ele>362.0</ele><time>2026-04-25T16:20:06.246Z</time></trkpt><trkpt lat="45.3681078" lon="7.7913806"><ele>362.0</ele><time>2026-04-25T16:20:08.241Z</time></trkpt><trkpt lat="45.3680834" lon="7.7912972"><ele>362.0</ele><time>2026-04-25T16:20:35.257Z</time></trkpt><trkpt lat="45.3680563" lon="7.7912078"><ele>362.0</ele><time>2026-04-25T16:21:33.258Z</time></trkpt><trkpt lat="45.3680064" lon="7.7911525"><ele>362.0</ele><time>2026-04-25T16:21:48.245Z</time></trkpt><trkpt lat="45.3679664" lon="7.7912319"><ele>362.0</ele><time>2026-04-25T16:21:50.268Z</time></trkpt><trkpt lat="45.367907" lon="7.7913301"><ele>362.0</ele><time>2026-04-25T16:21:53.258Z</time></trkpt><trkpt lat="45.3678493" lon="7.7914405"><ele>361.6666666666667</ele><time>2026-04-25T16:21:56.252Z</time></trkpt><trkpt lat="45.3677946" lon="7.7914976"><ele>361.33333333333337</ele><time>2026-04-25T16:21:59.255Z</time></trkpt><trkpt lat="45.3677791" lon="7.7914083"><ele>361.0</ele><time>2026-04-25T16:22:41.244Z</time></trkpt><trkpt lat="45.3678078" lon="7.7914948"><ele>360.6666666666667</ele><time>2026-04-25T16:25:11.247Z</time></trkpt><trkpt lat="45.3678416" lon="7.7913613"><ele>360.3333333333333</ele><time>2026-04-25T16:30:25.2Z</time></trkpt><trkpt lat="45.3677901" lon="7.7914551"><ele>360.0</ele><time>2026-04-25T16:30:35.227Z</time></trkpt><trkpt lat="45.3677273" lon="7.7915049"><ele>360.0</ele><time>2026-04-25T16:35:22.173Z</time></trkpt><trkpt lat="45.3676743" lon="7.791437"><ele>360.0</ele><time>2026-04-25T16:35:27.197Z</time></trkpt><trkpt lat="45.3676128" lon="7.7913097"><ele>360.0</ele><time>2026-04-25T16:35:30.17Z</time></trkpt><trkpt lat="45.3675494" lon="7.791194"><ele>360.0</ele><time>2026-04-25T16:35:32.195Z</time></trkpt><trkpt lat="45.3675425" lon="7.7910818"><ele>360.0</ele><time>2026-04-25T16:35:35.198Z</time></trkpt><trkpt lat="45.3675563" lon="7.7909789"><ele>360.0</ele><time>2026-04-25T16:38:25.219Z</time></trkpt><trkpt lat="45.3675146" lon="7.7910714"><ele>360.0</ele><time>2026-04-25T16:38:29.206Z</time></trkpt><trkpt lat="45.3675015" lon="7.7911741"><ele>360.0</ele><time>2026-04-25T16:38:30.208Z</time></trkpt><trkpt lat="45.3675146" lon="7.7913381"><ele>360.0</ele><time>2026-04-25T16:38:31.208Z</time></trkpt><trkpt lat="45.3675355" lon="7.7915235"><ele>360.0</ele><time>2026-04-25T16:38:32.206Z</time></trkpt><trkpt lat="45.3675096" lon="7.791611"><ele>360.0</ele><time>2026-04-25T16:38:33.201Z</time></trkpt><trkpt lat="45.3674612" lon="7.7916739"><ele>360.0</ele><time>2026-04-25T16:38:34.206Z</time></trkpt><trkpt lat="45.3674173" lon="7.7917419"><ele>360.0</ele><time>2026-04-25T16:38:35.21Z</time></trkpt><trkpt lat="45.367344" lon="7.7918193"><ele>360.0</ele><time>2026-04-25T16:38:37.213Z</time></trkpt><trkpt lat="45.3672988" lon="7.7918837"><ele>360.0</ele><time>2026-04-25T16:38:38.21Z</time></trkpt><trkpt lat="45.3672539" lon="7.7919509"><ele>360.0</ele><time>2026-04-25T16:38:39.212Z</time></trkpt><trkpt lat="45.3672056" lon="7.7920401"><ele>360.0</ele><time>2026-04-25T16:38:40.215Z</time></trkpt><trkpt lat="45.367157" lon="7.7921452"><ele>359.0</ele><time>2026-04-25T16:38:41.21Z</time></trkpt><trkpt lat="45.367098" lon="7.7922832"><ele>358.0</ele><time>2026-04-25T16:38:42.21Z</time></trkpt><trkpt lat="45.3670645" lon="7.7924584"><ele>357.0</ele><time>2026-04-25T16:38:43.213Z</time></trkpt><trkpt lat="45.3670427" lon="7.7926623"><ele>356.0</ele><time>2026-04-25T16:38:44.218Z</time></trkpt><trkpt lat="45.3670318" lon="7.7928937"><ele>356.0</ele><time>2026-04-25T16:38:45.221Z</time></trkpt><trkpt lat="45.3670338" lon="7.7931244"><ele>356.0</ele><time>2026-04-25T16:38:46.22Z</time></trkpt><trkpt lat="45.3670256" lon="7.7933371"><ele>356.0</ele><time>2026-04-25T16:38:47.212Z</time></trkpt><trkpt lat="45.3670188" lon="7.7935029"><ele>356.0</ele><time>2026-04-25T16:38:48.211Z</time></trkpt><trkpt lat="45.3670002" lon="7.7936305"><ele>356.4</ele><time>2026-04-25T16:38:49.209Z</time></trkpt><trkpt lat="45.3669592" lon="7.7937517"><ele>356.8</ele><time>2026-04-25T16:38:50.227Z</time></trkpt><trkpt lat="45.3669172" lon="7.7938858"><ele>357.2</ele><time>2026-04-25T16:38:51.221Z</time></trkpt><trkpt lat="45.3668633" lon="7.7940419"><ele>357.59999999999997</ele><time>2026-04-25T16:38:52.217Z</time></trkpt><trkpt lat="45.3667907" lon="7.7941797"><ele>358.0</ele><time>2026-04-25T16:38:53.232Z</time></trkpt><trkpt lat="45.3667083" lon="7.7942931"><ele>358.0</ele><time>2026-04-25T16:38:54.223Z</time></trkpt><trkpt lat="45.366627" lon="7.7943963"><ele>358.0</ele><time>2026-04-25T16:38:55.22Z</time></trkpt><trkpt lat="45.3665448" lon="7.7944603"><ele>358.0</ele><time>2026-04-25T16:38:56.221Z</time></trkpt><trkpt lat="45.3664763" lon="7.794532"><ele>358.0</ele><time>2026-04-25T16:38:57.22Z</time></trkpt><trkpt lat="45.3663826" lon="7.7946311"><ele>358.0</ele><time>2026-04-25T16:38:59.213Z</time></trkpt><trkpt lat="45.366296" lon="7.7945795"><ele>356.5</ele><time>2026-04-25T16:39:01.22Z</time></trkpt><trkpt lat="45.3662183" lon="7.7944826"><ele>355.0</ele><time>2026-04-25T16:39:02.22Z</time></trkpt><trkpt lat="45.3661245" lon="7.7943667"><ele>353.5</ele><time>2026-04-25T16:39:03.22Z</time></trkpt><trkpt lat="45.3660373" lon="7.7942642"><ele>352.0</ele><time>2026-04-25T16:39:04.222Z</time></trkpt><trkpt lat="45.3659466" lon="7.7941621"><ele>351.75</ele><time>2026-04-25T16:39:05.217Z</time></trkpt><trkpt lat="45.3658701" lon="7.7940503"><ele>351.5</ele><time>2026-04-25T16:39:06.221Z</time></trkpt><trkpt lat="45.3658004" lon="7.7939392"><ele>351.25</ele><time>2026-04-25T16:39:07.209Z</time></trkpt><trkpt lat="45.3657379" lon="7.7937742"><ele>351.0</ele><time>2026-04-25T16:39:08.221Z</time></trkpt><trkpt lat="45.3656595" lon="7.7936117"><ele>351.0</ele><time>2026-04-25T16:39:09.223Z</time></trkpt><trkpt lat="45.3655813" lon="7.7934621"><ele>351.0</ele><time>2026-04-25T16:39:10.219Z</time></trkpt><trkpt lat="45.3655066" lon="7.7933271"><ele>351.0</ele><time>2026-04-25T16:39:11.215Z</time></trkpt><trkpt lat="45.3654329" lon="7.7932011"><ele>351.0</ele><time>2026-04-25T16:39:12.223Z</time></trkpt><trkpt lat="45.3653644" lon="7.7930632"><ele>350.4</ele><time>2026-04-25T16:39:13.22Z</time></trkpt><trkpt lat="45.3652929" lon="7.7929281"><ele>349.8</ele><time>2026-04-25T16:39:14.23Z</time></trkpt><trkpt lat="45.3652218" lon="7.7927922"><ele>349.2</ele><time>2026-04-25T16:39:15.228Z</time></trkpt><trkpt lat="45.3651498" lon="7.792667"><ele>348.59999999999997</ele><time>2026-04-25T16:39:16.227Z</time></trkpt><trkpt lat="45.3650872" lon="7.7925637"><ele>348.0</ele><time>2026-04-25T16:39:17.224Z</time></trkpt><trkpt lat="45.3650385" lon="7.7924675"><ele>348.0</ele><time>2026-04-25T16:39:18.221Z</time></trkpt><trkpt lat="45.3650084" lon="7.7923672"><ele>348.0</ele><time>2026-04-25T16:39:19.22Z</time></trkpt><trkpt lat="45.3649977" lon="7.7922328"><ele>348.0</ele><time>2026-04-25T16:39:20.218Z</time></trkpt><trkpt lat="45.3649857" lon="7.7920858"><ele>348.0</ele><time>2026-04-25T16:39:21.23Z</time></trkpt><trkpt lat="45.3649817" lon="7.7919467"><ele>348.0</ele><time>2026-04-25T16:39:22.214Z</time></trkpt><trkpt lat="45.3649569" lon="7.7918066"><ele>348.2</ele><time>2026-04-25T16:39:23.216Z</time></trkpt><trkpt lat="45.3649137" lon="7.791667"><ele>348.4</ele><time>2026-04-25T16:39:24.207Z</time></trkpt><trkpt lat="45.364855" lon="7.7915241"><ele>348.59999999999997</ele><time>2026-04-25T16:39:25.215Z</time></trkpt><trkpt lat="45.3648043" lon="7.7913818"><ele>348.79999999999995</ele><time>2026-04-25T16:39:26.219Z</time></trkpt><trkpt lat="45.3647544" lon="7.7912431"><ele>349.0</ele><time>2026-04-25T16:39:27.215Z</time></trkpt><trkpt lat="45.3647165" lon="7.7911071"><ele>349.0</ele><time>2026-04-25T16:39:28.205Z</time></trkpt><trkpt lat="45.3647041" lon="7.7909701"><ele>349.0</ele><time>2026-04-25T16:39:29.2Z</time></trkpt><trkpt lat="45.3646866" lon="7.7908519"><ele>349.0</ele><time>2026-04-25T16:39:30.207Z</time></trkpt><trkpt lat="45.3646667" lon="7.7907269"><ele>349.0</ele><time>2026-04-25T16:39:31.205Z</time></trkpt><trkpt lat="45.3646415" lon="7.7905854"><ele>349.0</ele><time>2026-04-25T16:39:32.216Z</time></trkpt><trkpt lat="45.364621" lon="7.7904419"><ele>348.25</ele><time>2026-04-25T16:39:33.216Z</time></trkpt><trkpt lat="45.3646026" lon="7.7902717"><ele>347.5</ele><time>2026-04-25T16:39:34.229Z</time></trkpt><trkpt lat="45.3645888" lon="7.7900985"><ele>346.75</ele><time>2026-04-25T16:39:35.215Z</time></trkpt><trkpt lat="45.364574" lon="7.7898976"><ele>346.0</ele><time>2026-04-25T16:39:36.217Z</time></trkpt><trkpt lat="45.3645601" lon="7.7896916"><ele>346.0</ele><time>2026-04-25T16:39:37.226Z</time></trkpt><trkpt lat="45.3645865" lon="7.7894956"><ele>346.0</ele><time>2026-04-25T16:39:38.219Z</time></trkpt><trkpt lat="45.3646219" lon="7.7893084"><ele>346.0</ele><time>2026-04-25T16:39:39.227Z</time></trkpt><trkpt lat="45.3646528" lon="7.7891023"><ele>346.0</ele><time>2026-04-25T16:39:40.224Z</time></trkpt><trkpt lat="45.3646738" lon="7.7888914"><ele>345.66666666666663</ele><time>2026-04-25T16:39:41.225Z</time></trkpt><trkpt lat="45.364695" lon="7.7886724"><ele>345.3333333333333</ele><time>2026-04-25T16:39:42.225Z</time></trkpt><trkpt lat="45.3647091" lon="7.7884335"><ele>345.0</ele><time>2026-04-25T16:39:43.227Z</time></trkpt><trkpt lat="45.3647282" lon="7.7882053"><ele>345.6666666666667</ele><time>2026-04-25T16:39:44.224Z</time></trkpt><trkpt lat="45.3647415" lon="7.7879802"><ele>346.33333333333337</ele><time>2026-04-25T16:39:45.218Z</time></trkpt><trkpt lat="45.3647661" lon="7.7877622"><ele>347.0</ele><time>2026-04-25T16:39:46.225Z</time></trkpt><trkpt lat="45.3647892" lon="7.7875689"><ele>347.0</ele><time>2026-04-25T16:39:47.227Z</time></trkpt><trkpt lat="45.3648142" lon="7.7873747"><ele>347.0</ele><time>2026-04-25T16:39:48.223Z</time></trkpt><trkpt lat="45.3648273" lon="7.787194"><ele>347.0</ele><time>2026-04-25T16:39:49.225Z</time></trkpt><trkpt lat="45.3648314" lon="7.7870247"><ele>347.0</ele><time>2026-04-25T16:39:50.214Z</time></trkpt><trkpt lat="45.3648465" lon="7.7869062"><ele>347.0</ele><time>2026-04-25T16:39:51.22Z</time></trkpt><trkpt lat="45.3648603" lon="7.7868148"><ele>347.0</ele><time>2026-04-25T16:39:52.222Z</time></trkpt><trkpt lat="45.3648773" lon="7.7866896"><ele>347.0</ele><time>2026-04-25T16:39:54.21Z</time></trkpt><trkpt lat="45.3647766" lon="7.7866763"><ele>347.0</ele><time>2026-04-25T16:39:58.21Z</time></trkpt><trkpt lat="45.3646964" lon="7.7867005"><ele>347.0</ele><time>2026-04-25T16:39:59.213Z</time></trkpt><trkpt lat="45.3646147" lon="7.786729"><ele>347.0</ele><time>2026-04-25T16:40:00.215Z</time></trkpt><trkpt lat="45.3645091" lon="7.7867685"><ele>347.0</ele><time>2026-04-25T16:40:01.217Z</time></trkpt><trkpt lat="45.3643724" lon="7.7868337"><ele>347.0</ele><time>2026-04-25T16:40:02.216Z</time></trkpt><trkpt lat="45.3642254" lon="7.7868825"><ele>347.0</ele><time>2026-04-25T16:40:03.218Z</time></trkpt><trkpt lat="45.3640468" lon="7.786946"><ele>347.0</ele><time>2026-04-25T16:40:04.216Z</time></trkpt><trkpt lat="45.3638718" lon="7.7870331"><ele>347.0</ele><time>2026-04-25T16:40:05.217Z</time></trkpt><trkpt lat="45.3637017" lon="7.7871079"><ele>347.0</ele><time>2026-04-25T16:40:06.222Z</time></trkpt><trkpt lat="45.3635301" lon="7.7871712"><ele>347.0</ele><time>2026-04-25T16:40:07.225Z</time></trkpt><trkpt lat="45.3633448" lon="7.7872264"><ele>347.0</ele><time>2026-04-25T16:40:08.219Z</time></trkpt><trkpt lat="45.3631458" lon="7.7872881"><ele>347.0</ele><time>2026-04-25T16:40:09.224Z</time></trkpt><trkpt lat="45.3629515" lon="7.787367"><ele>346.0</ele><time>2026-04-25T16:40:10.218Z</time></trkpt><trkpt lat="45.3627613" lon="7.7874521"><ele>345.0</ele><time>2026-04-25T16:40:11.218Z</time></trkpt><trkpt lat="45.3625637" lon="7.7875273"><ele>344.0</ele><time>2026-04-25T16:40:12.223Z</time></trkpt><trkpt lat="45.3623864" lon="7.7875987"><ele>344.0</ele><time>2026-04-25T16:40:13.222Z</time></trkpt><trkpt lat="45.3622108" lon="7.78766"><ele>344.0</ele><time>2026-04-25T16:40:14.224Z</time></trkpt><trkpt lat="45.3620434" lon="7.7877348"><ele>344.0</ele><time>2026-04-25T16:40:15.225Z</time></trkpt><trkpt lat="45.3618719" lon="7.7878039"><ele>344.0</ele><time>2026-04-25T16:40:16.223Z</time></trkpt><trkpt lat="45.3616947" lon="7.7878561"><ele>344.0</ele><time>2026-04-25T16:40:17.224Z</time></trkpt><trkpt lat="45.3615344" lon="7.7879113"><ele>344.0</ele><time>2026-04-25T16:40:18.228Z</time></trkpt><trkpt lat="45.3613911" lon="7.7879898"><ele>343.75</ele><time>2026-04-25T16:40:19.225Z</time></trkpt><trkpt lat="45.3612473" lon="7.7880473"><ele>343.5</ele><time>2026-04-25T16:40:20.216Z</time></trkpt><trkpt lat="45.3611142" lon="7.7880874"><ele>343.25</ele><time>2026-04-25T16:40:21.219Z</time></trkpt><trkpt lat="45.3610134" lon="7.7881299"><ele>343.0</ele><time>2026-04-25T16:40:22.21Z</time></trkpt><trkpt lat="45.3609374" lon="7.7880929"><ele>343.0</ele><time>2026-04-25T16:40:23.246Z</time></trkpt><trkpt lat="45.3608357" lon="7.7879901"><ele>343.0</ele><time>2026-04-25T16:40:24.223Z</time></trkpt><trkpt lat="45.3607125" lon="7.787841"><ele>343.0</ele><time>2026-04-25T16:40:25.213Z</time></trkpt><trkpt lat="45.3605889" lon="7.7877005"><ele>343.0</ele><time>2026-04-25T16:40:26.213Z</time></trkpt><trkpt lat="45.3604633" lon="7.7875228"><ele>341.66666666666663</ele><time>2026-04-25T16:40:27.213Z</time></trkpt><trkpt lat="45.3603162" lon="7.7873671"><ele>340.3333333333333</ele><time>2026-04-25T16:40:28.215Z</time></trkpt><trkpt lat="45.3601642" lon="7.7872042"><ele>339.0</ele><time>2026-04-25T16:40:29.223Z</time></trkpt><trkpt lat="45.3600054" lon="7.7870403"><ele>339.0</ele><time>2026-04-25T16:40:30.221Z</time></trkpt><trkpt lat="45.3598309" lon="7.7868546"><ele>339.0</ele><time>2026-04-25T16:40:31.22Z</time></trkpt><trkpt lat="45.3596638" lon="7.7866685"><ele>339.0</ele><time>2026-04-25T16:40:32.211Z</time></trkpt><trkpt lat="45.3595033" lon="7.7864706"><ele>337.3333333333333</ele><time>2026-04-25T16:40:33.217Z</time></trkpt><trkpt lat="45.3593472" lon="7.7862831"><ele>335.66666666666663</ele><time>2026-04-25T16:40:34.217Z</time></trkpt><trkpt lat="45.3591948" lon="7.7861165"><ele>334.0</ele><time>2026-04-25T16:40:35.216Z</time></trkpt><trkpt lat="45.3590561" lon="7.785933"><ele>334.0</ele><time>2026-04-25T16:40:36.211Z</time></trkpt><trkpt lat="45.3589407" lon="7.7857702"><ele>334.0</ele><time>2026-04-25T16:40:37.219Z</time></trkpt><trkpt lat="45.3588436" lon="7.7855835"><ele>334.0</ele><time>2026-04-25T16:40:38.222Z</time></trkpt><trkpt lat="45.358734" lon="7.7853968"><ele>333.25</ele><time>2026-04-25T16:40:39.225Z</time></trkpt><trkpt lat="45.3586236" lon="7.785215"><ele>332.5</ele><time>2026-04-25T16:40:40.221Z</time></trkpt><trkpt lat="45.3585437" lon="7.7850487"><ele>331.75</ele><time>2026-04-25T16:40:41.223Z</time></trkpt><trkpt lat="45.3584568" lon="7.7849078"><ele>331.0</ele><time>2026-04-25T16:40:42.219Z</time></trkpt><trkpt lat="45.3583621" lon="7.7847974"><ele>331.0</ele><time>2026-04-25T16:40:43.225Z</time></trkpt><trkpt lat="45.3582529" lon="7.7846902"><ele>331.0</ele><time>2026-04-25T16:40:44.223Z</time></trkpt><trkpt lat="45.3581827" lon="7.7845631"><ele>331.0</ele><time>2026-04-25T16:40:45.205Z</time></trkpt><trkpt lat="45.358111" lon="7.7843742"><ele>331.0</ele><time>2026-04-25T16:40:46.206Z</time></trkpt><trkpt lat="45.358053" lon="7.7841707"><ele>330.5</ele><time>2026-04-25T16:40:47.205Z</time></trkpt><trkpt lat="45.3580073" lon="7.7839599"><ele>330.0</ele><time>2026-04-25T16:40:48.217Z</time></trkpt><trkpt lat="45.3579719" lon="7.7837624"><ele>329.5</ele><time>2026-04-25T16:40:49.22Z</time></trkpt><trkpt lat="45.3579353" lon="7.7835866"><ele>329.0</ele><time>2026-04-25T16:40:50.224Z</time></trkpt><trkpt lat="45.3578937" lon="7.783445"><ele>328.79999999999995</ele><time>2026-04-25T16:40:51.22Z</time></trkpt><trkpt lat="45.357848" lon="7.7833336"><ele>328.59999999999997</ele><time>2026-04-25T16:40:52.222Z</time></trkpt><trkpt lat="45.3577755" lon="7.7832833"><ele>328.4</ele><time>2026-04-25T16:40:53.223Z</time></trkpt><trkpt lat="45.3577232" lon="7.7831781"><ele>328.2</ele><time>2026-04-25T16:40:54.221Z</time></trkpt><trkpt lat="45.3576458" lon="7.7830848"><ele>328.0</ele><time>2026-04-25T16:40:55.212Z</time></trkpt><trkpt lat="45.3575339" lon="7.7830246"><ele>328.0</ele><time>2026-04-25T16:40:56.216Z</time></trkpt><trkpt lat="45.3574411" lon="7.7829563"><ele>328.0</ele><time>2026-04-25T16:40:57.212Z</time></trkpt><trkpt lat="45.3573898" lon="7.7828652"><ele>328.0</ele><time>2026-04-25T16:40:58.214Z</time></trkpt><trkpt lat="45.3573599" lon="7.7827301"><ele>328.0</ele><time>2026-04-25T16:40:59.215Z</time></trkpt><trkpt lat="45.3573489" lon="7.7825523"><ele>328.0</ele><time>2026-04-25T16:41:00.203Z</time></trkpt><trkpt lat="45.3573491" lon="7.7823508"><ele>326.75</ele><time>2026-04-25T16:41:01.21Z</time></trkpt><trkpt lat="45.3573536" lon="7.7821784"><ele>325.5</ele><time>2026-04-25T16:41:02.205Z</time></trkpt><trkpt lat="45.3573854" lon="7.7820073"><ele>324.25</ele><time>2026-04-25T16:41:03.21Z</time></trkpt><trkpt lat="45.3574232" lon="7.7818319"><ele>323.0</ele><time>2026-04-25T16:41:04.216Z</time></trkpt><trkpt lat="45.3574648" lon="7.7816838"><ele>322.4</ele><time>2026-04-25T16:41:05.214Z</time></trkpt><trkpt lat="45.3574921" lon="7.7815631"><ele>321.79999999999995</ele><time>2026-04-25T16:41:06.213Z</time></trkpt><trkpt lat="45.3575045" lon="7.7814409"><ele>321.2</ele><time>2026-04-25T16:41:07.213Z</time></trkpt><trkpt lat="45.3574742" lon="7.7813074"><ele>320.6</ele><time>2026-04-25T16:41:08.191Z</time></trkpt><trkpt lat="45.357424" lon="7.7811827"><ele>320.0</ele><time>2026-04-25T16:41:09.2Z</time></trkpt><trkpt lat="45.3573486" lon="7.7810633"><ele>319.2</ele><time>2026-04-25T16:41:10.205Z</time></trkpt><trkpt lat="45.3572965" lon="7.7809279"><ele>318.4</ele><time>2026-04-25T16:41:11.197Z</time></trkpt><trkpt lat="45.357248" lon="7.7807856"><ele>317.6</ele><time>2026-04-25T16:41:12.198Z</time></trkpt><trkpt lat="45.3571826" lon="7.7806535"><ele>316.8</ele><time>2026-04-25T16:41:13.197Z</time></trkpt><trkpt lat="45.3570842" lon="7.7805707"><ele>316.0</ele><time>2026-04-25T16:41:14.203Z</time></trkpt><trkpt lat="45.3569615" lon="7.7804859"><ele>315.25</ele><time>2026-04-25T16:41:15.2Z</time></trkpt><trkpt lat="45.3568467" lon="7.7803922"><ele>314.5</ele><time>2026-04-25T16:41:16.213Z</time></trkpt><trkpt lat="45.3567224" lon="7.7803233"><ele>313.75</ele><time>2026-04-25T16:41:17.211Z</time></trkpt><trkpt lat="45.3566085" lon="7.7802534"><ele>313.0</ele><time>2026-04-25T16:41:18.201Z</time></trkpt><trkpt lat="45.3564855" lon="7.780172"><ele>310.0</ele><time>2026-04-25T16:41:19.206Z</time></trkpt><trkpt lat="45.3563651" lon="7.7801123"><ele>307.0</ele><time>2026-04-25T16:41:20.204Z</time></trkpt><trkpt lat="45.3562394" lon="7.7800648"><ele>304.0</ele><time>2026-04-25T16:41:21.212Z</time></trkpt><trkpt lat="45.3561132" lon="7.7800341"><ele>301.0</ele><time>2026-04-25T16:41:22.218Z</time></trkpt><trkpt lat="45.3559917" lon="7.780008"><ele>301.0</ele><time>2026-04-25T16:41:23.224Z</time></trkpt><trkpt lat="45.3558828" lon="7.7799706"><ele>301.0</ele><time>2026-04-25T16:41:24.219Z</time></trkpt><trkpt lat="45.3557915" lon="7.7799431"><ele>301.0</ele><time>2026-04-25T16:41:25.227Z</time></trkpt><trkpt lat="45.3557169" lon="7.7798917"><ele>301.0</ele><time>2026-04-25T16:41:26.21Z</time></trkpt><trkpt lat="45.3556903" lon="7.7797546"><ele>301.0</ele><time>2026-04-25T16:41:28.218Z</time></trkpt><trkpt lat="45.3557417" lon="7.7796634"><ele>301.0</ele><time>2026-04-25T16:41:29.21Z</time></trkpt><trkpt lat="45.3557956" lon="7.7795637"><ele>301.0</ele><time>2026-04-25T16:41:30.215Z</time></trkpt><trkpt lat="45.3558316" lon="7.7794593"><ele>301.0</ele><time>2026-04-25T16:41:31.222Z</time></trkpt><trkpt lat="45.3558806" lon="7.7793547"><ele>301.0</ele><time>2026-04-25T16:41:32.221Z</time></trkpt><trkpt lat="45.3559453" lon="7.779247"><ele>301.0</ele><time>2026-04-25T16:41:33.21Z</time></trkpt><trkpt lat="45.3560214" lon="7.7791061"><ele>301.66666666666663</ele><time>2026-04-25T16:41:34.219Z</time></trkpt><trkpt lat="45.3561224" lon="7.7789414"><ele>302.3333333333333</ele><time>2026-04-25T16:41:35.222Z</time></trkpt><trkpt lat="45.3562369" lon="7.7787684"><ele>303.0</ele><time>2026-04-25T16:41:36.219Z</time></trkpt><trkpt lat="45.3563894" lon="7.778555"><ele>301.0</ele><time>2026-04-25T16:41:37.212Z</time></trkpt><trkpt lat="45.3565301" lon="7.7783452"><ele>299.0</ele><time>2026-04-25T16:41:38.219Z</time></trkpt><trkpt lat="45.3566622" lon="7.7781175"><ele>297.0</ele><time>2026-04-25T16:41:39.214Z</time></trkpt><trkpt lat="45.3567886" lon="7.7778995"><ele>297.0</ele><time>2026-04-25T16:41:40.215Z</time></trkpt><trkpt lat="45.3569333" lon="7.7776893"><ele>297.0</ele><time>2026-04-25T16:41:41.216Z</time></trkpt><trkpt lat="45.3570743" lon="7.7774678"><ele>297.0</ele><time>2026-04-25T16:41:42.216Z</time></trkpt><trkpt lat="45.3571893" lon="7.7772302"><ele>297.6666666666667</ele><time>2026-04-25T16:41:43.217Z</time></trkpt><trkpt lat="45.3573273" lon="7.7770134"><ele>298.33333333333337</ele><time>2026-04-25T16:41:44.22Z</time></trkpt><trkpt lat="45.357453" lon="7.7767745"><ele>299.0</ele><time>2026-04-25T16:41:45.217Z</time></trkpt><trkpt lat="45.3576023" lon="7.7765795"><ele>299.0</ele><time>2026-04-25T16:41:46.213Z</time></trkpt><trkpt lat="45.3577166" lon="7.7763289"><ele>299.0</ele><time>2026-04-25T16:41:47.213Z</time></trkpt><trkpt lat="45.3578433" lon="7.7760756"><ele>299.0</ele><time>2026-04-25T16:41:48.214Z</time></trkpt><trkpt lat="45.3579212" lon="7.7757703"><ele>299.0</ele><time>2026-04-25T16:41:49.212Z</time></trkpt><trkpt lat="45.3580245" lon="7.7754987"><ele>299.0</ele><time>2026-04-25T16:41:50.212Z</time></trkpt><trkpt lat="45.3581213" lon="7.7752106"><ele>299.0</ele><time>2026-04-25T16:41:51.209Z</time></trkpt><trkpt lat="45.3582389" lon="7.7749535"><ele>299.0</ele><time>2026-04-25T16:41:52.203Z</time></trkpt><trkpt lat="45.3583386" lon="7.7747329"><ele>299.0</ele><time>2026-04-25T16:41:53.217Z</time></trkpt><trkpt lat="45.3584291" lon="7.7744965"><ele>299.0</ele><time>2026-04-25T16:41:54.207Z</time></trkpt><trkpt lat="45.3584948" lon="7.7742354"><ele>298.6666666666667</ele><time>2026-04-25T16:41:55.212Z</time></trkpt><trkpt lat="45.3585099" lon="7.7739806"><ele>298.3333333333333</ele><time>2026-04-25T16:41:56.224Z</time></trkpt><trkpt lat="45.3585194" lon="7.7737552"><ele>298.0</ele><time>2026-04-25T16:41:57.216Z</time></trkpt><trkpt lat="45.3585521" lon="7.7735522"><ele>298.0</ele><time>2026-04-25T16:41:58.22Z</time></trkpt><trkpt lat="45.3585854" lon="7.7733784"><ele>298.0</ele><time>2026-04-25T16:41:59.22Z</time></trkpt><trkpt lat="45.3586427" lon="7.773233"><ele>298.0</ele><time>2026-04-25T16:42:00.217Z</time></trkpt><trkpt lat="45.3587212" lon="7.7731152"><ele>298.0</ele><time>2026-04-25T16:42:01.207Z</time></trkpt><trkpt lat="45.358844" lon="7.7729969"><ele>299.3333333333333</ele><time>2026-04-25T16:42:02.203Z</time></trkpt><trkpt lat="45.3589863" lon="7.7728915"><ele>300.6666666666667</ele><time>2026-04-25T16:42:03.204Z</time></trkpt><trkpt lat="45.3591209" lon="7.7728248"><ele>302.0</ele><time>2026-04-25T16:42:04.215Z</time></trkpt><trkpt lat="45.3592869" lon="7.7727305"><ele>301.33333333333337</ele><time>2026-04-25T16:42:05.215Z</time></trkpt><trkpt lat="45.3594425" lon="7.7726449"><ele>300.6666666666667</ele><time>2026-04-25T16:42:06.214Z</time></trkpt><trkpt lat="45.3595827" lon="7.7725484"><ele>300.0</ele><time>2026-04-25T16:42:07.212Z</time></trkpt><trkpt lat="45.3597032" lon="7.7724854"><ele>301.5</ele><time>2026-04-25T16:42:08.217Z</time></trkpt><trkpt lat="45.3597914" lon="7.7724383"><ele>303.0</ele><time>2026-04-25T16:42:09.207Z</time></trkpt><trkpt lat="45.3598578" lon="7.7724238"><ele>304.5</ele><time>2026-04-25T16:42:10.215Z</time></trkpt><trkpt lat="45.3599414" lon="7.7723692"><ele>306.0</ele><time>2026-04-25T16:42:11.212Z</time></trkpt><trkpt lat="45.360016" lon="7.7723223"><ele>307.5</ele><time>2026-04-25T16:42:12.21Z</time></trkpt><trkpt lat="45.3600968" lon="7.772277"><ele>309.0</ele><time>2026-04-25T16:42:13.211Z</time></trkpt><trkpt lat="45.3601747" lon="7.7722294"><ele>309.0</ele><time>2026-04-25T16:42:14.207Z</time></trkpt><trkpt lat="45.3602436" lon="7.7721734"><ele>309.0</ele><time>2026-04-25T16:42:15.21Z</time></trkpt><trkpt lat="45.3603387" lon="7.7720542"><ele>309.0</ele><time>2026-04-25T16:42:17.203Z</time></trkpt><trkpt lat="45.3603638" lon="7.7719641"><ele>309.0</ele><time>2026-04-25T16:42:18.2Z</time></trkpt><trkpt lat="45.3603542" lon="7.7718571"><ele>309.0</ele><time>2026-04-25T16:42:19.204Z</time></trkpt><trkpt lat="45.3603226" lon="7.7717261"><ele>309.0</ele><time>2026-04-25T16:42:20.208Z</time></trkpt><trkpt lat="45.3602547" lon="7.7715636"><ele>308.6666666666667</ele><time>2026-04-25T16:42:21.21Z</time></trkpt><trkpt lat="45.3601779" lon="7.7713813"><ele>308.33333333333337</ele><time>2026-04-25T16:42:22.205Z</time></trkpt><trkpt lat="45.3600791" lon="7.7711765"><ele>308.0</ele><time>2026-04-25T16:42:23.204Z</time></trkpt><trkpt lat="45.3599341" lon="7.7708971"><ele>308.6666666666667</ele><time>2026-04-25T16:42:24.192Z</time></trkpt><trkpt lat="45.3598016" lon="7.7706385"><ele>309.3333333333333</ele><time>2026-04-25T16:42:25.195Z</time></trkpt><trkpt lat="45.3596946" lon="7.7703894"><ele>310.0</ele><time>2026-04-25T16:42:26.198Z</time></trkpt><trkpt lat="45.3596267" lon="7.770169"><ele>308.0</ele><time>2026-04-25T16:42:27.207Z</time></trkpt><trkpt lat="45.359614" lon="7.7699827"><ele>306.0</ele><time>2026-04-25T16:42:28.197Z</time></trkpt><trkpt lat="45.3596258" lon="7.7697922"><ele>304.0</ele><time>2026-04-25T16:42:29.198Z</time></trkpt><trkpt lat="45.3596387" lon="7.7696244"><ele>302.0</ele><time>2026-04-25T16:42:30.191Z</time></trkpt><trkpt lat="45.3596925" lon="7.7694614"><ele>303.4</ele><time>2026-04-25T16:42:31.205Z</time></trkpt><trkpt lat="45.3597479" lon="7.7693204"><ele>304.79999999999995</ele><time>2026-04-25T16:42:32.197Z</time></trkpt><trkpt lat="45.3597862" lon="7.7691749"><ele>306.2</ele><time>2026-04-25T16:42:33.208Z</time></trkpt><trkpt lat="45.3598137" lon="7.7690742"><ele>307.59999999999997</ele><time>2026-04-25T16:42:34.201Z</time></trkpt><trkpt lat="45.3598367" lon="7.7689605"><ele>309.0</ele><time>2026-04-25T16:42:35.194Z</time></trkpt><trkpt lat="45.3598366" lon="7.7688354"><ele>309.0</ele><time>2026-04-25T16:42:36.203Z</time></trkpt><trkpt lat="45.3598097" lon="7.7687354"><ele>309.0</ele><time>2026-04-25T16:42:37.196Z</time></trkpt><trkpt lat="45.3597553" lon="7.7686566"><ele>309.0</ele><time>2026-04-25T16:42:38.206Z</time></trkpt><trkpt lat="45.3596572" lon="7.7685915"><ele>309.0</ele><time>2026-04-25T16:42:39.205Z</time></trkpt><trkpt lat="45.3595005" lon="7.7685706"><ele>309.0</ele><time>2026-04-25T16:42:40.193Z</time></trkpt><trkpt lat="45.3593328" lon="7.7685399"><ele>303.5</ele><time>2026-04-25T16:42:41.193Z</time></trkpt><trkpt lat="45.3590663" lon="7.7685704"><ele>298.0</ele><time>2026-04-25T16:42:42.205Z</time></trkpt><trkpt lat="45.3588366" lon="7.7685479"><ele>297.3333333333333</ele><time>2026-04-25T16:42:43.202Z</time></trkpt><trkpt lat="45.3586037" lon="7.7685457"><ele>296.6666666666667</ele><time>2026-04-25T16:42:44.201Z</time></trkpt><trkpt lat="45.3584005" lon="7.7685063"><ele>296.0</ele><time>2026-04-25T16:42:45.213Z</time></trkpt><trkpt lat="45.358169" lon="7.7684667"><ele>295.33333333333337</ele><time>2026-04-25T16:42:46.216Z</time></trkpt><trkpt lat="45.3579718" lon="7.7684269"><ele>294.6666666666667</ele><time>2026-04-25T16:42:47.22Z</time></trkpt><trkpt lat="45.3577422" lon="7.7683657"><ele>294.0</ele><time>2026-04-25T16:42:48.225Z</time></trkpt><trkpt lat="45.3575304" lon="7.7683171"><ele>294.0</ele><time>2026-04-25T16:42:49.218Z</time></trkpt><trkpt lat="45.3573144" lon="7.7682729"><ele>294.0</ele><time>2026-04-25T16:42:50.218Z</time></trkpt><trkpt lat="45.3571011" lon="7.7682271"><ele>294.0</ele><time>2026-04-25T16:42:51.219Z</time></trkpt><trkpt lat="45.3568648" lon="7.7681697"><ele>294.3333333333333</ele><time>2026-04-25T16:42:52.217Z</time></trkpt><trkpt lat="45.3566547" lon="7.7681197"><ele>294.66666666666663</ele><time>2026-04-25T16:42:53.22Z</time></trkpt><trkpt lat="45.3564481" lon="7.7680725"><ele>295.0</ele><time>2026-04-25T16:42:54.214Z</time></trkpt><trkpt lat="45.3562455" lon="7.7680344"><ele>294.3333333333333</ele><time>2026-04-25T16:42:55.211Z</time></trkpt><trkpt lat="45.3560442" lon="7.7679816"><ele>293.6666666666667</ele><time>2026-04-25T16:42:56.217Z</time></trkpt><trkpt lat="45.3558257" lon="7.7679163"><ele>293.0</ele><time>2026-04-25T16:42:57.219Z</time></trkpt><trkpt lat="45.3556056" lon="7.7678702"><ele>293.0</ele><time>2026-04-25T16:42:58.247Z</time></trkpt><trkpt lat="45.355398" lon="7.7678324"><ele>293.0</ele><time>2026-04-25T16:42:59.221Z</time></trkpt><trkpt lat="45.3551767" lon="7.7677835"><ele>293.0</ele><time>2026-04-25T16:43:00.222Z</time></trkpt><trkpt lat="45.3549752" lon="7.7677314"><ele>293.0</ele><time>2026-04-25T16:43:01.221Z</time></trkpt><trkpt lat="45.3547768" lon="7.7676894"><ele>293.0</ele><time>2026-04-25T16:43:02.218Z</time></trkpt><trkpt lat="45.3545716" lon="7.767632"><ele>293.0</ele><time>2026-04-25T16:43:03.217Z</time></trkpt><trkpt lat="45.3543786" lon="7.7675749"><ele>293.0</ele><time>2026-04-25T16:43:04.215Z</time></trkpt><trkpt lat="45.3541888" lon="7.7675123"><ele>293.0</ele><time>2026-04-25T16:43:05.22Z</time></trkpt><trkpt lat="45.354022" lon="7.767468"><ele>293.0</ele><time>2026-04-25T16:43:06.222Z</time></trkpt><trkpt lat="45.3538585" lon="7.7674574"><ele>292.6666666666667</ele><time>2026-04-25T16:43:07.228Z</time></trkpt><trkpt lat="45.3536927" lon="7.7674345"><ele>292.3333333333333</ele><time>2026-04-25T16:43:08.228Z</time></trkpt><trkpt lat="45.3535326" lon="7.7673775"><ele>292.0</ele><time>2026-04-25T16:43:09.228Z</time></trkpt><trkpt lat="45.3533711" lon="7.7673441"><ele>292.0</ele><time>2026-04-25T16:43:10.227Z</time></trkpt><trkpt lat="45.3531802" lon="7.7672993"><ele>292.0</ele><time>2026-04-25T16:43:11.218Z</time></trkpt><trkpt lat="45.352975" lon="7.767262"><ele>292.0</ele><time>2026-04-25T16:43:12.222Z</time></trkpt><trkpt lat="45.3527552" lon="7.7672084"><ele>291.5</ele><time>2026-04-25T16:43:13.223Z</time></trkpt><trkpt lat="45.3525316" lon="7.7671623"><ele>291.0</ele><time>2026-04-25T16:43:14.224Z</time></trkpt><trkpt lat="45.3522968" lon="7.7671291"><ele>290.5</ele><time>2026-04-25T16:43:15.223Z</time></trkpt><trkpt lat="45.3520518" lon="7.7670711"><ele>290.0</ele><time>2026-04-25T16:43:16.215Z</time></trkpt><trkpt lat="45.3518122" lon="7.7669749"><ele>290.0</ele><time>2026-04-25T16:43:17.221Z</time></trkpt><trkpt lat="45.3515914" lon="7.7669128"><ele>290.0</ele><time>2026-04-25T16:43:18.224Z</time></trkpt><trkpt lat="45.3513674" lon="7.7668535"><ele>290.33333333333337</ele><time>2026-04-25T16:43:19.228Z</time></trkpt><trkpt lat="45.3511457" lon="7.7668164"><ele>290.6666666666667</ele><time>2026-04-25T16:43:20.218Z</time></trkpt><trkpt lat="45.3509348" lon="7.7667657"><ele>291.0</ele><time>2026-04-25T16:43:21.215Z</time></trkpt><trkpt lat="45.350752" lon="7.7667267"><ele>291.0</ele><time>2026-04-25T16:43:22.215Z</time></trkpt><trkpt lat="45.3505565" lon="7.7666889"><ele>291.0</ele><time>2026-04-25T16:43:23.218Z</time></trkpt><trkpt lat="45.3503593" lon="7.7666415"><ele>291.0</ele><time>2026-04-25T16:43:24.211Z</time></trkpt><trkpt lat="45.3501834" lon="7.7666087"><ele>291.3333333333333</ele><time>2026-04-25T16:43:25.209Z</time></trkpt><trkpt lat="45.3500043" lon="7.7665694"><ele>291.66666666666663</ele><time>2026-04-25T16:43:26.205Z</time></trkpt><trkpt lat="45.3498284" lon="7.7665328"><ele>292.0</ele><time>2026-04-25T16:43:27.211Z</time></trkpt><trkpt lat="45.349638" lon="7.766488"><ele>290.66666666666663</ele><time>2026-04-25T16:43:28.227Z</time></trkpt><trkpt lat="45.3494709" lon="7.7664464"><ele>289.3333333333333</ele><time>2026-04-25T16:43:29.216Z</time></trkpt><trkpt lat="45.3492774" lon="7.7663995"><ele>288.0</ele><time>2026-04-25T16:43:30.218Z</time></trkpt><trkpt lat="45.3490867" lon="7.7663598"><ele>288.0</ele><time>2026-04-25T16:43:31.213Z</time></trkpt><trkpt lat="45.3488998" lon="7.7663298"><ele>288.0</ele><time>2026-04-25T16:43:32.217Z</time></trkpt><trkpt lat="45.3487053" lon="7.7662755"><ele>288.0</ele><time>2026-04-25T16:43:33.226Z</time></trkpt><trkpt lat="45.3484966" lon="7.7662395"><ele>288.3333333333333</ele><time>2026-04-25T16:43:34.226Z</time></trkpt><trkpt lat="45.3482985" lon="7.7661944"><ele>288.66666666666663</ele><time>2026-04-25T16:43:35.217Z</time></trkpt><trkpt lat="45.3481077" lon="7.766158"><ele>289.0</ele><time>2026-04-25T16:43:36.218Z</time></trkpt><trkpt lat="45.3479134" lon="7.7661213"><ele>289.66666666666663</ele><time>2026-04-25T16:43:37.219Z</time></trkpt><trkpt lat="45.3477125" lon="7.7660645"><ele>290.3333333333333</ele><time>2026-04-25T16:43:38.215Z</time></trkpt><trkpt lat="45.3475012" lon="7.7660194"><ele>291.0</ele><time>2026-04-25T16:43:39.216Z</time></trkpt><trkpt lat="45.3473103" lon="7.7659661"><ele>291.0</ele><time>2026-04-25T16:43:40.215Z</time></trkpt><trkpt lat="45.3471103" lon="7.7659203"><ele>291.0</ele><time>2026-04-25T16:43:41.225Z</time></trkpt><trkpt lat="45.3469099" lon="7.765868"><ele>291.0</ele><time>2026-04-25T16:43:42.221Z</time></trkpt><trkpt lat="45.3467052" lon="7.7658196"><ele>291.0</ele><time>2026-04-25T16:43:43.222Z</time></trkpt><trkpt lat="45.3464805" lon="7.7657749"><ele>291.0</ele><time>2026-04-25T16:43:44.224Z</time></trkpt><trkpt lat="45.3462644" lon="7.7657358"><ele>291.0</ele><time>2026-04-25T16:43:45.222Z</time></trkpt><trkpt lat="45.3460381" lon="7.7656828"><ele>290.3333333333333</ele><time>2026-04-25T16:43:46.22Z</time></trkpt><trkpt lat="45.3458157" lon="7.7656363"><ele>289.66666666666663</ele><time>2026-04-25T16:43:47.219Z</time></trkpt><trkpt lat="45.3456083" lon="7.7655808"><ele>289.0</ele><time>2026-04-25T16:43:48.221Z</time></trkpt><trkpt lat="45.3454366" lon="7.7655328"><ele>289.0</ele><time>2026-04-25T16:43:49.213Z</time></trkpt><trkpt lat="45.3452495" lon="7.7654921"><ele>289.0</ele><time>2026-04-25T16:43:50.223Z</time></trkpt><trkpt lat="45.3450764" lon="7.7654557"><ele>289.0</ele><time>2026-04-25T16:43:51.223Z</time></trkpt><trkpt lat="45.344904" lon="7.7654083"><ele>289.0</ele><time>2026-04-25T16:43:52.22Z</time></trkpt><trkpt lat="45.3447762" lon="7.7653547"><ele>289.0</ele><time>2026-04-25T16:43:53.223Z</time></trkpt><trkpt lat="45.3446874" lon="7.7653138"><ele>289.0</ele><time>2026-04-25T16:43:54.224Z</time></trkpt><trkpt lat="45.3446109" lon="7.765229"><ele>289.0</ele><time>2026-04-25T16:43:55.219Z</time></trkpt><trkpt lat="45.3445059" lon="7.7651333"><ele>289.0</ele><time>2026-04-25T16:43:56.22Z</time></trkpt><trkpt lat="45.3444197" lon="7.7650496"><ele>288.59999999999997</ele><time>2026-04-25T16:43:57.217Z</time></trkpt><trkpt lat="45.3443103" lon="7.7650448"><ele>288.2</ele><time>2026-04-25T16:43:58.216Z</time></trkpt><trkpt lat="45.3442005" lon="7.7650869"><ele>287.79999999999995</ele><time>2026-04-25T16:43:59.228Z</time></trkpt><trkpt lat="45.3440784" lon="7.7651267"><ele>287.4</ele><time>2026-04-25T16:44:00.221Z</time></trkpt><trkpt lat="45.343983" lon="7.7651474"><ele>287.0</ele><time>2026-04-25T16:44:01.21Z</time></trkpt><trkpt lat="45.3438684" lon="7.7651614"><ele>287.0</ele><time>2026-04-25T16:44:02.206Z</time></trkpt><trkpt lat="45.3437682" lon="7.7651519"><ele>287.0</ele><time>2026-04-25T16:44:03.211Z</time></trkpt><trkpt lat="45.3436762" lon="7.7651276"><ele>287.0</ele><time>2026-04-25T16:44:04.218Z</time></trkpt><trkpt lat="45.3436075" lon="7.7651017"><ele>287.0</ele><time>2026-04-25T16:44:05.218Z</time></trkpt><trkpt lat="45.3435304" lon="7.7650768"><ele>287.0</ele><time>2026-04-25T16:44:06.22Z</time></trkpt><trkpt lat="45.3434669" lon="7.7650281"><ele>287.0</ele><time>2026-04-25T16:44:07.224Z</time></trkpt><trkpt lat="45.3434208" lon="7.7649521"><ele>287.0</ele><time>2026-04-25T16:44:08.219Z</time></trkpt><trkpt lat="45.3433853" lon="7.7648679"><ele>287.0</ele><time>2026-04-25T16:44:09.218Z</time></trkpt><trkpt lat="45.3433511" lon="7.7647748"><ele>287.0</ele><time>2026-04-25T16:44:11.216Z</time></trkpt><trkpt lat="45.3433272" lon="7.7646795"><ele>287.0</ele><time>2026-04-25T16:48:55.206Z</time></trkpt><trkpt lat="45.3432583" lon="7.7646363"><ele>287.0</ele><time>2026-04-25T16:49:30.203Z</time></trkpt><trkpt lat="45.3432204" lon="7.7645458"><ele>287.0</ele><time>2026-04-25T16:50:24.193Z</time></trkpt><trkpt lat="45.3431875" lon="7.7644672"><ele>287.0</ele><time>2026-04-25T16:50:42.204Z</time></trkpt><trkpt lat="45.3431952" lon="7.7645614"><ele>287.0</ele><time>2026-04-25T16:50:45.195Z</time></trkpt><trkpt lat="45.3432023" lon="7.7646507"><ele>287.0</ele><time>2026-04-25T16:50:48.196Z</time></trkpt><trkpt lat="45.3431658" lon="7.7647385"><ele>287.0</ele><time>2026-04-25T16:50:50.2Z</time></trkpt><trkpt lat="45.3431192" lon="7.7648133"><ele>287.0</ele><time>2026-04-25T16:50:59.199Z</time></trkpt><trkpt lat="45.3430435" lon="7.7648579"><ele>287.0</ele><time>2026-04-25T16:51:01.193Z</time></trkpt><trkpt lat="45.3429634" lon="7.764867"><ele>287.0</ele><time>2026-04-25T16:51:02.201Z</time></trkpt><trkpt lat="45.3428326" lon="7.7648594"><ele>286.0</ele><time>2026-04-25T16:51:03.198Z</time></trkpt><trkpt lat="45.3426805" lon="7.7648285"><ele>285.0</ele><time>2026-04-25T16:51:04.2Z</time></trkpt><trkpt lat="45.3425057" lon="7.7647933"><ele>284.0</ele><time>2026-04-25T16:51:05.203Z</time></trkpt><trkpt lat="45.3422967" lon="7.7647926"><ele>283.6666666666667</ele><time>2026-04-25T16:51:06.205Z</time></trkpt><trkpt lat="45.3420936" lon="7.7647633"><ele>283.3333333333333</ele><time>2026-04-25T16:51:07.21Z</time></trkpt><trkpt lat="45.3419234" lon="7.7647241"><ele>283.0</ele><time>2026-04-25T16:51:08.2Z</time></trkpt><trkpt lat="45.3417637" lon="7.7646895"><ele>283.0</ele><time>2026-04-25T16:51:09.207Z</time></trkpt><trkpt lat="45.341574" lon="7.7646527"><ele>283.0</ele><time>2026-04-25T16:51:10.206Z</time></trkpt><trkpt lat="45.3414157" lon="7.7646212"><ele>283.0</ele><time>2026-04-25T16:51:11.2Z</time></trkpt><trkpt lat="45.3412557" lon="7.764564"><ele>282.66666666666663</ele><time>2026-04-25T16:51:12.201Z</time></trkpt><trkpt lat="45.3411009" lon="7.7645204"><ele>282.3333333333333</ele><time>2026-04-25T16:51:13.217Z</time></trkpt><trkpt lat="45.3409385" lon="7.7644779"><ele>282.0</ele><time>2026-04-25T16:51:14.204Z</time></trkpt><trkpt lat="45.3407833" lon="7.7644507"><ele>282.0</ele><time>2026-04-25T16:51:15.206Z</time></trkpt><trkpt lat="45.3406352" lon="7.764427"><ele>282.0</ele><time>2026-04-25T16:51:16.205Z</time></trkpt><trkpt lat="45.3404709" lon="7.7644007"><ele>282.0</ele><time>2026-04-25T16:51:17.201Z</time></trkpt><trkpt lat="45.340295" lon="7.7643716"><ele>282.0</ele><time>2026-04-25T16:51:18.21Z</time></trkpt><trkpt lat="45.3401252" lon="7.7643348"><ele>282.0</ele><time>2026-04-25T16:51:19.207Z</time></trkpt><trkpt lat="45.3399617" lon="7.7643011"><ele>282.0</ele><time>2026-04-25T16:51:20.21Z</time></trkpt><trkpt lat="45.339773" lon="7.7642614"><ele>281.6666666666667</ele><time>2026-04-25T16:51:21.205Z</time></trkpt><trkpt lat="45.3395853" lon="7.7642279"><ele>281.33333333333337</ele><time>2026-04-25T16:51:22.201Z</time></trkpt><trkpt lat="45.3393627" lon="7.764199"><ele>281.0</ele><time>2026-04-25T16:51:23.211Z</time></trkpt><trkpt lat="45.3391239" lon="7.7641552"><ele>281.0</ele><time>2026-04-25T16:51:24.208Z</time></trkpt><trkpt lat="45.3388871" lon="7.764106"><ele>281.0</ele><time>2026-04-25T16:51:25.205Z</time></trkpt><trkpt lat="45.3386471" lon="7.7640382"><ele>281.5</ele><time>2026-04-25T16:51:26.204Z</time></trkpt><trkpt lat="45.3383969" lon="7.7639708"><ele>282.0</ele><time>2026-04-25T16:51:27.209Z</time></trkpt><trkpt lat="45.3381783" lon="7.76389"><ele>282.0</ele><time>2026-04-25T16:51:28.205Z</time></trkpt><trkpt lat="45.3379657" lon="7.7638438"><ele>282.0</ele><time>2026-04-25T16:51:29.203Z</time></trkpt><trkpt lat="45.3377559" lon="7.7637781"><ele>282.0</ele><time>2026-04-25T16:51:30.202Z</time></trkpt><trkpt lat="45.3375477" lon="7.7637374"><ele>282.0</ele><time>2026-04-25T16:51:31.2Z</time></trkpt><trkpt lat="45.3373504" lon="7.7636905"><ele>282.0</ele><time>2026-04-25T16:51:32.203Z</time></trkpt><trkpt lat="45.3371714" lon="7.7636273"><ele>282.0</ele><time>2026-04-25T16:51:33.198Z</time></trkpt><trkpt lat="45.336992" lon="7.7635995"><ele>281.3333333333333</ele><time>2026-04-25T16:51:34.203Z</time></trkpt><trkpt lat="45.3368262" lon="7.763569"><ele>280.66666666666663</ele><time>2026-04-25T16:51:35.199Z</time></trkpt><trkpt lat="45.3366733" lon="7.7635438"><ele>280.0</ele><time>2026-04-25T16:51:36.196Z</time></trkpt><trkpt lat="45.3364988" lon="7.7635113"><ele>280.3333333333333</ele><time>2026-04-25T16:51:37.204Z</time></trkpt><trkpt lat="45.3363256" lon="7.7634689"><ele>280.6666666666667</ele><time>2026-04-25T16:51:38.204Z</time></trkpt><trkpt lat="45.3361549" lon="7.7634254"><ele>281.0</ele><time>2026-04-25T16:51:39.199Z</time></trkpt><trkpt lat="45.3359976" lon="7.7634"><ele>281.0</ele><time>2026-04-25T16:51:40.203Z</time></trkpt><trkpt lat="45.3358451" lon="7.7633576"><ele>281.0</ele><time>2026-04-25T16:51:41.198Z</time></trkpt><trkpt lat="45.3356919" lon="7.7633172"><ele>281.0</ele><time>2026-04-25T16:51:42.201Z</time></trkpt><trkpt lat="45.3355186" lon="7.7632829"><ele>281.33333333333337</ele><time>2026-04-25T16:51:43.201Z</time></trkpt><trkpt lat="45.3353318" lon="7.7632366"><ele>281.6666666666667</ele><time>2026-04-25T16:51:44.22Z</time></trkpt><trkpt lat="45.3351528" lon="7.7632158"><ele>282.0</ele><time>2026-04-25T16:51:45.205Z</time></trkpt><trkpt lat="45.33498" lon="7.7631648"><ele>282.0</ele><time>2026-04-25T16:51:46.206Z</time></trkpt><trkpt lat="45.3348013" lon="7.7631127"><ele>282.0</ele><time>2026-04-25T16:51:47.2Z</time></trkpt><trkpt lat="45.3346049" lon="7.7630642"><ele>282.0</ele><time>2026-04-25T16:51:48.203Z</time></trkpt><trkpt lat="45.3344215" lon="7.7630319"><ele>281.6666666666667</ele><time>2026-04-25T16:51:49.208Z</time></trkpt><trkpt lat="45.3342396" lon="7.762987"><ele>281.33333333333337</ele><time>2026-04-25T16:51:50.194Z</time></trkpt><trkpt lat="45.3340539" lon="7.7629458"><ele>281.0</ele><time>2026-04-25T16:51:51.204Z</time></trkpt><trkpt lat="45.3338548" lon="7.7629012"><ele>280.0</ele><time>2026-04-25T16:51:52.202Z</time></trkpt><trkpt lat="45.3336631" lon="7.7628468"><ele>279.0</ele><time>2026-04-25T16:51:53.211Z</time></trkpt><trkpt lat="45.3334551" lon="7.7627984"><ele>278.0</ele><time>2026-04-25T16:51:54.201Z</time></trkpt><trkpt lat="45.3332481" lon="7.7627519"><ele>277.6666666666667</ele><time>2026-04-25T16:51:55.2Z</time></trkpt><trkpt lat="45.3330348" lon="7.762692"><ele>277.3333333333333</ele><time>2026-04-25T16:51:56.201Z</time></trkpt><trkpt lat="45.3328285" lon="7.7626592"><ele>277.0</ele><time>2026-04-25T16:51:57.204Z</time></trkpt><trkpt lat="45.3326103" lon="7.7626242"><ele>277.0</ele><time>2026-04-25T16:51:58.2Z</time></trkpt><trkpt lat="45.3323909" lon="7.7625838"><ele>277.0</ele><time>2026-04-25T16:51:59.202Z</time></trkpt><trkpt lat="45.3321795" lon="7.7625232"><ele>277.0</ele><time>2026-04-25T16:52:00.206Z</time></trkpt><trkpt lat="45.3319674" lon="7.7624846"><ele>277.3333333333333</ele><time>2026-04-25T16:52:01.198Z</time></trkpt><trkpt lat="45.3317791" lon="7.7624393"><ele>277.6666666666667</ele><time>2026-04-25T16:52:02.202Z</time></trkpt><trkpt lat="45.3315772" lon="7.7624009"><ele>278.0</ele><time>2026-04-25T16:52:03.202Z</time></trkpt><trkpt lat="45.3313831" lon="7.7623493"><ele>278.0</ele><time>2026-04-25T16:52:04.207Z</time></trkpt><trkpt lat="45.3311982" lon="7.7623072"><ele>278.0</ele><time>2026-04-25T16:52:05.201Z</time></trkpt><trkpt lat="45.3310206" lon="7.7622623"><ele>278.0</ele><time>2026-04-25T16:52:06.198Z</time></trkpt><trkpt lat="45.3308692" lon="7.7621967"><ele>278.0</ele><time>2026-04-25T16:52:07.202Z</time></trkpt><trkpt lat="45.3307551" lon="7.7621711"><ele>278.0</ele><time>2026-04-25T16:52:08.203Z</time></trkpt><trkpt lat="45.3306234" lon="7.7621415"><ele>278.0</ele><time>2026-04-25T16:52:09.205Z</time></trkpt><trkpt lat="45.3305013" lon="7.7621152"><ele>278.0</ele><time>2026-04-25T16:52:10.205Z</time></trkpt><trkpt lat="45.3303694" lon="7.7620957"><ele>278.0</ele><time>2026-04-25T16:52:11.206Z</time></trkpt><trkpt lat="45.330224" lon="7.7620611"><ele>278.0</ele><time>2026-04-25T16:52:12.206Z</time></trkpt><trkpt lat="45.3300588" lon="7.762039"><ele>278.0</ele><time>2026-04-25T16:52:13.204Z</time></trkpt><trkpt lat="45.3299" lon="7.7620017"><ele>277.6666666666667</ele><time>2026-04-25T16:52:14.204Z</time></trkpt><trkpt lat="45.3297244" lon="7.7619508"><ele>277.3333333333333</ele><time>2026-04-25T16:52:15.215Z</time></trkpt><trkpt lat="45.3295488" lon="7.7619106"><ele>277.0</ele><time>2026-04-25T16:52:16.202Z</time></trkpt><trkpt lat="45.329357" lon="7.7618567"><ele>277.0</ele><time>2026-04-25T16:52:17.201Z</time></trkpt><trkpt lat="45.3291595" lon="7.7618131"><ele>277.0</ele><time>2026-04-25T16:52:18.203Z</time></trkpt><trkpt lat="45.3289493" lon="7.7617738"><ele>277.0</ele><time>2026-04-25T16:52:19.207Z</time></trkpt><trkpt lat="45.3287225" lon="7.7617308"><ele>276.3333333333333</ele><time>2026-04-25T16:52:20.205Z</time></trkpt><trkpt lat="45.3284951" lon="7.761674"><ele>275.6666666666667</ele><time>2026-04-25T16:52:21.201Z</time></trkpt><trkpt lat="45.3282854" lon="7.761626"><ele>275.0</ele><time>2026-04-25T16:52:22.203Z</time></trkpt><trkpt lat="45.3280635" lon="7.7615783"><ele>274.33333333333337</ele><time>2026-04-25T16:52:23.212Z</time></trkpt><trkpt lat="45.3278641" lon="7.7615237"><ele>273.6666666666667</ele><time>2026-04-25T16:52:24.204Z</time></trkpt><trkpt lat="45.327661" lon="7.7614647"><ele>273.0</ele><time>2026-04-25T16:52:25.206Z</time></trkpt><trkpt lat="45.3274522" lon="7.7614116"><ele>273.0</ele><time>2026-04-25T16:52:26.207Z</time></trkpt><trkpt lat="45.3272387" lon="7.7613572"><ele>273.0</ele><time>2026-04-25T16:52:27.208Z</time></trkpt><trkpt lat="45.3270078" lon="7.7613251"><ele>273.0</ele><time>2026-04-25T16:52:28.208Z</time></trkpt><trkpt lat="45.3267869" lon="7.7612792"><ele>273.0</ele><time>2026-04-25T16:52:29.204Z</time></trkpt><trkpt lat="45.3265599" lon="7.7612206"><ele>273.0</ele><time>2026-04-25T16:52:30.202Z</time></trkpt><trkpt lat="45.3263293" lon="7.7611641"><ele>273.0</ele><time>2026-04-25T16:52:31.198Z</time></trkpt><trkpt lat="45.3260905" lon="7.7610998"><ele>273.0</ele><time>2026-04-25T16:52:32.201Z</time></trkpt><trkpt lat="45.3258516" lon="7.7610311"><ele>273.5</ele><time>2026-04-25T16:52:33.204Z</time></trkpt><trkpt lat="45.3256145" lon="7.7609866"><ele>274.0</ele><time>2026-04-25T16:52:34.206Z</time></trkpt><trkpt lat="45.3253795" lon="7.7609387"><ele>273.0</ele><time>2026-04-25T16:52:35.201Z</time></trkpt><trkpt lat="45.3251507" lon="7.7608957"><ele>272.0</ele><time>2026-04-25T16:52:36.204Z</time></trkpt><trkpt lat="45.3249233" lon="7.7608491"><ele>271.6666666666667</ele><time>2026-04-25T16:52:37.2Z</time></trkpt><trkpt lat="45.3247192" lon="7.7608111"><ele>271.3333333333333</ele><time>2026-04-25T16:52:38.2Z</time></trkpt><trkpt lat="45.3244936" lon="7.760762"><ele>271.0</ele><time>2026-04-25T16:52:39.2Z</time></trkpt><trkpt lat="45.3242538" lon="7.7607168"><ele>271.0</ele><time>2026-04-25T16:52:40.205Z</time></trkpt><trkpt lat="45.3240127" lon="7.7606244"><ele>271.0</ele><time>2026-04-25T16:52:41.197Z</time></trkpt><trkpt lat="45.3237734" lon="7.76057"><ele>270.0</ele><time>2026-04-25T16:52:42.202Z</time></trkpt><trkpt lat="45.323532" lon="7.7605092"><ele>269.0</ele><time>2026-04-25T16:52:43.202Z</time></trkpt><trkpt lat="45.3232966" lon="7.7604428"><ele>269.5</ele><time>2026-04-25T16:52:44.205Z</time></trkpt><trkpt lat="45.3230603" lon="7.7603897"><ele>270.0</ele><time>2026-04-25T16:52:45.209Z</time></trkpt><trkpt lat="45.3228487" lon="7.7603314"><ele>270.0</ele><time>2026-04-25T16:52:46.231Z</time></trkpt><trkpt lat="45.3226394" lon="7.7602793"><ele>270.0</ele><time>2026-04-25T16:52:47.205Z</time></trkpt><trkpt lat="45.3224149" lon="7.7602361"><ele>270.0</ele><time>2026-04-25T16:52:48.203Z</time></trkpt><trkpt lat="45.3221971" lon="7.7601969"><ele>270.0</ele><time>2026-04-25T16:52:49.203Z</time></trkpt><trkpt lat="45.3219706" lon="7.7601422"><ele>270.0</ele><time>2026-04-25T16:52:50.204Z</time></trkpt><trkpt lat="45.321743" lon="7.7600921"><ele>270.0</ele><time>2026-04-25T16:52:51.205Z</time></trkpt><trkpt lat="45.3215175" lon="7.7600327"><ele>270.0</ele><time>2026-04-25T16:52:52.202Z</time></trkpt><trkpt lat="45.321312" lon="7.7599816"><ele>270.0</ele><time>2026-04-25T16:52:53.211Z</time></trkpt><trkpt lat="45.3211069" lon="7.759933"><ele>269.6666666666667</ele><time>2026-04-25T16:52:54.201Z</time></trkpt><trkpt lat="45.3209088" lon="7.7598968"><ele>269.33333333333337</ele><time>2026-04-25T16:52:55.201Z</time></trkpt><trkpt lat="45.3206854" lon="7.759845"><ele>269.0</ele><time>2026-04-25T16:52:56.206Z</time></trkpt><trkpt lat="45.3204815" lon="7.7597957"><ele>269.0</ele><time>2026-04-25T16:52:57.202Z</time></trkpt><trkpt lat="45.3202774" lon="7.7597488"><ele>269.0</ele><time>2026-04-25T16:52:58.204Z</time></trkpt><trkpt lat="45.3200716" lon="7.7597053"><ele>269.0</ele><time>2026-04-25T16:52:59.202Z</time></trkpt><trkpt lat="45.3198667" lon="7.7596382"><ele>268.6666666666667</ele><time>2026-04-25T16:53:00.199Z</time></trkpt><trkpt lat="45.3196632" lon="7.7595973"><ele>268.3333333333333</ele><time>2026-04-25T16:53:01.196Z</time></trkpt><trkpt lat="45.3194255" lon="7.7595567"><ele>268.0</ele><time>2026-04-25T16:53:02.199Z</time></trkpt><trkpt lat="45.3191959" lon="7.7595125"><ele>268.0</ele><time>2026-04-25T16:53:03.203Z</time></trkpt><trkpt lat="45.3189686" lon="7.7594622"><ele>268.0</ele><time>2026-04-25T16:53:04.196Z</time></trkpt><trkpt lat="45.3187497" lon="7.759415"><ele>267.5</ele><time>2026-04-25T16:53:05.195Z</time></trkpt><trkpt lat="45.3185318" lon="7.7593695"><ele>267.0</ele><time>2026-04-25T16:53:06.196Z</time></trkpt><trkpt lat="45.3183055" lon="7.7593035"><ele>267.0</ele><time>2026-04-25T16:53:07.199Z</time></trkpt><trkpt lat="45.3180903" lon="7.7592551"><ele>267.0</ele><time>2026-04-25T16:53:08.201Z</time></trkpt><trkpt lat="45.3178612" lon="7.7591976"><ele>267.0</ele><time>2026-04-25T16:53:09.204Z</time></trkpt><trkpt lat="45.3176154" lon="7.7591365"><ele>267.0</ele><time>2026-04-25T16:53:10.197Z</time></trkpt><trkpt lat="45.3173933" lon="7.7590946"><ele>266.0</ele><time>2026-04-25T16:53:11.2Z</time></trkpt><trkpt lat="45.3171572" lon="7.759053"><ele>265.0</ele><time>2026-04-25T16:53:12.2Z</time></trkpt><trkpt lat="45.3169372" lon="7.7590062"><ele>265.0</ele><time>2026-04-25T16:53:13.202Z</time></trkpt><trkpt lat="45.3167097" lon="7.7589363"><ele>265.0</ele><time>2026-04-25T16:53:14.207Z</time></trkpt><trkpt lat="45.3164846" lon="7.7588892"><ele>265.5</ele><time>2026-04-25T16:53:15.201Z</time></trkpt><trkpt lat="45.3162553" lon="7.7588247"><ele>266.0</ele><time>2026-04-25T16:53:16.213Z</time></trkpt><trkpt lat="45.3160258" lon="7.7587717"><ele>266.0</ele><time>2026-04-25T16:53:17.201Z</time></trkpt><trkpt lat="45.315799" lon="7.7587034"><ele>266.0</ele><time>2026-04-25T16:53:18.201Z</time></trkpt><trkpt lat="45.315564" lon="7.7586555"><ele>265.0</ele><time>2026-04-25T16:53:19.203Z</time></trkpt><trkpt lat="45.3153125" lon="7.7585993"><ele>264.0</ele><time>2026-04-25T16:53:20.203Z</time></trkpt><trkpt lat="45.3150828" lon="7.7585411"><ele>263.5</ele><time>2026-04-25T16:53:21.2Z</time></trkpt><trkpt lat="45.3148295" lon="7.7584876"><ele>263.0</ele><time>2026-04-25T16:53:22.201Z</time></trkpt><trkpt lat="45.3145787" lon="7.7584427"><ele>262.6666666666667</ele><time>2026-04-25T16:53:23.208Z</time></trkpt><trkpt lat="45.3143605" lon="7.7583935"><ele>262.3333333333333</ele><time>2026-04-25T16:53:24.2Z</time></trkpt><trkpt lat="45.3141371" lon="7.7583808"><ele>262.0</ele><time>2026-04-25T16:53:25.202Z</time></trkpt><trkpt lat="45.3139384" lon="7.7583166"><ele>262.3333333333333</ele><time>2026-04-25T16:53:26.197Z</time></trkpt><trkpt lat="45.3137306" lon="7.7582525"><ele>262.6666666666667</ele><time>2026-04-25T16:53:27.2Z</time></trkpt><trkpt lat="45.3135285" lon="7.758196"><ele>263.0</ele><time>2026-04-25T16:53:28.201Z</time></trkpt><trkpt lat="45.3133251" lon="7.7581396"><ele>263.0</ele><time>2026-04-25T16:53:29.205Z</time></trkpt><trkpt lat="45.3131124" lon="7.7580761"><ele>263.0</ele><time>2026-04-25T16:53:30.198Z</time></trkpt><trkpt lat="45.3128977" lon="7.7579706"><ele>263.0</ele><time>2026-04-25T16:53:31.2Z</time></trkpt><trkpt lat="45.3127172" lon="7.7578653"><ele>263.0</ele><time>2026-04-25T16:53:32.2Z</time></trkpt><trkpt lat="45.312525" lon="7.7577495"><ele>263.0</ele><time>2026-04-25T16:53:33.204Z</time></trkpt><trkpt lat="45.3123353" lon="7.7576164"><ele>263.0</ele><time>2026-04-25T16:53:34.206Z</time></trkpt><trkpt lat="45.3121383" lon="7.7574856"><ele>263.0</ele><time>2026-04-25T16:53:35.203Z</time></trkpt><trkpt lat="45.3119282" lon="7.7573336"><ele>263.0</ele><time>2026-04-25T16:53:36.204Z</time></trkpt><trkpt lat="45.3117258" lon="7.7571838"><ele>263.0</ele><time>2026-04-25T16:53:37.206Z</time></trkpt><trkpt lat="45.3115272" lon="7.757028"><ele>263.0</ele><time>2026-04-25T16:53:38.203Z</time></trkpt><trkpt lat="45.3113274" lon="7.7568742"><ele>263.5</ele><time>2026-04-25T16:53:39.201Z</time></trkpt><trkpt lat="45.311109" lon="7.7567452"><ele>264.0</ele><time>2026-04-25T16:53:40.201Z</time></trkpt><trkpt lat="45.3108978" lon="7.7565726"><ele>264.0</ele><time>2026-04-25T16:53:41.197Z</time></trkpt><trkpt lat="45.3106663" lon="7.7563791"><ele>264.0</ele><time>2026-04-25T16:53:42.204Z</time></trkpt><trkpt lat="45.3104365" lon="7.7561705"><ele>263.5</ele><time>2026-04-25T16:53:43.202Z</time></trkpt><trkpt lat="45.3102194" lon="7.7560302"><ele>263.0</ele><time>2026-04-25T16:53:44.199Z</time></trkpt><trkpt lat="45.3099784" lon="7.7558887"><ele>263.0</ele><time>2026-04-25T16:53:45.196Z</time></trkpt><trkpt lat="45.3097625" lon="7.7557114"><ele>263.0</ele><time>2026-04-25T16:53:46.199Z</time></trkpt><trkpt lat="45.3095386" lon="7.7555652"><ele>262.33333333333337</ele><time>2026-04-25T16:53:47.211Z</time></trkpt><trkpt lat="45.3093454" lon="7.7554225"><ele>261.6666666666667</ele><time>2026-04-25T16:53:48.198Z</time></trkpt><trkpt lat="45.3091623" lon="7.7552667"><ele>261.0</ele><time>2026-04-25T16:53:49.206Z</time></trkpt><trkpt lat="45.3089862" lon="7.7551265"><ele>262.0</ele><time>2026-04-25T16:53:50.203Z</time></trkpt><trkpt lat="45.3088008" lon="7.7550046"><ele>263.0</ele><time>2026-04-25T16:53:51.207Z</time></trkpt><trkpt lat="45.3086019" lon="7.7548688"><ele>264.0</ele><time>2026-04-25T16:53:52.204Z</time></trkpt><trkpt lat="45.3084121" lon="7.7547356"><ele>264.0</ele><time>2026-04-25T16:53:53.207Z</time></trkpt><trkpt lat="45.3082323" lon="7.7546152"><ele>264.0</ele><time>2026-04-25T16:53:54.207Z</time></trkpt><trkpt lat="45.3080403" lon="7.7544976"><ele>264.0</ele><time>2026-04-25T16:53:55.207Z</time></trkpt><trkpt lat="45.3078537" lon="7.7543799"><ele>264.0</ele><time>2026-04-25T16:53:56.202Z</time></trkpt><trkpt lat="45.3076734" lon="7.7542432"><ele>264.0</ele><time>2026-04-25T16:53:57.199Z</time></trkpt><trkpt lat="45.3074937" lon="7.7540939"><ele>264.0</ele><time>2026-04-25T16:53:58.202Z</time></trkpt><trkpt lat="45.3073408" lon="7.753922"><ele>263.6666666666667</ele><time>2026-04-25T16:53:59.203Z</time></trkpt><trkpt lat="45.307199" lon="7.7537217"><ele>263.33333333333337</ele><time>2026-04-25T16:54:00.2Z</time></trkpt><trkpt lat="45.3070528" lon="7.7535292"><ele>263.0</ele><time>2026-04-25T16:54:01.203Z</time></trkpt><trkpt lat="45.3069039" lon="7.7533127"><ele>263.0</ele><time>2026-04-25T16:54:02.195Z</time></trkpt><trkpt lat="45.306777" lon="7.7530688"><ele>263.0</ele><time>2026-04-25T16:54:03.191Z</time></trkpt><trkpt lat="45.3066434" lon="7.7528211"><ele>263.0</ele><time>2026-04-25T16:54:04.194Z</time></trkpt><trkpt lat="45.3065241" lon="7.752567"><ele>263.0</ele><time>2026-04-25T16:54:05.198Z</time></trkpt><trkpt lat="45.3064329" lon="7.7522761"><ele>263.0</ele><time>2026-04-25T16:54:06.198Z</time></trkpt><trkpt lat="45.3063451" lon="7.751992"><ele>263.0</ele><time>2026-04-25T16:54:07.195Z</time></trkpt><trkpt lat="45.3062871" lon="7.7517163"><ele>263.0</ele><time>2026-04-25T16:54:08.199Z</time></trkpt><trkpt lat="45.3062445" lon="7.7514429"><ele>263.0</ele><time>2026-04-25T16:54:09.193Z</time></trkpt><trkpt lat="45.3062029" lon="7.7512132"><ele>263.0</ele><time>2026-04-25T16:54:10.197Z</time></trkpt><trkpt lat="45.3061765" lon="7.7510001"><ele>263.6666666666667</ele><time>2026-04-25T16:54:11.2Z</time></trkpt><trkpt lat="45.3061433" lon="7.750784"><ele>264.3333333333333</ele><time>2026-04-25T16:54:12.197Z</time></trkpt><trkpt lat="45.3060917" lon="7.7505906"><ele>265.0</ele><time>2026-04-25T16:54:13.202Z</time></trkpt><trkpt lat="45.3060421" lon="7.7503911"><ele>266.0</ele><time>2026-04-25T16:54:14.2Z</time></trkpt><trkpt lat="45.3060135" lon="7.750193"><ele>267.0</ele><time>2026-04-25T16:54:15.198Z</time></trkpt><trkpt lat="45.3059829" lon="7.7499778"><ele>268.0</ele><time>2026-04-25T16:54:16.197Z</time></trkpt><trkpt lat="45.3059348" lon="7.7497929"><ele>269.0</ele><time>2026-04-25T16:54:17.2Z</time></trkpt><trkpt lat="45.3058975" lon="7.7496009"><ele>269.0</ele><time>2026-04-25T16:54:18.204Z</time></trkpt><trkpt lat="45.3058548" lon="7.7494436"><ele>269.0</ele><time>2026-04-25T16:54:19.197Z</time></trkpt><trkpt lat="45.3058247" lon="7.7492842"><ele>269.0</ele><time>2026-04-25T16:54:20.192Z</time></trkpt><trkpt lat="45.3057834" lon="7.7491702"><ele>269.0</ele><time>2026-04-25T16:54:21.198Z</time></trkpt><trkpt lat="45.305727" lon="7.748993"><ele>270.0</ele><time>2026-04-25T16:54:23.2Z</time></trkpt><trkpt lat="45.305703" lon="7.7489044"><ele>271.0</ele><time>2026-04-25T16:54:24.204Z</time></trkpt><trkpt lat="45.3056822" lon="7.7488172"><ele>272.0</ele><time>2026-04-25T16:54:25.194Z</time></trkpt><trkpt lat="45.3056584" lon="7.7487116"><ele>273.0</ele><time>2026-04-25T16:54:26.191Z</time></trkpt><trkpt lat="45.3056353" lon="7.74859"><ele>274.0</ele><time>2026-04-25T16:54:27.192Z</time></trkpt><trkpt lat="45.3055978" lon="7.7484538"><ele>275.0</ele><time>2026-04-25T16:54:28.184Z</time></trkpt><trkpt lat="45.3055641" lon="7.7483083"><ele>275.0</ele><time>2026-04-25T16:54:29.178Z</time></trkpt><trkpt lat="45.3055224" lon="7.7481474"><ele>275.0</ele><time>2026-04-25T16:54:30.167Z</time></trkpt><trkpt lat="45.3054819" lon="7.7479737"><ele>275.0</ele><time>2026-04-25T16:54:31.167Z</time></trkpt><trkpt lat="45.3054432" lon="7.7478003"><ele>275.0</ele><time>2026-04-25T16:54:32.167Z</time></trkpt><trkpt lat="45.3054176" lon="7.7476172"><ele>275.4</ele><time>2026-04-25T16:54:33.16Z</time></trkpt><trkpt lat="45.3053862" lon="7.7474523"><ele>275.8</ele><time>2026-04-25T16:54:34.166Z</time></trkpt><trkpt lat="45.3053568" lon="7.7472961"><ele>276.2</ele><time>2026-04-25T16:54:35.173Z</time></trkpt><trkpt lat="45.305326" lon="7.7471641"><ele>276.6</ele><time>2026-04-25T16:54:36.183Z</time></trkpt><trkpt lat="45.3052928" lon="7.7470213"><ele>277.0</ele><time>2026-04-25T16:54:37.194Z</time></trkpt><trkpt lat="45.3052703" lon="7.7468864"><ele>277.3333333333333</ele><time>2026-04-25T16:54:38.196Z</time></trkpt><trkpt lat="45.3052509" lon="7.7467638"><ele>277.66666666666663</ele><time>2026-04-25T16:54:39.195Z</time></trkpt><trkpt lat="45.3052343" lon="7.7466374"><ele>278.0</ele><time>2026-04-25T16:54:40.198Z</time></trkpt><trkpt lat="45.3052245" lon="7.7465176"><ele>278.3333333333333</ele><time>2026-04-25T16:54:41.201Z</time></trkpt><trkpt lat="45.305217" lon="7.7464192"><ele>278.6666666666667</ele><time>2026-04-25T16:54:42.2Z</time></trkpt><trkpt lat="45.305206" lon="7.7462638"><ele>279.0</ele><time>2026-04-25T16:54:44.205Z</time></trkpt><trkpt lat="45.30514" lon="7.7461832"><ele>279.0</ele><time>2026-04-25T16:54:46.199Z</time></trkpt><trkpt lat="45.3050604" lon="7.7461454"><ele>279.0</ele><time>2026-04-25T16:54:47.188Z</time></trkpt><trkpt lat="45.3049487" lon="7.7461454"><ele>279.0</ele><time>2026-04-25T16:54:48.192Z</time></trkpt><trkpt lat="45.3048217" lon="7.7461653"><ele>279.0</ele><time>2026-04-25T16:54:49.192Z</time></trkpt><trkpt lat="45.3046827" lon="7.7462182"><ele>278.6666666666667</ele><time>2026-04-25T16:54:50.192Z</time></trkpt><trkpt lat="45.3045225" lon="7.746277"><ele>278.33333333333337</ele><time>2026-04-25T16:54:51.189Z</time></trkpt><trkpt lat="45.3043117" lon="7.7463498"><ele>278.0</ele><time>2026-04-25T16:54:52.184Z</time></trkpt><trkpt lat="45.304134" lon="7.7463501"><ele>278.0</ele><time>2026-04-25T16:54:53.186Z</time></trkpt><trkpt lat="45.3039267" lon="7.7464428"><ele>278.0</ele><time>2026-04-25T16:54:54.187Z</time></trkpt><trkpt lat="45.3037559" lon="7.7464969"><ele>278.0</ele><time>2026-04-25T16:54:55.184Z</time></trkpt><trkpt lat="45.3036073" lon="7.7465512"><ele>277.25</ele><time>2026-04-25T16:54:56.192Z</time></trkpt><trkpt lat="45.303453" lon="7.7465243"><ele>276.5</ele><time>2026-04-25T16:54:57.196Z</time></trkpt><trkpt lat="45.3033174" lon="7.7465249"><ele>275.75</ele><time>2026-04-25T16:54:58.197Z</time></trkpt><trkpt lat="45.303169" lon="7.7465506"><ele>275.0</ele><time>2026-04-25T16:54:59.193Z</time></trkpt><trkpt lat="45.3031" lon="7.7465763"><ele>274.4</ele><time>2026-04-25T16:55:00.192Z</time></trkpt><trkpt lat="45.3029922" lon="7.7465429"><ele>273.8</ele><time>2026-04-25T16:55:01.2Z</time></trkpt><trkpt lat="45.302895" lon="7.7465526"><ele>273.2</ele><time>2026-04-25T16:55:02.189Z</time></trkpt><trkpt lat="45.302781" lon="7.7465647"><ele>272.6</ele><time>2026-04-25T16:55:03.192Z</time></trkpt><trkpt lat="45.3026588" lon="7.7465947"><ele>272.0</ele><time>2026-04-25T16:55:04.195Z</time></trkpt><trkpt lat="45.3025426" lon="7.7466045"><ele>272.0</ele><time>2026-04-25T16:55:05.195Z</time></trkpt><trkpt lat="45.3024079" lon="7.7466172"><ele>272.0</ele><time>2026-04-25T16:55:06.196Z</time></trkpt><trkpt lat="45.302237" lon="7.7466178"><ele>272.0</ele><time>2026-04-25T16:55:07.198Z</time></trkpt><trkpt lat="45.3020686" lon="7.7466337"><ele>272.0</ele><time>2026-04-25T16:55:08.195Z</time></trkpt><trkpt lat="45.301918" lon="7.7466638"><ele>272.0</ele><time>2026-04-25T16:55:09.195Z</time></trkpt><trkpt lat="45.3017741" lon="7.7466357"><ele>272.0</ele><time>2026-04-25T16:55:10.2Z</time></trkpt><trkpt lat="45.3016544" lon="7.7466422"><ele>272.0</ele><time>2026-04-25T16:55:11.198Z</time></trkpt><trkpt lat="45.3015386" lon="7.7466506"><ele>272.0</ele><time>2026-04-25T16:55:12.195Z</time></trkpt><trkpt lat="45.3014453" lon="7.7466326"><ele>272.0</ele><time>2026-04-25T16:55:13.194Z</time></trkpt><trkpt lat="45.3013668" lon="7.7466546"><ele>272.0</ele><time>2026-04-25T16:55:14.204Z</time></trkpt><trkpt lat="45.3012981" lon="7.7466516"><ele>272.0</ele><time>2026-04-25T16:55:15.197Z</time></trkpt><trkpt lat="45.3012091" lon="7.7466053"><ele>272.0</ele><time>2026-04-25T16:55:16.196Z</time></trkpt><trkpt lat="45.3011253" lon="7.746548"><ele>272.0</ele><time>2026-04-25T16:55:17.193Z</time></trkpt><trkpt lat="45.301093" lon="7.746447"><ele>272.25</ele><time>2026-04-25T16:55:18.191Z</time></trkpt><trkpt lat="45.3010712" lon="7.7462888"><ele>272.5</ele><time>2026-04-25T16:55:19.19Z</time></trkpt><trkpt lat="45.3010716" lon="7.7461308"><ele>272.75</ele><time>2026-04-25T16:55:20.204Z</time></trkpt><trkpt lat="45.3010595" lon="7.7459295"><ele>273.0</ele><time>2026-04-25T16:55:21.199Z</time></trkpt><trkpt lat="45.3010466" lon="7.7457047"><ele>271.6666666666667</ele><time>2026-04-25T16:55:22.205Z</time></trkpt><trkpt lat="45.301038" lon="7.7454609"><ele>270.33333333333337</ele><time>2026-04-25T16:55:23.207Z</time></trkpt><trkpt lat="45.3009831" lon="7.7452309"><ele>269.0</ele><time>2026-04-25T16:55:24.202Z</time></trkpt><trkpt lat="45.3008797" lon="7.7450015"><ele>269.0</ele><time>2026-04-25T16:55:25.198Z</time></trkpt><trkpt lat="45.3007977" lon="7.7448427"><ele>269.0</ele><time>2026-04-25T16:55:26.181Z</time></trkpt><trkpt lat="45.3006885" lon="7.7447609"><ele>269.0</ele><time>2026-04-25T16:55:27.175Z</time></trkpt><trkpt lat="45.3005828" lon="7.7446221"><ele>269.0</ele><time>2026-04-25T16:55:28.183Z</time></trkpt><trkpt lat="45.3004338" lon="7.7446165"><ele>269.0</ele><time>2026-04-25T16:55:29.184Z</time></trkpt><trkpt lat="45.3003318" lon="7.7446753"><ele>269.0</ele><time>2026-04-25T16:55:30.18Z</time></trkpt><trkpt lat="45.3002635" lon="7.7447773"><ele>269.0</ele><time>2026-04-25T16:55:31.18Z</time></trkpt><trkpt lat="45.3001816" lon="7.7450434"><ele>269.0</ele><time>2026-04-25T16:55:32.197Z</time></trkpt><trkpt lat="45.300115" lon="7.7452961"><ele>269.0</ele><time>2026-04-25T16:55:33.189Z</time></trkpt><trkpt lat="45.3000585" lon="7.7454627"><ele>269.0</ele><time>2026-04-25T16:55:34.193Z</time></trkpt><trkpt lat="45.3000134" lon="7.7455757"><ele>269.0</ele><time>2026-04-25T16:55:35.192Z</time></trkpt><trkpt lat="45.2999627" lon="7.7456429"><ele>269.0</ele><time>2026-04-25T16:55:36.202Z</time></trkpt><trkpt lat="45.2998804" lon="7.7456111"><ele>269.0</ele><time>2026-04-25T16:55:38.199Z</time></trkpt><trkpt lat="45.2998155" lon="7.7456065"><ele>269.0</ele><time>2026-04-25T16:55:46.2Z</time></trkpt><trkpt lat="45.299741" lon="7.745582"><ele>269.0</ele><time>2026-04-25T16:56:07.208Z</time></trkpt><trkpt lat="45.299646" lon="7.7456015"><ele>269.0</ele><time>2026-04-25T16:56:09.208Z</time></trkpt><trkpt lat="45.2995603" lon="7.7456737"><ele>269.0</ele><time>2026-04-25T16:56:10.202Z</time></trkpt><trkpt lat="45.2994369" lon="7.7457771"><ele>269.0</ele><time>2026-04-25T16:56:11.207Z</time></trkpt><trkpt lat="45.2992882" lon="7.7458881"><ele>269.0</ele><time>2026-04-25T16:56:12.213Z</time></trkpt><trkpt lat="45.2991195" lon="7.7460017"><ele>269.0</ele><time>2026-04-25T16:56:13.211Z</time></trkpt><trkpt lat="45.298961" lon="7.7460997"><ele>269.0</ele><time>2026-04-25T16:56:14.218Z</time></trkpt><trkpt lat="45.2987665" lon="7.7461743"><ele>269.0</ele><time>2026-04-25T16:56:15.218Z</time></trkpt><trkpt lat="45.2985825" lon="7.7462354"><ele>269.0</ele><time>2026-04-25T16:56:16.219Z</time></trkpt><trkpt lat="45.2983907" lon="7.7462903"><ele>269.0</ele><time>2026-04-25T16:56:17.22Z</time></trkpt><trkpt lat="45.2982195" lon="7.7463209"><ele>268.6666666666667</ele><time>2026-04-25T16:56:18.224Z</time></trkpt><trkpt lat="45.2980623" lon="7.74637"><ele>268.3333333333333</ele><time>2026-04-25T16:56:19.214Z</time></trkpt><trkpt lat="45.2979143" lon="7.7464279"><ele>268.0</ele><time>2026-04-25T16:56:20.21Z</time></trkpt><trkpt lat="45.2977611" lon="7.7464766"><ele>268.0</ele><time>2026-04-25T16:56:21.22Z</time></trkpt><trkpt lat="45.2976136" lon="7.7465326"><ele>268.0</ele><time>2026-04-25T16:56:22.219Z</time></trkpt><trkpt lat="45.2974467" lon="7.7465803"><ele>268.0</ele><time>2026-04-25T16:56:23.219Z</time></trkpt><trkpt lat="45.2972791" lon="7.7466066"><ele>267.3333333333333</ele><time>2026-04-25T16:56:24.215Z</time></trkpt><trkpt lat="45.297121" lon="7.7466244"><ele>266.6666666666667</ele><time>2026-04-25T16:56:25.207Z</time></trkpt><trkpt lat="45.2969724" lon="7.7466245"><ele>266.0</ele><time>2026-04-25T16:56:26.218Z</time></trkpt><trkpt lat="45.2967848" lon="7.7466261"><ele>266.0</ele><time>2026-04-25T16:56:27.213Z</time></trkpt><trkpt lat="45.2965956" lon="7.7466174"><ele>266.0</ele><time>2026-04-25T16:56:28.211Z</time></trkpt><trkpt lat="45.296401" lon="7.7465992"><ele>266.0</ele><time>2026-04-25T16:56:29.211Z</time></trkpt><trkpt lat="45.2962155" lon="7.746594"><ele>266.0</ele><time>2026-04-25T16:56:30.208Z</time></trkpt><trkpt lat="45.2960308" lon="7.7465814"><ele>266.0</ele><time>2026-04-25T16:56:31.205Z</time></trkpt><trkpt lat="45.2958667" lon="7.7465485"><ele>266.0</ele><time>2026-04-25T16:56:32.206Z</time></trkpt><trkpt lat="45.2956793" lon="7.746532"><ele>265.6666666666667</ele><time>2026-04-25T16:56:33.203Z</time></trkpt><trkpt lat="45.2955063" lon="7.746511"><ele>265.3333333333333</ele><time>2026-04-25T16:56:34.195Z</time></trkpt><trkpt lat="45.2953203" lon="7.7464874"><ele>265.0</ele><time>2026-04-25T16:56:35.204Z</time></trkpt><trkpt lat="45.2951458" lon="7.7464668"><ele>265.0</ele><time>2026-04-25T16:56:36.204Z</time></trkpt><trkpt lat="45.2949788" lon="7.7464488"><ele>265.0</ele><time>2026-04-25T16:56:37.206Z</time></trkpt><trkpt lat="45.2948097" lon="7.7464261"><ele>265.0</ele><time>2026-04-25T16:56:38.2Z</time></trkpt><trkpt lat="45.2946513" lon="7.7464215"><ele>264.66666666666663</ele><time>2026-04-25T16:56:39.204Z</time></trkpt><trkpt lat="45.2945007" lon="7.7464012"><ele>264.3333333333333</ele><time>2026-04-25T16:56:40.197Z</time></trkpt><trkpt lat="45.2943432" lon="7.7463889"><ele>264.0</ele><time>2026-04-25T16:56:41.204Z</time></trkpt><trkpt lat="45.2941835" lon="7.7463731"><ele>264.0</ele><time>2026-04-25T16:56:42.199Z</time></trkpt><trkpt lat="45.2940142" lon="7.7463374"><ele>264.0</ele><time>2026-04-25T16:56:43.201Z</time></trkpt><trkpt lat="45.2938622" lon="7.7463372"><ele>264.0</ele><time>2026-04-25T16:56:44.205Z</time></trkpt><trkpt lat="45.2937318" lon="7.7463391"><ele>264.5</ele><time>2026-04-25T16:56:45.197Z</time></trkpt><trkpt lat="45.2935842" lon="7.7463011"><ele>265.0</ele><time>2026-04-25T16:56:46.208Z</time></trkpt><trkpt lat="45.2934641" lon="7.7462925"><ele>265.5</ele><time>2026-04-25T16:56:47.205Z</time></trkpt><trkpt lat="45.2933138" lon="7.7462671"><ele>266.0</ele><time>2026-04-25T16:56:48.195Z</time></trkpt><trkpt lat="45.2931652" lon="7.7462467"><ele>265.25</ele><time>2026-04-25T16:56:49.2Z</time></trkpt><trkpt lat="45.2930432" lon="7.7462594"><ele>264.5</ele><time>2026-04-25T16:56:50.199Z</time></trkpt><trkpt lat="45.2929001" lon="7.7462544"><ele>263.75</ele><time>2026-04-25T16:56:51.21Z</time></trkpt><trkpt lat="45.2927616" lon="7.7462261"><ele>263.0</ele><time>2026-04-25T16:56:52.203Z</time></trkpt><trkpt lat="45.2926351" lon="7.7462126"><ele>263.0</ele><time>2026-04-25T16:56:53.229Z</time></trkpt><trkpt lat="45.2925013" lon="7.7462123"><ele>263.0</ele><time>2026-04-25T16:56:54.208Z</time></trkpt><trkpt lat="45.2923536" lon="7.7461982"><ele>263.0</ele><time>2026-04-25T16:56:55.211Z</time></trkpt><trkpt lat="45.2922046" lon="7.7461625"><ele>263.0</ele><time>2026-04-25T16:56:56.213Z</time></trkpt><trkpt lat="45.2920658" lon="7.746153"><ele>262.0</ele><time>2026-04-25T16:56:57.213Z</time></trkpt><trkpt lat="45.2919292" lon="7.7461517"><ele>261.0</ele><time>2026-04-25T16:56:58.213Z</time></trkpt><trkpt lat="45.2917853" lon="7.7461249"><ele>260.0</ele><time>2026-04-25T16:56:59.205Z</time></trkpt><trkpt lat="45.2916392" lon="7.7461062"><ele>259.0</ele><time>2026-04-25T16:57:00.212Z</time></trkpt><trkpt lat="45.2914926" lon="7.7461037"><ele>259.3333333333333</ele><time>2026-04-25T16:57:01.209Z</time></trkpt><trkpt lat="45.291349" lon="7.7460823"><ele>259.6666666666667</ele><time>2026-04-25T16:57:02.213Z</time></trkpt><trkpt lat="45.2911921" lon="7.7460718"><ele>260.0</ele><time>2026-04-25T16:57:03.209Z</time></trkpt><trkpt lat="45.2910215" lon="7.7460502"><ele>260.25</ele><time>2026-04-25T16:57:04.209Z</time></trkpt><trkpt lat="45.2908723" lon="7.7460303"><ele>260.5</ele><time>2026-04-25T16:57:05.206Z</time></trkpt><trkpt lat="45.2907253" lon="7.7460264"><ele>260.75</ele><time>2026-04-25T16:57:06.205Z</time></trkpt><trkpt lat="45.2905871" lon="7.7459939"><ele>261.0</ele><time>2026-04-25T16:57:07.199Z</time></trkpt><trkpt lat="45.2904456" lon="7.7459651"><ele>261.0</ele><time>2026-04-25T16:57:08.211Z</time></trkpt><trkpt lat="45.2903064" lon="7.7459479"><ele>261.0</ele><time>2026-04-25T16:57:09.212Z</time></trkpt><trkpt lat="45.2901566" lon="7.7459255"><ele>261.0</ele><time>2026-04-25T16:57:10.211Z</time></trkpt><trkpt lat="45.2900109" lon="7.7459062"><ele>261.0</ele><time>2026-04-25T16:57:11.206Z</time></trkpt><trkpt lat="45.289872" lon="7.7458929"><ele>260.5</ele><time>2026-04-25T16:57:12.21Z</time></trkpt><trkpt lat="45.2897403" lon="7.7458855"><ele>260.0</ele><time>2026-04-25T16:57:13.203Z</time></trkpt><trkpt lat="45.2896205" lon="7.7458689"><ele>259.5</ele><time>2026-04-25T16:57:14.208Z</time></trkpt><trkpt lat="45.2895055" lon="7.7458567"><ele>259.0</ele><time>2026-04-25T16:57:15.209Z</time></trkpt><trkpt lat="45.2893854" lon="7.7458449"><ele>259.0</ele><time>2026-04-25T16:57:16.205Z</time></trkpt><trkpt lat="45.2892728" lon="7.7458269"><ele>259.0</ele><time>2026-04-25T16:57:17.211Z</time></trkpt><trkpt lat="45.2891825" lon="7.7458107"><ele>259.0</ele><time>2026-04-25T16:57:18.204Z</time></trkpt><trkpt lat="45.2891002" lon="7.7458312"><ele>259.0</ele><time>2026-04-25T16:57:19.207Z</time></trkpt><trkpt lat="45.2890197" lon="7.745817"><ele>259.0</ele><time>2026-04-25T16:57:20.213Z</time></trkpt><trkpt lat="45.2889412" lon="7.7458072"><ele>259.0</ele><time>2026-04-25T16:57:21.205Z</time></trkpt><trkpt lat="45.2888775" lon="7.7457981"><ele>259.4</ele><time>2026-04-25T16:57:22.203Z</time></trkpt><trkpt lat="45.2887603" lon="7.7457556"><ele>259.79999999999995</ele><time>2026-04-25T16:57:24.217Z</time></trkpt><trkpt lat="45.2886809" lon="7.7457371"><ele>260.20000000000005</ele><time>2026-04-25T16:57:25.199Z</time></trkpt><trkpt lat="45.2885957" lon="7.7457259"><ele>260.6</ele><time>2026-04-25T16:57:26.201Z</time></trkpt><trkpt lat="45.288503" lon="7.745722"><ele>261.0</ele><time>2026-04-25T16:57:27.211Z</time></trkpt><trkpt lat="45.2884157" lon="7.7457386"><ele>261.0</ele><time>2026-04-25T16:57:28.207Z</time></trkpt><trkpt lat="45.2883146" lon="7.74574"><ele>261.0</ele><time>2026-04-25T16:57:29.208Z</time></trkpt><trkpt lat="45.2882058" lon="7.7457395"><ele>261.0</ele><time>2026-04-25T16:57:30.209Z</time></trkpt><trkpt lat="45.2880904" lon="7.7457187"><ele>261.0</ele><time>2026-04-25T16:57:31.208Z</time></trkpt><trkpt lat="45.2879621" lon="7.7457019"><ele>260.75</ele><time>2026-04-25T16:57:32.2Z</time></trkpt><trkpt lat="45.2878242" lon="7.7456822"><ele>260.5</ele><time>2026-04-25T16:57:33.198Z</time></trkpt><trkpt lat="45.2876844" lon="7.745659"><ele>260.25</ele><time>2026-04-25T16:57:34.193Z</time></trkpt><trkpt lat="45.2875468" lon="7.7456441"><ele>260.0</ele><time>2026-04-25T16:57:35.199Z</time></trkpt><trkpt lat="45.2873955" lon="7.7456228"><ele>259.33333333333337</ele><time>2026-04-25T16:57:36.203Z</time></trkpt><trkpt lat="45.2872397" lon="7.7455962"><ele>258.6666666666667</ele><time>2026-04-25T16:57:37.202Z</time></trkpt><trkpt lat="45.2870961" lon="7.7455686"><ele>258.0</ele><time>2026-04-25T16:57:38.206Z</time></trkpt><trkpt lat="45.2869443" lon="7.7455617"><ele>258.0</ele><time>2026-04-25T16:57:39.196Z</time></trkpt><trkpt lat="45.2867917" lon="7.7455595"><ele>258.0</ele><time>2026-04-25T16:57:40.205Z</time></trkpt><trkpt lat="45.286629" lon="7.745546"><ele>258.0</ele><time>2026-04-25T16:57:41.204Z</time></trkpt><trkpt lat="45.286473" lon="7.7455255"><ele>257.75</ele><time>2026-04-25T16:57:42.202Z</time></trkpt><trkpt lat="45.286343" lon="7.7455094"><ele>257.5</ele><time>2026-04-25T16:57:43.206Z</time></trkpt><trkpt lat="45.2862051" lon="7.7454987"><ele>257.25</ele><time>2026-04-25T16:57:44.203Z</time></trkpt><trkpt lat="45.2860543" lon="7.7454866"><ele>257.0</ele><time>2026-04-25T16:57:45.21Z</time></trkpt><trkpt lat="45.2858825" lon="7.7454747"><ele>257.0</ele><time>2026-04-25T16:57:46.199Z</time></trkpt><trkpt lat="45.2857208" lon="7.7454607"><ele>257.0</ele><time>2026-04-25T16:57:47.209Z</time></trkpt><trkpt lat="45.2855579" lon="7.7454391"><ele>257.0</ele><time>2026-04-25T16:57:48.199Z</time></trkpt><trkpt lat="45.2853893" lon="7.7454088"><ele>256.33333333333337</ele><time>2026-04-25T16:57:49.211Z</time></trkpt><trkpt lat="45.2852308" lon="7.7453842"><ele>255.66666666666669</ele><time>2026-04-25T16:57:50.195Z</time></trkpt><trkpt lat="45.2850545" lon="7.7453727"><ele>255.0</ele><time>2026-04-25T16:57:51.204Z</time></trkpt><trkpt lat="45.2848915" lon="7.7453501"><ele>255.0</ele><time>2026-04-25T16:57:52.199Z</time></trkpt><trkpt lat="45.2847273" lon="7.7453194"><ele>255.0</ele><time>2026-04-25T16:57:53.203Z</time></trkpt><trkpt lat="45.2845645" lon="7.7453053"><ele>255.0</ele><time>2026-04-25T16:57:54.204Z</time></trkpt><trkpt lat="45.2843968" lon="7.7452987"><ele>255.0</ele><time>2026-04-25T16:57:55.209Z</time></trkpt><trkpt lat="45.2842453" lon="7.7452865"><ele>255.0</ele><time>2026-04-25T16:57:56.206Z</time></trkpt><trkpt lat="45.2840918" lon="7.7452626"><ele>255.0</ele><time>2026-04-25T16:57:57.202Z</time></trkpt><trkpt lat="45.2839499" lon="7.7452609"><ele>255.0</ele><time>2026-04-25T16:57:58.211Z</time></trkpt><trkpt lat="45.2838002" lon="7.7452446"><ele>255.25</ele><time>2026-04-25T16:57:59.211Z</time></trkpt><trkpt lat="45.2836656" lon="7.7452284"><ele>255.5</ele><time>2026-04-25T16:58:00.212Z</time></trkpt><trkpt lat="45.2835375" lon="7.7452087"><ele>255.75</ele><time>2026-04-25T16:58:01.206Z</time></trkpt><trkpt lat="45.2834038" lon="7.7451983"><ele>256.0</ele><time>2026-04-25T16:58:02.213Z</time></trkpt><trkpt lat="45.2832591" lon="7.7451913"><ele>256.0</ele><time>2026-04-25T16:58:03.204Z</time></trkpt><trkpt lat="45.2831136" lon="7.7451827"><ele>256.0</ele><time>2026-04-25T16:58:04.208Z</time></trkpt><trkpt lat="45.2829599" lon="7.7451625"><ele>256.0</ele><time>2026-04-25T16:58:05.208Z</time></trkpt><trkpt lat="45.2828172" lon="7.7451544"><ele>256.0</ele><time>2026-04-25T16:58:06.21Z</time></trkpt><trkpt lat="45.2826675" lon="7.7451249"><ele>255.75</ele><time>2026-04-25T16:58:07.209Z</time></trkpt><trkpt lat="45.2825203" lon="7.7451019"><ele>255.5</ele><time>2026-04-25T16:58:08.208Z</time></trkpt><trkpt lat="45.2823754" lon="7.7450903"><ele>255.25</ele><time>2026-04-25T16:58:09.209Z</time></trkpt><trkpt lat="45.2822265" lon="7.7450762"><ele>255.0</ele><time>2026-04-25T16:58:10.204Z</time></trkpt><trkpt lat="45.2820841" lon="7.7450709"><ele>254.5</ele><time>2026-04-25T16:58:11.212Z</time></trkpt><trkpt lat="45.2819348" lon="7.7450505"><ele>254.0</ele><time>2026-04-25T16:58:12.211Z</time></trkpt><trkpt lat="45.2817895" lon="7.7450302"><ele>253.5</ele><time>2026-04-25T16:58:13.216Z</time></trkpt><trkpt lat="45.2816443" lon="7.7450305"><ele>253.0</ele><time>2026-04-25T16:58:14.211Z</time></trkpt><trkpt lat="45.2814958" lon="7.7450113"><ele>253.0</ele><time>2026-04-25T16:58:15.215Z</time></trkpt><trkpt lat="45.2813559" lon="7.7449956"><ele>253.0</ele><time>2026-04-25T16:58:16.209Z</time></trkpt><trkpt lat="45.2812152" lon="7.7449743"><ele>253.0</ele><time>2026-04-25T16:58:17.208Z</time></trkpt><trkpt lat="45.2810744" lon="7.7449672"><ele>253.0</ele><time>2026-04-25T16:58:18.21Z</time></trkpt><trkpt lat="45.2809094" lon="7.7449597"><ele>253.0</ele><time>2026-04-25T16:58:19.204Z</time></trkpt><trkpt lat="45.2807476" lon="7.7449599"><ele>253.0</ele><time>2026-04-25T16:58:20.207Z</time></trkpt><trkpt lat="45.2805706" lon="7.7449338"><ele>253.0</ele><time>2026-04-25T16:58:21.214Z</time></trkpt><trkpt lat="45.2803901" lon="7.7449076"><ele>253.33333333333331</ele><time>2026-04-25T16:58:22.207Z</time></trkpt><trkpt lat="45.2802029" lon="7.7448968"><ele>253.66666666666669</ele><time>2026-04-25T16:58:23.213Z</time></trkpt><trkpt lat="45.2800068" lon="7.7448628"><ele>254.0</ele><time>2026-04-25T16:58:24.214Z</time></trkpt><trkpt lat="45.2798221" lon="7.7448137"><ele>253.0</ele><time>2026-04-25T16:58:25.204Z</time></trkpt><trkpt lat="45.2796504" lon="7.7447702"><ele>252.0</ele><time>2026-04-25T16:58:26.216Z</time></trkpt><trkpt lat="45.2794803" lon="7.7447496"><ele>251.0</ele><time>2026-04-25T16:58:27.208Z</time></trkpt><trkpt lat="45.279324" lon="7.7447735"><ele>251.0</ele><time>2026-04-25T16:58:28.207Z</time></trkpt><trkpt lat="45.2791531" lon="7.7447615"><ele>251.0</ele><time>2026-04-25T16:58:29.205Z</time></trkpt><trkpt lat="45.2789977" lon="7.7447538"><ele>251.0</ele><time>2026-04-25T16:58:30.211Z</time></trkpt><trkpt lat="45.2788352" lon="7.7447378"><ele>251.0</ele><time>2026-04-25T16:58:31.204Z</time></trkpt><trkpt lat="45.2786809" lon="7.7447299"><ele>251.0</ele><time>2026-04-25T16:58:32.206Z</time></trkpt><trkpt lat="45.2785199" lon="7.7447018"><ele>251.0</ele><time>2026-04-25T16:58:33.214Z</time></trkpt><trkpt lat="45.278352" lon="7.7446625"><ele>251.0</ele><time>2026-04-25T16:58:34.214Z</time></trkpt><trkpt lat="45.2782022" lon="7.7446434"><ele>251.0</ele><time>2026-04-25T16:58:35.208Z</time></trkpt><trkpt lat="45.2780566" lon="7.744629"><ele>251.0</ele><time>2026-04-25T16:58:36.206Z</time></trkpt><trkpt lat="45.277899" lon="7.7446054"><ele>250.66666666666669</ele><time>2026-04-25T16:58:37.21Z</time></trkpt><trkpt lat="45.2777282" lon="7.7445771"><ele>250.33333333333331</ele><time>2026-04-25T16:58:38.208Z</time></trkpt><trkpt lat="45.2775496" lon="7.7445457"><ele>250.0</ele><time>2026-04-25T16:58:39.211Z</time></trkpt><trkpt lat="45.2773693" lon="7.7445267"><ele>250.33333333333331</ele><time>2026-04-25T16:58:40.206Z</time></trkpt><trkpt lat="45.2772172" lon="7.744508"><ele>250.66666666666669</ele><time>2026-04-25T16:58:41.208Z</time></trkpt><trkpt lat="45.277079" lon="7.7444837"><ele>251.0</ele><time>2026-04-25T16:58:42.209Z</time></trkpt><trkpt lat="45.2769146" lon="7.7444709"><ele>251.0</ele><time>2026-04-25T16:58:43.205Z</time></trkpt><trkpt lat="45.2767645" lon="7.7444531"><ele>251.0</ele><time>2026-04-25T16:58:44.207Z</time></trkpt><trkpt lat="45.2765981" lon="7.7444461"><ele>251.0</ele><time>2026-04-25T16:58:45.209Z</time></trkpt><trkpt lat="45.2764248" lon="7.7444376"><ele>251.0</ele><time>2026-04-25T16:58:46.206Z</time></trkpt><trkpt lat="45.2762567" lon="7.744429"><ele>251.0</ele><time>2026-04-25T16:58:47.211Z</time></trkpt><trkpt lat="45.2761042" lon="7.7443952"><ele>251.0</ele><time>2026-04-25T16:58:48.201Z</time></trkpt><trkpt lat="45.2759314" lon="7.7443627"><ele>251.0</ele><time>2026-04-25T16:58:49.207Z</time></trkpt><trkpt lat="45.275772" lon="7.7443649"><ele>251.0</ele><time>2026-04-25T16:58:50.205Z</time></trkpt><trkpt lat="45.2756298" lon="7.7443644"><ele>251.0</ele><time>2026-04-25T16:58:51.198Z</time></trkpt><trkpt lat="45.2754812" lon="7.744345"><ele>251.33333333333334</ele><time>2026-04-25T16:58:52.204Z</time></trkpt><trkpt lat="45.2753296" lon="7.7443016"><ele>251.66666666666669</ele><time>2026-04-25T16:58:53.212Z</time></trkpt><trkpt lat="45.2751707" lon="7.7442763"><ele>252.0</ele><time>2026-04-25T16:58:54.203Z</time></trkpt><trkpt lat="45.2750146" lon="7.7442711"><ele>252.0</ele><time>2026-04-25T16:58:55.203Z</time></trkpt><trkpt lat="45.2748914" lon="7.7442641"><ele>252.0</ele><time>2026-04-25T16:58:56.2Z</time></trkpt><trkpt lat="45.2747584" lon="7.7442429"><ele>252.0</ele><time>2026-04-25T16:58:57.214Z</time></trkpt><trkpt lat="45.2746226" lon="7.7442391"><ele>252.0</ele><time>2026-04-25T16:58:58.211Z</time></trkpt><trkpt lat="45.2744904" lon="7.744219"><ele>250.33333333333331</ele><time>2026-04-25T16:58:59.203Z</time></trkpt><trkpt lat="45.2743456" lon="7.7442051"><ele>248.66666666666666</ele><time>2026-04-25T16:59:00.203Z</time></trkpt><trkpt lat="45.2741853" lon="7.7441991"><ele>247.0</ele><time>2026-04-25T16:59:01.203Z</time></trkpt><trkpt lat="45.2740319" lon="7.744193"><ele>247.25</ele><time>2026-04-25T16:59:02.199Z</time></trkpt><trkpt lat="45.2738827" lon="7.7441618"><ele>247.5</ele><time>2026-04-25T16:59:03.207Z</time></trkpt><trkpt lat="45.2737445" lon="7.7441427"><ele>247.75</ele><time>2026-04-25T16:59:04.211Z</time></trkpt><trkpt lat="45.2735942" lon="7.7441267"><ele>248.0</ele><time>2026-04-25T16:59:05.215Z</time></trkpt><trkpt lat="45.273455" lon="7.7441123"><ele>248.0</ele><time>2026-04-25T16:59:06.207Z</time></trkpt><trkpt lat="45.2733014" lon="7.7440748"><ele>248.0</ele><time>2026-04-25T16:59:07.207Z</time></trkpt><trkpt lat="45.2731448" lon="7.7440634"><ele>248.0</ele><time>2026-04-25T16:59:08.208Z</time></trkpt><trkpt lat="45.2729988" lon="7.7440561"><ele>247.75</ele><time>2026-04-25T16:59:09.207Z</time></trkpt><trkpt lat="45.2728521" lon="7.7440474"><ele>247.5</ele><time>2026-04-25T16:59:10.205Z</time></trkpt><trkpt lat="45.2727068" lon="7.7440267"><ele>247.25</ele><time>2026-04-25T16:59:11.21Z</time></trkpt><trkpt lat="45.2725922" lon="7.7440172"><ele>247.0</ele><time>2026-04-25T16:59:12.205Z</time></trkpt><trkpt lat="45.2724855" lon="7.7440043"><ele>247.0</ele><time>2026-04-25T16:59:13.199Z</time></trkpt><trkpt lat="45.2723696" lon="7.7439938"><ele>247.0</ele><time>2026-04-25T16:59:14.199Z</time></trkpt><trkpt lat="45.272278" lon="7.7439611"><ele>247.0</ele><time>2026-04-25T16:59:15.199Z</time></trkpt><trkpt lat="45.272188" lon="7.7439474"><ele>247.0</ele><time>2026-04-25T16:59:16.197Z</time></trkpt><trkpt lat="45.2721031" lon="7.7439462"><ele>247.0</ele><time>2026-04-25T16:59:17.201Z</time></trkpt><trkpt lat="45.2720389" lon="7.7439356"><ele>246.8</ele><time>2026-04-25T16:59:18.206Z</time></trkpt><trkpt lat="45.2719217" lon="7.7439398"><ele>246.6</ele><time>2026-04-25T16:59:20.198Z</time></trkpt><trkpt lat="45.2718007" lon="7.7439358"><ele>246.40000000000003</ele><time>2026-04-25T16:59:22.192Z</time></trkpt><trkpt lat="45.271677" lon="7.7439085"><ele>246.20000000000002</ele><time>2026-04-25T16:59:24.202Z</time></trkpt><trkpt lat="45.2716151" lon="7.7438789"><ele>246.0</ele><time>2026-04-25T16:59:25.199Z</time></trkpt><trkpt lat="45.2715516" lon="7.7438344"><ele>245.8</ele><time>2026-04-25T16:59:26.19Z</time></trkpt><trkpt lat="45.2714359" lon="7.7437726"><ele>245.60000000000002</ele><time>2026-04-25T16:59:28.194Z</time></trkpt><trkpt lat="45.2713632" lon="7.7437844"><ele>245.4</ele><time>2026-04-25T16:59:29.205Z</time></trkpt><trkpt lat="45.2712856" lon="7.7438214"><ele>245.2</ele><time>2026-04-25T16:59:30.194Z</time></trkpt><trkpt lat="45.2711999" lon="7.7438622"><ele>245.0</ele><time>2026-04-25T16:59:31.193Z</time></trkpt><trkpt lat="45.2711056" lon="7.7438703"><ele>245.0</ele><time>2026-04-25T16:59:32.198Z</time></trkpt><trkpt lat="45.2709937" lon="7.7438534"><ele>245.0</ele><time>2026-04-25T16:59:33.192Z</time></trkpt><trkpt lat="45.2708773" lon="7.7438349"><ele>245.0</ele><time>2026-04-25T16:59:34.199Z</time></trkpt><trkpt lat="45.2707519" lon="7.7438184"><ele>245.0</ele><time>2026-04-25T16:59:35.205Z</time></trkpt><trkpt lat="45.2706192" lon="7.7437999"><ele>245.25</ele><time>2026-04-25T16:59:36.189Z</time></trkpt><trkpt lat="45.2704837" lon="7.7437772"><ele>245.5</ele><time>2026-04-25T16:59:37.199Z</time></trkpt><trkpt lat="45.2703439" lon="7.7437635"><ele>245.75</ele><time>2026-04-25T16:59:38.199Z</time></trkpt><trkpt lat="45.2701943" lon="7.7437565"><ele>246.0</ele><time>2026-04-25T16:59:39.196Z</time></trkpt><trkpt lat="45.270034" lon="7.7437405"><ele>246.0</ele><time>2026-04-25T16:59:40.191Z</time></trkpt><trkpt lat="45.2698743" lon="7.7437567"><ele>246.0</ele><time>2026-04-25T16:59:41.189Z</time></trkpt><trkpt lat="45.2697267" lon="7.743746"><ele>246.0</ele><time>2026-04-25T16:59:42.196Z</time></trkpt><trkpt lat="45.2695446" lon="7.7437055"><ele>245.5</ele><time>2026-04-25T16:59:43.197Z</time></trkpt><trkpt lat="45.2693969" lon="7.7436785"><ele>245.0</ele><time>2026-04-25T16:59:44.2Z</time></trkpt><trkpt lat="45.2692462" lon="7.7436625"><ele>244.5</ele><time>2026-04-25T16:59:45.193Z</time></trkpt><trkpt lat="45.2691029" lon="7.7436467"><ele>244.0</ele><time>2026-04-25T16:59:46.194Z</time></trkpt><trkpt lat="45.2689448" lon="7.7436216"><ele>243.75</ele><time>2026-04-25T16:59:47.192Z</time></trkpt><trkpt lat="45.2687881" lon="7.7435838"><ele>243.5</ele><time>2026-04-25T16:59:48.192Z</time></trkpt><trkpt lat="45.268652" lon="7.7435711"><ele>243.25</ele><time>2026-04-25T16:59:49.198Z</time></trkpt><trkpt lat="45.2685164" lon="7.7435664"><ele>243.0</ele><time>2026-04-25T16:59:50.191Z</time></trkpt><trkpt lat="45.2683715" lon="7.7435423"><ele>243.0</ele><time>2026-04-25T16:59:51.194Z</time></trkpt><trkpt lat="45.2682284" lon="7.7435345"><ele>243.0</ele><time>2026-04-25T16:59:52.194Z</time></trkpt><trkpt lat="45.2680679" lon="7.743512"><ele>243.0</ele><time>2026-04-25T16:59:53.208Z</time></trkpt><trkpt lat="45.2679138" lon="7.7434985"><ele>243.0</ele><time>2026-04-25T16:59:54.206Z</time></trkpt><trkpt lat="45.2677745" lon="7.7434828"><ele>243.0</ele><time>2026-04-25T16:59:55.205Z</time></trkpt><trkpt lat="45.2676306" lon="7.7434661"><ele>243.0</ele><time>2026-04-25T16:59:56.204Z</time></trkpt><trkpt lat="45.267501" lon="7.7434674"><ele>243.0</ele><time>2026-04-25T16:59:57.21Z</time></trkpt><trkpt lat="45.2673652" lon="7.7434345"><ele>243.25</ele><time>2026-04-25T16:59:58.21Z</time></trkpt><trkpt lat="45.267226" lon="7.7434246"><ele>243.5</ele><time>2026-04-25T16:59:59.218Z</time></trkpt><trkpt lat="45.267091" lon="7.7433999"><ele>243.75</ele><time>2026-04-25T17:00:00.201Z</time></trkpt><trkpt lat="45.266956" lon="7.7433975"><ele>244.0</ele><time>2026-04-25T17:00:01.207Z</time></trkpt><trkpt lat="45.266825" lon="7.7433923"><ele>244.0</ele><time>2026-04-25T17:00:02.196Z</time></trkpt><trkpt lat="45.2666959" lon="7.743398"><ele>244.0</ele><time>2026-04-25T17:00:03.206Z</time></trkpt><trkpt lat="45.266581" lon="7.7434101"><ele>244.0</ele><time>2026-04-25T17:00:04.205Z</time></trkpt><trkpt lat="45.2664603" lon="7.7433991"><ele>244.0</ele><time>2026-04-25T17:00:05.207Z</time></trkpt><trkpt lat="45.2663507" lon="7.743408"><ele>243.99999999999997</ele><time>2026-04-25T17:00:06.203Z</time></trkpt><trkpt lat="45.2662483" lon="7.7434065"><ele>244.0</ele><time>2026-04-25T17:00:07.208Z</time></trkpt><trkpt lat="45.266153" lon="7.74341"><ele>244.0</ele><time>2026-04-25T17:00:08.212Z</time></trkpt><trkpt lat="45.2660677" lon="7.7434067"><ele>244.0</ele><time>2026-04-25T17:00:09.208Z</time></trkpt><trkpt lat="45.2659865" lon="7.7434088"><ele>243.99999999999997</ele><time>2026-04-25T17:00:10.205Z</time></trkpt><trkpt lat="45.2659133" lon="7.7434082"><ele>244.0</ele><time>2026-04-25T17:00:11.21Z</time></trkpt><trkpt lat="45.2658373" lon="7.7433932"><ele>243.99999999999997</ele><time>2026-04-25T17:00:12.205Z</time></trkpt><trkpt lat="45.2657757" lon="7.7433668"><ele>244.0</ele><time>2026-04-25T17:00:13.204Z</time></trkpt><trkpt lat="45.2657138" lon="7.7433431"><ele>244.0</ele><time>2026-04-25T17:00:14.206Z</time></trkpt><trkpt lat="45.2656377" lon="7.7433379"><ele>244.0</ele><time>2026-04-25T17:00:15.196Z</time></trkpt><trkpt lat="45.2655449" lon="7.7433243"><ele>243.99999999999997</ele><time>2026-04-25T17:00:16.204Z</time></trkpt><trkpt lat="45.2654237" lon="7.7433015"><ele>244.0</ele><time>2026-04-25T17:00:17.194Z</time></trkpt><trkpt lat="45.2652787" lon="7.7432587"><ele>244.0</ele><time>2026-04-25T17:00:18.205Z</time></trkpt><trkpt lat="45.2651178" lon="7.7432171"><ele>244.0</ele><time>2026-04-25T17:00:19.199Z</time></trkpt><trkpt lat="45.264919" lon="7.7431862"><ele>244.0</ele><time>2026-04-25T17:00:20.196Z</time></trkpt><trkpt lat="45.2647188" lon="7.7431745"><ele>243.0</ele><time>2026-04-25T17:00:21.201Z</time></trkpt><trkpt lat="45.2644996" lon="7.7431445"><ele>242.0</ele><time>2026-04-25T17:00:22.194Z</time></trkpt><trkpt lat="45.2642853" lon="7.7431333"><ele>241.0</ele><time>2026-04-25T17:00:23.212Z</time></trkpt><trkpt lat="45.2640692" lon="7.7431136"><ele>241.5</ele><time>2026-04-25T17:00:24.205Z</time></trkpt><trkpt lat="45.2636593" lon="7.7430536"><ele>242.0</ele><time>2026-04-25T17:00:26.201Z</time></trkpt><trkpt lat="45.263455" lon="7.7430366"><ele>242.0</ele><time>2026-04-25T17:00:27.199Z</time></trkpt><trkpt lat="45.2632401" lon="7.7430219"><ele>242.0</ele><time>2026-04-25T17:00:28.208Z</time></trkpt><trkpt lat="45.2630236" lon="7.7429936"><ele>242.0</ele><time>2026-04-25T17:00:29.203Z</time></trkpt><trkpt lat="45.2628063" lon="7.7429603"><ele>241.66666666666669</ele><time>2026-04-25T17:00:30.22Z</time></trkpt><trkpt lat="45.2625888" lon="7.7429186"><ele>241.33333333333331</ele><time>2026-04-25T17:00:31.201Z</time></trkpt><trkpt lat="45.2623966" lon="7.7428985"><ele>241.0</ele><time>2026-04-25T17:00:32.199Z</time></trkpt><trkpt lat="45.262218" lon="7.7428829"><ele>240.66666666666666</ele><time>2026-04-25T17:00:33.208Z</time></trkpt><trkpt lat="45.2620182" lon="7.742872"><ele>240.33333333333331</ele><time>2026-04-25T17:00:34.211Z</time></trkpt><trkpt lat="45.2618346" lon="7.7428514"><ele>240.0</ele><time>2026-04-25T17:00:35.206Z</time></trkpt><trkpt lat="45.2616749" lon="7.7428198"><ele>240.0</ele><time>2026-04-25T17:00:36.214Z</time></trkpt><trkpt lat="45.2615258" lon="7.7428088"><ele>240.0</ele><time>2026-04-25T17:00:37.206Z</time></trkpt><trkpt lat="45.2613462" lon="7.7427772"><ele>240.0</ele><time>2026-04-25T17:00:38.214Z</time></trkpt><trkpt lat="45.2611873" lon="7.7427659"><ele>239.75</ele><time>2026-04-25T17:00:39.208Z</time></trkpt><trkpt lat="45.2610307" lon="7.7427465"><ele>239.5</ele><time>2026-04-25T17:00:40.217Z</time></trkpt><trkpt lat="45.2608684" lon="7.742731"><ele>239.25</ele><time>2026-04-25T17:00:41.209Z</time></trkpt><trkpt lat="45.2607471" lon="7.7427039"><ele>239.0</ele><time>2026-04-25T17:00:42.215Z</time></trkpt><trkpt lat="45.2606124" lon="7.7426943"><ele>239.0</ele><time>2026-04-25T17:00:43.212Z</time></trkpt><trkpt lat="45.260494" lon="7.7426843"><ele>239.0</ele><time>2026-04-25T17:00:44.214Z</time></trkpt><trkpt lat="45.2603674" lon="7.7426808"><ele>239.0</ele><time>2026-04-25T17:00:45.209Z</time></trkpt><trkpt lat="45.260246" lon="7.7426675"><ele>239.0</ele><time>2026-04-25T17:00:46.208Z</time></trkpt><trkpt lat="45.260123" lon="7.7426649"><ele>239.0</ele><time>2026-04-25T17:00:47.207Z</time></trkpt><trkpt lat="45.2600029" lon="7.7426552"><ele>239.0</ele><time>2026-04-25T17:00:48.21Z</time></trkpt><trkpt lat="45.2598377" lon="7.7426095"><ele>239.0</ele><time>2026-04-25T17:00:49.208Z</time></trkpt><trkpt lat="45.2596877" lon="7.7425961"><ele>239.0</ele><time>2026-04-25T17:00:50.209Z</time></trkpt><trkpt lat="45.2595659" lon="7.742581"><ele>238.75</ele><time>2026-04-25T17:00:51.207Z</time></trkpt><trkpt lat="45.2594411" lon="7.7425699"><ele>238.5</ele><time>2026-04-25T17:00:52.205Z</time></trkpt><trkpt lat="45.2593179" lon="7.7425608"><ele>238.25</ele><time>2026-04-25T17:00:53.213Z</time></trkpt><trkpt lat="45.2591915" lon="7.7425453"><ele>238.0</ele><time>2026-04-25T17:00:54.209Z</time></trkpt><trkpt lat="45.259082" lon="7.7425288"><ele>238.0</ele><time>2026-04-25T17:00:55.212Z</time></trkpt><trkpt lat="45.2589724" lon="7.7425157"><ele>238.0</ele><time>2026-04-25T17:00:56.208Z</time></trkpt><trkpt lat="45.2588642" lon="7.7425071"><ele>238.0</ele><time>2026-04-25T17:00:57.215Z</time></trkpt><trkpt lat="45.258759" lon="7.7424922"><ele>238.0</ele><time>2026-04-25T17:00:58.21Z</time></trkpt><trkpt lat="45.2586502" lon="7.7424707"><ele>238.0</ele><time>2026-04-25T17:00:59.216Z</time></trkpt><trkpt lat="45.2585462" lon="7.7424518"><ele>237.75</ele><time>2026-04-25T17:01:00.213Z</time></trkpt><trkpt lat="45.2584375" lon="7.742442"><ele>237.5</ele><time>2026-04-25T17:01:01.221Z</time></trkpt><trkpt lat="45.2583148" lon="7.7424374"><ele>237.25</ele><time>2026-04-25T17:01:02.217Z</time></trkpt><trkpt lat="45.2581785" lon="7.7424319"><ele>237.0</ele><time>2026-04-25T17:01:03.209Z</time></trkpt><trkpt lat="45.2580279" lon="7.7424075"><ele>236.66666666666669</ele><time>2026-04-25T17:01:04.215Z</time></trkpt><trkpt lat="45.2578655" lon="7.7423952"><ele>236.33333333333334</ele><time>2026-04-25T17:01:05.214Z</time></trkpt><trkpt lat="45.2577154" lon="7.7423845"><ele>236.0</ele><time>2026-04-25T17:01:06.213Z</time></trkpt><trkpt lat="45.2575753" lon="7.7423596"><ele>236.0</ele><time>2026-04-25T17:01:07.211Z</time></trkpt><trkpt lat="45.2574425" lon="7.7423415"><ele>236.0</ele><time>2026-04-25T17:01:08.214Z</time></trkpt><trkpt lat="45.2573064" lon="7.742325"><ele>236.0</ele><time>2026-04-25T17:01:09.209Z</time></trkpt><trkpt lat="45.2571543" lon="7.7423186"><ele>236.0</ele><time>2026-04-25T17:01:10.213Z</time></trkpt><trkpt lat="45.2570197" lon="7.7423186"><ele>235.75</ele><time>2026-04-25T17:01:11.208Z</time></trkpt><trkpt lat="45.2568702" lon="7.7422898"><ele>235.5</ele><time>2026-04-25T17:01:12.209Z</time></trkpt><trkpt lat="45.256736" lon="7.7422894"><ele>235.25</ele><time>2026-04-25T17:01:13.213Z</time></trkpt><trkpt lat="45.2565992" lon="7.7422627"><ele>235.0</ele><time>2026-04-25T17:01:14.218Z</time></trkpt><trkpt lat="45.2564635" lon="7.7422647"><ele>235.33333333333331</ele><time>2026-04-25T17:01:15.206Z</time></trkpt><trkpt lat="45.2562995" lon="7.7422401"><ele>235.66666666666669</ele><time>2026-04-25T17:01:16.211Z</time></trkpt><trkpt lat="45.2561389" lon="7.7422259"><ele>236.0</ele><time>2026-04-25T17:01:17.21Z</time></trkpt><trkpt lat="45.2559603" lon="7.7421927"><ele>236.0</ele><time>2026-04-25T17:01:18.208Z</time></trkpt><trkpt lat="45.2557856" lon="7.7421786"><ele>236.0</ele><time>2026-04-25T17:01:19.211Z</time></trkpt><trkpt lat="45.2556144" lon="7.7421459"><ele>236.0</ele><time>2026-04-25T17:01:20.207Z</time></trkpt><trkpt lat="45.255433" lon="7.7421279"><ele>235.66666666666669</ele><time>2026-04-25T17:01:21.211Z</time></trkpt><trkpt lat="45.2552585" lon="7.7420745"><ele>235.33333333333331</ele><time>2026-04-25T17:01:22.206Z</time></trkpt><trkpt lat="45.2550828" lon="7.7420591"><ele>235.0</ele><time>2026-04-25T17:01:23.215Z</time></trkpt><trkpt lat="45.2549162" lon="7.7420434"><ele>234.33333333333331</ele><time>2026-04-25T17:01:24.21Z</time></trkpt><trkpt lat="45.2547495" lon="7.742036"><ele>233.66666666666669</ele><time>2026-04-25T17:01:25.203Z</time></trkpt><trkpt lat="45.2545746" lon="7.7420002"><ele>233.0</ele><time>2026-04-25T17:01:26.208Z</time></trkpt><trkpt lat="45.2544176" lon="7.7419782"><ele>233.0</ele><time>2026-04-25T17:01:27.205Z</time></trkpt><trkpt lat="45.2542629" lon="7.741964"><ele>233.0</ele><time>2026-04-25T17:01:28.21Z</time></trkpt><trkpt lat="45.2540978" lon="7.7419252"><ele>233.0</ele><time>2026-04-25T17:01:29.21Z</time></trkpt><trkpt lat="45.2539307" lon="7.7419136"><ele>233.33333333333334</ele><time>2026-04-25T17:01:30.2Z</time></trkpt><trkpt lat="45.253744" lon="7.7419032"><ele>233.66666666666669</ele><time>2026-04-25T17:01:31.208Z</time></trkpt><trkpt lat="45.2535725" lon="7.7418824"><ele>234.0</ele><time>2026-04-25T17:01:32.214Z</time></trkpt><trkpt lat="45.2533803" lon="7.7418573"><ele>234.0</ele><time>2026-04-25T17:01:33.209Z</time></trkpt><trkpt lat="45.2531958" lon="7.7418447"><ele>234.0</ele><time>2026-04-25T17:01:34.208Z</time></trkpt><trkpt lat="45.2530132" lon="7.7418386"><ele>234.0</ele><time>2026-04-25T17:01:35.207Z</time></trkpt><trkpt lat="45.2528234" lon="7.7418052"><ele>233.66666666666669</ele><time>2026-04-25T17:01:36.21Z</time></trkpt><trkpt lat="45.2526437" lon="7.7417757"><ele>233.33333333333334</ele><time>2026-04-25T17:01:37.206Z</time></trkpt><trkpt lat="45.2524557" lon="7.7417518"><ele>233.0</ele><time>2026-04-25T17:01:38.207Z</time></trkpt><trkpt lat="45.2523108" lon="7.7417374"><ele>233.0</ele><time>2026-04-25T17:01:39.209Z</time></trkpt><trkpt lat="45.2521626" lon="7.741724"><ele>233.0</ele><time>2026-04-25T17:01:40.201Z</time></trkpt><trkpt lat="45.2520138" lon="7.7416998"><ele>233.0</ele><time>2026-04-25T17:01:41.202Z</time></trkpt><trkpt lat="45.2518797" lon="7.7416927"><ele>233.0</ele><time>2026-04-25T17:01:42.197Z</time></trkpt><trkpt lat="45.2517554" lon="7.7416596"><ele>233.0</ele><time>2026-04-25T17:01:43.203Z</time></trkpt><trkpt lat="45.25165" lon="7.7416595"><ele>233.0</ele><time>2026-04-25T17:01:44.212Z</time></trkpt><trkpt lat="45.2515404" lon="7.741653"><ele>233.0</ele><time>2026-04-25T17:01:45.205Z</time></trkpt><trkpt lat="45.2514203" lon="7.7416477"><ele>233.0</ele><time>2026-04-25T17:01:46.208Z</time></trkpt><trkpt lat="45.2512932" lon="7.7416328"><ele>233.25</ele><time>2026-04-25T17:01:47.205Z</time></trkpt><trkpt lat="45.2511743" lon="7.7416164"><ele>233.5</ele><time>2026-04-25T17:01:48.201Z</time></trkpt><trkpt lat="45.2510527" lon="7.7415981"><ele>233.75</ele><time>2026-04-25T17:01:49.206Z</time></trkpt><trkpt lat="45.2509317" lon="7.7415853"><ele>234.0</ele><time>2026-04-25T17:01:50.204Z</time></trkpt><trkpt lat="45.2508155" lon="7.74157"><ele>234.0</ele><time>2026-04-25T17:01:51.203Z</time></trkpt><trkpt lat="45.2506964" lon="7.7415548"><ele>233.99999999999997</ele><time>2026-04-25T17:01:52.209Z</time></trkpt><trkpt lat="45.2505889" lon="7.7415472"><ele>233.99999999999997</ele><time>2026-04-25T17:01:53.212Z</time></trkpt><trkpt lat="45.2504863" lon="7.74154"><ele>234.0</ele><time>2026-04-25T17:01:54.204Z</time></trkpt><trkpt lat="45.2503795" lon="7.7415209"><ele>234.0</ele><time>2026-04-25T17:01:55.201Z</time></trkpt><trkpt lat="45.2502627" lon="7.7415106"><ele>233.5</ele><time>2026-04-25T17:01:56.204Z</time></trkpt><trkpt lat="45.2501258" lon="7.7414843"><ele>233.0</ele><time>2026-04-25T17:01:57.206Z</time></trkpt><trkpt lat="45.2499884" lon="7.7414702"><ele>232.5</ele><time>2026-04-25T17:01:58.205Z</time></trkpt><trkpt lat="45.2498587" lon="7.7414635"><ele>232.0</ele><time>2026-04-25T17:01:59.2Z</time></trkpt><trkpt lat="45.2497465" lon="7.7414527"><ele>231.75</ele><time>2026-04-25T17:02:00.205Z</time></trkpt><trkpt lat="45.2496251" lon="7.7414535"><ele>231.5</ele><time>2026-04-25T17:02:01.201Z</time></trkpt><trkpt lat="45.2494981" lon="7.7414532"><ele>231.25</ele><time>2026-04-25T17:02:02.196Z</time></trkpt><trkpt lat="45.2493768" lon="7.7414344"><ele>231.0</ele><time>2026-04-25T17:02:03.219Z</time></trkpt><trkpt lat="45.2492623" lon="7.7414037"><ele>231.0</ele><time>2026-04-25T17:02:04.204Z</time></trkpt><trkpt lat="45.2491623" lon="7.7413938"><ele>231.0</ele><time>2026-04-25T17:02:05.202Z</time></trkpt><trkpt lat="45.2490754" lon="7.7413859"><ele>231.0</ele><time>2026-04-25T17:02:06.202Z</time></trkpt><trkpt lat="45.2489929" lon="7.7413515"><ele>231.0</ele><time>2026-04-25T17:02:07.195Z</time></trkpt><trkpt lat="45.2489283" lon="7.7412933"><ele>231.0</ele><time>2026-04-25T17:02:08.196Z</time></trkpt><trkpt lat="45.2488542" lon="7.7412207"><ele>231.0</ele><time>2026-04-25T17:02:09.204Z</time></trkpt><trkpt lat="45.2487719" lon="7.7411515"><ele>230.8</ele><time>2026-04-25T17:02:10.198Z</time></trkpt><trkpt lat="45.2486886" lon="7.7411229"><ele>230.60000000000002</ele><time>2026-04-25T17:02:11.209Z</time></trkpt><trkpt lat="45.2486068" lon="7.7411591"><ele>230.4</ele><time>2026-04-25T17:02:12.205Z</time></trkpt><trkpt lat="45.2485187" lon="7.7412556"><ele>230.2</ele><time>2026-04-25T17:02:13.21Z</time></trkpt><trkpt lat="45.2484209" lon="7.7413833"><ele>230.0</ele><time>2026-04-25T17:02:14.201Z</time></trkpt><trkpt lat="45.248322" lon="7.7414917"><ele>230.0</ele><time>2026-04-25T17:02:15.206Z</time></trkpt><trkpt lat="45.2482136" lon="7.7415674"><ele>230.0</ele><time>2026-04-25T17:02:16.203Z</time></trkpt><trkpt lat="45.248082" lon="7.7416277"><ele>230.0</ele><time>2026-04-25T17:02:17.203Z</time></trkpt><trkpt lat="45.2479388" lon="7.7416576"><ele>230.0</ele><time>2026-04-25T17:02:18.21Z</time></trkpt><trkpt lat="45.2478113" lon="7.7416655"><ele>229.8</ele><time>2026-04-25T17:02:19.201Z</time></trkpt><trkpt lat="45.2477034" lon="7.7416794"><ele>229.6</ele><time>2026-04-25T17:02:20.194Z</time></trkpt><trkpt lat="45.2475944" lon="7.7416916"><ele>229.39999999999998</ele><time>2026-04-25T17:02:21.206Z</time></trkpt><trkpt lat="45.2474814" lon="7.7417035"><ele>229.2</ele><time>2026-04-25T17:02:22.208Z</time></trkpt><trkpt lat="45.2473632" lon="7.7416997"><ele>229.0</ele><time>2026-04-25T17:02:23.211Z</time></trkpt><trkpt lat="45.2472351" lon="7.7416856"><ele>229.0</ele><time>2026-04-25T17:02:24.211Z</time></trkpt><trkpt lat="45.2471195" lon="7.7416679"><ele>228.99999999999997</ele><time>2026-04-25T17:02:25.205Z</time></trkpt><trkpt lat="45.2470226" lon="7.7416573"><ele>228.99999999999997</ele><time>2026-04-25T17:02:26.2Z</time></trkpt><trkpt lat="45.2469262" lon="7.7416271"><ele>229.0</ele><time>2026-04-25T17:02:27.203Z</time></trkpt><trkpt lat="45.246827" lon="7.7415654"><ele>229.0</ele><time>2026-04-25T17:02:28.2Z</time></trkpt><trkpt lat="45.2467381" lon="7.7414932"><ele>229.0</ele><time>2026-04-25T17:02:29.196Z</time></trkpt><trkpt lat="45.2466482" lon="7.7414"><ele>228.99999999999997</ele><time>2026-04-25T17:02:30.203Z</time></trkpt><trkpt lat="45.2465809" lon="7.7413174"><ele>228.99999999999997</ele><time>2026-04-25T17:02:31.198Z</time></trkpt><trkpt lat="45.2465034" lon="7.7412589"><ele>229.0</ele><time>2026-04-25T17:02:32.203Z</time></trkpt><trkpt lat="45.2464236" lon="7.7412545"><ele>229.0</ele><time>2026-04-25T17:02:33.199Z</time></trkpt><trkpt lat="45.2463316" lon="7.7413018"><ele>229.0</ele><time>2026-04-25T17:02:34.204Z</time></trkpt><trkpt lat="45.2462506" lon="7.7413981"><ele>228.99999999999997</ele><time>2026-04-25T17:02:35.199Z</time></trkpt><trkpt lat="45.2461987" lon="7.741547"><ele>228.99999999999997</ele><time>2026-04-25T17:02:36.192Z</time></trkpt><trkpt lat="45.2461764" lon="7.7417035"><ele>229.0</ele><time>2026-04-25T17:02:37.194Z</time></trkpt><trkpt lat="45.2461624" lon="7.7418533"><ele>229.0</ele><time>2026-04-25T17:02:38.193Z</time></trkpt><trkpt lat="45.2461202" lon="7.7420034"><ele>229.0</ele><time>2026-04-25T17:02:39.196Z</time></trkpt><trkpt lat="45.2460348" lon="7.7421204"><ele>229.0</ele><time>2026-04-25T17:02:40.192Z</time></trkpt><trkpt lat="45.2459275" lon="7.7422296"><ele>229.0</ele><time>2026-04-25T17:02:41.194Z</time></trkpt><trkpt lat="45.2458037" lon="7.7423281"><ele>229.0</ele><time>2026-04-25T17:02:42.202Z</time></trkpt><trkpt lat="45.2456529" lon="7.7423913"><ele>228.33333333333331</ele><time>2026-04-25T17:02:43.2Z</time></trkpt><trkpt lat="45.2455063" lon="7.7424494"><ele>227.66666666666669</ele><time>2026-04-25T17:02:44.207Z</time></trkpt><trkpt lat="45.2453305" lon="7.7424783"><ele>227.0</ele><time>2026-04-25T17:02:45.211Z</time></trkpt><trkpt lat="45.2451682" lon="7.7425348"><ele>227.0</ele><time>2026-04-25T17:02:46.215Z</time></trkpt><trkpt lat="45.2449918" lon="7.7425952"><ele>227.0</ele><time>2026-04-25T17:02:47.216Z</time></trkpt><trkpt lat="45.2448163" lon="7.7426503"><ele>227.0</ele><time>2026-04-25T17:02:48.21Z</time></trkpt><trkpt lat="45.244653" lon="7.7427051"><ele>228.0</ele><time>2026-04-25T17:02:49.207Z</time></trkpt><trkpt lat="45.2444897" lon="7.7427563"><ele>229.0</ele><time>2026-04-25T17:02:50.211Z</time></trkpt><trkpt lat="45.2443366" lon="7.7428014"><ele>230.0</ele><time>2026-04-25T17:02:51.215Z</time></trkpt><trkpt lat="45.2441762" lon="7.7428576"><ele>230.0</ele><time>2026-04-25T17:02:52.209Z</time></trkpt><trkpt lat="45.2440171" lon="7.7428989"><ele>230.0</ele><time>2026-04-25T17:02:53.215Z</time></trkpt><trkpt lat="45.2438691" lon="7.7429475"><ele>230.0</ele><time>2026-04-25T17:02:54.21Z</time></trkpt><trkpt lat="45.2436956" lon="7.7429854"><ele>229.5</ele><time>2026-04-25T17:02:55.211Z</time></trkpt><trkpt lat="45.2435587" lon="7.7430556"><ele>229.0</ele><time>2026-04-25T17:02:56.21Z</time></trkpt><trkpt lat="45.2434211" lon="7.7431075"><ele>228.5</ele><time>2026-04-25T17:02:57.213Z</time></trkpt><trkpt lat="45.2432922" lon="7.7431473"><ele>228.0</ele><time>2026-04-25T17:02:58.205Z</time></trkpt><trkpt lat="45.2431648" lon="7.7431898"><ele>227.25</ele><time>2026-04-25T17:02:59.205Z</time></trkpt><trkpt lat="45.2430334" lon="7.7432317"><ele>226.5</ele><time>2026-04-25T17:03:00.209Z</time></trkpt><trkpt lat="45.2428848" lon="7.7432756"><ele>225.75</ele><time>2026-04-25T17:03:01.206Z</time></trkpt><trkpt lat="45.2427387" lon="7.7433207"><ele>225.0</ele><time>2026-04-25T17:03:02.205Z</time></trkpt><trkpt lat="45.2425953" lon="7.7433752"><ele>225.0</ele><time>2026-04-25T17:03:03.208Z</time></trkpt><trkpt lat="45.2424539" lon="7.7434275"><ele>225.0</ele><time>2026-04-25T17:03:04.208Z</time></trkpt><trkpt lat="45.2423082" lon="7.7434913"><ele>225.0</ele><time>2026-04-25T17:03:05.219Z</time></trkpt><trkpt lat="45.2421553" lon="7.7435364"><ele>224.5</ele><time>2026-04-25T17:03:06.214Z</time></trkpt><trkpt lat="45.2420065" lon="7.7435776"><ele>224.0</ele><time>2026-04-25T17:03:07.203Z</time></trkpt><trkpt lat="45.2418615" lon="7.7436162"><ele>223.5</ele><time>2026-04-25T17:03:08.204Z</time></trkpt><trkpt lat="45.2417217" lon="7.7436473"><ele>223.0</ele><time>2026-04-25T17:03:09.204Z</time></trkpt><trkpt lat="45.2415826" lon="7.7436997"><ele>224.0</ele><time>2026-04-25T17:03:10.213Z</time></trkpt><trkpt lat="45.2414398" lon="7.7437447"><ele>225.0</ele><time>2026-04-25T17:03:11.209Z</time></trkpt><trkpt lat="45.2412914" lon="7.7437927"><ele>226.0</ele><time>2026-04-25T17:03:12.202Z</time></trkpt><trkpt lat="45.2411413" lon="7.743843"><ele>226.0</ele><time>2026-04-25T17:03:13.212Z</time></trkpt><trkpt lat="45.2409935" lon="7.7438989"><ele>226.0</ele><time>2026-04-25T17:03:14.208Z</time></trkpt><trkpt lat="45.2408591" lon="7.7439562"><ele>226.0</ele><time>2026-04-25T17:03:15.209Z</time></trkpt><trkpt lat="45.2407179" lon="7.7440068"><ele>226.0</ele><time>2026-04-25T17:03:16.206Z</time></trkpt><trkpt lat="45.2406038" lon="7.7440649"><ele>225.33333333333331</ele><time>2026-04-25T17:03:17.213Z</time></trkpt><trkpt lat="45.2404653" lon="7.7441168"><ele>224.66666666666669</ele><time>2026-04-25T17:03:18.212Z</time></trkpt><trkpt lat="45.2403211" lon="7.7441694"><ele>224.0</ele><time>2026-04-25T17:03:19.207Z</time></trkpt><trkpt lat="45.2401679" lon="7.744237"><ele>224.0</ele><time>2026-04-25T17:03:20.212Z</time></trkpt><trkpt lat="45.2400259" lon="7.7443053"><ele>224.0</ele><time>2026-04-25T17:03:21.213Z</time></trkpt><trkpt lat="45.2398838" lon="7.7443613"><ele>224.0</ele><time>2026-04-25T17:03:22.213Z</time></trkpt><trkpt lat="45.239742" lon="7.744424"><ele>224.0</ele><time>2026-04-25T17:03:23.219Z</time></trkpt><trkpt lat="45.2396033" lon="7.7444862"><ele>223.5</ele><time>2026-04-25T17:03:24.212Z</time></trkpt><trkpt lat="45.2394563" lon="7.7445608"><ele>223.0</ele><time>2026-04-25T17:03:25.208Z</time></trkpt><trkpt lat="45.2393041" lon="7.7446311"><ele>222.5</ele><time>2026-04-25T17:03:26.206Z</time></trkpt><trkpt lat="45.2391812" lon="7.7446956"><ele>222.0</ele><time>2026-04-25T17:03:27.208Z</time></trkpt><trkpt lat="45.2390579" lon="7.7447533"><ele>222.0</ele><time>2026-04-25T17:03:28.204Z</time></trkpt><trkpt lat="45.2389182" lon="7.7448271"><ele>222.0</ele><time>2026-04-25T17:03:29.206Z</time></trkpt><trkpt lat="45.238784" lon="7.7449"><ele>222.0</ele><time>2026-04-25T17:03:30.2Z</time></trkpt><trkpt lat="45.2385024" lon="7.7450527"><ele>222.0</ele><time>2026-04-25T17:03:32.209Z</time></trkpt><trkpt lat="45.2383598" lon="7.7451268"><ele>222.0</ele><time>2026-04-25T17:03:33.205Z</time></trkpt><trkpt lat="45.2382092" lon="7.7452089"><ele>222.0</ele><time>2026-04-25T17:03:34.205Z</time></trkpt><trkpt lat="45.238045" lon="7.7452853"><ele>221.33333333333331</ele><time>2026-04-25T17:03:35.205Z</time></trkpt><trkpt lat="45.2378802" lon="7.7453774"><ele>220.66666666666666</ele><time>2026-04-25T17:03:36.218Z</time></trkpt><trkpt lat="45.2377198" lon="7.7454818"><ele>220.0</ele><time>2026-04-25T17:03:37.207Z</time></trkpt><trkpt lat="45.2375677" lon="7.7455889"><ele>220.0</ele><time>2026-04-25T17:03:38.208Z</time></trkpt><trkpt lat="45.2374076" lon="7.7456656"><ele>220.0</ele><time>2026-04-25T17:03:39.209Z</time></trkpt><trkpt lat="45.2372619" lon="7.7457456"><ele>220.0</ele><time>2026-04-25T17:03:40.207Z</time></trkpt><trkpt lat="45.2371119" lon="7.7458369"><ele>220.33333333333331</ele><time>2026-04-25T17:03:41.209Z</time></trkpt><trkpt lat="45.2369809" lon="7.7459377"><ele>220.66666666666669</ele><time>2026-04-25T17:03:42.213Z</time></trkpt><trkpt lat="45.2368307" lon="7.7460128"><ele>221.0</ele><time>2026-04-25T17:03:43.205Z</time></trkpt><trkpt lat="45.2366849" lon="7.7460983"><ele>221.33333333333334</ele><time>2026-04-25T17:03:44.207Z</time></trkpt><trkpt lat="45.2365388" lon="7.7461877"><ele>221.66666666666669</ele><time>2026-04-25T17:03:45.211Z</time></trkpt><trkpt lat="45.2363996" lon="7.7462815"><ele>222.0</ele><time>2026-04-25T17:03:46.206Z</time></trkpt><trkpt lat="45.2362619" lon="7.7463731"><ele>222.0</ele><time>2026-04-25T17:03:47.209Z</time></trkpt><trkpt lat="45.2361158" lon="7.7464586"><ele>222.0</ele><time>2026-04-25T17:03:48.208Z</time></trkpt><trkpt lat="45.2359607" lon="7.7465457"><ele>222.0</ele><time>2026-04-25T17:03:49.211Z</time></trkpt><trkpt lat="45.2358144" lon="7.7466461"><ele>222.0</ele><time>2026-04-25T17:03:50.207Z</time></trkpt><trkpt lat="45.2356602" lon="7.746733"><ele>222.0</ele><time>2026-04-25T17:03:51.212Z</time></trkpt><trkpt lat="45.2355086" lon="7.7468185"><ele>222.0</ele><time>2026-04-25T17:03:52.206Z</time></trkpt><trkpt lat="45.2353634" lon="7.7469162"><ele>221.75</ele><time>2026-04-25T17:03:53.218Z</time></trkpt><trkpt lat="45.2352102" lon="7.7470062"><ele>221.5</ele><time>2026-04-25T17:03:54.21Z</time></trkpt><trkpt lat="45.2350908" lon="7.7470844"><ele>221.25</ele><time>2026-04-25T17:03:55.206Z</time></trkpt><trkpt lat="45.2349618" lon="7.7471602"><ele>221.0</ele><time>2026-04-25T17:03:56.208Z</time></trkpt><trkpt lat="45.2348306" lon="7.7472305"><ele>221.5</ele><time>2026-04-25T17:03:57.212Z</time></trkpt><trkpt lat="45.234705" lon="7.7473054"><ele>222.0</ele><time>2026-04-25T17:03:58.204Z</time></trkpt><trkpt lat="45.2345768" lon="7.747386"><ele>222.5</ele><time>2026-04-25T17:03:59.211Z</time></trkpt><trkpt lat="45.2344496" lon="7.7474686"><ele>223.0</ele><time>2026-04-25T17:04:00.21Z</time></trkpt><trkpt lat="45.2343249" lon="7.7475505"><ele>223.0</ele><time>2026-04-25T17:04:01.211Z</time></trkpt><trkpt lat="45.2341853" lon="7.7476259"><ele>223.0</ele><time>2026-04-25T17:04:02.207Z</time></trkpt><trkpt lat="45.2340457" lon="7.7476862"><ele>223.0</ele><time>2026-04-25T17:04:03.209Z</time></trkpt><trkpt lat="45.2339163" lon="7.7477762"><ele>223.0</ele><time>2026-04-25T17:04:04.204Z</time></trkpt><trkpt lat="45.2337833" lon="7.7478505"><ele>222.5</ele><time>2026-04-25T17:04:05.205Z</time></trkpt><trkpt lat="45.2336688" lon="7.747937"><ele>222.0</ele><time>2026-04-25T17:04:06.213Z</time></trkpt><trkpt lat="45.2335351" lon="7.7480059"><ele>221.5</ele><time>2026-04-25T17:04:07.219Z</time></trkpt><trkpt lat="45.2334133" lon="7.7480846"><ele>221.0</ele><time>2026-04-25T17:04:08.208Z</time></trkpt><trkpt lat="45.2332932" lon="7.748161"><ele>221.0</ele><time>2026-04-25T17:04:09.209Z</time></trkpt><trkpt lat="45.2331688" lon="7.7482103"><ele>221.0</ele><time>2026-04-25T17:04:10.205Z</time></trkpt><trkpt lat="45.2330583" lon="7.7482738"><ele>221.0</ele><time>2026-04-25T17:04:11.204Z</time></trkpt><trkpt lat="45.2329517" lon="7.7483378"><ele>221.0</ele><time>2026-04-25T17:04:12.207Z</time></trkpt><trkpt lat="45.2328223" lon="7.7483887"><ele>221.25</ele><time>2026-04-25T17:04:13.206Z</time></trkpt><trkpt lat="45.2326875" lon="7.7484375"><ele>221.5</ele><time>2026-04-25T17:04:14.21Z</time></trkpt><trkpt lat="45.2325468" lon="7.7484842"><ele>221.75</ele><time>2026-04-25T17:04:15.207Z</time></trkpt><trkpt lat="45.2324142" lon="7.7485288"><ele>222.0</ele><time>2026-04-25T17:04:16.207Z</time></trkpt><trkpt lat="45.2322571" lon="7.7485581"><ele>221.5</ele><time>2026-04-25T17:04:17.205Z</time></trkpt><trkpt lat="45.2321308" lon="7.748605"><ele>221.0</ele><time>2026-04-25T17:04:18.21Z</time></trkpt><trkpt lat="45.2319957" lon="7.7486448"><ele>220.5</ele><time>2026-04-25T17:04:19.208Z</time></trkpt><trkpt lat="45.2318432" lon="7.748677"><ele>220.0</ele><time>2026-04-25T17:04:20.205Z</time></trkpt><trkpt lat="45.2316835" lon="7.7486897"><ele>220.0</ele><time>2026-04-25T17:04:21.211Z</time></trkpt><trkpt lat="45.2315121" lon="7.7486919"><ele>220.0</ele><time>2026-04-25T17:04:22.211Z</time></trkpt><trkpt lat="45.2313472" lon="7.7486734"><ele>220.0</ele><time>2026-04-25T17:04:23.218Z</time></trkpt><trkpt lat="45.2311868" lon="7.748687"><ele>220.66666666666666</ele><time>2026-04-25T17:04:24.216Z</time></trkpt><trkpt lat="45.2310175" lon="7.7486661"><ele>221.33333333333331</ele><time>2026-04-25T17:04:25.218Z</time></trkpt><trkpt lat="45.2308664" lon="7.7486678"><ele>222.0</ele><time>2026-04-25T17:04:26.221Z</time></trkpt><trkpt lat="45.2307024" lon="7.7486572"><ele>222.66666666666669</ele><time>2026-04-25T17:04:27.217Z</time></trkpt><trkpt lat="45.2305399" lon="7.7486328"><ele>223.33333333333334</ele><time>2026-04-25T17:04:28.208Z</time></trkpt><trkpt lat="45.2303843" lon="7.7486114"><ele>224.0</ele><time>2026-04-25T17:04:29.208Z</time></trkpt><trkpt lat="45.2302306" lon="7.7485651"><ele>224.25</ele><time>2026-04-25T17:04:30.211Z</time></trkpt><trkpt lat="45.2300814" lon="7.7485078"><ele>224.5</ele><time>2026-04-25T17:04:31.196Z</time></trkpt><trkpt lat="45.2299346" lon="7.7484457"><ele>224.75</ele><time>2026-04-25T17:04:32.208Z</time></trkpt><trkpt lat="45.2297976" lon="7.7483949"><ele>225.0</ele><time>2026-04-25T17:04:33.2Z</time></trkpt><trkpt lat="45.2296625" lon="7.7483224"><ele>225.0</ele><time>2026-04-25T17:04:34.199Z</time></trkpt><trkpt lat="45.2295146" lon="7.7482567"><ele>225.0</ele><time>2026-04-25T17:04:35.205Z</time></trkpt><trkpt lat="45.2293761" lon="7.74818"><ele>225.0</ele><time>2026-04-25T17:04:36.205Z</time></trkpt><trkpt lat="45.2292463" lon="7.7481186"><ele>225.0</ele><time>2026-04-25T17:04:37.203Z</time></trkpt><trkpt lat="45.2290949" lon="7.7480308"><ele>225.0</ele><time>2026-04-25T17:04:38.213Z</time></trkpt><trkpt lat="45.2289689" lon="7.7479404"><ele>225.0</ele><time>2026-04-25T17:04:39.207Z</time></trkpt><trkpt lat="45.2288535" lon="7.7478888"><ele>225.0</ele><time>2026-04-25T17:04:40.21Z</time></trkpt><trkpt lat="45.2287112" lon="7.7478072"><ele>225.0</ele><time>2026-04-25T17:04:41.201Z</time></trkpt><trkpt lat="45.2286106" lon="7.7477539"><ele>227.0</ele><time>2026-04-25T17:04:42.205Z</time></trkpt><trkpt lat="45.2284989" lon="7.7476951"><ele>229.0</ele><time>2026-04-25T17:04:43.202Z</time></trkpt><trkpt lat="45.2283946" lon="7.7476389"><ele>231.0</ele><time>2026-04-25T17:04:44.204Z</time></trkpt><trkpt lat="45.2282769" lon="7.7475788"><ele>233.0</ele><time>2026-04-25T17:04:45.203Z</time></trkpt><trkpt lat="45.2281671" lon="7.7475073"><ele>234.5</ele><time>2026-04-25T17:04:46.203Z</time></trkpt><trkpt lat="45.2280584" lon="7.7474528"><ele>236.0</ele><time>2026-04-25T17:04:47.199Z</time></trkpt><trkpt lat="45.2279532" lon="7.7473925"><ele>237.5</ele><time>2026-04-25T17:04:48.201Z</time></trkpt><trkpt lat="45.2278498" lon="7.7473528"><ele>239.0</ele><time>2026-04-25T17:04:49.199Z</time></trkpt><trkpt lat="45.2277392" lon="7.7472978"><ele>239.0</ele><time>2026-04-25T17:04:50.202Z</time></trkpt><trkpt lat="45.2276223" lon="7.7472358"><ele>239.0</ele><time>2026-04-25T17:04:51.199Z</time></trkpt><trkpt lat="45.227497" lon="7.7471693"><ele>239.0</ele><time>2026-04-25T17:04:52.191Z</time></trkpt><trkpt lat="45.2273817" lon="7.7470968"><ele>239.0</ele><time>2026-04-25T17:04:53.204Z</time></trkpt><trkpt lat="45.227255" lon="7.747019"><ele>242.5</ele><time>2026-04-25T17:04:54.197Z</time></trkpt><trkpt lat="45.2271267" lon="7.7469435"><ele>246.0</ele><time>2026-04-25T17:04:55.189Z</time></trkpt><trkpt lat="45.2269973" lon="7.7468749"><ele>249.5</ele><time>2026-04-25T17:04:56.194Z</time></trkpt><trkpt lat="45.2268602" lon="7.746798"><ele>253.0</ele><time>2026-04-25T17:04:57.193Z</time></trkpt><trkpt lat="45.2267355" lon="7.7467188"><ele>253.0</ele><time>2026-04-25T17:04:58.192Z</time></trkpt><trkpt lat="45.2266236" lon="7.7466552"><ele>253.0</ele><time>2026-04-25T17:04:59.194Z</time></trkpt><trkpt lat="45.2265131" lon="7.7465877"><ele>253.0</ele><time>2026-04-25T17:05:00.188Z</time></trkpt><trkpt lat="45.2264026" lon="7.7465241"><ele>253.0</ele><time>2026-04-25T17:05:01.191Z</time></trkpt><trkpt lat="45.2262647" lon="7.7464714"><ele>255.0</ele><time>2026-04-25T17:05:02.186Z</time></trkpt><trkpt lat="45.2261337" lon="7.7463945"><ele>257.0</ele><time>2026-04-25T17:05:03.184Z</time></trkpt><trkpt lat="45.2259985" lon="7.7463092"><ele>259.0</ele><time>2026-04-25T17:05:04.185Z</time></trkpt><trkpt lat="45.2258662" lon="7.7462298"><ele>261.0</ele><time>2026-04-25T17:05:05.184Z</time></trkpt><trkpt lat="45.2257369" lon="7.7461268"><ele>260.75</ele><time>2026-04-25T17:05:06.184Z</time></trkpt><trkpt lat="45.2256119" lon="7.7460577"><ele>260.5</ele><time>2026-04-25T17:05:07.176Z</time></trkpt><trkpt lat="45.2254662" lon="7.7459963"><ele>260.25</ele><time>2026-04-25T17:05:08.175Z</time></trkpt><trkpt lat="45.2253217" lon="7.7459013"><ele>260.0</ele><time>2026-04-25T17:05:09.191Z</time></trkpt><trkpt lat="45.2251817" lon="7.74585"><ele>260.33333333333337</ele><time>2026-04-25T17:05:10.181Z</time></trkpt><trkpt lat="45.2250756" lon="7.7457284"><ele>260.6666666666667</ele><time>2026-04-25T17:05:11.185Z</time></trkpt><trkpt lat="45.2249099" lon="7.7456739"><ele>261.0</ele><time>2026-04-25T17:05:12.187Z</time></trkpt><trkpt lat="45.2247241" lon="7.7455977"><ele>261.0</ele><time>2026-04-25T17:05:13.195Z</time></trkpt><trkpt lat="45.2245531" lon="7.7455353"><ele>261.0</ele><time>2026-04-25T17:05:14.193Z</time></trkpt><trkpt lat="45.224381" lon="7.7454271"><ele>261.0</ele><time>2026-04-25T17:05:15.188Z</time></trkpt><trkpt lat="45.2242252" lon="7.7453598"><ele>261.0</ele><time>2026-04-25T17:05:16.194Z</time></trkpt><trkpt lat="45.22407" lon="7.7452441"><ele>261.0</ele><time>2026-04-25T17:05:17.182Z</time></trkpt><trkpt lat="45.2239101" lon="7.7451602"><ele>261.0</ele><time>2026-04-25T17:05:18.189Z</time></trkpt><trkpt lat="45.2237354" lon="7.7450482"><ele>260.6666666666667</ele><time>2026-04-25T17:05:19.184Z</time></trkpt><trkpt lat="45.2235567" lon="7.7449362"><ele>260.33333333333337</ele><time>2026-04-25T17:05:20.183Z</time></trkpt><trkpt lat="45.2233838" lon="7.7448533"><ele>260.0</ele><time>2026-04-25T17:05:21.187Z</time></trkpt><trkpt lat="45.2232076" lon="7.7447539"><ele>260.33333333333337</ele><time>2026-04-25T17:05:22.179Z</time></trkpt><trkpt lat="45.223037" lon="7.7446673"><ele>260.6666666666667</ele><time>2026-04-25T17:05:23.188Z</time></trkpt><trkpt lat="45.2228974" lon="7.7445887"><ele>261.0</ele><time>2026-04-25T17:05:24.186Z</time></trkpt><trkpt lat="45.2227547" lon="7.744521"><ele>261.0</ele><time>2026-04-25T17:05:25.18Z</time></trkpt><trkpt lat="45.2225993" lon="7.7444343"><ele>261.0</ele><time>2026-04-25T17:05:26.185Z</time></trkpt><trkpt lat="45.2224898" lon="7.744377"><ele>261.0</ele><time>2026-04-25T17:05:27.184Z</time></trkpt><trkpt lat="45.2223449" lon="7.7443088"><ele>261.0</ele><time>2026-04-25T17:05:28.184Z</time></trkpt><trkpt lat="45.2222061" lon="7.7442268"><ele>258.0</ele><time>2026-04-25T17:05:29.189Z</time></trkpt><trkpt lat="45.222064" lon="7.7441163"><ele>255.0</ele><time>2026-04-25T17:05:30.188Z</time></trkpt><trkpt lat="45.221902" lon="7.7440401"><ele>252.0</ele><time>2026-04-25T17:05:31.184Z</time></trkpt><trkpt lat="45.221784" lon="7.7439823"><ele>252.0</ele><time>2026-04-25T17:05:32.188Z</time></trkpt><trkpt lat="45.2216251" lon="7.7439025"><ele>252.0</ele><time>2026-04-25T17:05:33.187Z</time></trkpt><trkpt lat="45.2215032" lon="7.7438176"><ele>252.0</ele><time>2026-04-25T17:05:34.192Z</time></trkpt><trkpt lat="45.2213648" lon="7.7437385"><ele>249.5</ele><time>2026-04-25T17:05:35.191Z</time></trkpt><trkpt lat="45.2212276" lon="7.7436544"><ele>247.0</ele><time>2026-04-25T17:05:36.187Z</time></trkpt><trkpt lat="45.2210999" lon="7.7435809"><ele>244.5</ele><time>2026-04-25T17:05:37.184Z</time></trkpt><trkpt lat="45.2209581" lon="7.7435014"><ele>242.0</ele><time>2026-04-25T17:05:38.194Z</time></trkpt><trkpt lat="45.2208257" lon="7.7433989"><ele>242.0</ele><time>2026-04-25T17:05:39.195Z</time></trkpt><trkpt lat="45.2206911" lon="7.7433202"><ele>242.0</ele><time>2026-04-25T17:05:40.209Z</time></trkpt><trkpt lat="45.2205757" lon="7.7432428"><ele>242.0</ele><time>2026-04-25T17:05:41.198Z</time></trkpt><trkpt lat="45.2204609" lon="7.7431487"><ele>242.0</ele><time>2026-04-25T17:05:42.197Z</time></trkpt><trkpt lat="45.2203295" lon="7.7430686"><ele>242.33333333333334</ele><time>2026-04-25T17:05:43.204Z</time></trkpt><trkpt lat="45.2201984" lon="7.7429876"><ele>242.66666666666669</ele><time>2026-04-25T17:05:44.207Z</time></trkpt><trkpt lat="45.2200663" lon="7.7428863"><ele>243.0</ele><time>2026-04-25T17:05:45.198Z</time></trkpt><trkpt lat="45.2199358" lon="7.7427638"><ele>246.33333333333331</ele><time>2026-04-25T17:05:46.199Z</time></trkpt><trkpt lat="45.2197867" lon="7.7426418"><ele>249.66666666666666</ele><time>2026-04-25T17:05:47.2Z</time></trkpt><trkpt lat="45.2196361" lon="7.7425415"><ele>253.0</ele><time>2026-04-25T17:05:48.199Z</time></trkpt><trkpt lat="45.2195029" lon="7.742417"><ele>253.0</ele><time>2026-04-25T17:05:49.195Z</time></trkpt><trkpt lat="45.2193695" lon="7.7422731"><ele>253.0</ele><time>2026-04-25T17:05:50.195Z</time></trkpt><trkpt lat="45.2192263" lon="7.742131"><ele>253.0</ele><time>2026-04-25T17:05:51.197Z</time></trkpt><trkpt lat="45.2190753" lon="7.7419864"><ele>255.66666666666666</ele><time>2026-04-25T17:05:52.194Z</time></trkpt><trkpt lat="45.2189368" lon="7.7418325"><ele>258.3333333333333</ele><time>2026-04-25T17:05:53.203Z</time></trkpt><trkpt lat="45.2187934" lon="7.7416758"><ele>261.0</ele><time>2026-04-25T17:05:54.195Z</time></trkpt><trkpt lat="45.2186633" lon="7.741533"><ele>261.0</ele><time>2026-04-25T17:05:55.194Z</time></trkpt><trkpt lat="45.2185468" lon="7.7413902"><ele>261.0</ele><time>2026-04-25T17:05:56.196Z</time></trkpt><trkpt lat="45.2184329" lon="7.7412256"><ele>261.0</ele><time>2026-04-25T17:05:57.192Z</time></trkpt><trkpt lat="45.2183146" lon="7.741077"><ele>261.6666666666667</ele><time>2026-04-25T17:05:58.19Z</time></trkpt><trkpt lat="45.2181955" lon="7.7409321"><ele>262.33333333333337</ele><time>2026-04-25T17:05:59.186Z</time></trkpt><trkpt lat="45.2180916" lon="7.7407672"><ele>263.0</ele><time>2026-04-25T17:06:00.183Z</time></trkpt><trkpt lat="45.2179866" lon="7.7406161"><ele>263.0</ele><time>2026-04-25T17:06:01.183Z</time></trkpt><trkpt lat="45.2178738" lon="7.7404528"><ele>263.0</ele><time>2026-04-25T17:06:02.182Z</time></trkpt><trkpt lat="45.2177794" lon="7.7402392"><ele>263.0</ele><time>2026-04-25T17:06:03.185Z</time></trkpt><trkpt lat="45.2176689" lon="7.7400478"><ele>263.0</ele><time>2026-04-25T17:06:04.189Z</time></trkpt><trkpt lat="45.2175421" lon="7.7398771"><ele>263.0</ele><time>2026-04-25T17:06:05.191Z</time></trkpt><trkpt lat="45.2174452" lon="7.7396747"><ele>263.0</ele><time>2026-04-25T17:06:06.185Z</time></trkpt><trkpt lat="45.2173532" lon="7.7394777"><ele>264.0</ele><time>2026-04-25T17:06:07.184Z</time></trkpt><trkpt lat="45.2172659" lon="7.7392791"><ele>265.0</ele><time>2026-04-25T17:06:08.185Z</time></trkpt><trkpt lat="45.2171517" lon="7.7391353"><ele>266.0</ele><time>2026-04-25T17:06:09.187Z</time></trkpt><trkpt lat="45.2170859" lon="7.7389151"><ele>266.0</ele><time>2026-04-25T17:06:10.182Z</time></trkpt><trkpt lat="45.2169976" lon="7.7387488"><ele>266.0</ele><time>2026-04-25T17:06:11.2Z</time></trkpt><trkpt lat="45.2169233" lon="7.7385666"><ele>266.0</ele><time>2026-04-25T17:06:12.182Z</time></trkpt><trkpt lat="45.2168318" lon="7.738403"><ele>266.0</ele><time>2026-04-25T17:06:13.185Z</time></trkpt><trkpt lat="45.2167685" lon="7.7382052"><ele>266.25</ele><time>2026-04-25T17:06:14.185Z</time></trkpt><trkpt lat="45.216686" lon="7.7380114"><ele>266.5</ele><time>2026-04-25T17:06:15.186Z</time></trkpt><trkpt lat="45.2166108" lon="7.7378304"><ele>266.75</ele><time>2026-04-25T17:06:16.18Z</time></trkpt><trkpt lat="45.2165224" lon="7.7376893"><ele>267.0</ele><time>2026-04-25T17:06:17.183Z</time></trkpt><trkpt lat="45.2164425" lon="7.7375327"><ele>267.0</ele><time>2026-04-25T17:06:18.185Z</time></trkpt><trkpt lat="45.2163811" lon="7.7373575"><ele>267.0</ele><time>2026-04-25T17:06:19.188Z</time></trkpt><trkpt lat="45.2163109" lon="7.7371622"><ele>267.0</ele><time>2026-04-25T17:06:20.197Z</time></trkpt><trkpt lat="45.2162261" lon="7.7369766"><ele>267.0</ele><time>2026-04-25T17:06:21.193Z</time></trkpt><trkpt lat="45.2161429" lon="7.7367939"><ele>266.3333333333333</ele><time>2026-04-25T17:06:22.187Z</time></trkpt><trkpt lat="45.2160495" lon="7.7366068"><ele>265.66666666666663</ele><time>2026-04-25T17:06:23.198Z</time></trkpt><trkpt lat="45.2159837" lon="7.7363804"><ele>265.0</ele><time>2026-04-25T17:06:24.189Z</time></trkpt><trkpt lat="45.2159041" lon="7.7361812"><ele>265.0</ele><time>2026-04-25T17:06:25.192Z</time></trkpt><trkpt lat="45.2158307" lon="7.7359971"><ele>265.0</ele><time>2026-04-25T17:06:26.195Z</time></trkpt><trkpt lat="45.2157417" lon="7.7357989"><ele>265.0</ele><time>2026-04-25T17:06:27.196Z</time></trkpt><trkpt lat="45.215647" lon="7.7356239"><ele>265.0</ele><time>2026-04-25T17:06:28.196Z</time></trkpt><trkpt lat="45.215555" lon="7.7354507"><ele>265.0</ele><time>2026-04-25T17:06:29.196Z</time></trkpt><trkpt lat="45.2154837" lon="7.7352491"><ele>265.0</ele><time>2026-04-25T17:06:30.195Z</time></trkpt><trkpt lat="45.2154087" lon="7.7350413"><ele>265.0</ele><time>2026-04-25T17:06:31.195Z</time></trkpt><trkpt lat="45.2153171" lon="7.7348883"><ele>265.0</ele><time>2026-04-25T17:06:32.196Z</time></trkpt><trkpt lat="45.2152192" lon="7.734714"><ele>265.0</ele><time>2026-04-25T17:06:33.194Z</time></trkpt><trkpt lat="45.2151247" lon="7.7345197"><ele>264.66666666666663</ele><time>2026-04-25T17:06:34.194Z</time></trkpt><trkpt lat="45.2150312" lon="7.734343"><ele>264.3333333333333</ele><time>2026-04-25T17:06:35.195Z</time></trkpt><trkpt lat="45.214953" lon="7.7341444"><ele>264.0</ele><time>2026-04-25T17:06:36.195Z</time></trkpt><trkpt lat="45.2148588" lon="7.7339952"><ele>264.0</ele><time>2026-04-25T17:06:37.195Z</time></trkpt><trkpt lat="45.2147832" lon="7.7338179"><ele>264.0</ele><time>2026-04-25T17:06:38.199Z</time></trkpt><trkpt lat="45.2146967" lon="7.7336435"><ele>264.0</ele><time>2026-04-25T17:06:39.198Z</time></trkpt><trkpt lat="45.2146237" lon="7.7334511"><ele>264.3333333333333</ele><time>2026-04-25T17:06:40.196Z</time></trkpt><trkpt lat="45.2145385" lon="7.7332495"><ele>264.66666666666663</ele><time>2026-04-25T17:06:41.194Z</time></trkpt><trkpt lat="45.2144463" lon="7.7330228"><ele>265.0</ele><time>2026-04-25T17:06:42.203Z</time></trkpt><trkpt lat="45.2143349" lon="7.7328405"><ele>265.3333333333333</ele><time>2026-04-25T17:06:43.19Z</time></trkpt><trkpt lat="45.214242" lon="7.7326397"><ele>265.6666666666667</ele><time>2026-04-25T17:06:44.186Z</time></trkpt><trkpt lat="45.2141731" lon="7.7324292"><ele>266.0</ele><time>2026-04-25T17:06:45.19Z</time></trkpt><trkpt lat="45.2140883" lon="7.7322282"><ele>266.0</ele><time>2026-04-25T17:06:46.191Z</time></trkpt><trkpt lat="45.2140102" lon="7.7320224"><ele>266.0</ele><time>2026-04-25T17:06:47.19Z</time></trkpt><trkpt lat="45.2139448" lon="7.7318185"><ele>266.0</ele><time>2026-04-25T17:06:48.189Z</time></trkpt><trkpt lat="45.2138726" lon="7.7316078"><ele>266.0</ele><time>2026-04-25T17:06:49.196Z</time></trkpt><trkpt lat="45.2137887" lon="7.7313997"><ele>266.0</ele><time>2026-04-25T17:06:50.196Z</time></trkpt><trkpt lat="45.2137067" lon="7.7311921"><ele>266.0</ele><time>2026-04-25T17:06:51.196Z</time></trkpt><trkpt lat="45.2136257" lon="7.7309424"><ele>266.0</ele><time>2026-04-25T17:06:52.193Z</time></trkpt><trkpt lat="45.2135654" lon="7.7306998"><ele>266.0</ele><time>2026-04-25T17:06:53.202Z</time></trkpt><trkpt lat="45.2134907" lon="7.7304731"><ele>266.0</ele><time>2026-04-25T17:06:54.195Z</time></trkpt><trkpt lat="45.2134137" lon="7.7302469"><ele>266.6666666666667</ele><time>2026-04-25T17:06:55.191Z</time></trkpt><trkpt lat="45.2133371" lon="7.7300279"><ele>267.3333333333333</ele><time>2026-04-25T17:06:56.19Z</time></trkpt><trkpt lat="45.2132485" lon="7.7298448"><ele>268.0</ele><time>2026-04-25T17:06:57.188Z</time></trkpt><trkpt lat="45.2131894" lon="7.7296197"><ele>268.0</ele><time>2026-04-25T17:06:58.189Z</time></trkpt><trkpt lat="45.2131282" lon="7.7294181"><ele>268.0</ele><time>2026-04-25T17:06:59.198Z</time></trkpt><trkpt lat="45.2130873" lon="7.7292082"><ele>268.0</ele><time>2026-04-25T17:07:00.19Z</time></trkpt><trkpt lat="45.2130305" lon="7.7290006"><ele>268.0</ele><time>2026-04-25T17:07:01.188Z</time></trkpt><trkpt lat="45.2129607" lon="7.7287934"><ele>268.0</ele><time>2026-04-25T17:07:02.192Z</time></trkpt><trkpt lat="45.2129005" lon="7.7286083"><ele>268.0</ele><time>2026-04-25T17:07:03.189Z</time></trkpt><trkpt lat="45.2128323" lon="7.7284315"><ele>268.0</ele><time>2026-04-25T17:07:04.19Z</time></trkpt><trkpt lat="45.212775" lon="7.7282641"><ele>268.0</ele><time>2026-04-25T17:07:05.189Z</time></trkpt><trkpt lat="45.2127232" lon="7.7280874"><ele>268.0</ele><time>2026-04-25T17:07:06.192Z</time></trkpt><trkpt lat="45.2126536" lon="7.7279269"><ele>268.0</ele><time>2026-04-25T17:07:07.198Z</time></trkpt><trkpt lat="45.2125903" lon="7.7277685"><ele>268.0</ele><time>2026-04-25T17:07:08.193Z</time></trkpt><trkpt lat="45.2125405" lon="7.7275867"><ele>268.0</ele><time>2026-04-25T17:07:09.195Z</time></trkpt><trkpt lat="45.2124871" lon="7.7273781"><ele>268.0</ele><time>2026-04-25T17:07:10.192Z</time></trkpt><trkpt lat="45.2124146" lon="7.7271927"><ele>268.0</ele><time>2026-04-25T17:07:11.188Z</time></trkpt><trkpt lat="45.2123458" lon="7.7269804"><ele>268.3333333333333</ele><time>2026-04-25T17:07:12.189Z</time></trkpt><trkpt lat="45.2122705" lon="7.7267823"><ele>268.6666666666667</ele><time>2026-04-25T17:07:13.198Z</time></trkpt><trkpt lat="45.2121834" lon="7.7265628"><ele>269.0</ele><time>2026-04-25T17:07:14.195Z</time></trkpt><trkpt lat="45.2120955" lon="7.7262853"><ele>268.0</ele><time>2026-04-25T17:07:15.184Z</time></trkpt><trkpt lat="45.2119885" lon="7.7259874"><ele>267.0</ele><time>2026-04-25T17:07:16.189Z</time></trkpt><trkpt lat="45.2119036" lon="7.725651"><ele>267.0</ele><time>2026-04-25T17:07:17.184Z</time></trkpt><trkpt lat="45.2117908" lon="7.7253425"><ele>267.0</ele><time>2026-04-25T17:07:18.188Z</time></trkpt><trkpt lat="45.2116787" lon="7.7250343"><ele>266.5</ele><time>2026-04-25T17:07:19.199Z</time></trkpt><trkpt lat="45.2115685" lon="7.7247037"><ele>266.0</ele><time>2026-04-25T17:07:20.193Z</time></trkpt><trkpt lat="45.2114594" lon="7.7243483"><ele>267.5</ele><time>2026-04-25T17:07:21.193Z</time></trkpt><trkpt lat="45.2113541" lon="7.724004"><ele>269.0</ele><time>2026-04-25T17:07:22.184Z</time></trkpt><trkpt lat="45.2112679" lon="7.7236777"><ele>269.0</ele><time>2026-04-25T17:07:23.191Z</time></trkpt><trkpt lat="45.2111778" lon="7.7233957"><ele>269.0</ele><time>2026-04-25T17:07:24.188Z</time></trkpt><trkpt lat="45.2110827" lon="7.7230892"><ele>269.0</ele><time>2026-04-25T17:07:25.184Z</time></trkpt><trkpt lat="45.2109824" lon="7.7227968"><ele>269.0</ele><time>2026-04-25T17:07:26.185Z</time></trkpt><trkpt lat="45.2108865" lon="7.7225027"><ele>269.0</ele><time>2026-04-25T17:07:27.183Z</time></trkpt><trkpt lat="45.2108026" lon="7.7222105"><ele>269.0</ele><time>2026-04-25T17:07:28.182Z</time></trkpt><trkpt lat="45.2107073" lon="7.7219174"><ele>270.5</ele><time>2026-04-25T17:07:29.19Z</time></trkpt><trkpt lat="45.210619" lon="7.7216053"><ele>272.0</ele><time>2026-04-25T17:07:30.188Z</time></trkpt><trkpt lat="45.2105132" lon="7.7213069"><ele>271.5</ele><time>2026-04-25T17:07:31.179Z</time></trkpt><trkpt lat="45.2104147" lon="7.7209796"><ele>271.0</ele><time>2026-04-25T17:07:32.174Z</time></trkpt><trkpt lat="45.2103152" lon="7.7206538"><ele>271.0</ele><time>2026-04-25T17:07:33.179Z</time></trkpt><trkpt lat="45.2102088" lon="7.7203769"><ele>271.0</ele><time>2026-04-25T17:07:34.17Z</time></trkpt><trkpt lat="45.210109" lon="7.7200582"><ele>270.5</ele><time>2026-04-25T17:07:35.176Z</time></trkpt><trkpt lat="45.209999" lon="7.7197727"><ele>270.0</ele><time>2026-04-25T17:07:36.178Z</time></trkpt><trkpt lat="45.2098997" lon="7.7194797"><ele>267.3333333333333</ele><time>2026-04-25T17:07:37.17Z</time></trkpt><trkpt lat="45.2098143" lon="7.7191885"><ele>264.66666666666663</ele><time>2026-04-25T17:07:38.178Z</time></trkpt><trkpt lat="45.2097238" lon="7.7189051"><ele>262.0</ele><time>2026-04-25T17:07:39.179Z</time></trkpt><trkpt lat="45.2096548" lon="7.7186133"><ele>261.3333333333333</ele><time>2026-04-25T17:07:40.175Z</time></trkpt><trkpt lat="45.2095634" lon="7.718334"><ele>260.6666666666667</ele><time>2026-04-25T17:07:41.176Z</time></trkpt><trkpt lat="45.2094778" lon="7.7180645"><ele>260.0</ele><time>2026-04-25T17:07:42.181Z</time></trkpt><trkpt lat="45.2093877" lon="7.7177844"><ele>260.0</ele><time>2026-04-25T17:07:43.184Z</time></trkpt><trkpt lat="45.2092939" lon="7.7174892"><ele>260.0</ele><time>2026-04-25T17:07:44.21Z</time></trkpt><trkpt lat="45.2092069" lon="7.7172008"><ele>260.0</ele><time>2026-04-25T17:07:45.194Z</time></trkpt><trkpt lat="45.2090929" lon="7.7169394"><ele>260.33333333333337</ele><time>2026-04-25T17:07:46.197Z</time></trkpt><trkpt lat="45.2089935" lon="7.7167024"><ele>260.6666666666667</ele><time>2026-04-25T17:07:47.196Z</time></trkpt><trkpt lat="45.2089209" lon="7.7164415"><ele>261.0</ele><time>2026-04-25T17:07:48.202Z</time></trkpt><trkpt lat="45.2088402" lon="7.7161748"><ele>260.3333333333333</ele><time>2026-04-25T17:07:49.201Z</time></trkpt><trkpt lat="45.2087544" lon="7.7159092"><ele>259.66666666666663</ele><time>2026-04-25T17:07:50.201Z</time></trkpt><trkpt lat="45.2086744" lon="7.7156389"><ele>259.0</ele><time>2026-04-25T17:07:51.196Z</time></trkpt><trkpt lat="45.2085908" lon="7.7153747"><ele>258.66666666666663</ele><time>2026-04-25T17:07:52.196Z</time></trkpt><trkpt lat="45.2085039" lon="7.7151102"><ele>258.3333333333333</ele><time>2026-04-25T17:07:53.202Z</time></trkpt><trkpt lat="45.208385" lon="7.7148627"><ele>258.0</ele><time>2026-04-25T17:07:54.194Z</time></trkpt><trkpt lat="45.2082846" lon="7.7145894"><ele>257.6666666666667</ele><time>2026-04-25T17:07:55.202Z</time></trkpt><trkpt lat="45.2081878" lon="7.7143203"><ele>257.33333333333337</ele><time>2026-04-25T17:07:56.2Z</time></trkpt><trkpt lat="45.2080831" lon="7.7140755"><ele>257.0</ele><time>2026-04-25T17:07:57.198Z</time></trkpt><trkpt lat="45.2079653" lon="7.7138293"><ele>257.0</ele><time>2026-04-25T17:07:58.2Z</time></trkpt><trkpt lat="45.2078414" lon="7.7135918"><ele>257.0</ele><time>2026-04-25T17:07:59.196Z</time></trkpt><trkpt lat="45.2077133" lon="7.7133244"><ele>257.0</ele><time>2026-04-25T17:08:00.196Z</time></trkpt><trkpt lat="45.2075763" lon="7.7131"><ele>258.0</ele><time>2026-04-25T17:08:01.2Z</time></trkpt><trkpt lat="45.2074443" lon="7.712843"><ele>259.0</ele><time>2026-04-25T17:08:02.198Z</time></trkpt><trkpt lat="45.2073084" lon="7.7125837"><ele>259.3333333333333</ele><time>2026-04-25T17:08:03.198Z</time></trkpt><trkpt lat="45.2071602" lon="7.7123537"><ele>259.6666666666667</ele><time>2026-04-25T17:08:04.2Z</time></trkpt><trkpt lat="45.2070182" lon="7.7121362"><ele>260.0</ele><time>2026-04-25T17:08:05.197Z</time></trkpt><trkpt lat="45.2068652" lon="7.7119201"><ele>260.33333333333337</ele><time>2026-04-25T17:08:06.199Z</time></trkpt><trkpt lat="45.2067215" lon="7.7117136"><ele>260.6666666666667</ele><time>2026-04-25T17:08:07.196Z</time></trkpt><trkpt lat="45.2065675" lon="7.7114737"><ele>261.0</ele><time>2026-04-25T17:08:08.202Z</time></trkpt><trkpt lat="45.2063916" lon="7.7112796"><ele>260.6666666666667</ele><time>2026-04-25T17:08:09.201Z</time></trkpt><trkpt lat="45.2062172" lon="7.7110862"><ele>260.33333333333337</ele><time>2026-04-25T17:08:10.193Z</time></trkpt><trkpt lat="45.2060566" lon="7.7108919"><ele>260.0</ele><time>2026-04-25T17:08:11.198Z</time></trkpt><trkpt lat="45.2059" lon="7.7107024"><ele>260.0</ele><time>2026-04-25T17:08:12.199Z</time></trkpt><trkpt lat="45.2057304" lon="7.7105278"><ele>260.0</ele><time>2026-04-25T17:08:13.202Z</time></trkpt><trkpt lat="45.2055592" lon="7.7103626"><ele>260.0</ele><time>2026-04-25T17:08:14.208Z</time></trkpt><trkpt lat="45.2053676" lon="7.7101999"><ele>260.0</ele><time>2026-04-25T17:08:15.192Z</time></trkpt><trkpt lat="45.2051942" lon="7.7100279"><ele>260.0</ele><time>2026-04-25T17:08:16.197Z</time></trkpt><trkpt lat="45.205015" lon="7.7098968"><ele>260.0</ele><time>2026-04-25T17:08:17.199Z</time></trkpt><trkpt lat="45.2048293" lon="7.7097435"><ele>260.0</ele><time>2026-04-25T17:08:18.199Z</time></trkpt><trkpt lat="45.2046549" lon="7.7095669"><ele>260.0</ele><time>2026-04-25T17:08:19.194Z</time></trkpt><trkpt lat="45.204473" lon="7.7093873"><ele>260.0</ele><time>2026-04-25T17:08:20.198Z</time></trkpt><trkpt lat="45.204293" lon="7.7092506"><ele>260.0</ele><time>2026-04-25T17:08:21.201Z</time></trkpt><trkpt lat="45.2041096" lon="7.7090835"><ele>260.0</ele><time>2026-04-25T17:08:22.189Z</time></trkpt><trkpt lat="45.2039258" lon="7.7089214"><ele>260.0</ele><time>2026-04-25T17:08:23.201Z</time></trkpt><trkpt lat="45.2037375" lon="7.7087417"><ele>259.5</ele><time>2026-04-25T17:08:24.191Z</time></trkpt><trkpt lat="45.2035446" lon="7.7085928"><ele>259.0</ele><time>2026-04-25T17:08:25.198Z</time></trkpt><trkpt lat="45.2033412" lon="7.7084354"><ele>258.5</ele><time>2026-04-25T17:08:26.201Z</time></trkpt><trkpt lat="45.2031444" lon="7.7082633"><ele>258.0</ele><time>2026-04-25T17:08:27.196Z</time></trkpt><trkpt lat="45.2029477" lon="7.7080958"><ele>258.0</ele><time>2026-04-25T17:08:28.197Z</time></trkpt><trkpt lat="45.20275" lon="7.7079218"><ele>258.0</ele><time>2026-04-25T17:08:29.197Z</time></trkpt><trkpt lat="45.2025382" lon="7.7077621"><ele>258.0</ele><time>2026-04-25T17:08:30.194Z</time></trkpt><trkpt lat="45.2023456" lon="7.7075853"><ele>258.0</ele><time>2026-04-25T17:08:31.199Z</time></trkpt><trkpt lat="45.2021527" lon="7.7074115"><ele>258.0</ele><time>2026-04-25T17:08:32.197Z</time></trkpt><trkpt lat="45.2019642" lon="7.7072315"><ele>258.0</ele><time>2026-04-25T17:08:33.196Z</time></trkpt><trkpt lat="45.2017745" lon="7.7070619"><ele>259.0</ele><time>2026-04-25T17:08:34.203Z</time></trkpt><trkpt lat="45.2015713" lon="7.7069035"><ele>260.0</ele><time>2026-04-25T17:08:35.198Z</time></trkpt><trkpt lat="45.2013715" lon="7.7067399"><ele>260.5</ele><time>2026-04-25T17:08:36.196Z</time></trkpt><trkpt lat="45.2011767" lon="7.706575"><ele>261.0</ele><time>2026-04-25T17:08:37.197Z</time></trkpt><trkpt lat="45.2009741" lon="7.706417"><ele>261.0</ele><time>2026-04-25T17:08:38.203Z</time></trkpt><trkpt lat="45.200773" lon="7.7062554"><ele>261.0</ele><time>2026-04-25T17:08:39.196Z</time></trkpt><trkpt lat="45.2005834" lon="7.7060926"><ele>259.5</ele><time>2026-04-25T17:08:40.199Z</time></trkpt><trkpt lat="45.2003779" lon="7.7059287"><ele>258.0</ele><time>2026-04-25T17:08:41.202Z</time></trkpt><trkpt lat="45.200178" lon="7.7057656"><ele>258.0</ele><time>2026-04-25T17:08:42.197Z</time></trkpt><trkpt lat="45.1999805" lon="7.7055651"><ele>258.0</ele><time>2026-04-25T17:08:43.198Z</time></trkpt><trkpt lat="45.1995674" lon="7.7052177"><ele>258.5</ele><time>2026-04-25T17:08:45.208Z</time></trkpt><trkpt lat="45.1993598" lon="7.7050468"><ele>259.0</ele><time>2026-04-25T17:08:46.197Z</time></trkpt><trkpt lat="45.1991574" lon="7.7048472"><ele>258.5</ele><time>2026-04-25T17:08:47.198Z</time></trkpt><trkpt lat="45.1989476" lon="7.7046643"><ele>258.0</ele><time>2026-04-25T17:08:48.194Z</time></trkpt><trkpt lat="45.1987229" lon="7.7044818"><ele>258.5</ele><time>2026-04-25T17:08:49.196Z</time></trkpt><trkpt lat="45.1985243" lon="7.7042638"><ele>259.0</ele><time>2026-04-25T17:08:50.189Z</time></trkpt><trkpt lat="45.1983321" lon="7.7040508"><ele>259.5</ele><time>2026-04-25T17:08:51.198Z</time></trkpt><trkpt lat="45.1981463" lon="7.7038151"><ele>260.0</ele><time>2026-04-25T17:08:52.192Z</time></trkpt><trkpt lat="45.1979608" lon="7.7035835"><ele>260.5</ele><time>2026-04-25T17:08:53.203Z</time></trkpt><trkpt lat="45.1977765" lon="7.7033328"><ele>261.0</ele><time>2026-04-25T17:08:54.198Z</time></trkpt><trkpt lat="45.1975943" lon="7.7030976"><ele>261.0</ele><time>2026-04-25T17:08:55.199Z</time></trkpt><trkpt lat="45.1974241" lon="7.7028328"><ele>261.0</ele><time>2026-04-25T17:08:56.198Z</time></trkpt><trkpt lat="45.197246" lon="7.7025742"><ele>260.5</ele><time>2026-04-25T17:08:57.198Z</time></trkpt><trkpt lat="45.1970801" lon="7.7023163"><ele>260.0</ele><time>2026-04-25T17:08:58.199Z</time></trkpt><trkpt lat="45.1969167" lon="7.7020545"><ele>261.0</ele><time>2026-04-25T17:08:59.199Z</time></trkpt><trkpt lat="45.1967521" lon="7.7017907"><ele>262.0</ele><time>2026-04-25T17:09:00.19Z</time></trkpt><trkpt lat="45.196581" lon="7.7015438"><ele>261.5</ele><time>2026-04-25T17:09:01.198Z</time></trkpt><trkpt lat="45.1964207" lon="7.7012932"><ele>261.0</ele><time>2026-04-25T17:09:02.198Z</time></trkpt><trkpt lat="45.1962593" lon="7.7010494"><ele>261.0</ele><time>2026-04-25T17:09:03.197Z</time></trkpt><trkpt lat="45.1960825" lon="7.7008083"><ele>261.0</ele><time>2026-04-25T17:09:04.194Z</time></trkpt><trkpt lat="45.1959058" lon="7.7005641"><ele>261.0</ele><time>2026-04-25T17:09:05.198Z</time></trkpt><trkpt lat="45.1957273" lon="7.7003282"><ele>261.0</ele><time>2026-04-25T17:09:06.197Z</time></trkpt><trkpt lat="45.1955592" lon="7.7000915"><ele>261.5</ele><time>2026-04-25T17:09:07.196Z</time></trkpt><trkpt lat="45.1953877" lon="7.6998492"><ele>262.0</ele><time>2026-04-25T17:09:08.2Z</time></trkpt><trkpt lat="45.1952034" lon="7.6996162"><ele>262.0</ele><time>2026-04-25T17:09:09.19Z</time></trkpt><trkpt lat="45.1949892" lon="7.6994242"><ele>262.0</ele><time>2026-04-25T17:09:10.189Z</time></trkpt><trkpt lat="45.194793" lon="7.6992358"><ele>261.0</ele><time>2026-04-25T17:09:11.198Z</time></trkpt><trkpt lat="45.1945853" lon="7.6990275"><ele>260.0</ele><time>2026-04-25T17:09:12.195Z</time></trkpt><trkpt lat="45.1943756" lon="7.6988369"><ele>260.0</ele><time>2026-04-25T17:09:13.189Z</time></trkpt><trkpt lat="45.194158" lon="7.6986479"><ele>260.0</ele><time>2026-04-25T17:09:14.197Z</time></trkpt><trkpt lat="45.193928" lon="7.6984704"><ele>260.0</ele><time>2026-04-25T17:09:15.193Z</time></trkpt><trkpt lat="45.1937089" lon="7.6983091"><ele>260.0</ele><time>2026-04-25T17:09:16.207Z</time></trkpt><trkpt lat="45.1934842" lon="7.6981326"><ele>260.0</ele><time>2026-04-25T17:09:17.199Z</time></trkpt><trkpt lat="45.1932508" lon="7.6979846"><ele>260.0</ele><time>2026-04-25T17:09:18.197Z</time></trkpt><trkpt lat="45.1930087" lon="7.6978538"><ele>260.0</ele><time>2026-04-25T17:09:19.195Z</time></trkpt><trkpt lat="45.1927842" lon="7.6977188"><ele>260.0</ele><time>2026-04-25T17:09:20.192Z</time></trkpt><trkpt lat="45.1925855" lon="7.6975974"><ele>260.0</ele><time>2026-04-25T17:09:21.194Z</time></trkpt><trkpt lat="45.1923829" lon="7.6975011"><ele>260.0</ele><time>2026-04-25T17:09:22.204Z</time></trkpt><trkpt lat="45.1921851" lon="7.6973943"><ele>260.0</ele><time>2026-04-25T17:09:23.205Z</time></trkpt><trkpt lat="45.1919802" lon="7.6972797"><ele>260.5</ele><time>2026-04-25T17:09:24.195Z</time></trkpt><trkpt lat="45.1917501" lon="7.6971845"><ele>261.0</ele><time>2026-04-25T17:09:25.195Z</time></trkpt><trkpt lat="45.1915205" lon="7.6970728"><ele>261.0</ele><time>2026-04-25T17:09:26.191Z</time></trkpt><trkpt lat="45.1912884" lon="7.6969881"><ele>261.0</ele><time>2026-04-25T17:09:27.196Z</time></trkpt><trkpt lat="45.1910587" lon="7.6968834"><ele>261.0</ele><time>2026-04-25T17:09:28.204Z</time></trkpt><trkpt lat="45.1908328" lon="7.6967782"><ele>261.0</ele><time>2026-04-25T17:09:29.203Z</time></trkpt><trkpt lat="45.1906188" lon="7.6966766"><ele>261.0</ele><time>2026-04-25T17:09:30.206Z</time></trkpt><trkpt lat="45.1903919" lon="7.6965625"><ele>261.0</ele><time>2026-04-25T17:09:31.196Z</time></trkpt><trkpt lat="45.1901797" lon="7.6964382"><ele>261.0</ele><time>2026-04-25T17:09:32.198Z</time></trkpt><trkpt lat="45.1899688" lon="7.6963039"><ele>261.0</ele><time>2026-04-25T17:09:33.194Z</time></trkpt><trkpt lat="45.1897612" lon="7.6961637"><ele>260.6666666666667</ele><time>2026-04-25T17:09:34.197Z</time></trkpt><trkpt lat="45.1895613" lon="7.6960159"><ele>260.33333333333337</ele><time>2026-04-25T17:09:35.197Z</time></trkpt><trkpt lat="45.1893635" lon="7.6958714"><ele>260.0</ele><time>2026-04-25T17:09:36.196Z</time></trkpt><trkpt lat="45.1891551" lon="7.6957072"><ele>259.0</ele><time>2026-04-25T17:09:37.192Z</time></trkpt><trkpt lat="45.1889412" lon="7.6955479"><ele>258.0</ele><time>2026-04-25T17:09:38.201Z</time></trkpt><trkpt lat="45.1887536" lon="7.695381"><ele>259.5</ele><time>2026-04-25T17:09:39.197Z</time></trkpt><trkpt lat="45.1885672" lon="7.6952131"><ele>261.0</ele><time>2026-04-25T17:09:40.2Z</time></trkpt><trkpt lat="45.1883646" lon="7.6950473"><ele>260.0</ele><time>2026-04-25T17:09:41.198Z</time></trkpt><trkpt lat="45.1881491" lon="7.6948654"><ele>259.0</ele><time>2026-04-25T17:09:42.195Z</time></trkpt><trkpt lat="45.187966" lon="7.6946909"><ele>259.0</ele><time>2026-04-25T17:09:43.197Z</time></trkpt><trkpt lat="45.1877762" lon="7.694522"><ele>259.0</ele><time>2026-04-25T17:09:44.197Z</time></trkpt><trkpt lat="45.1875748" lon="7.6943344"><ele>259.5</ele><time>2026-04-25T17:09:45.195Z</time></trkpt><trkpt lat="45.187384" lon="7.6941614"><ele>260.0</ele><time>2026-04-25T17:09:46.196Z</time></trkpt><trkpt lat="45.1871929" lon="7.6939747"><ele>260.0</ele><time>2026-04-25T17:09:47.21Z</time></trkpt><trkpt lat="45.1869984" lon="7.6937963"><ele>260.0</ele><time>2026-04-25T17:09:48.19Z</time></trkpt><trkpt lat="45.1867911" lon="7.6936045"><ele>260.0</ele><time>2026-04-25T17:09:49.198Z</time></trkpt><trkpt lat="45.1865792" lon="7.6934328"><ele>260.0</ele><time>2026-04-25T17:09:50.2Z</time></trkpt><trkpt lat="45.1863787" lon="7.6932393"><ele>260.0</ele><time>2026-04-25T17:09:51.198Z</time></trkpt><trkpt lat="45.1861762" lon="7.693055"><ele>260.0</ele><time>2026-04-25T17:09:52.2Z</time></trkpt><trkpt lat="45.1859667" lon="7.6928779"><ele>260.5</ele><time>2026-04-25T17:09:53.206Z</time></trkpt><trkpt lat="45.1857753" lon="7.6927022"><ele>261.0</ele><time>2026-04-25T17:09:54.197Z</time></trkpt><trkpt lat="45.1855791" lon="7.6925141"><ele>261.0</ele><time>2026-04-25T17:09:55.199Z</time></trkpt><trkpt lat="45.1853957" lon="7.6923494"><ele>261.0</ele><time>2026-04-25T17:09:56.198Z</time></trkpt><trkpt lat="45.1852237" lon="7.6921776"><ele>261.0</ele><time>2026-04-25T17:09:57.197Z</time></trkpt><trkpt lat="45.1850526" lon="7.6920181"><ele>260.6666666666667</ele><time>2026-04-25T17:09:58.197Z</time></trkpt><trkpt lat="45.1848705" lon="7.6918631"><ele>260.33333333333337</ele><time>2026-04-25T17:09:59.199Z</time></trkpt><trkpt lat="45.1846979" lon="7.6916858"><ele>260.0</ele><time>2026-04-25T17:10:00.198Z</time></trkpt><trkpt lat="45.1845136" lon="7.6915285"><ele>260.6666666666667</ele><time>2026-04-25T17:10:01.197Z</time></trkpt><trkpt lat="45.1843256" lon="7.691373"><ele>261.3333333333333</ele><time>2026-04-25T17:10:02.191Z</time></trkpt><trkpt lat="45.1841422" lon="7.6911931"><ele>262.0</ele><time>2026-04-25T17:10:03.197Z</time></trkpt><trkpt lat="45.1839662" lon="7.6910402"><ele>262.0</ele><time>2026-04-25T17:10:04.197Z</time></trkpt><trkpt lat="45.1837885" lon="7.6908609"><ele>262.0</ele><time>2026-04-25T17:10:05.197Z</time></trkpt><trkpt lat="45.1836037" lon="7.6907088"><ele>262.0</ele><time>2026-04-25T17:10:06.197Z</time></trkpt><trkpt lat="45.1834206" lon="7.6905402"><ele>262.0</ele><time>2026-04-25T17:10:07.198Z</time></trkpt><trkpt lat="45.1832212" lon="7.6903587"><ele>262.0</ele><time>2026-04-25T17:10:08.2Z</time></trkpt><trkpt lat="45.1830342" lon="7.6901835"><ele>261.5</ele><time>2026-04-25T17:10:09.197Z</time></trkpt><trkpt lat="45.1828421" lon="7.6900222"><ele>261.0</ele><time>2026-04-25T17:10:10.195Z</time></trkpt><trkpt lat="45.1826461" lon="7.6898446"><ele>261.0</ele><time>2026-04-25T17:10:11.2Z</time></trkpt><trkpt lat="45.1824543" lon="7.689665"><ele>261.0</ele><time>2026-04-25T17:10:12.201Z</time></trkpt><trkpt lat="45.1822585" lon="7.6894768"><ele>260.5</ele><time>2026-04-25T17:10:13.199Z</time></trkpt><trkpt lat="45.1820644" lon="7.6892912"><ele>260.0</ele><time>2026-04-25T17:10:14.201Z</time></trkpt><trkpt lat="45.1818598" lon="7.6891084"><ele>260.0</ele><time>2026-04-25T17:10:15.2Z</time></trkpt><trkpt lat="45.1816588" lon="7.6889106"><ele>260.0</ele><time>2026-04-25T17:10:16.199Z</time></trkpt><trkpt lat="45.1814732" lon="7.688719"><ele>260.0</ele><time>2026-04-25T17:10:17.201Z</time></trkpt><trkpt lat="45.1812864" lon="7.6885433"><ele>260.0</ele><time>2026-04-25T17:10:18.211Z</time></trkpt><trkpt lat="45.1811137" lon="7.6883874"><ele>260.0</ele><time>2026-04-25T17:10:19.197Z</time></trkpt><trkpt lat="45.1809238" lon="7.6882152"><ele>260.0</ele><time>2026-04-25T17:10:20.2Z</time></trkpt><trkpt lat="45.180739" lon="7.6880456"><ele>260.0</ele><time>2026-04-25T17:10:21.199Z</time></trkpt><trkpt lat="45.1805586" lon="7.6878867"><ele>260.0</ele><time>2026-04-25T17:10:22.199Z</time></trkpt><trkpt lat="45.1803729" lon="7.6877056"><ele>259.6666666666667</ele><time>2026-04-25T17:10:23.203Z</time></trkpt><trkpt lat="45.1801837" lon="7.6875353"><ele>259.3333333333333</ele><time>2026-04-25T17:10:24.197Z</time></trkpt><trkpt lat="45.1800024" lon="7.6873717"><ele>259.0</ele><time>2026-04-25T17:10:25.198Z</time></trkpt><trkpt lat="45.1798182" lon="7.6872147"><ele>258.66666666666663</ele><time>2026-04-25T17:10:26.199Z</time></trkpt><trkpt lat="45.1796343" lon="7.6870444"><ele>258.3333333333333</ele><time>2026-04-25T17:10:27.197Z</time></trkpt><trkpt lat="45.1794451" lon="7.6868751"><ele>258.0</ele><time>2026-04-25T17:10:28.199Z</time></trkpt><trkpt lat="45.1792671" lon="7.6867093"><ele>258.3333333333333</ele><time>2026-04-25T17:10:29.199Z</time></trkpt><trkpt lat="45.1790859" lon="7.6865384"><ele>258.66666666666663</ele><time>2026-04-25T17:10:30.198Z</time></trkpt><trkpt lat="45.17891" lon="7.6863708"><ele>259.0</ele><time>2026-04-25T17:10:31.199Z</time></trkpt><trkpt lat="45.1787444" lon="7.6862076"><ele>259.0</ele><time>2026-04-25T17:10:32.196Z</time></trkpt><trkpt lat="45.1785637" lon="7.6860493"><ele>259.0</ele><time>2026-04-25T17:10:33.197Z</time></trkpt><trkpt lat="45.1783825" lon="7.6858918"><ele>259.0</ele><time>2026-04-25T17:10:34.194Z</time></trkpt><trkpt lat="45.1782106" lon="7.6857488"><ele>259.3333333333333</ele><time>2026-04-25T17:10:35.199Z</time></trkpt><trkpt lat="45.178053" lon="7.6855935"><ele>259.6666666666667</ele><time>2026-04-25T17:10:36.2Z</time></trkpt><trkpt lat="45.177884" lon="7.6854345"><ele>260.0</ele><time>2026-04-25T17:10:37.2Z</time></trkpt><trkpt lat="45.1777122" lon="7.6852744"><ele>260.0</ele><time>2026-04-25T17:10:38.199Z</time></trkpt><trkpt lat="45.1775295" lon="7.6851128"><ele>260.0</ele><time>2026-04-25T17:10:39.199Z</time></trkpt><trkpt lat="45.177368" lon="7.6849503"><ele>260.0</ele><time>2026-04-25T17:10:40.199Z</time></trkpt><trkpt lat="45.1771991" lon="7.6847934"><ele>260.0</ele><time>2026-04-25T17:10:41.196Z</time></trkpt><trkpt lat="45.1770414" lon="7.6846528"><ele>260.0</ele><time>2026-04-25T17:10:42.199Z</time></trkpt><trkpt lat="45.1768914" lon="7.6844997"><ele>260.0</ele><time>2026-04-25T17:10:43.195Z</time></trkpt><trkpt lat="45.1767388" lon="7.684364"><ele>260.0</ele><time>2026-04-25T17:10:44.202Z</time></trkpt><trkpt lat="45.1765898" lon="7.6842235"><ele>260.0</ele><time>2026-04-25T17:10:45.197Z</time></trkpt><trkpt lat="45.176445" lon="7.6840952"><ele>260.0</ele><time>2026-04-25T17:10:46.198Z</time></trkpt><trkpt lat="45.1762996" lon="7.6839536"><ele>259.33333333333337</ele><time>2026-04-25T17:10:47.198Z</time></trkpt><trkpt lat="45.1761545" lon="7.6838214"><ele>258.6666666666667</ele><time>2026-04-25T17:10:48.198Z</time></trkpt><trkpt lat="45.1760187" lon="7.6836994"><ele>258.0</ele><time>2026-04-25T17:10:49.211Z</time></trkpt><trkpt lat="45.1758763" lon="7.6835587"><ele>257.6666666666667</ele><time>2026-04-25T17:10:50.195Z</time></trkpt><trkpt lat="45.1757246" lon="7.6834194"><ele>257.33333333333337</ele><time>2026-04-25T17:10:51.199Z</time></trkpt><trkpt lat="45.1755746" lon="7.683296"><ele>257.0</ele><time>2026-04-25T17:10:52.198Z</time></trkpt><trkpt lat="45.1754262" lon="7.6831568"><ele>257.0</ele><time>2026-04-25T17:10:53.205Z</time></trkpt><trkpt lat="45.175286" lon="7.6830345"><ele>257.0</ele><time>2026-04-25T17:10:54.197Z</time></trkpt><trkpt lat="45.1751411" lon="7.682913"><ele>257.0</ele><time>2026-04-25T17:10:55.197Z</time></trkpt><trkpt lat="45.1749998" lon="7.6827871"><ele>257.33333333333337</ele><time>2026-04-25T17:10:56.202Z</time></trkpt><trkpt lat="45.1748617" lon="7.682645"><ele>257.6666666666667</ele><time>2026-04-25T17:10:57.195Z</time></trkpt><trkpt lat="45.1747283" lon="7.6825197"><ele>258.0</ele><time>2026-04-25T17:10:58.196Z</time></trkpt><trkpt lat="45.1745901" lon="7.6823938"><ele>258.3333333333333</ele><time>2026-04-25T17:10:59.2Z</time></trkpt><trkpt lat="45.1744524" lon="7.6822646"><ele>258.66666666666663</ele><time>2026-04-25T17:11:00.196Z</time></trkpt><trkpt lat="45.1743186" lon="7.6821444"><ele>259.0</ele><time>2026-04-25T17:11:01.197Z</time></trkpt><trkpt lat="45.1741842" lon="7.6820176"><ele>258.66666666666663</ele><time>2026-04-25T17:11:02.199Z</time></trkpt><trkpt lat="45.1740433" lon="7.6818946"><ele>258.3333333333333</ele><time>2026-04-25T17:11:03.198Z</time></trkpt><trkpt lat="45.1739072" lon="7.681778"><ele>258.0</ele><time>2026-04-25T17:11:04.193Z</time></trkpt><trkpt lat="45.1737716" lon="7.6816656"><ele>258.0</ele><time>2026-04-25T17:11:05.197Z</time></trkpt><trkpt lat="45.1736355" lon="7.6815413"><ele>258.0</ele><time>2026-04-25T17:11:06.191Z</time></trkpt><trkpt lat="45.1735075" lon="7.6814189"><ele>258.0</ele><time>2026-04-25T17:11:07.199Z</time></trkpt><trkpt lat="45.1733985" lon="7.6813103"><ele>258.0</ele><time>2026-04-25T17:11:08.205Z</time></trkpt><trkpt lat="45.1732739" lon="7.6812101"><ele>259.0</ele><time>2026-04-25T17:11:09.205Z</time></trkpt><trkpt lat="45.1731405" lon="7.6810943"><ele>260.0</ele><time>2026-04-25T17:11:10.195Z</time></trkpt><trkpt lat="45.1730177" lon="7.6809766"><ele>261.0</ele><time>2026-04-25T17:11:11.197Z</time></trkpt><trkpt lat="45.1728933" lon="7.6808508"><ele>261.0</ele><time>2026-04-25T17:11:12.197Z</time></trkpt><trkpt lat="45.1727692" lon="7.6807479"><ele>261.0</ele><time>2026-04-25T17:11:13.192Z</time></trkpt><trkpt lat="45.1726423" lon="7.6806579"><ele>261.0</ele><time>2026-04-25T17:11:14.198Z</time></trkpt><trkpt lat="45.1725065" lon="7.6805425"><ele>261.0</ele><time>2026-04-25T17:11:15.196Z</time></trkpt><trkpt lat="45.172353" lon="7.6804427"><ele>260.6666666666667</ele><time>2026-04-25T17:11:16.196Z</time></trkpt><trkpt lat="45.1721963" lon="7.6803461"><ele>260.33333333333337</ele><time>2026-04-25T17:11:17.201Z</time></trkpt><trkpt lat="45.1720337" lon="7.6802442"><ele>260.0</ele><time>2026-04-25T17:11:18.195Z</time></trkpt><trkpt lat="45.171864" lon="7.6801618"><ele>260.0</ele><time>2026-04-25T17:11:19.194Z</time></trkpt><trkpt lat="45.1716934" lon="7.6800903"><ele>260.0</ele><time>2026-04-25T17:11:20.207Z</time></trkpt><trkpt lat="45.1715039" lon="7.6799866"><ele>260.0</ele><time>2026-04-25T17:11:21.196Z</time></trkpt><trkpt lat="45.1713293" lon="7.6798972"><ele>260.6666666666667</ele><time>2026-04-25T17:11:22.199Z</time></trkpt><trkpt lat="45.1711502" lon="7.6797939"><ele>261.3333333333333</ele><time>2026-04-25T17:11:23.198Z</time></trkpt><trkpt lat="45.1709705" lon="7.6797179"><ele>262.0</ele><time>2026-04-25T17:11:24.191Z</time></trkpt><trkpt lat="45.1707898" lon="7.6796462"><ele>261.3333333333333</ele><time>2026-04-25T17:11:25.197Z</time></trkpt><trkpt lat="45.1706006" lon="7.6795317"><ele>260.6666666666667</ele><time>2026-04-25T17:11:26.201Z</time></trkpt><trkpt lat="45.1704237" lon="7.6794167"><ele>260.0</ele><time>2026-04-25T17:11:27.197Z</time></trkpt><trkpt lat="45.1702436" lon="7.6793222"><ele>260.0</ele><time>2026-04-25T17:11:28.195Z</time></trkpt><trkpt lat="45.1700717" lon="7.679243"><ele>260.0</ele><time>2026-04-25T17:11:29.198Z</time></trkpt><trkpt lat="45.1699172" lon="7.679147"><ele>260.0</ele><time>2026-04-25T17:11:30.201Z</time></trkpt><trkpt lat="45.1697722" lon="7.6790716"><ele>259.75</ele><time>2026-04-25T17:11:31.197Z</time></trkpt><trkpt lat="45.1696209" lon="7.6789963"><ele>259.5</ele><time>2026-04-25T17:11:32.198Z</time></trkpt><trkpt lat="45.1694808" lon="7.678949"><ele>259.25</ele><time>2026-04-25T17:11:33.198Z</time></trkpt><trkpt lat="45.1693482" lon="7.6788869"><ele>259.0</ele><time>2026-04-25T17:11:34.196Z</time></trkpt><trkpt lat="45.1692211" lon="7.6788296"><ele>259.0</ele><time>2026-04-25T17:11:35.203Z</time></trkpt><trkpt lat="45.1690997" lon="7.678806"><ele>259.0</ele><time>2026-04-25T17:11:36.191Z</time></trkpt><trkpt lat="45.1689746" lon="7.6787865"><ele>259.0</ele><time>2026-04-25T17:11:37.185Z</time></trkpt><trkpt lat="45.1688373" lon="7.6787938"><ele>259.0</ele><time>2026-04-25T17:11:38.188Z</time></trkpt><trkpt lat="45.1687047" lon="7.6788546"><ele>258.5</ele><time>2026-04-25T17:11:39.191Z</time></trkpt><trkpt lat="45.1685853" lon="7.6789151"><ele>258.0</ele><time>2026-04-25T17:11:40.177Z</time></trkpt><trkpt lat="45.1684725" lon="7.6790295"><ele>257.5</ele><time>2026-04-25T17:11:41.185Z</time></trkpt><trkpt lat="45.1683619" lon="7.6791787"><ele>257.0</ele><time>2026-04-25T17:11:42.187Z</time></trkpt><trkpt lat="45.1682662" lon="7.6793436"><ele>256.75</ele><time>2026-04-25T17:11:43.187Z</time></trkpt><trkpt lat="45.1682003" lon="7.6795135"><ele>256.5</ele><time>2026-04-25T17:11:44.188Z</time></trkpt><trkpt lat="45.1681602" lon="7.6796783"><ele>256.25</ele><time>2026-04-25T17:11:45.19Z</time></trkpt><trkpt lat="45.1681149" lon="7.6798288"><ele>256.0</ele><time>2026-04-25T17:11:46.19Z</time></trkpt><trkpt lat="45.1680953" lon="7.6799961"><ele>256.0</ele><time>2026-04-25T17:11:47.195Z</time></trkpt><trkpt lat="45.1680889" lon="7.6801703"><ele>256.0</ele><time>2026-04-25T17:11:48.196Z</time></trkpt><trkpt lat="45.168083" lon="7.6803495"><ele>256.0</ele><time>2026-04-25T17:11:49.194Z</time></trkpt><trkpt lat="45.168074" lon="7.6805182"><ele>256.0</ele><time>2026-04-25T17:11:50.195Z</time></trkpt><trkpt lat="45.1680652" lon="7.6806664"><ele>255.5</ele><time>2026-04-25T17:11:51.201Z</time></trkpt><trkpt lat="45.1680511" lon="7.6808218"><ele>255.0</ele><time>2026-04-25T17:11:52.193Z</time></trkpt><trkpt lat="45.1680235" lon="7.6809724"><ele>254.5</ele><time>2026-04-25T17:11:53.19Z</time></trkpt><trkpt lat="45.1679889" lon="7.6811379"><ele>254.0</ele><time>2026-04-25T17:11:54.19Z</time></trkpt><trkpt lat="45.1679519" lon="7.6813095"><ele>254.0</ele><time>2026-04-25T17:11:55.184Z</time></trkpt><trkpt lat="45.1678845" lon="7.6814622"><ele>254.0</ele><time>2026-04-25T17:11:56.188Z</time></trkpt><trkpt lat="45.1678127" lon="7.6816071"><ele>254.0</ele><time>2026-04-25T17:11:57.191Z</time></trkpt><trkpt lat="45.1677361" lon="7.6817371"><ele>254.0</ele><time>2026-04-25T17:11:58.192Z</time></trkpt><trkpt lat="45.1676464" lon="7.6818724"><ele>253.66666666666669</ele><time>2026-04-25T17:11:59.189Z</time></trkpt><trkpt lat="45.1675402" lon="7.6820045"><ele>253.33333333333331</ele><time>2026-04-25T17:12:00.189Z</time></trkpt><trkpt lat="45.1673579" lon="7.6821449"><ele>253.0</ele><time>2026-04-25T17:12:01.186Z</time></trkpt><trkpt lat="45.1672005" lon="7.6822699"><ele>253.0</ele><time>2026-04-25T17:12:02.197Z</time></trkpt><trkpt lat="45.1670527" lon="7.6823878"><ele>253.0</ele><time>2026-04-25T17:12:03.194Z</time></trkpt><trkpt lat="45.1669057" lon="7.6825574"><ele>253.0</ele><time>2026-04-25T17:12:04.189Z</time></trkpt><trkpt lat="45.1667292" lon="7.682735"><ele>254.0</ele><time>2026-04-25T17:12:05.187Z</time></trkpt><trkpt lat="45.1665101" lon="7.6829297"><ele>255.0</ele><time>2026-04-25T17:12:06.198Z</time></trkpt><trkpt lat="45.1662702" lon="7.6831668"><ele>255.0</ele><time>2026-04-25T17:12:07.188Z</time></trkpt><trkpt lat="45.1660338" lon="7.6833604"><ele>255.0</ele><time>2026-04-25T17:12:08.189Z</time></trkpt><trkpt lat="45.1657855" lon="7.6835482"><ele>254.5</ele><time>2026-04-25T17:12:09.194Z</time></trkpt><trkpt lat="45.1655205" lon="7.6837282"><ele>254.0</ele><time>2026-04-25T17:12:10.192Z</time></trkpt><trkpt lat="45.1652746" lon="7.6838944"><ele>254.0</ele><time>2026-04-25T17:12:11.188Z</time></trkpt><trkpt lat="45.1650082" lon="7.6840696"><ele>254.0</ele><time>2026-04-25T17:12:12.194Z</time></trkpt><trkpt lat="45.164756" lon="7.6842493"><ele>253.0</ele><time>2026-04-25T17:12:13.196Z</time></trkpt><trkpt lat="45.164509" lon="7.6844001"><ele>252.0</ele><time>2026-04-25T17:12:14.197Z</time></trkpt><trkpt lat="45.1642612" lon="7.6845525"><ele>252.0</ele><time>2026-04-25T17:12:15.194Z</time></trkpt><trkpt lat="45.1640015" lon="7.6846963"><ele>252.0</ele><time>2026-04-25T17:12:16.193Z</time></trkpt><trkpt lat="45.1637477" lon="7.6848303"><ele>252.0</ele><time>2026-04-25T17:12:17.198Z</time></trkpt><trkpt lat="45.1634992" lon="7.684983"><ele>252.0</ele><time>2026-04-25T17:12:18.195Z</time></trkpt><trkpt lat="45.1632368" lon="7.6851164"><ele>251.0</ele><time>2026-04-25T17:12:19.2Z</time></trkpt><trkpt lat="45.1629682" lon="7.6852568"><ele>250.0</ele><time>2026-04-25T17:12:20.198Z</time></trkpt><trkpt lat="45.1626985" lon="7.6853751"><ele>250.0</ele><time>2026-04-25T17:12:21.201Z</time></trkpt><trkpt lat="45.1624338" lon="7.6854985"><ele>250.0</ele><time>2026-04-25T17:12:22.21Z</time></trkpt><trkpt lat="45.1621693" lon="7.685602"><ele>250.0</ele><time>2026-04-25T17:12:23.208Z</time></trkpt><trkpt lat="45.1619044" lon="7.6857055"><ele>250.0</ele><time>2026-04-25T17:12:24.198Z</time></trkpt><trkpt lat="45.1616311" lon="7.6857942"><ele>249.0</ele><time>2026-04-25T17:12:25.201Z</time></trkpt><trkpt lat="45.1613705" lon="7.685903"><ele>248.0</ele><time>2026-04-25T17:12:26.199Z</time></trkpt><trkpt lat="45.1611033" lon="7.685989"><ele>248.0</ele><time>2026-04-25T17:12:27.199Z</time></trkpt><trkpt lat="45.1608245" lon="7.6860562"><ele>248.0</ele><time>2026-04-25T17:12:28.198Z</time></trkpt><trkpt lat="45.1605535" lon="7.6861319"><ele>247.5</ele><time>2026-04-25T17:12:29.201Z</time></trkpt><trkpt lat="45.1602831" lon="7.6861947"><ele>247.0</ele><time>2026-04-25T17:12:30.195Z</time></trkpt><trkpt lat="45.1600255" lon="7.6862409"><ele>246.0</ele><time>2026-04-25T17:12:31.196Z</time></trkpt><trkpt lat="45.1597673" lon="7.686293"><ele>245.0</ele><time>2026-04-25T17:12:32.196Z</time></trkpt><trkpt lat="45.1594947" lon="7.6863457"><ele>245.0</ele><time>2026-04-25T17:12:33.198Z</time></trkpt><trkpt lat="45.1592142" lon="7.6863791"><ele>245.0</ele><time>2026-04-25T17:12:34.199Z</time></trkpt><trkpt lat="45.1589441" lon="7.6864234"><ele>246.0</ele><time>2026-04-25T17:12:35.199Z</time></trkpt><trkpt lat="45.1586575" lon="7.6864608"><ele>247.0</ele><time>2026-04-25T17:12:36.198Z</time></trkpt><trkpt lat="45.1583902" lon="7.6864948"><ele>247.5</ele><time>2026-04-25T17:12:37.191Z</time></trkpt><trkpt lat="45.1581484" lon="7.6865222"><ele>248.0</ele><time>2026-04-25T17:12:38.194Z</time></trkpt><trkpt lat="45.1579029" lon="7.6865496"><ele>248.0</ele><time>2026-04-25T17:12:39.201Z</time></trkpt><trkpt lat="45.1576567" lon="7.6865895"><ele>248.0</ele><time>2026-04-25T17:12:40.202Z</time></trkpt><trkpt lat="45.1574134" lon="7.6866177"><ele>247.0</ele><time>2026-04-25T17:12:41.199Z</time></trkpt><trkpt lat="45.1571507" lon="7.6866258"><ele>246.0</ele><time>2026-04-25T17:12:42.198Z</time></trkpt><trkpt lat="45.1568851" lon="7.6866702"><ele>246.0</ele><time>2026-04-25T17:12:43.201Z</time></trkpt><trkpt lat="45.1566164" lon="7.6867075"><ele>246.0</ele><time>2026-04-25T17:12:44.2Z</time></trkpt><trkpt lat="45.1563486" lon="7.6867295"><ele>245.5</ele><time>2026-04-25T17:12:45.201Z</time></trkpt><trkpt lat="45.1560619" lon="7.6867716"><ele>245.0</ele><time>2026-04-25T17:12:46.196Z</time></trkpt><trkpt lat="45.1557626" lon="7.6868133"><ele>244.5</ele><time>2026-04-25T17:12:47.198Z</time></trkpt><trkpt lat="45.1554801" lon="7.6868599"><ele>244.0</ele><time>2026-04-25T17:12:48.206Z</time></trkpt><trkpt lat="45.1551868" lon="7.6868841"><ele>244.0</ele><time>2026-04-25T17:12:49.205Z</time></trkpt><trkpt lat="45.1548956" lon="7.6869159"><ele>244.0</ele><time>2026-04-25T17:12:50.199Z</time></trkpt><trkpt lat="45.1546202" lon="7.6869726"><ele>243.0</ele><time>2026-04-25T17:12:51.202Z</time></trkpt><trkpt lat="45.1543535" lon="7.6870027"><ele>242.0</ele><time>2026-04-25T17:12:52.198Z</time></trkpt><trkpt lat="45.1540914" lon="7.6870367"><ele>242.0</ele><time>2026-04-25T17:12:53.214Z</time></trkpt><trkpt lat="45.1538205" lon="7.6870738"><ele>242.0</ele><time>2026-04-25T17:12:54.2Z</time></trkpt><trkpt lat="45.1535459" lon="7.6870971"><ele>242.0</ele><time>2026-04-25T17:12:55.203Z</time></trkpt><trkpt lat="45.1532576" lon="7.6871399"><ele>242.0</ele><time>2026-04-25T17:12:56.2Z</time></trkpt><trkpt lat="45.1529621" lon="7.6871764"><ele>243.0</ele><time>2026-04-25T17:12:57.2Z</time></trkpt><trkpt lat="45.1526531" lon="7.6872095"><ele>244.0</ele><time>2026-04-25T17:12:58.199Z</time></trkpt><trkpt lat="45.152355" lon="7.6872348"><ele>244.0</ele><time>2026-04-25T17:12:59.2Z</time></trkpt><trkpt lat="45.1520626" lon="7.6872863"><ele>244.0</ele><time>2026-04-25T17:13:00.198Z</time></trkpt><trkpt lat="45.1517588" lon="7.6873307"><ele>245.0</ele><time>2026-04-25T17:13:01.198Z</time></trkpt><trkpt lat="45.1514563" lon="7.687382"><ele>246.0</ele><time>2026-04-25T17:13:02.195Z</time></trkpt><trkpt lat="45.1511604" lon="7.6874196"><ele>246.0</ele><time>2026-04-25T17:13:03.196Z</time></trkpt><trkpt lat="45.1508732" lon="7.6874547"><ele>246.0</ele><time>2026-04-25T17:13:04.198Z</time></trkpt><trkpt lat="45.1505918" lon="7.6874931"><ele>244.5</ele><time>2026-04-25T17:13:05.193Z</time></trkpt><trkpt lat="45.1503048" lon="7.6875289"><ele>243.0</ele><time>2026-04-25T17:13:06.199Z</time></trkpt><trkpt lat="45.1500043" lon="7.6875598"><ele>243.0</ele><time>2026-04-25T17:13:07.199Z</time></trkpt><trkpt lat="45.1497031" lon="7.6875981"><ele>243.0</ele><time>2026-04-25T17:13:08.198Z</time></trkpt><trkpt lat="45.1494114" lon="7.6876464"><ele>243.0</ele><time>2026-04-25T17:13:09.198Z</time></trkpt><trkpt lat="45.1491295" lon="7.687679"><ele>243.0</ele><time>2026-04-25T17:13:10.199Z</time></trkpt><trkpt lat="45.1488455" lon="7.6877241"><ele>242.0</ele><time>2026-04-25T17:13:11.2Z</time></trkpt><trkpt lat="45.1485551" lon="7.6877677"><ele>241.0</ele><time>2026-04-25T17:13:12.199Z</time></trkpt><trkpt lat="45.1482639" lon="7.6878269"><ele>240.5</ele><time>2026-04-25T17:13:13.2Z</time></trkpt><trkpt lat="45.1479876" lon="7.6878917"><ele>240.0</ele><time>2026-04-25T17:13:14.201Z</time></trkpt><trkpt lat="45.1477262" lon="7.6879399"><ele>240.0</ele><time>2026-04-25T17:13:15.199Z</time></trkpt><trkpt lat="45.1474673" lon="7.6879977"><ele>240.0</ele><time>2026-04-25T17:13:16.199Z</time></trkpt><trkpt lat="45.1472062" lon="7.6880548"><ele>240.5</ele><time>2026-04-25T17:13:17.2Z</time></trkpt><trkpt lat="45.1469496" lon="7.6881246"><ele>241.0</ele><time>2026-04-25T17:13:18.199Z</time></trkpt><trkpt lat="45.1467034" lon="7.6882183"><ele>241.0</ele><time>2026-04-25T17:13:19.199Z</time></trkpt><trkpt lat="45.146464" lon="7.6882878"><ele>241.0</ele><time>2026-04-25T17:13:20.196Z</time></trkpt><trkpt lat="45.146229" lon="7.6883693"><ele>241.0</ele><time>2026-04-25T17:13:21.2Z</time></trkpt><trkpt lat="45.1459904" lon="7.6884462"><ele>241.0</ele><time>2026-04-25T17:13:22.198Z</time></trkpt><trkpt lat="45.1457534" lon="7.6885322"><ele>240.0</ele><time>2026-04-25T17:13:23.202Z</time></trkpt><trkpt lat="45.1455012" lon="7.6886264"><ele>239.0</ele><time>2026-04-25T17:13:24.21Z</time></trkpt><trkpt lat="45.1452775" lon="7.6887453"><ele>239.0</ele><time>2026-04-25T17:13:25.196Z</time></trkpt><trkpt lat="45.1450498" lon="7.6888593"><ele>239.0</ele><time>2026-04-25T17:13:26.2Z</time></trkpt><trkpt lat="45.1448163" lon="7.6889673"><ele>239.5</ele><time>2026-04-25T17:13:27.199Z</time></trkpt><trkpt lat="45.1445689" lon="7.6890971"><ele>240.0</ele><time>2026-04-25T17:13:28.197Z</time></trkpt><trkpt lat="45.1443366" lon="7.6892259"><ele>240.0</ele><time>2026-04-25T17:13:29.199Z</time></trkpt><trkpt lat="45.1440873" lon="7.6893491"><ele>240.0</ele><time>2026-04-25T17:13:30.198Z</time></trkpt><trkpt lat="45.1438432" lon="7.6894808"><ele>238.5</ele><time>2026-04-25T17:13:31.198Z</time></trkpt><trkpt lat="45.1436126" lon="7.6896273"><ele>237.0</ele><time>2026-04-25T17:13:32.192Z</time></trkpt><trkpt lat="45.1433798" lon="7.6897746"><ele>237.5</ele><time>2026-04-25T17:13:33.198Z</time></trkpt><trkpt lat="45.1431436" lon="7.6899105"><ele>238.0</ele><time>2026-04-25T17:13:34.199Z</time></trkpt><trkpt lat="45.1429181" lon="7.6900459"><ele>238.0</ele><time>2026-04-25T17:13:35.198Z</time></trkpt><trkpt lat="45.1427091" lon="7.6901693"><ele>238.0</ele><time>2026-04-25T17:13:36.2Z</time></trkpt><trkpt lat="45.14251" lon="7.6902893"><ele>238.0</ele><time>2026-04-25T17:13:37.199Z</time></trkpt><trkpt lat="45.1423237" lon="7.6904026"><ele>238.0</ele><time>2026-04-25T17:13:38.2Z</time></trkpt><trkpt lat="45.1421316" lon="7.6905139"><ele>238.0</ele><time>2026-04-25T17:13:39.202Z</time></trkpt><trkpt lat="45.1419315" lon="7.6906193"><ele>238.0</ele><time>2026-04-25T17:13:40.197Z</time></trkpt><trkpt lat="45.1417173" lon="7.6907313"><ele>237.5</ele><time>2026-04-25T17:13:41.196Z</time></trkpt><trkpt lat="45.1415021" lon="7.6908661"><ele>237.0</ele><time>2026-04-25T17:13:42.199Z</time></trkpt><trkpt lat="45.1412916" lon="7.6909922"><ele>236.5</ele><time>2026-04-25T17:13:43.196Z</time></trkpt><trkpt lat="45.141069" lon="7.6911157"><ele>236.0</ele><time>2026-04-25T17:13:44.203Z</time></trkpt><trkpt lat="45.1408385" lon="7.6912515"><ele>237.5</ele><time>2026-04-25T17:13:45.197Z</time></trkpt><trkpt lat="45.1406173" lon="7.6913715"><ele>239.0</ele><time>2026-04-25T17:13:46.201Z</time></trkpt><trkpt lat="45.1404022" lon="7.6914967"><ele>239.0</ele><time>2026-04-25T17:13:47.203Z</time></trkpt><trkpt lat="45.1401755" lon="7.6916213"><ele>239.0</ele><time>2026-04-25T17:13:48.197Z</time></trkpt><trkpt lat="45.1399601" lon="7.691728"><ele>237.5</ele><time>2026-04-25T17:13:49.203Z</time></trkpt><trkpt lat="45.139747" lon="7.6918562"><ele>236.0</ele><time>2026-04-25T17:13:50.198Z</time></trkpt><trkpt lat="45.1395324" lon="7.6919744"><ele>236.0</ele><time>2026-04-25T17:13:51.199Z</time></trkpt><trkpt lat="45.1392997" lon="7.6920989"><ele>236.0</ele><time>2026-04-25T17:13:52.197Z</time></trkpt><trkpt lat="45.1390771" lon="7.6922485"><ele>235.5</ele><time>2026-04-25T17:13:53.205Z</time></trkpt><trkpt lat="45.1388303" lon="7.6923782"><ele>235.0</ele><time>2026-04-25T17:13:54.197Z</time></trkpt><trkpt lat="45.1385728" lon="7.6924996"><ele>235.0</ele><time>2026-04-25T17:13:55.207Z</time></trkpt><trkpt lat="45.138323" lon="7.6926278"><ele>235.0</ele><time>2026-04-25T17:13:56.2Z</time></trkpt><trkpt lat="45.1380691" lon="7.6927495"><ele>234.5</ele><time>2026-04-25T17:13:57.196Z</time></trkpt><trkpt lat="45.1378077" lon="7.6928562"><ele>234.0</ele><time>2026-04-25T17:13:58.197Z</time></trkpt><trkpt lat="45.1375471" lon="7.6929661"><ele>234.0</ele><time>2026-04-25T17:13:59.2Z</time></trkpt><trkpt lat="45.1372683" lon="7.6930666"><ele>234.0</ele><time>2026-04-25T17:14:00.195Z</time></trkpt><trkpt lat="45.1369783" lon="7.6931746"><ele>234.0</ele><time>2026-04-25T17:14:01.196Z</time></trkpt><trkpt lat="45.1366651" lon="7.6932873"><ele>234.0</ele><time>2026-04-25T17:14:02.197Z</time></trkpt><trkpt lat="45.1363721" lon="7.6933799"><ele>233.5</ele><time>2026-04-25T17:14:03.197Z</time></trkpt><trkpt lat="45.1360717" lon="7.6934617"><ele>233.0</ele><time>2026-04-25T17:14:04.194Z</time></trkpt><trkpt lat="45.1357674" lon="7.6935333"><ele>233.0</ele><time>2026-04-25T17:14:05.184Z</time></trkpt><trkpt lat="45.1354621" lon="7.6935624"><ele>233.0</ele><time>2026-04-25T17:14:06.188Z</time></trkpt><trkpt lat="45.1351933" lon="7.6935869"><ele>233.0</ele><time>2026-04-25T17:14:07.188Z</time></trkpt><trkpt lat="45.1349149" lon="7.6935834"><ele>233.0</ele><time>2026-04-25T17:14:08.185Z</time></trkpt><trkpt lat="45.1346531" lon="7.6935918"><ele>233.0</ele><time>2026-04-25T17:14:09.186Z</time></trkpt><trkpt lat="45.1343824" lon="7.6936331"><ele>233.0</ele><time>2026-04-25T17:14:10.196Z</time></trkpt><trkpt lat="45.1341173" lon="7.6936732"><ele>232.5</ele><time>2026-04-25T17:14:11.199Z</time></trkpt><trkpt lat="45.1338444" lon="7.6937223"><ele>232.0</ele><time>2026-04-25T17:14:12.194Z</time></trkpt><trkpt lat="45.1335772" lon="7.6937774"><ele>232.0</ele><time>2026-04-25T17:14:13.195Z</time></trkpt><trkpt lat="45.1333037" lon="7.693821"><ele>232.0</ele><time>2026-04-25T17:14:14.195Z</time></trkpt><trkpt lat="45.1330429" lon="7.6938778"><ele>232.0</ele><time>2026-04-25T17:14:15.191Z</time></trkpt><trkpt lat="45.1328074" lon="7.6939418"><ele>232.0</ele><time>2026-04-25T17:14:16.196Z</time></trkpt><trkpt lat="45.1325928" lon="7.6940091"><ele>232.5</ele><time>2026-04-25T17:14:17.194Z</time></trkpt><trkpt lat="45.1323558" lon="7.6940571"><ele>233.0</ele><time>2026-04-25T17:14:18.198Z</time></trkpt><trkpt lat="45.1321124" lon="7.6941015"><ele>233.0</ele><time>2026-04-25T17:14:19.188Z</time></trkpt><trkpt lat="45.1318604" lon="7.6941568"><ele>233.0</ele><time>2026-04-25T17:14:20.195Z</time></trkpt><trkpt lat="45.1316245" lon="7.6942368"><ele>232.66666666666669</ele><time>2026-04-25T17:14:21.202Z</time></trkpt><trkpt lat="45.1313966" lon="7.6943029"><ele>232.33333333333331</ele><time>2026-04-25T17:14:22.195Z</time></trkpt><trkpt lat="45.1311836" lon="7.6943599"><ele>232.0</ele><time>2026-04-25T17:14:23.203Z</time></trkpt><trkpt lat="45.1309673" lon="7.6944108"><ele>232.0</ele><time>2026-04-25T17:14:24.196Z</time></trkpt><trkpt lat="45.1307555" lon="7.694456"><ele>232.0</ele><time>2026-04-25T17:14:25.189Z</time></trkpt><trkpt lat="45.1305568" lon="7.6945096"><ele>232.0</ele><time>2026-04-25T17:14:26.211Z</time></trkpt><trkpt lat="45.1303496" lon="7.6945499"><ele>231.66666666666666</ele><time>2026-04-25T17:14:27.205Z</time></trkpt><trkpt lat="45.1301525" lon="7.694594"><ele>231.33333333333331</ele><time>2026-04-25T17:14:28.207Z</time></trkpt><trkpt lat="45.1299812" lon="7.6946434"><ele>231.0</ele><time>2026-04-25T17:14:29.197Z</time></trkpt><trkpt lat="45.1298011" lon="7.6946999"><ele>231.0</ele><time>2026-04-25T17:14:30.197Z</time></trkpt><trkpt lat="45.1296121" lon="7.6947424"><ele>231.0</ele><time>2026-04-25T17:14:31.195Z</time></trkpt><trkpt lat="45.1294392" lon="7.6947735"><ele>231.0</ele><time>2026-04-25T17:14:32.197Z</time></trkpt><trkpt lat="45.1292785" lon="7.694817"><ele>231.0</ele><time>2026-04-25T17:14:33.196Z</time></trkpt><trkpt lat="45.129137" lon="7.6948702"><ele>231.0</ele><time>2026-04-25T17:14:34.195Z</time></trkpt><trkpt lat="45.1289982" lon="7.6949071"><ele>231.0</ele><time>2026-04-25T17:14:35.192Z</time></trkpt><trkpt lat="45.128854" lon="7.6949262"><ele>231.0</ele><time>2026-04-25T17:14:36.193Z</time></trkpt><trkpt lat="45.1287237" lon="7.6949442"><ele>231.5</ele><time>2026-04-25T17:14:37.19Z</time></trkpt><trkpt lat="45.1286041" lon="7.6949805"><ele>232.0</ele><time>2026-04-25T17:14:38.192Z</time></trkpt><trkpt lat="45.1284822" lon="7.695013"><ele>232.5</ele><time>2026-04-25T17:14:39.196Z</time></trkpt><trkpt lat="45.1283679" lon="7.6950602"><ele>233.0</ele><time>2026-04-25T17:14:40.189Z</time></trkpt><trkpt lat="45.1282434" lon="7.6950815"><ele>233.0</ele><time>2026-04-25T17:14:41.19Z</time></trkpt><trkpt lat="45.1281063" lon="7.6951115"><ele>233.0</ele><time>2026-04-25T17:14:42.193Z</time></trkpt><trkpt lat="45.1279731" lon="7.695123"><ele>233.0</ele><time>2026-04-25T17:14:43.194Z</time></trkpt><trkpt lat="45.1278434" lon="7.6951348"><ele>233.0</ele><time>2026-04-25T17:14:44.189Z</time></trkpt><trkpt lat="45.127712" lon="7.6951155"><ele>233.0</ele><time>2026-04-25T17:14:45.186Z</time></trkpt><trkpt lat="45.1275774" lon="7.6950567"><ele>233.0</ele><time>2026-04-25T17:14:46.184Z</time></trkpt><trkpt lat="45.127447" lon="7.694967"><ele>233.0</ele><time>2026-04-25T17:14:47.18Z</time></trkpt><trkpt lat="45.1273542" lon="7.6948167"><ele>233.0</ele><time>2026-04-25T17:14:48.184Z</time></trkpt><trkpt lat="45.1273067" lon="7.6946176"><ele>232.25</ele><time>2026-04-25T17:14:49.18Z</time></trkpt><trkpt lat="45.1272839" lon="7.6944325"><ele>231.5</ele><time>2026-04-25T17:14:50.178Z</time></trkpt><trkpt lat="45.1272248" lon="7.6942767"><ele>230.75</ele><time>2026-04-25T17:14:51.184Z</time></trkpt><trkpt lat="45.1271729" lon="7.6941041"><ele>230.0</ele><time>2026-04-25T17:14:52.187Z</time></trkpt><trkpt lat="45.1271149" lon="7.6939359"><ele>230.0</ele><time>2026-04-25T17:14:53.193Z</time></trkpt><trkpt lat="45.1270546" lon="7.6937866"><ele>230.0</ele><time>2026-04-25T17:14:54.183Z</time></trkpt><trkpt lat="45.1269545" lon="7.6936664"><ele>230.0</ele><time>2026-04-25T17:14:55.182Z</time></trkpt><trkpt lat="45.1268452" lon="7.6935463"><ele>230.0</ele><time>2026-04-25T17:14:56.176Z</time></trkpt><trkpt lat="45.1267361" lon="7.693514"><ele>230.0</ele><time>2026-04-25T17:14:57.184Z</time></trkpt><trkpt lat="45.1265901" lon="7.6935116"><ele>230.0</ele><time>2026-04-25T17:14:58.17Z</time></trkpt><trkpt lat="45.1264367" lon="7.6934674"><ele>230.0</ele><time>2026-04-25T17:14:59.17Z</time></trkpt><trkpt lat="45.1263032" lon="7.6935246"><ele>230.0</ele><time>2026-04-25T17:15:00.179Z</time></trkpt><trkpt lat="45.126198" lon="7.6936714"><ele>230.25</ele><time>2026-04-25T17:15:01.18Z</time></trkpt><trkpt lat="45.1260892" lon="7.6937633"><ele>230.5</ele><time>2026-04-25T17:15:02.179Z</time></trkpt><trkpt lat="45.1259875" lon="7.6938702"><ele>230.75</ele><time>2026-04-25T17:15:03.182Z</time></trkpt><trkpt lat="45.1259135" lon="7.6940319"><ele>231.0</ele><time>2026-04-25T17:15:04.186Z</time></trkpt><trkpt lat="45.1258539" lon="7.6942155"><ele>231.0</ele><time>2026-04-25T17:15:05.179Z</time></trkpt><trkpt lat="45.1258156" lon="7.6944221"><ele>231.0</ele><time>2026-04-25T17:15:06.19Z</time></trkpt><trkpt lat="45.1258047" lon="7.6946586"><ele>231.0</ele><time>2026-04-25T17:15:07.18Z</time></trkpt><trkpt lat="45.1258348" lon="7.6949033"><ele>231.0</ele><time>2026-04-25T17:15:08.189Z</time></trkpt><trkpt lat="45.1259024" lon="7.6951509"><ele>231.0</ele><time>2026-04-25T17:15:09.192Z</time></trkpt><trkpt lat="45.1259712" lon="7.6953583"><ele>231.0</ele><time>2026-04-25T17:15:10.182Z</time></trkpt><trkpt lat="45.1260005" lon="7.6955591"><ele>231.0</ele><time>2026-04-25T17:15:11.188Z</time></trkpt><trkpt lat="45.1260189" lon="7.695761"><ele>231.0</ele><time>2026-04-25T17:15:12.183Z</time></trkpt><trkpt lat="45.1260422" lon="7.6959581"><ele>231.0</ele><time>2026-04-25T17:15:13.186Z</time></trkpt><trkpt lat="45.1260567" lon="7.6961635"><ele>231.0</ele><time>2026-04-25T17:15:14.18Z</time></trkpt><trkpt lat="45.1261191" lon="7.6963828"><ele>230.5</ele><time>2026-04-25T17:15:15.18Z</time></trkpt><trkpt lat="45.1261637" lon="7.6965832"><ele>230.0</ele><time>2026-04-25T17:15:16.175Z</time></trkpt><trkpt lat="45.1262304" lon="7.6967879"><ele>229.5</ele><time>2026-04-25T17:15:17.175Z</time></trkpt><trkpt lat="45.1263073" lon="7.6968955"><ele>229.0</ele><time>2026-04-25T17:15:18.17Z</time></trkpt><trkpt lat="45.1264281" lon="7.697069"><ele>228.66666666666666</ele><time>2026-04-25T17:15:19.171Z</time></trkpt><trkpt lat="45.1265757" lon="7.697259"><ele>228.33333333333331</ele><time>2026-04-25T17:15:20.18Z</time></trkpt><trkpt lat="45.1267397" lon="7.6973938"><ele>228.0</ele><time>2026-04-25T17:15:21.184Z</time></trkpt><trkpt lat="45.1268574" lon="7.6975443"><ele>228.0</ele><time>2026-04-25T17:15:22.179Z</time></trkpt><trkpt lat="45.1269904" lon="7.697684"><ele>228.0</ele><time>2026-04-25T17:15:23.197Z</time></trkpt><trkpt lat="45.1271395" lon="7.697845"><ele>228.0</ele><time>2026-04-25T17:15:24.178Z</time></trkpt><trkpt lat="45.1273053" lon="7.6979995"><ele>227.66666666666669</ele><time>2026-04-25T17:15:25.184Z</time></trkpt><trkpt lat="45.1274689" lon="7.698173"><ele>227.33333333333334</ele><time>2026-04-25T17:15:26.187Z</time></trkpt><trkpt lat="45.127627" lon="7.6983309"><ele>227.0</ele><time>2026-04-25T17:15:27.186Z</time></trkpt><trkpt lat="45.1277673" lon="7.69851"><ele>227.33333333333334</ele><time>2026-04-25T17:15:28.199Z</time></trkpt><trkpt lat="45.127922" lon="7.6986736"><ele>227.66666666666669</ele><time>2026-04-25T17:15:29.188Z</time></trkpt><trkpt lat="45.128076" lon="7.6988311"><ele>228.0</ele><time>2026-04-25T17:15:30.19Z</time></trkpt><trkpt lat="45.1282444" lon="7.6989963"><ele>228.0</ele><time>2026-04-25T17:15:31.189Z</time></trkpt><trkpt lat="45.1283783" lon="7.6991566"><ele>228.0</ele><time>2026-04-25T17:15:32.189Z</time></trkpt><trkpt lat="45.1285067" lon="7.699304"><ele>228.0</ele><time>2026-04-25T17:15:33.195Z</time></trkpt><trkpt lat="45.1286299" lon="7.6994486"><ele>227.66666666666669</ele><time>2026-04-25T17:15:34.187Z</time></trkpt><trkpt lat="45.1287709" lon="7.6996053"><ele>227.33333333333334</ele><time>2026-04-25T17:15:35.191Z</time></trkpt><trkpt lat="45.1289097" lon="7.6997488"><ele>227.0</ele><time>2026-04-25T17:15:36.19Z</time></trkpt><trkpt lat="45.1290299" lon="7.6998646"><ele>227.75</ele><time>2026-04-25T17:15:37.196Z</time></trkpt><trkpt lat="45.1291399" lon="7.6999901"><ele>228.5</ele><time>2026-04-25T17:15:38.182Z</time></trkpt><trkpt lat="45.1292634" lon="7.700079"><ele>229.25</ele><time>2026-04-25T17:15:39.194Z</time></trkpt><trkpt lat="45.1293705" lon="7.7001589"><ele>230.0</ele><time>2026-04-25T17:15:40.191Z</time></trkpt><trkpt lat="45.1295089" lon="7.7001967"><ele>230.0</ele><time>2026-04-25T17:15:41.181Z</time></trkpt><trkpt lat="45.1296572" lon="7.7002152"><ele>230.0</ele><time>2026-04-25T17:15:42.183Z</time></trkpt><trkpt lat="45.1297966" lon="7.700219"><ele>230.0</ele><time>2026-04-25T17:15:43.18Z</time></trkpt><trkpt lat="45.1299621" lon="7.7001717"><ele>230.33333333333334</ele><time>2026-04-25T17:15:44.187Z</time></trkpt><trkpt lat="45.1301178" lon="7.7000632"><ele>230.66666666666669</ele><time>2026-04-25T17:15:45.186Z</time></trkpt><trkpt lat="45.1302641" lon="7.6999667"><ele>231.0</ele><time>2026-04-25T17:15:46.183Z</time></trkpt><trkpt lat="45.130392" lon="7.6998842"><ele>231.0</ele><time>2026-04-25T17:15:47.193Z</time></trkpt><trkpt lat="45.1305488" lon="7.6997863"><ele>231.0</ele><time>2026-04-25T17:15:48.189Z</time></trkpt><trkpt lat="45.1306773" lon="7.6996901"><ele>231.0</ele><time>2026-04-25T17:15:49.189Z</time></trkpt><trkpt lat="45.1308108" lon="7.699616"><ele>230.66666666666669</ele><time>2026-04-25T17:15:50.193Z</time></trkpt><trkpt lat="45.1309469" lon="7.6995352"><ele>230.33333333333334</ele><time>2026-04-25T17:15:51.189Z</time></trkpt><trkpt lat="45.1310906" lon="7.6994663"><ele>230.0</ele><time>2026-04-25T17:15:52.192Z</time></trkpt><trkpt lat="45.1312421" lon="7.6994102"><ele>230.0</ele><time>2026-04-25T17:15:53.211Z</time></trkpt><trkpt lat="45.1313697" lon="7.6993299"><ele>230.0</ele><time>2026-04-25T17:15:54.192Z</time></trkpt><trkpt lat="45.1315042" lon="7.6992492"><ele>230.0</ele><time>2026-04-25T17:15:55.194Z</time></trkpt><trkpt lat="45.1316325" lon="7.6991499"><ele>230.0</ele><time>2026-04-25T17:15:56.18Z</time></trkpt><trkpt lat="45.1317341" lon="7.6990238"><ele>230.25</ele><time>2026-04-25T17:15:57.188Z</time></trkpt><trkpt lat="45.131813" lon="7.6988601"><ele>230.5</ele><time>2026-04-25T17:15:58.184Z</time></trkpt><trkpt lat="45.1318818" lon="7.6986454"><ele>230.75</ele><time>2026-04-25T17:15:59.199Z</time></trkpt><trkpt lat="45.1318705" lon="7.6984445"><ele>231.0</ele><time>2026-04-25T17:16:00.182Z</time></trkpt><trkpt lat="45.131855" lon="7.6982744"><ele>231.0</ele><time>2026-04-25T17:16:01.181Z</time></trkpt><trkpt lat="45.1318133" lon="7.6980858"><ele>231.0</ele><time>2026-04-25T17:16:02.18Z</time></trkpt><trkpt lat="45.1317523" lon="7.6979141"><ele>231.0</ele><time>2026-04-25T17:16:03.181Z</time></trkpt><trkpt lat="45.1316718" lon="7.697751"><ele>231.0</ele><time>2026-04-25T17:16:04.18Z</time></trkpt><trkpt lat="45.1315791" lon="7.6976205"><ele>231.0</ele><time>2026-04-25T17:16:05.176Z</time></trkpt><trkpt lat="45.1314595" lon="7.6975067"><ele>231.0</ele><time>2026-04-25T17:16:06.185Z</time></trkpt><trkpt lat="45.1313187" lon="7.6973708"><ele>231.0</ele><time>2026-04-25T17:16:07.191Z</time></trkpt><trkpt lat="45.1311558" lon="7.6972361"><ele>231.0</ele><time>2026-04-25T17:16:08.191Z</time></trkpt><trkpt lat="45.1310024" lon="7.6971202"><ele>231.0</ele><time>2026-04-25T17:16:09.192Z</time></trkpt><trkpt lat="45.1308545" lon="7.696971"><ele>231.0</ele><time>2026-04-25T17:16:10.183Z</time></trkpt><trkpt lat="45.1307132" lon="7.6968069"><ele>230.25</ele><time>2026-04-25T17:16:11.185Z</time></trkpt><trkpt lat="45.1305947" lon="7.6966809"><ele>229.5</ele><time>2026-04-25T17:16:12.185Z</time></trkpt><trkpt lat="45.1304891" lon="7.6965475"><ele>228.75</ele><time>2026-04-25T17:16:13.179Z</time></trkpt><trkpt lat="45.1303704" lon="7.6964275"><ele>228.0</ele><time>2026-04-25T17:16:14.19Z</time></trkpt><trkpt lat="45.1302692" lon="7.6963196"><ele>228.0</ele><time>2026-04-25T17:16:15.189Z</time></trkpt><trkpt lat="45.1301678" lon="7.6961772"><ele>228.0</ele><time>2026-04-25T17:16:16.183Z</time></trkpt><trkpt lat="45.1300716" lon="7.6959968"><ele>228.0</ele><time>2026-04-25T17:16:17.178Z</time></trkpt><trkpt lat="45.1299829" lon="7.6958084"><ele>227.66666666666669</ele><time>2026-04-25T17:16:18.179Z</time></trkpt><trkpt lat="45.1299054" lon="7.6955949"><ele>227.33333333333334</ele><time>2026-04-25T17:16:19.179Z</time></trkpt><trkpt lat="45.1298568" lon="7.6953666"><ele>227.0</ele><time>2026-04-25T17:16:20.176Z</time></trkpt><trkpt lat="45.1297973" lon="7.6951074"><ele>228.0</ele><time>2026-04-25T17:16:21.172Z</time></trkpt><trkpt lat="45.1297668" lon="7.6948278"><ele>229.0</ele><time>2026-04-25T17:16:22.175Z</time></trkpt><trkpt lat="45.1297386" lon="7.6945658"><ele>230.0</ele><time>2026-04-25T17:16:23.193Z</time></trkpt><trkpt lat="45.129695" lon="7.6942763"><ele>230.0</ele><time>2026-04-25T17:16:24.187Z</time></trkpt><trkpt lat="45.1296272" lon="7.6939806"><ele>230.0</ele><time>2026-04-25T17:16:25.184Z</time></trkpt><trkpt lat="45.1295872" lon="7.6936525"><ele>229.33333333333334</ele><time>2026-04-25T17:16:26.188Z</time></trkpt><trkpt lat="45.1295378" lon="7.6933568"><ele>228.66666666666669</ele><time>2026-04-25T17:16:27.195Z</time></trkpt><trkpt lat="45.1294973" lon="7.6930601"><ele>228.0</ele><time>2026-04-25T17:16:28.195Z</time></trkpt><trkpt lat="45.1294576" lon="7.6927595"><ele>228.33333333333331</ele><time>2026-04-25T17:16:29.197Z</time></trkpt><trkpt lat="45.1294237" lon="7.6924658"><ele>228.66666666666666</ele><time>2026-04-25T17:16:30.202Z</time></trkpt><trkpt lat="45.1294067" lon="7.6921658"><ele>229.0</ele><time>2026-04-25T17:16:31.195Z</time></trkpt><trkpt lat="45.1293925" lon="7.6918589"><ele>229.33333333333331</ele><time>2026-04-25T17:16:32.196Z</time></trkpt><trkpt lat="45.1293783" lon="7.6915514"><ele>229.66666666666669</ele><time>2026-04-25T17:16:33.192Z</time></trkpt><trkpt lat="45.1293425" lon="7.6912623"><ele>230.0</ele><time>2026-04-25T17:16:34.195Z</time></trkpt><trkpt lat="45.1293188" lon="7.6909612"><ele>230.33333333333334</ele><time>2026-04-25T17:16:35.194Z</time></trkpt><trkpt lat="45.1292878" lon="7.6906613"><ele>230.66666666666669</ele><time>2026-04-25T17:16:36.193Z</time></trkpt><trkpt lat="45.1292711" lon="7.690347"><ele>231.0</ele><time>2026-04-25T17:16:37.193Z</time></trkpt><trkpt lat="45.1292504" lon="7.6900568"><ele>231.0</ele><time>2026-04-25T17:16:38.194Z</time></trkpt><trkpt lat="45.129204" lon="7.6897326"><ele>231.0</ele><time>2026-04-25T17:16:39.188Z</time></trkpt><trkpt lat="45.1291726" lon="7.6894195"><ele>230.66666666666669</ele><time>2026-04-25T17:16:40.193Z</time></trkpt><trkpt lat="45.1291404" lon="7.6891136"><ele>230.33333333333334</ele><time>2026-04-25T17:16:41.191Z</time></trkpt><trkpt lat="45.1291229" lon="7.6888113"><ele>230.0</ele><time>2026-04-25T17:16:42.191Z</time></trkpt><trkpt lat="45.1291035" lon="7.6885239"><ele>230.5</ele><time>2026-04-25T17:16:43.195Z</time></trkpt><trkpt lat="45.1290738" lon="7.6882092"><ele>231.0</ele><time>2026-04-25T17:16:44.195Z</time></trkpt><trkpt lat="45.1290447" lon="7.6878921"><ele>230.33333333333331</ele><time>2026-04-25T17:16:45.196Z</time></trkpt><trkpt lat="45.129011" lon="7.6875971"><ele>229.66666666666666</ele><time>2026-04-25T17:16:46.191Z</time></trkpt><trkpt lat="45.1290055" lon="7.6872846"><ele>229.0</ele><time>2026-04-25T17:16:47.191Z</time></trkpt><trkpt lat="45.128981" lon="7.6869665"><ele>230.0</ele><time>2026-04-25T17:16:48.194Z</time></trkpt><trkpt lat="45.1289572" lon="7.6866427"><ele>231.0</ele><time>2026-04-25T17:16:49.19Z</time></trkpt><trkpt lat="45.1289129" lon="7.6863146"><ele>229.5</ele><time>2026-04-25T17:16:50.192Z</time></trkpt><trkpt lat="45.1288844" lon="7.6859909"><ele>228.0</ele><time>2026-04-25T17:16:51.192Z</time></trkpt><trkpt lat="45.1288543" lon="7.6856704"><ele>228.0</ele><time>2026-04-25T17:16:52.194Z</time></trkpt><trkpt lat="45.1288347" lon="7.6853313"><ele>228.0</ele><time>2026-04-25T17:16:53.204Z</time></trkpt><trkpt lat="45.1288041" lon="7.685009"><ele>227.66666666666669</ele><time>2026-04-25T17:16:54.192Z</time></trkpt><trkpt lat="45.1287889" lon="7.6847076"><ele>227.33333333333334</ele><time>2026-04-25T17:16:55.195Z</time></trkpt><trkpt lat="45.1287738" lon="7.6844118"><ele>227.0</ele><time>2026-04-25T17:16:56.198Z</time></trkpt><trkpt lat="45.1287505" lon="7.6841038"><ele>228.5</ele><time>2026-04-25T17:16:57.195Z</time></trkpt><trkpt lat="45.128725" lon="7.6837896"><ele>230.0</ele><time>2026-04-25T17:16:58.195Z</time></trkpt><trkpt lat="45.1286929" lon="7.683451"><ele>230.66666666666669</ele><time>2026-04-25T17:16:59.194Z</time></trkpt><trkpt lat="45.1286551" lon="7.6831373"><ele>231.33333333333331</ele><time>2026-04-25T17:17:00.194Z</time></trkpt><trkpt lat="45.1286249" lon="7.6828382"><ele>232.0</ele><time>2026-04-25T17:17:01.206Z</time></trkpt><trkpt lat="45.128603" lon="7.6825686"><ele>232.0</ele><time>2026-04-25T17:17:02.192Z</time></trkpt><trkpt lat="45.1285688" lon="7.6822916"><ele>232.0</ele><time>2026-04-25T17:17:03.196Z</time></trkpt><trkpt lat="45.1285545" lon="7.6820068"><ele>232.0</ele><time>2026-04-25T17:17:04.199Z</time></trkpt><trkpt lat="45.12853" lon="7.6817143"><ele>231.0</ele><time>2026-04-25T17:17:05.199Z</time></trkpt><trkpt lat="45.1285118" lon="7.6814057"><ele>230.0</ele><time>2026-04-25T17:17:06.199Z</time></trkpt><trkpt lat="45.1284795" lon="7.6810988"><ele>229.0</ele><time>2026-04-25T17:17:07.199Z</time></trkpt><trkpt lat="45.1284486" lon="7.6807916"><ele>229.0</ele><time>2026-04-25T17:17:08.196Z</time></trkpt><trkpt lat="45.1284136" lon="7.6804877"><ele>229.0</ele><time>2026-04-25T17:17:09.197Z</time></trkpt><trkpt lat="45.1283779" lon="7.6801611"><ele>230.5</ele><time>2026-04-25T17:17:10.192Z</time></trkpt><trkpt lat="45.1283531" lon="7.6798178"><ele>232.0</ele><time>2026-04-25T17:17:11.193Z</time></trkpt><trkpt lat="45.1283129" lon="7.6794802"><ele>232.5</ele><time>2026-04-25T17:17:12.196Z</time></trkpt><trkpt lat="45.128286" lon="7.6791329"><ele>233.0</ele><time>2026-04-25T17:17:13.199Z</time></trkpt><trkpt lat="45.128267" lon="7.6787676"><ele>233.0</ele><time>2026-04-25T17:17:14.195Z</time></trkpt><trkpt lat="45.1282335" lon="7.6783988"><ele>233.0</ele><time>2026-04-25T17:17:15.198Z</time></trkpt><trkpt lat="45.128189" lon="7.6779931"><ele>232.0</ele><time>2026-04-25T17:17:16.197Z</time></trkpt><trkpt lat="45.1281599" lon="7.6776228"><ele>231.0</ele><time>2026-04-25T17:17:17.2Z</time></trkpt><trkpt lat="45.1281211" lon="7.6772482"><ele>231.0</ele><time>2026-04-25T17:17:18.199Z</time></trkpt><trkpt lat="45.1280981" lon="7.6768629"><ele>231.0</ele><time>2026-04-25T17:17:19.199Z</time></trkpt><trkpt lat="45.1280736" lon="7.6765147"><ele>231.0</ele><time>2026-04-25T17:17:20.199Z</time></trkpt><trkpt lat="45.1280526" lon="7.676155"><ele>231.0</ele><time>2026-04-25T17:17:21.2Z</time></trkpt><trkpt lat="45.1280234" lon="7.6758062"><ele>230.5</ele><time>2026-04-25T17:17:22.209Z</time></trkpt><trkpt lat="45.1279887" lon="7.6754506"><ele>230.0</ele><time>2026-04-25T17:17:23.211Z</time></trkpt><trkpt lat="45.1279667" lon="7.6750843"><ele>230.0</ele><time>2026-04-25T17:17:24.201Z</time></trkpt><trkpt lat="45.1279434" lon="7.6747205"><ele>230.0</ele><time>2026-04-25T17:17:25.197Z</time></trkpt><trkpt lat="45.1279165" lon="7.6743702"><ele>230.0</ele><time>2026-04-25T17:17:26.201Z</time></trkpt><trkpt lat="45.1278791" lon="7.6739987"><ele>230.0</ele><time>2026-04-25T17:17:27.201Z</time></trkpt><trkpt lat="45.1278373" lon="7.6736237"><ele>231.0</ele><time>2026-04-25T17:17:28.201Z</time></trkpt><trkpt lat="45.1278039" lon="7.6732481"><ele>232.0</ele><time>2026-04-25T17:17:29.2Z</time></trkpt><trkpt lat="45.1277671" lon="7.6728633"><ele>234.5</ele><time>2026-04-25T17:17:30.201Z</time></trkpt><trkpt lat="45.1277254" lon="7.6724633"><ele>237.0</ele><time>2026-04-25T17:17:31.201Z</time></trkpt><trkpt lat="45.1276896" lon="7.6720802"><ele>236.0</ele><time>2026-04-25T17:17:32.202Z</time></trkpt><trkpt lat="45.1276528" lon="7.6717055"><ele>235.0</ele><time>2026-04-25T17:17:33.19Z</time></trkpt><trkpt lat="45.1276287" lon="7.6713388"><ele>236.5</ele><time>2026-04-25T17:17:34.197Z</time></trkpt><trkpt lat="45.1276006" lon="7.6709907"><ele>238.0</ele><time>2026-04-25T17:17:35.198Z</time></trkpt><trkpt lat="45.1275795" lon="7.670627"><ele>237.5</ele><time>2026-04-25T17:17:36.2Z</time></trkpt><trkpt lat="45.1275571" lon="7.6702539"><ele>237.0</ele><time>2026-04-25T17:17:37.199Z</time></trkpt><trkpt lat="45.1275135" lon="7.6698884"><ele>237.0</ele><time>2026-04-25T17:17:38.197Z</time></trkpt><trkpt lat="45.1274849" lon="7.6695375"><ele>237.0</ele><time>2026-04-25T17:17:39.198Z</time></trkpt><trkpt lat="45.1274649" lon="7.6691552"><ele>237.0</ele><time>2026-04-25T17:17:40.2Z</time></trkpt><trkpt lat="45.1274355" lon="7.6687795"><ele>237.0</ele><time>2026-04-25T17:17:41.2Z</time></trkpt><trkpt lat="45.1274093" lon="7.6684249"><ele>235.5</ele><time>2026-04-25T17:17:42.198Z</time></trkpt><trkpt lat="45.1273684" lon="7.668048"><ele>234.0</ele><time>2026-04-25T17:17:43.198Z</time></trkpt><trkpt lat="45.1273396" lon="7.6676798"><ele>234.0</ele><time>2026-04-25T17:17:44.198Z</time></trkpt><trkpt lat="45.1273102" lon="7.6672979"><ele>234.0</ele><time>2026-04-25T17:17:45.197Z</time></trkpt><trkpt lat="45.1272743" lon="7.6669264"><ele>235.0</ele><time>2026-04-25T17:17:46.197Z</time></trkpt><trkpt lat="45.1272463" lon="7.6665513"><ele>236.0</ele><time>2026-04-25T17:17:47.201Z</time></trkpt><trkpt lat="45.1272247" lon="7.6661958"><ele>236.5</ele><time>2026-04-25T17:17:48.2Z</time></trkpt><trkpt lat="45.1271919" lon="7.665828"><ele>237.0</ele><time>2026-04-25T17:17:49.203Z</time></trkpt><trkpt lat="45.1271568" lon="7.6654796"><ele>236.5</ele><time>2026-04-25T17:17:50.205Z</time></trkpt><trkpt lat="45.1271249" lon="7.6651253"><ele>236.0</ele><time>2026-04-25T17:17:51.198Z</time></trkpt><trkpt lat="45.1271073" lon="7.6647793"><ele>236.5</ele><time>2026-04-25T17:17:52.2Z</time></trkpt><trkpt lat="45.1270757" lon="7.6644106"><ele>237.0</ele><time>2026-04-25T17:17:53.202Z</time></trkpt><trkpt lat="45.1270445" lon="7.6640393"><ele>237.0</ele><time>2026-04-25T17:17:54.196Z</time></trkpt><trkpt lat="45.1270091" lon="7.663673"><ele>237.0</ele><time>2026-04-25T17:17:55.199Z</time></trkpt><trkpt lat="45.1269786" lon="7.6633132"><ele>237.5</ele><time>2026-04-25T17:17:56.199Z</time></trkpt><trkpt lat="45.1269446" lon="7.6629467"><ele>238.0</ele><time>2026-04-25T17:17:57.197Z</time></trkpt><trkpt lat="45.1269137" lon="7.6625941"><ele>238.0</ele><time>2026-04-25T17:17:58.2Z</time></trkpt><trkpt lat="45.1268718" lon="7.6622542"><ele>238.0</ele><time>2026-04-25T17:17:59.193Z</time></trkpt><trkpt lat="45.1268334" lon="7.6618888"><ele>239.0</ele><time>2026-04-25T17:18:00.198Z</time></trkpt><trkpt lat="45.1267972" lon="7.6615214"><ele>240.0</ele><time>2026-04-25T17:18:01.197Z</time></trkpt><trkpt lat="45.1267654" lon="7.6611597"><ele>240.5</ele><time>2026-04-25T17:18:02.185Z</time></trkpt><trkpt lat="45.12671" lon="7.6607854"><ele>241.0</ele><time>2026-04-25T17:18:03.201Z</time></trkpt><trkpt lat="45.1266481" lon="7.6604333"><ele>241.0</ele><time>2026-04-25T17:18:04.192Z</time></trkpt><trkpt lat="45.1266053" lon="7.6600555"><ele>241.0</ele><time>2026-04-25T17:18:05.188Z</time></trkpt><trkpt lat="45.1265357" lon="7.6597012"><ele>241.5</ele><time>2026-04-25T17:18:06.19Z</time></trkpt><trkpt lat="45.1264836" lon="7.6593327"><ele>242.0</ele><time>2026-04-25T17:18:07.188Z</time></trkpt><trkpt lat="45.1263993" lon="7.6589735"><ele>241.5</ele><time>2026-04-25T17:18:08.187Z</time></trkpt><trkpt lat="45.1263186" lon="7.6586091"><ele>241.0</ele><time>2026-04-25T17:18:09.188Z</time></trkpt><trkpt lat="45.1262353" lon="7.6582404"><ele>241.0</ele><time>2026-04-25T17:18:10.196Z</time></trkpt><trkpt lat="45.1261444" lon="7.6578656"><ele>241.0</ele><time>2026-04-25T17:18:11.196Z</time></trkpt><trkpt lat="45.1260308" lon="7.6574825"><ele>239.5</ele><time>2026-04-25T17:18:12.192Z</time></trkpt><trkpt lat="45.1259217" lon="7.6571113"><ele>238.0</ele><time>2026-04-25T17:18:13.192Z</time></trkpt><trkpt lat="45.1258038" lon="7.6567484"><ele>238.0</ele><time>2026-04-25T17:18:14.197Z</time></trkpt><trkpt lat="45.1256835" lon="7.6564024"><ele>238.0</ele><time>2026-04-25T17:18:15.192Z</time></trkpt><trkpt lat="45.1255535" lon="7.6560647"><ele>237.0</ele><time>2026-04-25T17:18:16.195Z</time></trkpt><trkpt lat="45.1254367" lon="7.6557297"><ele>236.0</ele><time>2026-04-25T17:18:17.192Z</time></trkpt><trkpt lat="45.125331" lon="7.6553966"><ele>235.0</ele><time>2026-04-25T17:18:18.195Z</time></trkpt><trkpt lat="45.1252258" lon="7.6550684"><ele>234.0</ele><time>2026-04-25T17:18:19.193Z</time></trkpt><trkpt lat="45.1251395" lon="7.6547241"><ele>233.5</ele><time>2026-04-25T17:18:20.194Z</time></trkpt><trkpt lat="45.1250221" lon="7.6544031"><ele>233.0</ele><time>2026-04-25T17:18:21.198Z</time></trkpt><trkpt lat="45.1249236" lon="7.6540699"><ele>237.0</ele><time>2026-04-25T17:18:22.193Z</time></trkpt><trkpt lat="45.1248279" lon="7.6537518"><ele>241.0</ele><time>2026-04-25T17:18:23.203Z</time></trkpt><trkpt lat="45.1247136" lon="7.6534449"><ele>244.5</ele><time>2026-04-25T17:18:24.196Z</time></trkpt><trkpt lat="45.1246096" lon="7.6531354"><ele>248.0</ele><time>2026-04-25T17:18:25.192Z</time></trkpt><trkpt lat="45.1245084" lon="7.6528077"><ele>249.5</ele><time>2026-04-25T17:18:26.188Z</time></trkpt><trkpt lat="45.1244181" lon="7.6524856"><ele>251.0</ele><time>2026-04-25T17:18:27.179Z</time></trkpt><trkpt lat="45.1243002" lon="7.6521578"><ele>251.0</ele><time>2026-04-25T17:18:28.188Z</time></trkpt><trkpt lat="45.1242102" lon="7.6518458"><ele>251.0</ele><time>2026-04-25T17:18:29.191Z</time></trkpt><trkpt lat="45.1241226" lon="7.6515477"><ele>250.5</ele><time>2026-04-25T17:18:30.185Z</time></trkpt><trkpt lat="45.1240094" lon="7.6512406"><ele>250.0</ele><time>2026-04-25T17:18:31.19Z</time></trkpt><trkpt lat="45.1239197" lon="7.6509753"><ele>250.0</ele><time>2026-04-25T17:18:32.183Z</time></trkpt><trkpt lat="45.123826" lon="7.6506813"><ele>250.0</ele><time>2026-04-25T17:18:33.188Z</time></trkpt><trkpt lat="45.1237503" lon="7.650406"><ele>250.0</ele><time>2026-04-25T17:18:34.203Z</time></trkpt><trkpt lat="45.1236756" lon="7.6501479"><ele>250.0</ele><time>2026-04-25T17:18:35.187Z</time></trkpt><trkpt lat="45.1235827" lon="7.6498672"><ele>250.0</ele><time>2026-04-25T17:18:36.184Z</time></trkpt><trkpt lat="45.123485" lon="7.6495834"><ele>250.0</ele><time>2026-04-25T17:18:37.19Z</time></trkpt><trkpt lat="45.1233775" lon="7.6492628"><ele>250.0</ele><time>2026-04-25T17:18:38.189Z</time></trkpt><trkpt lat="45.123279" lon="7.6489833"><ele>250.0</ele><time>2026-04-25T17:18:39.189Z</time></trkpt><trkpt lat="45.1231979" lon="7.6486695"><ele>250.33333333333331</ele><time>2026-04-25T17:18:40.185Z</time></trkpt><trkpt lat="45.1231194" lon="7.6483799"><ele>250.66666666666669</ele><time>2026-04-25T17:18:41.189Z</time></trkpt><trkpt lat="45.1230215" lon="7.6480892"><ele>251.0</ele><time>2026-04-25T17:18:42.19Z</time></trkpt><trkpt lat="45.1229057" lon="7.6478213"><ele>252.33333333333334</ele><time>2026-04-25T17:18:43.188Z</time></trkpt><trkpt lat="45.1228047" lon="7.6475507"><ele>253.66666666666669</ele><time>2026-04-25T17:18:44.193Z</time></trkpt><trkpt lat="45.1227148" lon="7.6472649"><ele>255.0</ele><time>2026-04-25T17:18:45.188Z</time></trkpt><trkpt lat="45.1226272" lon="7.6469835"><ele>255.0</ele><time>2026-04-25T17:18:46.192Z</time></trkpt><trkpt lat="45.1225399" lon="7.6466996"><ele>255.0</ele><time>2026-04-25T17:18:47.188Z</time></trkpt><trkpt lat="45.1224471" lon="7.6464036"><ele>255.0</ele><time>2026-04-25T17:18:48.188Z</time></trkpt><trkpt lat="45.1223656" lon="7.6460975"><ele>255.0</ele><time>2026-04-25T17:18:49.193Z</time></trkpt><trkpt lat="45.1222839" lon="7.6457882"><ele>255.0</ele><time>2026-04-25T17:18:50.187Z</time></trkpt><trkpt lat="45.1221658" lon="7.6454503"><ele>253.0</ele><time>2026-04-25T17:18:51.189Z</time></trkpt><trkpt lat="45.1220499" lon="7.6450865"><ele>251.0</ele><time>2026-04-25T17:18:52.187Z</time></trkpt><trkpt lat="45.1219447" lon="7.6447184"><ele>251.0</ele><time>2026-04-25T17:18:53.208Z</time></trkpt><trkpt lat="45.1218278" lon="7.6443535"><ele>251.0</ele><time>2026-04-25T17:18:54.189Z</time></trkpt><trkpt lat="45.121699" lon="7.6439939"><ele>251.0</ele><time>2026-04-25T17:18:55.189Z</time></trkpt><trkpt lat="45.1215875" lon="7.6436376"><ele>251.0</ele><time>2026-04-25T17:18:56.189Z</time></trkpt><trkpt lat="45.1214751" lon="7.6432854"><ele>252.0</ele><time>2026-04-25T17:18:57.184Z</time></trkpt><trkpt lat="45.1213686" lon="7.6429382"><ele>253.0</ele><time>2026-04-25T17:18:58.183Z</time></trkpt><trkpt lat="45.1212673" lon="7.6426023"><ele>253.0</ele><time>2026-04-25T17:18:59.188Z</time></trkpt><trkpt lat="45.1211643" lon="7.642251"><ele>253.0</ele><time>2026-04-25T17:19:00.19Z</time></trkpt><trkpt lat="45.1210456" lon="7.6419093"><ele>253.0</ele><time>2026-04-25T17:19:01.186Z</time></trkpt><trkpt lat="45.1209439" lon="7.6415785"><ele>253.0</ele><time>2026-04-25T17:19:02.188Z</time></trkpt><trkpt lat="45.1208317" lon="7.6412513"><ele>253.5</ele><time>2026-04-25T17:19:03.19Z</time></trkpt><trkpt lat="45.1207285" lon="7.6409053"><ele>254.0</ele><time>2026-04-25T17:19:04.19Z</time></trkpt><trkpt lat="45.1206189" lon="7.6405668"><ele>254.5</ele><time>2026-04-25T17:19:05.198Z</time></trkpt><trkpt lat="45.1204929" lon="7.6402318"><ele>255.0</ele><time>2026-04-25T17:19:06.189Z</time></trkpt><trkpt lat="45.1203881" lon="7.6398994"><ele>255.0</ele><time>2026-04-25T17:19:07.188Z</time></trkpt><trkpt lat="45.1202827" lon="7.6395542"><ele>255.0</ele><time>2026-04-25T17:19:08.185Z</time></trkpt><trkpt lat="45.1201893" lon="7.6392125"><ele>255.0</ele><time>2026-04-25T17:19:09.191Z</time></trkpt><trkpt lat="45.12009" lon="7.6388807"><ele>255.0</ele><time>2026-04-25T17:19:10.188Z</time></trkpt><trkpt lat="45.1199864" lon="7.6385473"><ele>255.5</ele><time>2026-04-25T17:19:11.19Z</time></trkpt><trkpt lat="45.1198723" lon="7.6382045"><ele>256.0</ele><time>2026-04-25T17:19:12.182Z</time></trkpt><trkpt lat="45.1197617" lon="7.6378796"><ele>257.0</ele><time>2026-04-25T17:19:13.186Z</time></trkpt><trkpt lat="45.1196576" lon="7.6375409"><ele>258.0</ele><time>2026-04-25T17:19:14.191Z</time></trkpt><trkpt lat="45.1195574" lon="7.6372202"><ele>258.5</ele><time>2026-04-25T17:19:15.189Z</time></trkpt><trkpt lat="45.119463" lon="7.6369048"><ele>259.0</ele><time>2026-04-25T17:19:16.191Z</time></trkpt><trkpt lat="45.1193639" lon="7.6366004"><ele>259.0</ele><time>2026-04-25T17:19:17.188Z</time></trkpt><trkpt lat="45.1192634" lon="7.6362853"><ele>259.0</ele><time>2026-04-25T17:19:18.191Z</time></trkpt><trkpt lat="45.1191518" lon="7.635966"><ele>258.0</ele><time>2026-04-25T17:19:19.189Z</time></trkpt><trkpt lat="45.1190365" lon="7.6356561"><ele>257.0</ele><time>2026-04-25T17:19:20.191Z</time></trkpt><trkpt lat="45.1189391" lon="7.6353427"><ele>257.5</ele><time>2026-04-25T17:19:21.189Z</time></trkpt><trkpt lat="45.1188421" lon="7.6350264"><ele>258.0</ele><time>2026-04-25T17:19:22.188Z</time></trkpt><trkpt lat="45.1187368" lon="7.6346938"><ele>259.0</ele><time>2026-04-25T17:19:23.198Z</time></trkpt><trkpt lat="45.1186317" lon="7.6343769"><ele>260.0</ele><time>2026-04-25T17:19:24.191Z</time></trkpt><trkpt lat="45.1185321" lon="7.6340513"><ele>260.0</ele><time>2026-04-25T17:19:25.192Z</time></trkpt><trkpt lat="45.1184343" lon="7.6337353"><ele>260.0</ele><time>2026-04-25T17:19:26.193Z</time></trkpt><trkpt lat="45.1183302" lon="7.6334155"><ele>260.0</ele><time>2026-04-25T17:19:27.192Z</time></trkpt><trkpt lat="45.1182239" lon="7.6330855"><ele>260.0</ele><time>2026-04-25T17:19:28.197Z</time></trkpt><trkpt lat="45.1181197" lon="7.6327511"><ele>261.0</ele><time>2026-04-25T17:19:29.195Z</time></trkpt><trkpt lat="45.1180097" lon="7.6324266"><ele>262.0</ele><time>2026-04-25T17:19:30.192Z</time></trkpt><trkpt lat="45.1179101" lon="7.6320875"><ele>263.0</ele><time>2026-04-25T17:19:31.197Z</time></trkpt><trkpt lat="45.1178074" lon="7.6317573"><ele>264.0</ele><time>2026-04-25T17:19:32.188Z</time></trkpt><trkpt lat="45.1177058" lon="7.6314286"><ele>264.0</ele><time>2026-04-25T17:19:33.188Z</time></trkpt><trkpt lat="45.1176076" lon="7.6311029"><ele>264.0</ele><time>2026-04-25T17:19:34.188Z</time></trkpt><trkpt lat="45.1174999" lon="7.6307894"><ele>264.0</ele><time>2026-04-25T17:19:35.189Z</time></trkpt><trkpt lat="45.117395" lon="7.6304921"><ele>264.0</ele><time>2026-04-25T17:19:36.205Z</time></trkpt><trkpt lat="45.1173099" lon="7.6302055"><ele>264.0</ele><time>2026-04-25T17:19:37.186Z</time></trkpt><trkpt lat="45.1172197" lon="7.6299385"><ele>264.0</ele><time>2026-04-25T17:19:38.186Z</time></trkpt><trkpt lat="45.117123" lon="7.6296718"><ele>264.0</ele><time>2026-04-25T17:19:39.187Z</time></trkpt><trkpt lat="45.1170305" lon="7.6293898"><ele>263.5</ele><time>2026-04-25T17:19:40.192Z</time></trkpt><trkpt lat="45.1169373" lon="7.6290882"><ele>263.0</ele><time>2026-04-25T17:19:41.193Z</time></trkpt><trkpt lat="45.1168509" lon="7.6288028"><ele>264.0</ele><time>2026-04-25T17:19:42.192Z</time></trkpt><trkpt lat="45.1167582" lon="7.628537"><ele>265.0</ele><time>2026-04-25T17:19:43.191Z</time></trkpt><trkpt lat="45.1166718" lon="7.6282383"><ele>266.0</ele><time>2026-04-25T17:19:44.188Z</time></trkpt><trkpt lat="45.1165806" lon="7.627951"><ele>265.33333333333337</ele><time>2026-04-25T17:19:45.193Z</time></trkpt><trkpt lat="45.1164834" lon="7.6276704"><ele>264.6666666666667</ele><time>2026-04-25T17:19:46.19Z</time></trkpt><trkpt lat="45.1163863" lon="7.6273937"><ele>264.0</ele><time>2026-04-25T17:19:47.196Z</time></trkpt><trkpt lat="45.116294" lon="7.6271146"><ele>264.0</ele><time>2026-04-25T17:19:48.196Z</time></trkpt><trkpt lat="45.1161914" lon="7.6268342"><ele>264.0</ele><time>2026-04-25T17:19:49.191Z</time></trkpt><trkpt lat="45.1161011" lon="7.6265743"><ele>264.0</ele><time>2026-04-25T17:19:50.198Z</time></trkpt><trkpt lat="45.1160045" lon="7.6263097"><ele>264.3333333333333</ele><time>2026-04-25T17:19:51.193Z</time></trkpt><trkpt lat="45.115926" lon="7.6260441"><ele>264.66666666666663</ele><time>2026-04-25T17:19:52.195Z</time></trkpt><trkpt lat="45.1158316" lon="7.6257763"><ele>265.0</ele><time>2026-04-25T17:19:53.196Z</time></trkpt><trkpt lat="45.1157256" lon="7.6255031"><ele>264.3333333333333</ele><time>2026-04-25T17:19:54.193Z</time></trkpt><trkpt lat="45.1156266" lon="7.6252226"><ele>263.6666666666667</ele><time>2026-04-25T17:19:55.194Z</time></trkpt><trkpt lat="45.1155184" lon="7.6249543"><ele>263.0</ele><time>2026-04-25T17:19:56.193Z</time></trkpt><trkpt lat="45.1154117" lon="7.6246968"><ele>264.33333333333337</ele><time>2026-04-25T17:19:57.193Z</time></trkpt><trkpt lat="45.1153054" lon="7.6244318"><ele>265.6666666666667</ele><time>2026-04-25T17:19:58.188Z</time></trkpt><trkpt lat="45.1152093" lon="7.6241623"><ele>267.0</ele><time>2026-04-25T17:19:59.191Z</time></trkpt><trkpt lat="45.1151157" lon="7.6239075"><ele>267.0</ele><time>2026-04-25T17:20:00.192Z</time></trkpt><trkpt lat="45.1150078" lon="7.6236514"><ele>267.0</ele><time>2026-04-25T17:20:01.192Z</time></trkpt><trkpt lat="45.1149063" lon="7.6234035"><ele>267.0</ele><time>2026-04-25T17:20:02.194Z</time></trkpt><trkpt lat="45.1148037" lon="7.6231696"><ele>267.0</ele><time>2026-04-25T17:20:03.192Z</time></trkpt><trkpt lat="45.1146992" lon="7.622936"><ele>267.0</ele><time>2026-04-25T17:20:04.191Z</time></trkpt><trkpt lat="45.1145921" lon="7.6226951"><ele>267.0</ele><time>2026-04-25T17:20:05.192Z</time></trkpt><trkpt lat="45.1144718" lon="7.6224494"><ele>267.3333333333333</ele><time>2026-04-25T17:20:06.191Z</time></trkpt><trkpt lat="45.1143461" lon="7.6222062"><ele>267.66666666666663</ele><time>2026-04-25T17:20:07.202Z</time></trkpt><trkpt lat="45.1142326" lon="7.6219642"><ele>268.0</ele><time>2026-04-25T17:20:08.191Z</time></trkpt><trkpt lat="45.1141213" lon="7.6217293"><ele>268.66666666666663</ele><time>2026-04-25T17:20:09.189Z</time></trkpt><trkpt lat="45.1140253" lon="7.6215013"><ele>269.3333333333333</ele><time>2026-04-25T17:20:10.188Z</time></trkpt><trkpt lat="45.1139291" lon="7.6212725"><ele>270.0</ele><time>2026-04-25T17:20:11.186Z</time></trkpt><trkpt lat="45.1138366" lon="7.6210307"><ele>270.0</ele><time>2026-04-25T17:20:12.184Z</time></trkpt><trkpt lat="45.1137162" lon="7.6207953"><ele>270.0</ele><time>2026-04-25T17:20:13.186Z</time></trkpt><trkpt lat="45.1135992" lon="7.6205291"><ele>270.0</ele><time>2026-04-25T17:20:14.188Z</time></trkpt><trkpt lat="45.1134837" lon="7.6202754"><ele>270.0</ele><time>2026-04-25T17:20:15.189Z</time></trkpt><trkpt lat="45.1133728" lon="7.6200374"><ele>270.0</ele><time>2026-04-25T17:20:16.183Z</time></trkpt><trkpt lat="45.1132665" lon="7.6197942"><ele>270.0</ele><time>2026-04-25T17:20:17.188Z</time></trkpt><trkpt lat="45.1131513" lon="7.6195437"><ele>271.0</ele><time>2026-04-25T17:20:18.184Z</time></trkpt><trkpt lat="45.1129935" lon="7.6192474"><ele>272.0</ele><time>2026-04-25T17:20:19.183Z</time></trkpt><trkpt lat="45.1128405" lon="7.618963"><ele>272.5</ele><time>2026-04-25T17:20:20.189Z</time></trkpt><trkpt lat="45.1126757" lon="7.6186415"><ele>273.0</ele><time>2026-04-25T17:20:21.186Z</time></trkpt><trkpt lat="45.1125226" lon="7.618311"><ele>273.0</ele><time>2026-04-25T17:20:22.192Z</time></trkpt><trkpt lat="45.1123584" lon="7.6179714"><ele>273.0</ele><time>2026-04-25T17:20:23.19Z</time></trkpt><trkpt lat="45.1122005" lon="7.617623"><ele>273.0</ele><time>2026-04-25T17:20:24.187Z</time></trkpt><trkpt lat="45.1120354" lon="7.6173037"><ele>273.0</ele><time>2026-04-25T17:20:25.19Z</time></trkpt><trkpt lat="45.1118732" lon="7.6169647"><ele>273.0</ele><time>2026-04-25T17:20:26.188Z</time></trkpt><trkpt lat="45.111704" lon="7.6166127"><ele>273.0</ele><time>2026-04-25T17:20:27.188Z</time></trkpt><trkpt lat="45.1115654" lon="7.6162467"><ele>273.0</ele><time>2026-04-25T17:20:28.19Z</time></trkpt><trkpt lat="45.1114092" lon="7.6159066"><ele>273.0</ele><time>2026-04-25T17:20:29.189Z</time></trkpt><trkpt lat="45.1112373" lon="7.615549"><ele>273.5</ele><time>2026-04-25T17:20:30.189Z</time></trkpt><trkpt lat="45.1110692" lon="7.6152079"><ele>274.0</ele><time>2026-04-25T17:20:31.192Z</time></trkpt><trkpt lat="45.1108993" lon="7.6148598"><ele>273.5</ele><time>2026-04-25T17:20:32.191Z</time></trkpt><trkpt lat="45.1107319" lon="7.6145277"><ele>273.0</ele><time>2026-04-25T17:20:33.193Z</time></trkpt><trkpt lat="45.1105644" lon="7.6141566"><ele>273.0</ele><time>2026-04-25T17:20:34.187Z</time></trkpt><trkpt lat="45.1103982" lon="7.6138111"><ele>273.0</ele><time>2026-04-25T17:20:35.19Z</time></trkpt><trkpt lat="45.1102268" lon="7.6134673"><ele>273.5</ele><time>2026-04-25T17:20:36.191Z</time></trkpt><trkpt lat="45.1100553" lon="7.6131221"><ele>274.0</ele><time>2026-04-25T17:20:37.192Z</time></trkpt><trkpt lat="45.1098845" lon="7.6128064"><ele>274.5</ele><time>2026-04-25T17:20:38.203Z</time></trkpt><trkpt lat="45.1097309" lon="7.6124554"><ele>275.0</ele><time>2026-04-25T17:20:39.191Z</time></trkpt><trkpt lat="45.1095828" lon="7.6121354"><ele>274.0</ele><time>2026-04-25T17:20:40.19Z</time></trkpt><trkpt lat="45.10943" lon="7.6118003"><ele>273.0</ele><time>2026-04-25T17:20:41.191Z</time></trkpt><trkpt lat="45.109269" lon="7.6114944"><ele>273.0</ele><time>2026-04-25T17:20:42.189Z</time></trkpt><trkpt lat="45.1091231" lon="7.6111715"><ele>273.0</ele><time>2026-04-25T17:20:43.192Z</time></trkpt><trkpt lat="45.1089757" lon="7.6108515"><ele>273.0</ele><time>2026-04-25T17:20:44.187Z</time></trkpt><trkpt lat="45.1088197" lon="7.6105502"><ele>273.0</ele><time>2026-04-25T17:20:45.187Z</time></trkpt><trkpt lat="45.1086775" lon="7.6102615"><ele>273.0</ele><time>2026-04-25T17:20:46.188Z</time></trkpt><trkpt lat="45.108549" lon="7.6099658"><ele>273.0</ele><time>2026-04-25T17:20:47.189Z</time></trkpt><trkpt lat="45.1084183" lon="7.6096471"><ele>273.5</ele><time>2026-04-25T17:20:48.185Z</time></trkpt><trkpt lat="45.1082662" lon="7.6093572"><ele>274.0</ele><time>2026-04-25T17:20:49.186Z</time></trkpt><trkpt lat="45.1081202" lon="7.6090448"><ele>274.5</ele><time>2026-04-25T17:20:50.192Z</time></trkpt><trkpt lat="45.1079773" lon="7.6087408"><ele>275.0</ele><time>2026-04-25T17:20:51.192Z</time></trkpt><trkpt lat="45.1078415" lon="7.6084335"><ele>274.0</ele><time>2026-04-25T17:20:52.195Z</time></trkpt><trkpt lat="45.1077102" lon="7.6081218"><ele>273.0</ele><time>2026-04-25T17:20:53.196Z</time></trkpt><trkpt lat="45.1075689" lon="7.6078288"><ele>275.0</ele><time>2026-04-25T17:20:54.19Z</time></trkpt><trkpt lat="45.1074326" lon="7.6075212"><ele>277.0</ele><time>2026-04-25T17:20:55.197Z</time></trkpt><trkpt lat="45.1072958" lon="7.6072112"><ele>275.0</ele><time>2026-04-25T17:20:56.189Z</time></trkpt><trkpt lat="45.1071596" lon="7.6069052"><ele>273.0</ele><time>2026-04-25T17:20:57.194Z</time></trkpt><trkpt lat="45.1070258" lon="7.606606"><ele>273.0</ele><time>2026-04-25T17:20:58.191Z</time></trkpt><trkpt lat="45.1069075" lon="7.6063058"><ele>273.0</ele><time>2026-04-25T17:20:59.191Z</time></trkpt><trkpt lat="45.1068007" lon="7.606009"><ele>275.0</ele><time>2026-04-25T17:21:00.182Z</time></trkpt><trkpt lat="45.1066829" lon="7.6056981"><ele>277.0</ele><time>2026-04-25T17:21:01.193Z</time></trkpt><trkpt lat="45.1065503" lon="7.6053787"><ele>277.0</ele><time>2026-04-25T17:21:02.19Z</time></trkpt><trkpt lat="45.1064224" lon="7.605054"><ele>277.0</ele><time>2026-04-25T17:21:03.193Z</time></trkpt><trkpt lat="45.1062993" lon="7.6047241"><ele>277.0</ele><time>2026-04-25T17:21:04.193Z</time></trkpt><trkpt lat="45.1061704" lon="7.6043818"><ele>277.0</ele><time>2026-04-25T17:21:05.195Z</time></trkpt><trkpt lat="45.1060511" lon="7.6040364"><ele>277.0</ele><time>2026-04-25T17:21:06.193Z</time></trkpt><trkpt lat="45.1059352" lon="7.6036944"><ele>277.0</ele><time>2026-04-25T17:21:07.189Z</time></trkpt><trkpt lat="45.1058233" lon="7.6033461"><ele>277.0</ele><time>2026-04-25T17:21:08.195Z</time></trkpt><trkpt lat="45.1057082" lon="7.6030085"><ele>277.0</ele><time>2026-04-25T17:21:09.2Z</time></trkpt><trkpt lat="45.10558" lon="7.6026434"><ele>277.0</ele><time>2026-04-25T17:21:10.194Z</time></trkpt><trkpt lat="45.1054631" lon="7.6022883"><ele>277.0</ele><time>2026-04-25T17:21:11.197Z</time></trkpt><trkpt lat="45.1053571" lon="7.6019128"><ele>277.0</ele><time>2026-04-25T17:21:12.201Z</time></trkpt><trkpt lat="45.1052487" lon="7.6015447"><ele>277.0</ele><time>2026-04-25T17:21:13.195Z</time></trkpt><trkpt lat="45.1051437" lon="7.6011677"><ele>278.0</ele><time>2026-04-25T17:21:14.196Z</time></trkpt><trkpt lat="45.1050408" lon="7.6007815"><ele>279.0</ele><time>2026-04-25T17:21:15.193Z</time></trkpt><trkpt lat="45.1049383" lon="7.6003955"><ele>278.5</ele><time>2026-04-25T17:21:16.189Z</time></trkpt><trkpt lat="45.1048492" lon="7.6000025"><ele>278.0</ele><time>2026-04-25T17:21:17.19Z</time></trkpt><trkpt lat="45.1047358" lon="7.5996159"><ele>279.0</ele><time>2026-04-25T17:21:18.19Z</time></trkpt><trkpt lat="45.1046379" lon="7.5992332"><ele>280.0</ele><time>2026-04-25T17:21:19.193Z</time></trkpt><trkpt lat="45.1045384" lon="7.5988546"><ele>281.0</ele><time>2026-04-25T17:21:20.193Z</time></trkpt><trkpt lat="45.1044444" lon="7.5984678"><ele>282.0</ele><time>2026-04-25T17:21:21.189Z</time></trkpt><trkpt lat="45.1043429" lon="7.5980893"><ele>282.0</ele><time>2026-04-25T17:21:22.195Z</time></trkpt><trkpt lat="45.1042359" lon="7.5977202"><ele>282.0</ele><time>2026-04-25T17:21:23.194Z</time></trkpt><trkpt lat="45.1041333" lon="7.5973548"><ele>282.0</ele><time>2026-04-25T17:21:24.192Z</time></trkpt><trkpt lat="45.1040426" lon="7.5969896"><ele>282.0</ele><time>2026-04-25T17:21:25.197Z</time></trkpt><trkpt lat="45.1039248" lon="7.5966443"><ele>282.0</ele><time>2026-04-25T17:21:26.196Z</time></trkpt><trkpt lat="45.1038241" lon="7.5963056"><ele>282.0</ele><time>2026-04-25T17:21:27.191Z</time></trkpt><trkpt lat="45.1037334" lon="7.5959736"><ele>282.0</ele><time>2026-04-25T17:21:28.196Z</time></trkpt><trkpt lat="45.103639" lon="7.5956296"><ele>282.0</ele><time>2026-04-25T17:21:29.196Z</time></trkpt><trkpt lat="45.1035482" lon="7.5952972"><ele>282.0</ele><time>2026-04-25T17:21:30.197Z</time></trkpt><trkpt lat="45.1034506" lon="7.5949758"><ele>282.0</ele><time>2026-04-25T17:21:31.197Z</time></trkpt><trkpt lat="45.1033604" lon="7.5946392"><ele>282.5</ele><time>2026-04-25T17:21:32.192Z</time></trkpt><trkpt lat="45.1032807" lon="7.5942923"><ele>283.0</ele><time>2026-04-25T17:21:33.194Z</time></trkpt><trkpt lat="45.1031929" lon="7.5939546"><ele>282.0</ele><time>2026-04-25T17:21:34.195Z</time></trkpt><trkpt lat="45.1031091" lon="7.5936217"><ele>281.0</ele><time>2026-04-25T17:21:35.186Z</time></trkpt><trkpt lat="45.1030094" lon="7.5932898"><ele>281.0</ele><time>2026-04-25T17:21:36.194Z</time></trkpt><trkpt lat="45.1029144" lon="7.5929434"><ele>281.0</ele><time>2026-04-25T17:21:37.196Z</time></trkpt><trkpt lat="45.1028076" lon="7.5926121"><ele>282.0</ele><time>2026-04-25T17:21:38.194Z</time></trkpt><trkpt lat="45.1027249" lon="7.5922684"><ele>283.0</ele><time>2026-04-25T17:21:39.192Z</time></trkpt><trkpt lat="45.1026326" lon="7.5919224"><ele>284.5</ele><time>2026-04-25T17:21:40.203Z</time></trkpt><trkpt lat="45.1025402" lon="7.5915707"><ele>286.0</ele><time>2026-04-25T17:21:41.189Z</time></trkpt><trkpt lat="45.1024436" lon="7.591218"><ele>285.5</ele><time>2026-04-25T17:21:42.19Z</time></trkpt><trkpt lat="45.1023445" lon="7.5908623"><ele>285.0</ele><time>2026-04-25T17:21:43.19Z</time></trkpt><trkpt lat="45.1022473" lon="7.5905171"><ele>283.5</ele><time>2026-04-25T17:21:44.189Z</time></trkpt><trkpt lat="45.1021475" lon="7.5901803"><ele>282.0</ele><time>2026-04-25T17:21:45.196Z</time></trkpt><trkpt lat="45.1020548" lon="7.5898432"><ele>283.0</ele><time>2026-04-25T17:21:46.188Z</time></trkpt><trkpt lat="45.1019561" lon="7.5895042"><ele>284.0</ele><time>2026-04-25T17:21:47.193Z</time></trkpt><trkpt lat="45.1018631" lon="7.5891662"><ele>284.0</ele><time>2026-04-25T17:21:48.19Z</time></trkpt><trkpt lat="45.1017816" lon="7.5888183"><ele>284.0</ele><time>2026-04-25T17:21:49.198Z</time></trkpt><trkpt lat="45.1016962" lon="7.5884894"><ele>285.0</ele><time>2026-04-25T17:21:50.196Z</time></trkpt><trkpt lat="45.101586" lon="7.588183"><ele>286.0</ele><time>2026-04-25T17:21:51.198Z</time></trkpt><trkpt lat="45.1014978" lon="7.5878699"><ele>286.0</ele><time>2026-04-25T17:21:52.187Z</time></trkpt><trkpt lat="45.1014089" lon="7.5875707"><ele>286.0</ele><time>2026-04-25T17:21:53.194Z</time></trkpt><trkpt lat="45.1013442" lon="7.5873076"><ele>286.0</ele><time>2026-04-25T17:21:54.191Z</time></trkpt><trkpt lat="45.1012885" lon="7.5870593"><ele>286.3333333333333</ele><time>2026-04-25T17:21:55.189Z</time></trkpt><trkpt lat="45.1012082" lon="7.586799"><ele>286.6666666666667</ele><time>2026-04-25T17:21:56.189Z</time></trkpt><trkpt lat="45.1011257" lon="7.5865416"><ele>287.0</ele><time>2026-04-25T17:21:57.192Z</time></trkpt><trkpt lat="45.1010537" lon="7.5862722"><ele>287.0</ele><time>2026-04-25T17:21:58.19Z</time></trkpt><trkpt lat="45.1009692" lon="7.5860021"><ele>287.0</ele><time>2026-04-25T17:21:59.195Z</time></trkpt><trkpt lat="45.1008948" lon="7.5857491"><ele>287.0</ele><time>2026-04-25T17:22:00.191Z</time></trkpt><trkpt lat="45.1008101" lon="7.5854628"><ele>287.0</ele><time>2026-04-25T17:22:01.192Z</time></trkpt><trkpt lat="45.100728" lon="7.5851846"><ele>287.0</ele><time>2026-04-25T17:22:02.194Z</time></trkpt><trkpt lat="45.1006572" lon="7.5849058"><ele>287.0</ele><time>2026-04-25T17:22:03.192Z</time></trkpt><trkpt lat="45.1005804" lon="7.5846323"><ele>286.6666666666667</ele><time>2026-04-25T17:22:04.192Z</time></trkpt><trkpt lat="45.1005018" lon="7.5843599"><ele>286.3333333333333</ele><time>2026-04-25T17:22:05.191Z</time></trkpt><trkpt lat="45.1004288" lon="7.5841034"><ele>286.0</ele><time>2026-04-25T17:22:06.195Z</time></trkpt><trkpt lat="45.1003424" lon="7.5838326"><ele>286.66666666666663</ele><time>2026-04-25T17:22:07.194Z</time></trkpt><trkpt lat="45.1002863" lon="7.5835454"><ele>287.3333333333333</ele><time>2026-04-25T17:22:08.195Z</time></trkpt><trkpt lat="45.1001996" lon="7.5832873"><ele>288.0</ele><time>2026-04-25T17:22:09.194Z</time></trkpt><trkpt lat="45.1001118" lon="7.5829909"><ele>288.3333333333333</ele><time>2026-04-25T17:22:10.192Z</time></trkpt><trkpt lat="45.1000332" lon="7.5827003"><ele>288.66666666666663</ele><time>2026-04-25T17:22:11.204Z</time></trkpt><trkpt lat="45.099961" lon="7.5824078"><ele>289.0</ele><time>2026-04-25T17:22:12.196Z</time></trkpt><trkpt lat="45.0998875" lon="7.5821084"><ele>288.5</ele><time>2026-04-25T17:22:13.195Z</time></trkpt><trkpt lat="45.0998077" lon="7.5818061"><ele>288.0</ele><time>2026-04-25T17:22:14.197Z</time></trkpt><trkpt lat="45.0997187" lon="7.5815165"><ele>288.0</ele><time>2026-04-25T17:22:15.195Z</time></trkpt><trkpt lat="45.0996479" lon="7.5812179"><ele>288.0</ele><time>2026-04-25T17:22:16.197Z</time></trkpt><trkpt lat="45.0995688" lon="7.5809132"><ele>289.0</ele><time>2026-04-25T17:22:17.197Z</time></trkpt><trkpt lat="45.0994923" lon="7.5806138"><ele>290.0</ele><time>2026-04-25T17:22:18.195Z</time></trkpt><trkpt lat="45.0993663" lon="7.5803209"><ele>291.0</ele><time>2026-04-25T17:22:19.194Z</time></trkpt><trkpt lat="45.0992708" lon="7.5800167"><ele>292.0</ele><time>2026-04-25T17:22:20.191Z</time></trkpt><trkpt lat="45.0991778" lon="7.5796768"><ele>292.0</ele><time>2026-04-25T17:22:21.197Z</time></trkpt><trkpt lat="45.0990765" lon="7.5793617"><ele>292.0</ele><time>2026-04-25T17:22:22.195Z</time></trkpt><trkpt lat="45.0989819" lon="7.5790207"><ele>293.0</ele><time>2026-04-25T17:22:23.197Z</time></trkpt><trkpt lat="45.0989044" lon="7.5786613"><ele>294.0</ele><time>2026-04-25T17:22:24.191Z</time></trkpt><trkpt lat="45.0988259" lon="7.5783071"><ele>294.0</ele><time>2026-04-25T17:22:25.198Z</time></trkpt><trkpt lat="45.0987239" lon="7.5779564"><ele>294.0</ele><time>2026-04-25T17:22:26.196Z</time></trkpt><trkpt lat="45.0986314" lon="7.5776174"><ele>294.5</ele><time>2026-04-25T17:22:27.197Z</time></trkpt><trkpt lat="45.0985265" lon="7.5772578"><ele>295.0</ele><time>2026-04-25T17:22:28.195Z</time></trkpt><trkpt lat="45.0984155" lon="7.5769248"><ele>294.5</ele><time>2026-04-25T17:22:29.196Z</time></trkpt><trkpt lat="45.0982966" lon="7.5765781"><ele>294.0</ele><time>2026-04-25T17:22:30.192Z</time></trkpt><trkpt lat="45.0981696" lon="7.5762602"><ele>295.0</ele><time>2026-04-25T17:22:31.192Z</time></trkpt><trkpt lat="45.0980409" lon="7.5759112"><ele>296.0</ele><time>2026-04-25T17:22:32.192Z</time></trkpt><trkpt lat="45.0979046" lon="7.5755713"><ele>296.0</ele><time>2026-04-25T17:22:33.191Z</time></trkpt><trkpt lat="45.0977518" lon="7.5752388"><ele>296.0</ele><time>2026-04-25T17:22:34.188Z</time></trkpt><trkpt lat="45.0975922" lon="7.5749221"><ele>296.0</ele><time>2026-04-25T17:22:35.19Z</time></trkpt><trkpt lat="45.0974318" lon="7.5746079"><ele>296.0</ele><time>2026-04-25T17:22:36.19Z</time></trkpt><trkpt lat="45.0972696" lon="7.5742985"><ele>296.0</ele><time>2026-04-25T17:22:37.187Z</time></trkpt><trkpt lat="45.0971059" lon="7.5740018"><ele>296.0</ele><time>2026-04-25T17:22:38.187Z</time></trkpt><trkpt lat="45.0969362" lon="7.5737267"><ele>296.0</ele><time>2026-04-25T17:22:39.188Z</time></trkpt><trkpt lat="45.0967669" lon="7.5734404"><ele>296.0</ele><time>2026-04-25T17:22:40.187Z</time></trkpt><trkpt lat="45.0965861" lon="7.5731737"><ele>296.5</ele><time>2026-04-25T17:22:41.187Z</time></trkpt><trkpt lat="45.096409" lon="7.5729109"><ele>297.0</ele><time>2026-04-25T17:22:42.2Z</time></trkpt><trkpt lat="45.096241" lon="7.5726528"><ele>297.5</ele><time>2026-04-25T17:22:43.188Z</time></trkpt><trkpt lat="45.0960387" lon="7.5724133"><ele>298.0</ele><time>2026-04-25T17:22:44.188Z</time></trkpt><trkpt lat="45.0958489" lon="7.5721772"><ele>297.5</ele><time>2026-04-25T17:22:45.191Z</time></trkpt><trkpt lat="45.0956647" lon="7.5719363"><ele>297.0</ele><time>2026-04-25T17:22:46.188Z</time></trkpt><trkpt lat="45.0954642" lon="7.5716857"><ele>297.0</ele><time>2026-04-25T17:22:47.19Z</time></trkpt><trkpt lat="45.0952691" lon="7.5714472"><ele>297.0</ele><time>2026-04-25T17:22:48.183Z</time></trkpt><trkpt lat="45.0950648" lon="7.5712119"><ele>298.0</ele><time>2026-04-25T17:22:49.186Z</time></trkpt><trkpt lat="45.0948744" lon="7.5709662"><ele>299.0</ele><time>2026-04-25T17:22:50.192Z</time></trkpt><trkpt lat="45.0946581" lon="7.5707187"><ele>299.0</ele><time>2026-04-25T17:22:51.198Z</time></trkpt><trkpt lat="45.0944409" lon="7.5704561"><ele>299.0</ele><time>2026-04-25T17:22:52.185Z</time></trkpt><trkpt lat="45.0942041" lon="7.5701713"><ele>300.0</ele><time>2026-04-25T17:22:53.193Z</time></trkpt><trkpt lat="45.0939584" lon="7.5698782"><ele>301.0</ele><time>2026-04-25T17:22:54.185Z</time></trkpt><trkpt lat="45.0937281" lon="7.5695636"><ele>301.5</ele><time>2026-04-25T17:22:55.189Z</time></trkpt><trkpt lat="45.0935012" lon="7.5692549"><ele>302.0</ele><time>2026-04-25T17:22:56.184Z</time></trkpt><trkpt lat="45.0932657" lon="7.5689581"><ele>300.5</ele><time>2026-04-25T17:22:57.186Z</time></trkpt><trkpt lat="45.0930345" lon="7.5686382"><ele>299.0</ele><time>2026-04-25T17:22:58.188Z</time></trkpt><trkpt lat="45.0928023" lon="7.5683407"><ele>299.0</ele><time>2026-04-25T17:22:59.191Z</time></trkpt><trkpt lat="45.0925666" lon="7.5680571"><ele>299.0</ele><time>2026-04-25T17:23:00.184Z</time></trkpt><trkpt lat="45.0923266" lon="7.5677745"><ele>298.0</ele><time>2026-04-25T17:23:01.187Z</time></trkpt><trkpt lat="45.0920909" lon="7.5674949"><ele>297.0</ele><time>2026-04-25T17:23:02.187Z</time></trkpt><trkpt lat="45.0918781" lon="7.5671928"><ele>298.0</ele><time>2026-04-25T17:23:03.188Z</time></trkpt><trkpt lat="45.0916585" lon="7.5669206"><ele>299.0</ele><time>2026-04-25T17:23:04.189Z</time></trkpt><trkpt lat="45.0914423" lon="7.5666426"><ele>297.0</ele><time>2026-04-25T17:23:05.191Z</time></trkpt><trkpt lat="45.0912156" lon="7.5663681"><ele>295.0</ele><time>2026-04-25T17:23:06.19Z</time></trkpt><trkpt lat="45.0909938" lon="7.5660908"><ele>294.5</ele><time>2026-04-25T17:23:07.191Z</time></trkpt><trkpt lat="45.0907759" lon="7.565812"><ele>294.0</ele><time>2026-04-25T17:23:08.19Z</time></trkpt><trkpt lat="45.0905515" lon="7.5655538"><ele>293.5</ele><time>2026-04-25T17:23:09.191Z</time></trkpt><trkpt lat="45.0903406" lon="7.5652557"><ele>293.0</ele><time>2026-04-25T17:23:10.19Z</time></trkpt><trkpt lat="45.0901288" lon="7.5649714"><ele>292.5</ele><time>2026-04-25T17:23:11.19Z</time></trkpt><trkpt lat="45.0899143" lon="7.5647066"><ele>292.0</ele><time>2026-04-25T17:23:12.187Z</time></trkpt><trkpt lat="45.0897038" lon="7.5644425"><ele>293.0</ele><time>2026-04-25T17:23:13.199Z</time></trkpt><trkpt lat="45.0894985" lon="7.5641714"><ele>294.0</ele><time>2026-04-25T17:23:14.191Z</time></trkpt><trkpt lat="45.089287" lon="7.5639075"><ele>293.5</ele><time>2026-04-25T17:23:15.189Z</time></trkpt><trkpt lat="45.0890775" lon="7.5636448"><ele>293.0</ele><time>2026-04-25T17:23:16.193Z</time></trkpt><trkpt lat="45.0888607" lon="7.5633762"><ele>293.0</ele><time>2026-04-25T17:23:17.188Z</time></trkpt><trkpt lat="45.0886686" lon="7.5631066"><ele>293.0</ele><time>2026-04-25T17:23:18.187Z</time></trkpt><trkpt lat="45.0884685" lon="7.5628317"><ele>293.0</ele><time>2026-04-25T17:23:19.194Z</time></trkpt><trkpt lat="45.0882695" lon="7.5625835"><ele>293.0</ele><time>2026-04-25T17:23:20.186Z</time></trkpt><trkpt lat="45.0880642" lon="7.5623493"><ele>295.0</ele><time>2026-04-25T17:23:21.19Z</time></trkpt><trkpt lat="45.0878604" lon="7.5621152"><ele>297.0</ele><time>2026-04-25T17:23:22.186Z</time></trkpt><trkpt lat="45.0876661" lon="7.5618511"><ele>297.5</ele><time>2026-04-25T17:23:23.192Z</time></trkpt><trkpt lat="45.0874707" lon="7.5616132"><ele>298.0</ele><time>2026-04-25T17:23:24.186Z</time></trkpt><trkpt lat="45.0872662" lon="7.5613657"><ele>302.0</ele><time>2026-04-25T17:23:25.192Z</time></trkpt><trkpt lat="45.0870684" lon="7.5611059"><ele>306.0</ele><time>2026-04-25T17:23:26.184Z</time></trkpt><trkpt lat="45.0868698" lon="7.5608424"><ele>306.0</ele><time>2026-04-25T17:23:27.188Z</time></trkpt><trkpt lat="45.0866573" lon="7.5605822"><ele>306.0</ele><time>2026-04-25T17:23:28.193Z</time></trkpt><trkpt lat="45.0864582" lon="7.5603264"><ele>308.5</ele><time>2026-04-25T17:23:29.187Z</time></trkpt><trkpt lat="45.0862595" lon="7.5600726"><ele>311.0</ele><time>2026-04-25T17:23:30.188Z</time></trkpt><trkpt lat="45.0860513" lon="7.559826"><ele>310.5</ele><time>2026-04-25T17:23:31.187Z</time></trkpt><trkpt lat="45.0858473" lon="7.5595324"><ele>310.0</ele><time>2026-04-25T17:23:32.185Z</time></trkpt><trkpt lat="45.0856399" lon="7.5592665"><ele>312.5</ele><time>2026-04-25T17:23:33.186Z</time></trkpt><trkpt lat="45.0854266" lon="7.5590063"><ele>315.0</ele><time>2026-04-25T17:23:34.191Z</time></trkpt><trkpt lat="45.0852141" lon="7.5587394"><ele>314.5</ele><time>2026-04-25T17:23:35.185Z</time></trkpt><trkpt lat="45.084996" lon="7.5584664"><ele>314.0</ele><time>2026-04-25T17:23:36.185Z</time></trkpt><trkpt lat="45.0847951" lon="7.5581975"><ele>313.5</ele><time>2026-04-25T17:23:37.185Z</time></trkpt><trkpt lat="45.0845835" lon="7.5579368"><ele>313.0</ele><time>2026-04-25T17:23:38.186Z</time></trkpt><trkpt lat="45.0843756" lon="7.5576816"><ele>313.0</ele><time>2026-04-25T17:23:39.186Z</time></trkpt><trkpt lat="45.0841694" lon="7.5574238"><ele>313.0</ele><time>2026-04-25T17:23:40.188Z</time></trkpt><trkpt lat="45.0839629" lon="7.5571606"><ele>314.0</ele><time>2026-04-25T17:23:41.188Z</time></trkpt><trkpt lat="45.0837564" lon="7.5568963"><ele>315.0</ele><time>2026-04-25T17:23:42.189Z</time></trkpt><trkpt lat="45.0835643" lon="7.5566202"><ele>315.0</ele><time>2026-04-25T17:23:43.195Z</time></trkpt><trkpt lat="45.0833784" lon="7.5563347"><ele>315.0</ele><time>2026-04-25T17:23:44.203Z</time></trkpt><trkpt lat="45.0831963" lon="7.5560444"><ele>316.0</ele><time>2026-04-25T17:23:45.193Z</time></trkpt><trkpt lat="45.0830255" lon="7.5557494"><ele>317.0</ele><time>2026-04-25T17:23:46.188Z</time></trkpt><trkpt lat="45.0828493" lon="7.555438"><ele>317.0</ele><time>2026-04-25T17:23:47.192Z</time></trkpt><trkpt lat="45.0826847" lon="7.5551246"><ele>317.0</ele><time>2026-04-25T17:23:48.195Z</time></trkpt><trkpt lat="45.0825235" lon="7.5548203"><ele>316.0</ele><time>2026-04-25T17:23:49.196Z</time></trkpt><trkpt lat="45.0823798" lon="7.5544948"><ele>315.0</ele><time>2026-04-25T17:23:50.195Z</time></trkpt><trkpt lat="45.0822438" lon="7.554185"><ele>315.0</ele><time>2026-04-25T17:23:51.192Z</time></trkpt><trkpt lat="45.0821258" lon="7.5538621"><ele>315.0</ele><time>2026-04-25T17:23:52.195Z</time></trkpt><trkpt lat="45.0820088" lon="7.5535365"><ele>315.5</ele><time>2026-04-25T17:23:53.197Z</time></trkpt><trkpt lat="45.0818884" lon="7.5532424"><ele>316.0</ele><time>2026-04-25T17:23:54.194Z</time></trkpt><trkpt lat="45.0817927" lon="7.5529433"><ele>317.3333333333333</ele><time>2026-04-25T17:23:55.196Z</time></trkpt><trkpt lat="45.0817103" lon="7.5526655"><ele>318.6666666666667</ele><time>2026-04-25T17:23:56.192Z</time></trkpt><trkpt lat="45.0816256" lon="7.552365"><ele>320.0</ele><time>2026-04-25T17:23:57.194Z</time></trkpt><trkpt lat="45.0815415" lon="7.5520711"><ele>316.0</ele><time>2026-04-25T17:23:58.196Z</time></trkpt><trkpt lat="45.0814648" lon="7.5517481"><ele>312.0</ele><time>2026-04-25T17:23:59.192Z</time></trkpt><trkpt lat="45.0814135" lon="7.551426"><ele>313.5</ele><time>2026-04-25T17:24:00.192Z</time></trkpt><trkpt lat="45.0813361" lon="7.5510934"><ele>315.0</ele><time>2026-04-25T17:24:01.196Z</time></trkpt><trkpt lat="45.0812477" lon="7.5507697"><ele>315.0</ele><time>2026-04-25T17:24:02.192Z</time></trkpt><trkpt lat="45.0811352" lon="7.550473"><ele>315.0</ele><time>2026-04-25T17:24:03.192Z</time></trkpt><trkpt lat="45.0810072" lon="7.5501478"><ele>315.5</ele><time>2026-04-25T17:24:04.188Z</time></trkpt><trkpt lat="45.0808723" lon="7.5498586"><ele>316.0</ele><time>2026-04-25T17:24:05.186Z</time></trkpt><trkpt lat="45.0807349" lon="7.5496038"><ele>317.5</ele><time>2026-04-25T17:24:06.186Z</time></trkpt><trkpt lat="45.0805588" lon="7.5493545"><ele>319.0</ele><time>2026-04-25T17:24:07.18Z</time></trkpt><trkpt lat="45.0803622" lon="7.5491424"><ele>319.0</ele><time>2026-04-25T17:24:08.185Z</time></trkpt><trkpt lat="45.0801708" lon="7.5489657"><ele>319.0</ele><time>2026-04-25T17:24:09.188Z</time></trkpt><trkpt lat="45.0799784" lon="7.5488139"><ele>319.0</ele><time>2026-04-25T17:24:10.187Z</time></trkpt><trkpt lat="45.0797534" lon="7.5486861"><ele>321.0</ele><time>2026-04-25T17:24:11.184Z</time></trkpt><trkpt lat="45.0795311" lon="7.5485588"><ele>323.0</ele><time>2026-04-25T17:24:12.186Z</time></trkpt><trkpt lat="45.0792946" lon="7.5484638"><ele>323.5</ele><time>2026-04-25T17:24:13.186Z</time></trkpt><trkpt lat="45.0790433" lon="7.5484132"><ele>324.0</ele><time>2026-04-25T17:24:14.186Z</time></trkpt><trkpt lat="45.0787976" lon="7.548351"><ele>324.0</ele><time>2026-04-25T17:24:15.204Z</time></trkpt><trkpt lat="45.0785447" lon="7.5482622"><ele>324.0</ele><time>2026-04-25T17:24:16.197Z</time></trkpt><trkpt lat="45.0782946" lon="7.5481829"><ele>323.5</ele><time>2026-04-25T17:24:17.196Z</time></trkpt><trkpt lat="45.0780554" lon="7.5480869"><ele>323.0</ele><time>2026-04-25T17:24:18.193Z</time></trkpt><trkpt lat="45.0778165" lon="7.5480083"><ele>323.0</ele><time>2026-04-25T17:24:19.195Z</time></trkpt><trkpt lat="45.0775551" lon="7.5479472"><ele>323.0</ele><time>2026-04-25T17:24:20.192Z</time></trkpt><trkpt lat="45.0772994" lon="7.5478819"><ele>325.5</ele><time>2026-04-25T17:24:21.199Z</time></trkpt><trkpt lat="45.077029" lon="7.5478392"><ele>328.0</ele><time>2026-04-25T17:24:22.188Z</time></trkpt><trkpt lat="45.0767835" lon="7.5477619"><ele>328.0</ele><time>2026-04-25T17:24:23.201Z</time></trkpt><trkpt lat="45.0765145" lon="7.5476855"><ele>328.0</ele><time>2026-04-25T17:24:24.195Z</time></trkpt><trkpt lat="45.0762278" lon="7.5475944"><ele>328.0</ele><time>2026-04-25T17:24:25.201Z</time></trkpt><trkpt lat="45.0759361" lon="7.5475002"><ele>328.0</ele><time>2026-04-25T17:24:26.195Z</time></trkpt><trkpt lat="45.0756402" lon="7.5474007"><ele>326.0</ele><time>2026-04-25T17:24:27.193Z</time></trkpt><trkpt lat="45.0753436" lon="7.5473099"><ele>324.0</ele><time>2026-04-25T17:24:28.196Z</time></trkpt><trkpt lat="45.0750697" lon="7.5472094"><ele>323.0</ele><time>2026-04-25T17:24:29.202Z</time></trkpt><trkpt lat="45.0747873" lon="7.5471356"><ele>322.0</ele><time>2026-04-25T17:24:30.194Z</time></trkpt><trkpt lat="45.0745089" lon="7.5470419"><ele>324.0</ele><time>2026-04-25T17:24:31.199Z</time></trkpt><trkpt lat="45.0742583" lon="7.5469631"><ele>326.0</ele><time>2026-04-25T17:24:32.194Z</time></trkpt><trkpt lat="45.074004" lon="7.5468511"><ele>326.0</ele><time>2026-04-25T17:24:33.192Z</time></trkpt><trkpt lat="45.0737582" lon="7.5467855"><ele>326.0</ele><time>2026-04-25T17:24:34.191Z</time></trkpt><trkpt lat="45.073513" lon="7.5467121"><ele>324.5</ele><time>2026-04-25T17:24:35.191Z</time></trkpt><trkpt lat="45.0732541" lon="7.5466328"><ele>323.0</ele><time>2026-04-25T17:24:36.192Z</time></trkpt><trkpt lat="45.0729823" lon="7.5465658"><ele>323.0</ele><time>2026-04-25T17:24:37.19Z</time></trkpt><trkpt lat="45.0727249" lon="7.5464862"><ele>323.0</ele><time>2026-04-25T17:24:38.195Z</time></trkpt><trkpt lat="45.0724508" lon="7.5464212"><ele>323.5</ele><time>2026-04-25T17:24:39.192Z</time></trkpt><trkpt lat="45.0721852" lon="7.5463437"><ele>324.0</ele><time>2026-04-25T17:24:40.192Z</time></trkpt><trkpt lat="45.0719123" lon="7.5462609"><ele>324.5</ele><time>2026-04-25T17:24:41.193Z</time></trkpt><trkpt lat="45.0716557" lon="7.5461759"><ele>325.0</ele><time>2026-04-25T17:24:42.195Z</time></trkpt><trkpt lat="45.0714072" lon="7.5460834"><ele>325.0</ele><time>2026-04-25T17:24:43.19Z</time></trkpt><trkpt lat="45.0711515" lon="7.5459877"><ele>325.0</ele><time>2026-04-25T17:24:44.192Z</time></trkpt><trkpt lat="45.0709091" lon="7.5459064"><ele>325.0</ele><time>2026-04-25T17:24:45.189Z</time></trkpt><trkpt lat="45.0706701" lon="7.5458251"><ele>325.0</ele><time>2026-04-25T17:24:46.203Z</time></trkpt><trkpt lat="45.0704307" lon="7.5457657"><ele>325.0</ele><time>2026-04-25T17:24:47.191Z</time></trkpt><trkpt lat="45.0701893" lon="7.5456926"><ele>325.0</ele><time>2026-04-25T17:24:48.191Z</time></trkpt><trkpt lat="45.0699418" lon="7.5456322"><ele>324.0</ele><time>2026-04-25T17:24:49.196Z</time></trkpt><trkpt lat="45.0696863" lon="7.5455485"><ele>323.0</ele><time>2026-04-25T17:24:50.191Z</time></trkpt><trkpt lat="45.0694415" lon="7.5454788"><ele>323.0</ele><time>2026-04-25T17:24:51.191Z</time></trkpt><trkpt lat="45.0691972" lon="7.5453903"><ele>323.0</ele><time>2026-04-25T17:24:52.193Z</time></trkpt><trkpt lat="45.068948" lon="7.5453142"><ele>322.6666666666667</ele><time>2026-04-25T17:24:53.201Z</time></trkpt><trkpt lat="45.0687265" lon="7.5452423"><ele>322.3333333333333</ele><time>2026-04-25T17:24:54.188Z</time></trkpt><trkpt lat="45.0685196" lon="7.5451835"><ele>322.0</ele><time>2026-04-25T17:24:55.19Z</time></trkpt><trkpt lat="45.0683102" lon="7.5451214"><ele>321.0</ele><time>2026-04-25T17:24:56.191Z</time></trkpt><trkpt lat="45.0681042" lon="7.5450546"><ele>320.0</ele><time>2026-04-25T17:24:57.19Z</time></trkpt><trkpt lat="45.0679063" lon="7.5449836"><ele>319.0</ele><time>2026-04-25T17:24:58.191Z</time></trkpt><trkpt lat="45.067681" lon="7.5449171"><ele>319.0</ele><time>2026-04-25T17:24:59.189Z</time></trkpt><trkpt lat="45.0674574" lon="7.5448683"><ele>319.0</ele><time>2026-04-25T17:25:00.189Z</time></trkpt><trkpt lat="45.0672184" lon="7.5448028"><ele>319.0</ele><time>2026-04-25T17:25:01.188Z</time></trkpt><trkpt lat="45.0669688" lon="7.5447418"><ele>319.0</ele><time>2026-04-25T17:25:02.193Z</time></trkpt><trkpt lat="45.0666901" lon="7.5446537"><ele>318.0</ele><time>2026-04-25T17:25:03.189Z</time></trkpt><trkpt lat="45.0664242" lon="7.544564"><ele>317.0</ele><time>2026-04-25T17:25:04.189Z</time></trkpt><trkpt lat="45.0661526" lon="7.5444706"><ele>317.5</ele><time>2026-04-25T17:25:05.189Z</time></trkpt><trkpt lat="45.0658802" lon="7.5443873"><ele>318.0</ele><time>2026-04-25T17:25:06.19Z</time></trkpt><trkpt lat="45.0655723" lon="7.5443021"><ele>318.0</ele><time>2026-04-25T17:25:07.193Z</time></trkpt><trkpt lat="45.065257" lon="7.5442171"><ele>318.0</ele><time>2026-04-25T17:25:08.188Z</time></trkpt><trkpt lat="45.0649493" lon="7.5441236"><ele>317.5</ele><time>2026-04-25T17:25:09.189Z</time></trkpt><trkpt lat="45.0646621" lon="7.5440398"><ele>317.0</ele><time>2026-04-25T17:25:10.196Z</time></trkpt><trkpt lat="45.0643737" lon="7.5439423"><ele>316.0</ele><time>2026-04-25T17:25:11.19Z</time></trkpt><trkpt lat="45.0640787" lon="7.5438448"><ele>315.0</ele><time>2026-04-25T17:25:12.191Z</time></trkpt><trkpt lat="45.0637897" lon="7.5437514"><ele>315.0</ele><time>2026-04-25T17:25:13.183Z</time></trkpt><trkpt lat="45.0634939" lon="7.5436548"><ele>315.0</ele><time>2026-04-25T17:25:14.182Z</time></trkpt><trkpt lat="45.063203" lon="7.5435675"><ele>313.5</ele><time>2026-04-25T17:25:15.187Z</time></trkpt><trkpt lat="45.0629109" lon="7.5434899"><ele>312.0</ele><time>2026-04-25T17:25:16.183Z</time></trkpt><trkpt lat="45.0626213" lon="7.5434052"><ele>313.0</ele><time>2026-04-25T17:25:17.198Z</time></trkpt><trkpt lat="45.062336" lon="7.5433426"><ele>314.0</ele><time>2026-04-25T17:25:18.187Z</time></trkpt><trkpt lat="45.0620602" lon="7.5433261"><ele>314.0</ele><time>2026-04-25T17:25:19.181Z</time></trkpt><trkpt lat="45.061782" lon="7.5433155"><ele>314.0</ele><time>2026-04-25T17:25:20.184Z</time></trkpt><trkpt lat="45.0615023" lon="7.5433148"><ele>313.5</ele><time>2026-04-25T17:25:21.183Z</time></trkpt><trkpt lat="45.0612261" lon="7.5433198"><ele>313.0</ele><time>2026-04-25T17:25:22.187Z</time></trkpt><trkpt lat="45.0609488" lon="7.5433209"><ele>313.5</ele><time>2026-04-25T17:25:23.194Z</time></trkpt><trkpt lat="45.0606657" lon="7.5433656"><ele>314.0</ele><time>2026-04-25T17:25:24.186Z</time></trkpt><trkpt lat="45.0604029" lon="7.543423"><ele>314.0</ele><time>2026-04-25T17:25:25.187Z</time></trkpt><trkpt lat="45.0601401" lon="7.5434838"><ele>314.0</ele><time>2026-04-25T17:25:26.19Z</time></trkpt><trkpt lat="45.0598714" lon="7.54356"><ele>315.0</ele><time>2026-04-25T17:25:27.191Z</time></trkpt><trkpt lat="45.05959" lon="7.5436521"><ele>316.0</ele><time>2026-04-25T17:25:28.19Z</time></trkpt><trkpt lat="45.0593195" lon="7.543746"><ele>313.5</ele><time>2026-04-25T17:25:29.194Z</time></trkpt><trkpt lat="45.0590415" lon="7.5438434"><ele>311.0</ele><time>2026-04-25T17:25:30.192Z</time></trkpt><trkpt lat="45.058769" lon="7.5439299"><ele>311.0</ele><time>2026-04-25T17:25:31.187Z</time></trkpt><trkpt lat="45.0584819" lon="7.5440249"><ele>311.0</ele><time>2026-04-25T17:25:32.191Z</time></trkpt><trkpt lat="45.0581871" lon="7.5441211"><ele>311.0</ele><time>2026-04-25T17:25:33.186Z</time></trkpt><trkpt lat="45.0579063" lon="7.5442237"><ele>311.0</ele><time>2026-04-25T17:25:34.183Z</time></trkpt><trkpt lat="45.0576123" lon="7.5443248"><ele>310.0</ele><time>2026-04-25T17:25:35.19Z</time></trkpt><trkpt lat="45.0573006" lon="7.5444221"><ele>309.0</ele><time>2026-04-25T17:25:36.188Z</time></trkpt><trkpt lat="45.0569864" lon="7.5445281"><ele>309.0</ele><time>2026-04-25T17:25:37.187Z</time></trkpt><trkpt lat="45.0566916" lon="7.5446369"><ele>309.0</ele><time>2026-04-25T17:25:38.187Z</time></trkpt><trkpt lat="45.0563961" lon="7.5447378"><ele>308.5</ele><time>2026-04-25T17:25:39.191Z</time></trkpt><trkpt lat="45.0560827" lon="7.5448478"><ele>308.0</ele><time>2026-04-25T17:25:40.189Z</time></trkpt><trkpt lat="45.055781" lon="7.5449517"><ele>308.0</ele><time>2026-04-25T17:25:41.192Z</time></trkpt><trkpt lat="45.0554648" lon="7.5450685"><ele>308.0</ele><time>2026-04-25T17:25:42.188Z</time></trkpt><trkpt lat="45.0551661" lon="7.5451804"><ele>308.0</ele><time>2026-04-25T17:25:43.187Z</time></trkpt><trkpt lat="45.0548613" lon="7.5452717"><ele>308.0</ele><time>2026-04-25T17:25:44.191Z</time></trkpt><trkpt lat="45.0545314" lon="7.545392"><ele>308.0</ele><time>2026-04-25T17:25:45.19Z</time></trkpt><trkpt lat="45.0542326" lon="7.5454977"><ele>308.0</ele><time>2026-04-25T17:25:46.187Z</time></trkpt><trkpt lat="45.0539322" lon="7.5456017"><ele>308.0</ele><time>2026-04-25T17:25:47.201Z</time></trkpt><trkpt lat="45.0536239" lon="7.5457139"><ele>308.0</ele><time>2026-04-25T17:25:48.198Z</time></trkpt><trkpt lat="45.0533062" lon="7.5458175"><ele>307.5</ele><time>2026-04-25T17:25:49.19Z</time></trkpt><trkpt lat="45.0530015" lon="7.5459062"><ele>307.0</ele><time>2026-04-25T17:25:50.189Z</time></trkpt><trkpt lat="45.0526848" lon="7.5460245"><ele>307.5</ele><time>2026-04-25T17:25:51.189Z</time></trkpt><trkpt lat="45.0523499" lon="7.5461141"><ele>308.0</ele><time>2026-04-25T17:25:52.184Z</time></trkpt><trkpt lat="45.0520402" lon="7.5462336"><ele>308.0</ele><time>2026-04-25T17:25:53.197Z</time></trkpt><trkpt lat="45.0517431" lon="7.546349"><ele>308.0</ele><time>2026-04-25T17:25:54.184Z</time></trkpt><trkpt lat="45.0514418" lon="7.5464526"><ele>306.5</ele><time>2026-04-25T17:25:55.182Z</time></trkpt><trkpt lat="45.0511383" lon="7.5465524"><ele>305.0</ele><time>2026-04-25T17:25:56.196Z</time></trkpt><trkpt lat="45.0508381" lon="7.5466599"><ele>304.5</ele><time>2026-04-25T17:25:57.191Z</time></trkpt><trkpt lat="45.0505373" lon="7.54676"><ele>304.0</ele><time>2026-04-25T17:25:58.194Z</time></trkpt><trkpt lat="45.0502324" lon="7.5468625"><ele>303.0</ele><time>2026-04-25T17:25:59.204Z</time></trkpt><trkpt lat="45.0499375" lon="7.5469648"><ele>302.0</ele><time>2026-04-25T17:26:00.194Z</time></trkpt><trkpt lat="45.0496293" lon="7.5470648"><ele>301.5</ele><time>2026-04-25T17:26:01.195Z</time></trkpt><trkpt lat="45.04933" lon="7.5471773"><ele>301.0</ele><time>2026-04-25T17:26:02.195Z</time></trkpt><trkpt lat="45.0490307" lon="7.5472851"><ele>301.0</ele><time>2026-04-25T17:26:03.192Z</time></trkpt><trkpt lat="45.0487228" lon="7.5473893"><ele>301.0</ele><time>2026-04-25T17:26:04.193Z</time></trkpt><trkpt lat="45.048421" lon="7.5474931"><ele>300.5</ele><time>2026-04-25T17:26:05.19Z</time></trkpt><trkpt lat="45.0481246" lon="7.547595"><ele>300.0</ele><time>2026-04-25T17:26:06.192Z</time></trkpt><trkpt lat="45.0478235" lon="7.5477022"><ele>300.0</ele><time>2026-04-25T17:26:07.19Z</time></trkpt><trkpt lat="45.0475211" lon="7.5478131"><ele>300.0</ele><time>2026-04-25T17:26:08.191Z</time></trkpt><trkpt lat="45.0472263" lon="7.5479287"><ele>298.0</ele><time>2026-04-25T17:26:09.191Z</time></trkpt><trkpt lat="45.0469426" lon="7.5480398"><ele>296.0</ele><time>2026-04-25T17:26:10.195Z</time></trkpt><trkpt lat="45.0466587" lon="7.5481678"><ele>297.0</ele><time>2026-04-25T17:26:11.191Z</time></trkpt><trkpt lat="45.0463754" lon="7.5483197"><ele>298.0</ele><time>2026-04-25T17:26:12.188Z</time></trkpt><trkpt lat="45.0460625" lon="7.548522"><ele>297.5</ele><time>2026-04-25T17:26:13.196Z</time></trkpt><trkpt lat="45.0457868" lon="7.5487444"><ele>297.0</ele><time>2026-04-25T17:26:14.195Z</time></trkpt><trkpt lat="45.045491" lon="7.5489503"><ele>297.0</ele><time>2026-04-25T17:26:15.192Z</time></trkpt><trkpt lat="45.0452002" lon="7.5491624"><ele>297.0</ele><time>2026-04-25T17:26:16.19Z</time></trkpt><trkpt lat="45.0449386" lon="7.5493961"><ele>294.0</ele><time>2026-04-25T17:26:17.189Z</time></trkpt><trkpt lat="45.0446653" lon="7.5496421"><ele>291.0</ele><time>2026-04-25T17:26:18.188Z</time></trkpt><trkpt lat="45.0443982" lon="7.5499009"><ele>291.0</ele><time>2026-04-25T17:26:19.21Z</time></trkpt><trkpt lat="45.0441459" lon="7.5501785"><ele>291.0</ele><time>2026-04-25T17:26:20.197Z</time></trkpt><trkpt lat="45.0438938" lon="7.5504755"><ele>293.0</ele><time>2026-04-25T17:26:21.194Z</time></trkpt><trkpt lat="45.043653" lon="7.5507634"><ele>295.0</ele><time>2026-04-25T17:26:22.193Z</time></trkpt><trkpt lat="45.0434165" lon="7.5510824"><ele>294.5</ele><time>2026-04-25T17:26:23.2Z</time></trkpt><trkpt lat="45.0431824" lon="7.5513831"><ele>294.0</ele><time>2026-04-25T17:26:24.196Z</time></trkpt><trkpt lat="45.0429596" lon="7.5517122"><ele>294.0</ele><time>2026-04-25T17:26:25.199Z</time></trkpt><trkpt lat="45.0427547" lon="7.5520398"><ele>294.0</ele><time>2026-04-25T17:26:26.197Z</time></trkpt><trkpt lat="45.042568" lon="7.5523977"><ele>292.5</ele><time>2026-04-25T17:26:27.196Z</time></trkpt><trkpt lat="45.0423837" lon="7.5527542"><ele>291.0</ele><time>2026-04-25T17:26:28.195Z</time></trkpt><trkpt lat="45.0422222" lon="7.5531232"><ele>291.0</ele><time>2026-04-25T17:26:29.199Z</time></trkpt><trkpt lat="45.0420469" lon="7.5534867"><ele>291.0</ele><time>2026-04-25T17:26:30.198Z</time></trkpt><trkpt lat="45.0418796" lon="7.5538662"><ele>290.5</ele><time>2026-04-25T17:26:31.197Z</time></trkpt><trkpt lat="45.0417303" lon="7.5542378"><ele>290.0</ele><time>2026-04-25T17:26:32.196Z</time></trkpt><trkpt lat="45.041608" lon="7.5546028"><ele>289.5</ele><time>2026-04-25T17:26:33.197Z</time></trkpt><trkpt lat="45.0414745" lon="7.5549672"><ele>289.0</ele><time>2026-04-25T17:26:34.197Z</time></trkpt><trkpt lat="45.0413694" lon="7.5553259"><ele>289.5</ele><time>2026-04-25T17:26:35.199Z</time></trkpt><trkpt lat="45.0412631" lon="7.55568"><ele>290.0</ele><time>2026-04-25T17:26:36.197Z</time></trkpt><trkpt lat="45.0411662" lon="7.5560409"><ele>290.0</ele><time>2026-04-25T17:26:37.199Z</time></trkpt><trkpt lat="45.0410701" lon="7.5564026"><ele>290.0</ele><time>2026-04-25T17:26:38.199Z</time></trkpt><trkpt lat="45.0409835" lon="7.5567499"><ele>290.0</ele><time>2026-04-25T17:26:39.194Z</time></trkpt><trkpt lat="45.0408596" lon="7.5571292"><ele>290.0</ele><time>2026-04-25T17:26:40.198Z</time></trkpt><trkpt lat="45.0407507" lon="7.5574939"><ele>290.0</ele><time>2026-04-25T17:26:41.193Z</time></trkpt><trkpt lat="45.0406452" lon="7.5578533"><ele>290.0</ele><time>2026-04-25T17:26:42.189Z</time></trkpt><trkpt lat="45.0405364" lon="7.55821"><ele>289.0</ele><time>2026-04-25T17:26:43.187Z</time></trkpt><trkpt lat="45.0404162" lon="7.5585952"><ele>288.0</ele><time>2026-04-25T17:26:44.188Z</time></trkpt><trkpt lat="45.0403468" lon="7.5589339"><ele>288.0</ele><time>2026-04-25T17:26:45.188Z</time></trkpt><trkpt lat="45.0402717" lon="7.5592872"><ele>288.0</ele><time>2026-04-25T17:26:46.193Z</time></trkpt><trkpt lat="45.0401773" lon="7.559643"><ele>288.0</ele><time>2026-04-25T17:26:47.195Z</time></trkpt><trkpt lat="45.0400764" lon="7.5600049"><ele>288.0</ele><time>2026-04-25T17:26:48.194Z</time></trkpt><trkpt lat="45.0399801" lon="7.5603625"><ele>287.0</ele><time>2026-04-25T17:26:49.191Z</time></trkpt><trkpt lat="45.0398726" lon="7.5607102"><ele>286.0</ele><time>2026-04-25T17:26:50.201Z</time></trkpt><trkpt lat="45.0397754" lon="7.5610855"><ele>285.0</ele><time>2026-04-25T17:26:51.189Z</time></trkpt><trkpt lat="45.0396685" lon="7.5614534"><ele>284.0</ele><time>2026-04-25T17:26:52.187Z</time></trkpt><trkpt lat="45.0395683" lon="7.5618156"><ele>283.5</ele><time>2026-04-25T17:26:53.198Z</time></trkpt><trkpt lat="45.0394617" lon="7.5621687"><ele>283.0</ele><time>2026-04-25T17:26:54.187Z</time></trkpt><trkpt lat="45.0393811" lon="7.5625269"><ele>284.5</ele><time>2026-04-25T17:26:55.192Z</time></trkpt><trkpt lat="45.0392732" lon="7.5628985"><ele>286.0</ele><time>2026-04-25T17:26:56.188Z</time></trkpt><trkpt lat="45.0391751" lon="7.5632383"><ele>285.5</ele><time>2026-04-25T17:26:57.186Z</time></trkpt><trkpt lat="45.0390797" lon="7.5635972"><ele>285.0</ele><time>2026-04-25T17:26:58.187Z</time></trkpt><trkpt lat="45.0389887" lon="7.5639391"><ele>284.5</ele><time>2026-04-25T17:26:59.192Z</time></trkpt><trkpt lat="45.0389077" lon="7.564287"><ele>284.0</ele><time>2026-04-25T17:27:00.189Z</time></trkpt><trkpt lat="45.0387927" lon="7.5646378"><ele>284.0</ele><time>2026-04-25T17:27:01.19Z</time></trkpt><trkpt lat="45.0387022" lon="7.5649823"><ele>284.0</ele><time>2026-04-25T17:27:02.184Z</time></trkpt><trkpt lat="45.0386066" lon="7.5653059"><ele>284.5</ele><time>2026-04-25T17:27:03.19Z</time></trkpt><trkpt lat="45.0385094" lon="7.5656606"><ele>285.0</ele><time>2026-04-25T17:27:04.187Z</time></trkpt><trkpt lat="45.0384003" lon="7.5660107"><ele>284.5</ele><time>2026-04-25T17:27:05.186Z</time></trkpt><trkpt lat="45.0383065" lon="7.5663752"><ele>284.0</ele><time>2026-04-25T17:27:06.185Z</time></trkpt><trkpt lat="45.0382068" lon="7.5667433"><ele>281.0</ele><time>2026-04-25T17:27:07.187Z</time></trkpt><trkpt lat="45.038111" lon="7.5670985"><ele>278.0</ele><time>2026-04-25T17:27:08.187Z</time></trkpt><trkpt lat="45.0380132" lon="7.5674437"><ele>278.0</ele><time>2026-04-25T17:27:09.188Z</time></trkpt><trkpt lat="45.0379184" lon="7.567804"><ele>278.0</ele><time>2026-04-25T17:27:10.187Z</time></trkpt><trkpt lat="45.0378266" lon="7.5681645"><ele>279.0</ele><time>2026-04-25T17:27:11.189Z</time></trkpt><trkpt lat="45.0377193" lon="7.5685403"><ele>280.0</ele><time>2026-04-25T17:27:12.189Z</time></trkpt><trkpt lat="45.0376194" lon="7.5688921"><ele>280.0</ele><time>2026-04-25T17:27:13.189Z</time></trkpt><trkpt lat="45.037516" lon="7.5692482"><ele>280.0</ele><time>2026-04-25T17:27:14.189Z</time></trkpt><trkpt lat="45.0374301" lon="7.5696142"><ele>280.0</ele><time>2026-04-25T17:27:15.186Z</time></trkpt><trkpt lat="45.0373344" lon="7.569995"><ele>280.0</ele><time>2026-04-25T17:27:16.186Z</time></trkpt><trkpt lat="45.0372446" lon="7.5703431"><ele>279.0</ele><time>2026-04-25T17:27:17.185Z</time></trkpt><trkpt lat="45.0371294" lon="7.5707488"><ele>278.0</ele><time>2026-04-25T17:27:18.183Z</time></trkpt><trkpt lat="45.0370199" lon="7.5711268"><ele>277.5</ele><time>2026-04-25T17:27:19.188Z</time></trkpt><trkpt lat="45.0369076" lon="7.571505"><ele>277.0</ele><time>2026-04-25T17:27:20.189Z</time></trkpt><trkpt lat="45.0368226" lon="7.5718723"><ele>276.0</ele><time>2026-04-25T17:27:21.194Z</time></trkpt><trkpt lat="45.0367162" lon="7.5722309"><ele>275.0</ele><time>2026-04-25T17:27:22.183Z</time></trkpt><trkpt lat="45.0366375" lon="7.5725739"><ele>275.0</ele><time>2026-04-25T17:27:23.192Z</time></trkpt><trkpt lat="45.0365301" lon="7.5729466"><ele>275.0</ele><time>2026-04-25T17:27:24.183Z</time></trkpt><trkpt lat="45.0364207" lon="7.5733252"><ele>275.0</ele><time>2026-04-25T17:27:25.186Z</time></trkpt><trkpt lat="45.0363255" lon="7.5736805"><ele>275.0</ele><time>2026-04-25T17:27:26.188Z</time></trkpt><trkpt lat="45.0362403" lon="7.5740632"><ele>275.0</ele><time>2026-04-25T17:27:27.182Z</time></trkpt><trkpt lat="45.0361463" lon="7.5744292"><ele>275.0</ele><time>2026-04-25T17:27:28.186Z</time></trkpt><trkpt lat="45.0360247" lon="7.574806"><ele>275.0</ele><time>2026-04-25T17:27:29.185Z</time></trkpt><trkpt lat="45.0359082" lon="7.5751775"><ele>275.0</ele><time>2026-04-25T17:27:30.179Z</time></trkpt><trkpt lat="45.0358226" lon="7.5755453"><ele>275.0</ele><time>2026-04-25T17:27:31.181Z</time></trkpt><trkpt lat="45.0357254" lon="7.5759125"><ele>275.0</ele><time>2026-04-25T17:27:32.184Z</time></trkpt><trkpt lat="45.035617" lon="7.5762848"><ele>275.0</ele><time>2026-04-25T17:27:33.18Z</time></trkpt><trkpt lat="45.0355269" lon="7.5766174"><ele>275.0</ele><time>2026-04-25T17:27:34.187Z</time></trkpt><trkpt lat="45.0353982" lon="7.5769962"><ele>275.0</ele><time>2026-04-25T17:27:35.18Z</time></trkpt><trkpt lat="45.0352978" lon="7.5773571"><ele>275.0</ele><time>2026-04-25T17:27:36.182Z</time></trkpt><trkpt lat="45.0352164" lon="7.5777056"><ele>273.0</ele><time>2026-04-25T17:27:37.18Z</time></trkpt><trkpt lat="45.0351346" lon="7.5780627"><ele>271.0</ele><time>2026-04-25T17:27:38.178Z</time></trkpt><trkpt lat="45.0350587" lon="7.5783883"><ele>270.5</ele><time>2026-04-25T17:27:39.178Z</time></trkpt><trkpt lat="45.0349472" lon="7.5786884"><ele>270.0</ele><time>2026-04-25T17:27:40.176Z</time></trkpt><trkpt lat="45.0348594" lon="7.5790325"><ele>270.0</ele><time>2026-04-25T17:27:41.179Z</time></trkpt><trkpt lat="45.0347719" lon="7.5793651"><ele>270.0</ele><time>2026-04-25T17:27:42.182Z</time></trkpt><trkpt lat="45.0346648" lon="7.5796969"><ele>270.6666666666667</ele><time>2026-04-25T17:27:43.187Z</time></trkpt><trkpt lat="45.034581" lon="7.5800006"><ele>271.33333333333337</ele><time>2026-04-25T17:27:44.188Z</time></trkpt><trkpt lat="45.034505" lon="7.5802868"><ele>272.0</ele><time>2026-04-25T17:27:45.178Z</time></trkpt><trkpt lat="45.0344123" lon="7.5805926"><ele>269.5</ele><time>2026-04-25T17:27:46.186Z</time></trkpt><trkpt lat="45.0343234" lon="7.5809148"><ele>267.0</ele><time>2026-04-25T17:27:47.186Z</time></trkpt><trkpt lat="45.0342626" lon="7.5812307"><ele>266.5</ele><time>2026-04-25T17:27:48.192Z</time></trkpt><trkpt lat="45.0341829" lon="7.5815455"><ele>266.0</ele><time>2026-04-25T17:27:49.194Z</time></trkpt><trkpt lat="45.0340863" lon="7.5818669"><ele>267.0</ele><time>2026-04-25T17:27:50.199Z</time></trkpt><trkpt lat="45.0340129" lon="7.5821683"><ele>268.0</ele><time>2026-04-25T17:27:51.186Z</time></trkpt><trkpt lat="45.0339117" lon="7.5825121"><ele>268.0</ele><time>2026-04-25T17:27:52.219Z</time></trkpt><trkpt lat="45.0338283" lon="7.5828364"><ele>268.0</ele><time>2026-04-25T17:27:53.196Z</time></trkpt><trkpt lat="45.0337411" lon="7.583143"><ele>266.5</ele><time>2026-04-25T17:27:54.187Z</time></trkpt><trkpt lat="45.0336547" lon="7.58345"><ele>265.0</ele><time>2026-04-25T17:27:55.192Z</time></trkpt><trkpt lat="45.0335552" lon="7.5837691"><ele>265.0</ele><time>2026-04-25T17:27:56.184Z</time></trkpt><trkpt lat="45.0334671" lon="7.5841079"><ele>265.0</ele><time>2026-04-25T17:27:57.187Z</time></trkpt><trkpt lat="45.0333818" lon="7.5844181"><ele>267.0</ele><time>2026-04-25T17:27:58.188Z</time></trkpt><trkpt lat="45.0332969" lon="7.5847311"><ele>269.0</ele><time>2026-04-25T17:27:59.184Z</time></trkpt><trkpt lat="45.0332132" lon="7.5850571"><ele>268.0</ele><time>2026-04-25T17:28:00.184Z</time></trkpt><trkpt lat="45.0331111" lon="7.5853969"><ele>267.0</ele><time>2026-04-25T17:28:01.185Z</time></trkpt><trkpt lat="45.0330189" lon="7.5857202"><ele>267.0</ele><time>2026-04-25T17:28:02.19Z</time></trkpt><trkpt lat="45.0329164" lon="7.5860634"><ele>267.0</ele><time>2026-04-25T17:28:03.186Z</time></trkpt><trkpt lat="45.0328238" lon="7.5863912"><ele>266.5</ele><time>2026-04-25T17:28:04.187Z</time></trkpt><trkpt lat="45.0327116" lon="7.5867307"><ele>266.0</ele><time>2026-04-25T17:28:05.187Z</time></trkpt><trkpt lat="45.032579" lon="7.5870689"><ele>266.5</ele><time>2026-04-25T17:28:06.19Z</time></trkpt><trkpt lat="45.0324441" lon="7.5873958"><ele>267.0</ele><time>2026-04-25T17:28:07.185Z</time></trkpt><trkpt lat="45.0323034" lon="7.5877136"><ele>266.5</ele><time>2026-04-25T17:28:08.19Z</time></trkpt><trkpt lat="45.032163" lon="7.5880247"><ele>266.0</ele><time>2026-04-25T17:28:09.192Z</time></trkpt><trkpt lat="45.0320365" lon="7.5882956"><ele>266.0</ele><time>2026-04-25T17:28:10.189Z</time></trkpt><trkpt lat="45.0318815" lon="7.5885711"><ele>266.0</ele><time>2026-04-25T17:28:11.19Z</time></trkpt><trkpt lat="45.0317473" lon="7.588819"><ele>266.0</ele><time>2026-04-25T17:28:12.192Z</time></trkpt><trkpt lat="45.0315915" lon="7.589076"><ele>266.0</ele><time>2026-04-25T17:28:13.189Z</time></trkpt><trkpt lat="45.0314284" lon="7.5893431"><ele>264.5</ele><time>2026-04-25T17:28:14.194Z</time></trkpt><trkpt lat="45.0312676" lon="7.5895871"><ele>263.0</ele><time>2026-04-25T17:28:15.184Z</time></trkpt><trkpt lat="45.0311073" lon="7.58981"><ele>263.0</ele><time>2026-04-25T17:28:16.19Z</time></trkpt><trkpt lat="45.0309567" lon="7.5900211"><ele>263.0</ele><time>2026-04-25T17:28:17.191Z</time></trkpt><trkpt lat="45.0307963" lon="7.5902273"><ele>263.0</ele><time>2026-04-25T17:28:18.187Z</time></trkpt><trkpt lat="45.0306368" lon="7.5904396"><ele>263.0</ele><time>2026-04-25T17:28:19.194Z</time></trkpt><trkpt lat="45.0304568" lon="7.590636"><ele>263.0</ele><time>2026-04-25T17:28:20.191Z</time></trkpt><trkpt lat="45.0302989" lon="7.5908149"><ele>263.0</ele><time>2026-04-25T17:28:21.188Z</time></trkpt><trkpt lat="45.0301473" lon="7.5909806"><ele>263.0</ele><time>2026-04-25T17:28:22.201Z</time></trkpt><trkpt lat="45.0299771" lon="7.5911443"><ele>263.0</ele><time>2026-04-25T17:28:23.201Z</time></trkpt><trkpt lat="45.0298123" lon="7.5913161"><ele>263.0</ele><time>2026-04-25T17:28:24.188Z</time></trkpt><trkpt lat="45.0296492" lon="7.5914902"><ele>264.0</ele><time>2026-04-25T17:28:25.195Z</time></trkpt><trkpt lat="45.0294783" lon="7.5916547"><ele>265.0</ele><time>2026-04-25T17:28:26.188Z</time></trkpt><trkpt lat="45.0292942" lon="7.5918024"><ele>266.0</ele><time>2026-04-25T17:28:27.186Z</time></trkpt><trkpt lat="45.0291074" lon="7.5919541"><ele>265.6666666666667</ele><time>2026-04-25T17:28:28.194Z</time></trkpt><trkpt lat="45.0289187" lon="7.5921031"><ele>265.3333333333333</ele><time>2026-04-25T17:28:29.19Z</time></trkpt><trkpt lat="45.0287292" lon="7.5922643"><ele>265.0</ele><time>2026-04-25T17:28:30.191Z</time></trkpt><trkpt lat="45.0285386" lon="7.5924055"><ele>265.0</ele><time>2026-04-25T17:28:31.187Z</time></trkpt><trkpt lat="45.0283583" lon="7.5925645"><ele>265.0</ele><time>2026-04-25T17:28:32.189Z</time></trkpt><trkpt lat="45.0281707" lon="7.5927221"><ele>265.0</ele><time>2026-04-25T17:28:33.189Z</time></trkpt><trkpt lat="45.0279863" lon="7.5928767"><ele>264.66666666666663</ele><time>2026-04-25T17:28:34.187Z</time></trkpt><trkpt lat="45.0278116" lon="7.5930345"><ele>264.3333333333333</ele><time>2026-04-25T17:28:35.184Z</time></trkpt><trkpt lat="45.0276418" lon="7.5931871"><ele>264.0</ele><time>2026-04-25T17:28:36.19Z</time></trkpt><trkpt lat="45.0274588" lon="7.5933392"><ele>264.0</ele><time>2026-04-25T17:28:37.187Z</time></trkpt><trkpt lat="45.02728" lon="7.5934874"><ele>264.0</ele><time>2026-04-25T17:28:38.19Z</time></trkpt><trkpt lat="45.0271108" lon="7.5936364"><ele>264.0</ele><time>2026-04-25T17:28:39.188Z</time></trkpt><trkpt lat="45.0269442" lon="7.5937839"><ele>264.3333333333333</ele><time>2026-04-25T17:28:40.192Z</time></trkpt><trkpt lat="45.0267546" lon="7.5939489"><ele>264.66666666666663</ele><time>2026-04-25T17:28:41.191Z</time></trkpt><trkpt lat="45.026564" lon="7.5941231"><ele>265.0</ele><time>2026-04-25T17:28:42.189Z</time></trkpt><trkpt lat="45.0263806" lon="7.5942917"><ele>265.0</ele><time>2026-04-25T17:28:43.191Z</time></trkpt><trkpt lat="45.026191" lon="7.5944463"><ele>265.0</ele><time>2026-04-25T17:28:44.19Z</time></trkpt><trkpt lat="45.0259849" lon="7.5946229"><ele>265.0</ele><time>2026-04-25T17:28:45.189Z</time></trkpt><trkpt lat="45.0257702" lon="7.5947965"><ele>265.0</ele><time>2026-04-25T17:28:46.189Z</time></trkpt><trkpt lat="45.0255817" lon="7.5949556"><ele>265.0</ele><time>2026-04-25T17:28:47.196Z</time></trkpt><trkpt lat="45.0253915" lon="7.5951127"><ele>265.0</ele><time>2026-04-25T17:28:48.186Z</time></trkpt><trkpt lat="45.0251965" lon="7.5952822"><ele>265.0</ele><time>2026-04-25T17:28:49.194Z</time></trkpt><trkpt lat="45.0250012" lon="7.5954488"><ele>264.5</ele><time>2026-04-25T17:28:50.185Z</time></trkpt><trkpt lat="45.0247914" lon="7.595611"><ele>264.0</ele><time>2026-04-25T17:28:51.188Z</time></trkpt><trkpt lat="45.0245851" lon="7.5957881"><ele>264.0</ele><time>2026-04-25T17:28:52.179Z</time></trkpt><trkpt lat="45.0243777" lon="7.5959709"><ele>264.0</ele><time>2026-04-25T17:28:53.203Z</time></trkpt><trkpt lat="45.0241805" lon="7.5961546"><ele>262.5</ele><time>2026-04-25T17:28:54.189Z</time></trkpt><trkpt lat="45.0239746" lon="7.5963421"><ele>261.0</ele><time>2026-04-25T17:28:55.194Z</time></trkpt><trkpt lat="45.0237321" lon="7.596545"><ele>261.0</ele><time>2026-04-25T17:28:56.188Z</time></trkpt><trkpt lat="45.0235167" lon="7.5967268"><ele>261.0</ele><time>2026-04-25T17:28:57.194Z</time></trkpt><trkpt lat="45.0232874" lon="7.5969082"><ele>259.5</ele><time>2026-04-25T17:28:58.192Z</time></trkpt><trkpt lat="45.0230557" lon="7.5971085"><ele>258.0</ele><time>2026-04-25T17:28:59.192Z</time></trkpt><trkpt lat="45.0228199" lon="7.5973091"><ele>258.0</ele><time>2026-04-25T17:29:00.188Z</time></trkpt><trkpt lat="45.0225902" lon="7.597512"><ele>258.0</ele><time>2026-04-25T17:29:01.189Z</time></trkpt><trkpt lat="45.02236" lon="7.5976991"><ele>258.0</ele><time>2026-04-25T17:29:02.194Z</time></trkpt><trkpt lat="45.0221275" lon="7.597895"><ele>258.0</ele><time>2026-04-25T17:29:03.187Z</time></trkpt><trkpt lat="45.0218857" lon="7.5980988"><ele>258.0</ele><time>2026-04-25T17:29:04.181Z</time></trkpt><trkpt lat="45.0216526" lon="7.5983053"><ele>258.0</ele><time>2026-04-25T17:29:05.184Z</time></trkpt><trkpt lat="45.0214225" lon="7.5985098"><ele>257.0</ele><time>2026-04-25T17:29:06.188Z</time></trkpt><trkpt lat="45.0211914" lon="7.5987013"><ele>256.0</ele><time>2026-04-25T17:29:07.184Z</time></trkpt><trkpt lat="45.0209473" lon="7.5989033"><ele>255.5</ele><time>2026-04-25T17:29:08.184Z</time></trkpt><trkpt lat="45.0206838" lon="7.5991003"><ele>255.0</ele><time>2026-04-25T17:29:09.18Z</time></trkpt><trkpt lat="45.0204451" lon="7.5993031"><ele>255.0</ele><time>2026-04-25T17:29:10.186Z</time></trkpt><trkpt lat="45.0201891" lon="7.5994891"><ele>255.0</ele><time>2026-04-25T17:29:11.186Z</time></trkpt><trkpt lat="45.0199125" lon="7.5996748"><ele>255.0</ele><time>2026-04-25T17:29:12.185Z</time></trkpt><trkpt lat="45.0196335" lon="7.5998557"><ele>255.0</ele><time>2026-04-25T17:29:13.186Z</time></trkpt><trkpt lat="45.0193539" lon="7.6000461"><ele>254.5</ele><time>2026-04-25T17:29:14.192Z</time></trkpt><trkpt lat="45.019081" lon="7.6002325"><ele>254.0</ele><time>2026-04-25T17:29:15.183Z</time></trkpt><trkpt lat="45.0187845" lon="7.6004208"><ele>254.0</ele><time>2026-04-25T17:29:16.187Z</time></trkpt><trkpt lat="45.0185171" lon="7.6005787"><ele>254.0</ele><time>2026-04-25T17:29:17.184Z</time></trkpt><trkpt lat="45.0182527" lon="7.6007334"><ele>254.0</ele><time>2026-04-25T17:29:18.187Z</time></trkpt><trkpt lat="45.0180094" lon="7.6008716"><ele>254.0</ele><time>2026-04-25T17:29:19.184Z</time></trkpt><trkpt lat="45.0177614" lon="7.6010106"><ele>254.0</ele><time>2026-04-25T17:29:20.183Z</time></trkpt><trkpt lat="45.0175121" lon="7.6011496"><ele>254.0</ele><time>2026-04-25T17:29:21.183Z</time></trkpt><trkpt lat="45.0172543" lon="7.6012736"><ele>252.5</ele><time>2026-04-25T17:29:22.177Z</time></trkpt><trkpt lat="45.0170069" lon="7.6013922"><ele>251.0</ele><time>2026-04-25T17:29:23.196Z</time></trkpt><trkpt lat="45.0167789" lon="7.6014799"><ele>251.0</ele><time>2026-04-25T17:29:24.199Z</time></trkpt><trkpt lat="45.0165402" lon="7.6015829"><ele>251.0</ele><time>2026-04-25T17:29:25.184Z</time></trkpt><trkpt lat="45.0163101" lon="7.6016713"><ele>251.0</ele><time>2026-04-25T17:29:26.185Z</time></trkpt><trkpt lat="45.0160727" lon="7.6017661"><ele>251.0</ele><time>2026-04-25T17:29:27.184Z</time></trkpt><trkpt lat="45.0158382" lon="7.6018752"><ele>250.0</ele><time>2026-04-25T17:29:28.19Z</time></trkpt><trkpt lat="45.0156187" lon="7.6019727"><ele>249.0</ele><time>2026-04-25T17:29:29.19Z</time></trkpt><trkpt lat="45.0153866" lon="7.6020885"><ele>249.0</ele><time>2026-04-25T17:29:30.192Z</time></trkpt><trkpt lat="45.0151547" lon="7.6022157"><ele>249.0</ele><time>2026-04-25T17:29:31.194Z</time></trkpt><trkpt lat="45.0149044" lon="7.6023396"><ele>247.5</ele><time>2026-04-25T17:29:32.18Z</time></trkpt><trkpt lat="45.0146304" lon="7.6024906"><ele>246.0</ele><time>2026-04-25T17:29:33.183Z</time></trkpt><trkpt lat="45.0143702" lon="7.6026489"><ele>245.5</ele><time>2026-04-25T17:29:34.189Z</time></trkpt><trkpt lat="45.0141038" lon="7.6028311"><ele>245.0</ele><time>2026-04-25T17:29:35.195Z</time></trkpt><trkpt lat="45.0138317" lon="7.6030227"><ele>245.0</ele><time>2026-04-25T17:29:36.183Z</time></trkpt><trkpt lat="45.0135737" lon="7.6032334"><ele>245.0</ele><time>2026-04-25T17:29:37.179Z</time></trkpt><trkpt lat="45.0133162" lon="7.6034437"><ele>242.5</ele><time>2026-04-25T17:29:38.18Z</time></trkpt><trkpt lat="45.013068" lon="7.603688"><ele>240.0</ele><time>2026-04-25T17:29:39.184Z</time></trkpt><trkpt lat="45.0128186" lon="7.6039413"><ele>240.0</ele><time>2026-04-25T17:29:40.175Z</time></trkpt><trkpt lat="45.0125911" lon="7.6041981"><ele>240.0</ele><time>2026-04-25T17:29:41.181Z</time></trkpt><trkpt lat="45.0123786" lon="7.604463"><ele>240.5</ele><time>2026-04-25T17:29:42.18Z</time></trkpt><trkpt lat="45.0121822" lon="7.604739"><ele>241.0</ele><time>2026-04-25T17:29:43.181Z</time></trkpt><trkpt lat="45.0119885" lon="7.6050269"><ele>241.0</ele><time>2026-04-25T17:29:44.177Z</time></trkpt><trkpt lat="45.0118068" lon="7.6053279"><ele>241.0</ele><time>2026-04-25T17:29:45.178Z</time></trkpt><trkpt lat="45.0116308" lon="7.605621"><ele>240.5</ele><time>2026-04-25T17:29:46.18Z</time></trkpt><trkpt lat="45.0114608" lon="7.6059465"><ele>240.0</ele><time>2026-04-25T17:29:47.18Z</time></trkpt><trkpt lat="45.0112931" lon="7.6062792"><ele>240.0</ele><time>2026-04-25T17:29:48.178Z</time></trkpt><trkpt lat="45.0111296" lon="7.6066083"><ele>240.0</ele><time>2026-04-25T17:29:49.176Z</time></trkpt><trkpt lat="45.0109848" lon="7.6069207"><ele>240.0</ele><time>2026-04-25T17:29:50.178Z</time></trkpt><trkpt lat="45.0108561" lon="7.6072413"><ele>240.0</ele><time>2026-04-25T17:29:51.175Z</time></trkpt><trkpt lat="45.0107286" lon="7.6075746"><ele>239.5</ele><time>2026-04-25T17:29:52.178Z</time></trkpt><trkpt lat="45.0106089" lon="7.6079282"><ele>239.0</ele><time>2026-04-25T17:29:53.181Z</time></trkpt><trkpt lat="45.0104886" lon="7.6082875"><ele>239.0</ele><time>2026-04-25T17:29:54.183Z</time></trkpt><trkpt lat="45.0103836" lon="7.6086502"><ele>239.0</ele><time>2026-04-25T17:29:55.195Z</time></trkpt><trkpt lat="45.0102862" lon="7.6090256"><ele>238.0</ele><time>2026-04-25T17:29:56.173Z</time></trkpt><trkpt lat="45.0101996" lon="7.6093803"><ele>237.0</ele><time>2026-04-25T17:29:57.178Z</time></trkpt><trkpt lat="45.0101125" lon="7.6097591"><ele>236.5</ele><time>2026-04-25T17:29:58.18Z</time></trkpt><trkpt lat="45.0100303" lon="7.6101421"><ele>236.0</ele><time>2026-04-25T17:29:59.175Z</time></trkpt><trkpt lat="45.0099598" lon="7.610556"><ele>238.5</ele><time>2026-04-25T17:30:00.174Z</time></trkpt><trkpt lat="45.0099205" lon="7.6109624"><ele>241.0</ele><time>2026-04-25T17:30:01.177Z</time></trkpt><trkpt lat="45.0098858" lon="7.6114221"><ele>241.0</ele><time>2026-04-25T17:30:02.188Z</time></trkpt><trkpt lat="45.0098491" lon="7.6118879"><ele>241.0</ele><time>2026-04-25T17:30:03.186Z</time></trkpt><trkpt lat="45.0098019" lon="7.612392"><ele>240.0</ele><time>2026-04-25T17:30:04.189Z</time></trkpt><trkpt lat="45.009759" lon="7.6128658"><ele>239.0</ele><time>2026-04-25T17:30:05.183Z</time></trkpt><trkpt lat="45.009692" lon="7.6133069"><ele>239.0</ele><time>2026-04-25T17:30:06.184Z</time></trkpt><trkpt lat="45.0096262" lon="7.6137473"><ele>239.0</ele><time>2026-04-25T17:30:07.184Z</time></trkpt><trkpt lat="45.0095852" lon="7.6141608"><ele>238.0</ele><time>2026-04-25T17:30:08.187Z</time></trkpt><trkpt lat="45.0095703" lon="7.6145447"><ele>237.0</ele><time>2026-04-25T17:30:09.188Z</time></trkpt><trkpt lat="45.0095266" lon="7.6149268"><ele>237.0</ele><time>2026-04-25T17:30:10.181Z</time></trkpt><trkpt lat="45.0094746" lon="7.6152969"><ele>237.0</ele><time>2026-04-25T17:30:11.18Z</time></trkpt><trkpt lat="45.0094204" lon="7.6156715"><ele>237.0</ele><time>2026-04-25T17:30:12.177Z</time></trkpt><trkpt lat="45.0093439" lon="7.6160335"><ele>237.0</ele><time>2026-04-25T17:30:13.176Z</time></trkpt><trkpt lat="45.0092602" lon="7.6163922"><ele>237.0</ele><time>2026-04-25T17:30:14.173Z</time></trkpt><trkpt lat="45.0091625" lon="7.6167635"><ele>237.0</ele><time>2026-04-25T17:30:15.171Z</time></trkpt><trkpt lat="45.0090401" lon="7.6171337"><ele>235.5</ele><time>2026-04-25T17:30:16.175Z</time></trkpt><trkpt lat="45.0089123" lon="7.6174975"><ele>234.0</ele><time>2026-04-25T17:30:17.174Z</time></trkpt><trkpt lat="45.0087459" lon="7.6178655"><ele>233.5</ele><time>2026-04-25T17:30:18.177Z</time></trkpt><trkpt lat="45.0085861" lon="7.6182077"><ele>233.0</ele><time>2026-04-25T17:30:19.18Z</time></trkpt><trkpt lat="45.0084052" lon="7.6185424"><ele>236.0</ele><time>2026-04-25T17:30:20.177Z</time></trkpt><trkpt lat="45.0082186" lon="7.6188745"><ele>239.0</ele><time>2026-04-25T17:30:21.172Z</time></trkpt><trkpt lat="45.008036" lon="7.6192052"><ele>238.0</ele><time>2026-04-25T17:30:22.167Z</time></trkpt><trkpt lat="45.0078204" lon="7.6195017"><ele>237.0</ele><time>2026-04-25T17:30:23.177Z</time></trkpt><trkpt lat="45.0076065" lon="7.6198031"><ele>236.5</ele><time>2026-04-25T17:30:24.172Z</time></trkpt><trkpt lat="45.0073669" lon="7.6200291"><ele>236.0</ele><time>2026-04-25T17:30:25.172Z</time></trkpt><trkpt lat="45.0070977" lon="7.6202327"><ele>236.0</ele><time>2026-04-25T17:30:26.185Z</time></trkpt><trkpt lat="45.0068475" lon="7.6204177"><ele>236.0</ele><time>2026-04-25T17:30:27.172Z</time></trkpt><trkpt lat="45.0065726" lon="7.6206038"><ele>235.5</ele><time>2026-04-25T17:30:28.173Z</time></trkpt><trkpt lat="45.0062916" lon="7.6207583"><ele>235.0</ele><time>2026-04-25T17:30:29.176Z</time></trkpt><trkpt lat="45.0060025" lon="7.6208714"><ele>236.0</ele><time>2026-04-25T17:30:30.172Z</time></trkpt><trkpt lat="45.0057324" lon="7.6209624"><ele>237.0</ele><time>2026-04-25T17:30:31.178Z</time></trkpt><trkpt lat="45.005442" lon="7.6210893"><ele>237.0</ele><time>2026-04-25T17:30:32.178Z</time></trkpt><trkpt lat="45.0051468" lon="7.62123"><ele>237.0</ele><time>2026-04-25T17:30:33.178Z</time></trkpt><trkpt lat="45.0048638" lon="7.6213665"><ele>237.0</ele><time>2026-04-25T17:30:34.174Z</time></trkpt><trkpt lat="45.0045844" lon="7.6215083"><ele>237.0</ele><time>2026-04-25T17:30:35.179Z</time></trkpt><trkpt lat="45.004303" lon="7.6216454"><ele>236.0</ele><time>2026-04-25T17:30:36.184Z</time></trkpt><trkpt lat="45.0039965" lon="7.6217831"><ele>235.0</ele><time>2026-04-25T17:30:37.185Z</time></trkpt><trkpt lat="45.0037174" lon="7.6219227"><ele>235.5</ele><time>2026-04-25T17:30:38.182Z</time></trkpt><trkpt lat="45.0034308" lon="7.6220381"><ele>236.0</ele><time>2026-04-25T17:30:39.188Z</time></trkpt><trkpt lat="45.0031543" lon="7.6221802"><ele>236.5</ele><time>2026-04-25T17:30:40.184Z</time></trkpt><trkpt lat="45.0028916" lon="7.622292"><ele>237.0</ele><time>2026-04-25T17:30:41.184Z</time></trkpt><trkpt lat="45.0026066" lon="7.6224005"><ele>237.0</ele><time>2026-04-25T17:30:42.184Z</time></trkpt><trkpt lat="45.0023286" lon="7.622517"><ele>237.0</ele><time>2026-04-25T17:30:43.181Z</time></trkpt><trkpt lat="45.0020684" lon="7.6226462"><ele>237.0</ele><time>2026-04-25T17:30:44.182Z</time></trkpt><trkpt lat="45.0018" lon="7.6227627"><ele>237.0</ele><time>2026-04-25T17:30:45.184Z</time></trkpt><trkpt lat="45.001521" lon="7.6228931"><ele>236.5</ele><time>2026-04-25T17:30:46.183Z</time></trkpt><trkpt lat="45.0012221" lon="7.6230294"><ele>236.0</ele><time>2026-04-25T17:30:47.18Z</time></trkpt><trkpt lat="45.0009446" lon="7.623139"><ele>236.0</ele><time>2026-04-25T17:30:48.186Z</time></trkpt><trkpt lat="45.0006727" lon="7.6232548"><ele>236.0</ele><time>2026-04-25T17:30:49.184Z</time></trkpt><trkpt lat="45.0003929" lon="7.6233824"><ele>236.0</ele><time>2026-04-25T17:30:50.181Z</time></trkpt><trkpt lat="45.0001204" lon="7.6235157"><ele>236.0</ele><time>2026-04-25T17:30:51.187Z</time></trkpt><trkpt lat="44.9998443" lon="7.6236465"><ele>236.5</ele><time>2026-04-25T17:30:52.186Z</time></trkpt><trkpt lat="44.9995776" lon="7.6237724"><ele>237.0</ele><time>2026-04-25T17:30:53.191Z</time></trkpt><trkpt lat="44.9993027" lon="7.6239089"><ele>235.5</ele><time>2026-04-25T17:30:54.185Z</time></trkpt><trkpt lat="44.9990277" lon="7.6240423"><ele>234.0</ele><time>2026-04-25T17:30:55.184Z</time></trkpt><trkpt lat="44.9987588" lon="7.6241634"><ele>234.0</ele><time>2026-04-25T17:30:56.185Z</time></trkpt><trkpt lat="44.9985026" lon="7.6242859"><ele>234.0</ele><time>2026-04-25T17:30:57.192Z</time></trkpt><trkpt lat="44.9982509" lon="7.6243937"><ele>233.0</ele><time>2026-04-25T17:30:58.187Z</time></trkpt><trkpt lat="44.997993" lon="7.6245185"><ele>232.0</ele><time>2026-04-25T17:30:59.181Z</time></trkpt><trkpt lat="44.99774" lon="7.6246488"><ele>233.5</ele><time>2026-04-25T17:31:00.176Z</time></trkpt><trkpt lat="44.9974912" lon="7.6247892"><ele>235.0</ele><time>2026-04-25T17:31:01.188Z</time></trkpt><trkpt lat="44.997246" lon="7.6249336"><ele>235.0</ele><time>2026-04-25T17:31:02.187Z</time></trkpt><trkpt lat="44.9970079" lon="7.6250758"><ele>235.0</ele><time>2026-04-25T17:31:03.183Z</time></trkpt><trkpt lat="44.9967865" lon="7.6251874"><ele>234.33333333333331</ele><time>2026-04-25T17:31:04.175Z</time></trkpt><trkpt lat="44.9965866" lon="7.6252953"><ele>233.66666666666669</ele><time>2026-04-25T17:31:05.173Z</time></trkpt><trkpt lat="44.996399" lon="7.6253921"><ele>233.0</ele><time>2026-04-25T17:31:06.179Z</time></trkpt><trkpt lat="44.996232" lon="7.6255062"><ele>233.0</ele><time>2026-04-25T17:31:07.18Z</time></trkpt><trkpt lat="44.9960887" lon="7.6256268"><ele>233.0</ele><time>2026-04-25T17:31:08.179Z</time></trkpt><trkpt lat="44.9959398" lon="7.6257354"><ele>233.0</ele><time>2026-04-25T17:31:09.177Z</time></trkpt><trkpt lat="44.9957783" lon="7.6258398"><ele>233.66666666666669</ele><time>2026-04-25T17:31:10.186Z</time></trkpt><trkpt lat="44.9956163" lon="7.6258999"><ele>234.33333333333331</ele><time>2026-04-25T17:31:11.184Z</time></trkpt><trkpt lat="44.9954802" lon="7.6259517"><ele>235.0</ele><time>2026-04-25T17:31:12.184Z</time></trkpt><trkpt lat="44.995329" lon="7.6259617"><ele>235.0</ele><time>2026-04-25T17:31:13.179Z</time></trkpt><trkpt lat="44.9951529" lon="7.6259503"><ele>235.0</ele><time>2026-04-25T17:31:14.185Z</time></trkpt><trkpt lat="44.9949694" lon="7.6258817"><ele>235.0</ele><time>2026-04-25T17:31:15.184Z</time></trkpt><trkpt lat="44.9947973" lon="7.6257993"><ele>233.66666666666666</ele><time>2026-04-25T17:31:16.179Z</time></trkpt><trkpt lat="44.9946507" lon="7.625678"><ele>232.33333333333331</ele><time>2026-04-25T17:31:17.184Z</time></trkpt><trkpt lat="44.9945062" lon="7.6255785"><ele>231.0</ele><time>2026-04-25T17:31:18.18Z</time></trkpt><trkpt lat="44.9943451" lon="7.625498"><ele>231.0</ele><time>2026-04-25T17:31:19.189Z</time></trkpt><trkpt lat="44.9941791" lon="7.625452"><ele>231.0</ele><time>2026-04-25T17:31:20.185Z</time></trkpt><trkpt lat="44.9940249" lon="7.6253986"><ele>231.0</ele><time>2026-04-25T17:31:21.184Z</time></trkpt><trkpt lat="44.9938697" lon="7.625403"><ele>231.33333333333331</ele><time>2026-04-25T17:31:22.181Z</time></trkpt><trkpt lat="44.9936842" lon="7.6254436"><ele>231.66666666666666</ele><time>2026-04-25T17:31:23.189Z</time></trkpt><trkpt lat="44.9935082" lon="7.6255239"><ele>232.0</ele><time>2026-04-25T17:31:24.187Z</time></trkpt><trkpt lat="44.993347" lon="7.6255696"><ele>232.33333333333331</ele><time>2026-04-25T17:31:25.189Z</time></trkpt><trkpt lat="44.9931815" lon="7.625659"><ele>232.66666666666669</ele><time>2026-04-25T17:31:26.186Z</time></trkpt><trkpt lat="44.9930181" lon="7.6258214"><ele>233.0</ele><time>2026-04-25T17:31:27.183Z</time></trkpt><trkpt lat="44.9928689" lon="7.6259718"><ele>233.0</ele><time>2026-04-25T17:31:28.202Z</time></trkpt><trkpt lat="44.9927303" lon="7.6261084"><ele>233.0</ele><time>2026-04-25T17:31:29.186Z</time></trkpt><trkpt lat="44.9926233" lon="7.6261914"><ele>233.0</ele><time>2026-04-25T17:31:30.18Z</time></trkpt><trkpt lat="44.992467" lon="7.6262909"><ele>233.5</ele><time>2026-04-25T17:31:31.18Z</time></trkpt><trkpt lat="44.9923088" lon="7.6263215"><ele>234.0</ele><time>2026-04-25T17:31:32.185Z</time></trkpt><trkpt lat="44.9921892" lon="7.6263191"><ele>234.5</ele><time>2026-04-25T17:31:33.185Z</time></trkpt><trkpt lat="44.9920815" lon="7.6262656"><ele>235.0</ele><time>2026-04-25T17:31:34.182Z</time></trkpt><trkpt lat="44.9919742" lon="7.6262253"><ele>235.0</ele><time>2026-04-25T17:31:35.185Z</time></trkpt><trkpt lat="44.9918633" lon="7.6261905"><ele>235.0</ele><time>2026-04-25T17:31:36.185Z</time></trkpt><trkpt lat="44.9917435" lon="7.6261086"><ele>235.0</ele><time>2026-04-25T17:31:37.178Z</time></trkpt><trkpt lat="44.9916362" lon="7.6260052"><ele>235.0</ele><time>2026-04-25T17:31:38.188Z</time></trkpt><trkpt lat="44.9915258" lon="7.6258304"><ele>235.66666666666666</ele><time>2026-04-25T17:31:39.177Z</time></trkpt><trkpt lat="44.9914082" lon="7.625691"><ele>236.33333333333331</ele><time>2026-04-25T17:31:40.167Z</time></trkpt><trkpt lat="44.9912722" lon="7.6255322"><ele>237.0</ele><time>2026-04-25T17:31:41.183Z</time></trkpt><trkpt lat="44.9911276" lon="7.6253891"><ele>236.33333333333331</ele><time>2026-04-25T17:31:42.18Z</time></trkpt><trkpt lat="44.9909732" lon="7.6252098"><ele>235.66666666666666</ele><time>2026-04-25T17:31:43.186Z</time></trkpt><trkpt lat="44.9908226" lon="7.6250597"><ele>235.0</ele><time>2026-04-25T17:31:44.186Z</time></trkpt><trkpt lat="44.9906784" lon="7.624886"><ele>234.33333333333331</ele><time>2026-04-25T17:31:45.186Z</time></trkpt><trkpt lat="44.9905247" lon="7.624718"><ele>233.66666666666669</ele><time>2026-04-25T17:31:46.186Z</time></trkpt><trkpt lat="44.9903293" lon="7.6245268"><ele>233.0</ele><time>2026-04-25T17:31:47.186Z</time></trkpt><trkpt lat="44.9901414" lon="7.6243143"><ele>234.0</ele><time>2026-04-25T17:31:48.184Z</time></trkpt><trkpt lat="44.9899408" lon="7.6241038"><ele>235.0</ele><time>2026-04-25T17:31:49.183Z</time></trkpt><trkpt lat="44.9897272" lon="7.623859"><ele>233.0</ele><time>2026-04-25T17:31:50.189Z</time></trkpt><trkpt lat="44.989535" lon="7.6236129"><ele>231.0</ele><time>2026-04-25T17:31:51.193Z</time></trkpt><trkpt lat="44.9893627" lon="7.6233597"><ele>231.0</ele><time>2026-04-25T17:31:52.193Z</time></trkpt><trkpt lat="44.9891825" lon="7.6231297"><ele>231.0</ele><time>2026-04-25T17:31:53.196Z</time></trkpt><trkpt lat="44.988996" lon="7.6229094"><ele>231.0</ele><time>2026-04-25T17:31:54.191Z</time></trkpt><trkpt lat="44.9888268" lon="7.6226776"><ele>231.0</ele><time>2026-04-25T17:31:55.194Z</time></trkpt><trkpt lat="44.9886568" lon="7.6224584"><ele>231.0</ele><time>2026-04-25T17:31:56.19Z</time></trkpt><trkpt lat="44.9884681" lon="7.6222429"><ele>231.0</ele><time>2026-04-25T17:31:57.193Z</time></trkpt><trkpt lat="44.9882994" lon="7.6220283"><ele>231.5</ele><time>2026-04-25T17:31:58.192Z</time></trkpt><trkpt lat="44.9881076" lon="7.6218103"><ele>232.0</ele><time>2026-04-25T17:31:59.197Z</time></trkpt><trkpt lat="44.9879254" lon="7.6216012"><ele>232.0</ele><time>2026-04-25T17:32:00.186Z</time></trkpt><trkpt lat="44.9877414" lon="7.6214122"><ele>232.0</ele><time>2026-04-25T17:32:01.184Z</time></trkpt><trkpt lat="44.9875639" lon="7.6211989"><ele>232.0</ele><time>2026-04-25T17:32:02.188Z</time></trkpt><trkpt lat="44.987404" lon="7.6210178"><ele>232.0</ele><time>2026-04-25T17:32:03.19Z</time></trkpt><trkpt lat="44.9872336" lon="7.6207912"><ele>232.0</ele><time>2026-04-25T17:32:04.192Z</time></trkpt><trkpt lat="44.9870531" lon="7.6205731"><ele>232.0</ele><time>2026-04-25T17:32:05.185Z</time></trkpt><trkpt lat="44.9868652" lon="7.6203625"><ele>232.0</ele><time>2026-04-25T17:32:06.188Z</time></trkpt><trkpt lat="44.9866675" lon="7.6201493"><ele>232.0</ele><time>2026-04-25T17:32:07.186Z</time></trkpt><trkpt lat="44.9864887" lon="7.6199437"><ele>232.0</ele><time>2026-04-25T17:32:08.186Z</time></trkpt><trkpt lat="44.9862933" lon="7.6197442"><ele>232.0</ele><time>2026-04-25T17:32:09.188Z</time></trkpt><trkpt lat="44.9861035" lon="7.6195367"><ele>232.0</ele><time>2026-04-25T17:32:10.189Z</time></trkpt><trkpt lat="44.9858941" lon="7.6193172"><ele>234.5</ele><time>2026-04-25T17:32:11.191Z</time></trkpt><trkpt lat="44.9857057" lon="7.6191177"><ele>237.0</ele><time>2026-04-25T17:32:12.187Z</time></trkpt><trkpt lat="44.9855297" lon="7.6188838"><ele>236.0</ele><time>2026-04-25T17:32:13.189Z</time></trkpt><trkpt lat="44.9853243" lon="7.6186455"><ele>235.0</ele><time>2026-04-25T17:32:14.192Z</time></trkpt><trkpt lat="44.9850957" lon="7.6184376"><ele>235.0</ele><time>2026-04-25T17:32:15.188Z</time></trkpt><trkpt lat="44.9848812" lon="7.6182204"><ele>235.0</ele><time>2026-04-25T17:32:16.191Z</time></trkpt><trkpt lat="44.9846748" lon="7.6180096"><ele>233.5</ele><time>2026-04-25T17:32:17.195Z</time></trkpt><trkpt lat="44.9844501" lon="7.617788"><ele>232.0</ele><time>2026-04-25T17:32:18.192Z</time></trkpt><trkpt lat="44.9842303" lon="7.6175555"><ele>230.5</ele><time>2026-04-25T17:32:19.193Z</time></trkpt><trkpt lat="44.9840213" lon="7.6173129"><ele>229.0</ele><time>2026-04-25T17:32:20.192Z</time></trkpt><trkpt lat="44.9838251" lon="7.6170891"><ele>232.0</ele><time>2026-04-25T17:32:21.191Z</time></trkpt><trkpt lat="44.9836348" lon="7.6168796"><ele>235.0</ele><time>2026-04-25T17:32:22.194Z</time></trkpt><trkpt lat="44.983431" lon="7.6166515"><ele>233.0</ele><time>2026-04-25T17:32:23.197Z</time></trkpt><trkpt lat="44.9832203" lon="7.616444"><ele>231.0</ele><time>2026-04-25T17:32:24.189Z</time></trkpt><trkpt lat="44.9830159" lon="7.6162411"><ele>231.5</ele><time>2026-04-25T17:32:25.194Z</time></trkpt><trkpt lat="44.9828138" lon="7.6160218"><ele>232.0</ele><time>2026-04-25T17:32:26.192Z</time></trkpt><trkpt lat="44.9826123" lon="7.6158072"><ele>234.0</ele><time>2026-04-25T17:32:27.193Z</time></trkpt><trkpt lat="44.9824147" lon="7.6155988"><ele>236.0</ele><time>2026-04-25T17:32:28.187Z</time></trkpt><trkpt lat="44.9822214" lon="7.6153911"><ele>237.0</ele><time>2026-04-25T17:32:29.188Z</time></trkpt><trkpt lat="44.9820154" lon="7.6151837"><ele>238.0</ele><time>2026-04-25T17:32:30.198Z</time></trkpt><trkpt lat="44.981815" lon="7.6149738"><ele>237.5</ele><time>2026-04-25T17:32:31.185Z</time></trkpt><trkpt lat="44.9816117" lon="7.6147792"><ele>237.0</ele><time>2026-04-25T17:32:32.183Z</time></trkpt><trkpt lat="44.9814212" lon="7.6146262"><ele>237.66666666666669</ele><time>2026-04-25T17:32:33.184Z</time></trkpt><trkpt lat="44.9812566" lon="7.6144572"><ele>238.33333333333334</ele><time>2026-04-25T17:32:34.174Z</time></trkpt><trkpt lat="44.9811187" lon="7.6143287"><ele>239.0</ele><time>2026-04-25T17:32:35.174Z</time></trkpt><trkpt lat="44.9809784" lon="7.6141832"><ele>239.0</ele><time>2026-04-25T17:32:36.176Z</time></trkpt><trkpt lat="44.9808573" lon="7.6140444"><ele>239.0</ele><time>2026-04-25T17:32:37.178Z</time></trkpt><trkpt lat="44.9807453" lon="7.6139351"><ele>239.0</ele><time>2026-04-25T17:32:38.182Z</time></trkpt><trkpt lat="44.9806458" lon="7.6138325"><ele>239.0</ele><time>2026-04-25T17:32:39.184Z</time></trkpt><trkpt lat="44.9805471" lon="7.6137361"><ele>239.00000000000003</ele><time>2026-04-25T17:32:40.183Z</time></trkpt><trkpt lat="44.9804644" lon="7.6136459"><ele>239.0</ele><time>2026-04-25T17:32:41.184Z</time></trkpt><trkpt lat="44.9803819" lon="7.6135719"><ele>239.0</ele><time>2026-04-25T17:32:42.184Z</time></trkpt><trkpt lat="44.9802995" lon="7.6135137"><ele>239.0</ele><time>2026-04-25T17:32:43.184Z</time></trkpt><trkpt lat="44.9802452" lon="7.6134485"><ele>239.00000000000003</ele><time>2026-04-25T17:32:44.179Z</time></trkpt><trkpt lat="44.980202" lon="7.6133768"><ele>239.0</ele><time>2026-04-25T17:32:46.184Z</time></trkpt><trkpt lat="44.9801816" lon="7.6132667"><ele>239.0</ele><time>2026-04-25T17:32:53.203Z</time></trkpt><trkpt lat="44.9801373" lon="7.6130873"><ele>238.99999999999997</ele><time>2026-04-25T17:32:55.183Z</time></trkpt><trkpt lat="44.9801146" lon="7.6129385"><ele>238.99999999999997</ele><time>2026-04-25T17:32:56.188Z</time></trkpt><trkpt lat="44.9800893" lon="7.6128112"><ele>239.0</ele><time>2026-04-25T17:32:57.182Z</time></trkpt><trkpt lat="44.9800413" lon="7.6126918"><ele>239.0</ele><time>2026-04-25T17:32:58.178Z</time></trkpt><trkpt lat="44.979986" lon="7.612579"><ele>238.2</ele><time>2026-04-25T17:32:59.173Z</time></trkpt><trkpt lat="44.9799017" lon="7.612501"><ele>237.39999999999998</ele><time>2026-04-25T17:33:00.179Z</time></trkpt><trkpt lat="44.9798175" lon="7.6124288"><ele>236.6</ele><time>2026-04-25T17:33:01.19Z</time></trkpt><trkpt lat="44.9797327" lon="7.6123486"><ele>235.8</ele><time>2026-04-25T17:33:02.172Z</time></trkpt><trkpt lat="44.9796697" lon="7.6122331"><ele>235.0</ele><time>2026-04-25T17:33:03.18Z</time></trkpt><trkpt lat="44.9796157" lon="7.6120745"><ele>235.33333333333331</ele><time>2026-04-25T17:33:04.173Z</time></trkpt><trkpt lat="44.9796007" lon="7.6118563"><ele>235.66666666666669</ele><time>2026-04-25T17:33:05.182Z</time></trkpt><trkpt lat="44.9795924" lon="7.6115854"><ele>236.0</ele><time>2026-04-25T17:33:06.187Z</time></trkpt><trkpt lat="44.9795716" lon="7.6112814"><ele>236.0</ele><time>2026-04-25T17:33:07.178Z</time></trkpt><trkpt lat="44.9795061" lon="7.6110538"><ele>236.0</ele><time>2026-04-25T17:33:08.182Z</time></trkpt><trkpt lat="44.9793946" lon="7.6108856"><ele>236.0</ele><time>2026-04-25T17:33:09.179Z</time></trkpt><trkpt lat="44.9792376" lon="7.610711"><ele>236.5</ele><time>2026-04-25T17:33:10.174Z</time></trkpt><trkpt lat="44.9790399" lon="7.6105801"><ele>237.0</ele><time>2026-04-25T17:33:11.176Z</time></trkpt><trkpt lat="44.9788275" lon="7.6104292"><ele>236.5</ele><time>2026-04-25T17:33:12.179Z</time></trkpt><trkpt lat="44.9785791" lon="7.6103128"><ele>236.0</ele><time>2026-04-25T17:33:13.18Z</time></trkpt><trkpt lat="44.9783508" lon="7.6101402"><ele>236.0</ele><time>2026-04-25T17:33:14.183Z</time></trkpt><trkpt lat="44.9781043" lon="7.6099516"><ele>236.0</ele><time>2026-04-25T17:33:15.179Z</time></trkpt><trkpt lat="44.9778765" lon="7.6097463"><ele>236.0</ele><time>2026-04-25T17:33:16.171Z</time></trkpt><trkpt lat="44.9776824" lon="7.6095217"><ele>236.0</ele><time>2026-04-25T17:33:17.172Z</time></trkpt><trkpt lat="44.9774995" lon="7.6093108"><ele>236.33333333333334</ele><time>2026-04-25T17:33:18.17Z</time></trkpt><trkpt lat="44.9773242" lon="7.609143"><ele>236.66666666666669</ele><time>2026-04-25T17:33:19.174Z</time></trkpt><trkpt lat="44.9771461" lon="7.6089682"><ele>237.0</ele><time>2026-04-25T17:33:20.175Z</time></trkpt><trkpt lat="44.9769684" lon="7.6087876"><ele>236.66666666666669</ele><time>2026-04-25T17:33:21.171Z</time></trkpt><trkpt lat="44.976799" lon="7.6086198"><ele>236.33333333333334</ele><time>2026-04-25T17:33:22.174Z</time></trkpt><trkpt lat="44.9766381" lon="7.6084538"><ele>236.0</ele><time>2026-04-25T17:33:23.181Z</time></trkpt><trkpt lat="44.9764974" lon="7.6082613"><ele>237.66666666666669</ele><time>2026-04-25T17:33:24.174Z</time></trkpt><trkpt lat="44.976347" lon="7.6081181"><ele>239.33333333333331</ele><time>2026-04-25T17:33:25.184Z</time></trkpt><trkpt lat="44.9761843" lon="7.6079758"><ele>241.0</ele><time>2026-04-25T17:33:26.182Z</time></trkpt><trkpt lat="44.9760388" lon="7.6078239"><ele>241.66666666666666</ele><time>2026-04-25T17:33:27.184Z</time></trkpt><trkpt lat="44.9758663" lon="7.607675"><ele>242.33333333333331</ele><time>2026-04-25T17:33:28.178Z</time></trkpt><trkpt lat="44.9757171" lon="7.607505"><ele>243.0</ele><time>2026-04-25T17:33:29.176Z</time></trkpt><trkpt lat="44.9755626" lon="7.6073645"><ele>243.0</ele><time>2026-04-25T17:33:30.176Z</time></trkpt><trkpt lat="44.9754169" lon="7.6072069"><ele>243.0</ele><time>2026-04-25T17:33:31.174Z</time></trkpt><trkpt lat="44.9752927" lon="7.6070726"><ele>243.0</ele><time>2026-04-25T17:33:32.184Z</time></trkpt><trkpt lat="44.9751562" lon="7.6069328"><ele>243.66666666666669</ele><time>2026-04-25T17:33:33.174Z</time></trkpt><trkpt lat="44.9750239" lon="7.606788"><ele>244.33333333333334</ele><time>2026-04-25T17:33:34.178Z</time></trkpt><trkpt lat="44.9748766" lon="7.6066474"><ele>245.0</ele><time>2026-04-25T17:33:35.183Z</time></trkpt><trkpt lat="44.9747314" lon="7.6065038"><ele>245.0</ele><time>2026-04-25T17:33:36.183Z</time></trkpt><trkpt lat="44.9745724" lon="7.6063603"><ele>245.0</ele><time>2026-04-25T17:33:37.181Z</time></trkpt><trkpt lat="44.9744236" lon="7.6062173"><ele>245.0</ele><time>2026-04-25T17:33:38.182Z</time></trkpt><trkpt lat="44.9742784" lon="7.6060641"><ele>245.0</ele><time>2026-04-25T17:33:39.181Z</time></trkpt><trkpt lat="44.9741448" lon="7.6059115"><ele>245.0</ele><time>2026-04-25T17:33:40.183Z</time></trkpt><trkpt lat="44.9740066" lon="7.6057552"><ele>245.0</ele><time>2026-04-25T17:33:41.187Z</time></trkpt><trkpt lat="44.9738624" lon="7.6056115"><ele>245.0</ele><time>2026-04-25T17:33:42.184Z</time></trkpt><trkpt lat="44.9737355" lon="7.605462"><ele>245.0</ele><time>2026-04-25T17:33:43.185Z</time></trkpt><trkpt lat="44.9736049" lon="7.6053001"><ele>245.0</ele><time>2026-04-25T17:33:44.185Z</time></trkpt><trkpt lat="44.9734402" lon="7.605178"><ele>245.5</ele><time>2026-04-25T17:33:45.188Z</time></trkpt><trkpt lat="44.9732611" lon="7.6050258"><ele>246.0</ele><time>2026-04-25T17:33:46.185Z</time></trkpt><trkpt lat="44.9730324" lon="7.6048692"><ele>246.0</ele><time>2026-04-25T17:33:47.18Z</time></trkpt><trkpt lat="44.9728166" lon="7.6047443"><ele>246.0</ele><time>2026-04-25T17:33:48.177Z</time></trkpt><trkpt lat="44.972611" lon="7.6045905"><ele>247.5</ele><time>2026-04-25T17:33:49.177Z</time></trkpt><trkpt lat="44.972388" lon="7.6044663"><ele>249.0</ele><time>2026-04-25T17:33:50.179Z</time></trkpt><trkpt lat="44.9721574" lon="7.6043465"><ele>249.0</ele><time>2026-04-25T17:33:51.187Z</time></trkpt><trkpt lat="44.9719603" lon="7.604215"><ele>249.0</ele><time>2026-04-25T17:33:52.179Z</time></trkpt><trkpt lat="44.9717698" lon="7.6040823"><ele>249.0</ele><time>2026-04-25T17:33:53.184Z</time></trkpt><trkpt lat="44.9715923" lon="7.6039557"><ele>248.0</ele><time>2026-04-25T17:33:54.182Z</time></trkpt><trkpt lat="44.9714094" lon="7.6038265"><ele>247.0</ele><time>2026-04-25T17:33:55.185Z</time></trkpt><trkpt lat="44.9712538" lon="7.6036687"><ele>246.0</ele><time>2026-04-25T17:33:56.183Z</time></trkpt><trkpt lat="44.9710979" lon="7.6035185"><ele>246.0</ele><time>2026-04-25T17:33:57.186Z</time></trkpt><trkpt lat="44.9709562" lon="7.6033684"><ele>246.0</ele><time>2026-04-25T17:33:58.189Z</time></trkpt><trkpt lat="44.970776" lon="7.6032102"><ele>246.0</ele><time>2026-04-25T17:33:59.186Z</time></trkpt><trkpt lat="44.9706116" lon="7.603036"><ele>246.0</ele><time>2026-04-25T17:34:00.184Z</time></trkpt><trkpt lat="44.9704493" lon="7.6028586"><ele>246.0</ele><time>2026-04-25T17:34:01.186Z</time></trkpt><trkpt lat="44.9702839" lon="7.6026751"><ele>246.0</ele><time>2026-04-25T17:34:02.185Z</time></trkpt><trkpt lat="44.9701419" lon="7.6025072"><ele>245.0</ele><time>2026-04-25T17:34:03.189Z</time></trkpt><trkpt lat="44.9700155" lon="7.6023728"><ele>244.0</ele><time>2026-04-25T17:34:04.183Z</time></trkpt><trkpt lat="44.969884" lon="7.6022406"><ele>243.0</ele><time>2026-04-25T17:34:05.186Z</time></trkpt><trkpt lat="44.9697435" lon="7.6021054"><ele>243.66666666666669</ele><time>2026-04-25T17:34:06.186Z</time></trkpt><trkpt lat="44.9696163" lon="7.6019448"><ele>244.33333333333334</ele><time>2026-04-25T17:34:07.185Z</time></trkpt><trkpt lat="44.9694653" lon="7.601787"><ele>245.0</ele><time>2026-04-25T17:34:08.183Z</time></trkpt><trkpt lat="44.9693268" lon="7.6016332"><ele>245.0</ele><time>2026-04-25T17:34:09.185Z</time></trkpt><trkpt lat="44.969197" lon="7.6014843"><ele>245.0</ele><time>2026-04-25T17:34:10.184Z</time></trkpt><trkpt lat="44.9690436" lon="7.6013342"><ele>245.0</ele><time>2026-04-25T17:34:11.179Z</time></trkpt><trkpt lat="44.9689117" lon="7.601174"><ele>244.66666666666669</ele><time>2026-04-25T17:34:12.188Z</time></trkpt><trkpt lat="44.9687817" lon="7.600996"><ele>244.33333333333331</ele><time>2026-04-25T17:34:13.19Z</time></trkpt><trkpt lat="44.9686317" lon="7.6008454"><ele>244.0</ele><time>2026-04-25T17:34:14.188Z</time></trkpt><trkpt lat="44.968487" lon="7.6006951"><ele>244.33333333333331</ele><time>2026-04-25T17:34:15.19Z</time></trkpt><trkpt lat="44.9683382" lon="7.600544"><ele>244.66666666666669</ele><time>2026-04-25T17:34:16.189Z</time></trkpt><trkpt lat="44.9681814" lon="7.6004055"><ele>245.0</ele><time>2026-04-25T17:34:17.192Z</time></trkpt><trkpt lat="44.9680379" lon="7.6002396"><ele>245.0</ele><time>2026-04-25T17:34:18.195Z</time></trkpt><trkpt lat="44.9678986" lon="7.6000876"><ele>245.0</ele><time>2026-04-25T17:34:19.194Z</time></trkpt><trkpt lat="44.9677553" lon="7.5999243"><ele>245.0</ele><time>2026-04-25T17:34:20.19Z</time></trkpt><trkpt lat="44.9676049" lon="7.5997814"><ele>243.33333333333334</ele><time>2026-04-25T17:34:21.195Z</time></trkpt><trkpt lat="44.9674659" lon="7.5996347"><ele>241.66666666666669</ele><time>2026-04-25T17:34:22.193Z</time></trkpt><trkpt lat="44.967335" lon="7.5994843"><ele>240.0</ele><time>2026-04-25T17:34:23.2Z</time></trkpt><trkpt lat="44.9671995" lon="7.5993425"><ele>239.0</ele><time>2026-04-25T17:34:24.192Z</time></trkpt><trkpt lat="44.9670626" lon="7.5992018"><ele>238.0</ele><time>2026-04-25T17:34:25.194Z</time></trkpt><trkpt lat="44.966936" lon="7.5990774"><ele>237.0</ele><time>2026-04-25T17:34:26.19Z</time></trkpt><trkpt lat="44.9668085" lon="7.5989389"><ele>237.33333333333331</ele><time>2026-04-25T17:34:27.192Z</time></trkpt><trkpt lat="44.9666684" lon="7.5988027"><ele>237.66666666666666</ele><time>2026-04-25T17:34:28.192Z</time></trkpt><trkpt lat="44.966534" lon="7.5986615"><ele>238.0</ele><time>2026-04-25T17:34:29.193Z</time></trkpt><trkpt lat="44.9663947" lon="7.5985226"><ele>238.0</ele><time>2026-04-25T17:34:30.189Z</time></trkpt><trkpt lat="44.9662599" lon="7.5983699"><ele>238.0</ele><time>2026-04-25T17:34:31.19Z</time></trkpt><trkpt lat="44.9661358" lon="7.5982132"><ele>238.0</ele><time>2026-04-25T17:34:32.197Z</time></trkpt><trkpt lat="44.9660222" lon="7.5980593"><ele>238.0</ele><time>2026-04-25T17:34:33.194Z</time></trkpt><trkpt lat="44.965899" lon="7.5979205"><ele>238.0</ele><time>2026-04-25T17:34:34.205Z</time></trkpt><trkpt lat="44.9657787" lon="7.5977698"><ele>238.0</ele><time>2026-04-25T17:34:35.192Z</time></trkpt><trkpt lat="44.9656683" lon="7.5976128"><ele>237.66666666666666</ele><time>2026-04-25T17:34:36.189Z</time></trkpt><trkpt lat="44.9655582" lon="7.5974211"><ele>237.33333333333331</ele><time>2026-04-25T17:34:37.181Z</time></trkpt><trkpt lat="44.9654281" lon="7.5972596"><ele>237.0</ele><time>2026-04-25T17:34:38.192Z</time></trkpt><trkpt lat="44.9652997" lon="7.5970807"><ele>236.66666666666669</ele><time>2026-04-25T17:34:39.19Z</time></trkpt><trkpt lat="44.9651868" lon="7.5968779"><ele>236.33333333333334</ele><time>2026-04-25T17:34:40.187Z</time></trkpt><trkpt lat="44.9650764" lon="7.5966754"><ele>236.0</ele><time>2026-04-25T17:34:41.188Z</time></trkpt><trkpt lat="44.9649683" lon="7.596458"><ele>236.0</ele><time>2026-04-25T17:34:42.187Z</time></trkpt><trkpt lat="44.9648797" lon="7.5962275"><ele>236.0</ele><time>2026-04-25T17:34:43.184Z</time></trkpt><trkpt lat="44.9647726" lon="7.5960129"><ele>236.0</ele><time>2026-04-25T17:34:44.187Z</time></trkpt><trkpt lat="44.9646815" lon="7.5957939"><ele>236.0</ele><time>2026-04-25T17:34:45.19Z</time></trkpt><trkpt lat="44.9645966" lon="7.5955764"><ele>236.0</ele><time>2026-04-25T17:34:46.178Z</time></trkpt><trkpt lat="44.9645351" lon="7.5953491"><ele>236.0</ele><time>2026-04-25T17:34:47.189Z</time></trkpt><trkpt lat="44.9644796" lon="7.5951481"><ele>235.66666666666669</ele><time>2026-04-25T17:34:48.194Z</time></trkpt><trkpt lat="44.9644159" lon="7.5949326"><ele>235.33333333333331</ele><time>2026-04-25T17:34:49.19Z</time></trkpt><trkpt lat="44.9643643" lon="7.5947064"><ele>235.0</ele><time>2026-04-25T17:34:50.19Z</time></trkpt><trkpt lat="44.9643119" lon="7.5944746"><ele>235.0</ele><time>2026-04-25T17:34:51.192Z</time></trkpt><trkpt lat="44.9642704" lon="7.5942386"><ele>235.0</ele><time>2026-04-25T17:34:52.189Z</time></trkpt><trkpt lat="44.9642311" lon="7.5939842"><ele>235.0</ele><time>2026-04-25T17:34:53.199Z</time></trkpt><trkpt lat="44.9641902" lon="7.5937251"><ele>235.0</ele><time>2026-04-25T17:34:54.188Z</time></trkpt><trkpt lat="44.9641715" lon="7.5934864"><ele>235.0</ele><time>2026-04-25T17:34:55.191Z</time></trkpt><trkpt lat="44.964168" lon="7.593289"><ele>235.0</ele><time>2026-04-25T17:34:56.187Z</time></trkpt><trkpt lat="44.9641397" lon="7.5930659"><ele>235.0</ele><time>2026-04-25T17:34:57.195Z</time></trkpt><trkpt lat="44.9641293" lon="7.5928089"><ele>235.0</ele><time>2026-04-25T17:34:58.192Z</time></trkpt><trkpt lat="44.964121" lon="7.5925487"><ele>235.0</ele><time>2026-04-25T17:34:59.196Z</time></trkpt><trkpt lat="44.9641114" lon="7.5923068"><ele>235.0</ele><time>2026-04-25T17:35:00.194Z</time></trkpt><trkpt lat="44.9641262" lon="7.5920814"><ele>235.0</ele><time>2026-04-25T17:35:01.196Z</time></trkpt><trkpt lat="44.9641269" lon="7.5918414"><ele>235.0</ele><time>2026-04-25T17:35:02.19Z</time></trkpt><trkpt lat="44.9641397" lon="7.5915972"><ele>236.0</ele><time>2026-04-25T17:35:03.19Z</time></trkpt><trkpt lat="44.9641616" lon="7.5913342"><ele>237.0</ele><time>2026-04-25T17:35:04.186Z</time></trkpt><trkpt lat="44.9642033" lon="7.5910823"><ele>238.0</ele><time>2026-04-25T17:35:05.202Z</time></trkpt><trkpt lat="44.9642366" lon="7.5908279"><ele>238.33333333333331</ele><time>2026-04-25T17:35:06.187Z</time></trkpt><trkpt lat="44.9642554" lon="7.5905796"><ele>238.66666666666669</ele><time>2026-04-25T17:35:07.188Z</time></trkpt><trkpt lat="44.9642676" lon="7.5903496"><ele>239.0</ele><time>2026-04-25T17:35:08.192Z</time></trkpt><trkpt lat="44.9642634" lon="7.5901059"><ele>239.0</ele><time>2026-04-25T17:35:09.187Z</time></trkpt><trkpt lat="44.9642489" lon="7.5898591"><ele>239.0</ele><time>2026-04-25T17:35:10.196Z</time></trkpt><trkpt lat="44.9642419" lon="7.5896064"><ele>239.0</ele><time>2026-04-25T17:35:11.184Z</time></trkpt><trkpt lat="44.9642279" lon="7.5893694"><ele>238.66666666666669</ele><time>2026-04-25T17:35:12.186Z</time></trkpt><trkpt lat="44.9642111" lon="7.589121"><ele>238.33333333333331</ele><time>2026-04-25T17:35:13.191Z</time></trkpt><trkpt lat="44.9641757" lon="7.5889067"><ele>238.0</ele><time>2026-04-25T17:35:14.196Z</time></trkpt><trkpt lat="44.9641378" lon="7.5886596"><ele>239.33333333333331</ele><time>2026-04-25T17:35:15.191Z</time></trkpt><trkpt lat="44.964115" lon="7.5884043"><ele>240.66666666666669</ele><time>2026-04-25T17:35:16.194Z</time></trkpt><trkpt lat="44.9640715" lon="7.5881416"><ele>242.0</ele><time>2026-04-25T17:35:17.19Z</time></trkpt><trkpt lat="44.9640451" lon="7.587874"><ele>242.33333333333334</ele><time>2026-04-25T17:35:18.193Z</time></trkpt><trkpt lat="44.9640241" lon="7.5876133"><ele>242.66666666666669</ele><time>2026-04-25T17:35:19.191Z</time></trkpt><trkpt lat="44.9639765" lon="7.5873799"><ele>243.0</ele><time>2026-04-25T17:35:20.19Z</time></trkpt><trkpt lat="44.9639334" lon="7.5871293"><ele>242.66666666666669</ele><time>2026-04-25T17:35:21.193Z</time></trkpt><trkpt lat="44.9639094" lon="7.5868682"><ele>242.33333333333334</ele><time>2026-04-25T17:35:22.187Z</time></trkpt><trkpt lat="44.9638847" lon="7.5865907"><ele>242.0</ele><time>2026-04-25T17:35:23.197Z</time></trkpt><trkpt lat="44.9638485" lon="7.5863345"><ele>242.66666666666669</ele><time>2026-04-25T17:35:24.189Z</time></trkpt><trkpt lat="44.9638062" lon="7.5860738"><ele>243.33333333333331</ele><time>2026-04-25T17:35:25.194Z</time></trkpt><trkpt lat="44.9637605" lon="7.5858149"><ele>244.0</ele><time>2026-04-25T17:35:26.185Z</time></trkpt><trkpt lat="44.9637299" lon="7.5855788"><ele>245.0</ele><time>2026-04-25T17:35:27.188Z</time></trkpt><trkpt lat="44.9636927" lon="7.5853046"><ele>246.0</ele><time>2026-04-25T17:35:28.191Z</time></trkpt><trkpt lat="44.9636554" lon="7.5850416"><ele>247.0</ele><time>2026-04-25T17:35:29.19Z</time></trkpt><trkpt lat="44.9636106" lon="7.5847741"><ele>247.66666666666666</ele><time>2026-04-25T17:35:30.191Z</time></trkpt><trkpt lat="44.9635809" lon="7.5845021"><ele>248.33333333333331</ele><time>2026-04-25T17:35:31.188Z</time></trkpt><trkpt lat="44.963563" lon="7.5842419"><ele>249.0</ele><time>2026-04-25T17:35:32.187Z</time></trkpt><trkpt lat="44.9635201" lon="7.5839918"><ele>249.0</ele><time>2026-04-25T17:35:33.187Z</time></trkpt><trkpt lat="44.9634795" lon="7.5837365"><ele>249.0</ele><time>2026-04-25T17:35:34.187Z</time></trkpt><trkpt lat="44.9634616" lon="7.5834766"><ele>249.0</ele><time>2026-04-25T17:35:35.185Z</time></trkpt><trkpt lat="44.9634235" lon="7.5832049"><ele>249.33333333333331</ele><time>2026-04-25T17:35:36.191Z</time></trkpt><trkpt lat="44.9633671" lon="7.5829305"><ele>249.66666666666666</ele><time>2026-04-25T17:35:37.183Z</time></trkpt><trkpt lat="44.963339" lon="7.5826508"><ele>250.0</ele><time>2026-04-25T17:35:38.179Z</time></trkpt><trkpt lat="44.9633214" lon="7.5823993"><ele>249.33333333333331</ele><time>2026-04-25T17:35:39.185Z</time></trkpt><trkpt lat="44.9632915" lon="7.5821393"><ele>248.66666666666669</ele><time>2026-04-25T17:35:40.188Z</time></trkpt><trkpt lat="44.9632492" lon="7.5818866"><ele>248.0</ele><time>2026-04-25T17:35:41.184Z</time></trkpt><trkpt lat="44.9632149" lon="7.5816111"><ele>248.0</ele><time>2026-04-25T17:35:42.186Z</time></trkpt><trkpt lat="44.9631775" lon="7.5813342"><ele>248.0</ele><time>2026-04-25T17:35:43.183Z</time></trkpt><trkpt lat="44.9631329" lon="7.5810751"><ele>248.0</ele><time>2026-04-25T17:35:44.183Z</time></trkpt><trkpt lat="44.9630897" lon="7.580815"><ele>248.0</ele><time>2026-04-25T17:35:45.188Z</time></trkpt><trkpt lat="44.9630674" lon="7.5805498"><ele>248.0</ele><time>2026-04-25T17:35:46.184Z</time></trkpt><trkpt lat="44.9630424" lon="7.5802965"><ele>248.0</ele><time>2026-04-25T17:35:47.186Z</time></trkpt><trkpt lat="44.9630035" lon="7.5800416"><ele>248.0</ele><time>2026-04-25T17:35:48.185Z</time></trkpt><trkpt lat="44.9629627" lon="7.579803"><ele>248.0</ele><time>2026-04-25T17:35:49.186Z</time></trkpt><trkpt lat="44.9629286" lon="7.5795425"><ele>248.0</ele><time>2026-04-25T17:35:50.19Z</time></trkpt><trkpt lat="44.9629218" lon="7.5792954"><ele>247.75</ele><time>2026-04-25T17:35:51.183Z</time></trkpt><trkpt lat="44.9628866" lon="7.57909"><ele>247.5</ele><time>2026-04-25T17:35:52.181Z</time></trkpt><trkpt lat="44.9628582" lon="7.5788792"><ele>247.25</ele><time>2026-04-25T17:35:53.196Z</time></trkpt><trkpt lat="44.9628252" lon="7.5786949"><ele>247.0</ele><time>2026-04-25T17:35:54.184Z</time></trkpt><trkpt lat="44.9628083" lon="7.5785285"><ele>247.5</ele><time>2026-04-25T17:35:55.189Z</time></trkpt><trkpt lat="44.9627881" lon="7.5783816"><ele>248.0</ele><time>2026-04-25T17:35:56.19Z</time></trkpt><trkpt lat="44.9627478" lon="7.5781966"><ele>248.5</ele><time>2026-04-25T17:35:57.19Z</time></trkpt><trkpt lat="44.9626977" lon="7.5780504"><ele>249.0</ele><time>2026-04-25T17:35:58.19Z</time></trkpt><trkpt lat="44.9626588" lon="7.5779111"><ele>248.66666666666666</ele><time>2026-04-25T17:35:59.188Z</time></trkpt><trkpt lat="44.9626168" lon="7.5778132"><ele>248.33333333333331</ele><time>2026-04-25T17:36:00.18Z</time></trkpt><trkpt lat="44.9625898" lon="7.5777096"><ele>248.0</ele><time>2026-04-25T17:36:01.178Z</time></trkpt><trkpt lat="44.9625715" lon="7.5776182"><ele>247.66666666666666</ele><time>2026-04-25T17:36:02.183Z</time></trkpt><trkpt lat="44.9625348" lon="7.5775256"><ele>247.33333333333331</ele><time>2026-04-25T17:36:04.177Z</time></trkpt><trkpt lat="44.9624991" lon="7.5774212"><ele>247.0</ele><time>2026-04-25T17:36:06.183Z</time></trkpt><trkpt lat="44.9625129" lon="7.5773225"><ele>246.99999999999997</ele><time>2026-04-25T17:36:08.178Z</time></trkpt><trkpt lat="44.9625736" lon="7.5771652"><ele>247.0</ele><time>2026-04-25T17:36:10.176Z</time></trkpt><trkpt lat="44.9626079" lon="7.5770703"><ele>247.0</ele><time>2026-04-25T17:36:11.187Z</time></trkpt><trkpt lat="44.9626286" lon="7.5769715"><ele>247.0</ele><time>2026-04-25T17:36:12.187Z</time></trkpt><trkpt lat="44.9626414" lon="7.5768691"><ele>246.99999999999997</ele><time>2026-04-25T17:36:13.184Z</time></trkpt><trkpt lat="44.9626322" lon="7.5767406"><ele>247.0</ele><time>2026-04-25T17:36:14.175Z</time></trkpt><trkpt lat="44.9626039" lon="7.5766075"><ele>247.0</ele><time>2026-04-25T17:36:15.177Z</time></trkpt><trkpt lat="44.9625526" lon="7.5764764"><ele>247.0</ele><time>2026-04-25T17:36:16.175Z</time></trkpt><trkpt lat="44.9624998" lon="7.5763615"><ele>247.0</ele><time>2026-04-25T17:36:17.172Z</time></trkpt><trkpt lat="44.962437" lon="7.5762647"><ele>247.0</ele><time>2026-04-25T17:36:18.186Z</time></trkpt><trkpt lat="44.9623447" lon="7.5761999"><ele>247.0</ele><time>2026-04-25T17:36:19.171Z</time></trkpt><trkpt lat="44.9622123" lon="7.5761794"><ele>246.0</ele><time>2026-04-25T17:36:20.176Z</time></trkpt><trkpt lat="44.9620906" lon="7.5761352"><ele>245.0</ele><time>2026-04-25T17:36:21.182Z</time></trkpt><trkpt lat="44.9619915" lon="7.5760596"><ele>244.0</ele><time>2026-04-25T17:36:22.174Z</time></trkpt><trkpt lat="44.9618863" lon="7.5759784"><ele>243.0</ele><time>2026-04-25T17:36:23.18Z</time></trkpt><trkpt lat="44.9617925" lon="7.5758201"><ele>243.0</ele><time>2026-04-25T17:36:24.185Z</time></trkpt><trkpt lat="44.9617011" lon="7.5756053"><ele>243.0</ele><time>2026-04-25T17:36:25.176Z</time></trkpt><trkpt lat="44.9616216" lon="7.5753069"><ele>243.0</ele><time>2026-04-25T17:36:26.176Z</time></trkpt><trkpt lat="44.9616276" lon="7.5749274"><ele>243.0</ele><time>2026-04-25T17:36:27.172Z</time></trkpt><trkpt lat="44.9615777" lon="7.5745983"><ele>243.0</ele><time>2026-04-25T17:36:28.177Z</time></trkpt><trkpt lat="44.9615375" lon="7.5742765"><ele>244.0</ele><time>2026-04-25T17:36:29.185Z</time></trkpt><trkpt lat="44.9614767" lon="7.5739669"><ele>245.0</ele><time>2026-04-25T17:36:30.185Z</time></trkpt><trkpt lat="44.9614272" lon="7.5736369"><ele>245.33333333333334</ele><time>2026-04-25T17:36:31.181Z</time></trkpt><trkpt lat="44.961386" lon="7.5733476"><ele>245.66666666666669</ele><time>2026-04-25T17:36:32.18Z</time></trkpt><trkpt lat="44.9613367" lon="7.5730221"><ele>246.0</ele><time>2026-04-25T17:36:33.183Z</time></trkpt><trkpt lat="44.9612956" lon="7.5726661"><ele>245.0</ele><time>2026-04-25T17:36:34.188Z</time></trkpt><trkpt lat="44.9612626" lon="7.572298"><ele>244.0</ele><time>2026-04-25T17:36:35.182Z</time></trkpt><trkpt lat="44.9612311" lon="7.5719256"><ele>243.0</ele><time>2026-04-25T17:36:36.179Z</time></trkpt><trkpt lat="44.9612152" lon="7.5715451"><ele>242.0</ele><time>2026-04-25T17:36:37.182Z</time></trkpt><trkpt lat="44.9612067" lon="7.5712114"><ele>242.0</ele><time>2026-04-25T17:36:38.192Z</time></trkpt><trkpt lat="44.9612053" lon="7.5708564"><ele>242.0</ele><time>2026-04-25T17:36:39.176Z</time></trkpt><trkpt lat="44.9612067" lon="7.5705171"><ele>243.0</ele><time>2026-04-25T17:36:40.187Z</time></trkpt><trkpt lat="44.9612284" lon="7.5701741"><ele>244.0</ele><time>2026-04-25T17:36:41.194Z</time></trkpt><trkpt lat="44.9612127" lon="7.5698226"><ele>243.5</ele><time>2026-04-25T17:36:42.192Z</time></trkpt><trkpt lat="44.9612271" lon="7.5695006"><ele>243.0</ele><time>2026-04-25T17:36:43.185Z</time></trkpt><trkpt lat="44.9612311" lon="7.5691655"><ele>243.0</ele><time>2026-04-25T17:36:44.195Z</time></trkpt><trkpt lat="44.9612395" lon="7.5688351"><ele>243.0</ele><time>2026-04-25T17:36:45.192Z</time></trkpt><trkpt lat="44.9612386" lon="7.5685309"><ele>243.0</ele><time>2026-04-25T17:36:46.189Z</time></trkpt><trkpt lat="44.9612421" lon="7.5681885"><ele>243.5</ele><time>2026-04-25T17:36:47.188Z</time></trkpt><trkpt lat="44.961258" lon="7.5678693"><ele>244.0</ele><time>2026-04-25T17:36:48.19Z</time></trkpt><trkpt lat="44.961226" lon="7.5675318"><ele>244.0</ele><time>2026-04-25T17:36:49.192Z</time></trkpt><trkpt lat="44.9611763" lon="7.5672095"><ele>244.0</ele><time>2026-04-25T17:36:50.189Z</time></trkpt><trkpt lat="44.961109" lon="7.5669025"><ele>245.0</ele><time>2026-04-25T17:36:51.187Z</time></trkpt><trkpt lat="44.9610201" lon="7.5666086"><ele>246.0</ele><time>2026-04-25T17:36:52.181Z</time></trkpt><trkpt lat="44.9609182" lon="7.5663048"><ele>245.0</ele><time>2026-04-25T17:36:53.19Z</time></trkpt><trkpt lat="44.9607995" lon="7.5660438"><ele>244.0</ele><time>2026-04-25T17:36:54.182Z</time></trkpt><trkpt lat="44.9606614" lon="7.5658006"><ele>243.0</ele><time>2026-04-25T17:36:55.176Z</time></trkpt><trkpt lat="44.9605075" lon="7.5655705"><ele>243.0</ele><time>2026-04-25T17:36:56.168Z</time></trkpt><trkpt lat="44.9602977" lon="7.5653804"><ele>243.0</ele><time>2026-04-25T17:36:57.178Z</time></trkpt><trkpt lat="44.9600603" lon="7.5651895"><ele>244.0</ele><time>2026-04-25T17:36:58.175Z</time></trkpt><trkpt lat="44.9598945" lon="7.5650247"><ele>245.0</ele><time>2026-04-25T17:36:59.188Z</time></trkpt><trkpt lat="44.9597181" lon="7.564821"><ele>246.0</ele><time>2026-04-25T17:37:00.189Z</time></trkpt><trkpt lat="44.9595389" lon="7.5646259"><ele>246.0</ele><time>2026-04-25T17:37:01.182Z</time></trkpt><trkpt lat="44.9593819" lon="7.5644338"><ele>246.0</ele><time>2026-04-25T17:37:02.173Z</time></trkpt><trkpt lat="44.9592039" lon="7.564284"><ele>246.0</ele><time>2026-04-25T17:37:03.176Z</time></trkpt><trkpt lat="44.9591076" lon="7.5641623"><ele>246.0</ele><time>2026-04-25T17:37:04.172Z</time></trkpt><trkpt lat="44.9590096" lon="7.5639765"><ele>246.0</ele><time>2026-04-25T17:37:05.177Z</time></trkpt><trkpt lat="44.9589314" lon="7.5638544"><ele>246.0</ele><time>2026-04-25T17:37:06.17Z</time></trkpt><trkpt lat="44.9588191" lon="7.5637125"><ele>246.0</ele><time>2026-04-25T17:37:07.161Z</time></trkpt><trkpt lat="44.9586968" lon="7.5635979"><ele>245.75</ele><time>2026-04-25T17:37:08.161Z</time></trkpt><trkpt lat="44.9585814" lon="7.5634881"><ele>245.5</ele><time>2026-04-25T17:37:09.169Z</time></trkpt><trkpt lat="44.9584876" lon="7.5633929"><ele>245.25</ele><time>2026-04-25T17:37:10.172Z</time></trkpt><trkpt lat="44.9584014" lon="7.5632928"><ele>245.0</ele><time>2026-04-25T17:37:11.176Z</time></trkpt><trkpt lat="44.9583193" lon="7.5631922"><ele>245.0</ele><time>2026-04-25T17:37:12.177Z</time></trkpt><trkpt lat="44.9582201" lon="7.5630597"><ele>245.0</ele><time>2026-04-25T17:37:13.183Z</time></trkpt><trkpt lat="44.9581053" lon="7.5629257"><ele>245.0</ele><time>2026-04-25T17:37:14.192Z</time></trkpt><trkpt lat="44.9579762" lon="7.5627906"><ele>245.0</ele><time>2026-04-25T17:37:15.193Z</time></trkpt><trkpt lat="44.9578731" lon="7.5626395"><ele>245.0</ele><time>2026-04-25T17:37:16.195Z</time></trkpt><trkpt lat="44.9577612" lon="7.5624934"><ele>245.0</ele><time>2026-04-25T17:37:17.195Z</time></trkpt><trkpt lat="44.9576567" lon="7.5623403"><ele>245.0</ele><time>2026-04-25T17:37:18.197Z</time></trkpt><trkpt lat="44.957525" lon="7.5621621"><ele>245.33333333333334</ele><time>2026-04-25T17:37:19.196Z</time></trkpt><trkpt lat="44.9573915" lon="7.562026"><ele>245.66666666666669</ele><time>2026-04-25T17:37:20.187Z</time></trkpt><trkpt lat="44.9572655" lon="7.5618561"><ele>246.0</ele><time>2026-04-25T17:37:21.196Z</time></trkpt><trkpt lat="44.9571473" lon="7.5616924"><ele>246.0</ele><time>2026-04-25T17:37:22.191Z</time></trkpt><trkpt lat="44.957025" lon="7.5615392"><ele>246.0</ele><time>2026-04-25T17:37:23.202Z</time></trkpt><trkpt lat="44.9569023" lon="7.5613451"><ele>246.0</ele><time>2026-04-25T17:37:24.187Z</time></trkpt><trkpt lat="44.9567849" lon="7.5611509"><ele>245.66666666666669</ele><time>2026-04-25T17:37:25.192Z</time></trkpt><trkpt lat="44.9566605" lon="7.560998"><ele>245.33333333333334</ele><time>2026-04-25T17:37:26.187Z</time></trkpt><trkpt lat="44.9565603" lon="7.5608003"><ele>245.0</ele><time>2026-04-25T17:37:27.192Z</time></trkpt><trkpt lat="44.9564502" lon="7.5606139"><ele>245.0</ele><time>2026-04-25T17:37:28.186Z</time></trkpt><trkpt lat="44.9563582" lon="7.5604332"><ele>245.0</ele><time>2026-04-25T17:37:29.185Z</time></trkpt><trkpt lat="44.9562797" lon="7.560277"><ele>245.0</ele><time>2026-04-25T17:37:30.183Z</time></trkpt><trkpt lat="44.9561924" lon="7.5601402"><ele>245.0</ele><time>2026-04-25T17:37:31.182Z</time></trkpt><trkpt lat="44.9561058" lon="7.5599651"><ele>244.75</ele><time>2026-04-25T17:37:32.187Z</time></trkpt><trkpt lat="44.9560188" lon="7.5597974"><ele>244.5</ele><time>2026-04-25T17:37:33.187Z</time></trkpt><trkpt lat="44.9559341" lon="7.5596322"><ele>244.25</ele><time>2026-04-25T17:37:34.18Z</time></trkpt><trkpt lat="44.9558331" lon="7.5595154"><ele>244.0</ele><time>2026-04-25T17:37:35.185Z</time></trkpt><trkpt lat="44.9557313" lon="7.5593694"><ele>244.0</ele><time>2026-04-25T17:37:36.185Z</time></trkpt><trkpt lat="44.9556541" lon="7.5592199"><ele>244.0</ele><time>2026-04-25T17:37:37.183Z</time></trkpt><trkpt lat="44.9555842" lon="7.5590596"><ele>244.0</ele><time>2026-04-25T17:37:38.18Z</time></trkpt><trkpt lat="44.9554947" lon="7.5588853"><ele>244.0</ele><time>2026-04-25T17:37:39.18Z</time></trkpt><trkpt lat="44.9554127" lon="7.5587305"><ele>244.0</ele><time>2026-04-25T17:37:40.203Z</time></trkpt><trkpt lat="44.9553412" lon="7.5585982"><ele>244.0</ele><time>2026-04-25T17:37:41.187Z</time></trkpt><trkpt lat="44.9552752" lon="7.5584724"><ele>244.0</ele><time>2026-04-25T17:37:42.185Z</time></trkpt><trkpt lat="44.9551893" lon="7.5583348"><ele>244.0</ele><time>2026-04-25T17:37:43.188Z</time></trkpt><trkpt lat="44.9550803" lon="7.5581471"><ele>244.0</ele><time>2026-04-25T17:37:44.176Z</time></trkpt><trkpt lat="44.9550064" lon="7.5580137"><ele>244.0</ele><time>2026-04-25T17:37:45.182Z</time></trkpt><trkpt lat="44.9549254" lon="7.557886"><ele>244.0</ele><time>2026-04-25T17:37:46.193Z</time></trkpt><trkpt lat="44.9548394" lon="7.5577262"><ele>244.0</ele><time>2026-04-25T17:37:47.19Z</time></trkpt><trkpt lat="44.9547629" lon="7.5575783"><ele>244.0</ele><time>2026-04-25T17:37:48.192Z</time></trkpt><trkpt lat="44.9546788" lon="7.5574485"><ele>244.0</ele><time>2026-04-25T17:37:49.187Z</time></trkpt><trkpt lat="44.95455" lon="7.557336"><ele>244.0</ele><time>2026-04-25T17:37:50.184Z</time></trkpt><trkpt lat="44.9544532" lon="7.5572143"><ele>244.0</ele><time>2026-04-25T17:37:51.187Z</time></trkpt><trkpt lat="44.9543741" lon="7.5570875"><ele>244.0</ele><time>2026-04-25T17:37:52.188Z</time></trkpt><trkpt lat="44.9543148" lon="7.5569605"><ele>243.99999999999997</ele><time>2026-04-25T17:37:53.19Z</time></trkpt><trkpt lat="44.9542564" lon="7.5568589"><ele>243.99999999999997</ele><time>2026-04-25T17:37:54.198Z</time></trkpt><trkpt lat="44.954202" lon="7.5567632"><ele>244.0</ele><time>2026-04-25T17:37:55.197Z</time></trkpt><trkpt lat="44.9541867" lon="7.5566567"><ele>244.0</ele><time>2026-04-25T17:37:56.189Z</time></trkpt><trkpt lat="44.954147" lon="7.5565375"><ele>244.33333333333331</ele><time>2026-04-25T17:37:58.191Z</time></trkpt><trkpt lat="44.95411" lon="7.5564533"><ele>244.66666666666666</ele><time>2026-04-25T17:38:00.185Z</time></trkpt><trkpt lat="44.9540734" lon="7.5562591"><ele>245.0</ele><time>2026-04-25T17:38:02.183Z</time></trkpt><trkpt lat="44.954054" lon="7.5561547"><ele>245.33333333333331</ele><time>2026-04-25T17:38:03.193Z</time></trkpt><trkpt lat="44.9540341" lon="7.5560531"><ele>245.66666666666666</ele><time>2026-04-25T17:38:04.184Z</time></trkpt><trkpt lat="44.9539972" lon="7.5559497"><ele>246.0</ele><time>2026-04-25T17:38:05.18Z</time></trkpt><trkpt lat="44.9539374" lon="7.5558774"><ele>246.0</ele><time>2026-04-25T17:38:06.187Z</time></trkpt><trkpt lat="44.9538448" lon="7.5558448"><ele>246.00000000000003</ele><time>2026-04-25T17:38:07.186Z</time></trkpt><trkpt lat="44.9537624" lon="7.5557961"><ele>246.00000000000003</ele><time>2026-04-25T17:38:08.191Z</time></trkpt><trkpt lat="44.9536789" lon="7.5557157"><ele>246.0</ele><time>2026-04-25T17:38:09.192Z</time></trkpt><trkpt lat="44.953603" lon="7.5555981"><ele>246.0</ele><time>2026-04-25T17:38:10.203Z</time></trkpt><trkpt lat="44.9535268" lon="7.5554554"><ele>246.0</ele><time>2026-04-25T17:38:11.187Z</time></trkpt><trkpt lat="44.9534466" lon="7.5553002"><ele>246.0</ele><time>2026-04-25T17:38:12.191Z</time></trkpt><trkpt lat="44.9533535" lon="7.5551535"><ele>246.0</ele><time>2026-04-25T17:38:13.189Z</time></trkpt><trkpt lat="44.9532514" lon="7.5549782"><ele>246.0</ele><time>2026-04-25T17:38:14.189Z</time></trkpt><trkpt lat="44.9531481" lon="7.5547712"><ele>246.0</ele><time>2026-04-25T17:38:15.186Z</time></trkpt><trkpt lat="44.9530383" lon="7.5545732"><ele>246.0</ele><time>2026-04-25T17:38:16.188Z</time></trkpt><trkpt lat="44.9529259" lon="7.5543847"><ele>246.0</ele><time>2026-04-25T17:38:17.196Z</time></trkpt><trkpt lat="44.9528194" lon="7.5541856"><ele>246.0</ele><time>2026-04-25T17:38:18.189Z</time></trkpt><trkpt lat="44.9526973" lon="7.5539897"><ele>246.0</ele><time>2026-04-25T17:38:19.192Z</time></trkpt><trkpt lat="44.952577" lon="7.5537851"><ele>246.0</ele><time>2026-04-25T17:38:20.199Z</time></trkpt><trkpt lat="44.9524561" lon="7.5535634"><ele>245.66666666666669</ele><time>2026-04-25T17:38:21.192Z</time></trkpt><trkpt lat="44.9523391" lon="7.5533492"><ele>245.33333333333334</ele><time>2026-04-25T17:38:22.193Z</time></trkpt><trkpt lat="44.9522209" lon="7.5531398"><ele>245.0</ele><time>2026-04-25T17:38:23.197Z</time></trkpt><trkpt lat="44.9520846" lon="7.5529557"><ele>245.33333333333334</ele><time>2026-04-25T17:38:24.189Z</time></trkpt><trkpt lat="44.9519426" lon="7.5527379"><ele>245.66666666666669</ele><time>2026-04-25T17:38:25.188Z</time></trkpt><trkpt lat="44.9518085" lon="7.5525106"><ele>246.0</ele><time>2026-04-25T17:38:26.186Z</time></trkpt><trkpt lat="44.9517093" lon="7.5522958"><ele>245.33333333333331</ele><time>2026-04-25T17:38:27.185Z</time></trkpt><trkpt lat="44.9515858" lon="7.5520797"><ele>244.66666666666666</ele><time>2026-04-25T17:38:28.192Z</time></trkpt><trkpt lat="44.9514443" lon="7.5518994"><ele>244.0</ele><time>2026-04-25T17:38:29.182Z</time></trkpt><trkpt lat="44.9513226" lon="7.5517015"><ele>244.0</ele><time>2026-04-25T17:38:30.18Z</time></trkpt><trkpt lat="44.9512157" lon="7.551523"><ele>244.0</ele><time>2026-04-25T17:38:31.187Z</time></trkpt><trkpt lat="44.9511147" lon="7.5513334"><ele>244.0</ele><time>2026-04-25T17:38:32.187Z</time></trkpt><trkpt lat="44.9510043" lon="7.5511661"><ele>244.0</ele><time>2026-04-25T17:38:33.186Z</time></trkpt><trkpt lat="44.9509015" lon="7.5510052"><ele>244.0</ele><time>2026-04-25T17:38:34.18Z</time></trkpt><trkpt lat="44.9507913" lon="7.5508637"><ele>244.0</ele><time>2026-04-25T17:38:35.183Z</time></trkpt><trkpt lat="44.9506986" lon="7.5506982"><ele>244.0</ele><time>2026-04-25T17:38:36.181Z</time></trkpt><trkpt lat="44.9506197" lon="7.5505206"><ele>244.0</ele><time>2026-04-25T17:38:37.181Z</time></trkpt><trkpt lat="44.9505043" lon="7.5503867"><ele>244.0</ele><time>2026-04-25T17:38:38.177Z</time></trkpt><trkpt lat="44.9503944" lon="7.5502666"><ele>244.0</ele><time>2026-04-25T17:38:39.175Z</time></trkpt><trkpt lat="44.9502764" lon="7.5501336"><ele>243.75</ele><time>2026-04-25T17:38:40.182Z</time></trkpt><trkpt lat="44.950153" lon="7.5500037"><ele>243.5</ele><time>2026-04-25T17:38:41.199Z</time></trkpt><trkpt lat="44.9500507" lon="7.549861"><ele>243.25</ele><time>2026-04-25T17:38:42.191Z</time></trkpt><trkpt lat="44.9499274" lon="7.549742"><ele>243.0</ele><time>2026-04-25T17:38:43.188Z</time></trkpt><trkpt lat="44.9496883" lon="7.5493965"><ele>244.0</ele><time>2026-04-25T17:38:45.192Z</time></trkpt><trkpt lat="44.94956" lon="7.5492402"><ele>245.0</ele><time>2026-04-25T17:38:46.199Z</time></trkpt><trkpt lat="44.9494234" lon="7.5490969"><ele>246.0</ele><time>2026-04-25T17:38:47.2Z</time></trkpt><trkpt lat="44.9493029" lon="7.5489389"><ele>246.33333333333331</ele><time>2026-04-25T17:38:48.199Z</time></trkpt><trkpt lat="44.9491641" lon="7.5487927"><ele>246.66666666666666</ele><time>2026-04-25T17:38:49.195Z</time></trkpt><trkpt lat="44.9490418" lon="7.5486396"><ele>247.0</ele><time>2026-04-25T17:38:50.199Z</time></trkpt><trkpt lat="44.9489293" lon="7.5485012"><ele>246.33333333333331</ele><time>2026-04-25T17:38:51.199Z</time></trkpt><trkpt lat="44.9488045" lon="7.5483611"><ele>245.66666666666669</ele><time>2026-04-25T17:38:52.198Z</time></trkpt><trkpt lat="44.9486714" lon="7.548195"><ele>245.0</ele><time>2026-04-25T17:38:53.194Z</time></trkpt><trkpt lat="44.948535" lon="7.5480504"><ele>245.0</ele><time>2026-04-25T17:38:54.19Z</time></trkpt><trkpt lat="44.948411" lon="7.547906"><ele>245.0</ele><time>2026-04-25T17:38:55.198Z</time></trkpt><trkpt lat="44.9483" lon="7.547765"><ele>245.0</ele><time>2026-04-25T17:38:56.195Z</time></trkpt><trkpt lat="44.9482039" lon="7.5476457"><ele>245.0</ele><time>2026-04-25T17:38:57.197Z</time></trkpt><trkpt lat="44.9480884" lon="7.5474886"><ele>244.33333333333334</ele><time>2026-04-25T17:38:58.201Z</time></trkpt><trkpt lat="44.9479651" lon="7.5473548"><ele>243.66666666666669</ele><time>2026-04-25T17:38:59.197Z</time></trkpt><trkpt lat="44.9478458" lon="7.5472112"><ele>243.0</ele><time>2026-04-25T17:39:00.194Z</time></trkpt><trkpt lat="44.9477266" lon="7.5470968"><ele>243.0</ele><time>2026-04-25T17:39:01.195Z</time></trkpt><trkpt lat="44.9476036" lon="7.5469719"><ele>243.0</ele><time>2026-04-25T17:39:02.198Z</time></trkpt><trkpt lat="44.9474846" lon="7.5468303"><ele>243.0</ele><time>2026-04-25T17:39:03.191Z</time></trkpt><trkpt lat="44.9473759" lon="7.5467312"><ele>243.0</ele><time>2026-04-25T17:39:04.196Z</time></trkpt><trkpt lat="44.9472635" lon="7.5465941"><ele>243.33333333333331</ele><time>2026-04-25T17:39:05.188Z</time></trkpt><trkpt lat="44.9471528" lon="7.5464644"><ele>243.66666666666666</ele><time>2026-04-25T17:39:06.193Z</time></trkpt><trkpt lat="44.9470088" lon="7.546315"><ele>244.0</ele><time>2026-04-25T17:39:07.188Z</time></trkpt><trkpt lat="44.9468884" lon="7.5461907"><ele>244.0</ele><time>2026-04-25T17:39:08.191Z</time></trkpt><trkpt lat="44.9467694" lon="7.5460527"><ele>244.0</ele><time>2026-04-25T17:39:09.197Z</time></trkpt><trkpt lat="44.9466475" lon="7.5458987"><ele>244.0</ele><time>2026-04-25T17:39:10.196Z</time></trkpt><trkpt lat="44.9465091" lon="7.5457514"><ele>244.25</ele><time>2026-04-25T17:39:11.194Z</time></trkpt><trkpt lat="44.946388" lon="7.5456176"><ele>244.5</ele><time>2026-04-25T17:39:12.203Z</time></trkpt><trkpt lat="44.946273" lon="7.5454875"><ele>244.75</ele><time>2026-04-25T17:39:13.189Z</time></trkpt><trkpt lat="44.9461592" lon="7.5453642"><ele>245.0</ele><time>2026-04-25T17:39:14.192Z</time></trkpt><trkpt lat="44.9460565" lon="7.5452314"><ele>245.0</ele><time>2026-04-25T17:39:15.185Z</time></trkpt><trkpt lat="44.9459409" lon="7.5451163"><ele>245.0</ele><time>2026-04-25T17:39:16.181Z</time></trkpt><trkpt lat="44.9458256" lon="7.5450172"><ele>245.0</ele><time>2026-04-25T17:39:17.182Z</time></trkpt><trkpt lat="44.9457133" lon="7.5449039"><ele>245.0</ele><time>2026-04-25T17:39:18.188Z</time></trkpt><trkpt lat="44.945599" lon="7.544769"><ele>245.66666666666669</ele><time>2026-04-25T17:39:19.191Z</time></trkpt><trkpt lat="44.9454707" lon="7.5446207"><ele>246.33333333333331</ele><time>2026-04-25T17:39:20.184Z</time></trkpt><trkpt lat="44.9453517" lon="7.5444897"><ele>247.0</ele><time>2026-04-25T17:39:21.189Z</time></trkpt><trkpt lat="44.9452398" lon="7.5443675"><ele>247.0</ele><time>2026-04-25T17:39:22.188Z</time></trkpt><trkpt lat="44.9451282" lon="7.5442612"><ele>247.0</ele><time>2026-04-25T17:39:23.193Z</time></trkpt><trkpt lat="44.9450155" lon="7.5441292"><ele>247.0</ele><time>2026-04-25T17:39:24.183Z</time></trkpt><trkpt lat="44.9448922" lon="7.5439848"><ele>247.0</ele><time>2026-04-25T17:39:25.188Z</time></trkpt><trkpt lat="44.9447723" lon="7.5438722"><ele>247.0</ele><time>2026-04-25T17:39:26.183Z</time></trkpt><trkpt lat="44.9446609" lon="7.543736"><ele>247.0</ele><time>2026-04-25T17:39:27.193Z</time></trkpt><trkpt lat="44.9445425" lon="7.5436136"><ele>247.0</ele><time>2026-04-25T17:39:28.186Z</time></trkpt><trkpt lat="44.9444155" lon="7.5434828"><ele>247.33333333333331</ele><time>2026-04-25T17:39:29.185Z</time></trkpt><trkpt lat="44.9442865" lon="7.5433512"><ele>247.66666666666669</ele><time>2026-04-25T17:39:30.186Z</time></trkpt><trkpt lat="44.944145" lon="7.5432133"><ele>248.0</ele><time>2026-04-25T17:39:31.19Z</time></trkpt><trkpt lat="44.9440141" lon="7.5430587"><ele>248.0</ele><time>2026-04-25T17:39:32.184Z</time></trkpt><trkpt lat="44.943877" lon="7.5429142"><ele>248.0</ele><time>2026-04-25T17:39:33.189Z</time></trkpt><trkpt lat="44.9437439" lon="7.5427531"><ele>248.0</ele><time>2026-04-25T17:39:34.193Z</time></trkpt><trkpt lat="44.9435968" lon="7.5425747"><ele>247.66666666666669</ele><time>2026-04-25T17:39:35.197Z</time></trkpt><trkpt lat="44.9434439" lon="7.5424124"><ele>247.33333333333331</ele><time>2026-04-25T17:39:36.185Z</time></trkpt><trkpt lat="44.9432983" lon="7.5422669"><ele>247.0</ele><time>2026-04-25T17:39:37.18Z</time></trkpt><trkpt lat="44.9431708" lon="7.5421317"><ele>247.33333333333331</ele><time>2026-04-25T17:39:38.182Z</time></trkpt><trkpt lat="44.9430474" lon="7.5419849"><ele>247.66666666666669</ele><time>2026-04-25T17:39:39.187Z</time></trkpt><trkpt lat="44.9429232" lon="7.5418716"><ele>248.0</ele><time>2026-04-25T17:39:40.184Z</time></trkpt><trkpt lat="44.9427928" lon="7.541725"><ele>248.0</ele><time>2026-04-25T17:39:41.183Z</time></trkpt><trkpt lat="44.9426646" lon="7.5415761"><ele>248.0</ele><time>2026-04-25T17:39:42.184Z</time></trkpt><trkpt lat="44.9425251" lon="7.5414657"><ele>248.0</ele><time>2026-04-25T17:39:43.188Z</time></trkpt><trkpt lat="44.9424007" lon="7.5413231"><ele>246.66666666666669</ele><time>2026-04-25T17:39:44.18Z</time></trkpt><trkpt lat="44.9422835" lon="7.5411746"><ele>245.33333333333331</ele><time>2026-04-25T17:39:45.181Z</time></trkpt><trkpt lat="44.942141" lon="7.5410405"><ele>244.0</ele><time>2026-04-25T17:39:46.182Z</time></trkpt><trkpt lat="44.9420172" lon="7.5408937"><ele>244.0</ele><time>2026-04-25T17:39:47.182Z</time></trkpt><trkpt lat="44.941897" lon="7.5407702"><ele>244.0</ele><time>2026-04-25T17:39:48.184Z</time></trkpt><trkpt lat="44.9417805" lon="7.5406453"><ele>244.0</ele><time>2026-04-25T17:39:49.187Z</time></trkpt><trkpt lat="44.9416653" lon="7.5405179"><ele>244.0</ele><time>2026-04-25T17:39:50.186Z</time></trkpt><trkpt lat="44.9415416" lon="7.5403944"><ele>244.5</ele><time>2026-04-25T17:39:51.187Z</time></trkpt><trkpt lat="44.9414404" lon="7.5402621"><ele>245.0</ele><time>2026-04-25T17:39:52.187Z</time></trkpt><trkpt lat="44.9413192" lon="7.5401342"><ele>245.5</ele><time>2026-04-25T17:39:53.195Z</time></trkpt><trkpt lat="44.9412016" lon="7.5400046"><ele>246.0</ele><time>2026-04-25T17:39:54.187Z</time></trkpt><trkpt lat="44.9410691" lon="7.5398526"><ele>246.0</ele><time>2026-04-25T17:39:55.185Z</time></trkpt><trkpt lat="44.9409405" lon="7.5397199"><ele>246.0</ele><time>2026-04-25T17:39:56.19Z</time></trkpt><trkpt lat="44.9408246" lon="7.53961"><ele>246.0</ele><time>2026-04-25T17:39:57.184Z</time></trkpt><trkpt lat="44.9407117" lon="7.5395128"><ele>246.0</ele><time>2026-04-25T17:39:58.185Z</time></trkpt><trkpt lat="44.9405974" lon="7.5393862"><ele>246.0</ele><time>2026-04-25T17:39:59.192Z</time></trkpt><trkpt lat="44.9404782" lon="7.5392515"><ele>246.0</ele><time>2026-04-25T17:40:00.187Z</time></trkpt><trkpt lat="44.9403711" lon="7.5391082"><ele>246.0</ele><time>2026-04-25T17:40:01.195Z</time></trkpt><trkpt lat="44.9402393" lon="7.5389748"><ele>246.0</ele><time>2026-04-25T17:40:02.193Z</time></trkpt><trkpt lat="44.9400987" lon="7.5388346"><ele>246.0</ele><time>2026-04-25T17:40:03.185Z</time></trkpt><trkpt lat="44.9399485" lon="7.5386812"><ele>246.0</ele><time>2026-04-25T17:40:04.183Z</time></trkpt><trkpt lat="44.9398045" lon="7.5385251"><ele>246.33333333333331</ele><time>2026-04-25T17:40:05.186Z</time></trkpt><trkpt lat="44.939681" lon="7.5383777"><ele>246.66666666666666</ele><time>2026-04-25T17:40:06.188Z</time></trkpt><trkpt lat="44.9395667" lon="7.5382234"><ele>247.0</ele><time>2026-04-25T17:40:07.19Z</time></trkpt><trkpt lat="44.9394383" lon="7.5380913"><ele>247.0</ele><time>2026-04-25T17:40:08.195Z</time></trkpt><trkpt lat="44.9393219" lon="7.5379453"><ele>247.0</ele><time>2026-04-25T17:40:09.193Z</time></trkpt><trkpt lat="44.9391921" lon="7.5378055"><ele>247.0</ele><time>2026-04-25T17:40:10.189Z</time></trkpt><trkpt lat="44.9390541" lon="7.5376773"><ele>246.66666666666666</ele><time>2026-04-25T17:40:11.191Z</time></trkpt><trkpt lat="44.9389203" lon="7.5375455"><ele>246.33333333333331</ele><time>2026-04-25T17:40:12.193Z</time></trkpt><trkpt lat="44.9387579" lon="7.5373904"><ele>246.0</ele><time>2026-04-25T17:40:13.194Z</time></trkpt><trkpt lat="44.9386223" lon="7.537257"><ele>246.0</ele><time>2026-04-25T17:40:14.187Z</time></trkpt><trkpt lat="44.9385282" lon="7.5371332"><ele>246.0</ele><time>2026-04-25T17:40:15.186Z</time></trkpt><trkpt lat="44.9384293" lon="7.5370265"><ele>246.0</ele><time>2026-04-25T17:40:16.185Z</time></trkpt><trkpt lat="44.9383614" lon="7.5369072"><ele>246.0</ele><time>2026-04-25T17:40:17.19Z</time></trkpt><trkpt lat="44.9382463" lon="7.5367723"><ele>246.25</ele><time>2026-04-25T17:40:18.194Z</time></trkpt><trkpt lat="44.9381298" lon="7.5366548"><ele>246.5</ele><time>2026-04-25T17:40:19.195Z</time></trkpt><trkpt lat="44.9380085" lon="7.5365277"><ele>246.75</ele><time>2026-04-25T17:40:20.197Z</time></trkpt><trkpt lat="44.937885" lon="7.5364266"><ele>247.0</ele><time>2026-04-25T17:40:21.193Z</time></trkpt><trkpt lat="44.9377788" lon="7.5363015"><ele>247.25</ele><time>2026-04-25T17:40:22.193Z</time></trkpt><trkpt lat="44.9376808" lon="7.5361944"><ele>247.5</ele><time>2026-04-25T17:40:23.2Z</time></trkpt><trkpt lat="44.9375804" lon="7.5360902"><ele>247.75</ele><time>2026-04-25T17:40:24.197Z</time></trkpt><trkpt lat="44.9374839" lon="7.5359869"><ele>248.0</ele><time>2026-04-25T17:40:25.198Z</time></trkpt><trkpt lat="44.937388" lon="7.5358751"><ele>248.0</ele><time>2026-04-25T17:40:26.189Z</time></trkpt><trkpt lat="44.9372911" lon="7.5357882"><ele>248.0</ele><time>2026-04-25T17:40:27.192Z</time></trkpt><trkpt lat="44.9371788" lon="7.5356613"><ele>248.0</ele><time>2026-04-25T17:40:28.18Z</time></trkpt><trkpt lat="44.9370503" lon="7.5355224"><ele>248.0</ele><time>2026-04-25T17:40:29.185Z</time></trkpt><trkpt lat="44.9369002" lon="7.5353564"><ele>248.0</ele><time>2026-04-25T17:40:30.186Z</time></trkpt><trkpt lat="44.9367619" lon="7.5351889"><ele>248.0</ele><time>2026-04-25T17:40:31.185Z</time></trkpt><trkpt lat="44.936626" lon="7.5350438"><ele>248.0</ele><time>2026-04-25T17:40:32.183Z</time></trkpt><trkpt lat="44.9364901" lon="7.5349079"><ele>248.0</ele><time>2026-04-25T17:40:33.183Z</time></trkpt><trkpt lat="44.9363718" lon="7.5347925"><ele>248.0</ele><time>2026-04-25T17:40:34.183Z</time></trkpt><trkpt lat="44.9362526" lon="7.5346676"><ele>248.0</ele><time>2026-04-25T17:40:35.183Z</time></trkpt><trkpt lat="44.9361085" lon="7.5345239"><ele>248.33333333333334</ele><time>2026-04-25T17:40:36.184Z</time></trkpt><trkpt lat="44.9359972" lon="7.5343884"><ele>248.66666666666669</ele><time>2026-04-25T17:40:37.182Z</time></trkpt><trkpt lat="44.9358835" lon="7.5342528"><ele>249.0</ele><time>2026-04-25T17:40:38.186Z</time></trkpt><trkpt lat="44.9357397" lon="7.5341275"><ele>249.0</ele><time>2026-04-25T17:40:39.183Z</time></trkpt><trkpt lat="44.935606" lon="7.53398"><ele>249.0</ele><time>2026-04-25T17:40:40.185Z</time></trkpt><trkpt lat="44.9354663" lon="7.5337961"><ele>249.0</ele><time>2026-04-25T17:40:41.18Z</time></trkpt><trkpt lat="44.9353405" lon="7.5336117"><ele>249.0</ele><time>2026-04-25T17:40:42.17Z</time></trkpt><trkpt lat="44.9352179" lon="7.5334686"><ele>249.0</ele><time>2026-04-25T17:40:43.182Z</time></trkpt><trkpt lat="44.9351075" lon="7.5333547"><ele>249.0</ele><time>2026-04-25T17:40:44.188Z</time></trkpt><trkpt lat="44.9349892" lon="7.5332323"><ele>249.0</ele><time>2026-04-25T17:40:45.194Z</time></trkpt><trkpt lat="44.9348778" lon="7.533115"><ele>248.5</ele><time>2026-04-25T17:40:46.187Z</time></trkpt><trkpt lat="44.9347717" lon="7.5329998"><ele>248.0</ele><time>2026-04-25T17:40:47.184Z</time></trkpt><trkpt lat="44.9346722" lon="7.5328801"><ele>247.5</ele><time>2026-04-25T17:40:48.186Z</time></trkpt><trkpt lat="44.9345594" lon="7.5327416"><ele>247.0</ele><time>2026-04-25T17:40:49.188Z</time></trkpt><trkpt lat="44.9344317" lon="7.5325951"><ele>247.25</ele><time>2026-04-25T17:40:50.19Z</time></trkpt><trkpt lat="44.9343197" lon="7.5324867"><ele>247.5</ele><time>2026-04-25T17:40:51.192Z</time></trkpt><trkpt lat="44.9341914" lon="7.532359"><ele>247.75</ele><time>2026-04-25T17:40:52.189Z</time></trkpt><trkpt lat="44.9340635" lon="7.5322422"><ele>248.0</ele><time>2026-04-25T17:40:53.198Z</time></trkpt><trkpt lat="44.9339499" lon="7.5321166"><ele>248.33333333333334</ele><time>2026-04-25T17:40:54.194Z</time></trkpt><trkpt lat="44.9338346" lon="7.531988"><ele>248.66666666666669</ele><time>2026-04-25T17:40:55.194Z</time></trkpt><trkpt lat="44.9337062" lon="7.5318489"><ele>249.0</ele><time>2026-04-25T17:40:56.192Z</time></trkpt><trkpt lat="44.9335795" lon="7.5317229"><ele>249.0</ele><time>2026-04-25T17:40:57.2Z</time></trkpt><trkpt lat="44.9334628" lon="7.5315744"><ele>249.0</ele><time>2026-04-25T17:40:58.197Z</time></trkpt><trkpt lat="44.9333432" lon="7.5314473"><ele>249.0</ele><time>2026-04-25T17:40:59.199Z</time></trkpt><trkpt lat="44.933224" lon="7.5313041"><ele>249.25</ele><time>2026-04-25T17:41:00.194Z</time></trkpt><trkpt lat="44.9331086" lon="7.531178"><ele>249.5</ele><time>2026-04-25T17:41:01.189Z</time></trkpt><trkpt lat="44.9329863" lon="7.5310596"><ele>249.75</ele><time>2026-04-25T17:41:02.192Z</time></trkpt><trkpt lat="44.9328838" lon="7.5309414"><ele>250.0</ele><time>2026-04-25T17:41:03.187Z</time></trkpt><trkpt lat="44.9327824" lon="7.5308345"><ele>250.0</ele><time>2026-04-25T17:41:04.194Z</time></trkpt><trkpt lat="44.9326629" lon="7.5307092"><ele>250.0</ele><time>2026-04-25T17:41:05.19Z</time></trkpt><trkpt lat="44.9325462" lon="7.5305677"><ele>250.0</ele><time>2026-04-25T17:41:06.186Z</time></trkpt><trkpt lat="44.9324554" lon="7.5304635"><ele>250.0</ele><time>2026-04-25T17:41:07.185Z</time></trkpt><trkpt lat="44.9323396" lon="7.5303436"><ele>249.25</ele><time>2026-04-25T17:41:08.184Z</time></trkpt><trkpt lat="44.9322192" lon="7.5302072"><ele>248.5</ele><time>2026-04-25T17:41:09.186Z</time></trkpt><trkpt lat="44.9321052" lon="7.5300733"><ele>247.75</ele><time>2026-04-25T17:41:10.184Z</time></trkpt><trkpt lat="44.9319862" lon="7.5299597"><ele>247.0</ele><time>2026-04-25T17:41:11.185Z</time></trkpt><trkpt lat="44.9318645" lon="7.529834"><ele>247.0</ele><time>2026-04-25T17:41:12.188Z</time></trkpt><trkpt lat="44.9317659" lon="7.5297175"><ele>247.0</ele><time>2026-04-25T17:41:13.193Z</time></trkpt><trkpt lat="44.9316571" lon="7.5295873"><ele>247.0</ele><time>2026-04-25T17:41:14.194Z</time></trkpt><trkpt lat="44.9315597" lon="7.5294771"><ele>247.0</ele><time>2026-04-25T17:41:15.198Z</time></trkpt><trkpt lat="44.9314636" lon="7.5293557"><ele>247.25</ele><time>2026-04-25T17:41:16.196Z</time></trkpt><trkpt lat="44.9313527" lon="7.5292159"><ele>247.5</ele><time>2026-04-25T17:41:17.189Z</time></trkpt><trkpt lat="44.9312402" lon="7.5291107"><ele>247.75</ele><time>2026-04-25T17:41:18.193Z</time></trkpt><trkpt lat="44.931134" lon="7.5289791"><ele>248.0</ele><time>2026-04-25T17:41:19.189Z</time></trkpt><trkpt lat="44.9310084" lon="7.5288526"><ele>248.0</ele><time>2026-04-25T17:41:20.18Z</time></trkpt><trkpt lat="44.9308946" lon="7.5287425"><ele>248.0</ele><time>2026-04-25T17:41:21.188Z</time></trkpt><trkpt lat="44.930754" lon="7.5286637"><ele>248.0</ele><time>2026-04-25T17:41:22.19Z</time></trkpt><trkpt lat="44.9306449" lon="7.5285311"><ele>248.0</ele><time>2026-04-25T17:41:23.196Z</time></trkpt><trkpt lat="44.9305332" lon="7.5284047"><ele>248.25</ele><time>2026-04-25T17:41:24.189Z</time></trkpt><trkpt lat="44.9304256" lon="7.5282851"><ele>248.5</ele><time>2026-04-25T17:41:25.187Z</time></trkpt><trkpt lat="44.9303235" lon="7.5281764"><ele>248.75</ele><time>2026-04-25T17:41:26.181Z</time></trkpt><trkpt lat="44.9302255" lon="7.5280552"><ele>249.0</ele><time>2026-04-25T17:41:27.188Z</time></trkpt><trkpt lat="44.9301217" lon="7.5279436"><ele>249.5</ele><time>2026-04-25T17:41:28.195Z</time></trkpt><trkpt lat="44.9300173" lon="7.5278376"><ele>250.0</ele><time>2026-04-25T17:41:29.19Z</time></trkpt><trkpt lat="44.9299244" lon="7.5277467"><ele>250.5</ele><time>2026-04-25T17:41:30.185Z</time></trkpt><trkpt lat="44.929824" lon="7.5276436"><ele>251.0</ele><time>2026-04-25T17:41:31.185Z</time></trkpt><trkpt lat="44.9297295" lon="7.5275332"><ele>251.0</ele><time>2026-04-25T17:41:32.183Z</time></trkpt><trkpt lat="44.9296273" lon="7.5274052"><ele>251.0</ele><time>2026-04-25T17:41:33.182Z</time></trkpt><trkpt lat="44.9295157" lon="7.5272805"><ele>251.0</ele><time>2026-04-25T17:41:34.179Z</time></trkpt><trkpt lat="44.9293941" lon="7.5271402"><ele>251.0</ele><time>2026-04-25T17:41:35.192Z</time></trkpt><trkpt lat="44.9292759" lon="7.5270149"><ele>251.0</ele><time>2026-04-25T17:41:36.187Z</time></trkpt><trkpt lat="44.9291593" lon="7.5268625"><ele>251.0</ele><time>2026-04-25T17:41:37.192Z</time></trkpt><trkpt lat="44.9290521" lon="7.5266944"><ele>251.0</ele><time>2026-04-25T17:41:38.183Z</time></trkpt><trkpt lat="44.9289811" lon="7.5264947"><ele>251.0</ele><time>2026-04-25T17:41:39.188Z</time></trkpt><trkpt lat="44.9289226" lon="7.5263014"><ele>251.0</ele><time>2026-04-25T17:41:40.182Z</time></trkpt><trkpt lat="44.9288835" lon="7.5261101"><ele>251.0</ele><time>2026-04-25T17:41:41.184Z</time></trkpt><trkpt lat="44.9288453" lon="7.5259015"><ele>251.0</ele><time>2026-04-25T17:41:42.184Z</time></trkpt><trkpt lat="44.9288051" lon="7.5257026"><ele>251.0</ele><time>2026-04-25T17:41:43.185Z</time></trkpt><trkpt lat="44.9287363" lon="7.5255385"><ele>251.0</ele><time>2026-04-25T17:41:44.184Z</time></trkpt><trkpt lat="44.9286742" lon="7.5253849"><ele>251.0</ele><time>2026-04-25T17:41:45.185Z</time></trkpt><trkpt lat="44.9286207" lon="7.5252101"><ele>251.0</ele><time>2026-04-25T17:41:46.186Z</time></trkpt><trkpt lat="44.9285715" lon="7.5250235"><ele>251.0</ele><time>2026-04-25T17:41:47.192Z</time></trkpt><trkpt lat="44.9285114" lon="7.5248544"><ele>251.0</ele><time>2026-04-25T17:41:48.187Z</time></trkpt><trkpt lat="44.928456" lon="7.5246786"><ele>251.0</ele><time>2026-04-25T17:41:49.19Z</time></trkpt><trkpt lat="44.9283939" lon="7.5245041"><ele>251.0</ele><time>2026-04-25T17:41:50.19Z</time></trkpt><trkpt lat="44.9283284" lon="7.5243198"><ele>251.0</ele><time>2026-04-25T17:41:51.194Z</time></trkpt><trkpt lat="44.9282777" lon="7.5241281"><ele>251.0</ele><time>2026-04-25T17:41:52.192Z</time></trkpt><trkpt lat="44.9282211" lon="7.5239433"><ele>251.0</ele><time>2026-04-25T17:41:53.196Z</time></trkpt><trkpt lat="44.9281533" lon="7.5237477"><ele>251.0</ele><time>2026-04-25T17:41:54.188Z</time></trkpt><trkpt lat="44.9280835" lon="7.5235572"><ele>251.66666666666669</ele><time>2026-04-25T17:41:55.195Z</time></trkpt><trkpt lat="44.9280125" lon="7.5233536"><ele>252.33333333333331</ele><time>2026-04-25T17:41:56.186Z</time></trkpt><trkpt lat="44.9279475" lon="7.5231673"><ele>253.0</ele><time>2026-04-25T17:41:57.188Z</time></trkpt><trkpt lat="44.9278807" lon="7.5229789"><ele>252.66666666666666</ele><time>2026-04-25T17:41:58.19Z</time></trkpt><trkpt lat="44.9278225" lon="7.5227654"><ele>252.33333333333331</ele><time>2026-04-25T17:41:59.186Z</time></trkpt><trkpt lat="44.9277442" lon="7.522573"><ele>252.0</ele><time>2026-04-25T17:42:00.182Z</time></trkpt><trkpt lat="44.9276816" lon="7.5223625"><ele>252.0</ele><time>2026-04-25T17:42:01.182Z</time></trkpt><trkpt lat="44.9276252" lon="7.5221472"><ele>252.0</ele><time>2026-04-25T17:42:02.188Z</time></trkpt><trkpt lat="44.9275638" lon="7.5219408"><ele>252.0</ele><time>2026-04-25T17:42:03.186Z</time></trkpt><trkpt lat="44.927511" lon="7.5217471"><ele>252.0</ele><time>2026-04-25T17:42:04.186Z</time></trkpt><trkpt lat="44.9274374" lon="7.521547"><ele>252.0</ele><time>2026-04-25T17:42:05.188Z</time></trkpt><trkpt lat="44.9273713" lon="7.5213616"><ele>252.0</ele><time>2026-04-25T17:42:06.185Z</time></trkpt><trkpt lat="44.9273263" lon="7.5211571"><ele>251.66666666666669</ele><time>2026-04-25T17:42:07.189Z</time></trkpt><trkpt lat="44.9272523" lon="7.5209655"><ele>251.33333333333334</ele><time>2026-04-25T17:42:08.186Z</time></trkpt><trkpt lat="44.9271839" lon="7.520749"><ele>251.0</ele><time>2026-04-25T17:42:09.187Z</time></trkpt><trkpt lat="44.9271193" lon="7.5205408"><ele>251.66666666666669</ele><time>2026-04-25T17:42:10.187Z</time></trkpt><trkpt lat="44.9270502" lon="7.5203246"><ele>252.33333333333331</ele><time>2026-04-25T17:42:11.188Z</time></trkpt><trkpt lat="44.9269804" lon="7.5201198"><ele>253.0</ele><time>2026-04-25T17:42:12.19Z</time></trkpt><trkpt lat="44.9269164" lon="7.5199125"><ele>253.0</ele><time>2026-04-25T17:42:13.188Z</time></trkpt><trkpt lat="44.9268483" lon="7.5196879"><ele>253.0</ele><time>2026-04-25T17:42:14.192Z</time></trkpt><trkpt lat="44.926787" lon="7.5194699"><ele>253.0</ele><time>2026-04-25T17:42:15.191Z</time></trkpt><trkpt lat="44.9267247" lon="7.5192488"><ele>253.66666666666666</ele><time>2026-04-25T17:42:16.19Z</time></trkpt><trkpt lat="44.9266475" lon="7.5190394"><ele>254.33333333333331</ele><time>2026-04-25T17:42:17.197Z</time></trkpt><trkpt lat="44.9265737" lon="7.5188265"><ele>255.0</ele><time>2026-04-25T17:42:18.204Z</time></trkpt><trkpt lat="44.9264898" lon="7.5186333"><ele>253.66666666666669</ele><time>2026-04-25T17:42:19.198Z</time></trkpt><trkpt lat="44.9264109" lon="7.5184285"><ele>252.33333333333334</ele><time>2026-04-25T17:42:20.194Z</time></trkpt><trkpt lat="44.9263522" lon="7.5182322"><ele>251.0</ele><time>2026-04-25T17:42:21.197Z</time></trkpt><trkpt lat="44.9262794" lon="7.5180256"><ele>251.0</ele><time>2026-04-25T17:42:22.187Z</time></trkpt><trkpt lat="44.9262074" lon="7.5178181"><ele>251.0</ele><time>2026-04-25T17:42:23.196Z</time></trkpt><trkpt lat="44.9261479" lon="7.5176059"><ele>251.0</ele><time>2026-04-25T17:42:24.189Z</time></trkpt><trkpt lat="44.9260846" lon="7.5173938"><ele>251.0</ele><time>2026-04-25T17:42:25.19Z</time></trkpt><trkpt lat="44.9260089" lon="7.5171863"><ele>251.0</ele><time>2026-04-25T17:42:26.188Z</time></trkpt><trkpt lat="44.9259372" lon="7.5169785"><ele>251.0</ele><time>2026-04-25T17:42:27.187Z</time></trkpt><trkpt lat="44.9258609" lon="7.5167698"><ele>251.66666666666669</ele><time>2026-04-25T17:42:28.188Z</time></trkpt><trkpt lat="44.9257998" lon="7.5165494"><ele>252.33333333333331</ele><time>2026-04-25T17:42:29.187Z</time></trkpt><trkpt lat="44.925721" lon="7.5163383"><ele>253.0</ele><time>2026-04-25T17:42:30.187Z</time></trkpt><trkpt lat="44.9256518" lon="7.5161328"><ele>253.0</ele><time>2026-04-25T17:42:31.18Z</time></trkpt><trkpt lat="44.9255753" lon="7.5159325"><ele>253.0</ele><time>2026-04-25T17:42:32.178Z</time></trkpt><trkpt lat="44.9255209" lon="7.515695"><ele>253.0</ele><time>2026-04-25T17:42:33.177Z</time></trkpt><trkpt lat="44.9254363" lon="7.5154946"><ele>252.33333333333331</ele><time>2026-04-25T17:42:34.182Z</time></trkpt><trkpt lat="44.9253774" lon="7.5153076"><ele>251.66666666666669</ele><time>2026-04-25T17:42:35.186Z</time></trkpt><trkpt lat="44.9253197" lon="7.515094"><ele>251.0</ele><time>2026-04-25T17:42:36.177Z</time></trkpt><trkpt lat="44.9252535" lon="7.5148933"><ele>251.0</ele><time>2026-04-25T17:42:37.188Z</time></trkpt><trkpt lat="44.9252042" lon="7.5146862"><ele>251.0</ele><time>2026-04-25T17:42:38.188Z</time></trkpt><trkpt lat="44.9251474" lon="7.514505"><ele>251.0</ele><time>2026-04-25T17:42:39.183Z</time></trkpt><trkpt lat="44.9250966" lon="7.5142825"><ele>251.0</ele><time>2026-04-25T17:42:40.183Z</time></trkpt><trkpt lat="44.9250283" lon="7.5140769"><ele>251.0</ele><time>2026-04-25T17:42:41.184Z</time></trkpt><trkpt lat="44.9249732" lon="7.513886"><ele>251.0</ele><time>2026-04-25T17:42:42.18Z</time></trkpt><trkpt lat="44.9249103" lon="7.5136902"><ele>251.5</ele><time>2026-04-25T17:42:43.188Z</time></trkpt><trkpt lat="44.9248395" lon="7.5135109"><ele>252.0</ele><time>2026-04-25T17:42:44.184Z</time></trkpt><trkpt lat="44.9247886" lon="7.5133242"><ele>252.5</ele><time>2026-04-25T17:42:45.188Z</time></trkpt><trkpt lat="44.9247269" lon="7.5131335"><ele>253.0</ele><time>2026-04-25T17:42:46.184Z</time></trkpt><trkpt lat="44.9246638" lon="7.5129345"><ele>253.33333333333331</ele><time>2026-04-25T17:42:47.184Z</time></trkpt><trkpt lat="44.9245951" lon="7.5127349"><ele>253.66666666666669</ele><time>2026-04-25T17:42:48.182Z</time></trkpt><trkpt lat="44.9245316" lon="7.5125366"><ele>254.0</ele><time>2026-04-25T17:42:49.193Z</time></trkpt><trkpt lat="44.9244713" lon="7.5123146"><ele>254.0</ele><time>2026-04-25T17:42:50.187Z</time></trkpt><trkpt lat="44.9244094" lon="7.5121103"><ele>254.0</ele><time>2026-04-25T17:42:51.184Z</time></trkpt><trkpt lat="44.9243349" lon="7.5119068"><ele>254.0</ele><time>2026-04-25T17:42:52.189Z</time></trkpt><trkpt lat="44.9242762" lon="7.5117085"><ele>254.0</ele><time>2026-04-25T17:42:53.192Z</time></trkpt><trkpt lat="44.9242161" lon="7.5115003"><ele>254.0</ele><time>2026-04-25T17:42:54.195Z</time></trkpt><trkpt lat="44.9241583" lon="7.5113262"><ele>254.0</ele><time>2026-04-25T17:42:55.185Z</time></trkpt><trkpt lat="44.9240946" lon="7.5111623"><ele>254.0</ele><time>2026-04-25T17:42:56.187Z</time></trkpt><trkpt lat="44.9240226" lon="7.5109836"><ele>254.0</ele><time>2026-04-25T17:42:57.192Z</time></trkpt><trkpt lat="44.9239704" lon="7.5107981"><ele>254.0</ele><time>2026-04-25T17:42:58.192Z</time></trkpt><trkpt lat="44.9239163" lon="7.5106053"><ele>254.0</ele><time>2026-04-25T17:42:59.186Z</time></trkpt><trkpt lat="44.9238475" lon="7.5104265"><ele>254.0</ele><time>2026-04-25T17:43:00.187Z</time></trkpt><trkpt lat="44.9237849" lon="7.5102445"><ele>254.0</ele><time>2026-04-25T17:43:01.185Z</time></trkpt><trkpt lat="44.9237267" lon="7.5100406"><ele>254.0</ele><time>2026-04-25T17:43:02.183Z</time></trkpt><trkpt lat="44.9236368" lon="7.5098536"><ele>254.0</ele><time>2026-04-25T17:43:03.186Z</time></trkpt><trkpt lat="44.9235729" lon="7.5096144"><ele>253.66666666666669</ele><time>2026-04-25T17:43:04.183Z</time></trkpt><trkpt lat="44.9235103" lon="7.5094082"><ele>253.33333333333331</ele><time>2026-04-25T17:43:05.183Z</time></trkpt><trkpt lat="44.9234405" lon="7.5092271"><ele>253.0</ele><time>2026-04-25T17:43:06.185Z</time></trkpt><trkpt lat="44.9233696" lon="7.5090043"><ele>253.0</ele><time>2026-04-25T17:43:07.183Z</time></trkpt><trkpt lat="44.9233013" lon="7.5087639"><ele>253.0</ele><time>2026-04-25T17:43:08.176Z</time></trkpt><trkpt lat="44.9232171" lon="7.5084883"><ele>253.0</ele><time>2026-04-25T17:43:09.179Z</time></trkpt><trkpt lat="44.9231214" lon="7.5081915"><ele>253.5</ele><time>2026-04-25T17:43:10.194Z</time></trkpt><trkpt lat="44.9230194" lon="7.5078667"><ele>254.0</ele><time>2026-04-25T17:43:11.184Z</time></trkpt><trkpt lat="44.9229242" lon="7.5075523"><ele>254.0</ele><time>2026-04-25T17:43:12.191Z</time></trkpt><trkpt lat="44.9228022" lon="7.5072335"><ele>254.0</ele><time>2026-04-25T17:43:13.19Z</time></trkpt><trkpt lat="44.9227065" lon="7.5069116"><ele>253.5</ele><time>2026-04-25T17:43:14.196Z</time></trkpt><trkpt lat="44.9226052" lon="7.5065898"><ele>253.0</ele><time>2026-04-25T17:43:15.194Z</time></trkpt><trkpt lat="44.9225145" lon="7.5062737"><ele>252.66666666666666</ele><time>2026-04-25T17:43:16.192Z</time></trkpt><trkpt lat="44.9224122" lon="7.5059929"><ele>252.33333333333331</ele><time>2026-04-25T17:43:17.19Z</time></trkpt><trkpt lat="44.9223312" lon="7.5056964"><ele>252.0</ele><time>2026-04-25T17:43:18.191Z</time></trkpt><trkpt lat="44.9222345" lon="7.5054049"><ele>252.0</ele><time>2026-04-25T17:43:19.196Z</time></trkpt><trkpt lat="44.9221445" lon="7.5051057"><ele>252.0</ele><time>2026-04-25T17:43:20.197Z</time></trkpt><trkpt lat="44.9220553" lon="7.5048192"><ele>252.0</ele><time>2026-04-25T17:43:21.193Z</time></trkpt><trkpt lat="44.9219656" lon="7.5045352"><ele>252.0</ele><time>2026-04-25T17:43:22.192Z</time></trkpt><trkpt lat="44.9218759" lon="7.5042694"><ele>252.0</ele><time>2026-04-25T17:43:23.202Z</time></trkpt><trkpt lat="44.9217864" lon="7.5039863"><ele>252.0</ele><time>2026-04-25T17:43:24.196Z</time></trkpt><trkpt lat="44.9216949" lon="7.5037189"><ele>252.0</ele><time>2026-04-25T17:43:25.192Z</time></trkpt><trkpt lat="44.9216296" lon="7.5034378"><ele>252.0</ele><time>2026-04-25T17:43:26.191Z</time></trkpt><trkpt lat="44.9215447" lon="7.5031594"><ele>252.33333333333331</ele><time>2026-04-25T17:43:27.196Z</time></trkpt><trkpt lat="44.9214521" lon="7.5028779"><ele>252.66666666666666</ele><time>2026-04-25T17:43:28.2Z</time></trkpt><trkpt lat="44.9213559" lon="7.5026113"><ele>253.0</ele><time>2026-04-25T17:43:29.199Z</time></trkpt><trkpt lat="44.9212665" lon="7.5023267"><ele>253.0</ele><time>2026-04-25T17:43:30.199Z</time></trkpt><trkpt lat="44.9211652" lon="7.5020539"><ele>253.0</ele><time>2026-04-25T17:43:31.201Z</time></trkpt><trkpt lat="44.9210564" lon="7.5017822"><ele>253.0</ele><time>2026-04-25T17:43:32.196Z</time></trkpt><trkpt lat="44.9209731" lon="7.5014882"><ele>254.0</ele><time>2026-04-25T17:43:33.191Z</time></trkpt><trkpt lat="44.9208972" lon="7.5011541"><ele>255.0</ele><time>2026-04-25T17:43:34.195Z</time></trkpt><trkpt lat="44.9208106" lon="7.5008501"><ele>255.0</ele><time>2026-04-25T17:43:35.194Z</time></trkpt><trkpt lat="44.9207182" lon="7.5005265"><ele>255.0</ele><time>2026-04-25T17:43:36.194Z</time></trkpt><trkpt lat="44.920607" lon="7.5002088"><ele>254.5</ele><time>2026-04-25T17:43:37.194Z</time></trkpt><trkpt lat="44.920503" lon="7.4998777"><ele>254.0</ele><time>2026-04-25T17:43:38.195Z</time></trkpt><trkpt lat="44.9204014" lon="7.4995599"><ele>254.0</ele><time>2026-04-25T17:43:39.194Z</time></trkpt><trkpt lat="44.9203048" lon="7.4992638"><ele>254.0</ele><time>2026-04-25T17:43:40.188Z</time></trkpt><trkpt lat="44.9202159" lon="7.4989391"><ele>254.5</ele><time>2026-04-25T17:43:41.201Z</time></trkpt><trkpt lat="44.9201098" lon="7.4986271"><ele>255.0</ele><time>2026-04-25T17:43:42.198Z</time></trkpt><trkpt lat="44.9200045" lon="7.498308"><ele>255.0</ele><time>2026-04-25T17:43:43.193Z</time></trkpt><trkpt lat="44.9199078" lon="7.4980073"><ele>255.0</ele><time>2026-04-25T17:43:44.195Z</time></trkpt><trkpt lat="44.9198237" lon="7.4977232"><ele>255.66666666666669</ele><time>2026-04-25T17:43:45.195Z</time></trkpt><trkpt lat="44.9197184" lon="7.4974443"><ele>256.33333333333337</ele><time>2026-04-25T17:43:46.199Z</time></trkpt><trkpt lat="44.919631" lon="7.4971827"><ele>257.0</ele><time>2026-04-25T17:43:47.2Z</time></trkpt><trkpt lat="44.9195606" lon="7.4969447"><ele>257.0</ele><time>2026-04-25T17:43:48.192Z</time></trkpt><trkpt lat="44.9194961" lon="7.4967078"><ele>257.0</ele><time>2026-04-25T17:43:49.196Z</time></trkpt><trkpt lat="44.9194345" lon="7.4964843"><ele>257.0</ele><time>2026-04-25T17:43:50.188Z</time></trkpt><trkpt lat="44.9193763" lon="7.4962699"><ele>257.0</ele><time>2026-04-25T17:43:51.205Z</time></trkpt><trkpt lat="44.9193314" lon="7.4960749"><ele>257.0</ele><time>2026-04-25T17:43:52.187Z</time></trkpt><trkpt lat="44.9193184" lon="7.4958952"><ele>257.0</ele><time>2026-04-25T17:43:53.193Z</time></trkpt><trkpt lat="44.9193337" lon="7.4957461"><ele>257.0</ele><time>2026-04-25T17:43:54.188Z</time></trkpt><trkpt lat="44.9193569" lon="7.4956028"><ele>257.0</ele><time>2026-04-25T17:43:55.197Z</time></trkpt><trkpt lat="44.9193662" lon="7.4954747"><ele>257.0</ele><time>2026-04-25T17:43:56.195Z</time></trkpt><trkpt lat="44.9193283" lon="7.4953663"><ele>257.0</ele><time>2026-04-25T17:43:57.19Z</time></trkpt><trkpt lat="44.9192629" lon="7.4952257"><ele>257.0</ele><time>2026-04-25T17:43:58.186Z</time></trkpt><trkpt lat="44.919173" lon="7.4951186"><ele>257.0</ele><time>2026-04-25T17:43:59.181Z</time></trkpt><trkpt lat="44.9191029" lon="7.4950041"><ele>256.75</ele><time>2026-04-25T17:44:00.187Z</time></trkpt><trkpt lat="44.9189923" lon="7.4949166"><ele>256.5</ele><time>2026-04-25T17:44:01.189Z</time></trkpt><trkpt lat="44.91888" lon="7.4948154"><ele>256.25</ele><time>2026-04-25T17:44:02.176Z</time></trkpt><trkpt lat="44.9187806" lon="7.494673"><ele>256.0</ele><time>2026-04-25T17:44:03.182Z</time></trkpt><trkpt lat="44.9186782" lon="7.4944947"><ele>256.0</ele><time>2026-04-25T17:44:04.183Z</time></trkpt><trkpt lat="44.9186547" lon="7.4942198"><ele>256.0</ele><time>2026-04-25T17:44:05.187Z</time></trkpt><trkpt lat="44.9186193" lon="7.4939979"><ele>256.0</ele><time>2026-04-25T17:44:06.191Z</time></trkpt><trkpt lat="44.9185732" lon="7.4938262"><ele>256.0</ele><time>2026-04-25T17:44:07.191Z</time></trkpt><trkpt lat="44.9185287" lon="7.49364"><ele>256.0</ele><time>2026-04-25T17:44:08.187Z</time></trkpt><trkpt lat="44.9184873" lon="7.4934447"><ele>256.0</ele><time>2026-04-25T17:44:09.186Z</time></trkpt><trkpt lat="44.9184319" lon="7.4932742"><ele>256.0</ele><time>2026-04-25T17:44:10.187Z</time></trkpt><trkpt lat="44.9183834" lon="7.493127"><ele>256.0</ele><time>2026-04-25T17:44:11.178Z</time></trkpt><trkpt lat="44.9183425" lon="7.4929972"><ele>256.0</ele><time>2026-04-25T17:44:12.188Z</time></trkpt><trkpt lat="44.9182946" lon="7.4928712"><ele>256.0</ele><time>2026-04-25T17:44:13.19Z</time></trkpt><trkpt lat="44.9182403" lon="7.4927481"><ele>256.0</ele><time>2026-04-25T17:44:14.192Z</time></trkpt><trkpt lat="44.9181964" lon="7.4926317"><ele>256.0</ele><time>2026-04-25T17:44:15.193Z</time></trkpt><trkpt lat="44.9181475" lon="7.4925073"><ele>256.0</ele><time>2026-04-25T17:44:16.192Z</time></trkpt><trkpt lat="44.9181023" lon="7.4923849"><ele>256.0</ele><time>2026-04-25T17:44:17.19Z</time></trkpt><trkpt lat="44.9180552" lon="7.4922649"><ele>256.0</ele><time>2026-04-25T17:44:18.186Z</time></trkpt><trkpt lat="44.9180216" lon="7.4921649"><ele>256.0</ele><time>2026-04-25T17:44:19.19Z</time></trkpt><trkpt lat="44.9179725" lon="7.4920108"><ele>256.0</ele><time>2026-04-25T17:44:21.187Z</time></trkpt><trkpt lat="44.9179452" lon="7.4918944"><ele>256.40000000000003</ele><time>2026-04-25T17:44:23.19Z</time></trkpt><trkpt lat="44.9178556" lon="7.4918708"><ele>256.8</ele><time>2026-04-25T17:46:16.195Z</time></trkpt><trkpt lat="44.9177534" lon="7.4918468"><ele>257.20000000000005</ele><time>2026-04-25T17:46:18.196Z</time></trkpt><trkpt lat="44.9176456" lon="7.4917426"><ele>257.6</ele><time>2026-04-25T17:46:20.181Z</time></trkpt><trkpt lat="44.9175732" lon="7.4916564"><ele>258.0</ele><time>2026-04-25T17:46:21.188Z</time></trkpt><trkpt lat="44.9174856" lon="7.4915756"><ele>258.0</ele><time>2026-04-25T17:46:22.187Z</time></trkpt><trkpt lat="44.9173863" lon="7.4914897"><ele>258.0</ele><time>2026-04-25T17:46:23.194Z</time></trkpt><trkpt lat="44.9172841" lon="7.4914019"><ele>258.0</ele><time>2026-04-25T17:46:24.182Z</time></trkpt><trkpt lat="44.9171681" lon="7.4913169"><ele>258.0</ele><time>2026-04-25T17:46:25.172Z</time></trkpt><trkpt lat="44.9170514" lon="7.4912511"><ele>257.75</ele><time>2026-04-25T17:46:26.198Z</time></trkpt><trkpt lat="44.9169257" lon="7.4911909"><ele>257.5</ele><time>2026-04-25T17:46:27.188Z</time></trkpt><trkpt lat="44.9167951" lon="7.4911297"><ele>257.25</ele><time>2026-04-25T17:46:28.182Z</time></trkpt><trkpt lat="44.9166674" lon="7.4910669"><ele>257.0</ele><time>2026-04-25T17:46:29.18Z</time></trkpt><trkpt lat="44.9165399" lon="7.491003"><ele>256.75</ele><time>2026-04-25T17:46:30.176Z</time></trkpt><trkpt lat="44.9163986" lon="7.4909526"><ele>256.5</ele><time>2026-04-25T17:46:31.175Z</time></trkpt><trkpt lat="44.9163082" lon="7.4908686"><ele>256.25</ele><time>2026-04-25T17:46:32.174Z</time></trkpt><trkpt lat="44.9162161" lon="7.4908119"><ele>256.0</ele><time>2026-04-25T17:46:33.179Z</time></trkpt><trkpt lat="44.9161191" lon="7.4907583"><ele>256.0</ele><time>2026-04-25T17:46:34.174Z</time></trkpt><trkpt lat="44.9160061" lon="7.4906881"><ele>256.0</ele><time>2026-04-25T17:46:35.176Z</time></trkpt><trkpt lat="44.9159266" lon="7.4905979"><ele>256.0</ele><time>2026-04-25T17:46:36.177Z</time></trkpt><trkpt lat="44.9158505" lon="7.4904693"><ele>256.0</ele><time>2026-04-25T17:46:37.179Z</time></trkpt><trkpt lat="44.9157611" lon="7.4903825"><ele>256.3333333333333</ele><time>2026-04-25T17:46:38.175Z</time></trkpt><trkpt lat="44.9156925" lon="7.4903078"><ele>256.66666666666663</ele><time>2026-04-25T17:46:39.172Z</time></trkpt><trkpt lat="44.9156464" lon="7.4902465"><ele>257.0</ele><time>2026-04-25T17:46:40.172Z</time></trkpt><trkpt lat="44.915601" lon="7.4901708"><ele>257.3333333333333</ele><time>2026-04-25T17:46:41.168Z</time></trkpt><trkpt lat="44.9155637" lon="7.4900962"><ele>257.6666666666667</ele><time>2026-04-25T17:46:42.168Z</time></trkpt><trkpt lat="44.9154965" lon="7.4899977"><ele>258.0</ele><time>2026-04-25T17:46:44.171Z</time></trkpt><trkpt lat="44.9154177" lon="7.4900325"><ele>258.0</ele><time>2026-04-25T17:46:46.184Z</time></trkpt><trkpt lat="44.9153786" lon="7.4901732"><ele>258.0</ele><time>2026-04-25T17:46:47.182Z</time></trkpt><trkpt lat="44.9153366" lon="7.4903173"><ele>258.0</ele><time>2026-04-25T17:46:48.181Z</time></trkpt><trkpt lat="44.9152783" lon="7.4904258"><ele>258.0</ele><time>2026-04-25T17:46:49.185Z</time></trkpt><trkpt lat="44.9151947" lon="7.4905476"><ele>258.0</ele><time>2026-04-25T17:46:50.182Z</time></trkpt><trkpt lat="44.9151061" lon="7.4906417"><ele>258.0</ele><time>2026-04-25T17:46:51.183Z</time></trkpt><trkpt lat="44.9149652" lon="7.4906923"><ele>258.0</ele><time>2026-04-25T17:46:52.167Z</time></trkpt><trkpt lat="44.9147925" lon="7.4906993"><ele>258.0</ele><time>2026-04-25T17:46:53.179Z</time></trkpt><trkpt lat="44.9146131" lon="7.4906905"><ele>258.0</ele><time>2026-04-25T17:46:54.176Z</time></trkpt><trkpt lat="44.9143757" lon="7.4906252"><ele>258.0</ele><time>2026-04-25T17:46:55.173Z</time></trkpt><trkpt lat="44.9141218" lon="7.4906159"><ele>258.0</ele><time>2026-04-25T17:46:56.168Z</time></trkpt><trkpt lat="44.9138578" lon="7.4905924"><ele>258.0</ele><time>2026-04-25T17:46:57.181Z</time></trkpt><trkpt lat="44.9136256" lon="7.4905816"><ele>258.5</ele><time>2026-04-25T17:46:58.184Z</time></trkpt><trkpt lat="44.9133651" lon="7.490594"><ele>259.0</ele><time>2026-04-25T17:46:59.181Z</time></trkpt><trkpt lat="44.9131372" lon="7.4906099"><ele>259.0</ele><time>2026-04-25T17:47:00.18Z</time></trkpt><trkpt lat="44.9129584" lon="7.4905757"><ele>259.0</ele><time>2026-04-25T17:47:01.181Z</time></trkpt><trkpt lat="44.9127595" lon="7.4905551"><ele>259.0</ele><time>2026-04-25T17:47:02.186Z</time></trkpt><trkpt lat="44.91253" lon="7.4905544"><ele>258.0</ele><time>2026-04-25T17:47:03.185Z</time></trkpt><trkpt lat="44.9123255" lon="7.4905483"><ele>257.0</ele><time>2026-04-25T17:47:04.181Z</time></trkpt><trkpt lat="44.9121356" lon="7.4905184"><ele>256.0</ele><time>2026-04-25T17:47:05.19Z</time></trkpt><trkpt lat="44.9119234" lon="7.4904981"><ele>256.0</ele><time>2026-04-25T17:47:06.187Z</time></trkpt><trkpt lat="44.9117132" lon="7.4904826"><ele>256.0</ele><time>2026-04-25T17:47:07.194Z</time></trkpt><trkpt lat="44.9115109" lon="7.4904581"><ele>256.0</ele><time>2026-04-25T17:47:08.192Z</time></trkpt><trkpt lat="44.911311" lon="7.490444"><ele>256.0</ele><time>2026-04-25T17:47:09.192Z</time></trkpt><trkpt lat="44.9110748" lon="7.490435"><ele>256.0</ele><time>2026-04-25T17:47:10.195Z</time></trkpt><trkpt lat="44.9108451" lon="7.4904367"><ele>257.5</ele><time>2026-04-25T17:47:11.191Z</time></trkpt><trkpt lat="44.9106093" lon="7.4904562"><ele>259.0</ele><time>2026-04-25T17:47:12.196Z</time></trkpt><trkpt lat="44.910377" lon="7.4904443"><ele>259.0</ele><time>2026-04-25T17:47:13.193Z</time></trkpt><trkpt lat="44.9101524" lon="7.4904417"><ele>259.0</ele><time>2026-04-25T17:47:14.197Z</time></trkpt><trkpt lat="44.9099089" lon="7.4904449"><ele>258.0</ele><time>2026-04-25T17:47:15.196Z</time></trkpt><trkpt lat="44.9096747" lon="7.4904236"><ele>257.0</ele><time>2026-04-25T17:47:16.197Z</time></trkpt><trkpt lat="44.909443" lon="7.4904274"><ele>256.6666666666667</ele><time>2026-04-25T17:47:17.196Z</time></trkpt><trkpt lat="44.909233" lon="7.4904173"><ele>256.3333333333333</ele><time>2026-04-25T17:47:18.191Z</time></trkpt><trkpt lat="44.9090543" lon="7.4904188"><ele>256.0</ele><time>2026-04-25T17:47:19.187Z</time></trkpt><trkpt lat="44.908861" lon="7.4903992"><ele>256.0</ele><time>2026-04-25T17:47:20.192Z</time></trkpt><trkpt lat="44.9086893" lon="7.490394"><ele>256.0</ele><time>2026-04-25T17:47:21.194Z</time></trkpt><trkpt lat="44.9084947" lon="7.4903787"><ele>256.0</ele><time>2026-04-25T17:47:22.193Z</time></trkpt><trkpt lat="44.908319" lon="7.4903426"><ele>255.66666666666666</ele><time>2026-04-25T17:47:23.196Z</time></trkpt><trkpt lat="44.9081248" lon="7.4903206"><ele>255.33333333333331</ele><time>2026-04-25T17:47:24.192Z</time></trkpt><trkpt lat="44.9079215" lon="7.4902986"><ele>255.0</ele><time>2026-04-25T17:47:25.19Z</time></trkpt><trkpt lat="44.9076952" lon="7.4903169"><ele>256.0</ele><time>2026-04-25T17:47:26.191Z</time></trkpt><trkpt lat="44.9074828" lon="7.4903606"><ele>257.0</ele><time>2026-04-25T17:47:27.187Z</time></trkpt><trkpt lat="44.9072153" lon="7.4904575"><ele>257.0</ele><time>2026-04-25T17:47:28.207Z</time></trkpt><trkpt lat="44.9069913" lon="7.490519"><ele>257.0</ele><time>2026-04-25T17:47:29.197Z</time></trkpt><trkpt lat="44.9067673" lon="7.4905776"><ele>258.0</ele><time>2026-04-25T17:47:30.189Z</time></trkpt><trkpt lat="44.906506" lon="7.4906349"><ele>259.0</ele><time>2026-04-25T17:47:31.194Z</time></trkpt><trkpt lat="44.9062104" lon="7.4907312"><ele>259.0</ele><time>2026-04-25T17:47:32.195Z</time></trkpt><trkpt lat="44.905912" lon="7.4908432"><ele>259.0</ele><time>2026-04-25T17:47:33.198Z</time></trkpt><trkpt lat="44.9056383" lon="7.4909245"><ele>258.5</ele><time>2026-04-25T17:47:34.193Z</time></trkpt><trkpt lat="44.9053623" lon="7.4910235"><ele>258.0</ele><time>2026-04-25T17:47:35.196Z</time></trkpt><trkpt lat="44.9050681" lon="7.4911222"><ele>257.5</ele><time>2026-04-25T17:47:36.193Z</time></trkpt><trkpt lat="44.9047827" lon="7.4912168"><ele>257.0</ele><time>2026-04-25T17:47:37.191Z</time></trkpt><trkpt lat="44.9044904" lon="7.4912997"><ele>257.0</ele><time>2026-04-25T17:47:38.195Z</time></trkpt><trkpt lat="44.9042387" lon="7.491336"><ele>257.0</ele><time>2026-04-25T17:47:39.19Z</time></trkpt><trkpt lat="44.9039624" lon="7.4913615"><ele>257.0</ele><time>2026-04-25T17:47:40.198Z</time></trkpt><trkpt lat="44.9036797" lon="7.4913501"><ele>257.0</ele><time>2026-04-25T17:47:41.192Z</time></trkpt><trkpt lat="44.9033948" lon="7.4913732"><ele>257.0</ele><time>2026-04-25T17:47:42.185Z</time></trkpt><trkpt lat="44.9031283" lon="7.4913863"><ele>257.0</ele><time>2026-04-25T17:47:43.195Z</time></trkpt><trkpt lat="44.9028578" lon="7.4914294"><ele>257.0</ele><time>2026-04-25T17:47:44.193Z</time></trkpt><trkpt lat="44.9025994" lon="7.4914689"><ele>257.0</ele><time>2026-04-25T17:47:45.19Z</time></trkpt><trkpt lat="44.9023065" lon="7.4915046"><ele>257.0</ele><time>2026-04-25T17:47:46.201Z</time></trkpt><trkpt lat="44.9020161" lon="7.4915475"><ele>257.0</ele><time>2026-04-25T17:47:47.194Z</time></trkpt><trkpt lat="44.9017474" lon="7.4915344"><ele>257.0</ele><time>2026-04-25T17:47:48.191Z</time></trkpt><trkpt lat="44.9014787" lon="7.4915052"><ele>257.0</ele><time>2026-04-25T17:47:49.196Z</time></trkpt><trkpt lat="44.9012043" lon="7.4914457"><ele>257.0</ele><time>2026-04-25T17:47:50.193Z</time></trkpt><trkpt lat="44.9009357" lon="7.4913511"><ele>257.0</ele><time>2026-04-25T17:47:51.193Z</time></trkpt><trkpt lat="44.9006956" lon="7.4912526"><ele>257.0</ele><time>2026-04-25T17:47:52.19Z</time></trkpt><trkpt lat="44.900458" lon="7.4911574"><ele>257.0</ele><time>2026-04-25T17:47:53.202Z</time></trkpt><trkpt lat="44.900214" lon="7.4910986"><ele>257.0</ele><time>2026-04-25T17:47:54.189Z</time></trkpt><trkpt lat="44.9000015" lon="7.4910115"><ele>257.0</ele><time>2026-04-25T17:47:55.192Z</time></trkpt><trkpt lat="44.8997854" lon="7.4909362"><ele>257.0</ele><time>2026-04-25T17:47:56.181Z</time></trkpt><trkpt lat="44.8995811" lon="7.4908697"><ele>257.0</ele><time>2026-04-25T17:47:57.182Z</time></trkpt><trkpt lat="44.899381" lon="7.490818"><ele>257.0</ele><time>2026-04-25T17:47:58.189Z</time></trkpt><trkpt lat="44.8991781" lon="7.4907556"><ele>257.0</ele><time>2026-04-25T17:47:59.179Z</time></trkpt><trkpt lat="44.8989922" lon="7.4906878"><ele>257.0</ele><time>2026-04-25T17:48:00.177Z</time></trkpt><trkpt lat="44.8987863" lon="7.4906324"><ele>257.0</ele><time>2026-04-25T17:48:01.185Z</time></trkpt><trkpt lat="44.8986101" lon="7.4905735"><ele>257.0</ele><time>2026-04-25T17:48:02.185Z</time></trkpt><trkpt lat="44.8984044" lon="7.4905416"><ele>257.33333333333337</ele><time>2026-04-25T17:48:03.187Z</time></trkpt><trkpt lat="44.8982164" lon="7.4904903"><ele>257.6666666666667</ele><time>2026-04-25T17:48:04.186Z</time></trkpt><trkpt lat="44.8980112" lon="7.4904626"><ele>258.0</ele><time>2026-04-25T17:48:05.186Z</time></trkpt><trkpt lat="44.8978228" lon="7.4904307"><ele>258.0</ele><time>2026-04-25T17:48:06.184Z</time></trkpt><trkpt lat="44.8976475" lon="7.4904216"><ele>258.0</ele><time>2026-04-25T17:48:07.181Z</time></trkpt><trkpt lat="44.8974904" lon="7.4903931"><ele>258.0</ele><time>2026-04-25T17:48:08.181Z</time></trkpt><trkpt lat="44.8973211" lon="7.4903826"><ele>258.0</ele><time>2026-04-25T17:48:09.18Z</time></trkpt><trkpt lat="44.8971489" lon="7.4903858"><ele>258.0</ele><time>2026-04-25T17:48:10.177Z</time></trkpt><trkpt lat="44.8969796" lon="7.4903867"><ele>258.0</ele><time>2026-04-25T17:48:11.18Z</time></trkpt><trkpt lat="44.8968344" lon="7.4903798"><ele>258.5</ele><time>2026-04-25T17:48:12.173Z</time></trkpt><trkpt lat="44.8966748" lon="7.4904076"><ele>259.0</ele><time>2026-04-25T17:48:13.176Z</time></trkpt><trkpt lat="44.8965263" lon="7.4904324"><ele>259.5</ele><time>2026-04-25T17:48:14.174Z</time></trkpt><trkpt lat="44.8964002" lon="7.4904161"><ele>260.0</ele><time>2026-04-25T17:48:15.182Z</time></trkpt><trkpt lat="44.8963057" lon="7.4904088"><ele>260.0</ele><time>2026-04-25T17:48:16.17Z</time></trkpt><trkpt lat="44.8961819" lon="7.4904025"><ele>260.0</ele><time>2026-04-25T17:48:17.181Z</time></trkpt><trkpt lat="44.8960401" lon="7.4904083"><ele>260.0</ele><time>2026-04-25T17:48:18.173Z</time></trkpt><trkpt lat="44.8959456" lon="7.4904646"><ele>260.0</ele><time>2026-04-25T17:48:19.177Z</time></trkpt><trkpt lat="44.8958603" lon="7.4904936"><ele>260.25</ele><time>2026-04-25T17:48:24.175Z</time></trkpt><trkpt lat="44.8957326" lon="7.4904315"><ele>260.5</ele><time>2026-04-25T17:48:26.179Z</time></trkpt><trkpt lat="44.8956316" lon="7.4903983"><ele>260.75</ele><time>2026-04-25T17:48:27.177Z</time></trkpt><trkpt lat="44.8955331" lon="7.4903833"><ele>261.0</ele><time>2026-04-25T17:48:28.181Z</time></trkpt><trkpt lat="44.8953967" lon="7.4903929"><ele>261.0</ele><time>2026-04-25T17:48:29.191Z</time></trkpt><trkpt lat="44.8952141" lon="7.4904272"><ele>261.0</ele><time>2026-04-25T17:48:30.171Z</time></trkpt><trkpt lat="44.8950272" lon="7.4904586"><ele>261.0</ele><time>2026-04-25T17:48:31.168Z</time></trkpt><trkpt lat="44.8948753" lon="7.4904665"><ele>260.6666666666667</ele><time>2026-04-25T17:48:32.179Z</time></trkpt><trkpt lat="44.8946706" lon="7.4905307"><ele>260.33333333333337</ele><time>2026-04-25T17:48:33.184Z</time></trkpt><trkpt lat="44.8944527" lon="7.4905448"><ele>260.0</ele><time>2026-04-25T17:48:34.184Z</time></trkpt><trkpt lat="44.8943053" lon="7.4905902"><ele>260.0</ele><time>2026-04-25T17:48:35.184Z</time></trkpt><trkpt lat="44.8941548" lon="7.4906608"><ele>260.0</ele><time>2026-04-25T17:48:36.18Z</time></trkpt><trkpt lat="44.8940001" lon="7.4908113"><ele>260.0</ele><time>2026-04-25T17:48:37.185Z</time></trkpt><trkpt lat="44.8938413" lon="7.4909522"><ele>260.0</ele><time>2026-04-25T17:48:38.19Z</time></trkpt><trkpt lat="44.8936742" lon="7.4911248"><ele>260.0</ele><time>2026-04-25T17:48:39.188Z</time></trkpt><trkpt lat="44.8935264" lon="7.4912769"><ele>260.0</ele><time>2026-04-25T17:48:40.187Z</time></trkpt><trkpt lat="44.8933846" lon="7.4914001"><ele>260.0</ele><time>2026-04-25T17:48:41.189Z</time></trkpt><trkpt lat="44.8932331" lon="7.4915658"><ele>260.0</ele><time>2026-04-25T17:48:42.187Z</time></trkpt><trkpt lat="44.8930722" lon="7.4917342"><ele>260.0</ele><time>2026-04-25T17:48:43.19Z</time></trkpt><trkpt lat="44.8929292" lon="7.4918717"><ele>260.0</ele><time>2026-04-25T17:48:44.19Z</time></trkpt><trkpt lat="44.892764" lon="7.4920204"><ele>260.0</ele><time>2026-04-25T17:48:45.189Z</time></trkpt><trkpt lat="44.8926164" lon="7.4921453"><ele>260.0</ele><time>2026-04-25T17:48:46.192Z</time></trkpt><trkpt lat="44.8924678" lon="7.4922814"><ele>260.33333333333337</ele><time>2026-04-25T17:48:47.195Z</time></trkpt><trkpt lat="44.8923143" lon="7.4923788"><ele>260.6666666666667</ele><time>2026-04-25T17:48:48.19Z</time></trkpt><trkpt lat="44.8921635" lon="7.492509"><ele>261.0</ele><time>2026-04-25T17:48:49.192Z</time></trkpt><trkpt lat="44.8920252" lon="7.4926369"><ele>261.0</ele><time>2026-04-25T17:48:50.188Z</time></trkpt><trkpt lat="44.8918803" lon="7.4927634"><ele>261.0</ele><time>2026-04-25T17:48:51.188Z</time></trkpt><trkpt lat="44.8917512" lon="7.4929353"><ele>261.0</ele><time>2026-04-25T17:48:52.197Z</time></trkpt><trkpt lat="44.8915862" lon="7.4931152"><ele>260.3333333333333</ele><time>2026-04-25T17:48:53.195Z</time></trkpt><trkpt lat="44.8914212" lon="7.4932381"><ele>259.66666666666663</ele><time>2026-04-25T17:48:54.191Z</time></trkpt><trkpt lat="44.8912704" lon="7.4933919"><ele>259.0</ele><time>2026-04-25T17:48:55.197Z</time></trkpt><trkpt lat="44.8911251" lon="7.4935589"><ele>259.0</ele><time>2026-04-25T17:48:56.186Z</time></trkpt><trkpt lat="44.8909656" lon="7.4936994"><ele>259.0</ele><time>2026-04-25T17:48:57.191Z</time></trkpt><trkpt lat="44.8908038" lon="7.4938447"><ele>259.0</ele><time>2026-04-25T17:48:58.189Z</time></trkpt><trkpt lat="44.8906424" lon="7.4939751"><ele>258.66666666666663</ele><time>2026-04-25T17:48:59.185Z</time></trkpt><trkpt lat="44.8904748" lon="7.4941537"><ele>258.3333333333333</ele><time>2026-04-25T17:49:00.194Z</time></trkpt><trkpt lat="44.8903349" lon="7.4942815"><ele>258.0</ele><time>2026-04-25T17:49:01.184Z</time></trkpt><trkpt lat="44.8901806" lon="7.4943901"><ele>258.6666666666667</ele><time>2026-04-25T17:49:02.188Z</time></trkpt><trkpt lat="44.890017" lon="7.4945594"><ele>259.33333333333337</ele><time>2026-04-25T17:49:03.185Z</time></trkpt><trkpt lat="44.8898679" lon="7.4947131"><ele>260.0</ele><time>2026-04-25T17:49:04.188Z</time></trkpt><trkpt lat="44.88973" lon="7.494865"><ele>260.33333333333337</ele><time>2026-04-25T17:49:05.185Z</time></trkpt><trkpt lat="44.8895773" lon="7.4950027"><ele>260.6666666666667</ele><time>2026-04-25T17:49:06.186Z</time></trkpt><trkpt lat="44.8894429" lon="7.4951144"><ele>261.0</ele><time>2026-04-25T17:49:07.18Z</time></trkpt><trkpt lat="44.8893005" lon="7.4952467"><ele>260.6</ele><time>2026-04-25T17:49:08.175Z</time></trkpt><trkpt lat="44.8892173" lon="7.495325"><ele>260.20000000000005</ele><time>2026-04-25T17:49:09.178Z</time></trkpt><trkpt lat="44.8890878" lon="7.4954365"><ele>259.79999999999995</ele><time>2026-04-25T17:49:10.179Z</time></trkpt><trkpt lat="44.8889762" lon="7.4955188"><ele>259.4</ele><time>2026-04-25T17:49:12.181Z</time></trkpt><trkpt lat="44.8889088" lon="7.4955429"><ele>259.0</ele><time>2026-04-25T17:49:13.185Z</time></trkpt><trkpt lat="44.8888064" lon="7.4956154"><ele>259.0</ele><time>2026-04-25T17:49:14.185Z</time></trkpt><trkpt lat="44.8887204" lon="7.4956374"><ele>259.0</ele><time>2026-04-25T17:49:15.182Z</time></trkpt><trkpt lat="44.8886277" lon="7.4956591"><ele>259.0</ele><time>2026-04-25T17:49:16.182Z</time></trkpt><trkpt lat="44.8885384" lon="7.4956866"><ele>259.0</ele><time>2026-04-25T17:49:17.177Z</time></trkpt><trkpt lat="44.8884616" lon="7.4957074"><ele>259.0</ele><time>2026-04-25T17:49:18.179Z</time></trkpt><trkpt lat="44.8883821" lon="7.4957268"><ele>259.0</ele><time>2026-04-25T17:49:19.181Z</time></trkpt><trkpt lat="44.8883108" lon="7.4957496"><ele>258.8</ele><time>2026-04-25T17:49:20.179Z</time></trkpt><trkpt lat="44.888224" lon="7.4957929"><ele>258.59999999999997</ele><time>2026-04-25T17:49:22.17Z</time></trkpt><trkpt lat="44.8881564" lon="7.4958026"><ele>258.4</ele><time>2026-04-25T17:49:32.178Z</time></trkpt><trkpt lat="44.8880721" lon="7.4958239"><ele>258.2</ele><time>2026-04-25T17:49:34.175Z</time></trkpt><trkpt lat="44.8879026" lon="7.4958191"><ele>258.0</ele><time>2026-04-25T17:49:36.178Z</time></trkpt><trkpt lat="44.8877576" lon="7.4958269"><ele>258.0</ele><time>2026-04-25T17:49:37.169Z</time></trkpt><trkpt lat="44.8876045" lon="7.4958209"><ele>258.0</ele><time>2026-04-25T17:49:38.173Z</time></trkpt><trkpt lat="44.8874179" lon="7.4958252"><ele>258.0</ele><time>2026-04-25T17:49:39.173Z</time></trkpt><trkpt lat="44.8872127" lon="7.4958561"><ele>258.0</ele><time>2026-04-25T17:49:40.171Z</time></trkpt><trkpt lat="44.8869721" lon="7.4958875"><ele>258.0</ele><time>2026-04-25T17:49:41.171Z</time></trkpt><trkpt lat="44.8867871" lon="7.4958894"><ele>258.0</ele><time>2026-04-25T17:49:42.184Z</time></trkpt><trkpt lat="44.8866006" lon="7.4959064"><ele>258.0</ele><time>2026-04-25T17:49:43.179Z</time></trkpt><trkpt lat="44.8863698" lon="7.4959599"><ele>258.0</ele><time>2026-04-25T17:49:44.176Z</time></trkpt><trkpt lat="44.8861375" lon="7.4959896"><ele>258.0</ele><time>2026-04-25T17:49:45.179Z</time></trkpt><trkpt lat="44.8859713" lon="7.4960106"><ele>258.0</ele><time>2026-04-25T17:49:46.181Z</time></trkpt><trkpt lat="44.885856" lon="7.4958957"><ele>258.0</ele><time>2026-04-25T17:49:47.18Z</time></trkpt><trkpt lat="44.8856943" lon="7.4957998"><ele>257.6666666666667</ele><time>2026-04-25T17:49:48.185Z</time></trkpt><trkpt lat="44.8855173" lon="7.4956965"><ele>257.33333333333337</ele><time>2026-04-25T17:49:49.186Z</time></trkpt><trkpt lat="44.8853279" lon="7.4956075"><ele>257.0</ele><time>2026-04-25T17:49:50.183Z</time></trkpt><trkpt lat="44.8851263" lon="7.4955211"><ele>257.33333333333337</ele><time>2026-04-25T17:49:51.187Z</time></trkpt><trkpt lat="44.8849222" lon="7.4954547"><ele>257.6666666666667</ele><time>2026-04-25T17:49:52.182Z</time></trkpt><trkpt lat="44.8847255" lon="7.4954242"><ele>258.0</ele><time>2026-04-25T17:49:53.185Z</time></trkpt><trkpt lat="44.8845387" lon="7.4953913"><ele>258.0</ele><time>2026-04-25T17:49:54.186Z</time></trkpt><trkpt lat="44.8843403" lon="7.4953278"><ele>258.0</ele><time>2026-04-25T17:49:55.183Z</time></trkpt><trkpt lat="44.8841453" lon="7.4952884"><ele>258.0</ele><time>2026-04-25T17:49:56.18Z</time></trkpt><trkpt lat="44.8839297" lon="7.4952264"><ele>257.6666666666667</ele><time>2026-04-25T17:49:57.183Z</time></trkpt><trkpt lat="44.8837207" lon="7.4951787"><ele>257.33333333333337</ele><time>2026-04-25T17:49:58.186Z</time></trkpt><trkpt lat="44.883496" lon="7.495152"><ele>257.0</ele><time>2026-04-25T17:49:59.182Z</time></trkpt><trkpt lat="44.8832727" lon="7.4950953"><ele>257.0</ele><time>2026-04-25T17:50:00.18Z</time></trkpt><trkpt lat="44.8830317" lon="7.4950552"><ele>257.0</ele><time>2026-04-25T17:50:01.174Z</time></trkpt><trkpt lat="44.8827827" lon="7.4950179"><ele>257.0</ele><time>2026-04-25T17:50:02.187Z</time></trkpt><trkpt lat="44.8825388" lon="7.494969"><ele>257.0</ele><time>2026-04-25T17:50:03.182Z</time></trkpt><trkpt lat="44.8822902" lon="7.4949327"><ele>257.0</ele><time>2026-04-25T17:50:04.18Z</time></trkpt><trkpt lat="44.8820353" lon="7.4948564"><ele>257.0</ele><time>2026-04-25T17:50:05.179Z</time></trkpt><trkpt lat="44.8817894" lon="7.4948108"><ele>257.5</ele><time>2026-04-25T17:50:06.181Z</time></trkpt><trkpt lat="44.8815392" lon="7.4947837"><ele>258.0</ele><time>2026-04-25T17:50:07.186Z</time></trkpt><trkpt lat="44.8812681" lon="7.4947367"><ele>258.0</ele><time>2026-04-25T17:50:08.186Z</time></trkpt><trkpt lat="44.8809979" lon="7.4947191"><ele>258.0</ele><time>2026-04-25T17:50:09.181Z</time></trkpt><trkpt lat="44.8807271" lon="7.4946779"><ele>258.5</ele><time>2026-04-25T17:50:10.187Z</time></trkpt><trkpt lat="44.8804476" lon="7.4946422"><ele>259.0</ele><time>2026-04-25T17:50:11.183Z</time></trkpt><trkpt lat="44.8801963" lon="7.4945978"><ele>260.0</ele><time>2026-04-25T17:50:12.181Z</time></trkpt><trkpt lat="44.8799183" lon="7.4945556"><ele>261.0</ele><time>2026-04-25T17:50:13.186Z</time></trkpt><trkpt lat="44.8796513" lon="7.494535"><ele>261.0</ele><time>2026-04-25T17:50:14.191Z</time></trkpt><trkpt lat="44.8793852" lon="7.4945102"><ele>261.0</ele><time>2026-04-25T17:50:15.188Z</time></trkpt><trkpt lat="44.879115" lon="7.4944849"><ele>259.5</ele><time>2026-04-25T17:50:16.189Z</time></trkpt><trkpt lat="44.8788579" lon="7.4944439"><ele>258.0</ele><time>2026-04-25T17:50:17.188Z</time></trkpt><trkpt lat="44.8786052" lon="7.4944003"><ele>257.5</ele><time>2026-04-25T17:50:18.188Z</time></trkpt><trkpt lat="44.8783391" lon="7.4943591"><ele>257.0</ele><time>2026-04-25T17:50:19.187Z</time></trkpt><trkpt lat="44.8780691" lon="7.4943293"><ele>257.0</ele><time>2026-04-25T17:50:20.19Z</time></trkpt><trkpt lat="44.8777765" lon="7.4943114"><ele>257.0</ele><time>2026-04-25T17:50:21.187Z</time></trkpt><trkpt lat="44.877506" lon="7.494293"><ele>257.5</ele><time>2026-04-25T17:50:22.194Z</time></trkpt><trkpt lat="44.8772144" lon="7.4942677"><ele>258.0</ele><time>2026-04-25T17:50:23.197Z</time></trkpt><trkpt lat="44.8769365" lon="7.4942288"><ele>258.5</ele><time>2026-04-25T17:50:24.197Z</time></trkpt><trkpt lat="44.8766485" lon="7.4942022"><ele>259.0</ele><time>2026-04-25T17:50:25.197Z</time></trkpt><trkpt lat="44.8763647" lon="7.4941842"><ele>259.0</ele><time>2026-04-25T17:50:26.191Z</time></trkpt><trkpt lat="44.8760724" lon="7.4941915"><ele>259.0</ele><time>2026-04-25T17:50:27.192Z</time></trkpt><trkpt lat="44.8757847" lon="7.4942158"><ele>258.0</ele><time>2026-04-25T17:50:28.189Z</time></trkpt><trkpt lat="44.8754859" lon="7.4942601"><ele>257.0</ele><time>2026-04-25T17:50:29.194Z</time></trkpt><trkpt lat="44.8751868" lon="7.4942908"><ele>257.5</ele><time>2026-04-25T17:50:30.19Z</time></trkpt><trkpt lat="44.8748948" lon="7.4943222"><ele>258.0</ele><time>2026-04-25T17:50:31.191Z</time></trkpt><trkpt lat="44.8746164" lon="7.4943275"><ele>258.0</ele><time>2026-04-25T17:50:32.195Z</time></trkpt><trkpt lat="44.8743439" lon="7.4943389"><ele>258.0</ele><time>2026-04-25T17:50:33.203Z</time></trkpt><trkpt lat="44.874068" lon="7.4943619"><ele>259.0</ele><time>2026-04-25T17:50:34.198Z</time></trkpt><trkpt lat="44.8738166" lon="7.4943927"><ele>260.0</ele><time>2026-04-25T17:50:35.194Z</time></trkpt><trkpt lat="44.8735451" lon="7.4944396"><ele>259.5</ele><time>2026-04-25T17:50:36.188Z</time></trkpt><trkpt lat="44.8732854" lon="7.4944957"><ele>259.0</ele><time>2026-04-25T17:50:37.187Z</time></trkpt><trkpt lat="44.8730589" lon="7.4945797"><ele>258.5</ele><time>2026-04-25T17:50:38.196Z</time></trkpt><trkpt lat="44.8727955" lon="7.4946944"><ele>258.0</ele><time>2026-04-25T17:50:39.194Z</time></trkpt><trkpt lat="44.8725238" lon="7.4948091"><ele>258.0</ele><time>2026-04-25T17:50:40.194Z</time></trkpt><trkpt lat="44.8722766" lon="7.4948995"><ele>258.0</ele><time>2026-04-25T17:50:41.19Z</time></trkpt><trkpt lat="44.8720178" lon="7.4950251"><ele>257.5</ele><time>2026-04-25T17:50:42.19Z</time></trkpt><trkpt lat="44.8717571" lon="7.4951593"><ele>257.0</ele><time>2026-04-25T17:50:43.196Z</time></trkpt><trkpt lat="44.8715194" lon="7.4953022"><ele>256.5</ele><time>2026-04-25T17:50:44.193Z</time></trkpt><trkpt lat="44.8712524" lon="7.4954483"><ele>256.0</ele><time>2026-04-25T17:50:45.194Z</time></trkpt><trkpt lat="44.8710065" lon="7.49558"><ele>256.0</ele><time>2026-04-25T17:50:46.194Z</time></trkpt><trkpt lat="44.8707389" lon="7.4957169"><ele>256.0</ele><time>2026-04-25T17:50:47.194Z</time></trkpt><trkpt lat="44.8704803" lon="7.4958481"><ele>256.0</ele><time>2026-04-25T17:50:48.191Z</time></trkpt><trkpt lat="44.8702474" lon="7.4960024"><ele>256.0</ele><time>2026-04-25T17:50:49.188Z</time></trkpt><trkpt lat="44.8699829" lon="7.4961544"><ele>256.5</ele><time>2026-04-25T17:50:50.186Z</time></trkpt><trkpt lat="44.8697051" lon="7.4962818"><ele>257.0</ele><time>2026-04-25T17:50:51.19Z</time></trkpt><trkpt lat="44.8694595" lon="7.4964461"><ele>256.0</ele><time>2026-04-25T17:50:52.195Z</time></trkpt><trkpt lat="44.8691749" lon="7.4965676"><ele>255.0</ele><time>2026-04-25T17:50:53.196Z</time></trkpt><trkpt lat="44.8688931" lon="7.4967018"><ele>255.0</ele><time>2026-04-25T17:50:54.192Z</time></trkpt><trkpt lat="44.8686527" lon="7.4968419"><ele>255.0</ele><time>2026-04-25T17:50:55.191Z</time></trkpt><trkpt lat="44.8684039" lon="7.4969725"><ele>255.0</ele><time>2026-04-25T17:50:56.194Z</time></trkpt><trkpt lat="44.8681951" lon="7.4970713"><ele>255.0</ele><time>2026-04-25T17:50:57.191Z</time></trkpt><trkpt lat="44.867989" lon="7.4971517"><ele>255.0</ele><time>2026-04-25T17:50:58.187Z</time></trkpt><trkpt lat="44.867824" lon="7.4972204"><ele>255.33333333333331</ele><time>2026-04-25T17:50:59.191Z</time></trkpt><trkpt lat="44.867664" lon="7.4973017"><ele>255.66666666666666</ele><time>2026-04-25T17:51:00.192Z</time></trkpt><trkpt lat="44.867492" lon="7.4973772"><ele>256.0</ele><time>2026-04-25T17:51:01.19Z</time></trkpt><trkpt lat="44.8673409" lon="7.4974642"><ele>256.0</ele><time>2026-04-25T17:51:02.194Z</time></trkpt><trkpt lat="44.8671911" lon="7.4975448"><ele>256.0</ele><time>2026-04-25T17:51:03.187Z</time></trkpt><trkpt lat="44.8670466" lon="7.497615"><ele>256.0</ele><time>2026-04-25T17:51:04.197Z</time></trkpt><trkpt lat="44.8669167" lon="7.4976948"><ele>256.0</ele><time>2026-04-25T17:51:05.189Z</time></trkpt><trkpt lat="44.8667831" lon="7.4977471"><ele>256.0</ele><time>2026-04-25T17:51:06.175Z</time></trkpt><trkpt lat="44.8666531" lon="7.4977702"><ele>256.0</ele><time>2026-04-25T17:51:07.179Z</time></trkpt><trkpt lat="44.8665468" lon="7.4978114"><ele>256.0</ele><time>2026-04-25T17:51:08.174Z</time></trkpt><trkpt lat="44.8664647" lon="7.4978901"><ele>256.66666666666663</ele><time>2026-04-25T17:51:09.186Z</time></trkpt><trkpt lat="44.8664198" lon="7.4980545"><ele>257.3333333333333</ele><time>2026-04-25T17:51:10.175Z</time></trkpt><trkpt lat="44.8663234" lon="7.4982429"><ele>258.0</ele><time>2026-04-25T17:51:11.178Z</time></trkpt><trkpt lat="44.8661959" lon="7.4983985"><ele>258.0</ele><time>2026-04-25T17:51:12.182Z</time></trkpt><trkpt lat="44.8660488" lon="7.4985684"><ele>258.0</ele><time>2026-04-25T17:51:13.172Z</time></trkpt><trkpt lat="44.8658222" lon="7.4987567"><ele>257.0</ele><time>2026-04-25T17:51:14.188Z</time></trkpt><trkpt lat="44.8656294" lon="7.4989596"><ele>256.0</ele><time>2026-04-25T17:51:15.189Z</time></trkpt><trkpt lat="44.865468" lon="7.4991824"><ele>256.0</ele><time>2026-04-25T17:51:16.194Z</time></trkpt><trkpt lat="44.8652728" lon="7.4994424"><ele>256.0</ele><time>2026-04-25T17:51:17.194Z</time></trkpt><trkpt lat="44.8651047" lon="7.4996878"><ele>256.5</ele><time>2026-04-25T17:51:18.184Z</time></trkpt><trkpt lat="44.8649376" lon="7.4999511"><ele>257.0</ele><time>2026-04-25T17:51:19.185Z</time></trkpt><trkpt lat="44.8647758" lon="7.5002356"><ele>256.5</ele><time>2026-04-25T17:51:20.183Z</time></trkpt><trkpt lat="44.8646627" lon="7.500534"><ele>256.0</ele><time>2026-04-25T17:51:21.176Z</time></trkpt><trkpt lat="44.8645503" lon="7.5008775"><ele>256.0</ele><time>2026-04-25T17:51:22.191Z</time></trkpt><trkpt lat="44.8644604" lon="7.5012221"><ele>256.0</ele><time>2026-04-25T17:51:23.187Z</time></trkpt><trkpt lat="44.8643554" lon="7.50156"><ele>256.5</ele><time>2026-04-25T17:51:24.181Z</time></trkpt><trkpt lat="44.8642716" lon="7.5018732"><ele>257.0</ele><time>2026-04-25T17:51:25.19Z</time></trkpt><trkpt lat="44.8641935" lon="7.5021992"><ele>257.0</ele><time>2026-04-25T17:51:26.181Z</time></trkpt><trkpt lat="44.8641111" lon="7.5025435"><ele>257.0</ele><time>2026-04-25T17:51:27.191Z</time></trkpt><trkpt lat="44.8640216" lon="7.5029552"><ele>256.5</ele><time>2026-04-25T17:51:28.188Z</time></trkpt><trkpt lat="44.863979" lon="7.5033871"><ele>256.0</ele><time>2026-04-25T17:51:29.188Z</time></trkpt><trkpt lat="44.8639351" lon="7.5038187"><ele>256.0</ele><time>2026-04-25T17:51:30.183Z</time></trkpt><trkpt lat="44.8638994" lon="7.5042702"><ele>256.0</ele><time>2026-04-25T17:51:31.183Z</time></trkpt><trkpt lat="44.8638928" lon="7.5046941"><ele>256.0</ele><time>2026-04-25T17:51:32.188Z</time></trkpt><trkpt lat="44.8638563" lon="7.5051191"><ele>256.0</ele><time>2026-04-25T17:51:33.185Z</time></trkpt><trkpt lat="44.8638301" lon="7.5055197"><ele>255.5</ele><time>2026-04-25T17:51:34.183Z</time></trkpt><trkpt lat="44.8637832" lon="7.5058914"><ele>255.0</ele><time>2026-04-25T17:51:35.191Z</time></trkpt><trkpt lat="44.8637168" lon="7.5062428"><ele>255.0</ele><time>2026-04-25T17:51:36.178Z</time></trkpt><trkpt lat="44.8636485" lon="7.5066046"><ele>255.0</ele><time>2026-04-25T17:51:37.184Z</time></trkpt><trkpt lat="44.8635686" lon="7.5069538"><ele>255.5</ele><time>2026-04-25T17:51:38.184Z</time></trkpt><trkpt lat="44.8634521" lon="7.5072901"><ele>256.0</ele><time>2026-04-25T17:51:39.187Z</time></trkpt><trkpt lat="44.8633256" lon="7.507604"><ele>255.0</ele><time>2026-04-25T17:51:40.186Z</time></trkpt><trkpt lat="44.8631856" lon="7.5079167"><ele>254.0</ele><time>2026-04-25T17:51:41.184Z</time></trkpt><trkpt lat="44.8630128" lon="7.5082228"><ele>254.0</ele><time>2026-04-25T17:51:42.186Z</time></trkpt><trkpt lat="44.8628341" lon="7.5085054"><ele>254.0</ele><time>2026-04-25T17:51:43.185Z</time></trkpt><trkpt lat="44.8627005" lon="7.5087403"><ele>254.0</ele><time>2026-04-25T17:51:44.191Z</time></trkpt><trkpt lat="44.8625542" lon="7.5089787"><ele>254.0</ele><time>2026-04-25T17:51:45.191Z</time></trkpt><trkpt lat="44.8624014" lon="7.5091982"><ele>254.0</ele><time>2026-04-25T17:51:46.181Z</time></trkpt><trkpt lat="44.8622282" lon="7.5093931"><ele>254.0</ele><time>2026-04-25T17:51:47.191Z</time></trkpt><trkpt lat="44.8620397" lon="7.5095763"><ele>254.0</ele><time>2026-04-25T17:51:48.194Z</time></trkpt><trkpt lat="44.8619085" lon="7.5096685"><ele>254.0</ele><time>2026-04-25T17:51:49.189Z</time></trkpt><trkpt lat="44.8618244" lon="7.5097275"><ele>254.39999999999998</ele><time>2026-04-25T17:51:50.186Z</time></trkpt><trkpt lat="44.861711" lon="7.5098025"><ele>254.79999999999998</ele><time>2026-04-25T17:51:51.191Z</time></trkpt><trkpt lat="44.8616389" lon="7.5098044"><ele>255.20000000000002</ele><time>2026-04-25T17:51:52.183Z</time></trkpt><trkpt lat="44.8615575" lon="7.5098726"><ele>255.60000000000002</ele><time>2026-04-25T17:51:53.177Z</time></trkpt><trkpt lat="44.8614925" lon="7.5100006"><ele>256.0</ele><time>2026-04-25T17:51:54.171Z</time></trkpt><trkpt lat="44.8613907" lon="7.5101373"><ele>256.0</ele><time>2026-04-25T17:51:55.174Z</time></trkpt><trkpt lat="44.8612891" lon="7.5102687"><ele>256.0</ele><time>2026-04-25T17:51:56.175Z</time></trkpt><trkpt lat="44.8611635" lon="7.5104294"><ele>256.0</ele><time>2026-04-25T17:51:57.172Z</time></trkpt><trkpt lat="44.860986" lon="7.5105927"><ele>255.5</ele><time>2026-04-25T17:51:58.174Z</time></trkpt><trkpt lat="44.8607707" lon="7.5107893"><ele>255.0</ele><time>2026-04-25T17:51:59.178Z</time></trkpt><trkpt lat="44.860592" lon="7.5109553"><ele>255.0</ele><time>2026-04-25T17:52:00.171Z</time></trkpt><trkpt lat="44.8604152" lon="7.5111153"><ele>255.0</ele><time>2026-04-25T17:52:01.172Z</time></trkpt><trkpt lat="44.8602139" lon="7.5112659"><ele>255.0</ele><time>2026-04-25T17:52:02.173Z</time></trkpt><trkpt lat="44.8599862" lon="7.5114074"><ele>254.5</ele><time>2026-04-25T17:52:03.178Z</time></trkpt><trkpt lat="44.8597665" lon="7.5115352"><ele>254.0</ele><time>2026-04-25T17:52:04.172Z</time></trkpt><trkpt lat="44.8595441" lon="7.5116385"><ele>254.0</ele><time>2026-04-25T17:52:05.167Z</time></trkpt><trkpt lat="44.8593137" lon="7.5117163"><ele>254.0</ele><time>2026-04-25T17:52:06.187Z</time></trkpt><trkpt lat="44.859076" lon="7.5117553"><ele>254.0</ele><time>2026-04-25T17:52:07.174Z</time></trkpt><trkpt lat="44.8588394" lon="7.511805"><ele>254.0</ele><time>2026-04-25T17:52:08.168Z</time></trkpt><trkpt lat="44.8586204" lon="7.5118352"><ele>254.66666666666669</ele><time>2026-04-25T17:52:09.176Z</time></trkpt><trkpt lat="44.8584184" lon="7.5118666"><ele>255.33333333333331</ele><time>2026-04-25T17:52:10.172Z</time></trkpt><trkpt lat="44.8582687" lon="7.5118602"><ele>256.0</ele><time>2026-04-25T17:52:11.176Z</time></trkpt><trkpt lat="44.8581435" lon="7.5118591"><ele>256.0</ele><time>2026-04-25T17:52:12.17Z</time></trkpt><trkpt lat="44.858006" lon="7.5117859"><ele>256.0</ele><time>2026-04-25T17:52:14.162Z</time></trkpt><trkpt lat="44.8578941" lon="7.5117584"><ele>256.0</ele><time>2026-04-25T17:52:15.171Z</time></trkpt><trkpt lat="44.8577504" lon="7.5117585"><ele>256.0</ele><time>2026-04-25T17:52:16.17Z</time></trkpt><trkpt lat="44.8575963" lon="7.511753"><ele>255.66666666666666</ele><time>2026-04-25T17:52:17.177Z</time></trkpt><trkpt lat="44.8574088" lon="7.5117106"><ele>255.33333333333331</ele><time>2026-04-25T17:52:18.171Z</time></trkpt><trkpt lat="44.8572158" lon="7.5116624"><ele>255.0</ele><time>2026-04-25T17:52:19.187Z</time></trkpt><trkpt lat="44.8569976" lon="7.5115701"><ele>257.0</ele><time>2026-04-25T17:52:20.177Z</time></trkpt><trkpt lat="44.8567601" lon="7.5114544"><ele>259.0</ele><time>2026-04-25T17:52:21.174Z</time></trkpt><trkpt lat="44.8565174" lon="7.5112859"><ele>258.0</ele><time>2026-04-25T17:52:22.174Z</time></trkpt><trkpt lat="44.85628" lon="7.5111699"><ele>257.0</ele><time>2026-04-25T17:52:23.183Z</time></trkpt><trkpt lat="44.8560664" lon="7.5110717"><ele>257.0</ele><time>2026-04-25T17:52:24.176Z</time></trkpt><trkpt lat="44.8558236" lon="7.510938"><ele>257.0</ele><time>2026-04-25T17:52:25.177Z</time></trkpt><trkpt lat="44.8555602" lon="7.5108302"><ele>257.0</ele><time>2026-04-25T17:52:26.18Z</time></trkpt><trkpt lat="44.8553143" lon="7.5107305"><ele>257.0</ele><time>2026-04-25T17:52:27.175Z</time></trkpt><trkpt lat="44.8550227" lon="7.5106337"><ele>256.5</ele><time>2026-04-25T17:52:28.174Z</time></trkpt><trkpt lat="44.854781" lon="7.5105129"><ele>256.0</ele><time>2026-04-25T17:52:29.173Z</time></trkpt><trkpt lat="44.8545518" lon="7.5103874"><ele>255.5</ele><time>2026-04-25T17:52:30.17Z</time></trkpt><trkpt lat="44.854332" lon="7.5102583"><ele>255.0</ele><time>2026-04-25T17:52:31.169Z</time></trkpt><trkpt lat="44.8540774" lon="7.5101458"><ele>255.0</ele><time>2026-04-25T17:52:32.171Z</time></trkpt><trkpt lat="44.8538232" lon="7.5100011"><ele>255.0</ele><time>2026-04-25T17:52:33.173Z</time></trkpt><trkpt lat="44.8535781" lon="7.5098834"><ele>255.5</ele><time>2026-04-25T17:52:34.173Z</time></trkpt><trkpt lat="44.8533282" lon="7.5097378"><ele>256.0</ele><time>2026-04-25T17:52:35.175Z</time></trkpt><trkpt lat="44.8530733" lon="7.5096165"><ele>255.5</ele><time>2026-04-25T17:52:36.174Z</time></trkpt><trkpt lat="44.8528325" lon="7.5095116"><ele>255.0</ele><time>2026-04-25T17:52:37.188Z</time></trkpt><trkpt lat="44.8525709" lon="7.5093924"><ele>256.0</ele><time>2026-04-25T17:52:38.179Z</time></trkpt><trkpt lat="44.8523143" lon="7.5092684"><ele>257.0</ele><time>2026-04-25T17:52:39.182Z</time></trkpt><trkpt lat="44.8520659" lon="7.5091461"><ele>257.0</ele><time>2026-04-25T17:52:40.178Z</time></trkpt><trkpt lat="44.85184" lon="7.5089979"><ele>257.0</ele><time>2026-04-25T17:52:41.179Z</time></trkpt><trkpt lat="44.8515853" lon="7.5088614"><ele>259.0</ele><time>2026-04-25T17:52:42.179Z</time></trkpt><trkpt lat="44.8513503" lon="7.5087377"><ele>261.0</ele><time>2026-04-25T17:52:43.178Z</time></trkpt><trkpt lat="44.8511024" lon="7.5086192"><ele>257.5</ele><time>2026-04-25T17:52:44.18Z</time></trkpt><trkpt lat="44.8508595" lon="7.5084844"><ele>254.0</ele><time>2026-04-25T17:52:45.181Z</time></trkpt><trkpt lat="44.8506039" lon="7.5083712"><ele>254.0</ele><time>2026-04-25T17:52:46.184Z</time></trkpt><trkpt lat="44.8503439" lon="7.5082329"><ele>254.0</ele><time>2026-04-25T17:52:47.182Z</time></trkpt><trkpt lat="44.8500848" lon="7.5081055"><ele>254.0</ele><time>2026-04-25T17:52:48.191Z</time></trkpt><trkpt lat="44.849817" lon="7.5079831"><ele>254.0</ele><time>2026-04-25T17:52:49.187Z</time></trkpt><trkpt lat="44.849549" lon="7.5078557"><ele>253.5</ele><time>2026-04-25T17:52:50.187Z</time></trkpt><trkpt lat="44.8492741" lon="7.507721"><ele>253.0</ele><time>2026-04-25T17:52:51.184Z</time></trkpt><trkpt lat="44.8490118" lon="7.5075965"><ele>253.0</ele><time>2026-04-25T17:52:52.188Z</time></trkpt><trkpt lat="44.8487381" lon="7.5074657"><ele>253.0</ele><time>2026-04-25T17:52:53.193Z</time></trkpt><trkpt lat="44.8484766" lon="7.5073489"><ele>254.0</ele><time>2026-04-25T17:52:54.188Z</time></trkpt><trkpt lat="44.8482085" lon="7.5072022"><ele>255.0</ele><time>2026-04-25T17:52:55.19Z</time></trkpt><trkpt lat="44.8479307" lon="7.5070941"><ele>255.0</ele><time>2026-04-25T17:52:56.188Z</time></trkpt><trkpt lat="44.8476641" lon="7.5069683"><ele>255.0</ele><time>2026-04-25T17:52:57.19Z</time></trkpt><trkpt lat="44.8473552" lon="7.5068594"><ele>255.5</ele><time>2026-04-25T17:52:58.174Z</time></trkpt><trkpt lat="44.8471281" lon="7.5067071"><ele>256.0</ele><time>2026-04-25T17:52:59.182Z</time></trkpt><trkpt lat="44.8468797" lon="7.5065579"><ele>256.0</ele><time>2026-04-25T17:53:00.18Z</time></trkpt><trkpt lat="44.8466164" lon="7.5064139"><ele>256.0</ele><time>2026-04-25T17:53:01.18Z</time></trkpt><trkpt lat="44.8463684" lon="7.5062838"><ele>256.0</ele><time>2026-04-25T17:53:02.179Z</time></trkpt><trkpt lat="44.8461135" lon="7.5061404"><ele>256.0</ele><time>2026-04-25T17:53:03.181Z</time></trkpt><trkpt lat="44.8458805" lon="7.5060306"><ele>256.0</ele><time>2026-04-25T17:53:04.183Z</time></trkpt><trkpt lat="44.8456518" lon="7.5059125"><ele>256.0</ele><time>2026-04-25T17:53:05.181Z</time></trkpt><trkpt lat="44.84542" lon="7.5058093"><ele>256.0</ele><time>2026-04-25T17:53:06.173Z</time></trkpt><trkpt lat="44.845222" lon="7.5057236"><ele>256.0</ele><time>2026-04-25T17:53:07.177Z</time></trkpt><trkpt lat="44.8450284" lon="7.5056053"><ele>256.0</ele><time>2026-04-25T17:53:08.189Z</time></trkpt><trkpt lat="44.8448402" lon="7.5055152"><ele>256.0</ele><time>2026-04-25T17:53:09.181Z</time></trkpt><trkpt lat="44.8446444" lon="7.5053943"><ele>256.0</ele><time>2026-04-25T17:53:10.179Z</time></trkpt><trkpt lat="44.8444317" lon="7.5053143"><ele>256.0</ele><time>2026-04-25T17:53:11.175Z</time></trkpt><trkpt lat="44.8442255" lon="7.5052132"><ele>256.3333333333333</ele><time>2026-04-25T17:53:12.182Z</time></trkpt><trkpt lat="44.8440163" lon="7.5051191"><ele>256.6666666666667</ele><time>2026-04-25T17:53:13.184Z</time></trkpt><trkpt lat="44.8438074" lon="7.5050163"><ele>257.0</ele><time>2026-04-25T17:53:14.182Z</time></trkpt><trkpt lat="44.8436179" lon="7.5049093"><ele>257.0</ele><time>2026-04-25T17:53:15.179Z</time></trkpt><trkpt lat="44.8434093" lon="7.5048103"><ele>257.0</ele><time>2026-04-25T17:53:16.178Z</time></trkpt><trkpt lat="44.8431987" lon="7.5047164"><ele>257.0</ele><time>2026-04-25T17:53:17.177Z</time></trkpt><trkpt lat="44.8429959" lon="7.5045922"><ele>257.0</ele><time>2026-04-25T17:53:18.187Z</time></trkpt><trkpt lat="44.8427828" lon="7.504481"><ele>257.0</ele><time>2026-04-25T17:53:19.183Z</time></trkpt><trkpt lat="44.8425673" lon="7.5043853"><ele>257.0</ele><time>2026-04-25T17:53:20.18Z</time></trkpt><trkpt lat="44.8423571" lon="7.5043007"><ele>257.0</ele><time>2026-04-25T17:53:21.179Z</time></trkpt><trkpt lat="44.8421648" lon="7.504208"><ele>257.0</ele><time>2026-04-25T17:53:22.18Z</time></trkpt><trkpt lat="44.841981" lon="7.504131"><ele>257.6666666666667</ele><time>2026-04-25T17:53:23.186Z</time></trkpt><trkpt lat="44.8417932" lon="7.5040415"><ele>258.3333333333333</ele><time>2026-04-25T17:53:24.18Z</time></trkpt><trkpt lat="44.841614" lon="7.5039425"><ele>259.0</ele><time>2026-04-25T17:53:25.179Z</time></trkpt><trkpt lat="44.8414373" lon="7.5038748"><ele>259.0</ele><time>2026-04-25T17:53:26.179Z</time></trkpt><trkpt lat="44.8412965" lon="7.5037962"><ele>259.0</ele><time>2026-04-25T17:53:27.179Z</time></trkpt><trkpt lat="44.8411582" lon="7.5037079"><ele>259.0</ele><time>2026-04-25T17:53:28.173Z</time></trkpt><trkpt lat="44.8410588" lon="7.5036315"><ele>259.0</ele><time>2026-04-25T17:53:29.169Z</time></trkpt><trkpt lat="44.8409444" lon="7.5035749"><ele>258.5</ele><time>2026-04-25T17:53:30.173Z</time></trkpt><trkpt lat="44.8408223" lon="7.5034941"><ele>258.0</ele><time>2026-04-25T17:53:31.176Z</time></trkpt><trkpt lat="44.840739" lon="7.5034428"><ele>257.5</ele><time>2026-04-25T17:53:32.171Z</time></trkpt><trkpt lat="44.8406373" lon="7.5033737"><ele>257.0</ele><time>2026-04-25T17:53:33.17Z</time></trkpt><trkpt lat="44.8405459" lon="7.5032838"><ele>257.0</ele><time>2026-04-25T17:53:34.18Z</time></trkpt><trkpt lat="44.8404674" lon="7.5032332"><ele>257.0</ele><time>2026-04-25T17:53:35.176Z</time></trkpt><trkpt lat="44.8403679" lon="7.5031794"><ele>257.0</ele><time>2026-04-25T17:53:36.177Z</time></trkpt><trkpt lat="44.8402382" lon="7.5031574"><ele>257.0</ele><time>2026-04-25T17:53:37.176Z</time></trkpt><trkpt lat="44.8401093" lon="7.5031166"><ele>257.0</ele><time>2026-04-25T17:53:38.177Z</time></trkpt><trkpt lat="44.8399797" lon="7.5030644"><ele>257.0</ele><time>2026-04-25T17:53:39.184Z</time></trkpt><trkpt lat="44.8398434" lon="7.5029989"><ele>257.0</ele><time>2026-04-25T17:53:40.175Z</time></trkpt><trkpt lat="44.8396925" lon="7.5029172"><ele>257.0</ele><time>2026-04-25T17:53:41.178Z</time></trkpt><trkpt lat="44.8395092" lon="7.5028106"><ele>257.0</ele><time>2026-04-25T17:53:42.177Z</time></trkpt><trkpt lat="44.839351" lon="7.5027353"><ele>257.0</ele><time>2026-04-25T17:53:43.183Z</time></trkpt><trkpt lat="44.8391812" lon="7.5026527"><ele>257.0</ele><time>2026-04-25T17:53:44.188Z</time></trkpt><trkpt lat="44.8390195" lon="7.5025554"><ele>256.33333333333337</ele><time>2026-04-25T17:53:45.185Z</time></trkpt><trkpt lat="44.8388526" lon="7.5024329"><ele>255.66666666666669</ele><time>2026-04-25T17:53:46.182Z</time></trkpt><trkpt lat="44.8386698" lon="7.502347"><ele>255.0</ele><time>2026-04-25T17:53:47.183Z</time></trkpt><trkpt lat="44.8385151" lon="7.5022697"><ele>255.0</ele><time>2026-04-25T17:53:48.182Z</time></trkpt><trkpt lat="44.8383542" lon="7.502183"><ele>255.0</ele><time>2026-04-25T17:53:49.183Z</time></trkpt><trkpt lat="44.8381901" lon="7.5020951"><ele>255.0</ele><time>2026-04-25T17:53:50.18Z</time></trkpt><trkpt lat="44.8380393" lon="7.5020084"><ele>255.0</ele><time>2026-04-25T17:53:51.179Z</time></trkpt><trkpt lat="44.8378804" lon="7.5019091"><ele>255.0</ele><time>2026-04-25T17:53:52.181Z</time></trkpt><trkpt lat="44.8377194" lon="7.5018135"><ele>255.0</ele><time>2026-04-25T17:53:53.187Z</time></trkpt><trkpt lat="44.8375566" lon="7.5017032"><ele>255.0</ele><time>2026-04-25T17:53:54.182Z</time></trkpt><trkpt lat="44.8374089" lon="7.5015876"><ele>255.0</ele><time>2026-04-25T17:53:55.185Z</time></trkpt><trkpt lat="44.8372639" lon="7.5014521"><ele>255.0</ele><time>2026-04-25T17:53:56.179Z</time></trkpt><trkpt lat="44.8370972" lon="7.5013077"><ele>255.0</ele><time>2026-04-25T17:53:57.18Z</time></trkpt><trkpt lat="44.8369437" lon="7.5011426"><ele>255.0</ele><time>2026-04-25T17:53:58.183Z</time></trkpt><trkpt lat="44.8367832" lon="7.5009732"><ele>255.0</ele><time>2026-04-25T17:53:59.184Z</time></trkpt><trkpt lat="44.8366533" lon="7.5007607"><ele>255.0</ele><time>2026-04-25T17:54:00.188Z</time></trkpt><trkpt lat="44.836519" lon="7.5005566"><ele>255.0</ele><time>2026-04-25T17:54:01.184Z</time></trkpt><trkpt lat="44.8364103" lon="7.5003512"><ele>255.0</ele><time>2026-04-25T17:54:02.182Z</time></trkpt><trkpt lat="44.8362787" lon="7.5001532"><ele>255.0</ele><time>2026-04-25T17:54:03.188Z</time></trkpt><trkpt lat="44.8361734" lon="7.4999429"><ele>255.0</ele><time>2026-04-25T17:54:04.187Z</time></trkpt><trkpt lat="44.83609" lon="7.4997316"><ele>255.0</ele><time>2026-04-25T17:54:05.19Z</time></trkpt><trkpt lat="44.8359985" lon="7.4995101"><ele>254.66666666666669</ele><time>2026-04-25T17:54:06.185Z</time></trkpt><trkpt lat="44.8358674" lon="7.4992964"><ele>254.33333333333334</ele><time>2026-04-25T17:54:07.179Z</time></trkpt><trkpt lat="44.835761" lon="7.4990982"><ele>254.0</ele><time>2026-04-25T17:54:08.184Z</time></trkpt><trkpt lat="44.8356542" lon="7.4989006"><ele>254.0</ele><time>2026-04-25T17:54:09.18Z</time></trkpt><trkpt lat="44.8355633" lon="7.4987196"><ele>254.0</ele><time>2026-04-25T17:54:10.194Z</time></trkpt><trkpt lat="44.8354693" lon="7.4985534"><ele>254.0</ele><time>2026-04-25T17:54:11.176Z</time></trkpt><trkpt lat="44.835398" lon="7.4984078"><ele>254.0</ele><time>2026-04-25T17:54:12.172Z</time></trkpt><trkpt lat="44.835346" lon="7.4982904"><ele>254.00000000000003</ele><time>2026-04-25T17:54:13.188Z</time></trkpt><trkpt lat="44.83531" lon="7.498173"><ele>254.0</ele><time>2026-04-25T17:54:14.178Z</time></trkpt><trkpt lat="44.8352923" lon="7.4980679"><ele>254.0</ele><time>2026-04-25T17:54:15.186Z</time></trkpt><trkpt lat="44.8352906" lon="7.4979752"><ele>254.0</ele><time>2026-04-25T17:54:16.182Z</time></trkpt><trkpt lat="44.835263" lon="7.4978542"><ele>254.00000000000003</ele><time>2026-04-25T17:54:17.178Z</time></trkpt><trkpt lat="44.8352402" lon="7.497763"><ele>254.0</ele><time>2026-04-25T17:54:18.175Z</time></trkpt><trkpt lat="44.8351689" lon="7.4977096"><ele>254.39999999999998</ele><time>2026-04-25T17:54:19.173Z</time></trkpt><trkpt lat="44.8350866" lon="7.497711"><ele>254.79999999999998</ele><time>2026-04-25T17:54:20.173Z</time></trkpt><trkpt lat="44.8350078" lon="7.4977424"><ele>255.20000000000002</ele><time>2026-04-25T17:54:21.169Z</time></trkpt><trkpt lat="44.8349201" lon="7.497791"><ele>255.60000000000002</ele><time>2026-04-25T17:54:22.168Z</time></trkpt><trkpt lat="44.8348466" lon="7.4978976"><ele>256.0</ele><time>2026-04-25T17:54:23.184Z</time></trkpt><trkpt lat="44.8348071" lon="7.4980592"><ele>256.0</ele><time>2026-04-25T17:54:24.173Z</time></trkpt><trkpt lat="44.8347604" lon="7.4981846"><ele>256.0</ele><time>2026-04-25T17:54:25.171Z</time></trkpt><trkpt lat="44.834695" lon="7.4982935"><ele>256.0</ele><time>2026-04-25T17:54:26.172Z</time></trkpt><trkpt lat="44.834605" lon="7.498406"><ele>256.0</ele><time>2026-04-25T17:54:27.179Z</time></trkpt><trkpt lat="44.8344732" lon="7.4985214"><ele>256.0</ele><time>2026-04-25T17:54:28.182Z</time></trkpt><trkpt lat="44.8343389" lon="7.4986256"><ele>256.0</ele><time>2026-04-25T17:54:29.182Z</time></trkpt><trkpt lat="44.8341818" lon="7.4987253"><ele>256.0</ele><time>2026-04-25T17:54:30.174Z</time></trkpt><trkpt lat="44.8339506" lon="7.4988522"><ele>256.0</ele><time>2026-04-25T17:54:31.19Z</time></trkpt><trkpt lat="44.8336965" lon="7.4988904"><ele>256.0</ele><time>2026-04-25T17:54:32.18Z</time></trkpt><trkpt lat="44.8334352" lon="7.4989192"><ele>256.0</ele><time>2026-04-25T17:54:33.18Z</time></trkpt><trkpt lat="44.8331901" lon="7.4989337"><ele>256.0</ele><time>2026-04-25T17:54:34.178Z</time></trkpt><trkpt lat="44.8329175" lon="7.4989537"><ele>255.5</ele><time>2026-04-25T17:54:35.177Z</time></trkpt><trkpt lat="44.8326369" lon="7.4990025"><ele>255.0</ele><time>2026-04-25T17:54:36.181Z</time></trkpt><trkpt lat="44.832311" lon="7.4991154"><ele>255.0</ele><time>2026-04-25T17:54:37.182Z</time></trkpt><trkpt lat="44.8319936" lon="7.4992018"><ele>255.0</ele><time>2026-04-25T17:54:38.189Z</time></trkpt><trkpt lat="44.8317016" lon="7.4992614"><ele>255.0</ele><time>2026-04-25T17:54:39.182Z</time></trkpt><trkpt lat="44.831422" lon="7.4993349"><ele>255.0</ele><time>2026-04-25T17:54:40.184Z</time></trkpt><trkpt lat="44.8311902" lon="7.4994112"><ele>255.5</ele><time>2026-04-25T17:54:41.195Z</time></trkpt><trkpt lat="44.830936" lon="7.4994877"><ele>256.0</ele><time>2026-04-25T17:54:42.188Z</time></trkpt><trkpt lat="44.830655" lon="7.4995655"><ele>256.0</ele><time>2026-04-25T17:54:43.18Z</time></trkpt><trkpt lat="44.8303536" lon="7.4996336"><ele>256.0</ele><time>2026-04-25T17:54:44.178Z</time></trkpt><trkpt lat="44.830054" lon="7.4996834"><ele>256.0</ele><time>2026-04-25T17:54:45.18Z</time></trkpt><trkpt lat="44.8297687" lon="7.4997291"><ele>256.0</ele><time>2026-04-25T17:54:46.175Z</time></trkpt><trkpt lat="44.8294871" lon="7.4997909"><ele>255.5</ele><time>2026-04-25T17:54:47.185Z</time></trkpt><trkpt lat="44.8292062" lon="7.4998573"><ele>255.0</ele><time>2026-04-25T17:54:48.186Z</time></trkpt><trkpt lat="44.828918" lon="7.4999236"><ele>255.0</ele><time>2026-04-25T17:54:49.184Z</time></trkpt><trkpt lat="44.8286171" lon="7.5000007"><ele>255.0</ele><time>2026-04-25T17:54:50.187Z</time></trkpt><trkpt lat="44.8283266" lon="7.5000794"><ele>254.5</ele><time>2026-04-25T17:54:51.181Z</time></trkpt><trkpt lat="44.8280344" lon="7.5001432"><ele>254.0</ele><time>2026-04-25T17:54:52.183Z</time></trkpt><trkpt lat="44.8278094" lon="7.5001248"><ele>253.5</ele><time>2026-04-25T17:54:53.188Z</time></trkpt><trkpt lat="44.8275618" lon="7.500146"><ele>253.0</ele><time>2026-04-25T17:54:54.179Z</time></trkpt><trkpt lat="44.8273325" lon="7.5001127"><ele>253.0</ele><time>2026-04-25T17:54:55.174Z</time></trkpt><trkpt lat="44.8270901" lon="7.5000655"><ele>253.0</ele><time>2026-04-25T17:54:56.18Z</time></trkpt><trkpt lat="44.8268576" lon="7.5000121"><ele>253.33333333333331</ele><time>2026-04-25T17:54:57.178Z</time></trkpt><trkpt lat="44.8266436" lon="7.4999416"><ele>253.66666666666669</ele><time>2026-04-25T17:54:58.174Z</time></trkpt><trkpt lat="44.8264339" lon="7.4999071"><ele>254.0</ele><time>2026-04-25T17:54:59.176Z</time></trkpt><trkpt lat="44.8262591" lon="7.4998897"><ele>254.0</ele><time>2026-04-25T17:55:00.169Z</time></trkpt><trkpt lat="44.826121" lon="7.4998219"><ele>254.0</ele><time>2026-04-25T17:55:01.174Z</time></trkpt><trkpt lat="44.8260032" lon="7.4997431"><ele>254.0</ele><time>2026-04-25T17:55:02.175Z</time></trkpt><trkpt lat="44.8258901" lon="7.49964"><ele>254.0</ele><time>2026-04-25T17:55:03.17Z</time></trkpt><trkpt lat="44.8258232" lon="7.4995277"><ele>255.0</ele><time>2026-04-25T17:55:04.166Z</time></trkpt><trkpt lat="44.8257819" lon="7.4993765"><ele>256.0</ele><time>2026-04-25T17:55:05.174Z</time></trkpt><trkpt lat="44.8257323" lon="7.4991434"><ele>257.0</ele><time>2026-04-25T17:55:06.182Z</time></trkpt><trkpt lat="44.8257037" lon="7.4988721"><ele>256.0</ele><time>2026-04-25T17:55:07.18Z</time></trkpt><trkpt lat="44.8256688" lon="7.4985662"><ele>255.0</ele><time>2026-04-25T17:55:08.19Z</time></trkpt><trkpt lat="44.8256515" lon="7.4982123"><ele>255.5</ele><time>2026-04-25T17:55:09.18Z</time></trkpt><trkpt lat="44.8256348" lon="7.4977767"><ele>256.0</ele><time>2026-04-25T17:55:10.175Z</time></trkpt><trkpt lat="44.8256367" lon="7.4973705"><ele>255.5</ele><time>2026-04-25T17:55:11.18Z</time></trkpt><trkpt lat="44.8256294" lon="7.4970023"><ele>255.0</ele><time>2026-04-25T17:55:12.182Z</time></trkpt><trkpt lat="44.825615" lon="7.4966889"><ele>255.0</ele><time>2026-04-25T17:55:13.181Z</time></trkpt><trkpt lat="44.8256169" lon="7.4964177"><ele>255.0</ele><time>2026-04-25T17:55:14.177Z</time></trkpt><trkpt lat="44.8256276" lon="7.4961428"><ele>255.0</ele><time>2026-04-25T17:55:15.173Z</time></trkpt><trkpt lat="44.8256999" lon="7.4958627"><ele>255.33333333333331</ele><time>2026-04-25T17:55:16.179Z</time></trkpt><trkpt lat="44.8257613" lon="7.4955971"><ele>255.66666666666666</ele><time>2026-04-25T17:55:17.177Z</time></trkpt><trkpt lat="44.8258034" lon="7.495388"><ele>256.0</ele><time>2026-04-25T17:55:18.177Z</time></trkpt><trkpt lat="44.8258013" lon="7.4951795"><ele>256.0</ele><time>2026-04-25T17:55:19.175Z</time></trkpt><trkpt lat="44.8257966" lon="7.4949681"><ele>256.0</ele><time>2026-04-25T17:55:20.178Z</time></trkpt><trkpt lat="44.8257786" lon="7.4948144"><ele>256.0</ele><time>2026-04-25T17:55:21.181Z</time></trkpt><trkpt lat="44.8257361" lon="7.4945848"><ele>256.0</ele><time>2026-04-25T17:55:22.179Z</time></trkpt><trkpt lat="44.8257116" lon="7.4943246"><ele>255.66666666666666</ele><time>2026-04-25T17:55:23.183Z</time></trkpt><trkpt lat="44.8256374" lon="7.4940477"><ele>255.33333333333331</ele><time>2026-04-25T17:55:24.185Z</time></trkpt><trkpt lat="44.8256198" lon="7.4937343"><ele>255.0</ele><time>2026-04-25T17:55:25.188Z</time></trkpt><trkpt lat="44.8256123" lon="7.493455"><ele>255.0</ele><time>2026-04-25T17:55:26.191Z</time></trkpt><trkpt lat="44.825603" lon="7.4932083"><ele>255.0</ele><time>2026-04-25T17:55:27.193Z</time></trkpt><trkpt lat="44.8255657" lon="7.4929532"><ele>255.0</ele><time>2026-04-25T17:55:28.187Z</time></trkpt><trkpt lat="44.825532" lon="7.4927406"><ele>255.25</ele><time>2026-04-25T17:55:29.18Z</time></trkpt><trkpt lat="44.8254909" lon="7.4925623"><ele>255.5</ele><time>2026-04-25T17:55:30.178Z</time></trkpt><trkpt lat="44.8254562" lon="7.4923937"><ele>255.75</ele><time>2026-04-25T17:55:31.183Z</time></trkpt><trkpt lat="44.8254171" lon="7.4922215"><ele>256.0</ele><time>2026-04-25T17:55:32.187Z</time></trkpt><trkpt lat="44.8253708" lon="7.4921036"><ele>256.2</ele><time>2026-04-25T17:55:33.185Z</time></trkpt><trkpt lat="44.8253131" lon="7.4920077"><ele>256.40000000000003</ele><time>2026-04-25T17:55:34.18Z</time></trkpt><trkpt lat="44.8252613" lon="7.4919338"><ele>256.6</ele><time>2026-04-25T17:55:35.188Z</time></trkpt><trkpt lat="44.8252063" lon="7.4918448"><ele>256.8</ele><time>2026-04-25T17:55:36.184Z</time></trkpt><trkpt lat="44.825118" lon="7.4917612"><ele>257.0</ele><time>2026-04-25T17:55:37.184Z</time></trkpt><trkpt lat="44.8250401" lon="7.4916401"><ele>257.25</ele><time>2026-04-25T17:55:38.187Z</time></trkpt><trkpt lat="44.8249547" lon="7.4915362"><ele>257.5</ele><time>2026-04-25T17:55:39.182Z</time></trkpt><trkpt lat="44.8248633" lon="7.4914342"><ele>257.75</ele><time>2026-04-25T17:55:40.184Z</time></trkpt><trkpt lat="44.8247749" lon="7.4913115"><ele>258.0</ele><time>2026-04-25T17:55:41.18Z</time></trkpt><trkpt lat="44.8246825" lon="7.4911709"><ele>258.0</ele><time>2026-04-25T17:55:42.177Z</time></trkpt><trkpt lat="44.8245648" lon="7.4910217"><ele>258.0</ele><time>2026-04-25T17:55:43.186Z</time></trkpt><trkpt lat="44.8244131" lon="7.4909035"><ele>258.0</ele><time>2026-04-25T17:55:44.174Z</time></trkpt><trkpt lat="44.824251" lon="7.4907949"><ele>257.6666666666667</ele><time>2026-04-25T17:55:45.169Z</time></trkpt><trkpt lat="44.8240821" lon="7.4906564"><ele>257.33333333333337</ele><time>2026-04-25T17:55:46.169Z</time></trkpt><trkpt lat="44.8239369" lon="7.4905607"><ele>257.0</ele><time>2026-04-25T17:55:47.167Z</time></trkpt><trkpt lat="44.8238158" lon="7.4904894"><ele>257.0</ele><time>2026-04-25T17:55:48.167Z</time></trkpt><trkpt lat="44.8237522" lon="7.490452"><ele>257.0</ele><time>2026-04-25T17:55:49.167Z</time></trkpt><trkpt lat="44.8236867" lon="7.4903707"><ele>257.0</ele><time>2026-04-25T17:55:50.161Z</time></trkpt><trkpt lat="44.8236377" lon="7.4903086"><ele>257.0</ele><time>2026-04-25T17:55:51.171Z</time></trkpt><trkpt lat="44.8236189" lon="7.4902053"><ele>257.0</ele><time>2026-04-25T17:55:52.174Z</time></trkpt><trkpt lat="44.8236363" lon="7.4900494"><ele>257.0</ele><time>2026-04-25T17:55:53.182Z</time></trkpt><trkpt lat="44.8236399" lon="7.4898422"><ele>257.0</ele><time>2026-04-25T17:55:54.177Z</time></trkpt><trkpt lat="44.8236625" lon="7.489617"><ele>257.0</ele><time>2026-04-25T17:55:55.179Z</time></trkpt><trkpt lat="44.823697" lon="7.4893775"><ele>257.0</ele><time>2026-04-25T17:55:56.173Z</time></trkpt><trkpt lat="44.8237525" lon="7.4891066"><ele>257.0</ele><time>2026-04-25T17:55:57.184Z</time></trkpt><trkpt lat="44.8238064" lon="7.488838"><ele>257.0</ele><time>2026-04-25T17:55:58.185Z</time></trkpt><trkpt lat="44.8238327" lon="7.4885609"><ele>257.0</ele><time>2026-04-25T17:55:59.179Z</time></trkpt><trkpt lat="44.823875" lon="7.4883468"><ele>257.0</ele><time>2026-04-25T17:56:00.175Z</time></trkpt><trkpt lat="44.8239109" lon="7.488161"><ele>257.0</ele><time>2026-04-25T17:56:01.175Z</time></trkpt><trkpt lat="44.8239615" lon="7.4879875"><ele>257.0</ele><time>2026-04-25T17:56:02.179Z</time></trkpt><trkpt lat="44.8240164" lon="7.4877583"><ele>257.0</ele><time>2026-04-25T17:56:03.172Z</time></trkpt><trkpt lat="44.8240129" lon="7.4875311"><ele>257.0</ele><time>2026-04-25T17:56:04.175Z</time></trkpt><trkpt lat="44.8239786" lon="7.4873399"><ele>257.0</ele><time>2026-04-25T17:56:05.169Z</time></trkpt><trkpt lat="44.8239608" lon="7.487074"><ele>257.0</ele><time>2026-04-25T17:56:06.171Z</time></trkpt><trkpt lat="44.8239127" lon="7.4867622"><ele>257.33333333333337</ele><time>2026-04-25T17:56:07.168Z</time></trkpt><trkpt lat="44.8238868" lon="7.4864845"><ele>257.6666666666667</ele><time>2026-04-25T17:56:08.171Z</time></trkpt><trkpt lat="44.82379" lon="7.4861971"><ele>258.0</ele><time>2026-04-25T17:56:09.187Z</time></trkpt><trkpt lat="44.8237003" lon="7.4858946"><ele>258.5</ele><time>2026-04-25T17:56:10.184Z</time></trkpt><trkpt lat="44.8236152" lon="7.4856127"><ele>259.0</ele><time>2026-04-25T17:56:11.18Z</time></trkpt><trkpt lat="44.823526" lon="7.4852584"><ele>259.0</ele><time>2026-04-25T17:56:12.183Z</time></trkpt><trkpt lat="44.8234535" lon="7.4849419"><ele>259.0</ele><time>2026-04-25T17:56:13.174Z</time></trkpt><trkpt lat="44.8233486" lon="7.4846519"><ele>259.3333333333333</ele><time>2026-04-25T17:56:14.186Z</time></trkpt><trkpt lat="44.8232926" lon="7.484374"><ele>259.6666666666667</ele><time>2026-04-25T17:56:15.17Z</time></trkpt><trkpt lat="44.8232115" lon="7.4841419"><ele>260.0</ele><time>2026-04-25T17:56:16.177Z</time></trkpt><trkpt lat="44.8231773" lon="7.4839166"><ele>259.75</ele><time>2026-04-25T17:56:17.168Z</time></trkpt><trkpt lat="44.8231488" lon="7.4836796"><ele>259.5</ele><time>2026-04-25T17:56:18.18Z</time></trkpt><trkpt lat="44.8231111" lon="7.4834516"><ele>259.25</ele><time>2026-04-25T17:56:19.176Z</time></trkpt><trkpt lat="44.8230891" lon="7.4833019"><ele>259.0</ele><time>2026-04-25T17:56:20.179Z</time></trkpt><trkpt lat="44.8230452" lon="7.483112"><ele>259.0</ele><time>2026-04-25T17:56:21.176Z</time></trkpt><trkpt lat="44.8229757" lon="7.4829477"><ele>259.0</ele><time>2026-04-25T17:56:22.177Z</time></trkpt><trkpt lat="44.8228826" lon="7.4827933"><ele>259.0</ele><time>2026-04-25T17:56:23.184Z</time></trkpt><trkpt lat="44.8227775" lon="7.4825972"><ele>259.0</ele><time>2026-04-25T17:56:24.174Z</time></trkpt><trkpt lat="44.8226084" lon="7.4824629"><ele>259.0</ele><time>2026-04-25T17:56:25.183Z</time></trkpt><trkpt lat="44.8224929" lon="7.4823598"><ele>259.0</ele><time>2026-04-25T17:56:26.184Z</time></trkpt><trkpt lat="44.8223539" lon="7.4823121"><ele>259.0</ele><time>2026-04-25T17:56:27.177Z</time></trkpt><trkpt lat="44.8222309" lon="7.4822817"><ele>259.0</ele><time>2026-04-25T17:56:28.183Z</time></trkpt><trkpt lat="44.8221755" lon="7.4822152"><ele>259.0</ele><time>2026-04-25T17:56:29.185Z</time></trkpt><trkpt lat="44.8220926" lon="7.4821985"><ele>259.0</ele><time>2026-04-25T17:56:30.178Z</time></trkpt><trkpt lat="44.8220239" lon="7.4821873"><ele>259.0</ele><time>2026-04-25T17:56:31.181Z</time></trkpt><trkpt lat="44.8219478" lon="7.4821498"><ele>259.0</ele><time>2026-04-25T17:56:32.184Z</time></trkpt><trkpt lat="44.8218504" lon="7.4821078"><ele>259.0</ele><time>2026-04-25T17:56:33.175Z</time></trkpt><trkpt lat="44.8217595" lon="7.4820641"><ele>259.0</ele><time>2026-04-25T17:56:34.175Z</time></trkpt><trkpt lat="44.8216857" lon="7.4820278"><ele>259.0</ele><time>2026-04-25T17:56:35.172Z</time></trkpt><trkpt lat="44.8215465" lon="7.4820215"><ele>259.0</ele><time>2026-04-25T17:56:37.168Z</time></trkpt><trkpt lat="44.8214424" lon="7.4820781"><ele>259.0</ele><time>2026-04-25T17:56:38.178Z</time></trkpt><trkpt lat="44.821281" lon="7.4821834"><ele>259.0</ele><time>2026-04-25T17:56:39.18Z</time></trkpt><trkpt lat="44.8210545" lon="7.4823236"><ele>259.0</ele><time>2026-04-25T17:56:40.172Z</time></trkpt><trkpt lat="44.8208068" lon="7.4824684"><ele>259.0</ele><time>2026-04-25T17:56:41.171Z</time></trkpt><trkpt lat="44.8205898" lon="7.4826229"><ele>259.0</ele><time>2026-04-25T17:56:42.179Z</time></trkpt><trkpt lat="44.8204006" lon="7.4827455"><ele>259.0</ele><time>2026-04-25T17:56:43.167Z</time></trkpt><trkpt lat="44.8203062" lon="7.4828135"><ele>259.0</ele><time>2026-04-25T17:56:44.167Z</time></trkpt><trkpt lat="44.8202267" lon="7.4828815"><ele>259.0</ele><time>2026-04-25T17:56:45.179Z</time></trkpt><trkpt lat="44.8202054" lon="7.4827512"><ele>259.0</ele><time>2026-04-25T17:56:49.169Z</time></trkpt><trkpt lat="44.8202106" lon="7.4826245"><ele>259.0</ele><time>2026-04-25T17:56:51.171Z</time></trkpt><trkpt lat="44.8201932" lon="7.4824972"><ele>259.0</ele><time>2026-04-25T17:56:53.175Z</time></trkpt></trkseg></trk></gpx>